<?xml version='1.0' encoding='UTF-8'?><gpx version="1.1" creator="JPX - https://github.com/jenetics/jpx" xmlns="http://www.topografix.com/GPX/1/1"><trk><trkseg><trkpt lat="43.627486" lon="11.5161588"><ele>145.0</ele><time>2026-03-28T08:06:03.139Z</time></trkpt><trkpt lat="43.6276281" lon="11.5159295"><ele>145.0</ele><time>2026-03-28T08:06:05.471Z</time></trkpt><trkpt lat="43.6277193" lon="11.5157762"><ele>145.0</ele><time>2026-03-28T08:06:06.473Z</time></trkpt><trkpt lat="43.6277832" lon="11.5156729"><ele>145.0</ele><time>2026-03-28T08:06:07.471Z</time></trkpt><trkpt lat="43.6278307" lon="11.5155962"><ele>145.0</ele><time>2026-03-28T08:06:08.473Z</time></trkpt><trkpt lat="43.6279017" lon="11.5154774"><ele>145.0</ele><time>2026-03-28T08:06:10.473Z</time></trkpt><trkpt lat="43.6278105" lon="11.5154764"><ele>145.0</ele><time>2026-03-28T08:06:12.469Z</time></trkpt><trkpt lat="43.627756" lon="11.515523"><ele>145.0</ele><time>2026-03-28T08:06:16.525Z</time></trkpt><trkpt lat="43.6277244" lon="11.5154349"><ele>145.0</ele><time>2026-03-28T08:06:20.576Z</time></trkpt><trkpt lat="43.6276762" lon="11.5155304"><ele>145.0</ele><time>2026-03-28T08:06:36.555Z</time></trkpt><trkpt lat="43.6276147" lon="11.5156045"><ele>145.0</ele><time>2026-03-28T08:06:38.515Z</time></trkpt><trkpt lat="43.6275039" lon="11.5157033"><ele>145.0</ele><time>2026-03-28T08:06:40.492Z</time></trkpt><trkpt lat="43.6274487" lon="11.5157456"><ele>145.0</ele><time>2026-03-28T08:06:41.534Z</time></trkpt><trkpt lat="43.6273571" lon="11.5158203"><ele>145.0</ele><time>2026-03-28T08:06:43.502Z</time></trkpt><trkpt lat="43.6273436" lon="11.515909"><ele>145.0</ele><time>2026-03-28T08:06:48.481Z</time></trkpt><trkpt lat="43.6271117" lon="11.5165867"><ele>145.4</ele><time>2026-03-28T08:07:08.473Z</time></trkpt><trkpt lat="43.627045" lon="11.5165717"><ele>145.8</ele><time>2026-03-28T08:07:10.472Z</time></trkpt><trkpt lat="43.6269483" lon="11.5165467"><ele>146.2</ele><time>2026-03-28T08:07:12.474Z</time></trkpt><trkpt lat="43.6268517" lon="11.5165483"><ele>146.6</ele><time>2026-03-28T08:07:14.471Z</time></trkpt><trkpt lat="43.6267867" lon="11.51663"><ele>147.0</ele><time>2026-03-28T08:07:16.472Z</time></trkpt><trkpt lat="43.6267283" lon="11.5167567"><ele>147.0</ele><time>2026-03-28T08:07:18.472Z</time></trkpt><trkpt lat="43.62666" lon="11.5168717"><ele>147.0</ele><time>2026-03-28T08:07:20.47Z</time></trkpt><trkpt lat="43.6265883" lon="11.5169167"><ele>147.0</ele><time>2026-03-28T08:07:22.471Z</time></trkpt><trkpt lat="43.6266117" lon="11.5170017"><ele>147.0</ele><time>2026-03-28T08:07:24.474Z</time></trkpt><trkpt lat="43.6267067" lon="11.5170967"><ele>147.0</ele><time>2026-03-28T08:07:26.473Z</time></trkpt><trkpt lat="43.6267983" lon="11.5171333"><ele>147.4</ele><time>2026-03-28T08:07:28.47Z</time></trkpt><trkpt lat="43.626885" lon="11.5171733"><ele>147.79999999999998</ele><time>2026-03-28T08:07:30.472Z</time></trkpt><trkpt lat="43.6269867" lon="11.5172017"><ele>148.2</ele><time>2026-03-28T08:07:32.473Z</time></trkpt><trkpt lat="43.62711" lon="11.5172367"><ele>148.6</ele><time>2026-03-28T08:07:34.471Z</time></trkpt><trkpt lat="43.6271733" lon="11.517265"><ele>149.0</ele><time>2026-03-28T08:07:35.471Z</time></trkpt><trkpt lat="43.6272533" lon="11.5173033"><ele>149.2</ele><time>2026-03-28T08:07:36.47Z</time></trkpt><trkpt lat="43.6273333" lon="11.5173367"><ele>149.4</ele><time>2026-03-28T08:07:37.471Z</time></trkpt><trkpt lat="43.62745" lon="11.517405"><ele>149.6</ele><time>2026-03-28T08:07:38.474Z</time></trkpt><trkpt lat="43.62756" lon="11.517455"><ele>149.8</ele><time>2026-03-28T08:07:39.473Z</time></trkpt><trkpt lat="43.62764" lon="11.517485"><ele>150.0</ele><time>2026-03-28T08:07:40.472Z</time></trkpt><trkpt lat="43.6277383" lon="11.5175567"><ele>150.0</ele><time>2026-03-28T08:07:42.471Z</time></trkpt><trkpt lat="43.6277967" lon="11.5176267"><ele>150.0</ele><time>2026-03-28T08:07:44.47Z</time></trkpt><trkpt lat="43.627815" lon="11.5177267"><ele>150.0</ele><time>2026-03-28T08:07:46.474Z</time></trkpt><trkpt lat="43.6278167" lon="11.5178383"><ele>150.0</ele><time>2026-03-28T08:07:48.472Z</time></trkpt><trkpt lat="43.6278083" lon="11.51794"><ele>150.0</ele><time>2026-03-28T08:07:50.473Z</time></trkpt><trkpt lat="43.6278017" lon="11.518055"><ele>150.0</ele><time>2026-03-28T08:07:52.471Z</time></trkpt><trkpt lat="43.6277933" lon="11.5181567"><ele>150.66666666666666</ele><time>2026-03-28T08:07:54.474Z</time></trkpt><trkpt lat="43.6277733" lon="11.51826"><ele>151.33333333333334</ele><time>2026-03-28T08:07:56.471Z</time></trkpt><trkpt lat="43.62776" lon="11.5183633"><ele>152.0</ele><time>2026-03-28T08:07:58.469Z</time></trkpt><trkpt lat="43.6277467" lon="11.518485"><ele>152.66666666666669</ele><time>2026-03-28T08:08:00.471Z</time></trkpt><trkpt lat="43.62772" lon="11.5186117"><ele>153.33333333333334</ele><time>2026-03-28T08:08:02.471Z</time></trkpt><trkpt lat="43.6276883" lon="11.518745"><ele>154.0</ele><time>2026-03-28T08:08:04.471Z</time></trkpt><trkpt lat="43.62766" lon="11.5189"><ele>154.16666666666669</ele><time>2026-03-28T08:08:06.472Z</time></trkpt><trkpt lat="43.6276317" lon="11.5190683"><ele>154.33333333333334</ele><time>2026-03-28T08:08:08.471Z</time></trkpt><trkpt lat="43.6276117" lon="11.519155"><ele>154.5</ele><time>2026-03-28T08:08:09.471Z</time></trkpt><trkpt lat="43.627595" lon="11.5192483"><ele>154.66666666666666</ele><time>2026-03-28T08:08:10.471Z</time></trkpt><trkpt lat="43.627575" lon="11.5193467"><ele>154.83333333333331</ele><time>2026-03-28T08:08:11.472Z</time></trkpt><trkpt lat="43.6275533" lon="11.5194483"><ele>155.0</ele><time>2026-03-28T08:08:12.472Z</time></trkpt><trkpt lat="43.6275317" lon="11.519555"><ele>154.66666666666666</ele><time>2026-03-28T08:08:13.471Z</time></trkpt><trkpt lat="43.6275067" lon="11.5196617"><ele>154.33333333333331</ele><time>2026-03-28T08:08:14.472Z</time></trkpt><trkpt lat="43.6274817" lon="11.51977"><ele>154.0</ele><time>2026-03-28T08:08:15.473Z</time></trkpt><trkpt lat="43.6274517" lon="11.5198817"><ele>153.66666666666666</ele><time>2026-03-28T08:08:16.474Z</time></trkpt><trkpt lat="43.6274183" lon="11.52"><ele>153.33333333333334</ele><time>2026-03-28T08:08:17.471Z</time></trkpt><trkpt lat="43.6273833" lon="11.5201183"><ele>153.0</ele><time>2026-03-28T08:08:18.471Z</time></trkpt><trkpt lat="43.6273483" lon="11.5202417"><ele>153.0</ele><time>2026-03-28T08:08:19.472Z</time></trkpt><trkpt lat="43.6273117" lon="11.520365"><ele>153.0</ele><time>2026-03-28T08:08:20.47Z</time></trkpt><trkpt lat="43.6272717" lon="11.52049"><ele>153.0</ele><time>2026-03-28T08:08:21.472Z</time></trkpt><trkpt lat="43.62723" lon="11.5206117"><ele>153.0</ele><time>2026-03-28T08:08:22.471Z</time></trkpt><trkpt lat="43.627185" lon="11.5207333"><ele>153.0</ele><time>2026-03-28T08:08:23.471Z</time></trkpt><trkpt lat="43.6271383" lon="11.52085"><ele>152.4</ele><time>2026-03-28T08:08:24.47Z</time></trkpt><trkpt lat="43.62709" lon="11.5209633"><ele>151.8</ele><time>2026-03-28T08:08:25.471Z</time></trkpt><trkpt lat="43.627045" lon="11.5210733"><ele>151.2</ele><time>2026-03-28T08:08:26.475Z</time></trkpt><trkpt lat="43.6269983" lon="11.5211833"><ele>150.6</ele><time>2026-03-28T08:08:27.469Z</time></trkpt><trkpt lat="43.6269483" lon="11.5212833"><ele>150.0</ele><time>2026-03-28T08:08:28.47Z</time></trkpt><trkpt lat="43.6268933" lon="11.52138"><ele>149.83333333333334</ele><time>2026-03-28T08:08:29.472Z</time></trkpt><trkpt lat="43.626845" lon="11.521475"><ele>149.66666666666666</ele><time>2026-03-28T08:08:30.473Z</time></trkpt><trkpt lat="43.6267967" lon="11.5215717"><ele>149.5</ele><time>2026-03-28T08:08:31.47Z</time></trkpt><trkpt lat="43.6267483" lon="11.52167"><ele>149.33333333333331</ele><time>2026-03-28T08:08:32.471Z</time></trkpt><trkpt lat="43.6267" lon="11.5217633"><ele>149.16666666666666</ele><time>2026-03-28T08:08:33.471Z</time></trkpt><trkpt lat="43.6266483" lon="11.521855"><ele>149.0</ele><time>2026-03-28T08:08:34.471Z</time></trkpt><trkpt lat="43.6266" lon="11.5219433"><ele>149.0</ele><time>2026-03-28T08:08:35.469Z</time></trkpt><trkpt lat="43.62655" lon="11.52203"><ele>149.0</ele><time>2026-03-28T08:08:36.472Z</time></trkpt><trkpt lat="43.6265033" lon="11.52211"><ele>149.0</ele><time>2026-03-28T08:08:37.471Z</time></trkpt><trkpt lat="43.626455" lon="11.5221867"><ele>149.0</ele><time>2026-03-28T08:08:38.471Z</time></trkpt><trkpt lat="43.6264117" lon="11.5222633"><ele>149.0</ele><time>2026-03-28T08:08:39.473Z</time></trkpt><trkpt lat="43.626365" lon="11.5223333"><ele>149.0</ele><time>2026-03-28T08:08:40.471Z</time></trkpt><trkpt lat="43.6263133" lon="11.5224033"><ele>149.0</ele><time>2026-03-28T08:08:41.472Z</time></trkpt><trkpt lat="43.6262633" lon="11.522475"><ele>149.0</ele><time>2026-03-28T08:08:42.474Z</time></trkpt><trkpt lat="43.6262117" lon="11.522545"><ele>149.0</ele><time>2026-03-28T08:08:43.472Z</time></trkpt><trkpt lat="43.626155" lon="11.522615"><ele>149.0</ele><time>2026-03-28T08:08:44.472Z</time></trkpt><trkpt lat="43.626095" lon="11.5226783"><ele>149.0</ele><time>2026-03-28T08:08:45.471Z</time></trkpt><trkpt lat="43.6260317" lon="11.5227333"><ele>149.0</ele><time>2026-03-28T08:08:46.473Z</time></trkpt><trkpt lat="43.625965" lon="11.5227817"><ele>149.0</ele><time>2026-03-28T08:08:47.47Z</time></trkpt><trkpt lat="43.6258983" lon="11.52282"><ele>149.0</ele><time>2026-03-28T08:08:48.469Z</time></trkpt><trkpt lat="43.625825" lon="11.5228517"><ele>149.0</ele><time>2026-03-28T08:08:49.47Z</time></trkpt><trkpt lat="43.6257533" lon="11.522875"><ele>149.0</ele><time>2026-03-28T08:08:50.471Z</time></trkpt><trkpt lat="43.6256767" lon="11.52289"><ele>149.0</ele><time>2026-03-28T08:08:51.469Z</time></trkpt><trkpt lat="43.6256" lon="11.5229017"><ele>149.0</ele><time>2026-03-28T08:08:52.47Z</time></trkpt><trkpt lat="43.625525" lon="11.5229067"><ele>149.0</ele><time>2026-03-28T08:08:53.47Z</time></trkpt><trkpt lat="43.62545" lon="11.5229017"><ele>149.0</ele><time>2026-03-28T08:08:54.471Z</time></trkpt><trkpt lat="43.6253867" lon="11.5228917"><ele>149.0</ele><time>2026-03-28T08:08:55.468Z</time></trkpt><trkpt lat="43.625285" lon="11.522865"><ele>148.66666666666666</ele><time>2026-03-28T08:08:57.472Z</time></trkpt><trkpt lat="43.6252217" lon="11.5228567"><ele>148.33333333333331</ele><time>2026-03-28T08:08:59.466Z</time></trkpt><trkpt lat="43.62515" lon="11.5228967"><ele>148.0</ele><time>2026-03-28T08:09:05.47Z</time></trkpt><trkpt lat="43.6250983" lon="11.5229567"><ele>147.66666666666666</ele><time>2026-03-28T08:09:08.472Z</time></trkpt><trkpt lat="43.6250867" lon="11.5230517"><ele>147.33333333333334</ele><time>2026-03-28T08:09:10.47Z</time></trkpt><trkpt lat="43.6250917" lon="11.52318"><ele>147.0</ele><time>2026-03-28T08:09:12.47Z</time></trkpt><trkpt lat="43.6250883" lon="11.5233267"><ele>147.0</ele><time>2026-03-28T08:09:14.473Z</time></trkpt><trkpt lat="43.6250817" lon="11.5234933"><ele>147.0</ele><time>2026-03-28T08:09:16.469Z</time></trkpt><trkpt lat="43.6250783" lon="11.5236583"><ele>147.0</ele><time>2026-03-28T08:09:18.469Z</time></trkpt><trkpt lat="43.6250717" lon="11.5238217"><ele>147.0</ele><time>2026-03-28T08:09:20.471Z</time></trkpt><trkpt lat="43.625065" lon="11.5239917"><ele>147.25</ele><time>2026-03-28T08:09:22.47Z</time></trkpt><trkpt lat="43.6250667" lon="11.5241583"><ele>147.5</ele><time>2026-03-28T08:09:24.47Z</time></trkpt><trkpt lat="43.6250633" lon="11.5243267"><ele>147.75</ele><time>2026-03-28T08:09:26.471Z</time></trkpt><trkpt lat="43.6250567" lon="11.5244983"><ele>148.0</ele><time>2026-03-28T08:09:28.471Z</time></trkpt><trkpt lat="43.62505" lon="11.5246617"><ele>148.0</ele><time>2026-03-28T08:09:30.469Z</time></trkpt><trkpt lat="43.6250467" lon="11.5248267"><ele>148.0</ele><time>2026-03-28T08:09:32.472Z</time></trkpt><trkpt lat="43.6250417" lon="11.5249917"><ele>148.0</ele><time>2026-03-28T08:09:34.471Z</time></trkpt><trkpt lat="43.625035" lon="11.5251533"><ele>148.0</ele><time>2026-03-28T08:09:36.47Z</time></trkpt><trkpt lat="43.6250317" lon="11.5253167"><ele>147.75</ele><time>2026-03-28T08:09:38.471Z</time></trkpt><trkpt lat="43.6250283" lon="11.525485"><ele>147.5</ele><time>2026-03-28T08:09:40.47Z</time></trkpt><trkpt lat="43.6250267" lon="11.525655"><ele>147.25</ele><time>2026-03-28T08:09:42.471Z</time></trkpt><trkpt lat="43.6250283" lon="11.5258183"><ele>147.0</ele><time>2026-03-28T08:09:44.473Z</time></trkpt><trkpt lat="43.6250317" lon="11.5259783"><ele>147.0</ele><time>2026-03-28T08:09:46.472Z</time></trkpt><trkpt lat="43.62504" lon="11.52614"><ele>147.0</ele><time>2026-03-28T08:09:48.474Z</time></trkpt><trkpt lat="43.6250483" lon="11.5263067"><ele>147.0</ele><time>2026-03-28T08:09:50.47Z</time></trkpt><trkpt lat="43.6250583" lon="11.52647"><ele>147.0</ele><time>2026-03-28T08:09:52.472Z</time></trkpt><trkpt lat="43.6250733" lon="11.526635"><ele>147.75</ele><time>2026-03-28T08:09:54.471Z</time></trkpt><trkpt lat="43.62509" lon="11.5268017"><ele>148.5</ele><time>2026-03-28T08:09:56.472Z</time></trkpt><trkpt lat="43.62511" lon="11.52697"><ele>149.25</ele><time>2026-03-28T08:09:58.468Z</time></trkpt><trkpt lat="43.6251333" lon="11.5271383"><ele>150.0</ele><time>2026-03-28T08:10:00.472Z</time></trkpt><trkpt lat="43.6251567" lon="11.5273017"><ele>150.0</ele><time>2026-03-28T08:10:02.474Z</time></trkpt><trkpt lat="43.6251783" lon="11.527465"><ele>150.0</ele><time>2026-03-28T08:10:04.47Z</time></trkpt><trkpt lat="43.6252067" lon="11.5276217"><ele>150.0</ele><time>2026-03-28T08:10:06.471Z</time></trkpt><trkpt lat="43.625235" lon="11.52778"><ele>150.0</ele><time>2026-03-28T08:10:08.472Z</time></trkpt><trkpt lat="43.6252667" lon="11.5279417"><ele>150.0</ele><time>2026-03-28T08:10:10.471Z</time></trkpt><trkpt lat="43.6252983" lon="11.5281017"><ele>150.0</ele><time>2026-03-28T08:10:12.472Z</time></trkpt><trkpt lat="43.62533" lon="11.5282633"><ele>150.0</ele><time>2026-03-28T08:10:14.471Z</time></trkpt><trkpt lat="43.62536" lon="11.5284267"><ele>150.0</ele><time>2026-03-28T08:10:16.47Z</time></trkpt><trkpt lat="43.6253883" lon="11.5285933"><ele>151.0</ele><time>2026-03-28T08:10:18.47Z</time></trkpt><trkpt lat="43.62542" lon="11.5287567"><ele>152.0</ele><time>2026-03-28T08:10:20.472Z</time></trkpt><trkpt lat="43.62545" lon="11.5289233"><ele>153.0</ele><time>2026-03-28T08:10:22.469Z</time></trkpt><trkpt lat="43.62548" lon="11.52908"><ele>154.0</ele><time>2026-03-28T08:10:24.471Z</time></trkpt><trkpt lat="43.62551" lon="11.5292417"><ele>154.0</ele><time>2026-03-28T08:10:26.471Z</time></trkpt><trkpt lat="43.625535" lon="11.529405"><ele>154.0</ele><time>2026-03-28T08:10:28.47Z</time></trkpt><trkpt lat="43.6255533" lon="11.529575"><ele>154.0</ele><time>2026-03-28T08:10:30.47Z</time></trkpt><trkpt lat="43.62557" lon="11.5297417"><ele>154.0</ele><time>2026-03-28T08:10:32.471Z</time></trkpt><trkpt lat="43.625575" lon="11.52991"><ele>154.75</ele><time>2026-03-28T08:10:34.471Z</time></trkpt><trkpt lat="43.6255767" lon="11.5300767"><ele>155.5</ele><time>2026-03-28T08:10:36.471Z</time></trkpt><trkpt lat="43.6255717" lon="11.530245"><ele>156.25</ele><time>2026-03-28T08:10:38.47Z</time></trkpt><trkpt lat="43.6255567" lon="11.5304083"><ele>157.0</ele><time>2026-03-28T08:10:40.474Z</time></trkpt><trkpt lat="43.6255417" lon="11.5305717"><ele>157.25</ele><time>2026-03-28T08:10:42.471Z</time></trkpt><trkpt lat="43.6255233" lon="11.5307333"><ele>157.5</ele><time>2026-03-28T08:10:44.471Z</time></trkpt><trkpt lat="43.625495" lon="11.5308917"><ele>157.75</ele><time>2026-03-28T08:10:46.47Z</time></trkpt><trkpt lat="43.6254617" lon="11.531055"><ele>158.0</ele><time>2026-03-28T08:10:48.47Z</time></trkpt><trkpt lat="43.625425" lon="11.5312117"><ele>157.5</ele><time>2026-03-28T08:10:50.47Z</time></trkpt><trkpt lat="43.6253867" lon="11.531375"><ele>157.0</ele><time>2026-03-28T08:10:52.471Z</time></trkpt><trkpt lat="43.6253483" lon="11.5315333"><ele>156.5</ele><time>2026-03-28T08:10:54.471Z</time></trkpt><trkpt lat="43.6253167" lon="11.5316917"><ele>156.0</ele><time>2026-03-28T08:10:56.473Z</time></trkpt><trkpt lat="43.6252817" lon="11.5318517"><ele>156.0</ele><time>2026-03-28T08:10:58.47Z</time></trkpt><trkpt lat="43.6252433" lon="11.5320083"><ele>156.0</ele><time>2026-03-28T08:11:00.47Z</time></trkpt><trkpt lat="43.625205" lon="11.532165"><ele>156.0</ele><time>2026-03-28T08:11:02.472Z</time></trkpt><trkpt lat="43.625165" lon="11.5323183"><ele>156.0</ele><time>2026-03-28T08:11:04.471Z</time></trkpt><trkpt lat="43.6251217" lon="11.5324717"><ele>156.25</ele><time>2026-03-28T08:11:06.47Z</time></trkpt><trkpt lat="43.6250817" lon="11.532625"><ele>156.5</ele><time>2026-03-28T08:11:08.471Z</time></trkpt><trkpt lat="43.6250383" lon="11.532775"><ele>156.75</ele><time>2026-03-28T08:11:10.469Z</time></trkpt><trkpt lat="43.6249967" lon="11.532925"><ele>157.0</ele><time>2026-03-28T08:11:12.472Z</time></trkpt><trkpt lat="43.62496" lon="11.5330817"><ele>158.0</ele><time>2026-03-28T08:11:14.472Z</time></trkpt><trkpt lat="43.6249233" lon="11.5332367"><ele>159.0</ele><time>2026-03-28T08:11:16.47Z</time></trkpt><trkpt lat="43.62489" lon="11.53339"><ele>160.0</ele><time>2026-03-28T08:11:18.47Z</time></trkpt><trkpt lat="43.6248517" lon="11.5335433"><ele>161.0</ele><time>2026-03-28T08:11:20.471Z</time></trkpt><trkpt lat="43.6248167" lon="11.5336967"><ele>162.0</ele><time>2026-03-28T08:11:22.469Z</time></trkpt><trkpt lat="43.6247767" lon="11.5338517"><ele>163.0</ele><time>2026-03-28T08:11:24.472Z</time></trkpt><trkpt lat="43.6247417" lon="11.534005"><ele>164.0</ele><time>2026-03-28T08:11:26.471Z</time></trkpt><trkpt lat="43.6247033" lon="11.5341633"><ele>165.0</ele><time>2026-03-28T08:11:28.471Z</time></trkpt><trkpt lat="43.62466" lon="11.53432"><ele>165.0</ele><time>2026-03-28T08:11:30.469Z</time></trkpt><trkpt lat="43.6246117" lon="11.5344767"><ele>165.0</ele><time>2026-03-28T08:11:32.471Z</time></trkpt><trkpt lat="43.6245667" lon="11.5346283"><ele>165.0</ele><time>2026-03-28T08:11:34.47Z</time></trkpt><trkpt lat="43.6245183" lon="11.5347733"><ele>165.0</ele><time>2026-03-28T08:11:36.47Z</time></trkpt><trkpt lat="43.6244667" lon="11.5349167"><ele>164.0</ele><time>2026-03-28T08:11:38.469Z</time></trkpt><trkpt lat="43.6244133" lon="11.5350633"><ele>163.0</ele><time>2026-03-28T08:11:40.471Z</time></trkpt><trkpt lat="43.6243583" lon="11.53521"><ele>162.0</ele><time>2026-03-28T08:11:42.472Z</time></trkpt><trkpt lat="43.6242983" lon="11.5353467"><ele>161.0</ele><time>2026-03-28T08:11:44.472Z</time></trkpt><trkpt lat="43.6242367" lon="11.5354767"><ele>161.0</ele><time>2026-03-28T08:11:46.47Z</time></trkpt><trkpt lat="43.6241817" lon="11.5356017"><ele>161.0</ele><time>2026-03-28T08:11:48.472Z</time></trkpt><trkpt lat="43.6241233" lon="11.535725"><ele>161.0</ele><time>2026-03-28T08:11:50.47Z</time></trkpt><trkpt lat="43.6240583" lon="11.53585"><ele>161.0</ele><time>2026-03-28T08:11:52.471Z</time></trkpt><trkpt lat="43.6240033" lon="11.5359717"><ele>161.0</ele><time>2026-03-28T08:11:54.47Z</time></trkpt><trkpt lat="43.6239533" lon="11.5360917"><ele>161.0</ele><time>2026-03-28T08:11:56.472Z</time></trkpt><trkpt lat="43.623895" lon="11.53621"><ele>161.0</ele><time>2026-03-28T08:11:58.472Z</time></trkpt><trkpt lat="43.6238367" lon="11.5363233"><ele>161.0</ele><time>2026-03-28T08:12:00.471Z</time></trkpt><trkpt lat="43.623775" lon="11.5364417"><ele>161.0</ele><time>2026-03-28T08:12:02.472Z</time></trkpt><trkpt lat="43.623725" lon="11.5365583"><ele>161.0</ele><time>2026-03-28T08:12:04.472Z</time></trkpt><trkpt lat="43.6236733" lon="11.536665"><ele>161.5</ele><time>2026-03-28T08:12:06.471Z</time></trkpt><trkpt lat="43.6236267" lon="11.5367667"><ele>162.0</ele><time>2026-03-28T08:12:08.47Z</time></trkpt><trkpt lat="43.6235817" lon="11.5368683"><ele>162.5</ele><time>2026-03-28T08:12:10.471Z</time></trkpt><trkpt lat="43.6235433" lon="11.5369683"><ele>163.0</ele><time>2026-03-28T08:12:12.471Z</time></trkpt><trkpt lat="43.6234983" lon="11.5370667"><ele>163.5</ele><time>2026-03-28T08:12:14.47Z</time></trkpt><trkpt lat="43.623455" lon="11.537155"><ele>164.0</ele><time>2026-03-28T08:12:16.47Z</time></trkpt><trkpt lat="43.6234117" lon="11.5372433"><ele>163.99999999999997</ele><time>2026-03-28T08:12:18.47Z</time></trkpt><trkpt lat="43.6233683" lon="11.5373283"><ele>164.0</ele><time>2026-03-28T08:12:20.472Z</time></trkpt><trkpt lat="43.6233317" lon="11.537415"><ele>164.0</ele><time>2026-03-28T08:12:22.471Z</time></trkpt><trkpt lat="43.6232933" lon="11.537505"><ele>164.0</ele><time>2026-03-28T08:12:24.473Z</time></trkpt><trkpt lat="43.623255" lon="11.537595"><ele>164.0</ele><time>2026-03-28T08:12:26.47Z</time></trkpt><trkpt lat="43.6232183" lon="11.5376783"><ele>163.99999999999997</ele><time>2026-03-28T08:12:28.47Z</time></trkpt><trkpt lat="43.6231867" lon="11.5377617"><ele>164.0</ele><time>2026-03-28T08:12:30.47Z</time></trkpt><trkpt lat="43.6231467" lon="11.5378433"><ele>164.42857142857142</ele><time>2026-03-28T08:12:32.471Z</time></trkpt><trkpt lat="43.6231067" lon="11.5379217"><ele>164.85714285714286</ele><time>2026-03-28T08:12:34.47Z</time></trkpt><trkpt lat="43.62307" lon="11.5379983"><ele>165.28571428571428</ele><time>2026-03-28T08:12:36.47Z</time></trkpt><trkpt lat="43.623035" lon="11.538075"><ele>165.71428571428572</ele><time>2026-03-28T08:12:38.471Z</time></trkpt><trkpt lat="43.6229933" lon="11.5381483"><ele>166.14285714285714</ele><time>2026-03-28T08:12:40.47Z</time></trkpt><trkpt lat="43.6229517" lon="11.5382217"><ele>166.57142857142856</ele><time>2026-03-28T08:12:42.469Z</time></trkpt><trkpt lat="43.6229067" lon="11.5382917"><ele>167.0</ele><time>2026-03-28T08:12:44.47Z</time></trkpt><trkpt lat="43.6228733" lon="11.5383667"><ele>167.0</ele><time>2026-03-28T08:12:46.47Z</time></trkpt><trkpt lat="43.62284" lon="11.5384433"><ele>167.0</ele><time>2026-03-28T08:12:48.47Z</time></trkpt><trkpt lat="43.6227983" lon="11.5385117"><ele>167.0</ele><time>2026-03-28T08:12:50.471Z</time></trkpt><trkpt lat="43.62274" lon="11.5386117"><ele>167.0</ele><time>2026-03-28T08:12:53.471Z</time></trkpt><trkpt lat="43.6227" lon="11.53868"><ele>167.0</ele><time>2026-03-28T08:12:55.469Z</time></trkpt><trkpt lat="43.622655" lon="11.5387433"><ele>167.0</ele><time>2026-03-28T08:12:57.471Z</time></trkpt><trkpt lat="43.62261" lon="11.5388067"><ele>167.0</ele><time>2026-03-28T08:12:59.471Z</time></trkpt><trkpt lat="43.62255" lon="11.538905"><ele>169.0</ele><time>2026-03-28T08:13:02.47Z</time></trkpt><trkpt lat="43.62249" lon="11.5390067"><ele>171.0</ele><time>2026-03-28T08:13:05.47Z</time></trkpt><trkpt lat="43.6224483" lon="11.5390733"><ele>173.0</ele><time>2026-03-28T08:13:07.47Z</time></trkpt><trkpt lat="43.622405" lon="11.5391383"><ele>175.0</ele><time>2026-03-28T08:13:09.471Z</time></trkpt><trkpt lat="43.6223433" lon="11.53923"><ele>177.0</ele><time>2026-03-28T08:13:12.469Z</time></trkpt><trkpt lat="43.6222883" lon="11.53932"><ele>179.0</ele><time>2026-03-28T08:13:15.471Z</time></trkpt><trkpt lat="43.6222317" lon="11.5394"><ele>179.0</ele><time>2026-03-28T08:13:18.471Z</time></trkpt><trkpt lat="43.6221633" lon="11.5394783"><ele>179.0</ele><time>2026-03-28T08:13:21.47Z</time></trkpt><trkpt lat="43.622095" lon="11.5395533"><ele>179.0</ele><time>2026-03-28T08:13:24.468Z</time></trkpt><trkpt lat="43.62204" lon="11.5396383"><ele>179.0</ele><time>2026-03-28T08:13:27.474Z</time></trkpt><trkpt lat="43.6219683" lon="11.5397167"><ele>179.0</ele><time>2026-03-28T08:13:30.468Z</time></trkpt><trkpt lat="43.6219" lon="11.5397967"><ele>179.0</ele><time>2026-03-28T08:13:33.471Z</time></trkpt><trkpt lat="43.6218267" lon="11.539875"><ele>180.66666666666666</ele><time>2026-03-28T08:13:36.47Z</time></trkpt><trkpt lat="43.6217567" lon="11.53995"><ele>182.33333333333331</ele><time>2026-03-28T08:13:39.471Z</time></trkpt><trkpt lat="43.6216867" lon="11.5400317"><ele>184.0</ele><time>2026-03-28T08:13:42.471Z</time></trkpt><trkpt lat="43.6216183" lon="11.54011"><ele>185.66666666666666</ele><time>2026-03-28T08:13:45.47Z</time></trkpt><trkpt lat="43.621545" lon="11.540175"><ele>187.33333333333334</ele><time>2026-03-28T08:13:48.471Z</time></trkpt><trkpt lat="43.6214667" lon="11.5402367"><ele>189.0</ele><time>2026-03-28T08:13:51.47Z</time></trkpt><trkpt lat="43.6213983" lon="11.540305"><ele>189.0</ele><time>2026-03-28T08:13:54.47Z</time></trkpt><trkpt lat="43.6213333" lon="11.5403683"><ele>189.0</ele><time>2026-03-28T08:13:57.471Z</time></trkpt><trkpt lat="43.6212617" lon="11.540425"><ele>189.0</ele><time>2026-03-28T08:14:00.471Z</time></trkpt><trkpt lat="43.6211983" lon="11.54048"><ele>189.0</ele><time>2026-03-28T08:14:03.47Z</time></trkpt><trkpt lat="43.621135" lon="11.5405467"><ele>189.0</ele><time>2026-03-28T08:14:06.472Z</time></trkpt><trkpt lat="43.6210617" lon="11.540615"><ele>189.0</ele><time>2026-03-28T08:14:09.47Z</time></trkpt><trkpt lat="43.6209883" lon="11.540675"><ele>193.5</ele><time>2026-03-28T08:14:12.468Z</time></trkpt><trkpt lat="43.6209133" lon="11.540735"><ele>198.0</ele><time>2026-03-28T08:14:15.47Z</time></trkpt><trkpt lat="43.6208383" lon="11.5408017"><ele>202.5</ele><time>2026-03-28T08:14:18.471Z</time></trkpt><trkpt lat="43.6207733" lon="11.5408617"><ele>207.0</ele><time>2026-03-28T08:14:21.471Z</time></trkpt><trkpt lat="43.6207067" lon="11.5408667"><ele>211.5</ele><time>2026-03-28T08:14:24.471Z</time></trkpt><trkpt lat="43.6206383" lon="11.5408717"><ele>216.0</ele><time>2026-03-28T08:14:27.468Z</time></trkpt><trkpt lat="43.6197033" lon="11.5417583"><ele>217.71428571428572</ele><time>2026-03-28T08:14:54.469Z</time></trkpt><trkpt lat="43.61964" lon="11.5417133"><ele>219.42857142857142</ele><time>2026-03-28T08:14:57.47Z</time></trkpt><trkpt lat="43.61959" lon="11.5417783"><ele>221.14285714285714</ele><time>2026-03-28T08:15:04.469Z</time></trkpt><trkpt lat="43.6195767" lon="11.5418633"><ele>222.85714285714283</ele><time>2026-03-28T08:15:07.471Z</time></trkpt><trkpt lat="43.6195933" lon="11.5419567"><ele>224.57142857142856</ele><time>2026-03-28T08:15:10.471Z</time></trkpt><trkpt lat="43.61961" lon="11.542045"><ele>226.28571428571428</ele><time>2026-03-28T08:15:13.471Z</time></trkpt><trkpt lat="43.6196183" lon="11.54217"><ele>228.0</ele><time>2026-03-28T08:15:16.472Z</time></trkpt><trkpt lat="43.619625" lon="11.5422567"><ele>228.0</ele><time>2026-03-28T08:15:18.47Z</time></trkpt><trkpt lat="43.61963" lon="11.542385"><ele>228.0</ele><time>2026-03-28T08:15:21.469Z</time></trkpt><trkpt lat="43.6196317" lon="11.542475"><ele>228.0</ele><time>2026-03-28T08:15:23.471Z</time></trkpt><trkpt lat="43.6196333" lon="11.5426"><ele>228.0</ele><time>2026-03-28T08:15:26.472Z</time></trkpt><trkpt lat="43.6196267" lon="11.542725"><ele>228.0</ele><time>2026-03-28T08:15:29.473Z</time></trkpt><trkpt lat="43.6196233" lon="11.54284"><ele>228.0</ele><time>2026-03-28T08:15:32.472Z</time></trkpt><trkpt lat="43.6196183" lon="11.5429533"><ele>228.85714285714283</ele><time>2026-03-28T08:15:35.47Z</time></trkpt><trkpt lat="43.61961" lon="11.5430833"><ele>229.7142857142857</ele><time>2026-03-28T08:15:38.474Z</time></trkpt><trkpt lat="43.6196033" lon="11.5431717"><ele>230.57142857142856</ele><time>2026-03-28T08:15:40.471Z</time></trkpt><trkpt lat="43.6195983" lon="11.5432617"><ele>231.42857142857144</ele><time>2026-03-28T08:15:42.471Z</time></trkpt><trkpt lat="43.6195933" lon="11.5433517"><ele>232.2857142857143</ele><time>2026-03-28T08:15:44.471Z</time></trkpt><trkpt lat="43.6195883" lon="11.5434417"><ele>233.14285714285717</ele><time>2026-03-28T08:15:46.47Z</time></trkpt><trkpt lat="43.6195833" lon="11.54353"><ele>234.0</ele><time>2026-03-28T08:15:48.473Z</time></trkpt><trkpt lat="43.6195817" lon="11.5436533"><ele>234.0</ele><time>2026-03-28T08:15:51.471Z</time></trkpt><trkpt lat="43.619575" lon="11.5437417"><ele>234.0</ele><time>2026-03-28T08:15:53.47Z</time></trkpt><trkpt lat="43.61957" lon="11.543865"><ele>234.0</ele><time>2026-03-28T08:15:56.471Z</time></trkpt><trkpt lat="43.619575" lon="11.5439917"><ele>234.0</ele><time>2026-03-28T08:15:59.47Z</time></trkpt><trkpt lat="43.6195783" lon="11.5441017"><ele>234.0</ele><time>2026-03-28T08:16:02.471Z</time></trkpt><trkpt lat="43.61959" lon="11.5442067"><ele>234.0</ele><time>2026-03-28T08:16:05.471Z</time></trkpt><trkpt lat="43.619625" lon="11.544315"><ele>234.0</ele><time>2026-03-28T08:16:08.472Z</time></trkpt><trkpt lat="43.619655" lon="11.5443917"><ele>234.0</ele><time>2026-03-28T08:16:10.471Z</time></trkpt><trkpt lat="43.6197083" lon="11.54449"><ele>234.0</ele><time>2026-03-28T08:16:13.471Z</time></trkpt><trkpt lat="43.6197817" lon="11.5445633"><ele>234.0</ele><time>2026-03-28T08:16:16.469Z</time></trkpt><trkpt lat="43.61986" lon="11.54462"><ele>234.0</ele><time>2026-03-28T08:16:19.471Z</time></trkpt><trkpt lat="43.6199417" lon="11.5446667"><ele>234.0</ele><time>2026-03-28T08:16:22.471Z</time></trkpt><trkpt lat="43.6200283" lon="11.544715"><ele>235.0</ele><time>2026-03-28T08:16:25.468Z</time></trkpt><trkpt lat="43.6201117" lon="11.5447667"><ele>235.99999999999997</ele><time>2026-03-28T08:16:28.469Z</time></trkpt><trkpt lat="43.6201967" lon="11.5448117"><ele>236.99999999999997</ele><time>2026-03-28T08:16:31.47Z</time></trkpt><trkpt lat="43.6202817" lon="11.54484"><ele>238.0</ele><time>2026-03-28T08:16:34.472Z</time></trkpt><trkpt lat="43.6203683" lon="11.5448783"><ele>239.0</ele><time>2026-03-28T08:16:37.471Z</time></trkpt><trkpt lat="43.6204533" lon="11.5449183"><ele>239.00000000000003</ele><time>2026-03-28T08:16:40.47Z</time></trkpt><trkpt lat="43.6205333" lon="11.544965"><ele>239.0</ele><time>2026-03-28T08:16:43.471Z</time></trkpt><trkpt lat="43.62061" lon="11.54502"><ele>239.0</ele><time>2026-03-28T08:16:46.47Z</time></trkpt><trkpt lat="43.62068" lon="11.5450867"><ele>239.0</ele><time>2026-03-28T08:16:49.472Z</time></trkpt><trkpt lat="43.62074" lon="11.5451617"><ele>239.00000000000003</ele><time>2026-03-28T08:16:52.47Z</time></trkpt><trkpt lat="43.6207933" lon="11.5452417"><ele>239.0</ele><time>2026-03-28T08:16:55.473Z</time></trkpt><trkpt lat="43.6208433" lon="11.545345"><ele>238.28571428571433</ele><time>2026-03-28T08:16:58.47Z</time></trkpt><trkpt lat="43.6208833" lon="11.5454483"><ele>237.57142857142858</ele><time>2026-03-28T08:17:01.472Z</time></trkpt><trkpt lat="43.6209083" lon="11.5455317"><ele>236.8571428571429</ele><time>2026-03-28T08:17:03.472Z</time></trkpt><trkpt lat="43.62093" lon="11.5456233"><ele>236.14285714285717</ele><time>2026-03-28T08:17:05.471Z</time></trkpt><trkpt lat="43.620945" lon="11.54572"><ele>235.42857142857144</ele><time>2026-03-28T08:17:07.47Z</time></trkpt><trkpt lat="43.62095" lon="11.545815"><ele>234.71428571428572</ele><time>2026-03-28T08:17:09.47Z</time></trkpt><trkpt lat="43.62095" lon="11.545905"><ele>234.0</ele><time>2026-03-28T08:17:11.472Z</time></trkpt><trkpt lat="43.6209383" lon="11.54603"><ele>234.0</ele><time>2026-03-28T08:17:14.471Z</time></trkpt><trkpt lat="43.620915" lon="11.5461467"><ele>234.0</ele><time>2026-03-28T08:17:17.471Z</time></trkpt><trkpt lat="43.6208933" lon="11.54626"><ele>234.0</ele><time>2026-03-28T08:17:20.471Z</time></trkpt><trkpt lat="43.62088" lon="11.546365"><ele>234.0</ele><time>2026-03-28T08:17:23.47Z</time></trkpt><trkpt lat="43.6208683" lon="11.5464633"><ele>234.0</ele><time>2026-03-28T08:17:26.469Z</time></trkpt><trkpt lat="43.6208483" lon="11.54657"><ele>234.0</ele><time>2026-03-28T08:17:29.471Z</time></trkpt><trkpt lat="43.6208233" lon="11.5466767"><ele>234.85714285714286</ele><time>2026-03-28T08:17:32.472Z</time></trkpt><trkpt lat="43.620805" lon="11.5467783"><ele>235.71428571428572</ele><time>2026-03-28T08:17:35.471Z</time></trkpt><trkpt lat="43.6207867" lon="11.54687"><ele>236.57142857142858</ele><time>2026-03-28T08:17:38.469Z</time></trkpt><trkpt lat="43.620775" lon="11.5469717"><ele>237.42857142857144</ele><time>2026-03-28T08:17:41.471Z</time></trkpt><trkpt lat="43.620755" lon="11.5470717"><ele>238.28571428571428</ele><time>2026-03-28T08:17:44.473Z</time></trkpt><trkpt lat="43.6207417" lon="11.54717"><ele>239.14285714285717</ele><time>2026-03-28T08:17:47.472Z</time></trkpt><trkpt lat="43.6207267" lon="11.54727"><ele>240.0</ele><time>2026-03-28T08:17:50.469Z</time></trkpt><trkpt lat="43.6207117" lon="11.54737"><ele>241.16666666666666</ele><time>2026-03-28T08:17:53.471Z</time></trkpt><trkpt lat="43.6206917" lon="11.5474717"><ele>242.33333333333331</ele><time>2026-03-28T08:17:56.472Z</time></trkpt><trkpt lat="43.6206783" lon="11.5475733"><ele>243.5</ele><time>2026-03-28T08:17:59.471Z</time></trkpt><trkpt lat="43.6206583" lon="11.547675"><ele>244.66666666666666</ele><time>2026-03-28T08:18:02.469Z</time></trkpt><trkpt lat="43.6206433" lon="11.5477767"><ele>245.83333333333331</ele><time>2026-03-28T08:18:05.47Z</time></trkpt><trkpt lat="43.62063" lon="11.54788"><ele>247.0</ele><time>2026-03-28T08:18:08.472Z</time></trkpt><trkpt lat="43.6206183" lon="11.54798"><ele>247.49999999999997</ele><time>2026-03-28T08:18:11.471Z</time></trkpt><trkpt lat="43.6206167" lon="11.5480833"><ele>248.0</ele><time>2026-03-28T08:18:14.47Z</time></trkpt><trkpt lat="43.6206167" lon="11.5481917"><ele>248.5</ele><time>2026-03-28T08:18:17.471Z</time></trkpt><trkpt lat="43.6206067" lon="11.548305"><ele>249.0</ele><time>2026-03-28T08:18:20.471Z</time></trkpt><trkpt lat="43.6206" lon="11.5484133"><ele>249.49999999999997</ele><time>2026-03-28T08:18:23.47Z</time></trkpt><trkpt lat="43.6205983" lon="11.54852"><ele>250.0</ele><time>2026-03-28T08:18:26.47Z</time></trkpt><trkpt lat="43.620595" lon="11.5486367"><ele>251.33333333333331</ele><time>2026-03-28T08:18:29.471Z</time></trkpt><trkpt lat="43.62059" lon="11.54875"><ele>252.66666666666666</ele><time>2026-03-28T08:18:32.472Z</time></trkpt><trkpt lat="43.6205967" lon="11.5488567"><ele>254.0</ele><time>2026-03-28T08:18:35.469Z</time></trkpt><trkpt lat="43.6206117" lon="11.5489633"><ele>255.33333333333331</ele><time>2026-03-28T08:18:38.47Z</time></trkpt><trkpt lat="43.6206167" lon="11.54907"><ele>256.6666666666667</ele><time>2026-03-28T08:18:41.471Z</time></trkpt><trkpt lat="43.62062" lon="11.5491733"><ele>258.0</ele><time>2026-03-28T08:18:44.47Z</time></trkpt><trkpt lat="43.6206217" lon="11.5492617"><ele>258.0</ele><time>2026-03-28T08:18:47.471Z</time></trkpt><trkpt lat="43.62063" lon="11.549365"><ele>258.0</ele><time>2026-03-28T08:18:50.471Z</time></trkpt><trkpt lat="43.6206367" lon="11.5494567"><ele>258.0</ele><time>2026-03-28T08:18:53.47Z</time></trkpt><trkpt lat="43.6206367" lon="11.5495683"><ele>258.0</ele><time>2026-03-28T08:18:56.472Z</time></trkpt><trkpt lat="43.62065" lon="11.5496717"><ele>258.0</ele><time>2026-03-28T08:18:59.472Z</time></trkpt><trkpt lat="43.6206583" lon="11.549785"><ele>258.0</ele><time>2026-03-28T08:19:02.47Z</time></trkpt><trkpt lat="43.6206633" lon="11.5498983"><ele>259.0</ele><time>2026-03-28T08:19:05.471Z</time></trkpt><trkpt lat="43.6206617" lon="11.5500167"><ele>260.0</ele><time>2026-03-28T08:19:08.471Z</time></trkpt><trkpt lat="43.620665" lon="11.55013"><ele>261.0</ele><time>2026-03-28T08:19:11.472Z</time></trkpt><trkpt lat="43.6206717" lon="11.5502367"><ele>262.0</ele><time>2026-03-28T08:19:14.471Z</time></trkpt><trkpt lat="43.6206633" lon="11.550355"><ele>263.0</ele><time>2026-03-28T08:19:17.471Z</time></trkpt><trkpt lat="43.6206583" lon="11.5504717"><ele>264.0</ele><time>2026-03-28T08:19:20.474Z</time></trkpt><trkpt lat="43.62065" lon="11.5505983"><ele>264.5</ele><time>2026-03-28T08:19:23.472Z</time></trkpt><trkpt lat="43.6206467" lon="11.5507217"><ele>265.0</ele><time>2026-03-28T08:19:26.47Z</time></trkpt><trkpt lat="43.620635" lon="11.550835"><ele>265.5</ele><time>2026-03-28T08:19:29.47Z</time></trkpt><trkpt lat="43.620625" lon="11.550955"><ele>266.0</ele><time>2026-03-28T08:19:32.47Z</time></trkpt><trkpt lat="43.62062" lon="11.5510417"><ele>266.5</ele><time>2026-03-28T08:19:34.471Z</time></trkpt><trkpt lat="43.6206183" lon="11.55113"><ele>267.0</ele><time>2026-03-28T08:19:36.469Z</time></trkpt><trkpt lat="43.6206117" lon="11.5512333"><ele>267.3333333333333</ele><time>2026-03-28T08:19:38.47Z</time></trkpt><trkpt lat="43.6206083" lon="11.5513333"><ele>267.6666666666667</ele><time>2026-03-28T08:19:40.47Z</time></trkpt><trkpt lat="43.6206117" lon="11.5514483"><ele>268.0</ele><time>2026-03-28T08:19:42.47Z</time></trkpt><trkpt lat="43.6206083" lon="11.5515633"><ele>268.33333333333337</ele><time>2026-03-28T08:19:44.472Z</time></trkpt><trkpt lat="43.6206" lon="11.5516817"><ele>268.6666666666667</ele><time>2026-03-28T08:19:46.472Z</time></trkpt><trkpt lat="43.620595" lon="11.5517917"><ele>269.0</ele><time>2026-03-28T08:19:48.47Z</time></trkpt><trkpt lat="43.62059" lon="11.5519017"><ele>269.0</ele><time>2026-03-28T08:19:50.469Z</time></trkpt><trkpt lat="43.6205817" lon="11.55201"><ele>269.0</ele><time>2026-03-28T08:19:52.471Z</time></trkpt><trkpt lat="43.6205683" lon="11.5521183"><ele>269.0</ele><time>2026-03-28T08:19:54.47Z</time></trkpt><trkpt lat="43.620555" lon="11.5522333"><ele>269.0</ele><time>2026-03-28T08:19:56.467Z</time></trkpt><trkpt lat="43.6205433" lon="11.5523483"><ele>269.0</ele><time>2026-03-28T08:19:58.47Z</time></trkpt><trkpt lat="43.6205367" lon="11.55246"><ele>269.0</ele><time>2026-03-28T08:20:00.47Z</time></trkpt><trkpt lat="43.6205317" lon="11.552565"><ele>269.6666666666667</ele><time>2026-03-28T08:20:02.471Z</time></trkpt><trkpt lat="43.62055" lon="11.5526667"><ele>270.33333333333337</ele><time>2026-03-28T08:20:04.472Z</time></trkpt><trkpt lat="43.620595" lon="11.55275"><ele>271.0</ele><time>2026-03-28T08:20:06.472Z</time></trkpt><trkpt lat="43.6206683" lon="11.5527883"><ele>271.6666666666667</ele><time>2026-03-28T08:20:08.468Z</time></trkpt><trkpt lat="43.6207533" lon="11.552785"><ele>272.3333333333333</ele><time>2026-03-28T08:20:10.47Z</time></trkpt><trkpt lat="43.6208467" lon="11.5527767"><ele>273.0</ele><time>2026-03-28T08:20:12.471Z</time></trkpt><trkpt lat="43.6209417" lon="11.5527583"><ele>273.0</ele><time>2026-03-28T08:20:14.472Z</time></trkpt><trkpt lat="43.6210383" lon="11.552745"><ele>273.0</ele><time>2026-03-28T08:20:16.471Z</time></trkpt><trkpt lat="43.6211433" lon="11.55275"><ele>273.0</ele><time>2026-03-28T08:20:18.471Z</time></trkpt><trkpt lat="43.6212483" lon="11.5527617"><ele>273.0</ele><time>2026-03-28T08:20:20.471Z</time></trkpt><trkpt lat="43.6213567" lon="11.55276"><ele>273.0</ele><time>2026-03-28T08:20:22.471Z</time></trkpt><trkpt lat="43.62146" lon="11.5527633"><ele>272.75</ele><time>2026-03-28T08:20:24.472Z</time></trkpt><trkpt lat="43.6215683" lon="11.5527717"><ele>272.5</ele><time>2026-03-28T08:20:26.471Z</time></trkpt><trkpt lat="43.6216817" lon="11.552795"><ele>272.25</ele><time>2026-03-28T08:20:28.47Z</time></trkpt><trkpt lat="43.6217917" lon="11.5528283"><ele>272.0</ele><time>2026-03-28T08:20:30.472Z</time></trkpt><trkpt lat="43.6218983" lon="11.5528867"><ele>273.2</ele><time>2026-03-28T08:20:32.471Z</time></trkpt><trkpt lat="43.622" lon="11.552955"><ele>274.4</ele><time>2026-03-28T08:20:34.473Z</time></trkpt><trkpt lat="43.6220867" lon="11.5530367"><ele>275.6</ele><time>2026-03-28T08:20:36.471Z</time></trkpt><trkpt lat="43.6221417" lon="11.5530833"><ele>276.8</ele><time>2026-03-28T08:20:38.469Z</time></trkpt><trkpt lat="43.62221" lon="11.5531667"><ele>278.0</ele><time>2026-03-28T08:20:41.471Z</time></trkpt><trkpt lat="43.6222717" lon="11.55327"><ele>278.0</ele><time>2026-03-28T08:21:10.468Z</time></trkpt><trkpt lat="43.6223217" lon="11.553375"><ele>278.0</ele><time>2026-03-28T08:21:13.469Z</time></trkpt><trkpt lat="43.622375" lon="11.5534767"><ele>278.0</ele><time>2026-03-28T08:21:15.471Z</time></trkpt><trkpt lat="43.6224383" lon="11.5535933"><ele>278.0</ele><time>2026-03-28T08:21:17.47Z</time></trkpt><trkpt lat="43.62249" lon="11.55372"><ele>278.0</ele><time>2026-03-28T08:21:19.473Z</time></trkpt><trkpt lat="43.6225267" lon="11.5538567"><ele>278.1666666666667</ele><time>2026-03-28T08:21:21.473Z</time></trkpt><trkpt lat="43.6225583" lon="11.5539883"><ele>278.33333333333337</ele><time>2026-03-28T08:21:23.471Z</time></trkpt><trkpt lat="43.6225767" lon="11.5541133"><ele>278.5</ele><time>2026-03-28T08:21:25.472Z</time></trkpt><trkpt lat="43.622605" lon="11.5542067"><ele>278.6666666666667</ele><time>2026-03-28T08:21:28.469Z</time></trkpt><trkpt lat="43.6225967" lon="11.554295"><ele>278.8333333333333</ele><time>2026-03-28T08:21:47.47Z</time></trkpt><trkpt lat="43.6226033" lon="11.5543967"><ele>279.0</ele><time>2026-03-28T08:21:50.471Z</time></trkpt><trkpt lat="43.622605" lon="11.5545317"><ele>279.3333333333333</ele><time>2026-03-28T08:21:53.474Z</time></trkpt><trkpt lat="43.6226117" lon="11.5546417"><ele>279.6666666666667</ele><time>2026-03-28T08:21:55.472Z</time></trkpt><trkpt lat="43.6226183" lon="11.554755"><ele>280.0</ele><time>2026-03-28T08:21:57.472Z</time></trkpt><trkpt lat="43.6226217" lon="11.5548633"><ele>280.33333333333337</ele><time>2026-03-28T08:21:59.47Z</time></trkpt><trkpt lat="43.62262" lon="11.5549883"><ele>280.6666666666667</ele><time>2026-03-28T08:22:01.473Z</time></trkpt><trkpt lat="43.6225983" lon="11.5551233"><ele>281.0</ele><time>2026-03-28T08:22:03.471Z</time></trkpt><trkpt lat="43.6225667" lon="11.5552633"><ele>281.6</ele><time>2026-03-28T08:22:05.47Z</time></trkpt><trkpt lat="43.6225167" lon="11.5554017"><ele>282.20000000000005</ele><time>2026-03-28T08:22:07.469Z</time></trkpt><trkpt lat="43.62246" lon="11.55553"><ele>282.79999999999995</ele><time>2026-03-28T08:22:09.471Z</time></trkpt><trkpt lat="43.6224033" lon="11.55564"><ele>283.4</ele><time>2026-03-28T08:22:11.472Z</time></trkpt><trkpt lat="43.6223433" lon="11.5557317"><ele>284.0</ele><time>2026-03-28T08:22:13.47Z</time></trkpt><trkpt lat="43.6222883" lon="11.5558117"><ele>284.0</ele><time>2026-03-28T08:22:15.47Z</time></trkpt><trkpt lat="43.62223" lon="11.5558917"><ele>284.0</ele><time>2026-03-28T08:22:17.471Z</time></trkpt><trkpt lat="43.62216" lon="11.5559783"><ele>284.0</ele><time>2026-03-28T08:22:19.471Z</time></trkpt><trkpt lat="43.62208" lon="11.5560667"><ele>284.0</ele><time>2026-03-28T08:22:21.47Z</time></trkpt><trkpt lat="43.621995" lon="11.5561567"><ele>284.0</ele><time>2026-03-28T08:22:23.472Z</time></trkpt><trkpt lat="43.6219083" lon="11.5562467"><ele>284.0</ele><time>2026-03-28T08:22:25.471Z</time></trkpt><trkpt lat="43.62182" lon="11.556335"><ele>284.0</ele><time>2026-03-28T08:22:27.473Z</time></trkpt><trkpt lat="43.6217267" lon="11.5564233"><ele>284.0</ele><time>2026-03-28T08:22:29.471Z</time></trkpt><trkpt lat="43.6216383" lon="11.5565183"><ele>284.0</ele><time>2026-03-28T08:22:31.47Z</time></trkpt><trkpt lat="43.62155" lon="11.5566067"><ele>284.0</ele><time>2026-03-28T08:22:33.47Z</time></trkpt><trkpt lat="43.62146" lon="11.5566933"><ele>284.0</ele><time>2026-03-28T08:22:35.473Z</time></trkpt><trkpt lat="43.6213767" lon="11.5567917"><ele>284.0</ele><time>2026-03-28T08:22:37.471Z</time></trkpt><trkpt lat="43.621295" lon="11.5569033"><ele>284.0</ele><time>2026-03-28T08:22:39.471Z</time></trkpt><trkpt lat="43.6212317" lon="11.5570367"><ele>284.0</ele><time>2026-03-28T08:22:41.474Z</time></trkpt><trkpt lat="43.6212017" lon="11.55718"><ele>284.0</ele><time>2026-03-28T08:22:43.471Z</time></trkpt><trkpt lat="43.6212383" lon="11.55731"><ele>284.2</ele><time>2026-03-28T08:22:45.471Z</time></trkpt><trkpt lat="43.621295" lon="11.5574267"><ele>284.4</ele><time>2026-03-28T08:22:47.474Z</time></trkpt><trkpt lat="43.6213733" lon="11.5575217"><ele>284.6</ele><time>2026-03-28T08:22:49.471Z</time></trkpt><trkpt lat="43.62146" lon="11.5576"><ele>284.8</ele><time>2026-03-28T08:22:51.472Z</time></trkpt><trkpt lat="43.6215467" lon="11.55769"><ele>285.0</ele><time>2026-03-28T08:22:53.472Z</time></trkpt><trkpt lat="43.621635" lon="11.5577833"><ele>285.0</ele><time>2026-03-28T08:22:55.471Z</time></trkpt><trkpt lat="43.6217233" lon="11.5578683"><ele>285.0</ele><time>2026-03-28T08:22:57.47Z</time></trkpt><trkpt lat="43.62181" lon="11.5579467"><ele>285.0</ele><time>2026-03-28T08:22:59.47Z</time></trkpt><trkpt lat="43.6219033" lon="11.5580267"><ele>285.0</ele><time>2026-03-28T08:23:01.471Z</time></trkpt><trkpt lat="43.6219917" lon="11.558105"><ele>285.0</ele><time>2026-03-28T08:23:03.473Z</time></trkpt><trkpt lat="43.6220767" lon="11.5582017"><ele>285.2</ele><time>2026-03-28T08:23:05.471Z</time></trkpt><trkpt lat="43.6221467" lon="11.5583017"><ele>285.4</ele><time>2026-03-28T08:23:07.471Z</time></trkpt><trkpt lat="43.622205" lon="11.5584267"><ele>285.6</ele><time>2026-03-28T08:23:09.471Z</time></trkpt><trkpt lat="43.6222517" lon="11.5585583"><ele>285.8</ele><time>2026-03-28T08:23:11.471Z</time></trkpt><trkpt lat="43.6222767" lon="11.5586983"><ele>286.0</ele><time>2026-03-28T08:23:13.471Z</time></trkpt><trkpt lat="43.6222883" lon="11.55884"><ele>286.0</ele><time>2026-03-28T08:23:15.47Z</time></trkpt><trkpt lat="43.62228" lon="11.558985"><ele>286.0</ele><time>2026-03-28T08:23:17.471Z</time></trkpt><trkpt lat="43.6222367" lon="11.55913"><ele>286.0</ele><time>2026-03-28T08:23:19.471Z</time></trkpt><trkpt lat="43.6221617" lon="11.5592467"><ele>286.0</ele><time>2026-03-28T08:23:21.472Z</time></trkpt><trkpt lat="43.6220717" lon="11.5593283"><ele>286.0</ele><time>2026-03-28T08:23:23.47Z</time></trkpt><trkpt lat="43.6219633" lon="11.5593817"><ele>286.0</ele><time>2026-03-28T08:23:25.471Z</time></trkpt><trkpt lat="43.621845" lon="11.5594317"><ele>286.0</ele><time>2026-03-28T08:23:27.473Z</time></trkpt><trkpt lat="43.6217833" lon="11.5594583"><ele>286.0</ele><time>2026-03-28T08:23:28.471Z</time></trkpt><trkpt lat="43.6217183" lon="11.5594883"><ele>286.0</ele><time>2026-03-28T08:23:29.47Z</time></trkpt><trkpt lat="43.621655" lon="11.559525"><ele>286.0</ele><time>2026-03-28T08:23:30.471Z</time></trkpt><trkpt lat="43.621595" lon="11.55957"><ele>286.0</ele><time>2026-03-28T08:23:31.468Z</time></trkpt><trkpt lat="43.6215367" lon="11.5596267"><ele>286.16666666666663</ele><time>2026-03-28T08:23:32.471Z</time></trkpt><trkpt lat="43.621485" lon="11.559695"><ele>286.3333333333333</ele><time>2026-03-28T08:23:33.471Z</time></trkpt><trkpt lat="43.6214333" lon="11.55977"><ele>286.5</ele><time>2026-03-28T08:23:34.47Z</time></trkpt><trkpt lat="43.62138" lon="11.5598483"><ele>286.6666666666667</ele><time>2026-03-28T08:23:35.471Z</time></trkpt><trkpt lat="43.621325" lon="11.55993"><ele>286.83333333333337</ele><time>2026-03-28T08:23:36.473Z</time></trkpt><trkpt lat="43.6212717" lon="11.560015"><ele>287.0</ele><time>2026-03-28T08:23:37.471Z</time></trkpt><trkpt lat="43.6212217" lon="11.5601017"><ele>287.0</ele><time>2026-03-28T08:23:38.471Z</time></trkpt><trkpt lat="43.6211683" lon="11.56019"><ele>287.0</ele><time>2026-03-28T08:23:39.471Z</time></trkpt><trkpt lat="43.6211117" lon="11.5602767"><ele>287.0</ele><time>2026-03-28T08:23:40.47Z</time></trkpt><trkpt lat="43.621055" lon="11.5603667"><ele>287.0</ele><time>2026-03-28T08:23:41.472Z</time></trkpt><trkpt lat="43.621" lon="11.5604617"><ele>287.0</ele><time>2026-03-28T08:23:42.471Z</time></trkpt><trkpt lat="43.620955" lon="11.5605617"><ele>287.0</ele><time>2026-03-28T08:23:43.47Z</time></trkpt><trkpt lat="43.6209083" lon="11.5606617"><ele>287.0</ele><time>2026-03-28T08:23:44.473Z</time></trkpt><trkpt lat="43.6208633" lon="11.560765"><ele>287.0</ele><time>2026-03-28T08:23:45.471Z</time></trkpt><trkpt lat="43.6208183" lon="11.56087"><ele>287.0</ele><time>2026-03-28T08:23:46.47Z</time></trkpt><trkpt lat="43.6207733" lon="11.5609767"><ele>287.0</ele><time>2026-03-28T08:23:47.473Z</time></trkpt><trkpt lat="43.620725" lon="11.561085"><ele>287.0</ele><time>2026-03-28T08:23:48.471Z</time></trkpt><trkpt lat="43.6206783" lon="11.5611933"><ele>287.0</ele><time>2026-03-28T08:23:49.471Z</time></trkpt><trkpt lat="43.6206317" lon="11.5613017"><ele>287.2</ele><time>2026-03-28T08:23:50.472Z</time></trkpt><trkpt lat="43.6205833" lon="11.5614117"><ele>287.4</ele><time>2026-03-28T08:23:51.472Z</time></trkpt><trkpt lat="43.6205383" lon="11.5615233"><ele>287.6</ele><time>2026-03-28T08:23:52.47Z</time></trkpt><trkpt lat="43.6204883" lon="11.5616367"><ele>287.8</ele><time>2026-03-28T08:23:53.47Z</time></trkpt><trkpt lat="43.6204367" lon="11.5617517"><ele>288.0</ele><time>2026-03-28T08:23:54.471Z</time></trkpt><trkpt lat="43.6203867" lon="11.5618667"><ele>288.0</ele><time>2026-03-28T08:23:55.469Z</time></trkpt><trkpt lat="43.620335" lon="11.5619817"><ele>288.0</ele><time>2026-03-28T08:23:56.471Z</time></trkpt><trkpt lat="43.6202867" lon="11.5620967"><ele>288.0</ele><time>2026-03-28T08:23:57.471Z</time></trkpt><trkpt lat="43.6202433" lon="11.56221"><ele>288.0</ele><time>2026-03-28T08:23:58.472Z</time></trkpt><trkpt lat="43.6201967" lon="11.5623267"><ele>288.0</ele><time>2026-03-28T08:23:59.471Z</time></trkpt><trkpt lat="43.62015" lon="11.5624483"><ele>286.8</ele><time>2026-03-28T08:24:00.471Z</time></trkpt><trkpt lat="43.6201" lon="11.5625667"><ele>285.6</ele><time>2026-03-28T08:24:01.47Z</time></trkpt><trkpt lat="43.620045" lon="11.5626833"><ele>284.4</ele><time>2026-03-28T08:24:02.471Z</time></trkpt><trkpt lat="43.6199883" lon="11.5627967"><ele>283.2</ele><time>2026-03-28T08:24:03.471Z</time></trkpt><trkpt lat="43.6199267" lon="11.5629017"><ele>282.0</ele><time>2026-03-28T08:24:04.472Z</time></trkpt><trkpt lat="43.619855" lon="11.562995"><ele>282.0</ele><time>2026-03-28T08:24:05.471Z</time></trkpt><trkpt lat="43.6197783" lon="11.5630683"><ele>282.0</ele><time>2026-03-28T08:24:06.47Z</time></trkpt><trkpt lat="43.6196983" lon="11.5631267"><ele>282.0</ele><time>2026-03-28T08:24:07.473Z</time></trkpt><trkpt lat="43.6196167" lon="11.5631733"><ele>282.0</ele><time>2026-03-28T08:24:08.473Z</time></trkpt><trkpt lat="43.6195367" lon="11.56321"><ele>282.0</ele><time>2026-03-28T08:24:09.467Z</time></trkpt><trkpt lat="43.6194567" lon="11.5632417"><ele>282.0</ele><time>2026-03-28T08:24:10.47Z</time></trkpt><trkpt lat="43.6193767" lon="11.5632667"><ele>281.1666666666667</ele><time>2026-03-28T08:24:11.472Z</time></trkpt><trkpt lat="43.6192983" lon="11.56329"><ele>280.3333333333333</ele><time>2026-03-28T08:24:12.469Z</time></trkpt><trkpt lat="43.61922" lon="11.5633083"><ele>279.5</ele><time>2026-03-28T08:24:13.47Z</time></trkpt><trkpt lat="43.6191467" lon="11.56333"><ele>278.66666666666663</ele><time>2026-03-28T08:24:14.471Z</time></trkpt><trkpt lat="43.6190733" lon="11.5633533"><ele>277.8333333333333</ele><time>2026-03-28T08:24:15.47Z</time></trkpt><trkpt lat="43.619005" lon="11.5633833"><ele>277.0</ele><time>2026-03-28T08:24:16.469Z</time></trkpt><trkpt lat="43.61894" lon="11.5634217"><ele>277.0</ele><time>2026-03-28T08:24:17.47Z</time></trkpt><trkpt lat="43.61888" lon="11.5634667"><ele>277.0</ele><time>2026-03-28T08:24:18.469Z</time></trkpt><trkpt lat="43.6188217" lon="11.5635233"><ele>277.0</ele><time>2026-03-28T08:24:19.473Z</time></trkpt><trkpt lat="43.6187667" lon="11.5635883"><ele>277.0</ele><time>2026-03-28T08:24:20.471Z</time></trkpt><trkpt lat="43.618715" lon="11.563655"><ele>277.0</ele><time>2026-03-28T08:24:21.47Z</time></trkpt><trkpt lat="43.6186633" lon="11.5637183"><ele>277.0</ele><time>2026-03-28T08:24:22.473Z</time></trkpt><trkpt lat="43.6186117" lon="11.5637783"><ele>277.0</ele><time>2026-03-28T08:24:23.47Z</time></trkpt><trkpt lat="43.6185567" lon="11.5638333"><ele>278.0</ele><time>2026-03-28T08:24:24.472Z</time></trkpt><trkpt lat="43.6184967" lon="11.5638783"><ele>279.0</ele><time>2026-03-28T08:24:25.473Z</time></trkpt><trkpt lat="43.618435" lon="11.5639133"><ele>280.0</ele><time>2026-03-28T08:24:26.471Z</time></trkpt><trkpt lat="43.6183733" lon="11.5639367"><ele>281.0</ele><time>2026-03-28T08:24:27.472Z</time></trkpt><trkpt lat="43.6183083" lon="11.5639533"><ele>282.0</ele><time>2026-03-28T08:24:28.473Z</time></trkpt><trkpt lat="43.6182417" lon="11.5639617"><ele>283.0</ele><time>2026-03-28T08:24:29.468Z</time></trkpt><trkpt lat="43.6181767" lon="11.56397"><ele>284.0</ele><time>2026-03-28T08:24:30.469Z</time></trkpt><trkpt lat="43.618055" lon="11.5639883"><ele>284.0</ele><time>2026-03-28T08:24:32.468Z</time></trkpt><trkpt lat="43.6179367" lon="11.56401"><ele>284.0</ele><time>2026-03-28T08:24:34.471Z</time></trkpt><trkpt lat="43.617825" lon="11.5640483"><ele>284.0</ele><time>2026-03-28T08:24:36.473Z</time></trkpt><trkpt lat="43.6177167" lon="11.564115"><ele>284.0</ele><time>2026-03-28T08:24:38.47Z</time></trkpt><trkpt lat="43.61761" lon="11.564195"><ele>284.0</ele><time>2026-03-28T08:24:40.47Z</time></trkpt><trkpt lat="43.6175117" lon="11.5643017"><ele>284.0</ele><time>2026-03-28T08:24:42.471Z</time></trkpt><trkpt lat="43.617465" lon="11.5643633"><ele>284.0</ele><time>2026-03-28T08:24:43.47Z</time></trkpt><trkpt lat="43.6174167" lon="11.5644267"><ele>284.0</ele><time>2026-03-28T08:24:44.473Z</time></trkpt><trkpt lat="43.6173717" lon="11.5644917"><ele>284.0</ele><time>2026-03-28T08:24:45.472Z</time></trkpt><trkpt lat="43.61733" lon="11.5645633"><ele>284.0</ele><time>2026-03-28T08:24:46.471Z</time></trkpt><trkpt lat="43.6172967" lon="11.56464"><ele>284.42857142857144</ele><time>2026-03-28T08:24:47.471Z</time></trkpt><trkpt lat="43.61727" lon="11.5647217"><ele>284.85714285714283</ele><time>2026-03-28T08:24:48.473Z</time></trkpt><trkpt lat="43.617245" lon="11.56481"><ele>285.2857142857143</ele><time>2026-03-28T08:24:49.472Z</time></trkpt><trkpt lat="43.61722" lon="11.5649033"><ele>285.7142857142857</ele><time>2026-03-28T08:24:50.471Z</time></trkpt><trkpt lat="43.6171983" lon="11.565"><ele>286.1428571428571</ele><time>2026-03-28T08:24:51.473Z</time></trkpt><trkpt lat="43.6171683" lon="11.5650983"><ele>286.57142857142856</ele><time>2026-03-28T08:24:52.473Z</time></trkpt><trkpt lat="43.6171383" lon="11.5651967"><ele>287.0</ele><time>2026-03-28T08:24:53.471Z</time></trkpt><trkpt lat="43.6171083" lon="11.5652967"><ele>286.6666666666667</ele><time>2026-03-28T08:24:54.471Z</time></trkpt><trkpt lat="43.61707" lon="11.5653967"><ele>286.33333333333337</ele><time>2026-03-28T08:24:55.469Z</time></trkpt><trkpt lat="43.61702" lon="11.565485"><ele>286.0</ele><time>2026-03-28T08:24:56.474Z</time></trkpt><trkpt lat="43.6169567" lon="11.56556"><ele>285.6666666666667</ele><time>2026-03-28T08:24:57.472Z</time></trkpt><trkpt lat="43.616885" lon="11.5656133"><ele>285.3333333333333</ele><time>2026-03-28T08:24:58.471Z</time></trkpt><trkpt lat="43.6168083" lon="11.565645"><ele>285.0</ele><time>2026-03-28T08:24:59.471Z</time></trkpt><trkpt lat="43.61673" lon="11.56566"><ele>285.0</ele><time>2026-03-28T08:25:00.471Z</time></trkpt><trkpt lat="43.6166533" lon="11.5656667"><ele>285.0</ele><time>2026-03-28T08:25:01.47Z</time></trkpt><trkpt lat="43.61658" lon="11.5656717"><ele>285.0</ele><time>2026-03-28T08:25:02.47Z</time></trkpt><trkpt lat="43.61651" lon="11.565675"><ele>285.0</ele><time>2026-03-28T08:25:03.471Z</time></trkpt><trkpt lat="43.6164383" lon="11.5656783"><ele>285.0</ele><time>2026-03-28T08:25:04.471Z</time></trkpt><trkpt lat="43.6163667" lon="11.5656833"><ele>285.0</ele><time>2026-03-28T08:25:05.472Z</time></trkpt><trkpt lat="43.6162983" lon="11.5656917"><ele>285.0</ele><time>2026-03-28T08:25:06.472Z</time></trkpt><trkpt lat="43.61623" lon="11.5657017"><ele>285.0</ele><time>2026-03-28T08:25:07.471Z</time></trkpt><trkpt lat="43.6161633" lon="11.565715"><ele>285.0</ele><time>2026-03-28T08:25:08.472Z</time></trkpt><trkpt lat="43.6160983" lon="11.56573"><ele>285.0</ele><time>2026-03-28T08:25:09.47Z</time></trkpt><trkpt lat="43.6159767" lon="11.5657617"><ele>285.0</ele><time>2026-03-28T08:25:11.472Z</time></trkpt><trkpt lat="43.615855" lon="11.5658067"><ele>285.0</ele><time>2026-03-28T08:25:13.47Z</time></trkpt><trkpt lat="43.615795" lon="11.5658367"><ele>285.0</ele><time>2026-03-28T08:25:14.473Z</time></trkpt><trkpt lat="43.6157383" lon="11.5658767"><ele>284.6</ele><time>2026-03-28T08:25:15.473Z</time></trkpt><trkpt lat="43.6156817" lon="11.5659217"><ele>284.2</ele><time>2026-03-28T08:25:16.471Z</time></trkpt><trkpt lat="43.6156283" lon="11.565975"><ele>283.8</ele><time>2026-03-28T08:25:17.471Z</time></trkpt><trkpt lat="43.6155467" lon="11.5660983"><ele>283.4</ele><time>2026-03-28T08:25:19.47Z</time></trkpt><trkpt lat="43.6154867" lon="11.5662383"><ele>283.0</ele><time>2026-03-28T08:25:21.471Z</time></trkpt><trkpt lat="43.615435" lon="11.56639"><ele>283.0</ele><time>2026-03-28T08:25:23.47Z</time></trkpt><trkpt lat="43.61541" lon="11.56647"><ele>283.0</ele><time>2026-03-28T08:25:24.472Z</time></trkpt><trkpt lat="43.6153633" lon="11.56663"><ele>283.0</ele><time>2026-03-28T08:25:26.474Z</time></trkpt><trkpt lat="43.6153383" lon="11.56671"><ele>283.0</ele><time>2026-03-28T08:25:27.471Z</time></trkpt><trkpt lat="43.6152933" lon="11.5668667"><ele>283.0</ele><time>2026-03-28T08:25:29.47Z</time></trkpt><trkpt lat="43.6152517" lon="11.56702"><ele>284.5</ele><time>2026-03-28T08:25:31.472Z</time></trkpt><trkpt lat="43.6152133" lon="11.5671717"><ele>286.0</ele><time>2026-03-28T08:25:33.471Z</time></trkpt><trkpt lat="43.615175" lon="11.567325"><ele>287.5</ele><time>2026-03-28T08:25:35.471Z</time></trkpt><trkpt lat="43.615145" lon="11.5674817"><ele>289.0</ele><time>2026-03-28T08:25:37.471Z</time></trkpt><trkpt lat="43.6151283" lon="11.5676383"><ele>289.0</ele><time>2026-03-28T08:25:39.473Z</time></trkpt><trkpt lat="43.6151183" lon="11.5677967"><ele>289.0</ele><time>2026-03-28T08:25:41.471Z</time></trkpt><trkpt lat="43.6151133" lon="11.5679583"><ele>289.0</ele><time>2026-03-28T08:25:43.47Z</time></trkpt><trkpt lat="43.615115" lon="11.56812"><ele>289.0</ele><time>2026-03-28T08:25:45.471Z</time></trkpt><trkpt lat="43.6151183" lon="11.56828"><ele>290.5</ele><time>2026-03-28T08:25:47.47Z</time></trkpt><trkpt lat="43.61511" lon="11.5684467"><ele>292.0</ele><time>2026-03-28T08:25:49.472Z</time></trkpt><trkpt lat="43.6150967" lon="11.568605"><ele>293.5</ele><time>2026-03-28T08:25:51.471Z</time></trkpt><trkpt lat="43.615085" lon="11.5687667"><ele>295.0</ele><time>2026-03-28T08:25:53.471Z</time></trkpt><trkpt lat="43.615075" lon="11.5689283"><ele>295.2</ele><time>2026-03-28T08:25:55.472Z</time></trkpt><trkpt lat="43.61506" lon="11.5690833"><ele>295.4</ele><time>2026-03-28T08:25:57.472Z</time></trkpt><trkpt lat="43.61502" lon="11.5692317"><ele>295.6</ele><time>2026-03-28T08:25:59.472Z</time></trkpt><trkpt lat="43.614935" lon="11.56933"><ele>295.8</ele><time>2026-03-28T08:26:01.473Z</time></trkpt><trkpt lat="43.6148317" lon="11.5693367"><ele>296.0</ele><time>2026-03-28T08:26:03.471Z</time></trkpt><trkpt lat="43.614755" lon="11.5692433"><ele>296.0</ele><time>2026-03-28T08:26:05.47Z</time></trkpt><trkpt lat="43.6147017" lon="11.5691167"><ele>296.0</ele><time>2026-03-28T08:26:07.469Z</time></trkpt><trkpt lat="43.614645" lon="11.5689867"><ele>296.0</ele><time>2026-03-28T08:26:09.469Z</time></trkpt><trkpt lat="43.6145667" lon="11.5688883"><ele>296.0</ele><time>2026-03-28T08:26:11.474Z</time></trkpt><trkpt lat="43.6144717" lon="11.56881"><ele>296.0</ele><time>2026-03-28T08:26:13.47Z</time></trkpt><trkpt lat="43.61437" lon="11.568785"><ele>296.6</ele><time>2026-03-28T08:26:15.471Z</time></trkpt><trkpt lat="43.6142667" lon="11.5687983"><ele>297.20000000000005</ele><time>2026-03-28T08:26:17.473Z</time></trkpt><trkpt lat="43.6141717" lon="11.56882"><ele>297.79999999999995</ele><time>2026-03-28T08:26:19.472Z</time></trkpt><trkpt lat="43.61408" lon="11.56887"><ele>298.4</ele><time>2026-03-28T08:26:21.471Z</time></trkpt><trkpt lat="43.6139883" lon="11.5689367"><ele>299.0</ele><time>2026-03-28T08:26:23.471Z</time></trkpt><trkpt lat="43.6138883" lon="11.5690083"><ele>299.0</ele><time>2026-03-28T08:26:25.472Z</time></trkpt><trkpt lat="43.6137867" lon="11.5690833"><ele>299.0</ele><time>2026-03-28T08:26:27.471Z</time></trkpt><trkpt lat="43.6136817" lon="11.569165"><ele>299.0</ele><time>2026-03-28T08:26:29.47Z</time></trkpt><trkpt lat="43.6135733" lon="11.569245"><ele>299.0</ele><time>2026-03-28T08:26:31.471Z</time></trkpt><trkpt lat="43.6134683" lon="11.5693233"><ele>298.5</ele><time>2026-03-28T08:26:33.473Z</time></trkpt><trkpt lat="43.6133583" lon="11.5694017"><ele>298.0</ele><time>2026-03-28T08:26:35.471Z</time></trkpt><trkpt lat="43.6132533" lon="11.5694817"><ele>297.5</ele><time>2026-03-28T08:26:37.471Z</time></trkpt><trkpt lat="43.613145" lon="11.5695617"><ele>297.0</ele><time>2026-03-28T08:26:39.472Z</time></trkpt><trkpt lat="43.6130367" lon="11.5696433"><ele>296.6</ele><time>2026-03-28T08:26:41.472Z</time></trkpt><trkpt lat="43.6129367" lon="11.5697433"><ele>296.2</ele><time>2026-03-28T08:26:43.472Z</time></trkpt><trkpt lat="43.61289" lon="11.5698017"><ele>295.8</ele><time>2026-03-28T08:26:44.472Z</time></trkpt><trkpt lat="43.6128083" lon="11.5699283"><ele>295.4</ele><time>2026-03-28T08:26:46.471Z</time></trkpt><trkpt lat="43.6127367" lon="11.5700667"><ele>295.0</ele><time>2026-03-28T08:26:48.473Z</time></trkpt><trkpt lat="43.6126983" lon="11.5701367"><ele>295.0</ele><time>2026-03-28T08:26:49.47Z</time></trkpt><trkpt lat="43.6126583" lon="11.5702067"><ele>295.0</ele><time>2026-03-28T08:26:50.471Z</time></trkpt><trkpt lat="43.61262" lon="11.5702767"><ele>295.0</ele><time>2026-03-28T08:26:51.472Z</time></trkpt><trkpt lat="43.61258" lon="11.570345"><ele>295.0</ele><time>2026-03-28T08:26:52.471Z</time></trkpt><trkpt lat="43.6125367" lon="11.5704117"><ele>295.0</ele><time>2026-03-28T08:26:53.473Z</time></trkpt><trkpt lat="43.6124917" lon="11.5704733"><ele>295.0</ele><time>2026-03-28T08:26:54.471Z</time></trkpt><trkpt lat="43.612445" lon="11.5705317"><ele>295.0</ele><time>2026-03-28T08:26:55.471Z</time></trkpt><trkpt lat="43.6123883" lon="11.5705767"><ele>295.0</ele><time>2026-03-28T08:26:56.473Z</time></trkpt><trkpt lat="43.612325" lon="11.5706067"><ele>295.00000000000006</ele><time>2026-03-28T08:26:57.47Z</time></trkpt><trkpt lat="43.6122583" lon="11.570625"><ele>295.0</ele><time>2026-03-28T08:26:58.472Z</time></trkpt><trkpt lat="43.6121933" lon="11.570635"><ele>295.0</ele><time>2026-03-28T08:26:59.471Z</time></trkpt><trkpt lat="43.6121283" lon="11.5706483"><ele>295.0</ele><time>2026-03-28T08:27:00.471Z</time></trkpt><trkpt lat="43.6120633" lon="11.5706633"><ele>295.0</ele><time>2026-03-28T08:27:01.473Z</time></trkpt><trkpt lat="43.612" lon="11.5706833"><ele>295.00000000000006</ele><time>2026-03-28T08:27:02.473Z</time></trkpt><trkpt lat="43.6119367" lon="11.5707067"><ele>295.0</ele><time>2026-03-28T08:27:03.473Z</time></trkpt><trkpt lat="43.611875" lon="11.5707367"><ele>295.0</ele><time>2026-03-28T08:27:04.473Z</time></trkpt><trkpt lat="43.6117667" lon="11.57083"><ele>295.0</ele><time>2026-03-28T08:27:06.472Z</time></trkpt><trkpt lat="43.611685" lon="11.5709683"><ele>295.0</ele><time>2026-03-28T08:27:08.474Z</time></trkpt><trkpt lat="43.6116467" lon="11.5710467"><ele>295.0</ele><time>2026-03-28T08:27:09.471Z</time></trkpt><trkpt lat="43.6116133" lon="11.5711283"><ele>295.0</ele><time>2026-03-28T08:27:10.47Z</time></trkpt><trkpt lat="43.6115933" lon="11.57122"><ele>295.5</ele><time>2026-03-28T08:27:11.471Z</time></trkpt><trkpt lat="43.6115833" lon="11.5713217"><ele>296.0</ele><time>2026-03-28T08:27:12.473Z</time></trkpt><trkpt lat="43.6115783" lon="11.571425"><ele>296.5</ele><time>2026-03-28T08:27:13.472Z</time></trkpt><trkpt lat="43.611575" lon="11.57153"><ele>297.0</ele><time>2026-03-28T08:27:14.471Z</time></trkpt><trkpt lat="43.61157" lon="11.57164"><ele>297.5</ele><time>2026-03-28T08:27:15.471Z</time></trkpt><trkpt lat="43.611565" lon="11.5717517"><ele>298.0</ele><time>2026-03-28T08:27:16.47Z</time></trkpt><trkpt lat="43.6115633" lon="11.5718633"><ele>298.0</ele><time>2026-03-28T08:27:17.474Z</time></trkpt><trkpt lat="43.6115617" lon="11.5719783"><ele>298.0</ele><time>2026-03-28T08:27:18.472Z</time></trkpt><trkpt lat="43.6115533" lon="11.572095"><ele>298.0</ele><time>2026-03-28T08:27:19.472Z</time></trkpt><trkpt lat="43.6115467" lon="11.5722117"><ele>298.0</ele><time>2026-03-28T08:27:20.475Z</time></trkpt><trkpt lat="43.6115383" lon="11.57233"><ele>298.0</ele><time>2026-03-28T08:27:21.473Z</time></trkpt><trkpt lat="43.6115317" lon="11.5724517"><ele>298.0</ele><time>2026-03-28T08:27:22.473Z</time></trkpt><trkpt lat="43.6115217" lon="11.572575"><ele>298.3333333333333</ele><time>2026-03-28T08:27:23.474Z</time></trkpt><trkpt lat="43.611505" lon="11.5726983"><ele>298.66666666666663</ele><time>2026-03-28T08:27:24.474Z</time></trkpt><trkpt lat="43.6114783" lon="11.5728117"><ele>299.0</ele><time>2026-03-28T08:27:25.473Z</time></trkpt><trkpt lat="43.6114417" lon="11.5729217"><ele>299.3333333333333</ele><time>2026-03-28T08:27:26.473Z</time></trkpt><trkpt lat="43.6113967" lon="11.5730183"><ele>299.6666666666667</ele><time>2026-03-28T08:27:27.471Z</time></trkpt><trkpt lat="43.611345" lon="11.5730983"><ele>300.0</ele><time>2026-03-28T08:27:28.472Z</time></trkpt><trkpt lat="43.6112817" lon="11.5731467"><ele>300.1666666666667</ele><time>2026-03-28T08:27:29.473Z</time></trkpt><trkpt lat="43.61121" lon="11.57315"><ele>300.3333333333333</ele><time>2026-03-28T08:27:30.471Z</time></trkpt><trkpt lat="43.611145" lon="11.5730983"><ele>300.5</ele><time>2026-03-28T08:27:31.472Z</time></trkpt><trkpt lat="43.6110917" lon="11.5730217"><ele>300.66666666666663</ele><time>2026-03-28T08:27:32.472Z</time></trkpt><trkpt lat="43.6110533" lon="11.5729233"><ele>300.8333333333333</ele><time>2026-03-28T08:27:33.469Z</time></trkpt><trkpt lat="43.6110167" lon="11.5728133"><ele>301.0</ele><time>2026-03-28T08:27:34.47Z</time></trkpt><trkpt lat="43.6109967" lon="11.572705"><ele>300.66666666666663</ele><time>2026-03-28T08:27:35.47Z</time></trkpt><trkpt lat="43.610975" lon="11.5725967"><ele>300.3333333333333</ele><time>2026-03-28T08:27:36.47Z</time></trkpt><trkpt lat="43.6109517" lon="11.5724883"><ele>300.0</ele><time>2026-03-28T08:27:37.469Z</time></trkpt><trkpt lat="43.610925" lon="11.5723867"><ele>299.6666666666667</ele><time>2026-03-28T08:27:38.471Z</time></trkpt><trkpt lat="43.6109" lon="11.5722817"><ele>299.33333333333337</ele><time>2026-03-28T08:27:39.47Z</time></trkpt><trkpt lat="43.610875" lon="11.57218"><ele>299.0</ele><time>2026-03-28T08:27:40.473Z</time></trkpt><trkpt lat="43.61085" lon="11.57208"><ele>298.0</ele><time>2026-03-28T08:27:41.473Z</time></trkpt><trkpt lat="43.6108233" lon="11.571985"><ele>297.0</ele><time>2026-03-28T08:27:42.473Z</time></trkpt><trkpt lat="43.6107983" lon="11.5718867"><ele>296.0</ele><time>2026-03-28T08:27:43.474Z</time></trkpt><trkpt lat="43.6107717" lon="11.5717833"><ele>295.0</ele><time>2026-03-28T08:27:44.471Z</time></trkpt><trkpt lat="43.6107483" lon="11.5716817"><ele>294.0</ele><time>2026-03-28T08:27:45.472Z</time></trkpt><trkpt lat="43.61072" lon="11.57158"><ele>293.0</ele><time>2026-03-28T08:27:46.471Z</time></trkpt><trkpt lat="43.6106917" lon="11.5714833"><ele>293.0</ele><time>2026-03-28T08:27:47.473Z</time></trkpt><trkpt lat="43.61066" lon="11.5713867"><ele>293.0</ele><time>2026-03-28T08:27:48.473Z</time></trkpt><trkpt lat="43.61062" lon="11.571295"><ele>293.0</ele><time>2026-03-28T08:27:49.472Z</time></trkpt><trkpt lat="43.6105717" lon="11.571205"><ele>293.0</ele><time>2026-03-28T08:27:50.473Z</time></trkpt><trkpt lat="43.6105133" lon="11.57113"><ele>293.0</ele><time>2026-03-28T08:27:51.473Z</time></trkpt><trkpt lat="43.6104467" lon="11.5710783"><ele>293.0</ele><time>2026-03-28T08:27:52.47Z</time></trkpt><trkpt lat="43.6103717" lon="11.5710467"><ele>292.83333333333337</ele><time>2026-03-28T08:27:53.472Z</time></trkpt><trkpt lat="43.6102917" lon="11.571025"><ele>292.6666666666667</ele><time>2026-03-28T08:27:54.473Z</time></trkpt><trkpt lat="43.6102083" lon="11.5710117"><ele>292.5</ele><time>2026-03-28T08:27:55.471Z</time></trkpt><trkpt lat="43.6101233" lon="11.571005"><ele>292.3333333333333</ele><time>2026-03-28T08:27:56.473Z</time></trkpt><trkpt lat="43.61004" lon="11.5710083"><ele>292.16666666666663</ele><time>2026-03-28T08:27:57.471Z</time></trkpt><trkpt lat="43.6099567" lon="11.57102"><ele>292.0</ele><time>2026-03-28T08:27:58.47Z</time></trkpt><trkpt lat="43.6098667" lon="11.5710367"><ele>292.0</ele><time>2026-03-28T08:27:59.471Z</time></trkpt><trkpt lat="43.6097783" lon="11.571055"><ele>292.0</ele><time>2026-03-28T08:28:00.472Z</time></trkpt><trkpt lat="43.6096883" lon="11.5710733"><ele>292.0</ele><time>2026-03-28T08:28:01.471Z</time></trkpt><trkpt lat="43.6095983" lon="11.571095"><ele>292.0</ele><time>2026-03-28T08:28:02.473Z</time></trkpt><trkpt lat="43.6095067" lon="11.5711167"><ele>292.0</ele><time>2026-03-28T08:28:03.471Z</time></trkpt><trkpt lat="43.6094133" lon="11.571135"><ele>292.6</ele><time>2026-03-28T08:28:04.473Z</time></trkpt><trkpt lat="43.6093183" lon="11.5711583"><ele>293.2</ele><time>2026-03-28T08:28:05.47Z</time></trkpt><trkpt lat="43.6092267" lon="11.5711767"><ele>293.8</ele><time>2026-03-28T08:28:06.468Z</time></trkpt><trkpt lat="43.609135" lon="11.5711917"><ele>294.4</ele><time>2026-03-28T08:28:07.473Z</time></trkpt><trkpt lat="43.609045" lon="11.5712117"><ele>295.0</ele><time>2026-03-28T08:28:08.472Z</time></trkpt><trkpt lat="43.6089517" lon="11.5712317"><ele>295.0</ele><time>2026-03-28T08:28:09.471Z</time></trkpt><trkpt lat="43.6088567" lon="11.5712533"><ele>295.0</ele><time>2026-03-28T08:28:10.472Z</time></trkpt><trkpt lat="43.608765" lon="11.5712733"><ele>295.0</ele><time>2026-03-28T08:28:11.471Z</time></trkpt><trkpt lat="43.60867" lon="11.5712933"><ele>295.0</ele><time>2026-03-28T08:28:12.473Z</time></trkpt><trkpt lat="43.608575" lon="11.5713117"><ele>295.0</ele><time>2026-03-28T08:28:13.473Z</time></trkpt><trkpt lat="43.6084817" lon="11.5713267"><ele>294.0</ele><time>2026-03-28T08:28:14.472Z</time></trkpt><trkpt lat="43.6083867" lon="11.571335"><ele>293.0</ele><time>2026-03-28T08:28:15.47Z</time></trkpt><trkpt lat="43.6082933" lon="11.5713467"><ele>292.0</ele><time>2026-03-28T08:28:16.471Z</time></trkpt><trkpt lat="43.6082017" lon="11.5713567"><ele>291.0</ele><time>2026-03-28T08:28:17.473Z</time></trkpt><trkpt lat="43.608115" lon="11.5713667"><ele>290.0</ele><time>2026-03-28T08:28:18.471Z</time></trkpt><trkpt lat="43.608025" lon="11.5713833"><ele>290.0</ele><time>2026-03-28T08:28:19.473Z</time></trkpt><trkpt lat="43.6079367" lon="11.5714067"><ele>290.0</ele><time>2026-03-28T08:28:20.471Z</time></trkpt><trkpt lat="43.6078483" lon="11.5714433"><ele>290.0</ele><time>2026-03-28T08:28:21.472Z</time></trkpt><trkpt lat="43.6077667" lon="11.571495"><ele>290.0</ele><time>2026-03-28T08:28:22.471Z</time></trkpt><trkpt lat="43.607685" lon="11.5715517"><ele>290.0</ele><time>2026-03-28T08:28:23.472Z</time></trkpt><trkpt lat="43.60761" lon="11.5716133"><ele>289.6666666666667</ele><time>2026-03-28T08:28:24.472Z</time></trkpt><trkpt lat="43.607535" lon="11.57168"><ele>289.33333333333337</ele><time>2026-03-28T08:28:25.473Z</time></trkpt><trkpt lat="43.607465" lon="11.5717533"><ele>289.0</ele><time>2026-03-28T08:28:26.471Z</time></trkpt><trkpt lat="43.6074017" lon="11.5718367"><ele>288.6666666666667</ele><time>2026-03-28T08:28:27.471Z</time></trkpt><trkpt lat="43.6073467" lon="11.571935"><ele>288.3333333333333</ele><time>2026-03-28T08:28:28.47Z</time></trkpt><trkpt lat="43.6073" lon="11.5720433"><ele>288.0</ele><time>2026-03-28T08:28:29.47Z</time></trkpt><trkpt lat="43.6072667" lon="11.5721633"><ele>288.0</ele><time>2026-03-28T08:28:30.473Z</time></trkpt><trkpt lat="43.6072467" lon="11.572295"><ele>288.0</ele><time>2026-03-28T08:28:31.472Z</time></trkpt><trkpt lat="43.60725" lon="11.5724267"><ele>288.0</ele><time>2026-03-28T08:28:32.471Z</time></trkpt><trkpt lat="43.607265" lon="11.5725583"><ele>288.0</ele><time>2026-03-28T08:28:33.47Z</time></trkpt><trkpt lat="43.6072867" lon="11.5726883"><ele>288.0</ele><time>2026-03-28T08:28:34.471Z</time></trkpt><trkpt lat="43.60731" lon="11.5728217"><ele>287.4</ele><time>2026-03-28T08:28:35.472Z</time></trkpt><trkpt lat="43.6073317" lon="11.5729533"><ele>286.8</ele><time>2026-03-28T08:28:36.473Z</time></trkpt><trkpt lat="43.6073533" lon="11.5730867"><ele>286.2</ele><time>2026-03-28T08:28:37.472Z</time></trkpt><trkpt lat="43.6073733" lon="11.57322"><ele>285.6</ele><time>2026-03-28T08:28:38.471Z</time></trkpt><trkpt lat="43.6073833" lon="11.5733517"><ele>285.0</ele><time>2026-03-28T08:28:39.472Z</time></trkpt><trkpt lat="43.607365" lon="11.5734767"><ele>285.0</ele><time>2026-03-28T08:28:40.471Z</time></trkpt><trkpt lat="43.607315" lon="11.5735767"><ele>285.0</ele><time>2026-03-28T08:28:41.472Z</time></trkpt><trkpt lat="43.607235" lon="11.5736233"><ele>285.0</ele><time>2026-03-28T08:28:42.471Z</time></trkpt><trkpt lat="43.60715" lon="11.5736267"><ele>285.0</ele><time>2026-03-28T08:28:43.472Z</time></trkpt><trkpt lat="43.6070567" lon="11.573605"><ele>285.0</ele><time>2026-03-28T08:28:44.472Z</time></trkpt><trkpt lat="43.60697" lon="11.5735833"><ele>285.0</ele><time>2026-03-28T08:28:45.471Z</time></trkpt><trkpt lat="43.606885" lon="11.5735717"><ele>285.5</ele><time>2026-03-28T08:28:46.47Z</time></trkpt><trkpt lat="43.6067983" lon="11.573575"><ele>286.0</ele><time>2026-03-28T08:28:47.471Z</time></trkpt><trkpt lat="43.6067167" lon="11.57361"><ele>286.5</ele><time>2026-03-28T08:28:48.472Z</time></trkpt><trkpt lat="43.6066417" lon="11.573665"><ele>287.0</ele><time>2026-03-28T08:28:49.472Z</time></trkpt><trkpt lat="43.60657" lon="11.57373"><ele>287.5</ele><time>2026-03-28T08:28:50.473Z</time></trkpt><trkpt lat="43.6064983" lon="11.5738"><ele>288.0</ele><time>2026-03-28T08:28:51.471Z</time></trkpt><trkpt lat="43.60643" lon="11.57387"><ele>288.0</ele><time>2026-03-28T08:28:52.472Z</time></trkpt><trkpt lat="43.606365" lon="11.57394"><ele>288.0</ele><time>2026-03-28T08:28:53.471Z</time></trkpt><trkpt lat="43.6063" lon="11.5740133"><ele>288.0</ele><time>2026-03-28T08:28:54.471Z</time></trkpt><trkpt lat="43.6062383" lon="11.5740883"><ele>288.0</ele><time>2026-03-28T08:28:55.471Z</time></trkpt><trkpt lat="43.6061767" lon="11.57417"><ele>288.0</ele><time>2026-03-28T08:28:56.473Z</time></trkpt><trkpt lat="43.6061217" lon="11.5742567"><ele>288.0</ele><time>2026-03-28T08:28:57.471Z</time></trkpt><trkpt lat="43.6060683" lon="11.5743517"><ele>287.5</ele><time>2026-03-28T08:28:58.469Z</time></trkpt><trkpt lat="43.6060167" lon="11.5744467"><ele>287.0</ele><time>2026-03-28T08:28:59.471Z</time></trkpt><trkpt lat="43.6059667" lon="11.5745433"><ele>286.5</ele><time>2026-03-28T08:29:00.472Z</time></trkpt><trkpt lat="43.60591" lon="11.5746383"><ele>286.0</ele><time>2026-03-28T08:29:01.471Z</time></trkpt><trkpt lat="43.60585" lon="11.574725"><ele>285.5</ele><time>2026-03-28T08:29:02.474Z</time></trkpt><trkpt lat="43.605785" lon="11.5747983"><ele>285.0</ele><time>2026-03-28T08:29:03.472Z</time></trkpt><trkpt lat="43.605715" lon="11.57486"><ele>285.0</ele><time>2026-03-28T08:29:04.472Z</time></trkpt><trkpt lat="43.6056433" lon="11.5749117"><ele>285.0</ele><time>2026-03-28T08:29:05.471Z</time></trkpt><trkpt lat="43.6055717" lon="11.5749583"><ele>285.0</ele><time>2026-03-28T08:29:06.471Z</time></trkpt><trkpt lat="43.6054983" lon="11.5749983"><ele>285.0</ele><time>2026-03-28T08:29:07.472Z</time></trkpt><trkpt lat="43.6054267" lon="11.575035"><ele>285.0</ele><time>2026-03-28T08:29:08.472Z</time></trkpt><trkpt lat="43.6053583" lon="11.5750733"><ele>285.0</ele><time>2026-03-28T08:29:09.472Z</time></trkpt><trkpt lat="43.60529" lon="11.575115"><ele>284.7142857142857</ele><time>2026-03-28T08:29:10.472Z</time></trkpt><trkpt lat="43.6052267" lon="11.5751617"><ele>284.42857142857144</ele><time>2026-03-28T08:29:11.472Z</time></trkpt><trkpt lat="43.6051683" lon="11.57522"><ele>284.14285714285717</ele><time>2026-03-28T08:29:12.471Z</time></trkpt><trkpt lat="43.605125" lon="11.5752917"><ele>283.8571428571429</ele><time>2026-03-28T08:29:13.472Z</time></trkpt><trkpt lat="43.60509" lon="11.575375"><ele>283.5714285714286</ele><time>2026-03-28T08:29:14.474Z</time></trkpt><trkpt lat="43.60507" lon="11.5754633"><ele>283.2857142857143</ele><time>2026-03-28T08:29:15.47Z</time></trkpt><trkpt lat="43.6050583" lon="11.5755533"><ele>283.0</ele><time>2026-03-28T08:29:16.47Z</time></trkpt><trkpt lat="43.6050517" lon="11.5756417"><ele>283.0</ele><time>2026-03-28T08:29:17.471Z</time></trkpt><trkpt lat="43.6050417" lon="11.5758083"><ele>283.0</ele><time>2026-03-28T08:29:19.471Z</time></trkpt><trkpt lat="43.6050317" lon="11.575975"><ele>283.0</ele><time>2026-03-28T08:29:21.472Z</time></trkpt><trkpt lat="43.605025" lon="11.5761433"><ele>283.0</ele><time>2026-03-28T08:29:23.473Z</time></trkpt><trkpt lat="43.605005" lon="11.5763067"><ele>284.4</ele><time>2026-03-28T08:29:25.472Z</time></trkpt><trkpt lat="43.6049733" lon="11.576455"><ele>285.8</ele><time>2026-03-28T08:29:27.469Z</time></trkpt><trkpt lat="43.6049217" lon="11.5765783"><ele>287.2</ele><time>2026-03-28T08:29:29.471Z</time></trkpt><trkpt lat="43.60485" lon="11.5766717"><ele>288.6</ele><time>2026-03-28T08:29:31.47Z</time></trkpt><trkpt lat="43.604765" lon="11.57673"><ele>290.0</ele><time>2026-03-28T08:29:33.47Z</time></trkpt><trkpt lat="43.604665" lon="11.5767517"><ele>290.0</ele><time>2026-03-28T08:29:35.468Z</time></trkpt><trkpt lat="43.604555" lon="11.5767333"><ele>290.0</ele><time>2026-03-28T08:29:37.467Z</time></trkpt><trkpt lat="43.6044533" lon="11.5767083"><ele>290.0</ele><time>2026-03-28T08:29:39.468Z</time></trkpt><trkpt lat="43.6043517" lon="11.5766883"><ele>290.0</ele><time>2026-03-28T08:29:41.469Z</time></trkpt><trkpt lat="43.6042467" lon="11.5766617"><ele>290.0</ele><time>2026-03-28T08:29:43.469Z</time></trkpt><trkpt lat="43.6041433" lon="11.5766267"><ele>290.2</ele><time>2026-03-28T08:29:45.469Z</time></trkpt><trkpt lat="43.6040533" lon="11.5765767"><ele>290.4</ele><time>2026-03-28T08:29:47.469Z</time></trkpt><trkpt lat="43.6039567" lon="11.576545"><ele>290.6</ele><time>2026-03-28T08:29:49.469Z</time></trkpt><trkpt lat="43.6038617" lon="11.5765233"><ele>290.8</ele><time>2026-03-28T08:29:51.468Z</time></trkpt><trkpt lat="43.6037667" lon="11.5765383"><ele>291.0</ele><time>2026-03-28T08:29:53.469Z</time></trkpt><trkpt lat="43.6036717" lon="11.5765967"><ele>290.40000000000003</ele><time>2026-03-28T08:29:55.47Z</time></trkpt><trkpt lat="43.6035833" lon="11.5766717"><ele>289.8</ele><time>2026-03-28T08:29:57.469Z</time></trkpt><trkpt lat="43.603495" lon="11.5767567"><ele>289.20000000000005</ele><time>2026-03-28T08:29:59.47Z</time></trkpt><trkpt lat="43.6034083" lon="11.5768433"><ele>288.6</ele><time>2026-03-28T08:30:01.47Z</time></trkpt><trkpt lat="43.60333" lon="11.576935"><ele>288.0</ele><time>2026-03-28T08:30:03.469Z</time></trkpt><trkpt lat="43.6032617" lon="11.5770367"><ele>289.8</ele><time>2026-03-28T08:30:05.471Z</time></trkpt><trkpt lat="43.6032067" lon="11.5771467"><ele>291.6</ele><time>2026-03-28T08:30:07.473Z</time></trkpt><trkpt lat="43.6031683" lon="11.5772733"><ele>293.4</ele><time>2026-03-28T08:30:09.469Z</time></trkpt><trkpt lat="43.6031433" lon="11.577405"><ele>295.2</ele><time>2026-03-28T08:30:11.469Z</time></trkpt><trkpt lat="43.6031433" lon="11.57754"><ele>297.0</ele><time>2026-03-28T08:30:13.469Z</time></trkpt><trkpt lat="43.6031467" lon="11.5776733"><ele>297.0</ele><time>2026-03-28T08:30:15.47Z</time></trkpt><trkpt lat="43.60314" lon="11.5778133"><ele>297.0</ele><time>2026-03-28T08:30:17.469Z</time></trkpt><trkpt lat="43.603145" lon="11.5779583"><ele>297.0</ele><time>2026-03-28T08:30:19.47Z</time></trkpt><trkpt lat="43.6031317" lon="11.5780983"><ele>297.0</ele><time>2026-03-28T08:30:21.468Z</time></trkpt><trkpt lat="43.603095" lon="11.5782317"><ele>297.0</ele><time>2026-03-28T08:30:23.469Z</time></trkpt><trkpt lat="43.6030217" lon="11.5783283"><ele>296.4</ele><time>2026-03-28T08:30:25.47Z</time></trkpt><trkpt lat="43.6029317" lon="11.5783833"><ele>295.79999999999995</ele><time>2026-03-28T08:30:27.47Z</time></trkpt><trkpt lat="43.6028367" lon="11.5784433"><ele>295.2</ele><time>2026-03-28T08:30:29.473Z</time></trkpt><trkpt lat="43.6027467" lon="11.5785167"><ele>294.59999999999997</ele><time>2026-03-28T08:30:31.471Z</time></trkpt><trkpt lat="43.60267" lon="11.5786267"><ele>294.0</ele><time>2026-03-28T08:30:33.469Z</time></trkpt><trkpt lat="43.6026083" lon="11.57876"><ele>296.25</ele><time>2026-03-28T08:30:35.471Z</time></trkpt><trkpt lat="43.602535" lon="11.578895"><ele>298.5</ele><time>2026-03-28T08:30:37.471Z</time></trkpt><trkpt lat="43.6024417" lon="11.5790083"><ele>300.75</ele><time>2026-03-28T08:30:39.47Z</time></trkpt><trkpt lat="43.6023317" lon="11.5790667"><ele>303.0</ele><time>2026-03-28T08:30:41.473Z</time></trkpt><trkpt lat="43.6022167" lon="11.5790883"><ele>303.0</ele><time>2026-03-28T08:30:43.47Z</time></trkpt><trkpt lat="43.6021033" lon="11.5791167"><ele>303.0</ele><time>2026-03-28T08:30:45.471Z</time></trkpt><trkpt lat="43.6019917" lon="11.57915"><ele>303.0</ele><time>2026-03-28T08:30:47.472Z</time></trkpt><trkpt lat="43.60188" lon="11.579185"><ele>303.0</ele><time>2026-03-28T08:30:49.472Z</time></trkpt><trkpt lat="43.6017667" lon="11.5792133"><ele>302.0</ele><time>2026-03-28T08:30:51.471Z</time></trkpt><trkpt lat="43.60164" lon="11.5792167"><ele>301.0</ele><time>2026-03-28T08:30:53.473Z</time></trkpt><trkpt lat="43.6015733" lon="11.579205"><ele>300.0</ele><time>2026-03-28T08:30:54.473Z</time></trkpt><trkpt lat="43.6015067" lon="11.579185"><ele>299.0</ele><time>2026-03-28T08:30:55.471Z</time></trkpt><trkpt lat="43.6014367" lon="11.5791617"><ele>298.0</ele><time>2026-03-28T08:30:56.472Z</time></trkpt><trkpt lat="43.6013683" lon="11.579145"><ele>297.0</ele><time>2026-03-28T08:30:57.471Z</time></trkpt><trkpt lat="43.6012983" lon="11.5791367"><ele>297.0</ele><time>2026-03-28T08:30:58.473Z</time></trkpt><trkpt lat="43.6012233" lon="11.57914"><ele>297.0</ele><time>2026-03-28T08:30:59.473Z</time></trkpt><trkpt lat="43.6011517" lon="11.5791533"><ele>297.0</ele><time>2026-03-28T08:31:00.473Z</time></trkpt><trkpt lat="43.601075" lon="11.5791767"><ele>297.0</ele><time>2026-03-28T08:31:01.473Z</time></trkpt><trkpt lat="43.6009967" lon="11.5792133"><ele>297.0</ele><time>2026-03-28T08:31:02.471Z</time></trkpt><trkpt lat="43.6009233" lon="11.5792667"><ele>297.0</ele><time>2026-03-28T08:31:03.471Z</time></trkpt><trkpt lat="43.600855" lon="11.57933"><ele>296.8333333333333</ele><time>2026-03-28T08:31:04.47Z</time></trkpt><trkpt lat="43.6007883" lon="11.5794033"><ele>296.6666666666667</ele><time>2026-03-28T08:31:05.471Z</time></trkpt><trkpt lat="43.60073" lon="11.57949"><ele>296.5</ele><time>2026-03-28T08:31:06.471Z</time></trkpt><trkpt lat="43.6006717" lon="11.5795833"><ele>296.33333333333337</ele><time>2026-03-28T08:31:07.471Z</time></trkpt><trkpt lat="43.600615" lon="11.5796767"><ele>296.1666666666667</ele><time>2026-03-28T08:31:08.471Z</time></trkpt><trkpt lat="43.600555" lon="11.5797717"><ele>296.0</ele><time>2026-03-28T08:31:09.471Z</time></trkpt><trkpt lat="43.6004983" lon="11.57987"><ele>296.0</ele><time>2026-03-28T08:31:10.47Z</time></trkpt><trkpt lat="43.6004517" lon="11.5799717"><ele>296.0</ele><time>2026-03-28T08:31:11.473Z</time></trkpt><trkpt lat="43.6004083" lon="11.580075"><ele>296.0</ele><time>2026-03-28T08:31:12.472Z</time></trkpt><trkpt lat="43.600375" lon="11.580185"><ele>296.0</ele><time>2026-03-28T08:31:13.471Z</time></trkpt><trkpt lat="43.6003533" lon="11.5803"><ele>296.0</ele><time>2026-03-28T08:31:14.47Z</time></trkpt><trkpt lat="43.60035" lon="11.5804183"><ele>296.0</ele><time>2026-03-28T08:31:15.471Z</time></trkpt><trkpt lat="43.600355" lon="11.5805383"><ele>296.1666666666667</ele><time>2026-03-28T08:31:16.472Z</time></trkpt><trkpt lat="43.6003783" lon="11.5806517"><ele>296.33333333333337</ele><time>2026-03-28T08:31:17.469Z</time></trkpt><trkpt lat="43.6004067" lon="11.5807667"><ele>296.5</ele><time>2026-03-28T08:31:18.469Z</time></trkpt><trkpt lat="43.6004367" lon="11.580885"><ele>296.6666666666667</ele><time>2026-03-28T08:31:19.47Z</time></trkpt><trkpt lat="43.6004667" lon="11.5809967"><ele>296.8333333333333</ele><time>2026-03-28T08:31:20.469Z</time></trkpt><trkpt lat="43.6004933" lon="11.58111"><ele>297.0</ele><time>2026-03-28T08:31:21.469Z</time></trkpt><trkpt lat="43.600525" lon="11.581225"><ele>297.0</ele><time>2026-03-28T08:31:22.469Z</time></trkpt><trkpt lat="43.6005517" lon="11.5813433"><ele>297.0</ele><time>2026-03-28T08:31:23.473Z</time></trkpt><trkpt lat="43.6005783" lon="11.5814633"><ele>297.0</ele><time>2026-03-28T08:31:24.47Z</time></trkpt><trkpt lat="43.6006067" lon="11.5815833"><ele>297.0</ele><time>2026-03-28T08:31:25.471Z</time></trkpt><trkpt lat="43.6006383" lon="11.5817"><ele>297.0</ele><time>2026-03-28T08:31:26.471Z</time></trkpt><trkpt lat="43.6006683" lon="11.5818183"><ele>297.0</ele><time>2026-03-28T08:31:27.472Z</time></trkpt><trkpt lat="43.6007067" lon="11.5819333"><ele>297.0</ele><time>2026-03-28T08:31:28.47Z</time></trkpt><trkpt lat="43.6007533" lon="11.5820433"><ele>297.0</ele><time>2026-03-28T08:31:29.469Z</time></trkpt><trkpt lat="43.6008" lon="11.58215"><ele>297.0</ele><time>2026-03-28T08:31:30.469Z</time></trkpt><trkpt lat="43.600835" lon="11.5822633"><ele>297.0</ele><time>2026-03-28T08:31:31.471Z</time></trkpt><trkpt lat="43.60085" lon="11.5823833"><ele>296.6666666666667</ele><time>2026-03-28T08:31:32.471Z</time></trkpt><trkpt lat="43.6008483" lon="11.5825"><ele>296.3333333333333</ele><time>2026-03-28T08:31:33.472Z</time></trkpt><trkpt lat="43.6008233" lon="11.58261"><ele>296.0</ele><time>2026-03-28T08:31:34.473Z</time></trkpt><trkpt lat="43.6007733" lon="11.5826967"><ele>295.66666666666663</ele><time>2026-03-28T08:31:35.474Z</time></trkpt><trkpt lat="43.6007117" lon="11.5827583"><ele>295.3333333333333</ele><time>2026-03-28T08:31:36.47Z</time></trkpt><trkpt lat="43.6006367" lon="11.58276"><ele>295.0</ele><time>2026-03-28T08:31:37.473Z</time></trkpt><trkpt lat="43.6005683" lon="11.58273"><ele>295.0</ele><time>2026-03-28T08:31:38.471Z</time></trkpt><trkpt lat="43.6005033" lon="11.5826617"><ele>295.0</ele><time>2026-03-28T08:31:39.471Z</time></trkpt><trkpt lat="43.600445" lon="11.5825783"><ele>295.0</ele><time>2026-03-28T08:31:40.47Z</time></trkpt><trkpt lat="43.6003967" lon="11.5824833"><ele>295.0</ele><time>2026-03-28T08:31:41.469Z</time></trkpt><trkpt lat="43.6003433" lon="11.5824083"><ele>295.0</ele><time>2026-03-28T08:31:42.469Z</time></trkpt><trkpt lat="43.6002883" lon="11.5823433"><ele>295.0</ele><time>2026-03-28T08:31:43.469Z</time></trkpt><trkpt lat="43.600235" lon="11.5822783"><ele>295.5</ele><time>2026-03-28T08:31:44.468Z</time></trkpt><trkpt lat="43.600185" lon="11.5822183"><ele>296.0</ele><time>2026-03-28T08:31:45.47Z</time></trkpt><trkpt lat="43.6001333" lon="11.58216"><ele>296.5</ele><time>2026-03-28T08:31:46.469Z</time></trkpt><trkpt lat="43.6000833" lon="11.5821017"><ele>297.0</ele><time>2026-03-28T08:31:47.471Z</time></trkpt><trkpt lat="43.599995" lon="11.581985"><ele>297.5</ele><time>2026-03-28T08:31:49.47Z</time></trkpt><trkpt lat="43.599915" lon="11.5818633"><ele>298.0</ele><time>2026-03-28T08:31:51.47Z</time></trkpt><trkpt lat="43.5998467" lon="11.5817467"><ele>296.75</ele><time>2026-03-28T08:31:53.47Z</time></trkpt><trkpt lat="43.5997717" lon="11.58163"><ele>295.5</ele><time>2026-03-28T08:31:55.469Z</time></trkpt><trkpt lat="43.5996767" lon="11.581545"><ele>294.25</ele><time>2026-03-28T08:31:57.468Z</time></trkpt><trkpt lat="43.5995633" lon="11.5814933"><ele>293.0</ele><time>2026-03-28T08:31:59.47Z</time></trkpt><trkpt lat="43.5994433" lon="11.5814683"><ele>292.99999999999994</ele><time>2026-03-28T08:32:01.471Z</time></trkpt><trkpt lat="43.5993233" lon="11.581485"><ele>293.0</ele><time>2026-03-28T08:32:03.468Z</time></trkpt><trkpt lat="43.5992633" lon="11.5815117"><ele>293.0</ele><time>2026-03-28T08:32:04.47Z</time></trkpt><trkpt lat="43.5992067" lon="11.5815517"><ele>293.0</ele><time>2026-03-28T08:32:05.472Z</time></trkpt><trkpt lat="43.599155" lon="11.5816067"><ele>293.0</ele><time>2026-03-28T08:32:06.471Z</time></trkpt><trkpt lat="43.59911" lon="11.5816717"><ele>292.99999999999994</ele><time>2026-03-28T08:32:07.47Z</time></trkpt><trkpt lat="43.5990667" lon="11.581745"><ele>293.0</ele><time>2026-03-28T08:32:08.47Z</time></trkpt><trkpt lat="43.5990317" lon="11.581825"><ele>292.99999999999994</ele><time>2026-03-28T08:32:09.469Z</time></trkpt><trkpt lat="43.599005" lon="11.58191"><ele>293.0</ele><time>2026-03-28T08:32:10.468Z</time></trkpt><trkpt lat="43.59899" lon="11.5819967"><ele>293.0</ele><time>2026-03-28T08:32:11.471Z</time></trkpt><trkpt lat="43.598975" lon="11.5820817"><ele>293.0</ele><time>2026-03-28T08:32:12.47Z</time></trkpt><trkpt lat="43.5989583" lon="11.5821667"><ele>293.0</ele><time>2026-03-28T08:32:13.471Z</time></trkpt><trkpt lat="43.5989417" lon="11.582255"><ele>292.99999999999994</ele><time>2026-03-28T08:32:14.471Z</time></trkpt><trkpt lat="43.5989283" lon="11.5823417"><ele>293.0</ele><time>2026-03-28T08:32:15.473Z</time></trkpt><trkpt lat="43.598915" lon="11.5824283"><ele>293.57142857142856</ele><time>2026-03-28T08:32:16.469Z</time></trkpt><trkpt lat="43.5989017" lon="11.582515"><ele>294.1428571428571</ele><time>2026-03-28T08:32:17.469Z</time></trkpt><trkpt lat="43.5988883" lon="11.5826017"><ele>294.7142857142857</ele><time>2026-03-28T08:32:18.472Z</time></trkpt><trkpt lat="43.5988733" lon="11.58269"><ele>295.2857142857143</ele><time>2026-03-28T08:32:19.468Z</time></trkpt><trkpt lat="43.59886" lon="11.5827767"><ele>295.8571428571429</ele><time>2026-03-28T08:32:20.472Z</time></trkpt><trkpt lat="43.598845" lon="11.5828633"><ele>296.42857142857144</ele><time>2026-03-28T08:32:21.469Z</time></trkpt><trkpt lat="43.5988333" lon="11.5829517"><ele>297.0</ele><time>2026-03-28T08:32:22.469Z</time></trkpt><trkpt lat="43.598825" lon="11.58304"><ele>297.42857142857144</ele><time>2026-03-28T08:32:23.468Z</time></trkpt><trkpt lat="43.5988183" lon="11.58313"><ele>297.8571428571429</ele><time>2026-03-28T08:32:24.472Z</time></trkpt><trkpt lat="43.5988217" lon="11.5832217"><ele>298.2857142857143</ele><time>2026-03-28T08:32:25.471Z</time></trkpt><trkpt lat="43.5988283" lon="11.5833167"><ele>298.7142857142857</ele><time>2026-03-28T08:32:26.471Z</time></trkpt><trkpt lat="43.5988333" lon="11.583415"><ele>299.1428571428571</ele><time>2026-03-28T08:32:27.473Z</time></trkpt><trkpt lat="43.59884" lon="11.5835117"><ele>299.57142857142856</ele><time>2026-03-28T08:32:28.469Z</time></trkpt><trkpt lat="43.5988483" lon="11.5836133"><ele>300.0</ele><time>2026-03-28T08:32:29.469Z</time></trkpt><trkpt lat="43.5988567" lon="11.5837183"><ele>300.6666666666667</ele><time>2026-03-28T08:32:30.469Z</time></trkpt><trkpt lat="43.59886" lon="11.5838267"><ele>301.3333333333333</ele><time>2026-03-28T08:32:31.469Z</time></trkpt><trkpt lat="43.5988567" lon="11.5839367"><ele>302.0</ele><time>2026-03-28T08:32:32.47Z</time></trkpt><trkpt lat="43.598835" lon="11.584045"><ele>302.66666666666663</ele><time>2026-03-28T08:32:33.467Z</time></trkpt><trkpt lat="43.5987867" lon="11.5841383"><ele>303.3333333333333</ele><time>2026-03-28T08:32:34.47Z</time></trkpt><trkpt lat="43.5987133" lon="11.5842033"><ele>304.0</ele><time>2026-03-28T08:32:35.47Z</time></trkpt><trkpt lat="43.59863" lon="11.5842383"><ele>303.0</ele><time>2026-03-28T08:32:36.471Z</time></trkpt><trkpt lat="43.5985517" lon="11.5842633"><ele>302.0</ele><time>2026-03-28T08:32:37.473Z</time></trkpt><trkpt lat="43.5984767" lon="11.5842933"><ele>301.0</ele><time>2026-03-28T08:32:38.471Z</time></trkpt><trkpt lat="43.5984" lon="11.5843333"><ele>300.0</ele><time>2026-03-28T08:32:39.471Z</time></trkpt><trkpt lat="43.5983283" lon="11.5843917"><ele>299.0</ele><time>2026-03-28T08:32:40.471Z</time></trkpt><trkpt lat="43.5982633" lon="11.5844633"><ele>298.0</ele><time>2026-03-28T08:32:41.474Z</time></trkpt><trkpt lat="43.5982083" lon="11.5845483"><ele>298.0</ele><time>2026-03-28T08:32:42.468Z</time></trkpt><trkpt lat="43.59816" lon="11.584645"><ele>298.0</ele><time>2026-03-28T08:32:43.47Z</time></trkpt><trkpt lat="43.5981217" lon="11.5847483"><ele>298.0</ele><time>2026-03-28T08:32:44.47Z</time></trkpt><trkpt lat="43.598085" lon="11.584855"><ele>298.0</ele><time>2026-03-28T08:32:45.468Z</time></trkpt><trkpt lat="43.598045" lon="11.5849617"><ele>298.0</ele><time>2026-03-28T08:32:46.469Z</time></trkpt><trkpt lat="43.5979983" lon="11.5850717"><ele>298.0</ele><time>2026-03-28T08:32:47.471Z</time></trkpt><trkpt lat="43.59794" lon="11.585175"><ele>298.0</ele><time>2026-03-28T08:32:48.471Z</time></trkpt><trkpt lat="43.597865" lon="11.5852617"><ele>298.0</ele><time>2026-03-28T08:32:49.471Z</time></trkpt><trkpt lat="43.5977817" lon="11.5853283"><ele>298.0</ele><time>2026-03-28T08:32:50.469Z</time></trkpt><trkpt lat="43.5976917" lon="11.58538"><ele>298.0</ele><time>2026-03-28T08:32:51.469Z</time></trkpt><trkpt lat="43.597595" lon="11.5854217"><ele>298.0</ele><time>2026-03-28T08:32:52.468Z</time></trkpt><trkpt lat="43.5974983" lon="11.5854683"><ele>297.4</ele><time>2026-03-28T08:32:53.468Z</time></trkpt><trkpt lat="43.5974" lon="11.585515"><ele>296.8</ele><time>2026-03-28T08:32:54.469Z</time></trkpt><trkpt lat="43.5972983" lon="11.5855617"><ele>296.2</ele><time>2026-03-28T08:32:55.469Z</time></trkpt><trkpt lat="43.5971983" lon="11.5856117"><ele>295.6</ele><time>2026-03-28T08:32:56.469Z</time></trkpt><trkpt lat="43.5971033" lon="11.5856683"><ele>295.0</ele><time>2026-03-28T08:32:57.467Z</time></trkpt><trkpt lat="43.59701" lon="11.5857317"><ele>293.0</ele><time>2026-03-28T08:32:58.469Z</time></trkpt><trkpt lat="43.5969217" lon="11.5858067"><ele>291.0</ele><time>2026-03-28T08:32:59.472Z</time></trkpt><trkpt lat="43.596845" lon="11.5859033"><ele>289.0</ele><time>2026-03-28T08:33:00.469Z</time></trkpt><trkpt lat="43.5967867" lon="11.5860233"><ele>287.0</ele><time>2026-03-28T08:33:01.47Z</time></trkpt><trkpt lat="43.59675" lon="11.5861583"><ele>285.0</ele><time>2026-03-28T08:33:02.47Z</time></trkpt><trkpt lat="43.596735" lon="11.5862983"><ele>285.0</ele><time>2026-03-28T08:33:03.469Z</time></trkpt><trkpt lat="43.5967333" lon="11.5864367"><ele>285.0</ele><time>2026-03-28T08:33:04.471Z</time></trkpt><trkpt lat="43.5967233" lon="11.586575"><ele>285.0</ele><time>2026-03-28T08:33:05.47Z</time></trkpt><trkpt lat="43.5966917" lon="11.58671"><ele>285.0</ele><time>2026-03-28T08:33:06.47Z</time></trkpt><trkpt lat="43.5966383" lon="11.586835"><ele>285.0</ele><time>2026-03-28T08:33:07.473Z</time></trkpt><trkpt lat="43.5965683" lon="11.5869417"><ele>285.8</ele><time>2026-03-28T08:33:08.471Z</time></trkpt><trkpt lat="43.59649" lon="11.58704"><ele>286.6</ele><time>2026-03-28T08:33:09.47Z</time></trkpt><trkpt lat="43.5964067" lon="11.5871283"><ele>287.4</ele><time>2026-03-28T08:33:10.471Z</time></trkpt><trkpt lat="43.5963167" lon="11.58719"><ele>288.2</ele><time>2026-03-28T08:33:11.474Z</time></trkpt><trkpt lat="43.596215" lon="11.58721"><ele>289.0</ele><time>2026-03-28T08:33:12.47Z</time></trkpt><trkpt lat="43.5961167" lon="11.58719"><ele>289.8333333333333</ele><time>2026-03-28T08:33:13.471Z</time></trkpt><trkpt lat="43.5960267" lon="11.5871533"><ele>290.66666666666663</ele><time>2026-03-28T08:33:14.472Z</time></trkpt><trkpt lat="43.5959417" lon="11.58711"><ele>291.5</ele><time>2026-03-28T08:33:15.47Z</time></trkpt><trkpt lat="43.5958583" lon="11.5870633"><ele>292.3333333333333</ele><time>2026-03-28T08:33:16.471Z</time></trkpt><trkpt lat="43.595775" lon="11.5870217"><ele>293.1666666666667</ele><time>2026-03-28T08:33:17.473Z</time></trkpt><trkpt lat="43.5956967" lon="11.58698"><ele>294.0</ele><time>2026-03-28T08:33:18.471Z</time></trkpt><trkpt lat="43.59562" lon="11.5869417"><ele>292.1666666666667</ele><time>2026-03-28T08:33:19.471Z</time></trkpt><trkpt lat="43.5955467" lon="11.5869067"><ele>290.3333333333333</ele><time>2026-03-28T08:33:20.472Z</time></trkpt><trkpt lat="43.5954733" lon="11.5868767"><ele>288.5</ele><time>2026-03-28T08:33:21.471Z</time></trkpt><trkpt lat="43.5954" lon="11.58685"><ele>286.66666666666663</ele><time>2026-03-28T08:33:22.47Z</time></trkpt><trkpt lat="43.595325" lon="11.5868317"><ele>284.8333333333333</ele><time>2026-03-28T08:33:23.471Z</time></trkpt><trkpt lat="43.5952533" lon="11.5868183"><ele>283.0</ele><time>2026-03-28T08:33:24.471Z</time></trkpt><trkpt lat="43.5951783" lon="11.5868117"><ele>283.0</ele><time>2026-03-28T08:33:25.47Z</time></trkpt><trkpt lat="43.595105" lon="11.5868233"><ele>283.0</ele><time>2026-03-28T08:33:26.47Z</time></trkpt><trkpt lat="43.5950333" lon="11.58685"><ele>283.0</ele><time>2026-03-28T08:33:27.47Z</time></trkpt><trkpt lat="43.594965" lon="11.586885"><ele>283.0</ele><time>2026-03-28T08:33:28.469Z</time></trkpt><trkpt lat="43.5948983" lon="11.5869267"><ele>283.0</ele><time>2026-03-28T08:33:29.469Z</time></trkpt><trkpt lat="43.594835" lon="11.5869717"><ele>283.0</ele><time>2026-03-28T08:33:30.471Z</time></trkpt><trkpt lat="43.594775" lon="11.58702"><ele>283.0</ele><time>2026-03-28T08:33:31.469Z</time></trkpt><trkpt lat="43.59472" lon="11.58708"><ele>282.7142857142857</ele><time>2026-03-28T08:33:32.472Z</time></trkpt><trkpt lat="43.594675" lon="11.58715"><ele>282.42857142857144</ele><time>2026-03-28T08:33:33.47Z</time></trkpt><trkpt lat="43.5946333" lon="11.5872283"><ele>282.14285714285717</ele><time>2026-03-28T08:33:34.472Z</time></trkpt><trkpt lat="43.594595" lon="11.587315"><ele>281.8571428571429</ele><time>2026-03-28T08:33:35.471Z</time></trkpt><trkpt lat="43.5945583" lon="11.5874033"><ele>281.57142857142856</ele><time>2026-03-28T08:33:36.473Z</time></trkpt><trkpt lat="43.594525" lon="11.5874967"><ele>281.28571428571433</ele><time>2026-03-28T08:33:37.472Z</time></trkpt><trkpt lat="43.5944933" lon="11.5875917"><ele>281.0</ele><time>2026-03-28T08:33:38.473Z</time></trkpt><trkpt lat="43.594465" lon="11.5876883"><ele>281.00000000000006</ele><time>2026-03-28T08:33:39.469Z</time></trkpt><trkpt lat="43.59444" lon="11.5877883"><ele>281.0</ele><time>2026-03-28T08:33:40.47Z</time></trkpt><trkpt lat="43.5944233" lon="11.5878883"><ele>281.0</ele><time>2026-03-28T08:33:41.469Z</time></trkpt><trkpt lat="43.5944167" lon="11.58799"><ele>281.0</ele><time>2026-03-28T08:33:42.47Z</time></trkpt><trkpt lat="43.594415" lon="11.5880917"><ele>281.0</ele><time>2026-03-28T08:33:43.47Z</time></trkpt><trkpt lat="43.5944217" lon="11.58819"><ele>281.00000000000006</ele><time>2026-03-28T08:33:44.47Z</time></trkpt><trkpt lat="43.594435" lon="11.588295"><ele>281.0</ele><time>2026-03-28T08:33:45.47Z</time></trkpt><trkpt lat="43.594455" lon="11.588395"><ele>280.83333333333337</ele><time>2026-03-28T08:33:46.47Z</time></trkpt><trkpt lat="43.59448" lon="11.588495"><ele>280.6666666666667</ele><time>2026-03-28T08:33:47.471Z</time></trkpt><trkpt lat="43.5945083" lon="11.5886"><ele>280.5</ele><time>2026-03-28T08:33:48.473Z</time></trkpt><trkpt lat="43.5945383" lon="11.588705"><ele>280.3333333333333</ele><time>2026-03-28T08:33:49.471Z</time></trkpt><trkpt lat="43.5945617" lon="11.5888233"><ele>280.16666666666663</ele><time>2026-03-28T08:33:50.473Z</time></trkpt><trkpt lat="43.5945783" lon="11.5889467"><ele>280.0</ele><time>2026-03-28T08:33:51.473Z</time></trkpt><trkpt lat="43.594585" lon="11.58907"><ele>280.16666666666663</ele><time>2026-03-28T08:33:52.471Z</time></trkpt><trkpt lat="43.5945767" lon="11.58919"><ele>280.3333333333333</ele><time>2026-03-28T08:33:53.471Z</time></trkpt><trkpt lat="43.5945567" lon="11.5893067"><ele>280.5</ele><time>2026-03-28T08:33:54.47Z</time></trkpt><trkpt lat="43.594525" lon="11.5894183"><ele>280.6666666666667</ele><time>2026-03-28T08:33:55.471Z</time></trkpt><trkpt lat="43.59449" lon="11.5895267"><ele>280.83333333333337</ele><time>2026-03-28T08:33:56.472Z</time></trkpt><trkpt lat="43.594455" lon="11.589635"><ele>281.0</ele><time>2026-03-28T08:33:57.471Z</time></trkpt><trkpt lat="43.5944233" lon="11.58974"><ele>281.0</ele><time>2026-03-28T08:33:58.471Z</time></trkpt><trkpt lat="43.5943883" lon="11.5898433"><ele>281.0</ele><time>2026-03-28T08:33:59.47Z</time></trkpt><trkpt lat="43.5943533" lon="11.589945"><ele>281.0</ele><time>2026-03-28T08:34:00.469Z</time></trkpt><trkpt lat="43.5943067" lon="11.5900417"><ele>281.0</ele><time>2026-03-28T08:34:01.469Z</time></trkpt><trkpt lat="43.5942617" lon="11.5901367"><ele>281.0</ele><time>2026-03-28T08:34:02.469Z</time></trkpt><trkpt lat="43.594215" lon="11.5902317"><ele>281.0</ele><time>2026-03-28T08:34:03.468Z</time></trkpt><trkpt lat="43.5941683" lon="11.5903283"><ele>282.0</ele><time>2026-03-28T08:34:04.47Z</time></trkpt><trkpt lat="43.59412" lon="11.590425"><ele>283.0</ele><time>2026-03-28T08:34:05.469Z</time></trkpt><trkpt lat="43.594075" lon="11.5905233"><ele>284.0</ele><time>2026-03-28T08:34:06.471Z</time></trkpt><trkpt lat="43.5940333" lon="11.59062"><ele>285.0</ele><time>2026-03-28T08:34:07.473Z</time></trkpt><trkpt lat="43.5939917" lon="11.5907183"><ele>286.0</ele><time>2026-03-28T08:34:08.472Z</time></trkpt><trkpt lat="43.5939467" lon="11.59082"><ele>287.0</ele><time>2026-03-28T08:34:09.471Z</time></trkpt><trkpt lat="43.5939083" lon="11.5909267"><ele>287.0</ele><time>2026-03-28T08:34:10.473Z</time></trkpt><trkpt lat="43.5938767" lon="11.5910383"><ele>287.0</ele><time>2026-03-28T08:34:11.472Z</time></trkpt><trkpt lat="43.5938517" lon="11.5911533"><ele>287.0</ele><time>2026-03-28T08:34:12.47Z</time></trkpt><trkpt lat="43.593835" lon="11.5912717"><ele>287.0</ele><time>2026-03-28T08:34:13.471Z</time></trkpt><trkpt lat="43.593835" lon="11.5914"><ele>287.0</ele><time>2026-03-28T08:34:14.471Z</time></trkpt><trkpt lat="43.593845" lon="11.59152"><ele>287.0</ele><time>2026-03-28T08:34:15.473Z</time></trkpt><trkpt lat="43.5938483" lon="11.5916367"><ele>287.33333333333337</ele><time>2026-03-28T08:34:16.473Z</time></trkpt><trkpt lat="43.5938267" lon="11.5917433"><ele>287.6666666666667</ele><time>2026-03-28T08:34:17.47Z</time></trkpt><trkpt lat="43.59377" lon="11.5918233"><ele>288.0</ele><time>2026-03-28T08:34:18.472Z</time></trkpt><trkpt lat="43.5936983" lon="11.5918717"><ele>288.3333333333333</ele><time>2026-03-28T08:34:19.471Z</time></trkpt><trkpt lat="43.5936183" lon="11.5918917"><ele>288.66666666666663</ele><time>2026-03-28T08:34:20.471Z</time></trkpt><trkpt lat="43.59354" lon="11.591905"><ele>289.0</ele><time>2026-03-28T08:34:21.47Z</time></trkpt><trkpt lat="43.5934667" lon="11.59192"><ele>288.3333333333333</ele><time>2026-03-28T08:34:22.469Z</time></trkpt><trkpt lat="43.5933967" lon="11.5919483"><ele>287.66666666666663</ele><time>2026-03-28T08:34:23.47Z</time></trkpt><trkpt lat="43.5933317" lon="11.591985"><ele>287.0</ele><time>2026-03-28T08:34:24.472Z</time></trkpt><trkpt lat="43.5932717" lon="11.5920283"><ele>286.3333333333333</ele><time>2026-03-28T08:34:25.471Z</time></trkpt><trkpt lat="43.5932233" lon="11.592085"><ele>285.6666666666667</ele><time>2026-03-28T08:34:26.471Z</time></trkpt><trkpt lat="43.5931733" lon="11.5922333"><ele>285.0</ele><time>2026-03-28T08:34:28.469Z</time></trkpt><trkpt lat="43.5931883" lon="11.5924"><ele>285.0</ele><time>2026-03-28T08:34:30.47Z</time></trkpt><trkpt lat="43.59321" lon="11.5924867"><ele>285.0</ele><time>2026-03-28T08:34:31.47Z</time></trkpt><trkpt lat="43.59323" lon="11.5925783"><ele>285.0</ele><time>2026-03-28T08:34:32.47Z</time></trkpt><trkpt lat="43.5932483" lon="11.5926683"><ele>285.0</ele><time>2026-03-28T08:34:33.471Z</time></trkpt><trkpt lat="43.5932667" lon="11.5927517"><ele>285.0</ele><time>2026-03-28T08:34:34.484Z</time></trkpt><trkpt lat="43.5932917" lon="11.59284"><ele>285.0</ele><time>2026-03-28T08:34:35.47Z</time></trkpt><trkpt lat="43.5933117" lon="11.5929317"><ele>285.0</ele><time>2026-03-28T08:34:36.468Z</time></trkpt><trkpt lat="43.5933317" lon="11.5930217"><ele>285.1428571428571</ele><time>2026-03-28T08:34:37.47Z</time></trkpt><trkpt lat="43.5933517" lon="11.5931117"><ele>285.2857142857143</ele><time>2026-03-28T08:34:38.47Z</time></trkpt><trkpt lat="43.5933733" lon="11.5932017"><ele>285.42857142857144</ele><time>2026-03-28T08:34:39.47Z</time></trkpt><trkpt lat="43.5933917" lon="11.5932883"><ele>285.57142857142856</ele><time>2026-03-28T08:34:40.471Z</time></trkpt><trkpt lat="43.59341" lon="11.5933717"><ele>285.7142857142857</ele><time>2026-03-28T08:34:41.473Z</time></trkpt><trkpt lat="43.5934283" lon="11.5934583"><ele>285.85714285714283</ele><time>2026-03-28T08:34:42.47Z</time></trkpt><trkpt lat="43.5934383" lon="11.593545"><ele>286.0</ele><time>2026-03-28T08:34:43.469Z</time></trkpt><trkpt lat="43.5934067" lon="11.5937033"><ele>287.2</ele><time>2026-03-28T08:34:45.468Z</time></trkpt><trkpt lat="43.5933333" lon="11.5938117"><ele>288.40000000000003</ele><time>2026-03-28T08:34:47.469Z</time></trkpt><trkpt lat="43.5932517" lon="11.5939033"><ele>289.6</ele><time>2026-03-28T08:34:49.468Z</time></trkpt><trkpt lat="43.593165" lon="11.59398"><ele>290.8</ele><time>2026-03-28T08:34:51.467Z</time></trkpt><trkpt lat="43.593085" lon="11.5940583"><ele>292.0</ele><time>2026-03-28T08:34:53.47Z</time></trkpt><trkpt lat="43.5930017" lon="11.5941233"><ele>292.0</ele><time>2026-03-28T08:34:55.468Z</time></trkpt><trkpt lat="43.5929183" lon="11.594185"><ele>292.0</ele><time>2026-03-28T08:34:57.468Z</time></trkpt><trkpt lat="43.592835" lon="11.594255"><ele>292.0</ele><time>2026-03-28T08:34:59.469Z</time></trkpt><trkpt lat="43.5927633" lon="11.5943283"><ele>292.0</ele><time>2026-03-28T08:35:01.47Z</time></trkpt><trkpt lat="43.59268" lon="11.5944"><ele>292.0</ele><time>2026-03-28T08:35:03.47Z</time></trkpt><trkpt lat="43.5925983" lon="11.59447"><ele>292.6</ele><time>2026-03-28T08:35:05.469Z</time></trkpt><trkpt lat="43.5925183" lon="11.5945517"><ele>293.2</ele><time>2026-03-28T08:35:07.469Z</time></trkpt><trkpt lat="43.5924383" lon="11.5946483"><ele>293.8</ele><time>2026-03-28T08:35:09.471Z</time></trkpt><trkpt lat="43.592375" lon="11.5947633"><ele>294.4</ele><time>2026-03-28T08:35:11.468Z</time></trkpt><trkpt lat="43.592325" lon="11.5949"><ele>295.0</ele><time>2026-03-28T08:35:13.471Z</time></trkpt><trkpt lat="43.5922917" lon="11.5950567"><ele>295.0</ele><time>2026-03-28T08:35:15.467Z</time></trkpt><trkpt lat="43.5922833" lon="11.5952283"><ele>295.0</ele><time>2026-03-28T08:35:17.471Z</time></trkpt><trkpt lat="43.59229" lon="11.5953167"><ele>295.0</ele><time>2026-03-28T08:35:18.471Z</time></trkpt><trkpt lat="43.5923267" lon="11.59548"><ele>295.0</ele><time>2026-03-28T08:35:20.47Z</time></trkpt><trkpt lat="43.592355" lon="11.5955583"><ele>295.0</ele><time>2026-03-28T08:35:21.471Z</time></trkpt><trkpt lat="43.59239" lon="11.595635"><ele>295.0</ele><time>2026-03-28T08:35:22.473Z</time></trkpt><trkpt lat="43.5924333" lon="11.5957067"><ele>294.5714285714286</ele><time>2026-03-28T08:35:23.47Z</time></trkpt><trkpt lat="43.5924817" lon="11.5957783"><ele>294.14285714285717</ele><time>2026-03-28T08:35:24.471Z</time></trkpt><trkpt lat="43.5925333" lon="11.595845"><ele>293.7142857142857</ele><time>2026-03-28T08:35:25.469Z</time></trkpt><trkpt lat="43.59259" lon="11.5959067"><ele>293.28571428571433</ele><time>2026-03-28T08:35:26.473Z</time></trkpt><trkpt lat="43.5926483" lon="11.59596"><ele>292.8571428571429</ele><time>2026-03-28T08:35:27.469Z</time></trkpt><trkpt lat="43.59271" lon="11.5960117"><ele>292.42857142857144</ele><time>2026-03-28T08:35:28.474Z</time></trkpt><trkpt lat="43.5927717" lon="11.59605"><ele>292.0</ele><time>2026-03-28T08:35:29.473Z</time></trkpt><trkpt lat="43.5928317" lon="11.59609"><ele>293.2857142857143</ele><time>2026-03-28T08:35:30.469Z</time></trkpt><trkpt lat="43.5928933" lon="11.5961283"><ele>294.57142857142856</ele><time>2026-03-28T08:35:31.47Z</time></trkpt><trkpt lat="43.5929567" lon="11.5961717"><ele>295.8571428571429</ele><time>2026-03-28T08:35:32.47Z</time></trkpt><trkpt lat="43.5930217" lon="11.59621"><ele>297.1428571428571</ele><time>2026-03-28T08:35:33.467Z</time></trkpt><trkpt lat="43.59308" lon="11.596245"><ele>298.42857142857144</ele><time>2026-03-28T08:35:34.469Z</time></trkpt><trkpt lat="43.5931317" lon="11.5962983"><ele>299.7142857142857</ele><time>2026-03-28T08:35:35.473Z</time></trkpt><trkpt lat="43.59317" lon="11.5963717"><ele>301.0</ele><time>2026-03-28T08:35:36.47Z</time></trkpt><trkpt lat="43.593185" lon="11.59646"><ele>301.0</ele><time>2026-03-28T08:35:37.468Z</time></trkpt><trkpt lat="43.5931317" lon="11.5966083"><ele>301.0</ele><time>2026-03-28T08:35:39.469Z</time></trkpt><trkpt lat="43.5930767" lon="11.59666"><ele>301.0</ele><time>2026-03-28T08:35:40.469Z</time></trkpt><trkpt lat="43.5930117" lon="11.5966967"><ele>301.0</ele><time>2026-03-28T08:35:41.472Z</time></trkpt><trkpt lat="43.5929417" lon="11.596725"><ele>301.0</ele><time>2026-03-28T08:35:42.471Z</time></trkpt><trkpt lat="43.5928717" lon="11.596755"><ele>301.0</ele><time>2026-03-28T08:35:43.469Z</time></trkpt><trkpt lat="43.5928017" lon="11.596795"><ele>300.16666666666663</ele><time>2026-03-28T08:35:44.474Z</time></trkpt><trkpt lat="43.5927317" lon="11.596845"><ele>299.3333333333333</ele><time>2026-03-28T08:35:45.47Z</time></trkpt><trkpt lat="43.59267" lon="11.5969067"><ele>298.5</ele><time>2026-03-28T08:35:46.471Z</time></trkpt><trkpt lat="43.59261" lon="11.5969667"><ele>297.6666666666667</ele><time>2026-03-28T08:35:47.473Z</time></trkpt><trkpt lat="43.5925517" lon="11.59703"><ele>296.83333333333337</ele><time>2026-03-28T08:35:48.47Z</time></trkpt><trkpt lat="43.5924967" lon="11.5970933"><ele>296.0</ele><time>2026-03-28T08:35:49.47Z</time></trkpt><trkpt lat="43.5924383" lon="11.5971583"><ele>296.0</ele><time>2026-03-28T08:35:50.471Z</time></trkpt><trkpt lat="43.5923767" lon="11.5972233"><ele>296.0</ele><time>2026-03-28T08:35:51.471Z</time></trkpt><trkpt lat="43.5923133" lon="11.5972883"><ele>296.0</ele><time>2026-03-28T08:35:52.472Z</time></trkpt><trkpt lat="43.5922567" lon="11.597355"><ele>296.0</ele><time>2026-03-28T08:35:53.47Z</time></trkpt><trkpt lat="43.5922083" lon="11.5974317"><ele>296.0</ele><time>2026-03-28T08:35:54.47Z</time></trkpt><trkpt lat="43.59217" lon="11.59752"><ele>296.0</ele><time>2026-03-28T08:35:55.471Z</time></trkpt><trkpt lat="43.5921417" lon="11.59762"><ele>296.0</ele><time>2026-03-28T08:35:56.473Z</time></trkpt><trkpt lat="43.5921267" lon="11.5977283"><ele>296.0</ele><time>2026-03-28T08:35:57.47Z</time></trkpt><trkpt lat="43.592125" lon="11.5978417"><ele>296.0</ele><time>2026-03-28T08:35:58.47Z</time></trkpt><trkpt lat="43.5921317" lon="11.5979583"><ele>296.0</ele><time>2026-03-28T08:35:59.472Z</time></trkpt><trkpt lat="43.5921333" lon="11.5980783"><ele>296.0</ele><time>2026-03-28T08:36:00.473Z</time></trkpt><trkpt lat="43.59212" lon="11.5981967"><ele>296.0</ele><time>2026-03-28T08:36:01.472Z</time></trkpt><trkpt lat="43.5920883" lon="11.5983083"><ele>296.5</ele><time>2026-03-28T08:36:02.471Z</time></trkpt><trkpt lat="43.5920483" lon="11.5984067"><ele>297.0</ele><time>2026-03-28T08:36:03.472Z</time></trkpt><trkpt lat="43.5919983" lon="11.59849"><ele>297.5</ele><time>2026-03-28T08:36:04.472Z</time></trkpt><trkpt lat="43.5919433" lon="11.598565"><ele>298.0</ele><time>2026-03-28T08:36:05.47Z</time></trkpt><trkpt lat="43.5918933" lon="11.5986383"><ele>298.5</ele><time>2026-03-28T08:36:06.468Z</time></trkpt><trkpt lat="43.5918433" lon="11.59871"><ele>299.0</ele><time>2026-03-28T08:36:07.468Z</time></trkpt><trkpt lat="43.5917933" lon="11.5987817"><ele>298.1428571428571</ele><time>2026-03-28T08:36:08.471Z</time></trkpt><trkpt lat="43.591745" lon="11.59886"><ele>297.2857142857143</ele><time>2026-03-28T08:36:09.47Z</time></trkpt><trkpt lat="43.5917083" lon="11.5989417"><ele>296.42857142857144</ele><time>2026-03-28T08:36:10.469Z</time></trkpt><trkpt lat="43.5916783" lon="11.5990283"><ele>295.57142857142856</ele><time>2026-03-28T08:36:11.471Z</time></trkpt><trkpt lat="43.5916517" lon="11.5991183"><ele>294.7142857142857</ele><time>2026-03-28T08:36:12.471Z</time></trkpt><trkpt lat="43.5916317" lon="11.5992117"><ele>293.85714285714283</ele><time>2026-03-28T08:36:13.471Z</time></trkpt><trkpt lat="43.5916167" lon="11.59931"><ele>293.0</ele><time>2026-03-28T08:36:14.471Z</time></trkpt><trkpt lat="43.5916117" lon="11.5994067"><ele>292.99999999999994</ele><time>2026-03-28T08:36:15.473Z</time></trkpt><trkpt lat="43.591615" lon="11.599505"><ele>293.0</ele><time>2026-03-28T08:36:16.47Z</time></trkpt><trkpt lat="43.5916283" lon="11.5996"><ele>293.0</ele><time>2026-03-28T08:36:17.471Z</time></trkpt><trkpt lat="43.59165" lon="11.599695"><ele>293.0</ele><time>2026-03-28T08:36:18.472Z</time></trkpt><trkpt lat="43.5916767" lon="11.5997817"><ele>293.0</ele><time>2026-03-28T08:36:19.471Z</time></trkpt><trkpt lat="43.5917033" lon="11.5998617"><ele>292.99999999999994</ele><time>2026-03-28T08:36:20.47Z</time></trkpt><trkpt lat="43.5917317" lon="11.599945"><ele>293.0</ele><time>2026-03-28T08:36:21.471Z</time></trkpt><trkpt lat="43.59176" lon="11.600025"><ele>292.99999999999994</ele><time>2026-03-28T08:36:22.469Z</time></trkpt><trkpt lat="43.5917917" lon="11.6001017"><ele>293.0</ele><time>2026-03-28T08:36:23.473Z</time></trkpt><trkpt lat="43.591825" lon="11.60018"><ele>293.0</ele><time>2026-03-28T08:36:24.471Z</time></trkpt><trkpt lat="43.59186" lon="11.60026"><ele>293.0</ele><time>2026-03-28T08:36:25.471Z</time></trkpt><trkpt lat="43.5918933" lon="11.6003467"><ele>293.0</ele><time>2026-03-28T08:36:26.472Z</time></trkpt><trkpt lat="43.5919283" lon="11.6004283"><ele>292.99999999999994</ele><time>2026-03-28T08:36:27.472Z</time></trkpt><trkpt lat="43.591965" lon="11.600515"><ele>293.0</ele><time>2026-03-28T08:36:28.471Z</time></trkpt><trkpt lat="43.5920017" lon="11.6005967"><ele>294.2857142857143</ele><time>2026-03-28T08:36:29.471Z</time></trkpt><trkpt lat="43.59204" lon="11.6006817"><ele>295.57142857142856</ele><time>2026-03-28T08:36:30.473Z</time></trkpt><trkpt lat="43.5920783" lon="11.6007667"><ele>296.8571428571429</ele><time>2026-03-28T08:36:31.474Z</time></trkpt><trkpt lat="43.5921233" lon="11.6008483"><ele>298.1428571428571</ele><time>2026-03-28T08:36:32.47Z</time></trkpt><trkpt lat="43.5921733" lon="11.6009267"><ele>299.42857142857144</ele><time>2026-03-28T08:36:33.47Z</time></trkpt><trkpt lat="43.5922283" lon="11.601"><ele>300.7142857142857</ele><time>2026-03-28T08:36:34.471Z</time></trkpt><trkpt lat="43.5922867" lon="11.6010617"><ele>302.0</ele><time>2026-03-28T08:36:35.471Z</time></trkpt><trkpt lat="43.5923483" lon="11.6011267"><ele>301.1666666666667</ele><time>2026-03-28T08:36:36.473Z</time></trkpt><trkpt lat="43.5924083" lon="11.6011867"><ele>300.33333333333337</ele><time>2026-03-28T08:36:37.47Z</time></trkpt><trkpt lat="43.5924683" lon="11.6012533"><ele>299.5</ele><time>2026-03-28T08:36:38.472Z</time></trkpt><trkpt lat="43.5925283" lon="11.6013217"><ele>298.6666666666667</ele><time>2026-03-28T08:36:39.471Z</time></trkpt><trkpt lat="43.592585" lon="11.6013983"><ele>297.8333333333333</ele><time>2026-03-28T08:36:40.47Z</time></trkpt><trkpt lat="43.5926233" lon="11.601495"><ele>297.0</ele><time>2026-03-28T08:36:41.471Z</time></trkpt><trkpt lat="43.592635" lon="11.6016017"><ele>297.0</ele><time>2026-03-28T08:36:42.475Z</time></trkpt><trkpt lat="43.592625" lon="11.6017083"><ele>297.0</ele><time>2026-03-28T08:36:43.473Z</time></trkpt><trkpt lat="43.59259" lon="11.60181"><ele>297.0</ele><time>2026-03-28T08:36:44.471Z</time></trkpt><trkpt lat="43.5925367" lon="11.60189"><ele>297.0</ele><time>2026-03-28T08:36:45.471Z</time></trkpt><trkpt lat="43.5924733" lon="11.60195"><ele>297.0</ele><time>2026-03-28T08:36:46.472Z</time></trkpt><trkpt lat="43.592405" lon="11.6019917"><ele>297.0</ele><time>2026-03-28T08:36:47.471Z</time></trkpt><trkpt lat="43.59234" lon="11.602035"><ele>297.14285714285717</ele><time>2026-03-28T08:36:48.47Z</time></trkpt><trkpt lat="43.592285" lon="11.6020933"><ele>297.28571428571433</ele><time>2026-03-28T08:36:49.472Z</time></trkpt><trkpt lat="43.5922267" lon="11.60216"><ele>297.42857142857144</ele><time>2026-03-28T08:36:50.473Z</time></trkpt><trkpt lat="43.5921717" lon="11.6022283"><ele>297.57142857142856</ele><time>2026-03-28T08:36:51.47Z</time></trkpt><trkpt lat="43.5921167" lon="11.6023"><ele>297.71428571428567</ele><time>2026-03-28T08:36:52.47Z</time></trkpt><trkpt lat="43.5920667" lon="11.6023717"><ele>297.85714285714283</ele><time>2026-03-28T08:36:53.472Z</time></trkpt><trkpt lat="43.5920283" lon="11.60245"><ele>298.0</ele><time>2026-03-28T08:36:54.47Z</time></trkpt><trkpt lat="43.5920033" lon="11.6025333"><ele>298.0</ele><time>2026-03-28T08:36:55.471Z</time></trkpt><trkpt lat="43.59199" lon="11.6026183"><ele>298.0</ele><time>2026-03-28T08:36:56.471Z</time></trkpt><trkpt lat="43.59202" lon="11.6027733"><ele>298.0</ele><time>2026-03-28T08:36:58.471Z</time></trkpt><trkpt lat="43.5921117" lon="11.6028867"><ele>298.0</ele><time>2026-03-28T08:37:00.471Z</time></trkpt><trkpt lat="43.5922017" lon="11.6029867"><ele>298.0</ele><time>2026-03-28T08:37:02.473Z</time></trkpt><trkpt lat="43.5922617" lon="11.6031167"><ele>298.8</ele><time>2026-03-28T08:37:04.472Z</time></trkpt><trkpt lat="43.59227" lon="11.6032733"><ele>299.6</ele><time>2026-03-28T08:37:06.471Z</time></trkpt><trkpt lat="43.592235" lon="11.6034317"><ele>300.4</ele><time>2026-03-28T08:37:08.472Z</time></trkpt><trkpt lat="43.5922083" lon="11.6035183"><ele>301.2</ele><time>2026-03-28T08:37:09.47Z</time></trkpt><trkpt lat="43.592175" lon="11.6036117"><ele>302.0</ele><time>2026-03-28T08:37:10.467Z</time></trkpt><trkpt lat="43.592135" lon="11.60371"><ele>302.6666666666667</ele><time>2026-03-28T08:37:11.469Z</time></trkpt><trkpt lat="43.5920883" lon="11.60381"><ele>303.33333333333337</ele><time>2026-03-28T08:37:12.469Z</time></trkpt><trkpt lat="43.592035" lon="11.603905"><ele>304.0</ele><time>2026-03-28T08:37:13.468Z</time></trkpt><trkpt lat="43.5919733" lon="11.6039867"><ele>304.6666666666667</ele><time>2026-03-28T08:37:14.469Z</time></trkpt><trkpt lat="43.5919033" lon="11.60406"><ele>305.3333333333333</ele><time>2026-03-28T08:37:15.468Z</time></trkpt><trkpt lat="43.5918367" lon="11.6041317"><ele>306.0</ele><time>2026-03-28T08:37:16.468Z</time></trkpt><trkpt lat="43.5917717" lon="11.6042067"><ele>305.5</ele><time>2026-03-28T08:37:17.471Z</time></trkpt><trkpt lat="43.5917067" lon="11.60428"><ele>305.0</ele><time>2026-03-28T08:37:18.471Z</time></trkpt><trkpt lat="43.5916383" lon="11.60435"><ele>304.5</ele><time>2026-03-28T08:37:19.471Z</time></trkpt><trkpt lat="43.5915683" lon="11.6044167"><ele>304.0</ele><time>2026-03-28T08:37:20.471Z</time></trkpt><trkpt lat="43.5914983" lon="11.604485"><ele>303.5</ele><time>2026-03-28T08:37:21.469Z</time></trkpt><trkpt lat="43.5914383" lon="11.6045517"><ele>303.0</ele><time>2026-03-28T08:37:22.473Z</time></trkpt><trkpt lat="43.5913783" lon="11.6046217"><ele>303.0</ele><time>2026-03-28T08:37:23.472Z</time></trkpt><trkpt lat="43.591315" lon="11.6046917"><ele>303.0</ele><time>2026-03-28T08:37:24.469Z</time></trkpt><trkpt lat="43.5912567" lon="11.6047633"><ele>303.0</ele><time>2026-03-28T08:37:25.471Z</time></trkpt><trkpt lat="43.5912067" lon="11.604855"><ele>303.0</ele><time>2026-03-28T08:37:26.47Z</time></trkpt><trkpt lat="43.5911717" lon="11.6049617"><ele>303.0</ele><time>2026-03-28T08:37:27.473Z</time></trkpt><trkpt lat="43.5911483" lon="11.60508"><ele>303.0</ele><time>2026-03-28T08:37:28.471Z</time></trkpt><trkpt lat="43.5911333" lon="11.6052083"><ele>300.8</ele><time>2026-03-28T08:37:29.469Z</time></trkpt><trkpt lat="43.5911183" lon="11.605335"><ele>298.6</ele><time>2026-03-28T08:37:30.469Z</time></trkpt><trkpt lat="43.591105" lon="11.6054683"><ele>296.4</ele><time>2026-03-28T08:37:31.469Z</time></trkpt><trkpt lat="43.5910933" lon="11.6056"><ele>294.2</ele><time>2026-03-28T08:37:32.47Z</time></trkpt><trkpt lat="43.5910817" lon="11.6057283"><ele>292.0</ele><time>2026-03-28T08:37:33.468Z</time></trkpt><trkpt lat="43.5910667" lon="11.6058567"><ele>292.0</ele><time>2026-03-28T08:37:34.47Z</time></trkpt><trkpt lat="43.5910567" lon="11.60598"><ele>292.0</ele><time>2026-03-28T08:37:35.471Z</time></trkpt><trkpt lat="43.5910517" lon="11.6061017"><ele>292.0</ele><time>2026-03-28T08:37:36.47Z</time></trkpt><trkpt lat="43.5910567" lon="11.6062217"><ele>292.0</ele><time>2026-03-28T08:37:37.471Z</time></trkpt><trkpt lat="43.591085" lon="11.60633"><ele>292.0</ele><time>2026-03-28T08:37:38.472Z</time></trkpt><trkpt lat="43.5911283" lon="11.60643"><ele>292.0</ele><time>2026-03-28T08:37:39.47Z</time></trkpt><trkpt lat="43.5911717" lon="11.6065233"><ele>292.3333333333333</ele><time>2026-03-28T08:37:40.471Z</time></trkpt><trkpt lat="43.5912" lon="11.606625"><ele>292.66666666666663</ele><time>2026-03-28T08:37:41.473Z</time></trkpt><trkpt lat="43.5912017" lon="11.6067367"><ele>293.0</ele><time>2026-03-28T08:37:42.471Z</time></trkpt><trkpt lat="43.591175" lon="11.6068367"><ele>293.3333333333333</ele><time>2026-03-28T08:37:43.473Z</time></trkpt><trkpt lat="43.5911267" lon="11.6069167"><ele>293.6666666666667</ele><time>2026-03-28T08:37:44.471Z</time></trkpt><trkpt lat="43.5910667" lon="11.606965"><ele>294.0</ele><time>2026-03-28T08:37:45.47Z</time></trkpt><trkpt lat="43.5909983" lon="11.60698"><ele>294.0</ele><time>2026-03-28T08:37:46.472Z</time></trkpt><trkpt lat="43.5909283" lon="11.6069617"><ele>294.0</ele><time>2026-03-28T08:37:47.469Z</time></trkpt><trkpt lat="43.5908617" lon="11.6069267"><ele>294.0</ele><time>2026-03-28T08:37:48.47Z</time></trkpt><trkpt lat="43.5908017" lon="11.606875"><ele>294.0</ele><time>2026-03-28T08:37:49.471Z</time></trkpt><trkpt lat="43.5907367" lon="11.60681"><ele>294.0</ele><time>2026-03-28T08:37:50.471Z</time></trkpt><trkpt lat="43.5906817" lon="11.6067383"><ele>294.0</ele><time>2026-03-28T08:37:51.471Z</time></trkpt><trkpt lat="43.5906317" lon="11.6066633"><ele>294.0</ele><time>2026-03-28T08:37:52.471Z</time></trkpt><trkpt lat="43.590585" lon="11.606585"><ele>294.0</ele><time>2026-03-28T08:37:53.471Z</time></trkpt><trkpt lat="43.59054" lon="11.606515"><ele>294.0</ele><time>2026-03-28T08:37:54.472Z</time></trkpt><trkpt lat="43.5904933" lon="11.6064533"><ele>294.0</ele><time>2026-03-28T08:37:55.471Z</time></trkpt><trkpt lat="43.590445" lon="11.606395"><ele>294.0</ele><time>2026-03-28T08:37:56.472Z</time></trkpt><trkpt lat="43.59039" lon="11.6063483"><ele>294.0</ele><time>2026-03-28T08:37:57.471Z</time></trkpt><trkpt lat="43.59033" lon="11.6063133"><ele>294.0</ele><time>2026-03-28T08:37:58.469Z</time></trkpt><trkpt lat="43.590265" lon="11.6062983"><ele>294.0</ele><time>2026-03-28T08:37:59.47Z</time></trkpt><trkpt lat="43.5901417" lon="11.6063167"><ele>294.2857142857143</ele><time>2026-03-28T08:38:01.47Z</time></trkpt><trkpt lat="43.59008" lon="11.60634"><ele>294.57142857142856</ele><time>2026-03-28T08:38:02.47Z</time></trkpt><trkpt lat="43.590015" lon="11.6063683"><ele>294.8571428571429</ele><time>2026-03-28T08:38:03.468Z</time></trkpt><trkpt lat="43.5899467" lon="11.6063933"><ele>295.1428571428571</ele><time>2026-03-28T08:38:04.469Z</time></trkpt><trkpt lat="43.589875" lon="11.6064217"><ele>295.42857142857144</ele><time>2026-03-28T08:38:05.469Z</time></trkpt><trkpt lat="43.5898033" lon="11.60645"><ele>295.7142857142857</ele><time>2026-03-28T08:38:06.469Z</time></trkpt><trkpt lat="43.5897333" lon="11.6064767"><ele>296.0</ele><time>2026-03-28T08:38:07.468Z</time></trkpt><trkpt lat="43.5896683" lon="11.6065067"><ele>296.0</ele><time>2026-03-28T08:38:08.472Z</time></trkpt><trkpt lat="43.589605" lon="11.6065433"><ele>296.0</ele><time>2026-03-28T08:38:09.471Z</time></trkpt><trkpt lat="43.5895467" lon="11.6065933"><ele>296.0</ele><time>2026-03-28T08:38:10.472Z</time></trkpt><trkpt lat="43.5894917" lon="11.6066567"><ele>296.0</ele><time>2026-03-28T08:38:11.473Z</time></trkpt><trkpt lat="43.5894417" lon="11.60672"><ele>296.0</ele><time>2026-03-28T08:38:12.47Z</time></trkpt><trkpt lat="43.5893933" lon="11.6067933"><ele>296.0</ele><time>2026-03-28T08:38:13.471Z</time></trkpt><trkpt lat="43.58935" lon="11.60688"><ele>296.0</ele><time>2026-03-28T08:38:14.471Z</time></trkpt><trkpt lat="43.5893" lon="11.60697"><ele>295.6666666666667</ele><time>2026-03-28T08:38:15.47Z</time></trkpt><trkpt lat="43.5892533" lon="11.6070617"><ele>295.33333333333337</ele><time>2026-03-28T08:38:16.471Z</time></trkpt><trkpt lat="43.5892017" lon="11.6071567"><ele>295.0</ele><time>2026-03-28T08:38:17.471Z</time></trkpt><trkpt lat="43.5891517" lon="11.6072533"><ele>294.6666666666667</ele><time>2026-03-28T08:38:18.471Z</time></trkpt><trkpt lat="43.5890983" lon="11.60735"><ele>294.3333333333333</ele><time>2026-03-28T08:38:19.471Z</time></trkpt><trkpt lat="43.5890417" lon="11.60745"><ele>294.0</ele><time>2026-03-28T08:38:20.473Z</time></trkpt><trkpt lat="43.5889867" lon="11.6075517"><ele>294.0</ele><time>2026-03-28T08:38:21.471Z</time></trkpt><trkpt lat="43.5889333" lon="11.6076533"><ele>294.0</ele><time>2026-03-28T08:38:22.471Z</time></trkpt><trkpt lat="43.588875" lon="11.6077567"><ele>294.0</ele><time>2026-03-28T08:38:23.473Z</time></trkpt><trkpt lat="43.5888183" lon="11.6078583"><ele>294.0</ele><time>2026-03-28T08:38:24.473Z</time></trkpt><trkpt lat="43.588765" lon="11.607965"><ele>294.0</ele><time>2026-03-28T08:38:25.473Z</time></trkpt><trkpt lat="43.5887267" lon="11.608085"><ele>293.8</ele><time>2026-03-28T08:38:26.471Z</time></trkpt><trkpt lat="43.5887117" lon="11.608215"><ele>293.59999999999997</ele><time>2026-03-28T08:38:27.471Z</time></trkpt><trkpt lat="43.5887233" lon="11.6083533"><ele>293.4</ele><time>2026-03-28T08:38:28.473Z</time></trkpt><trkpt lat="43.5887483" lon="11.6084917"><ele>293.2</ele><time>2026-03-28T08:38:29.471Z</time></trkpt><trkpt lat="43.5887733" lon="11.60863"><ele>293.0</ele><time>2026-03-28T08:38:30.468Z</time></trkpt><trkpt lat="43.5887917" lon="11.6087767"><ele>292.8</ele><time>2026-03-28T08:38:31.47Z</time></trkpt><trkpt lat="43.5887983" lon="11.6089217"><ele>292.6</ele><time>2026-03-28T08:38:32.47Z</time></trkpt><trkpt lat="43.58879" lon="11.609065"><ele>292.4</ele><time>2026-03-28T08:38:33.468Z</time></trkpt><trkpt lat="43.5887717" lon="11.609205"><ele>292.2</ele><time>2026-03-28T08:38:34.468Z</time></trkpt><trkpt lat="43.5887533" lon="11.609345"><ele>292.0</ele><time>2026-03-28T08:38:35.469Z</time></trkpt><trkpt lat="43.588725" lon="11.6094817"><ele>291.6</ele><time>2026-03-28T08:38:36.47Z</time></trkpt><trkpt lat="43.5886817" lon="11.6096067"><ele>291.2</ele><time>2026-03-28T08:38:37.472Z</time></trkpt><trkpt lat="43.5886183" lon="11.609715"><ele>290.8</ele><time>2026-03-28T08:38:38.471Z</time></trkpt><trkpt lat="43.58854" lon="11.6097983"><ele>290.4</ele><time>2026-03-28T08:38:39.469Z</time></trkpt><trkpt lat="43.5884567" lon="11.6098617"><ele>290.0</ele><time>2026-03-28T08:38:40.469Z</time></trkpt><trkpt lat="43.5883733" lon="11.609915"><ele>289.83333333333337</ele><time>2026-03-28T08:38:41.47Z</time></trkpt><trkpt lat="43.58829" lon="11.6099617"><ele>289.6666666666667</ele><time>2026-03-28T08:38:42.469Z</time></trkpt><trkpt lat="43.5882117" lon="11.6100083"><ele>289.5</ele><time>2026-03-28T08:38:43.469Z</time></trkpt><trkpt lat="43.5881433" lon="11.6100583"><ele>289.3333333333333</ele><time>2026-03-28T08:38:44.472Z</time></trkpt><trkpt lat="43.58808" lon="11.6101117"><ele>289.16666666666663</ele><time>2026-03-28T08:38:45.47Z</time></trkpt><trkpt lat="43.588" lon="11.61016"><ele>289.0</ele><time>2026-03-28T08:38:46.472Z</time></trkpt><trkpt lat="43.5879317" lon="11.610215"><ele>289.0</ele><time>2026-03-28T08:38:47.468Z</time></trkpt><trkpt lat="43.5878683" lon="11.6102817"><ele>289.0</ele><time>2026-03-28T08:38:48.471Z</time></trkpt><trkpt lat="43.5878083" lon="11.610355"><ele>289.0</ele><time>2026-03-28T08:38:49.471Z</time></trkpt><trkpt lat="43.58776" lon="11.6104383"><ele>289.0</ele><time>2026-03-28T08:38:50.472Z</time></trkpt><trkpt lat="43.587725" lon="11.6105283"><ele>289.0</ele><time>2026-03-28T08:38:51.473Z</time></trkpt><trkpt lat="43.5877017" lon="11.6106217"><ele>289.0</ele><time>2026-03-28T08:38:52.471Z</time></trkpt><trkpt lat="43.58769" lon="11.61072"><ele>288.8571428571429</ele><time>2026-03-28T08:38:53.469Z</time></trkpt><trkpt lat="43.5876933" lon="11.6108167"><ele>288.7142857142857</ele><time>2026-03-28T08:38:54.468Z</time></trkpt><trkpt lat="43.5877183" lon="11.61091"><ele>288.57142857142856</ele><time>2026-03-28T08:38:55.471Z</time></trkpt><trkpt lat="43.58775" lon="11.6109917"><ele>288.42857142857144</ele><time>2026-03-28T08:38:56.47Z</time></trkpt><trkpt lat="43.5878017" lon="11.6110633"><ele>288.2857142857143</ele><time>2026-03-28T08:38:57.468Z</time></trkpt><trkpt lat="43.5878683" lon="11.6111217"><ele>288.14285714285717</ele><time>2026-03-28T08:38:58.471Z</time></trkpt><trkpt lat="43.5879417" lon="11.6111667"><ele>288.0</ele><time>2026-03-28T08:38:59.471Z</time></trkpt><trkpt lat="43.5880183" lon="11.6112083"><ele>287.5</ele><time>2026-03-28T08:39:00.471Z</time></trkpt><trkpt lat="43.5880967" lon="11.6112617"><ele>287.0</ele><time>2026-03-28T08:39:01.47Z</time></trkpt><trkpt lat="43.5881717" lon="11.6113167"><ele>286.5</ele><time>2026-03-28T08:39:02.471Z</time></trkpt><trkpt lat="43.5882483" lon="11.6113683"><ele>286.0</ele><time>2026-03-28T08:39:03.471Z</time></trkpt><trkpt lat="43.5883317" lon="11.6114167"><ele>285.5</ele><time>2026-03-28T08:39:04.47Z</time></trkpt><trkpt lat="43.588415" lon="11.6114617"><ele>285.0</ele><time>2026-03-28T08:39:05.471Z</time></trkpt><trkpt lat="43.5885033" lon="11.6115033"><ele>285.0</ele><time>2026-03-28T08:39:06.471Z</time></trkpt><trkpt lat="43.5885917" lon="11.6115467"><ele>285.0</ele><time>2026-03-28T08:39:07.471Z</time></trkpt><trkpt lat="43.5886833" lon="11.6115933"><ele>285.0</ele><time>2026-03-28T08:39:08.473Z</time></trkpt><trkpt lat="43.58877" lon="11.6116483"><ele>285.0</ele><time>2026-03-28T08:39:09.472Z</time></trkpt><trkpt lat="43.5888533" lon="11.6117167"><ele>285.0</ele><time>2026-03-28T08:39:10.47Z</time></trkpt><trkpt lat="43.58893" lon="11.6117983"><ele>285.4</ele><time>2026-03-28T08:39:11.473Z</time></trkpt><trkpt lat="43.588995" lon="11.6118933"><ele>285.8</ele><time>2026-03-28T08:39:12.47Z</time></trkpt><trkpt lat="43.5890567" lon="11.6119967"><ele>286.2</ele><time>2026-03-28T08:39:13.471Z</time></trkpt><trkpt lat="43.589115" lon="11.6121067"><ele>286.6</ele><time>2026-03-28T08:39:14.471Z</time></trkpt><trkpt lat="43.5891633" lon="11.61222"><ele>287.0</ele><time>2026-03-28T08:39:15.471Z</time></trkpt><trkpt lat="43.5891983" lon="11.6123367"><ele>287.0</ele><time>2026-03-28T08:39:16.471Z</time></trkpt><trkpt lat="43.5892133" lon="11.61245"><ele>287.0</ele><time>2026-03-28T08:39:17.472Z</time></trkpt><trkpt lat="43.589205" lon="11.612565"><ele>287.0</ele><time>2026-03-28T08:39:18.47Z</time></trkpt><trkpt lat="43.5891717" lon="11.6126683"><ele>287.0</ele><time>2026-03-28T08:39:19.47Z</time></trkpt><trkpt lat="43.5891" lon="11.61271"><ele>287.0</ele><time>2026-03-28T08:39:20.47Z</time></trkpt><trkpt lat="43.58903" lon="11.6127283"><ele>287.0</ele><time>2026-03-28T08:39:21.471Z</time></trkpt><trkpt lat="43.5889567" lon="11.61273"><ele>287.0</ele><time>2026-03-28T08:39:22.471Z</time></trkpt><trkpt lat="43.5888867" lon="11.6127367"><ele>287.0</ele><time>2026-03-28T08:39:23.469Z</time></trkpt><trkpt lat="43.5888167" lon="11.612745"><ele>287.0</ele><time>2026-03-28T08:39:24.47Z</time></trkpt><trkpt lat="43.58875" lon="11.612755"><ele>287.0</ele><time>2026-03-28T08:39:25.471Z</time></trkpt><trkpt lat="43.5886867" lon="11.6127683"><ele>287.0</ele><time>2026-03-28T08:39:26.47Z</time></trkpt><trkpt lat="43.58857" lon="11.6127833"><ele>287.0</ele><time>2026-03-28T08:39:28.471Z</time></trkpt><trkpt lat="43.5884617" lon="11.6128133"><ele>288.2</ele><time>2026-03-28T08:39:30.469Z</time></trkpt><trkpt lat="43.58836" lon="11.6128617"><ele>289.4</ele><time>2026-03-28T08:39:32.469Z</time></trkpt><trkpt lat="43.5882717" lon="11.61293"><ele>290.6</ele><time>2026-03-28T08:39:34.47Z</time></trkpt><trkpt lat="43.588195" lon="11.6130267"><ele>291.8</ele><time>2026-03-28T08:39:36.471Z</time></trkpt><trkpt lat="43.5881333" lon="11.61314"><ele>293.0</ele><time>2026-03-28T08:39:38.47Z</time></trkpt><trkpt lat="43.5880883" lon="11.6132633"><ele>293.0</ele><time>2026-03-28T08:39:40.469Z</time></trkpt><trkpt lat="43.58804" lon="11.6133883"><ele>293.0</ele><time>2026-03-28T08:39:42.469Z</time></trkpt><trkpt lat="43.5879967" lon="11.6135167"><ele>293.0</ele><time>2026-03-28T08:39:44.468Z</time></trkpt><trkpt lat="43.5879483" lon="11.613645"><ele>293.0</ele><time>2026-03-28T08:39:46.468Z</time></trkpt><trkpt lat="43.5879083" lon="11.6137717"><ele>293.0</ele><time>2026-03-28T08:39:48.472Z</time></trkpt><trkpt lat="43.5878717" lon="11.613895"><ele>293.6</ele><time>2026-03-28T08:39:50.472Z</time></trkpt><trkpt lat="43.5878283" lon="11.6140183"><ele>294.20000000000005</ele><time>2026-03-28T08:39:52.473Z</time></trkpt><trkpt lat="43.587795" lon="11.614145"><ele>294.8</ele><time>2026-03-28T08:39:54.469Z</time></trkpt><trkpt lat="43.587785" lon="11.614275"><ele>295.40000000000003</ele><time>2026-03-28T08:39:56.472Z</time></trkpt><trkpt lat="43.58778" lon="11.6144067"><ele>296.0</ele><time>2026-03-28T08:39:58.47Z</time></trkpt><trkpt lat="43.58778" lon="11.6145383"><ele>296.2</ele><time>2026-03-28T08:40:00.471Z</time></trkpt><trkpt lat="43.5877767" lon="11.6146717"><ele>296.40000000000003</ele><time>2026-03-28T08:40:02.47Z</time></trkpt><trkpt lat="43.5877733" lon="11.6148117"><ele>296.6</ele><time>2026-03-28T08:40:04.472Z</time></trkpt><trkpt lat="43.58777" lon="11.6149483"><ele>296.8</ele><time>2026-03-28T08:40:06.472Z</time></trkpt><trkpt lat="43.5877667" lon="11.6150833"><ele>297.0</ele><time>2026-03-28T08:40:08.469Z</time></trkpt><trkpt lat="43.5877583" lon="11.6152183"><ele>296.8</ele><time>2026-03-28T08:40:10.47Z</time></trkpt><trkpt lat="43.5877533" lon="11.61536"><ele>296.6</ele><time>2026-03-28T08:40:12.472Z</time></trkpt><trkpt lat="43.5877533" lon="11.6155017"><ele>296.40000000000003</ele><time>2026-03-28T08:40:14.471Z</time></trkpt><trkpt lat="43.5877583" lon="11.615645"><ele>296.2</ele><time>2026-03-28T08:40:16.471Z</time></trkpt><trkpt lat="43.58776" lon="11.6157917"><ele>296.0</ele><time>2026-03-28T08:40:18.47Z</time></trkpt><trkpt lat="43.5877567" lon="11.6159417"><ele>296.0</ele><time>2026-03-28T08:40:20.47Z</time></trkpt><trkpt lat="43.5877667" lon="11.6160933"><ele>296.0</ele><time>2026-03-28T08:40:22.471Z</time></trkpt><trkpt lat="43.58779" lon="11.6162383"><ele>296.0</ele><time>2026-03-28T08:40:24.467Z</time></trkpt><trkpt lat="43.587825" lon="11.6163767"><ele>296.0</ele><time>2026-03-28T08:40:26.472Z</time></trkpt><trkpt lat="43.5878633" lon="11.61652"><ele>296.0</ele><time>2026-03-28T08:40:28.468Z</time></trkpt><trkpt lat="43.5879033" lon="11.6166733"><ele>297.6</ele><time>2026-03-28T08:40:30.472Z</time></trkpt><trkpt lat="43.5879333" lon="11.6168283"><ele>299.20000000000005</ele><time>2026-03-28T08:40:32.473Z</time></trkpt><trkpt lat="43.5879633" lon="11.6169767"><ele>300.79999999999995</ele><time>2026-03-28T08:40:34.47Z</time></trkpt><trkpt lat="43.5879867" lon="11.6171217"><ele>302.4</ele><time>2026-03-28T08:40:36.471Z</time></trkpt><trkpt lat="43.588015" lon="11.617265"><ele>304.0</ele><time>2026-03-28T08:40:38.471Z</time></trkpt><trkpt lat="43.588045" lon="11.6174017"><ele>304.4</ele><time>2026-03-28T08:40:40.474Z</time></trkpt><trkpt lat="43.588075" lon="11.617525"><ele>304.79999999999995</ele><time>2026-03-28T08:40:42.468Z</time></trkpt><trkpt lat="43.5880933" lon="11.6176667"><ele>305.20000000000005</ele><time>2026-03-28T08:40:44.468Z</time></trkpt><trkpt lat="43.5881067" lon="11.617805"><ele>305.6</ele><time>2026-03-28T08:40:46.468Z</time></trkpt><trkpt lat="43.5881067" lon="11.6179317"><ele>306.0</ele><time>2026-03-28T08:40:48.468Z</time></trkpt><trkpt lat="43.588085" lon="11.6180617"><ele>306.40000000000003</ele><time>2026-03-28T08:40:50.471Z</time></trkpt><trkpt lat="43.5880517" lon="11.618195"><ele>306.8</ele><time>2026-03-28T08:40:52.47Z</time></trkpt><trkpt lat="43.5879983" lon="11.6183117"><ele>307.20000000000005</ele><time>2026-03-28T08:40:54.47Z</time></trkpt><trkpt lat="43.5879417" lon="11.618425"><ele>307.6</ele><time>2026-03-28T08:40:56.47Z</time></trkpt><trkpt lat="43.587885" lon="11.6185383"><ele>308.0</ele><time>2026-03-28T08:40:58.472Z</time></trkpt><trkpt lat="43.5878317" lon="11.61865"><ele>308.0</ele><time>2026-03-28T08:41:00.468Z</time></trkpt><trkpt lat="43.5877783" lon="11.61876"><ele>308.0</ele><time>2026-03-28T08:41:02.469Z</time></trkpt><trkpt lat="43.5877183" lon="11.6188683"><ele>308.0</ele><time>2026-03-28T08:41:04.468Z</time></trkpt><trkpt lat="43.5876583" lon="11.6189783"><ele>308.0</ele><time>2026-03-28T08:41:06.469Z</time></trkpt><trkpt lat="43.5875983" lon="11.6191"><ele>308.0</ele><time>2026-03-28T08:41:08.471Z</time></trkpt><trkpt lat="43.58756" lon="11.6192333"><ele>308.0</ele><time>2026-03-28T08:41:10.471Z</time></trkpt><trkpt lat="43.5875367" lon="11.6193833"><ele>308.0</ele><time>2026-03-28T08:41:12.47Z</time></trkpt><trkpt lat="43.587535" lon="11.6195383"><ele>308.0</ele><time>2026-03-28T08:41:14.469Z</time></trkpt><trkpt lat="43.5875333" lon="11.6196933"><ele>308.0</ele><time>2026-03-28T08:41:16.469Z</time></trkpt><trkpt lat="43.58753" lon="11.6198517"><ele>308.5</ele><time>2026-03-28T08:41:18.469Z</time></trkpt><trkpt lat="43.58752" lon="11.62001"><ele>309.0</ele><time>2026-03-28T08:41:20.469Z</time></trkpt><trkpt lat="43.5875017" lon="11.6201667"><ele>309.5</ele><time>2026-03-28T08:41:22.469Z</time></trkpt><trkpt lat="43.5874633" lon="11.6203283"><ele>310.0</ele><time>2026-03-28T08:41:24.469Z</time></trkpt><trkpt lat="43.587425" lon="11.6204883"><ele>310.2</ele><time>2026-03-28T08:41:26.47Z</time></trkpt><trkpt lat="43.58738" lon="11.620645"><ele>310.4</ele><time>2026-03-28T08:41:28.47Z</time></trkpt><trkpt lat="43.5873583" lon="11.6207267"><ele>310.6</ele><time>2026-03-28T08:41:29.471Z</time></trkpt><trkpt lat="43.5873183" lon="11.620885"><ele>310.8</ele><time>2026-03-28T08:41:31.471Z</time></trkpt><trkpt lat="43.587275" lon="11.621045"><ele>311.0</ele><time>2026-03-28T08:41:33.47Z</time></trkpt><trkpt lat="43.5872417" lon="11.6212083"><ele>311.1428571428571</ele><time>2026-03-28T08:41:35.469Z</time></trkpt><trkpt lat="43.587205" lon="11.6213717"><ele>311.28571428571433</ele><time>2026-03-28T08:41:37.47Z</time></trkpt><trkpt lat="43.58719" lon="11.6214567"><ele>311.42857142857144</ele><time>2026-03-28T08:41:38.469Z</time></trkpt><trkpt lat="43.5871767" lon="11.6215433"><ele>311.57142857142856</ele><time>2026-03-28T08:41:39.468Z</time></trkpt><trkpt lat="43.5871667" lon="11.6216317"><ele>311.71428571428567</ele><time>2026-03-28T08:41:40.469Z</time></trkpt><trkpt lat="43.5871583" lon="11.62172"><ele>311.8571428571429</ele><time>2026-03-28T08:41:41.47Z</time></trkpt><trkpt lat="43.587155" lon="11.6218083"><ele>312.0</ele><time>2026-03-28T08:41:42.468Z</time></trkpt><trkpt lat="43.5871517" lon="11.6218967"><ele>311.8333333333333</ele><time>2026-03-28T08:41:43.469Z</time></trkpt><trkpt lat="43.5871483" lon="11.62207"><ele>311.6666666666667</ele><time>2026-03-28T08:41:45.468Z</time></trkpt><trkpt lat="43.5871383" lon="11.6221583"><ele>311.5</ele><time>2026-03-28T08:41:46.469Z</time></trkpt><trkpt lat="43.5871217" lon="11.622245"><ele>311.33333333333337</ele><time>2026-03-28T08:41:47.47Z</time></trkpt><trkpt lat="43.5870967" lon="11.62233"><ele>311.1666666666667</ele><time>2026-03-28T08:41:48.47Z</time></trkpt><trkpt lat="43.5870633" lon="11.6224083"><ele>311.0</ele><time>2026-03-28T08:41:49.47Z</time></trkpt><trkpt lat="43.5870283" lon="11.6224883"><ele>311.0</ele><time>2026-03-28T08:41:50.47Z</time></trkpt><trkpt lat="43.587" lon="11.6225783"><ele>311.0</ele><time>2026-03-28T08:41:51.47Z</time></trkpt><trkpt lat="43.5869933" lon="11.6226717"><ele>311.0</ele><time>2026-03-28T08:41:52.469Z</time></trkpt><trkpt lat="43.5870133" lon="11.6227583"><ele>311.0</ele><time>2026-03-28T08:41:53.47Z</time></trkpt><trkpt lat="43.5870583" lon="11.6228333"><ele>311.0</ele><time>2026-03-28T08:41:54.47Z</time></trkpt><trkpt lat="43.587105" lon="11.6228983"><ele>311.0</ele><time>2026-03-28T08:41:55.47Z</time></trkpt><trkpt lat="43.5871483" lon="11.622965"><ele>311.0</ele><time>2026-03-28T08:41:56.471Z</time></trkpt><trkpt lat="43.5872067" lon="11.6231167"><ele>311.0</ele><time>2026-03-28T08:41:58.471Z</time></trkpt><trkpt lat="43.5872533" lon="11.6232667"><ele>311.0</ele><time>2026-03-28T08:42:00.47Z</time></trkpt><trkpt lat="43.587305" lon="11.6234183"><ele>311.0</ele><time>2026-03-28T08:42:02.471Z</time></trkpt><trkpt lat="43.5873517" lon="11.6235683"><ele>311.0</ele><time>2026-03-28T08:42:04.47Z</time></trkpt><trkpt lat="43.5873817" lon="11.62373"><ele>311.1428571428571</ele><time>2026-03-28T08:42:06.471Z</time></trkpt><trkpt lat="43.5874033" lon="11.6238967"><ele>311.28571428571433</ele><time>2026-03-28T08:42:08.471Z</time></trkpt><trkpt lat="43.587415" lon="11.6239833"><ele>311.42857142857144</ele><time>2026-03-28T08:42:09.471Z</time></trkpt><trkpt lat="43.5874267" lon="11.62407"><ele>311.57142857142856</ele><time>2026-03-28T08:42:10.471Z</time></trkpt><trkpt lat="43.5874367" lon="11.6241567"><ele>311.71428571428567</ele><time>2026-03-28T08:42:11.471Z</time></trkpt><trkpt lat="43.5874483" lon="11.6242433"><ele>311.8571428571429</ele><time>2026-03-28T08:42:12.469Z</time></trkpt><trkpt lat="43.5874567" lon="11.62433"><ele>312.0</ele><time>2026-03-28T08:42:13.469Z</time></trkpt><trkpt lat="43.587485" lon="11.624495"><ele>312.0</ele><time>2026-03-28T08:42:15.469Z</time></trkpt><trkpt lat="43.5875183" lon="11.6246583"><ele>312.0</ele><time>2026-03-28T08:42:17.469Z</time></trkpt><trkpt lat="43.5875583" lon="11.6248183"><ele>312.0</ele><time>2026-03-28T08:42:19.47Z</time></trkpt><trkpt lat="43.587615" lon="11.6249667"><ele>312.0</ele><time>2026-03-28T08:42:21.472Z</time></trkpt><trkpt lat="43.5876817" lon="11.6251033"><ele>312.0</ele><time>2026-03-28T08:42:23.473Z</time></trkpt><trkpt lat="43.5877517" lon="11.6252333"><ele>312.0</ele><time>2026-03-28T08:42:25.469Z</time></trkpt><trkpt lat="43.58782" lon="11.6253583"><ele>312.0</ele><time>2026-03-28T08:42:27.471Z</time></trkpt><trkpt lat="43.58789" lon="11.625485"><ele>312.0</ele><time>2026-03-28T08:42:29.471Z</time></trkpt><trkpt lat="43.58796" lon="11.625615"><ele>313.4</ele><time>2026-03-28T08:42:31.469Z</time></trkpt><trkpt lat="43.5880283" lon="11.6257383"><ele>314.79999999999995</ele><time>2026-03-28T08:42:33.468Z</time></trkpt><trkpt lat="43.588095" lon="11.6258817"><ele>316.2</ele><time>2026-03-28T08:42:35.47Z</time></trkpt><trkpt lat="43.588145" lon="11.6260433"><ele>317.59999999999997</ele><time>2026-03-28T08:42:37.469Z</time></trkpt><trkpt lat="43.5881583" lon="11.62613"><ele>319.0</ele><time>2026-03-28T08:42:38.468Z</time></trkpt><trkpt lat="43.5881583" lon="11.6262217"><ele>319.16666666666663</ele><time>2026-03-28T08:42:39.468Z</time></trkpt><trkpt lat="43.5881517" lon="11.6263083"><ele>319.3333333333333</ele><time>2026-03-28T08:42:40.469Z</time></trkpt><trkpt lat="43.58811" lon="11.626455"><ele>319.5</ele><time>2026-03-28T08:42:42.468Z</time></trkpt><trkpt lat="43.58805" lon="11.6265617"><ele>319.6666666666667</ele><time>2026-03-28T08:42:44.469Z</time></trkpt><trkpt lat="43.58799" lon="11.62665"><ele>319.83333333333337</ele><time>2026-03-28T08:42:46.469Z</time></trkpt><trkpt lat="43.5879383" lon="11.6267217"><ele>320.0</ele><time>2026-03-28T08:42:49.469Z</time></trkpt><trkpt lat="43.5878883" lon="11.6267933"><ele>320.0</ele><time>2026-03-28T08:53:55.468Z</time></trkpt><trkpt lat="43.5878633" lon="11.6268983"><ele>320.0</ele><time>2026-03-28T08:53:59.47Z</time></trkpt><trkpt lat="43.587845" lon="11.6269833"><ele>320.0</ele><time>2026-03-28T08:54:03.471Z</time></trkpt><trkpt lat="43.58785" lon="11.62707"><ele>320.0</ele><time>2026-03-28T08:56:20.471Z</time></trkpt><trkpt lat="43.5879" lon="11.6271417"><ele>320.0</ele><time>2026-03-28T08:56:23.469Z</time></trkpt><trkpt lat="43.5879617" lon="11.6272017"><ele>320.0</ele><time>2026-03-28T08:56:26.468Z</time></trkpt><trkpt lat="43.5880233" lon="11.6272817"><ele>320.0</ele><time>2026-03-28T08:56:29.469Z</time></trkpt><trkpt lat="43.588065" lon="11.6273683"><ele>320.1666666666667</ele><time>2026-03-28T08:56:31.469Z</time></trkpt><trkpt lat="43.5880833" lon="11.6274617"><ele>320.33333333333337</ele><time>2026-03-28T08:56:33.468Z</time></trkpt><trkpt lat="43.58808" lon="11.6275633"><ele>320.5</ele><time>2026-03-28T08:56:35.472Z</time></trkpt><trkpt lat="43.588075" lon="11.6276717"><ele>320.6666666666667</ele><time>2026-03-28T08:56:37.47Z</time></trkpt><trkpt lat="43.588055" lon="11.6277833"><ele>320.8333333333333</ele><time>2026-03-28T08:56:39.469Z</time></trkpt><trkpt lat="43.5880367" lon="11.6279"><ele>321.0</ele><time>2026-03-28T08:56:41.469Z</time></trkpt><trkpt lat="43.5880083" lon="11.6280167"><ele>321.0</ele><time>2026-03-28T08:56:43.47Z</time></trkpt><trkpt lat="43.5879783" lon="11.6281417"><ele>321.0</ele><time>2026-03-28T08:56:45.471Z</time></trkpt><trkpt lat="43.5879467" lon="11.6282883"><ele>321.0</ele><time>2026-03-28T08:56:47.472Z</time></trkpt><trkpt lat="43.587915" lon="11.6284517"><ele>321.0</ele><time>2026-03-28T08:56:49.469Z</time></trkpt><trkpt lat="43.58791" lon="11.6286083"><ele>321.0</ele><time>2026-03-28T08:56:51.467Z</time></trkpt><trkpt lat="43.5879283" lon="11.6286917"><ele>319.1666666666667</ele><time>2026-03-28T08:56:52.469Z</time></trkpt><trkpt lat="43.58795" lon="11.6287767"><ele>317.3333333333333</ele><time>2026-03-28T08:56:53.469Z</time></trkpt><trkpt lat="43.5879833" lon="11.6288683"><ele>315.5</ele><time>2026-03-28T08:56:54.468Z</time></trkpt><trkpt lat="43.5880333" lon="11.628955"><ele>313.66666666666663</ele><time>2026-03-28T08:56:55.471Z</time></trkpt><trkpt lat="43.5880967" lon="11.6290333"><ele>311.8333333333333</ele><time>2026-03-28T08:56:56.47Z</time></trkpt><trkpt lat="43.5881733" lon="11.6291017"><ele>310.0</ele><time>2026-03-28T08:56:57.469Z</time></trkpt><trkpt lat="43.5882617" lon="11.6291567"><ele>310.0</ele><time>2026-03-28T08:56:58.468Z</time></trkpt><trkpt lat="43.5883583" lon="11.6291983"><ele>310.0</ele><time>2026-03-28T08:56:59.469Z</time></trkpt><trkpt lat="43.5884617" lon="11.6292417"><ele>310.0</ele><time>2026-03-28T08:57:00.469Z</time></trkpt><trkpt lat="43.5885667" lon="11.629295"><ele>310.0</ele><time>2026-03-28T08:57:01.47Z</time></trkpt><trkpt lat="43.588675" lon="11.629355"><ele>310.0</ele><time>2026-03-28T08:57:02.472Z</time></trkpt><trkpt lat="43.5887867" lon="11.6294167"><ele>307.0</ele><time>2026-03-28T08:57:03.468Z</time></trkpt><trkpt lat="43.5889033" lon="11.6294783"><ele>304.0</ele><time>2026-03-28T08:57:04.472Z</time></trkpt><trkpt lat="43.5890233" lon="11.6295417"><ele>301.0</ele><time>2026-03-28T08:57:05.47Z</time></trkpt><trkpt lat="43.589145" lon="11.6296033"><ele>298.0</ele><time>2026-03-28T08:57:06.471Z</time></trkpt><trkpt lat="43.58927" lon="11.6296567"><ele>298.0</ele><time>2026-03-28T08:57:07.471Z</time></trkpt><trkpt lat="43.5893983" lon="11.6297033"><ele>298.0</ele><time>2026-03-28T08:57:08.47Z</time></trkpt><trkpt lat="43.5895267" lon="11.629745"><ele>298.0</ele><time>2026-03-28T08:57:09.471Z</time></trkpt><trkpt lat="43.5896533" lon="11.6297917"><ele>298.0</ele><time>2026-03-28T08:57:10.472Z</time></trkpt><trkpt lat="43.5897783" lon="11.6298433"><ele>299.5</ele><time>2026-03-28T08:57:11.469Z</time></trkpt><trkpt lat="43.5899017" lon="11.6299117"><ele>301.0</ele><time>2026-03-28T08:57:12.47Z</time></trkpt><trkpt lat="43.5900167" lon="11.6299967"><ele>302.5</ele><time>2026-03-28T08:57:13.469Z</time></trkpt><trkpt lat="43.590115" lon="11.630105"><ele>304.0</ele><time>2026-03-28T08:57:14.472Z</time></trkpt><trkpt lat="43.590195" lon="11.6302417"><ele>300.5</ele><time>2026-03-28T08:57:15.47Z</time></trkpt><trkpt lat="43.590255" lon="11.6303917"><ele>297.0</ele><time>2026-03-28T08:57:16.47Z</time></trkpt><trkpt lat="43.5902933" lon="11.630545"><ele>293.5</ele><time>2026-03-28T08:57:17.47Z</time></trkpt><trkpt lat="43.5903167" lon="11.6307"><ele>290.0</ele><time>2026-03-28T08:57:18.471Z</time></trkpt><trkpt lat="43.5903283" lon="11.6308483"><ele>290.0</ele><time>2026-03-28T08:57:19.47Z</time></trkpt><trkpt lat="43.5903267" lon="11.63099"><ele>290.0</ele><time>2026-03-28T08:57:20.47Z</time></trkpt><trkpt lat="43.5903183" lon="11.6311233"><ele>290.0</ele><time>2026-03-28T08:57:21.471Z</time></trkpt><trkpt lat="43.5903083" lon="11.6312433"><ele>290.0</ele><time>2026-03-28T08:57:22.472Z</time></trkpt><trkpt lat="43.5902983" lon="11.6313567"><ele>290.0</ele><time>2026-03-28T08:57:23.471Z</time></trkpt><trkpt lat="43.59029" lon="11.631465"><ele>290.0</ele><time>2026-03-28T08:57:24.473Z</time></trkpt><trkpt lat="43.5902817" lon="11.63157"><ele>290.33333333333337</ele><time>2026-03-28T08:57:25.472Z</time></trkpt><trkpt lat="43.5902717" lon="11.63167"><ele>290.6666666666667</ele><time>2026-03-28T08:57:26.471Z</time></trkpt><trkpt lat="43.5902617" lon="11.6317667"><ele>291.0</ele><time>2026-03-28T08:57:27.47Z</time></trkpt><trkpt lat="43.5902467" lon="11.6318567"><ele>291.3333333333333</ele><time>2026-03-28T08:57:28.471Z</time></trkpt><trkpt lat="43.5902183" lon="11.6319367"><ele>291.66666666666663</ele><time>2026-03-28T08:57:29.472Z</time></trkpt><trkpt lat="43.590155" lon="11.6320733"><ele>292.0</ele><time>2026-03-28T08:57:31.471Z</time></trkpt><trkpt lat="43.5900767" lon="11.632185"><ele>295.4</ele><time>2026-03-28T08:57:33.471Z</time></trkpt><trkpt lat="43.589985" lon="11.63227"><ele>298.79999999999995</ele><time>2026-03-28T08:57:35.47Z</time></trkpt><trkpt lat="43.5899" lon="11.6323517"><ele>302.2</ele><time>2026-03-28T08:57:37.47Z</time></trkpt><trkpt lat="43.5898167" lon="11.63244"><ele>305.59999999999997</ele><time>2026-03-28T08:57:39.471Z</time></trkpt><trkpt lat="43.5897133" lon="11.63251"><ele>309.0</ele><time>2026-03-28T08:57:41.47Z</time></trkpt><trkpt lat="43.5896017" lon="11.6325517"><ele>307.8</ele><time>2026-03-28T08:57:43.472Z</time></trkpt><trkpt lat="43.5894883" lon="11.632595"><ele>306.59999999999997</ele><time>2026-03-28T08:57:45.471Z</time></trkpt><trkpt lat="43.5893683" lon="11.6326333"><ele>305.4</ele><time>2026-03-28T08:57:47.468Z</time></trkpt><trkpt lat="43.589245" lon="11.6326367"><ele>304.2</ele><time>2026-03-28T08:57:49.47Z</time></trkpt><trkpt lat="43.5891833" lon="11.6326183"><ele>303.0</ele><time>2026-03-28T08:57:50.471Z</time></trkpt><trkpt lat="43.589075" lon="11.6325683"><ele>303.0</ele><time>2026-03-28T08:57:52.471Z</time></trkpt><trkpt lat="43.58897" lon="11.6325317"><ele>303.0</ele><time>2026-03-28T08:57:54.472Z</time></trkpt><trkpt lat="43.5888583" lon="11.6325133"><ele>303.0</ele><time>2026-03-28T08:57:56.471Z</time></trkpt><trkpt lat="43.5887517" lon="11.632515"><ele>303.0</ele><time>2026-03-28T08:57:58.469Z</time></trkpt><trkpt lat="43.5886417" lon="11.632535"><ele>303.0</ele><time>2026-03-28T08:58:00.471Z</time></trkpt><trkpt lat="43.5885333" lon="11.6325617"><ele>302.4</ele><time>2026-03-28T08:58:02.472Z</time></trkpt><trkpt lat="43.5884233" lon="11.63259"><ele>301.8</ele><time>2026-03-28T08:58:04.468Z</time></trkpt><trkpt lat="43.5883183" lon="11.6326183"><ele>301.2</ele><time>2026-03-28T08:58:06.468Z</time></trkpt><trkpt lat="43.588215" lon="11.6326567"><ele>300.6</ele><time>2026-03-28T08:58:08.472Z</time></trkpt><trkpt lat="43.588105" lon="11.6326833"><ele>300.0</ele><time>2026-03-28T08:58:10.47Z</time></trkpt><trkpt lat="43.5879933" lon="11.6326983"><ele>300.0</ele><time>2026-03-28T08:58:12.472Z</time></trkpt><trkpt lat="43.587875" lon="11.6327133"><ele>300.0</ele><time>2026-03-28T08:58:14.471Z</time></trkpt><trkpt lat="43.587765" lon="11.63274"><ele>300.0</ele><time>2026-03-28T08:58:16.471Z</time></trkpt><trkpt lat="43.5876517" lon="11.6327683"><ele>300.0</ele><time>2026-03-28T08:58:18.47Z</time></trkpt><trkpt lat="43.5875433" lon="11.6328033"><ele>303.2</ele><time>2026-03-28T08:58:20.471Z</time></trkpt><trkpt lat="43.58744" lon="11.63285"><ele>306.4</ele><time>2026-03-28T08:58:22.47Z</time></trkpt><trkpt lat="43.58734" lon="11.6329167"><ele>309.6</ele><time>2026-03-28T08:58:24.469Z</time></trkpt><trkpt lat="43.5872467" lon="11.6329983"><ele>312.8</ele><time>2026-03-28T08:58:26.471Z</time></trkpt><trkpt lat="43.58716" lon="11.6330867"><ele>316.0</ele><time>2026-03-28T08:58:28.472Z</time></trkpt><trkpt lat="43.5870867" lon="11.6331867"><ele>316.0</ele><time>2026-03-28T08:58:30.469Z</time></trkpt><trkpt lat="43.5870167" lon="11.6332967"><ele>316.0</ele><time>2026-03-28T08:58:32.469Z</time></trkpt><trkpt lat="43.58696" lon="11.633415"><ele>316.0</ele><time>2026-03-28T08:58:34.469Z</time></trkpt><trkpt lat="43.5869233" lon="11.6335383"><ele>316.0</ele><time>2026-03-28T08:58:36.469Z</time></trkpt><trkpt lat="43.586895" lon="11.63367"><ele>316.0</ele><time>2026-03-28T08:58:38.47Z</time></trkpt><trkpt lat="43.586865" lon="11.6338017"><ele>316.8</ele><time>2026-03-28T08:58:40.47Z</time></trkpt><trkpt lat="43.586845" lon="11.6339317"><ele>317.6</ele><time>2026-03-28T08:58:42.469Z</time></trkpt><trkpt lat="43.586825" lon="11.6340583"><ele>318.4</ele><time>2026-03-28T08:58:44.471Z</time></trkpt><trkpt lat="43.586785" lon="11.6341717"><ele>319.2</ele><time>2026-03-28T08:58:46.469Z</time></trkpt><trkpt lat="43.5867217" lon="11.6342717"><ele>320.0</ele><time>2026-03-28T08:58:48.47Z</time></trkpt><trkpt lat="43.586645" lon="11.6343533"><ele>320.0</ele><time>2026-03-28T08:58:50.473Z</time></trkpt><trkpt lat="43.58655" lon="11.6344067"><ele>320.0</ele><time>2026-03-28T08:58:52.47Z</time></trkpt><trkpt lat="43.5864483" lon="11.6344383"><ele>320.0</ele><time>2026-03-28T08:58:54.471Z</time></trkpt><trkpt lat="43.5863283" lon="11.6344383"><ele>320.0</ele><time>2026-03-28T08:58:56.472Z</time></trkpt><trkpt lat="43.5862067" lon="11.6344"><ele>320.1428571428571</ele><time>2026-03-28T08:58:58.47Z</time></trkpt><trkpt lat="43.586145" lon="11.6343767"><ele>320.2857142857143</ele><time>2026-03-28T08:58:59.469Z</time></trkpt><trkpt lat="43.58608" lon="11.6343533"><ele>320.42857142857144</ele><time>2026-03-28T08:59:00.472Z</time></trkpt><trkpt lat="43.5860183" lon="11.6343283"><ele>320.57142857142856</ele><time>2026-03-28T08:59:01.471Z</time></trkpt><trkpt lat="43.58595" lon="11.6343"><ele>320.7142857142857</ele><time>2026-03-28T08:59:02.471Z</time></trkpt><trkpt lat="43.5858817" lon="11.634275"><ele>320.85714285714283</ele><time>2026-03-28T08:59:03.469Z</time></trkpt><trkpt lat="43.5858117" lon="11.6342467"><ele>321.0</ele><time>2026-03-28T08:59:04.471Z</time></trkpt><trkpt lat="43.5857383" lon="11.6342183"><ele>321.0</ele><time>2026-03-28T08:59:05.473Z</time></trkpt><trkpt lat="43.5856633" lon="11.6341867"><ele>321.0</ele><time>2026-03-28T08:59:06.471Z</time></trkpt><trkpt lat="43.5855883" lon="11.6341567"><ele>321.0</ele><time>2026-03-28T08:59:07.47Z</time></trkpt><trkpt lat="43.58551" lon="11.6341283"><ele>321.0</ele><time>2026-03-28T08:59:08.472Z</time></trkpt><trkpt lat="43.5854283" lon="11.6341"><ele>321.0</ele><time>2026-03-28T08:59:09.472Z</time></trkpt><trkpt lat="43.585345" lon="11.63407"><ele>321.0</ele><time>2026-03-28T08:59:10.47Z</time></trkpt><trkpt lat="43.5852617" lon="11.6340383"><ele>321.1666666666667</ele><time>2026-03-28T08:59:11.471Z</time></trkpt><trkpt lat="43.585175" lon="11.6340083"><ele>321.3333333333333</ele><time>2026-03-28T08:59:12.473Z</time></trkpt><trkpt lat="43.5850883" lon="11.6339783"><ele>321.5</ele><time>2026-03-28T08:59:13.471Z</time></trkpt><trkpt lat="43.5850033" lon="11.6339467"><ele>321.66666666666663</ele><time>2026-03-28T08:59:14.472Z</time></trkpt><trkpt lat="43.5849167" lon="11.6339167"><ele>321.8333333333333</ele><time>2026-03-28T08:59:15.472Z</time></trkpt><trkpt lat="43.58483" lon="11.6338833"><ele>322.0</ele><time>2026-03-28T08:59:16.47Z</time></trkpt><trkpt lat="43.58474" lon="11.6338517"><ele>322.0</ele><time>2026-03-28T08:59:17.47Z</time></trkpt><trkpt lat="43.58465" lon="11.6338183"><ele>322.0</ele><time>2026-03-28T08:59:18.472Z</time></trkpt><trkpt lat="43.5845583" lon="11.6337833"><ele>322.0</ele><time>2026-03-28T08:59:19.472Z</time></trkpt><trkpt lat="43.584465" lon="11.633745"><ele>322.0</ele><time>2026-03-28T08:59:20.471Z</time></trkpt><trkpt lat="43.58437" lon="11.6337083"><ele>322.0</ele><time>2026-03-28T08:59:21.472Z</time></trkpt><trkpt lat="43.584275" lon="11.6336733"><ele>319.8</ele><time>2026-03-28T08:59:22.469Z</time></trkpt><trkpt lat="43.5841767" lon="11.6336333"><ele>317.6</ele><time>2026-03-28T08:59:23.472Z</time></trkpt><trkpt lat="43.5840783" lon="11.6335967"><ele>315.40000000000003</ele><time>2026-03-28T08:59:24.473Z</time></trkpt><trkpt lat="43.5839783" lon="11.6335633"><ele>313.20000000000005</ele><time>2026-03-28T08:59:25.471Z</time></trkpt><trkpt lat="43.5838817" lon="11.63353"><ele>311.0</ele><time>2026-03-28T08:59:26.471Z</time></trkpt><trkpt lat="43.5837817" lon="11.6335017"><ele>311.0</ele><time>2026-03-28T08:59:27.471Z</time></trkpt><trkpt lat="43.5836833" lon="11.6334783"><ele>311.0</ele><time>2026-03-28T08:59:28.472Z</time></trkpt><trkpt lat="43.5835833" lon="11.6334567"><ele>311.0</ele><time>2026-03-28T08:59:29.472Z</time></trkpt><trkpt lat="43.5834883" lon="11.6334417"><ele>311.0</ele><time>2026-03-28T08:59:30.471Z</time></trkpt><trkpt lat="43.5833917" lon="11.633425"><ele>311.0</ele><time>2026-03-28T08:59:31.471Z</time></trkpt><trkpt lat="43.5832917" lon="11.63341"><ele>310.8</ele><time>2026-03-28T08:59:32.471Z</time></trkpt><trkpt lat="43.5831967" lon="11.6334"><ele>310.6</ele><time>2026-03-28T08:59:33.474Z</time></trkpt><trkpt lat="43.5831033" lon="11.63339"><ele>310.4</ele><time>2026-03-28T08:59:34.47Z</time></trkpt><trkpt lat="43.5830133" lon="11.63338"><ele>310.2</ele><time>2026-03-28T08:59:35.471Z</time></trkpt><trkpt lat="43.5829233" lon="11.6333683"><ele>310.0</ele><time>2026-03-28T08:59:36.472Z</time></trkpt><trkpt lat="43.582835" lon="11.63336"><ele>310.3333333333333</ele><time>2026-03-28T08:59:37.471Z</time></trkpt><trkpt lat="43.58275" lon="11.6333533"><ele>310.66666666666663</ele><time>2026-03-28T08:59:38.471Z</time></trkpt><trkpt lat="43.5826667" lon="11.6333517"><ele>311.0</ele><time>2026-03-28T08:59:39.472Z</time></trkpt><trkpt lat="43.5825833" lon="11.633355"><ele>311.3333333333333</ele><time>2026-03-28T08:59:40.47Z</time></trkpt><trkpt lat="43.5825" lon="11.6333683"><ele>311.6666666666667</ele><time>2026-03-28T08:59:41.47Z</time></trkpt><trkpt lat="43.582415" lon="11.633395"><ele>312.0</ele><time>2026-03-28T08:59:42.473Z</time></trkpt><trkpt lat="43.58234" lon="11.633435"><ele>312.0</ele><time>2026-03-28T08:59:43.47Z</time></trkpt><trkpt lat="43.5822717" lon="11.6334867"><ele>312.0</ele><time>2026-03-28T08:59:44.471Z</time></trkpt><trkpt lat="43.5822083" lon="11.6335517"><ele>312.0</ele><time>2026-03-28T08:59:45.47Z</time></trkpt><trkpt lat="43.582155" lon="11.6336317"><ele>312.0</ele><time>2026-03-28T08:59:46.473Z</time></trkpt><trkpt lat="43.5821083" lon="11.6337217"><ele>312.0</ele><time>2026-03-28T08:59:47.474Z</time></trkpt><trkpt lat="43.5820667" lon="11.633815"><ele>312.0</ele><time>2026-03-28T08:59:48.472Z</time></trkpt><trkpt lat="43.582015" lon="11.6339067"><ele>313.5</ele><time>2026-03-28T08:59:49.47Z</time></trkpt><trkpt lat="43.58196" lon="11.6339917"><ele>315.0</ele><time>2026-03-28T08:59:50.471Z</time></trkpt><trkpt lat="43.5818983" lon="11.6340617"><ele>316.5</ele><time>2026-03-28T08:59:51.471Z</time></trkpt><trkpt lat="43.5818267" lon="11.6341133"><ele>318.0</ele><time>2026-03-28T08:59:52.472Z</time></trkpt><trkpt lat="43.5817517" lon="11.63413"><ele>319.5</ele><time>2026-03-28T08:59:53.47Z</time></trkpt><trkpt lat="43.581675" lon="11.6341283"><ele>321.0</ele><time>2026-03-28T08:59:54.47Z</time></trkpt><trkpt lat="43.5815983" lon="11.6341167"><ele>320.99999999999994</ele><time>2026-03-28T08:59:55.472Z</time></trkpt><trkpt lat="43.581515" lon="11.634095"><ele>321.0</ele><time>2026-03-28T08:59:56.472Z</time></trkpt><trkpt lat="43.5814417" lon="11.634075"><ele>321.0</ele><time>2026-03-28T08:59:57.471Z</time></trkpt><trkpt lat="43.58137" lon="11.634065"><ele>321.0</ele><time>2026-03-28T08:59:58.472Z</time></trkpt><trkpt lat="43.5813" lon="11.6340767"><ele>321.0</ele><time>2026-03-28T08:59:59.47Z</time></trkpt><trkpt lat="43.58123" lon="11.6341017"><ele>320.99999999999994</ele><time>2026-03-28T09:00:00.469Z</time></trkpt><trkpt lat="43.5811667" lon="11.6341283"><ele>321.0</ele><time>2026-03-28T09:00:01.468Z</time></trkpt><trkpt lat="43.581105" lon="11.6341683"><ele>321.57142857142856</ele><time>2026-03-28T09:00:02.469Z</time></trkpt><trkpt lat="43.5810467" lon="11.63423"><ele>322.1428571428571</ele><time>2026-03-28T09:00:03.469Z</time></trkpt><trkpt lat="43.58099" lon="11.6342983"><ele>322.71428571428567</ele><time>2026-03-28T09:00:04.469Z</time></trkpt><trkpt lat="43.5809333" lon="11.63436"><ele>323.2857142857143</ele><time>2026-03-28T09:00:05.47Z</time></trkpt><trkpt lat="43.5808717" lon="11.63442"><ele>323.8571428571429</ele><time>2026-03-28T09:00:06.468Z</time></trkpt><trkpt lat="43.5808117" lon="11.634475"><ele>324.4285714285714</ele><time>2026-03-28T09:00:07.469Z</time></trkpt><trkpt lat="43.580755" lon="11.6345333"><ele>325.0</ele><time>2026-03-28T09:00:08.469Z</time></trkpt><trkpt lat="43.5807" lon="11.6345917"><ele>325.0</ele><time>2026-03-28T09:00:09.472Z</time></trkpt><trkpt lat="43.5806467" lon="11.63465"><ele>325.0</ele><time>2026-03-28T09:00:10.469Z</time></trkpt><trkpt lat="43.58059" lon="11.63471"><ele>325.0</ele><time>2026-03-28T09:00:11.471Z</time></trkpt><trkpt lat="43.5805333" lon="11.63477"><ele>325.0</ele><time>2026-03-28T09:00:12.471Z</time></trkpt><trkpt lat="43.5804733" lon="11.6348267"><ele>325.0</ele><time>2026-03-28T09:00:13.469Z</time></trkpt><trkpt lat="43.580415" lon="11.6348867"><ele>325.0</ele><time>2026-03-28T09:00:14.47Z</time></trkpt><trkpt lat="43.5803583" lon="11.634945"><ele>325.0</ele><time>2026-03-28T09:00:15.47Z</time></trkpt><trkpt lat="43.580305" lon="11.6350033"><ele>324.4285714285714</ele><time>2026-03-28T09:00:16.471Z</time></trkpt><trkpt lat="43.580255" lon="11.6350583"><ele>323.8571428571429</ele><time>2026-03-28T09:00:17.469Z</time></trkpt><trkpt lat="43.5802" lon="11.6351167"><ele>323.2857142857143</ele><time>2026-03-28T09:00:18.471Z</time></trkpt><trkpt lat="43.580145" lon="11.6351767"><ele>322.71428571428567</ele><time>2026-03-28T09:00:19.472Z</time></trkpt><trkpt lat="43.580095" lon="11.6352383"><ele>322.1428571428571</ele><time>2026-03-28T09:00:20.472Z</time></trkpt><trkpt lat="43.580045" lon="11.6353033"><ele>321.57142857142856</ele><time>2026-03-28T09:00:21.469Z</time></trkpt><trkpt lat="43.579995" lon="11.6353717"><ele>321.0</ele><time>2026-03-28T09:00:22.472Z</time></trkpt><trkpt lat="43.5799467" lon="11.635445"><ele>320.99999999999994</ele><time>2026-03-28T09:00:23.471Z</time></trkpt><trkpt lat="43.5798967" lon="11.6355183"><ele>321.0</ele><time>2026-03-28T09:00:24.473Z</time></trkpt><trkpt lat="43.5798483" lon="11.6355917"><ele>321.0</ele><time>2026-03-28T09:00:25.471Z</time></trkpt><trkpt lat="43.5798033" lon="11.63567"><ele>321.0</ele><time>2026-03-28T09:00:26.471Z</time></trkpt><trkpt lat="43.57976" lon="11.63575"><ele>321.0</ele><time>2026-03-28T09:00:27.47Z</time></trkpt><trkpt lat="43.5797183" lon="11.6358333"><ele>320.99999999999994</ele><time>2026-03-28T09:00:28.471Z</time></trkpt><trkpt lat="43.5796783" lon="11.6359167"><ele>321.0</ele><time>2026-03-28T09:00:29.472Z</time></trkpt><trkpt lat="43.5796367" lon="11.636"><ele>321.0</ele><time>2026-03-28T09:00:30.472Z</time></trkpt><trkpt lat="43.579595" lon="11.636085"><ele>321.0</ele><time>2026-03-28T09:00:31.474Z</time></trkpt><trkpt lat="43.5795517" lon="11.6361717"><ele>321.0</ele><time>2026-03-28T09:00:32.473Z</time></trkpt><trkpt lat="43.5795067" lon="11.636255"><ele>321.0</ele><time>2026-03-28T09:00:33.472Z</time></trkpt><trkpt lat="43.57946" lon="11.6363367"><ele>321.0</ele><time>2026-03-28T09:00:34.471Z</time></trkpt><trkpt lat="43.579415" lon="11.63642"><ele>321.0</ele><time>2026-03-28T09:00:35.472Z</time></trkpt><trkpt lat="43.57937" lon="11.6365067"><ele>320.6666666666667</ele><time>2026-03-28T09:00:36.472Z</time></trkpt><trkpt lat="43.5793283" lon="11.6365933"><ele>320.3333333333333</ele><time>2026-03-28T09:00:37.471Z</time></trkpt><trkpt lat="43.5792833" lon="11.6366833"><ele>320.0</ele><time>2026-03-28T09:00:38.472Z</time></trkpt><trkpt lat="43.5792383" lon="11.6367767"><ele>319.66666666666663</ele><time>2026-03-28T09:00:39.471Z</time></trkpt><trkpt lat="43.5791967" lon="11.6368733"><ele>319.3333333333333</ele><time>2026-03-28T09:00:40.473Z</time></trkpt><trkpt lat="43.57916" lon="11.6369767"><ele>319.0</ele><time>2026-03-28T09:00:41.472Z</time></trkpt><trkpt lat="43.5791267" lon="11.6370833"><ele>319.0</ele><time>2026-03-28T09:00:42.472Z</time></trkpt><trkpt lat="43.5790983" lon="11.63719"><ele>319.0</ele><time>2026-03-28T09:00:43.472Z</time></trkpt><trkpt lat="43.5790667" lon="11.6373017"><ele>319.0</ele><time>2026-03-28T09:00:44.473Z</time></trkpt><trkpt lat="43.5790383" lon="11.637415"><ele>319.0</ele><time>2026-03-28T09:00:45.471Z</time></trkpt><trkpt lat="43.5790117" lon="11.6375283"><ele>319.0</ele><time>2026-03-28T09:00:46.472Z</time></trkpt><trkpt lat="43.5789867" lon="11.63764"><ele>319.0</ele><time>2026-03-28T09:00:47.472Z</time></trkpt><trkpt lat="43.57896" lon="11.637755"><ele>319.5</ele><time>2026-03-28T09:00:48.471Z</time></trkpt><trkpt lat="43.5789333" lon="11.6378667"><ele>320.0</ele><time>2026-03-28T09:00:49.471Z</time></trkpt><trkpt lat="43.5789067" lon="11.6379783"><ele>320.5</ele><time>2026-03-28T09:00:50.471Z</time></trkpt><trkpt lat="43.5788817" lon="11.63809"><ele>321.0</ele><time>2026-03-28T09:00:51.47Z</time></trkpt><trkpt lat="43.5788633" lon="11.638205"><ele>321.5</ele><time>2026-03-28T09:00:52.471Z</time></trkpt><trkpt lat="43.5788433" lon="11.6383217"><ele>322.0</ele><time>2026-03-28T09:00:53.471Z</time></trkpt><trkpt lat="43.5788217" lon="11.6384367"><ele>322.0</ele><time>2026-03-28T09:00:54.471Z</time></trkpt><trkpt lat="43.5787967" lon="11.6385483"><ele>322.0</ele><time>2026-03-28T09:00:55.47Z</time></trkpt><trkpt lat="43.5787733" lon="11.63866"><ele>322.0</ele><time>2026-03-28T09:00:56.472Z</time></trkpt><trkpt lat="43.57875" lon="11.6387733"><ele>322.0</ele><time>2026-03-28T09:00:57.47Z</time></trkpt><trkpt lat="43.5787283" lon="11.6388883"><ele>322.0</ele><time>2026-03-28T09:00:58.472Z</time></trkpt><trkpt lat="43.5787033" lon="11.6390017"><ele>322.0</ele><time>2026-03-28T09:00:59.47Z</time></trkpt><trkpt lat="43.5786767" lon="11.639115"><ele>320.16666666666663</ele><time>2026-03-28T09:01:00.472Z</time></trkpt><trkpt lat="43.5786517" lon="11.6392267"><ele>318.3333333333333</ele><time>2026-03-28T09:01:01.472Z</time></trkpt><trkpt lat="43.5786267" lon="11.6393383"><ele>316.5</ele><time>2026-03-28T09:01:02.471Z</time></trkpt><trkpt lat="43.5785983" lon="11.63945"><ele>314.6666666666667</ele><time>2026-03-28T09:01:03.473Z</time></trkpt><trkpt lat="43.57857" lon="11.6395617"><ele>312.83333333333337</ele><time>2026-03-28T09:01:04.469Z</time></trkpt><trkpt lat="43.5785467" lon="11.6396733"><ele>311.0</ele><time>2026-03-28T09:01:05.472Z</time></trkpt><trkpt lat="43.5785217" lon="11.639785"><ele>311.0</ele><time>2026-03-28T09:01:06.472Z</time></trkpt><trkpt lat="43.5784967" lon="11.639895"><ele>311.0</ele><time>2026-03-28T09:01:07.473Z</time></trkpt><trkpt lat="43.5784733" lon="11.6400033"><ele>311.0</ele><time>2026-03-28T09:01:08.471Z</time></trkpt><trkpt lat="43.5784483" lon="11.6401133"><ele>311.0</ele><time>2026-03-28T09:01:09.471Z</time></trkpt><trkpt lat="43.5784217" lon="11.6402233"><ele>311.0</ele><time>2026-03-28T09:01:10.472Z</time></trkpt><trkpt lat="43.5783983" lon="11.6403317"><ele>311.0</ele><time>2026-03-28T09:01:11.472Z</time></trkpt><trkpt lat="43.578375" lon="11.6404417"><ele>311.5</ele><time>2026-03-28T09:01:12.47Z</time></trkpt><trkpt lat="43.57835" lon="11.6405483"><ele>312.0</ele><time>2026-03-28T09:01:13.471Z</time></trkpt><trkpt lat="43.5783233" lon="11.640655"><ele>312.5</ele><time>2026-03-28T09:01:14.473Z</time></trkpt><trkpt lat="43.5783" lon="11.6407633"><ele>313.0</ele><time>2026-03-28T09:01:15.471Z</time></trkpt><trkpt lat="43.5782767" lon="11.6408717"><ele>313.5</ele><time>2026-03-28T09:01:16.471Z</time></trkpt><trkpt lat="43.578255" lon="11.64098"><ele>314.0</ele><time>2026-03-28T09:01:17.472Z</time></trkpt><trkpt lat="43.578235" lon="11.641085"><ele>314.5</ele><time>2026-03-28T09:01:18.471Z</time></trkpt><trkpt lat="43.5782217" lon="11.6411917"><ele>315.0</ele><time>2026-03-28T09:01:19.47Z</time></trkpt><trkpt lat="43.5782167" lon="11.6412983"><ele>315.5</ele><time>2026-03-28T09:01:20.474Z</time></trkpt><trkpt lat="43.5782217" lon="11.641405"><ele>316.0</ele><time>2026-03-28T09:01:21.473Z</time></trkpt><trkpt lat="43.5782317" lon="11.6415133"><ele>316.5</ele><time>2026-03-28T09:01:22.47Z</time></trkpt><trkpt lat="43.578245" lon="11.6416167"><ele>317.0</ele><time>2026-03-28T09:01:23.473Z</time></trkpt><trkpt lat="43.5782583" lon="11.6417233"><ele>317.0</ele><time>2026-03-28T09:01:24.472Z</time></trkpt><trkpt lat="43.5782667" lon="11.6418333"><ele>317.0</ele><time>2026-03-28T09:01:25.471Z</time></trkpt><trkpt lat="43.5782667" lon="11.64194"><ele>317.0</ele><time>2026-03-28T09:01:26.471Z</time></trkpt><trkpt lat="43.5782467" lon="11.6420417"><ele>317.0</ele><time>2026-03-28T09:01:27.472Z</time></trkpt><trkpt lat="43.57821" lon="11.6421333"><ele>317.0</ele><time>2026-03-28T09:01:28.472Z</time></trkpt><trkpt lat="43.5781583" lon="11.642215"><ele>317.0</ele><time>2026-03-28T09:01:29.47Z</time></trkpt><trkpt lat="43.5780983" lon="11.6422767"><ele>316.6666666666667</ele><time>2026-03-28T09:01:30.47Z</time></trkpt><trkpt lat="43.5780367" lon="11.6423283"><ele>316.33333333333337</ele><time>2026-03-28T09:01:31.472Z</time></trkpt><trkpt lat="43.57797" lon="11.64237"><ele>316.0</ele><time>2026-03-28T09:01:32.473Z</time></trkpt><trkpt lat="43.5778933" lon="11.6424"><ele>315.6666666666667</ele><time>2026-03-28T09:01:33.471Z</time></trkpt><trkpt lat="43.5778133" lon="11.6424183"><ele>315.3333333333333</ele><time>2026-03-28T09:01:34.471Z</time></trkpt><trkpt lat="43.577735" lon="11.6424317"><ele>315.0</ele><time>2026-03-28T09:01:35.471Z</time></trkpt><trkpt lat="43.577655" lon="11.6424417"><ele>315.0</ele><time>2026-03-28T09:01:36.472Z</time></trkpt><trkpt lat="43.5775733" lon="11.6424467"><ele>315.0</ele><time>2026-03-28T09:01:37.471Z</time></trkpt><trkpt lat="43.57749" lon="11.6424517"><ele>315.0</ele><time>2026-03-28T09:01:38.472Z</time></trkpt><trkpt lat="43.5774067" lon="11.6424517"><ele>315.0</ele><time>2026-03-28T09:01:39.472Z</time></trkpt><trkpt lat="43.5773267" lon="11.6424483"><ele>315.0</ele><time>2026-03-28T09:01:40.472Z</time></trkpt><trkpt lat="43.5772433" lon="11.6424433"><ele>315.0</ele><time>2026-03-28T09:01:41.472Z</time></trkpt><trkpt lat="43.577165" lon="11.6424383"><ele>315.0</ele><time>2026-03-28T09:01:42.471Z</time></trkpt><trkpt lat="43.577085" lon="11.6424333"><ele>315.0</ele><time>2026-03-28T09:01:43.474Z</time></trkpt><trkpt lat="43.5770033" lon="11.6424333"><ele>315.0</ele><time>2026-03-28T09:01:44.472Z</time></trkpt><trkpt lat="43.5769217" lon="11.6424433"><ele>315.0</ele><time>2026-03-28T09:01:45.47Z</time></trkpt><trkpt lat="43.57684" lon="11.642465"><ele>315.0</ele><time>2026-03-28T09:01:46.472Z</time></trkpt><trkpt lat="43.576755" lon="11.6424983"><ele>315.0</ele><time>2026-03-28T09:01:47.472Z</time></trkpt><trkpt lat="43.5766733" lon="11.6425417"><ele>314.2</ele><time>2026-03-28T09:01:48.473Z</time></trkpt><trkpt lat="43.5765883" lon="11.6425867"><ele>313.4</ele><time>2026-03-28T09:01:49.472Z</time></trkpt><trkpt lat="43.5765" lon="11.64263"><ele>312.6</ele><time>2026-03-28T09:01:50.473Z</time></trkpt><trkpt lat="43.5764117" lon="11.6426733"><ele>311.8</ele><time>2026-03-28T09:01:51.472Z</time></trkpt><trkpt lat="43.5763267" lon="11.64272"><ele>311.0</ele><time>2026-03-28T09:01:52.47Z</time></trkpt><trkpt lat="43.57624" lon="11.64277"><ele>312.1666666666667</ele><time>2026-03-28T09:01:53.472Z</time></trkpt><trkpt lat="43.5761567" lon="11.642815"><ele>313.33333333333337</ele><time>2026-03-28T09:01:54.472Z</time></trkpt><trkpt lat="43.57607" lon="11.6428583"><ele>314.5</ele><time>2026-03-28T09:01:55.473Z</time></trkpt><trkpt lat="43.575985" lon="11.642895"><ele>315.6666666666667</ele><time>2026-03-28T09:01:56.472Z</time></trkpt><trkpt lat="43.5759033" lon="11.642935"><ele>316.8333333333333</ele><time>2026-03-28T09:01:57.472Z</time></trkpt><trkpt lat="43.575825" lon="11.642985"><ele>318.0</ele><time>2026-03-28T09:01:58.472Z</time></trkpt><trkpt lat="43.575755" lon="11.6430383"><ele>318.0</ele><time>2026-03-28T09:01:59.472Z</time></trkpt><trkpt lat="43.5756917" lon="11.6431017"><ele>318.0</ele><time>2026-03-28T09:02:00.472Z</time></trkpt><trkpt lat="43.5756333" lon="11.6431767"><ele>318.0</ele><time>2026-03-28T09:02:01.472Z</time></trkpt><trkpt lat="43.5755833" lon="11.6432633"><ele>318.0</ele><time>2026-03-28T09:02:02.471Z</time></trkpt><trkpt lat="43.5755417" lon="11.6433517"><ele>318.0</ele><time>2026-03-28T09:02:03.472Z</time></trkpt><trkpt lat="43.5755017" lon="11.643435"><ele>318.0</ele><time>2026-03-28T09:02:04.472Z</time></trkpt><trkpt lat="43.57546" lon="11.643515"><ele>318.0</ele><time>2026-03-28T09:02:05.472Z</time></trkpt><trkpt lat="43.5754133" lon="11.64359"><ele>318.0</ele><time>2026-03-28T09:02:06.474Z</time></trkpt><trkpt lat="43.57537" lon="11.6436683"><ele>318.0</ele><time>2026-03-28T09:02:07.472Z</time></trkpt><trkpt lat="43.5753267" lon="11.6437517"><ele>318.0</ele><time>2026-03-28T09:02:08.474Z</time></trkpt><trkpt lat="43.5752867" lon="11.6438333"><ele>318.0</ele><time>2026-03-28T09:02:09.472Z</time></trkpt><trkpt lat="43.57525" lon="11.6439183"><ele>318.0</ele><time>2026-03-28T09:02:10.47Z</time></trkpt><trkpt lat="43.5752167" lon="11.6440033"><ele>318.0</ele><time>2026-03-28T09:02:11.472Z</time></trkpt><trkpt lat="43.5751967" lon="11.6440933"><ele>318.0</ele><time>2026-03-28T09:02:12.472Z</time></trkpt><trkpt lat="43.5751783" lon="11.644185"><ele>318.0</ele><time>2026-03-28T09:02:13.472Z</time></trkpt><trkpt lat="43.57516" lon="11.64428"><ele>318.0</ele><time>2026-03-28T09:02:14.473Z</time></trkpt><trkpt lat="43.5751433" lon="11.6443733"><ele>318.0</ele><time>2026-03-28T09:02:15.471Z</time></trkpt><trkpt lat="43.5751283" lon="11.6444667"><ele>318.0</ele><time>2026-03-28T09:02:16.473Z</time></trkpt><trkpt lat="43.575105" lon="11.644565"><ele>318.0</ele><time>2026-03-28T09:02:17.47Z</time></trkpt><trkpt lat="43.5750783" lon="11.6446633"><ele>318.0</ele><time>2026-03-28T09:02:18.471Z</time></trkpt><trkpt lat="43.57505" lon="11.64476"><ele>318.0</ele><time>2026-03-28T09:02:19.472Z</time></trkpt><trkpt lat="43.575015" lon="11.6448483"><ele>318.0</ele><time>2026-03-28T09:02:20.472Z</time></trkpt><trkpt lat="43.5749717" lon="11.644935"><ele>318.0</ele><time>2026-03-28T09:02:21.472Z</time></trkpt><trkpt lat="43.5749217" lon="11.6450117"><ele>318.0</ele><time>2026-03-28T09:02:22.472Z</time></trkpt><trkpt lat="43.5748633" lon="11.6450783"><ele>318.0</ele><time>2026-03-28T09:02:23.471Z</time></trkpt><trkpt lat="43.5748017" lon="11.645135"><ele>318.0</ele><time>2026-03-28T09:02:24.474Z</time></trkpt><trkpt lat="43.574745" lon="11.645185"><ele>318.0</ele><time>2026-03-28T09:02:25.471Z</time></trkpt><trkpt lat="43.5746917" lon="11.6452383"><ele>318.0</ele><time>2026-03-28T09:02:26.472Z</time></trkpt><trkpt lat="43.5746383" lon="11.645285"><ele>318.0</ele><time>2026-03-28T09:02:27.472Z</time></trkpt><trkpt lat="43.57458" lon="11.6453333"><ele>318.0</ele><time>2026-03-28T09:02:28.471Z</time></trkpt><trkpt lat="43.5745183" lon="11.6453833"><ele>318.0</ele><time>2026-03-28T09:02:29.472Z</time></trkpt><trkpt lat="43.5744533" lon="11.6454283"><ele>318.0</ele><time>2026-03-28T09:02:30.47Z</time></trkpt><trkpt lat="43.5743917" lon="11.6454783"><ele>318.0</ele><time>2026-03-28T09:02:31.472Z</time></trkpt><trkpt lat="43.5743333" lon="11.6455333"><ele>318.0</ele><time>2026-03-28T09:02:32.472Z</time></trkpt><trkpt lat="43.5742767" lon="11.6455883"><ele>318.1428571428571</ele><time>2026-03-28T09:02:33.47Z</time></trkpt><trkpt lat="43.57422" lon="11.645645"><ele>318.28571428571433</ele><time>2026-03-28T09:02:34.47Z</time></trkpt><trkpt lat="43.5741667" lon="11.645705"><ele>318.42857142857144</ele><time>2026-03-28T09:02:35.473Z</time></trkpt><trkpt lat="43.574115" lon="11.6457733"><ele>318.57142857142856</ele><time>2026-03-28T09:02:36.471Z</time></trkpt><trkpt lat="43.5740667" lon="11.6458483"><ele>318.71428571428567</ele><time>2026-03-28T09:02:37.471Z</time></trkpt><trkpt lat="43.5740233" lon="11.64593"><ele>318.8571428571429</ele><time>2026-03-28T09:02:38.471Z</time></trkpt><trkpt lat="43.5739867" lon="11.646015"><ele>319.0</ele><time>2026-03-28T09:02:39.473Z</time></trkpt><trkpt lat="43.573965" lon="11.646105"><ele>320.14285714285717</ele><time>2026-03-28T09:02:40.471Z</time></trkpt><trkpt lat="43.5739483" lon="11.6461967"><ele>321.2857142857143</ele><time>2026-03-28T09:02:41.471Z</time></trkpt><trkpt lat="43.5739317" lon="11.64629"><ele>322.42857142857144</ele><time>2026-03-28T09:02:42.472Z</time></trkpt><trkpt lat="43.5739167" lon="11.646385"><ele>323.57142857142856</ele><time>2026-03-28T09:02:43.472Z</time></trkpt><trkpt lat="43.573905" lon="11.64648"><ele>324.7142857142857</ele><time>2026-03-28T09:02:44.473Z</time></trkpt><trkpt lat="43.5738917" lon="11.64657"><ele>325.85714285714283</ele><time>2026-03-28T09:02:45.473Z</time></trkpt><trkpt lat="43.573875" lon="11.6466617"><ele>327.0</ele><time>2026-03-28T09:02:46.472Z</time></trkpt><trkpt lat="43.57386" lon="11.6467517"><ele>327.0</ele><time>2026-03-28T09:02:47.474Z</time></trkpt><trkpt lat="43.5738467" lon="11.6468433"><ele>327.0</ele><time>2026-03-28T09:02:48.472Z</time></trkpt><trkpt lat="43.5738333" lon="11.646935"><ele>327.0</ele><time>2026-03-28T09:02:49.472Z</time></trkpt><trkpt lat="43.573825" lon="11.6470267"><ele>327.0</ele><time>2026-03-28T09:02:50.472Z</time></trkpt><trkpt lat="43.573815" lon="11.6471233"><ele>327.0</ele><time>2026-03-28T09:02:51.472Z</time></trkpt><trkpt lat="43.5738083" lon="11.6472217"><ele>327.0</ele><time>2026-03-28T09:02:52.473Z</time></trkpt><trkpt lat="43.5738067" lon="11.6473167"><ele>327.0</ele><time>2026-03-28T09:02:53.473Z</time></trkpt><trkpt lat="43.5738117" lon="11.64741"><ele>327.57142857142856</ele><time>2026-03-28T09:02:54.471Z</time></trkpt><trkpt lat="43.57382" lon="11.6475017"><ele>328.14285714285717</ele><time>2026-03-28T09:02:55.473Z</time></trkpt><trkpt lat="43.5738333" lon="11.6475917"><ele>328.7142857142857</ele><time>2026-03-28T09:02:56.473Z</time></trkpt><trkpt lat="43.573855" lon="11.6476833"><ele>329.2857142857143</ele><time>2026-03-28T09:02:57.47Z</time></trkpt><trkpt lat="43.5738733" lon="11.6477717"><ele>329.85714285714283</ele><time>2026-03-28T09:02:58.469Z</time></trkpt><trkpt lat="43.5738867" lon="11.647865"><ele>330.42857142857144</ele><time>2026-03-28T09:02:59.47Z</time></trkpt><trkpt lat="43.5738867" lon="11.64796"><ele>331.0</ele><time>2026-03-28T09:03:00.47Z</time></trkpt><trkpt lat="43.5738683" lon="11.648055"><ele>331.7142857142857</ele><time>2026-03-28T09:03:01.468Z</time></trkpt><trkpt lat="43.573835" lon="11.6481417"><ele>332.42857142857144</ele><time>2026-03-28T09:03:02.471Z</time></trkpt><trkpt lat="43.573795" lon="11.648215"><ele>333.1428571428571</ele><time>2026-03-28T09:03:03.471Z</time></trkpt><trkpt lat="43.57375" lon="11.6482833"><ele>333.8571428571429</ele><time>2026-03-28T09:03:04.47Z</time></trkpt><trkpt lat="43.5737083" lon="11.6483517"><ele>334.57142857142856</ele><time>2026-03-28T09:03:05.468Z</time></trkpt><trkpt lat="43.5736667" lon="11.6484217"><ele>335.2857142857143</ele><time>2026-03-28T09:03:06.468Z</time></trkpt><trkpt lat="43.5736217" lon="11.64849"><ele>336.0</ele><time>2026-03-28T09:03:07.468Z</time></trkpt><trkpt lat="43.573575" lon="11.6485617"><ele>335.2857142857143</ele><time>2026-03-28T09:03:08.469Z</time></trkpt><trkpt lat="43.5735317" lon="11.648635"><ele>334.57142857142856</ele><time>2026-03-28T09:03:09.469Z</time></trkpt><trkpt lat="43.5734883" lon="11.648705"><ele>333.8571428571429</ele><time>2026-03-28T09:03:10.468Z</time></trkpt><trkpt lat="43.573445" lon="11.6487767"><ele>333.1428571428571</ele><time>2026-03-28T09:03:11.469Z</time></trkpt><trkpt lat="43.5734017" lon="11.6488483"><ele>332.42857142857144</ele><time>2026-03-28T09:03:12.468Z</time></trkpt><trkpt lat="43.5733567" lon="11.648915"><ele>331.7142857142857</ele><time>2026-03-28T09:03:13.47Z</time></trkpt><trkpt lat="43.573315" lon="11.648985"><ele>331.0</ele><time>2026-03-28T09:03:14.471Z</time></trkpt><trkpt lat="43.5732717" lon="11.6490533"><ele>331.0</ele><time>2026-03-28T09:03:15.469Z</time></trkpt><trkpt lat="43.5732233" lon="11.6491217"><ele>331.0</ele><time>2026-03-28T09:03:16.47Z</time></trkpt><trkpt lat="43.57317" lon="11.64918"><ele>331.0</ele><time>2026-03-28T09:03:17.472Z</time></trkpt><trkpt lat="43.57311" lon="11.6492233"><ele>331.0</ele><time>2026-03-28T09:03:18.47Z</time></trkpt><trkpt lat="43.5730433" lon="11.649255"><ele>331.0</ele><time>2026-03-28T09:03:19.472Z</time></trkpt><trkpt lat="43.5729783" lon="11.649275"><ele>331.0</ele><time>2026-03-28T09:03:20.47Z</time></trkpt><trkpt lat="43.57291" lon="11.64929"><ele>331.0</ele><time>2026-03-28T09:03:21.47Z</time></trkpt><trkpt lat="43.57284" lon="11.649305"><ele>330.42857142857144</ele><time>2026-03-28T09:03:22.471Z</time></trkpt><trkpt lat="43.572775" lon="11.6493283"><ele>329.85714285714283</ele><time>2026-03-28T09:03:23.47Z</time></trkpt><trkpt lat="43.5727083" lon="11.64936"><ele>329.2857142857143</ele><time>2026-03-28T09:03:24.47Z</time></trkpt><trkpt lat="43.5726467" lon="11.6494067"><ele>328.7142857142857</ele><time>2026-03-28T09:03:25.473Z</time></trkpt><trkpt lat="43.5725833" lon="11.6494633"><ele>328.14285714285717</ele><time>2026-03-28T09:03:26.472Z</time></trkpt><trkpt lat="43.57253" lon="11.6495333"><ele>327.57142857142856</ele><time>2026-03-28T09:03:27.468Z</time></trkpt><trkpt lat="43.5724883" lon="11.6496167"><ele>327.0</ele><time>2026-03-28T09:03:28.471Z</time></trkpt><trkpt lat="43.5724583" lon="11.6497117"><ele>327.0</ele><time>2026-03-28T09:03:29.47Z</time></trkpt><trkpt lat="43.57243" lon="11.6498133"><ele>327.0</ele><time>2026-03-28T09:03:30.469Z</time></trkpt><trkpt lat="43.5724017" lon="11.6499167"><ele>327.0</ele><time>2026-03-28T09:03:31.47Z</time></trkpt><trkpt lat="43.572365" lon="11.6500233"><ele>327.0</ele><time>2026-03-28T09:03:32.47Z</time></trkpt><trkpt lat="43.57232" lon="11.65012"><ele>327.0</ele><time>2026-03-28T09:03:33.472Z</time></trkpt><trkpt lat="43.5722567" lon="11.6501983"><ele>327.0</ele><time>2026-03-28T09:03:34.472Z</time></trkpt><trkpt lat="43.5721783" lon="11.65025"><ele>327.0</ele><time>2026-03-28T09:03:35.472Z</time></trkpt><trkpt lat="43.5720867" lon="11.6502683"><ele>327.0</ele><time>2026-03-28T09:03:36.47Z</time></trkpt><trkpt lat="43.5719933" lon="11.6502533"><ele>327.0</ele><time>2026-03-28T09:03:37.47Z</time></trkpt><trkpt lat="43.5719017" lon="11.6502233"><ele>327.0</ele><time>2026-03-28T09:03:38.47Z</time></trkpt><trkpt lat="43.57181" lon="11.650185"><ele>327.0</ele><time>2026-03-28T09:03:39.472Z</time></trkpt><trkpt lat="43.57172" lon="11.6501533"><ele>327.20000000000005</ele><time>2026-03-28T09:03:40.47Z</time></trkpt><trkpt lat="43.571625" lon="11.650135"><ele>327.4</ele><time>2026-03-28T09:03:41.471Z</time></trkpt><trkpt lat="43.5715317" lon="11.65014"><ele>327.6</ele><time>2026-03-28T09:03:42.47Z</time></trkpt><trkpt lat="43.5714417" lon="11.65017"><ele>327.79999999999995</ele><time>2026-03-28T09:03:43.47Z</time></trkpt><trkpt lat="43.5713617" lon="11.6502267"><ele>328.0</ele><time>2026-03-28T09:03:44.471Z</time></trkpt><trkpt lat="43.5712933" lon="11.6503067"><ele>328.0</ele><time>2026-03-28T09:03:45.469Z</time></trkpt><trkpt lat="43.57123" lon="11.6504017"><ele>328.0</ele><time>2026-03-28T09:03:46.472Z</time></trkpt><trkpt lat="43.5711767" lon="11.6505133"><ele>328.0</ele><time>2026-03-28T09:03:47.472Z</time></trkpt><trkpt lat="43.5711367" lon="11.6506333"><ele>328.0</ele><time>2026-03-28T09:03:48.47Z</time></trkpt><trkpt lat="43.5710983" lon="11.6507617"><ele>328.0</ele><time>2026-03-28T09:03:49.472Z</time></trkpt><trkpt lat="43.5710683" lon="11.6508933"><ele>325.4</ele><time>2026-03-28T09:03:50.472Z</time></trkpt><trkpt lat="43.5710533" lon="11.6510283"><ele>322.79999999999995</ele><time>2026-03-28T09:03:51.471Z</time></trkpt><trkpt lat="43.5710567" lon="11.651165"><ele>320.2</ele><time>2026-03-28T09:03:52.47Z</time></trkpt><trkpt lat="43.5710783" lon="11.6512967"><ele>317.6</ele><time>2026-03-28T09:03:53.471Z</time></trkpt><trkpt lat="43.5711217" lon="11.6514217"><ele>315.0</ele><time>2026-03-28T09:03:54.471Z</time></trkpt><trkpt lat="43.571175" lon="11.6515383"><ele>316.6666666666667</ele><time>2026-03-28T09:03:55.471Z</time></trkpt><trkpt lat="43.5712183" lon="11.6516567"><ele>318.3333333333333</ele><time>2026-03-28T09:03:56.471Z</time></trkpt><trkpt lat="43.5712317" lon="11.651775"><ele>320.0</ele><time>2026-03-28T09:03:57.47Z</time></trkpt><trkpt lat="43.5712183" lon="11.651885"><ele>321.66666666666663</ele><time>2026-03-28T09:03:58.47Z</time></trkpt><trkpt lat="43.5711767" lon="11.6519783"><ele>323.3333333333333</ele><time>2026-03-28T09:03:59.471Z</time></trkpt><trkpt lat="43.5711183" lon="11.6520533"><ele>325.0</ele><time>2026-03-28T09:04:00.471Z</time></trkpt><trkpt lat="43.5710517" lon="11.6521117"><ele>325.0</ele><time>2026-03-28T09:04:01.471Z</time></trkpt><trkpt lat="43.570975" lon="11.652145"><ele>325.0</ele><time>2026-03-28T09:04:02.471Z</time></trkpt><trkpt lat="43.5708867" lon="11.6521533"><ele>325.0</ele><time>2026-03-28T09:04:03.473Z</time></trkpt><trkpt lat="43.5708" lon="11.6521467"><ele>325.0</ele><time>2026-03-28T09:04:04.471Z</time></trkpt><trkpt lat="43.5707117" lon="11.6521267"><ele>325.0</ele><time>2026-03-28T09:04:05.471Z</time></trkpt><trkpt lat="43.5706267" lon="11.6521017"><ele>325.0</ele><time>2026-03-28T09:04:06.47Z</time></trkpt><trkpt lat="43.5705433" lon="11.6520683"><ele>325.0</ele><time>2026-03-28T09:04:07.47Z</time></trkpt><trkpt lat="43.5704633" lon="11.65203"><ele>325.0</ele><time>2026-03-28T09:04:08.469Z</time></trkpt><trkpt lat="43.570385" lon="11.6519933"><ele>325.0</ele><time>2026-03-28T09:04:09.471Z</time></trkpt><trkpt lat="43.570305" lon="11.6519483"><ele>325.0</ele><time>2026-03-28T09:04:10.471Z</time></trkpt><trkpt lat="43.5702233" lon="11.6519067"><ele>325.0</ele><time>2026-03-28T09:04:11.471Z</time></trkpt><trkpt lat="43.5701433" lon="11.6518667"><ele>325.0</ele><time>2026-03-28T09:04:12.47Z</time></trkpt><trkpt lat="43.5700617" lon="11.6518283"><ele>323.5</ele><time>2026-03-28T09:04:13.471Z</time></trkpt><trkpt lat="43.5699833" lon="11.6518033"><ele>322.0</ele><time>2026-03-28T09:04:14.471Z</time></trkpt><trkpt lat="43.5699017" lon="11.651795"><ele>320.5</ele><time>2026-03-28T09:04:15.471Z</time></trkpt><trkpt lat="43.5698217" lon="11.6518"><ele>319.0</ele><time>2026-03-28T09:04:16.473Z</time></trkpt><trkpt lat="43.56974" lon="11.6518317"><ele>317.5</ele><time>2026-03-28T09:04:17.473Z</time></trkpt><trkpt lat="43.5696683" lon="11.6518867"><ele>316.0</ele><time>2026-03-28T09:04:18.469Z</time></trkpt><trkpt lat="43.5696017" lon="11.6519567"><ele>316.3333333333333</ele><time>2026-03-28T09:04:19.471Z</time></trkpt><trkpt lat="43.5695433" lon="11.6520383"><ele>316.66666666666663</ele><time>2026-03-28T09:04:20.472Z</time></trkpt><trkpt lat="43.5694883" lon="11.65213"><ele>317.0</ele><time>2026-03-28T09:04:21.473Z</time></trkpt><trkpt lat="43.56944" lon="11.652225"><ele>317.3333333333333</ele><time>2026-03-28T09:04:22.471Z</time></trkpt><trkpt lat="43.56939" lon="11.65232"><ele>317.6666666666667</ele><time>2026-03-28T09:04:23.468Z</time></trkpt><trkpt lat="43.56934" lon="11.6524133"><ele>318.0</ele><time>2026-03-28T09:04:24.47Z</time></trkpt><trkpt lat="43.56929" lon="11.6525083"><ele>318.0</ele><time>2026-03-28T09:04:25.47Z</time></trkpt><trkpt lat="43.5692333" lon="11.6526017"><ele>318.0</ele><time>2026-03-28T09:04:26.473Z</time></trkpt><trkpt lat="43.5691783" lon="11.652695"><ele>318.0</ele><time>2026-03-28T09:04:27.47Z</time></trkpt><trkpt lat="43.5691283" lon="11.6527883"><ele>318.0</ele><time>2026-03-28T09:04:28.47Z</time></trkpt><trkpt lat="43.5690767" lon="11.6528817"><ele>318.0</ele><time>2026-03-28T09:04:29.47Z</time></trkpt><trkpt lat="43.56903" lon="11.65298"><ele>318.0</ele><time>2026-03-28T09:04:30.471Z</time></trkpt><trkpt lat="43.56898" lon="11.653075"><ele>318.3333333333333</ele><time>2026-03-28T09:04:31.47Z</time></trkpt><trkpt lat="43.56893" lon="11.65317"><ele>318.6666666666667</ele><time>2026-03-28T09:04:32.473Z</time></trkpt><trkpt lat="43.5688783" lon="11.653265"><ele>319.0</ele><time>2026-03-28T09:04:33.472Z</time></trkpt><trkpt lat="43.5688283" lon="11.6533617"><ele>319.33333333333337</ele><time>2026-03-28T09:04:34.471Z</time></trkpt><trkpt lat="43.5687783" lon="11.6534583"><ele>319.6666666666667</ele><time>2026-03-28T09:04:35.469Z</time></trkpt><trkpt lat="43.5687267" lon="11.653555"><ele>320.0</ele><time>2026-03-28T09:04:36.47Z</time></trkpt><trkpt lat="43.5686733" lon="11.6536567"><ele>319.1666666666667</ele><time>2026-03-28T09:04:37.47Z</time></trkpt><trkpt lat="43.5686267" lon="11.6537517"><ele>318.33333333333337</ele><time>2026-03-28T09:04:38.47Z</time></trkpt><trkpt lat="43.5685733" lon="11.6538467"><ele>317.5</ele><time>2026-03-28T09:04:39.467Z</time></trkpt><trkpt lat="43.56852" lon="11.6539417"><ele>316.6666666666667</ele><time>2026-03-28T09:04:40.468Z</time></trkpt><trkpt lat="43.5684717" lon="11.654035"><ele>315.8333333333333</ele><time>2026-03-28T09:04:41.469Z</time></trkpt><trkpt lat="43.5684217" lon="11.6541267"><ele>315.0</ele><time>2026-03-28T09:04:42.467Z</time></trkpt><trkpt lat="43.5683667" lon="11.6542267"><ele>315.0</ele><time>2026-03-28T09:04:43.47Z</time></trkpt><trkpt lat="43.5683217" lon="11.6543317"><ele>315.0</ele><time>2026-03-28T09:04:44.47Z</time></trkpt><trkpt lat="43.5682933" lon="11.6544433"><ele>315.0</ele><time>2026-03-28T09:04:45.468Z</time></trkpt><trkpt lat="43.568285" lon="11.65456"><ele>315.0</ele><time>2026-03-28T09:04:46.468Z</time></trkpt><trkpt lat="43.5682883" lon="11.6546767"><ele>315.0</ele><time>2026-03-28T09:04:47.469Z</time></trkpt><trkpt lat="43.5683117" lon="11.6547883"><ele>315.0</ele><time>2026-03-28T09:04:48.469Z</time></trkpt><trkpt lat="43.5683483" lon="11.6548967"><ele>315.0</ele><time>2026-03-28T09:04:49.469Z</time></trkpt><trkpt lat="43.5683917" lon="11.6549933"><ele>315.0</ele><time>2026-03-28T09:04:50.471Z</time></trkpt><trkpt lat="43.5684433" lon="11.6550867"><ele>315.0</ele><time>2026-03-28T09:04:51.468Z</time></trkpt><trkpt lat="43.568495" lon="11.65518"><ele>315.0</ele><time>2026-03-28T09:04:52.469Z</time></trkpt><trkpt lat="43.5685517" lon="11.6552733"><ele>315.0</ele><time>2026-03-28T09:04:53.469Z</time></trkpt><trkpt lat="43.5686067" lon="11.65537"><ele>315.0</ele><time>2026-03-28T09:04:54.469Z</time></trkpt><trkpt lat="43.5686517" lon="11.65548"><ele>315.0</ele><time>2026-03-28T09:04:55.471Z</time></trkpt><trkpt lat="43.5686833" lon="11.65559"><ele>315.0</ele><time>2026-03-28T09:04:56.471Z</time></trkpt><trkpt lat="43.5686883" lon="11.6557117"><ele>315.0</ele><time>2026-03-28T09:04:57.474Z</time></trkpt><trkpt lat="43.5686633" lon="11.6558233"><ele>315.0</ele><time>2026-03-28T09:04:58.471Z</time></trkpt><trkpt lat="43.56861" lon="11.65592"><ele>315.0</ele><time>2026-03-28T09:04:59.47Z</time></trkpt><trkpt lat="43.568535" lon="11.65599"><ele>315.0</ele><time>2026-03-28T09:05:00.471Z</time></trkpt><trkpt lat="43.5684517" lon="11.65603"><ele>315.0</ele><time>2026-03-28T09:05:01.47Z</time></trkpt><trkpt lat="43.5683617" lon="11.6560533"><ele>315.0</ele><time>2026-03-28T09:05:02.471Z</time></trkpt><trkpt lat="43.5682767" lon="11.65607"><ele>315.0</ele><time>2026-03-28T09:05:03.469Z</time></trkpt><trkpt lat="43.56819" lon="11.6560783"><ele>315.0</ele><time>2026-03-28T09:05:04.468Z</time></trkpt><trkpt lat="43.5681067" lon="11.6560883"><ele>315.0</ele><time>2026-03-28T09:05:05.47Z</time></trkpt><trkpt lat="43.5680267" lon="11.6561017"><ele>315.0</ele><time>2026-03-28T09:05:06.47Z</time></trkpt><trkpt lat="43.567945" lon="11.6561233"><ele>315.1666666666667</ele><time>2026-03-28T09:05:07.468Z</time></trkpt><trkpt lat="43.567865" lon="11.6561617"><ele>315.3333333333333</ele><time>2026-03-28T09:05:08.469Z</time></trkpt><trkpt lat="43.5677883" lon="11.6562133"><ele>315.5</ele><time>2026-03-28T09:05:09.47Z</time></trkpt><trkpt lat="43.5677167" lon="11.6562783"><ele>315.66666666666663</ele><time>2026-03-28T09:05:10.471Z</time></trkpt><trkpt lat="43.5676517" lon="11.6563533"><ele>315.8333333333333</ele><time>2026-03-28T09:05:11.472Z</time></trkpt><trkpt lat="43.5675867" lon="11.6564333"><ele>316.0</ele><time>2026-03-28T09:05:12.472Z</time></trkpt><trkpt lat="43.567525" lon="11.6565217"><ele>316.0</ele><time>2026-03-28T09:05:13.469Z</time></trkpt><trkpt lat="43.5674733" lon="11.65662"><ele>316.0</ele><time>2026-03-28T09:05:14.468Z</time></trkpt><trkpt lat="43.5674283" lon="11.6567233"><ele>316.0</ele><time>2026-03-28T09:05:15.469Z</time></trkpt><trkpt lat="43.5673933" lon="11.65683"><ele>316.0</ele><time>2026-03-28T09:05:16.469Z</time></trkpt><trkpt lat="43.5673567" lon="11.6569367"><ele>316.0</ele><time>2026-03-28T09:05:17.469Z</time></trkpt><trkpt lat="43.5673167" lon="11.657045"><ele>316.0</ele><time>2026-03-28T09:05:18.471Z</time></trkpt><trkpt lat="43.5672717" lon="11.6571483"><ele>315.66666666666663</ele><time>2026-03-28T09:05:19.47Z</time></trkpt><trkpt lat="43.5672267" lon="11.6572533"><ele>315.3333333333333</ele><time>2026-03-28T09:05:20.473Z</time></trkpt><trkpt lat="43.567185" lon="11.6573583"><ele>315.0</ele><time>2026-03-28T09:05:21.471Z</time></trkpt><trkpt lat="43.56714" lon="11.6574617"><ele>314.6666666666667</ele><time>2026-03-28T09:05:22.472Z</time></trkpt><trkpt lat="43.5670933" lon="11.6575633"><ele>314.33333333333337</ele><time>2026-03-28T09:05:23.471Z</time></trkpt><trkpt lat="43.5670433" lon="11.6576567"><ele>314.0</ele><time>2026-03-28T09:05:24.47Z</time></trkpt><trkpt lat="43.5669917" lon="11.6577467"><ele>315.33333333333337</ele><time>2026-03-28T09:05:25.471Z</time></trkpt><trkpt lat="43.5669333" lon="11.65783"><ele>316.6666666666667</ele><time>2026-03-28T09:05:26.469Z</time></trkpt><trkpt lat="43.5668717" lon="11.65791"><ele>318.0</ele><time>2026-03-28T09:05:27.469Z</time></trkpt><trkpt lat="43.5668117" lon="11.6579867"><ele>319.3333333333333</ele><time>2026-03-28T09:05:28.471Z</time></trkpt><trkpt lat="43.5667483" lon="11.6580583"><ele>320.66666666666663</ele><time>2026-03-28T09:05:29.468Z</time></trkpt><trkpt lat="43.5666833" lon="11.658125"><ele>322.0</ele><time>2026-03-28T09:05:30.469Z</time></trkpt><trkpt lat="43.5666167" lon="11.65819"><ele>322.0</ele><time>2026-03-28T09:05:31.469Z</time></trkpt><trkpt lat="43.566545" lon="11.6582467"><ele>322.0</ele><time>2026-03-28T09:05:32.472Z</time></trkpt><trkpt lat="43.5664733" lon="11.6582967"><ele>322.0</ele><time>2026-03-28T09:05:33.47Z</time></trkpt><trkpt lat="43.5663967" lon="11.6583367"><ele>322.0</ele><time>2026-03-28T09:05:34.471Z</time></trkpt><trkpt lat="43.5663183" lon="11.6583683"><ele>322.0</ele><time>2026-03-28T09:05:35.469Z</time></trkpt><trkpt lat="43.5662417" lon="11.6583933"><ele>322.0</ele><time>2026-03-28T09:05:36.47Z</time></trkpt><trkpt lat="43.566165" lon="11.6584167"><ele>321.5</ele><time>2026-03-28T09:05:37.47Z</time></trkpt><trkpt lat="43.5660883" lon="11.6584417"><ele>321.0</ele><time>2026-03-28T09:05:38.47Z</time></trkpt><trkpt lat="43.5660133" lon="11.65846"><ele>320.5</ele><time>2026-03-28T09:05:39.47Z</time></trkpt><trkpt lat="43.565935" lon="11.6584733"><ele>320.0</ele><time>2026-03-28T09:05:40.471Z</time></trkpt><trkpt lat="43.5658567" lon="11.6584867"><ele>319.5</ele><time>2026-03-28T09:05:41.47Z</time></trkpt><trkpt lat="43.5657783" lon="11.6584967"><ele>319.0</ele><time>2026-03-28T09:05:42.473Z</time></trkpt><trkpt lat="43.5657017" lon="11.6585133"><ele>319.0</ele><time>2026-03-28T09:05:43.47Z</time></trkpt><trkpt lat="43.5656267" lon="11.6585367"><ele>319.0</ele><time>2026-03-28T09:05:44.472Z</time></trkpt><trkpt lat="43.5655483" lon="11.658565"><ele>319.0</ele><time>2026-03-28T09:05:45.471Z</time></trkpt><trkpt lat="43.565475" lon="11.6586017"><ele>319.0</ele><time>2026-03-28T09:05:46.47Z</time></trkpt><trkpt lat="43.565405" lon="11.6586417"><ele>319.0</ele><time>2026-03-28T09:05:47.469Z</time></trkpt><trkpt lat="43.5653333" lon="11.658685"><ele>319.0</ele><time>2026-03-28T09:05:48.469Z</time></trkpt><trkpt lat="43.5652583" lon="11.6587333"><ele>319.5</ele><time>2026-03-28T09:05:49.471Z</time></trkpt><trkpt lat="43.565185" lon="11.6587867"><ele>320.0</ele><time>2026-03-28T09:05:50.469Z</time></trkpt><trkpt lat="43.565115" lon="11.6588417"><ele>320.5</ele><time>2026-03-28T09:05:51.469Z</time></trkpt><trkpt lat="43.565045" lon="11.658895"><ele>321.0</ele><time>2026-03-28T09:05:52.471Z</time></trkpt><trkpt lat="43.5649717" lon="11.6589483"><ele>321.5</ele><time>2026-03-28T09:05:53.469Z</time></trkpt><trkpt lat="43.5649" lon="11.659005"><ele>322.0</ele><time>2026-03-28T09:05:54.469Z</time></trkpt><trkpt lat="43.5648233" lon="11.6590633"><ele>322.0</ele><time>2026-03-28T09:05:55.469Z</time></trkpt><trkpt lat="43.5647467" lon="11.6591217"><ele>322.0</ele><time>2026-03-28T09:05:56.472Z</time></trkpt><trkpt lat="43.5646683" lon="11.6591783"><ele>322.0</ele><time>2026-03-28T09:05:57.472Z</time></trkpt><trkpt lat="43.56459" lon="11.6592367"><ele>322.0</ele><time>2026-03-28T09:05:58.471Z</time></trkpt><trkpt lat="43.5645117" lon="11.659295"><ele>322.0</ele><time>2026-03-28T09:05:59.471Z</time></trkpt><trkpt lat="43.5644333" lon="11.6593567"><ele>322.0</ele><time>2026-03-28T09:06:00.47Z</time></trkpt><trkpt lat="43.5643533" lon="11.65942"><ele>322.20000000000005</ele><time>2026-03-28T09:06:01.47Z</time></trkpt><trkpt lat="43.5642733" lon="11.6594867"><ele>322.4</ele><time>2026-03-28T09:06:02.469Z</time></trkpt><trkpt lat="43.5642" lon="11.6595633"><ele>322.6</ele><time>2026-03-28T09:06:03.471Z</time></trkpt><trkpt lat="43.56413" lon="11.6596483"><ele>322.79999999999995</ele><time>2026-03-28T09:06:04.469Z</time></trkpt><trkpt lat="43.5640617" lon="11.6597367"><ele>323.0</ele><time>2026-03-28T09:06:05.47Z</time></trkpt><trkpt lat="43.5640083" lon="11.65984"><ele>323.0</ele><time>2026-03-28T09:06:06.47Z</time></trkpt><trkpt lat="43.56396" lon="11.6599583"><ele>323.0</ele><time>2026-03-28T09:06:07.469Z</time></trkpt><trkpt lat="43.5639133" lon="11.6600817"><ele>323.0</ele><time>2026-03-28T09:06:08.468Z</time></trkpt><trkpt lat="43.563885" lon="11.6602117"><ele>323.0</ele><time>2026-03-28T09:06:09.467Z</time></trkpt><trkpt lat="43.5638683" lon="11.66035"><ele>323.0</ele><time>2026-03-28T09:06:10.469Z</time></trkpt><trkpt lat="43.5638633" lon="11.6604917"><ele>324.0</ele><time>2026-03-28T09:06:11.468Z</time></trkpt><trkpt lat="43.5638633" lon="11.660635"><ele>325.0</ele><time>2026-03-28T09:06:12.468Z</time></trkpt><trkpt lat="43.5638533" lon="11.66078"><ele>326.0</ele><time>2026-03-28T09:06:13.469Z</time></trkpt><trkpt lat="43.563825" lon="11.6609167"><ele>327.0</ele><time>2026-03-28T09:06:14.469Z</time></trkpt><trkpt lat="43.5637733" lon="11.661045"><ele>328.0</ele><time>2026-03-28T09:06:15.469Z</time></trkpt><trkpt lat="43.5637033" lon="11.6611533"><ele>325.2</ele><time>2026-03-28T09:06:16.469Z</time></trkpt><trkpt lat="43.5636217" lon="11.6612467"><ele>322.4</ele><time>2026-03-28T09:06:17.467Z</time></trkpt><trkpt lat="43.56354" lon="11.661335"><ele>319.59999999999997</ele><time>2026-03-28T09:06:18.468Z</time></trkpt><trkpt lat="43.563465" lon="11.661435"><ele>316.79999999999995</ele><time>2026-03-28T09:06:19.469Z</time></trkpt><trkpt lat="43.5634033" lon="11.66155"><ele>314.0</ele><time>2026-03-28T09:06:20.472Z</time></trkpt><trkpt lat="43.563355" lon="11.661675"><ele>314.0</ele><time>2026-03-28T09:06:21.471Z</time></trkpt><trkpt lat="43.563315" lon="11.6618083"><ele>314.0</ele><time>2026-03-28T09:06:22.469Z</time></trkpt><trkpt lat="43.5632867" lon="11.66195"><ele>314.0</ele><time>2026-03-28T09:06:23.47Z</time></trkpt><trkpt lat="43.56327" lon="11.6620967"><ele>314.0</ele><time>2026-03-28T09:06:24.47Z</time></trkpt><trkpt lat="43.56325" lon="11.6622467"><ele>314.0</ele><time>2026-03-28T09:06:25.469Z</time></trkpt><trkpt lat="43.56323" lon="11.6623967"><ele>315.2</ele><time>2026-03-28T09:06:26.472Z</time></trkpt><trkpt lat="43.563205" lon="11.6625433"><ele>316.4</ele><time>2026-03-28T09:06:27.469Z</time></trkpt><trkpt lat="43.5631633" lon="11.6626817"><ele>317.6</ele><time>2026-03-28T09:06:28.47Z</time></trkpt><trkpt lat="43.5631067" lon="11.6628033"><ele>318.8</ele><time>2026-03-28T09:06:29.47Z</time></trkpt><trkpt lat="43.5630217" lon="11.6628917"><ele>320.0</ele><time>2026-03-28T09:06:30.469Z</time></trkpt><trkpt lat="43.5629233" lon="11.6629367"><ele>320.6</ele><time>2026-03-28T09:06:31.469Z</time></trkpt><trkpt lat="43.5628133" lon="11.662945"><ele>321.2</ele><time>2026-03-28T09:06:32.469Z</time></trkpt><trkpt lat="43.5627067" lon="11.662935"><ele>321.79999999999995</ele><time>2026-03-28T09:06:33.468Z</time></trkpt><trkpt lat="43.5626033" lon="11.6629283"><ele>322.4</ele><time>2026-03-28T09:06:34.469Z</time></trkpt><trkpt lat="43.5625033" lon="11.6629333"><ele>323.0</ele><time>2026-03-28T09:06:35.468Z</time></trkpt><trkpt lat="43.5624083" lon="11.6629567"><ele>323.0</ele><time>2026-03-28T09:06:36.468Z</time></trkpt><trkpt lat="43.56232" lon="11.662995"><ele>323.0</ele><time>2026-03-28T09:06:37.469Z</time></trkpt><trkpt lat="43.5622383" lon="11.66305"><ele>323.0</ele><time>2026-03-28T09:06:38.468Z</time></trkpt><trkpt lat="43.5621683" lon="11.66313"><ele>323.0</ele><time>2026-03-28T09:06:39.469Z</time></trkpt><trkpt lat="43.5621083" lon="11.6632267"><ele>323.0</ele><time>2026-03-28T09:06:40.469Z</time></trkpt><trkpt lat="43.5620583" lon="11.663335"><ele>322.4</ele><time>2026-03-28T09:06:41.468Z</time></trkpt><trkpt lat="43.56201" lon="11.6634433"><ele>321.79999999999995</ele><time>2026-03-28T09:06:42.468Z</time></trkpt><trkpt lat="43.5619583" lon="11.663545"><ele>321.2</ele><time>2026-03-28T09:06:43.469Z</time></trkpt><trkpt lat="43.5618883" lon="11.6636283"><ele>320.6</ele><time>2026-03-28T09:06:44.47Z</time></trkpt><trkpt lat="43.561805" lon="11.6636867"><ele>320.0</ele><time>2026-03-28T09:06:45.469Z</time></trkpt><trkpt lat="43.5617133" lon="11.6637233"><ele>320.0</ele><time>2026-03-28T09:06:46.468Z</time></trkpt><trkpt lat="43.56162" lon="11.6637417"><ele>320.0</ele><time>2026-03-28T09:06:47.472Z</time></trkpt><trkpt lat="43.5615283" lon="11.6637633"><ele>320.0</ele><time>2026-03-28T09:06:48.472Z</time></trkpt><trkpt lat="43.5614433" lon="11.6638017"><ele>320.0</ele><time>2026-03-28T09:06:49.47Z</time></trkpt><trkpt lat="43.5613633" lon="11.66386"><ele>320.0</ele><time>2026-03-28T09:06:50.472Z</time></trkpt><trkpt lat="43.5612933" lon="11.6639467"><ele>320.0</ele><time>2026-03-28T09:06:51.468Z</time></trkpt><trkpt lat="43.56125" lon="11.6640533"><ele>320.0</ele><time>2026-03-28T09:06:52.471Z</time></trkpt><trkpt lat="43.56123" lon="11.6641717"><ele>320.0</ele><time>2026-03-28T09:06:53.473Z</time></trkpt><trkpt lat="43.5612317" lon="11.66429"><ele>320.0</ele><time>2026-03-28T09:06:54.47Z</time></trkpt><trkpt lat="43.5612467" lon="11.66441"><ele>320.0</ele><time>2026-03-28T09:06:55.469Z</time></trkpt><trkpt lat="43.5612733" lon="11.664535"><ele>320.0</ele><time>2026-03-28T09:06:56.47Z</time></trkpt><trkpt lat="43.5612917" lon="11.6646617"><ele>321.2</ele><time>2026-03-28T09:06:57.468Z</time></trkpt><trkpt lat="43.5612917" lon="11.6647933"><ele>322.4</ele><time>2026-03-28T09:06:58.469Z</time></trkpt><trkpt lat="43.5612633" lon="11.66492"><ele>323.6</ele><time>2026-03-28T09:06:59.469Z</time></trkpt><trkpt lat="43.5612033" lon="11.6650233"><ele>324.8</ele><time>2026-03-28T09:07:00.469Z</time></trkpt><trkpt lat="43.5611217" lon="11.6651"><ele>326.0</ele><time>2026-03-28T09:07:01.469Z</time></trkpt><trkpt lat="43.5610283" lon="11.6651483"><ele>324.8</ele><time>2026-03-28T09:07:02.47Z</time></trkpt><trkpt lat="43.5609333" lon="11.6651733"><ele>323.6</ele><time>2026-03-28T09:07:03.469Z</time></trkpt><trkpt lat="43.56084" lon="11.66519"><ele>322.4</ele><time>2026-03-28T09:07:04.469Z</time></trkpt><trkpt lat="43.5607467" lon="11.665215"><ele>321.2</ele><time>2026-03-28T09:07:05.469Z</time></trkpt><trkpt lat="43.560655" lon="11.665255"><ele>320.0</ele><time>2026-03-28T09:07:06.469Z</time></trkpt><trkpt lat="43.56057" lon="11.6653167"><ele>320.0</ele><time>2026-03-28T09:07:07.469Z</time></trkpt><trkpt lat="43.5604967" lon="11.6654033"><ele>320.0</ele><time>2026-03-28T09:07:08.469Z</time></trkpt><trkpt lat="43.5604417" lon="11.6655133"><ele>320.0</ele><time>2026-03-28T09:07:09.469Z</time></trkpt><trkpt lat="43.5603933" lon="11.6656333"><ele>320.0</ele><time>2026-03-28T09:07:10.468Z</time></trkpt><trkpt lat="43.5603583" lon="11.6657617"><ele>320.0</ele><time>2026-03-28T09:07:11.469Z</time></trkpt><trkpt lat="43.56033" lon="11.665895"><ele>317.2</ele><time>2026-03-28T09:07:12.471Z</time></trkpt><trkpt lat="43.5603083" lon="11.6660317"><ele>314.4</ele><time>2026-03-28T09:07:13.471Z</time></trkpt><trkpt lat="43.56029" lon="11.6661667"><ele>311.6</ele><time>2026-03-28T09:07:14.472Z</time></trkpt><trkpt lat="43.5602767" lon="11.6663033"><ele>308.8</ele><time>2026-03-28T09:07:15.469Z</time></trkpt><trkpt lat="43.5602767" lon="11.6664383"><ele>306.0</ele><time>2026-03-28T09:07:16.468Z</time></trkpt><trkpt lat="43.5602933" lon="11.6665683"><ele>305.8</ele><time>2026-03-28T09:07:17.469Z</time></trkpt><trkpt lat="43.5603217" lon="11.6667"><ele>305.6</ele><time>2026-03-28T09:07:18.469Z</time></trkpt><trkpt lat="43.5603517" lon="11.6668333"><ele>305.4</ele><time>2026-03-28T09:07:19.469Z</time></trkpt><trkpt lat="43.5603767" lon="11.6669683"><ele>305.2</ele><time>2026-03-28T09:07:20.471Z</time></trkpt><trkpt lat="43.5603867" lon="11.6671067"><ele>305.0</ele><time>2026-03-28T09:07:21.471Z</time></trkpt><trkpt lat="43.56038" lon="11.667245"><ele>305.0</ele><time>2026-03-28T09:07:22.468Z</time></trkpt><trkpt lat="43.560365" lon="11.667385"><ele>305.0</ele><time>2026-03-28T09:07:23.469Z</time></trkpt><trkpt lat="43.5603483" lon="11.6675183"><ele>305.0</ele><time>2026-03-28T09:07:24.469Z</time></trkpt><trkpt lat="43.5603333" lon="11.6676517"><ele>305.0</ele><time>2026-03-28T09:07:25.469Z</time></trkpt><trkpt lat="43.560315" lon="11.6677833"><ele>305.0</ele><time>2026-03-28T09:07:26.469Z</time></trkpt><trkpt lat="43.5602933" lon="11.6679133"><ele>305.6</ele><time>2026-03-28T09:07:27.47Z</time></trkpt><trkpt lat="43.56027" lon="11.6680417"><ele>306.2</ele><time>2026-03-28T09:07:28.469Z</time></trkpt><trkpt lat="43.5602517" lon="11.6681683"><ele>306.8</ele><time>2026-03-28T09:07:29.47Z</time></trkpt><trkpt lat="43.560235" lon="11.668295"><ele>307.4</ele><time>2026-03-28T09:07:30.469Z</time></trkpt><trkpt lat="43.5602233" lon="11.6684217"><ele>308.0</ele><time>2026-03-28T09:07:31.469Z</time></trkpt><trkpt lat="43.5602167" lon="11.6685517"><ele>307.6</ele><time>2026-03-28T09:07:32.472Z</time></trkpt><trkpt lat="43.5602233" lon="11.6686817"><ele>307.20000000000005</ele><time>2026-03-28T09:07:33.47Z</time></trkpt><trkpt lat="43.5602333" lon="11.6688083"><ele>306.8</ele><time>2026-03-28T09:07:34.472Z</time></trkpt><trkpt lat="43.5602483" lon="11.668935"><ele>306.40000000000003</ele><time>2026-03-28T09:07:35.471Z</time></trkpt><trkpt lat="43.5602717" lon="11.6690567"><ele>306.0</ele><time>2026-03-28T09:07:36.468Z</time></trkpt><trkpt lat="43.560295" lon="11.6691767"><ele>306.0</ele><time>2026-03-28T09:07:37.468Z</time></trkpt><trkpt lat="43.56033" lon="11.66929"><ele>306.0</ele><time>2026-03-28T09:07:38.469Z</time></trkpt><trkpt lat="43.5603683" lon="11.6694033"><ele>306.0</ele><time>2026-03-28T09:07:39.47Z</time></trkpt><trkpt lat="43.56041" lon="11.6695133"><ele>306.0</ele><time>2026-03-28T09:07:40.469Z</time></trkpt><trkpt lat="43.56045" lon="11.6696233"><ele>306.0</ele><time>2026-03-28T09:07:41.47Z</time></trkpt><trkpt lat="43.5604833" lon="11.6697433"><ele>308.2</ele><time>2026-03-28T09:07:42.469Z</time></trkpt><trkpt lat="43.5605" lon="11.6698717"><ele>310.40000000000003</ele><time>2026-03-28T09:07:43.47Z</time></trkpt><trkpt lat="43.5605" lon="11.6700033"><ele>312.6</ele><time>2026-03-28T09:07:44.47Z</time></trkpt><trkpt lat="43.560485" lon="11.67013"><ele>314.8</ele><time>2026-03-28T09:07:45.472Z</time></trkpt><trkpt lat="43.56046" lon="11.670255"><ele>317.0</ele><time>2026-03-28T09:07:46.471Z</time></trkpt><trkpt lat="43.5604267" lon="11.6703717"><ele>317.0</ele><time>2026-03-28T09:07:47.471Z</time></trkpt><trkpt lat="43.5603883" lon="11.6704833"><ele>317.0</ele><time>2026-03-28T09:07:48.47Z</time></trkpt><trkpt lat="43.5603483" lon="11.6705917"><ele>317.0</ele><time>2026-03-28T09:07:49.469Z</time></trkpt><trkpt lat="43.5603067" lon="11.6706983"><ele>317.0</ele><time>2026-03-28T09:07:50.472Z</time></trkpt><trkpt lat="43.56026" lon="11.670805"><ele>317.0</ele><time>2026-03-28T09:07:51.47Z</time></trkpt><trkpt lat="43.5602167" lon="11.6709117"><ele>317.0</ele><time>2026-03-28T09:07:52.471Z</time></trkpt><trkpt lat="43.5601733" lon="11.6710183"><ele>316.1666666666667</ele><time>2026-03-28T09:07:53.469Z</time></trkpt><trkpt lat="43.5601367" lon="11.6711267"><ele>315.33333333333337</ele><time>2026-03-28T09:07:54.467Z</time></trkpt><trkpt lat="43.56011" lon="11.67124"><ele>314.5</ele><time>2026-03-28T09:07:55.468Z</time></trkpt><trkpt lat="43.5600933" lon="11.6713567"><ele>313.6666666666667</ele><time>2026-03-28T09:07:56.469Z</time></trkpt><trkpt lat="43.560085" lon="11.6714783"><ele>312.8333333333333</ele><time>2026-03-28T09:07:57.469Z</time></trkpt><trkpt lat="43.560085" lon="11.6716033"><ele>312.0</ele><time>2026-03-28T09:07:58.471Z</time></trkpt><trkpt lat="43.5600933" lon="11.6717283"><ele>312.0</ele><time>2026-03-28T09:07:59.47Z</time></trkpt><trkpt lat="43.5601033" lon="11.67186"><ele>312.0</ele><time>2026-03-28T09:08:00.47Z</time></trkpt><trkpt lat="43.56011" lon="11.671995"><ele>312.0</ele><time>2026-03-28T09:08:01.469Z</time></trkpt><trkpt lat="43.5601167" lon="11.672125"><ele>312.0</ele><time>2026-03-28T09:08:02.47Z</time></trkpt><trkpt lat="43.5601233" lon="11.6722583"><ele>312.0</ele><time>2026-03-28T09:08:03.469Z</time></trkpt><trkpt lat="43.56013" lon="11.672395"><ele>312.0</ele><time>2026-03-28T09:08:04.468Z</time></trkpt><trkpt lat="43.5601433" lon="11.6725317"><ele>312.0</ele><time>2026-03-28T09:08:05.469Z</time></trkpt><trkpt lat="43.5601567" lon="11.6726683"><ele>312.0</ele><time>2026-03-28T09:08:06.47Z</time></trkpt><trkpt lat="43.5601783" lon="11.6728017"><ele>312.0</ele><time>2026-03-28T09:08:07.471Z</time></trkpt><trkpt lat="43.5602017" lon="11.6729333"><ele>312.0</ele><time>2026-03-28T09:08:08.473Z</time></trkpt><trkpt lat="43.560235" lon="11.6730617"><ele>311.2</ele><time>2026-03-28T09:08:09.474Z</time></trkpt><trkpt lat="43.56027" lon="11.67319"><ele>310.4</ele><time>2026-03-28T09:08:10.47Z</time></trkpt><trkpt lat="43.5603017" lon="11.6733133"><ele>309.6</ele><time>2026-03-28T09:08:11.47Z</time></trkpt><trkpt lat="43.5603133" lon="11.673435"><ele>308.8</ele><time>2026-03-28T09:08:12.471Z</time></trkpt><trkpt lat="43.5602933" lon="11.673555"><ele>308.0</ele><time>2026-03-28T09:08:13.471Z</time></trkpt><trkpt lat="43.5602483" lon="11.6736567"><ele>309.8</ele><time>2026-03-28T09:08:14.471Z</time></trkpt><trkpt lat="43.5601767" lon="11.6737183"><ele>311.6</ele><time>2026-03-28T09:08:15.47Z</time></trkpt><trkpt lat="43.560085" lon="11.6737383"><ele>313.4</ele><time>2026-03-28T09:08:16.471Z</time></trkpt><trkpt lat="43.5599883" lon="11.6737333"><ele>315.2</ele><time>2026-03-28T09:08:17.47Z</time></trkpt><trkpt lat="43.5598883" lon="11.6737183"><ele>317.0</ele><time>2026-03-28T09:08:18.472Z</time></trkpt><trkpt lat="43.5597867" lon="11.6737017"><ele>317.0</ele><time>2026-03-28T09:08:19.471Z</time></trkpt><trkpt lat="43.559685" lon="11.6736917"><ele>317.0</ele><time>2026-03-28T09:08:20.474Z</time></trkpt><trkpt lat="43.559585" lon="11.6736867"><ele>317.0</ele><time>2026-03-28T09:08:21.471Z</time></trkpt><trkpt lat="43.5594817" lon="11.673685"><ele>317.0</ele><time>2026-03-28T09:08:22.47Z</time></trkpt><trkpt lat="43.55938" lon="11.6736967"><ele>317.0</ele><time>2026-03-28T09:08:23.471Z</time></trkpt><trkpt lat="43.5592767" lon="11.6737167"><ele>315.8</ele><time>2026-03-28T09:08:24.472Z</time></trkpt><trkpt lat="43.5591767" lon="11.673745"><ele>314.6</ele><time>2026-03-28T09:08:25.471Z</time></trkpt><trkpt lat="43.559075" lon="11.6737817"><ele>313.40000000000003</ele><time>2026-03-28T09:08:26.472Z</time></trkpt><trkpt lat="43.5589783" lon="11.673825"><ele>312.2</ele><time>2026-03-28T09:08:27.47Z</time></trkpt><trkpt lat="43.5588833" lon="11.6738733"><ele>311.0</ele><time>2026-03-28T09:08:28.471Z</time></trkpt><trkpt lat="43.5587983" lon="11.67394"><ele>311.0</ele><time>2026-03-28T09:08:29.472Z</time></trkpt><trkpt lat="43.5587233" lon="11.674025"><ele>311.0</ele><time>2026-03-28T09:08:30.472Z</time></trkpt><trkpt lat="43.5586667" lon="11.6741333"><ele>311.0</ele><time>2026-03-28T09:08:31.47Z</time></trkpt><trkpt lat="43.558635" lon="11.6742583"><ele>311.0</ele><time>2026-03-28T09:08:32.472Z</time></trkpt><trkpt lat="43.5586217" lon="11.6743933"><ele>311.0</ele><time>2026-03-28T09:08:33.471Z</time></trkpt><trkpt lat="43.558625" lon="11.67453"><ele>311.0</ele><time>2026-03-28T09:08:34.471Z</time></trkpt><trkpt lat="43.5586367" lon="11.67467"><ele>311.0</ele><time>2026-03-28T09:08:35.47Z</time></trkpt><trkpt lat="43.5586517" lon="11.674815"><ele>311.0</ele><time>2026-03-28T09:08:36.47Z</time></trkpt><trkpt lat="43.5586683" lon="11.6749567"><ele>311.0</ele><time>2026-03-28T09:08:37.471Z</time></trkpt><trkpt lat="43.5586933" lon="11.6750967"><ele>311.0</ele><time>2026-03-28T09:08:38.472Z</time></trkpt><trkpt lat="43.5587233" lon="11.6752367"><ele>310.6</ele><time>2026-03-28T09:08:39.47Z</time></trkpt><trkpt lat="43.5587483" lon="11.6753817"><ele>310.20000000000005</ele><time>2026-03-28T09:08:40.47Z</time></trkpt><trkpt lat="43.5587533" lon="11.6755267"><ele>309.79999999999995</ele><time>2026-03-28T09:08:41.471Z</time></trkpt><trkpt lat="43.5587367" lon="11.6756717"><ele>309.4</ele><time>2026-03-28T09:08:42.473Z</time></trkpt><trkpt lat="43.5586883" lon="11.6758"><ele>309.0</ele><time>2026-03-28T09:08:43.471Z</time></trkpt><trkpt lat="43.5586133" lon="11.6759067"><ele>308.8</ele><time>2026-03-28T09:08:44.472Z</time></trkpt><trkpt lat="43.5585233" lon="11.675985"><ele>308.59999999999997</ele><time>2026-03-28T09:08:45.471Z</time></trkpt><trkpt lat="43.5584233" lon="11.6760383"><ele>308.4</ele><time>2026-03-28T09:08:46.47Z</time></trkpt><trkpt lat="43.5583183" lon="11.6760783"><ele>308.2</ele><time>2026-03-28T09:08:47.47Z</time></trkpt><trkpt lat="43.5582133" lon="11.676115"><ele>308.0</ele><time>2026-03-28T09:08:48.472Z</time></trkpt><trkpt lat="43.5581083" lon="11.67615"><ele>308.0</ele><time>2026-03-28T09:08:49.468Z</time></trkpt><trkpt lat="43.5580033" lon="11.67619"><ele>308.0</ele><time>2026-03-28T09:08:50.47Z</time></trkpt><trkpt lat="43.5579017" lon="11.67624"><ele>308.0</ele><time>2026-03-28T09:08:51.47Z</time></trkpt><trkpt lat="43.5578083" lon="11.6763033"><ele>308.0</ele><time>2026-03-28T09:08:52.469Z</time></trkpt><trkpt lat="43.5577217" lon="11.6763867"><ele>308.0</ele><time>2026-03-28T09:08:53.468Z</time></trkpt><trkpt lat="43.55764" lon="11.6764883"><ele>306.0</ele><time>2026-03-28T09:08:54.469Z</time></trkpt><trkpt lat="43.5575767" lon="11.6766067"><ele>304.0</ele><time>2026-03-28T09:08:55.471Z</time></trkpt><trkpt lat="43.557525" lon="11.6767383"><ele>302.0</ele><time>2026-03-28T09:08:56.471Z</time></trkpt><trkpt lat="43.5574817" lon="11.67688"><ele>300.0</ele><time>2026-03-28T09:08:57.471Z</time></trkpt><trkpt lat="43.5574433" lon="11.677025"><ele>298.0</ele><time>2026-03-28T09:08:58.471Z</time></trkpt><trkpt lat="43.5574017" lon="11.67717"><ele>298.0</ele><time>2026-03-28T09:08:59.473Z</time></trkpt><trkpt lat="43.5573567" lon="11.677315"><ele>298.0</ele><time>2026-03-28T09:09:00.472Z</time></trkpt><trkpt lat="43.5573033" lon="11.67746"><ele>298.0</ele><time>2026-03-28T09:09:01.471Z</time></trkpt><trkpt lat="43.5572367" lon="11.6775967"><ele>298.0</ele><time>2026-03-28T09:09:02.471Z</time></trkpt><trkpt lat="43.55716" lon="11.6777183"><ele>297.75</ele><time>2026-03-28T09:09:03.469Z</time></trkpt><trkpt lat="43.5570717" lon="11.677825"><ele>297.5</ele><time>2026-03-28T09:09:04.469Z</time></trkpt><trkpt lat="43.55698" lon="11.67792"><ele>297.25</ele><time>2026-03-28T09:09:05.471Z</time></trkpt><trkpt lat="43.55689" lon="11.6780117"><ele>297.0</ele><time>2026-03-28T09:09:06.473Z</time></trkpt><trkpt lat="43.5567983" lon="11.6781033"><ele>297.0</ele><time>2026-03-28T09:09:07.472Z</time></trkpt><trkpt lat="43.5567083" lon="11.6781933"><ele>297.0</ele><time>2026-03-28T09:09:08.471Z</time></trkpt><trkpt lat="43.55662" lon="11.6782833"><ele>297.0</ele><time>2026-03-28T09:09:09.47Z</time></trkpt><trkpt lat="43.5565333" lon="11.678375"><ele>297.0</ele><time>2026-03-28T09:09:10.471Z</time></trkpt><trkpt lat="43.5564467" lon="11.6784667"><ele>297.0</ele><time>2026-03-28T09:09:11.473Z</time></trkpt><trkpt lat="43.5563617" lon="11.6785583"><ele>295.8</ele><time>2026-03-28T09:09:12.471Z</time></trkpt><trkpt lat="43.5562817" lon="11.678655"><ele>294.6</ele><time>2026-03-28T09:09:13.471Z</time></trkpt><trkpt lat="43.5562067" lon="11.6787583"><ele>293.40000000000003</ele><time>2026-03-28T09:09:14.472Z</time></trkpt><trkpt lat="43.5561367" lon="11.6788717"><ele>292.2</ele><time>2026-03-28T09:09:15.47Z</time></trkpt><trkpt lat="43.5560767" lon="11.6789983"><ele>291.0</ele><time>2026-03-28T09:09:16.47Z</time></trkpt><trkpt lat="43.55603" lon="11.679135"><ele>291.0</ele><time>2026-03-28T09:09:17.472Z</time></trkpt><trkpt lat="43.556005" lon="11.6792783"><ele>291.0</ele><time>2026-03-28T09:09:18.471Z</time></trkpt><trkpt lat="43.5559983" lon="11.67943"><ele>291.0</ele><time>2026-03-28T09:09:19.471Z</time></trkpt><trkpt lat="43.5559983" lon="11.6795817"><ele>291.0</ele><time>2026-03-28T09:09:20.47Z</time></trkpt><trkpt lat="43.5559917" lon="11.6797317"><ele>291.0</ele><time>2026-03-28T09:09:21.47Z</time></trkpt><trkpt lat="43.5559733" lon="11.67988"><ele>290.6</ele><time>2026-03-28T09:09:22.471Z</time></trkpt><trkpt lat="43.555945" lon="11.680025"><ele>290.20000000000005</ele><time>2026-03-28T09:09:23.472Z</time></trkpt><trkpt lat="43.5559033" lon="11.68016"><ele>289.79999999999995</ele><time>2026-03-28T09:09:24.471Z</time></trkpt><trkpt lat="43.5558483" lon="11.6802817"><ele>289.4</ele><time>2026-03-28T09:09:25.471Z</time></trkpt><trkpt lat="43.5557767" lon="11.680385"><ele>289.0</ele><time>2026-03-28T09:09:26.47Z</time></trkpt><trkpt lat="43.5556867" lon="11.6804683"><ele>289.59999999999997</ele><time>2026-03-28T09:09:27.472Z</time></trkpt><trkpt lat="43.5555917" lon="11.6805333"><ele>290.2</ele><time>2026-03-28T09:09:28.47Z</time></trkpt><trkpt lat="43.5554933" lon="11.680585"><ele>290.79999999999995</ele><time>2026-03-28T09:09:29.469Z</time></trkpt><trkpt lat="43.555395" lon="11.6806217"><ele>291.4</ele><time>2026-03-28T09:09:30.47Z</time></trkpt><trkpt lat="43.5552983" lon="11.6806583"><ele>292.0</ele><time>2026-03-28T09:09:31.471Z</time></trkpt><trkpt lat="43.5552083" lon="11.680705"><ele>292.0</ele><time>2026-03-28T09:09:32.469Z</time></trkpt><trkpt lat="43.55512" lon="11.6807683"><ele>292.0</ele><time>2026-03-28T09:09:33.467Z</time></trkpt><trkpt lat="43.5550367" lon="11.6808483"><ele>292.0</ele><time>2026-03-28T09:09:34.469Z</time></trkpt><trkpt lat="43.5549667" lon="11.680945"><ele>292.0</ele><time>2026-03-28T09:09:35.469Z</time></trkpt><trkpt lat="43.554905" lon="11.6810517"><ele>292.0</ele><time>2026-03-28T09:09:36.469Z</time></trkpt><trkpt lat="43.554855" lon="11.681165"><ele>293.0</ele><time>2026-03-28T09:09:37.469Z</time></trkpt><trkpt lat="43.5548133" lon="11.681285"><ele>294.0</ele><time>2026-03-28T09:09:38.469Z</time></trkpt><trkpt lat="43.5547767" lon="11.681405"><ele>295.0</ele><time>2026-03-28T09:09:39.467Z</time></trkpt><trkpt lat="43.55474" lon="11.6815267"><ele>296.0</ele><time>2026-03-28T09:09:40.468Z</time></trkpt><trkpt lat="43.554705" lon="11.6816433"><ele>297.0</ele><time>2026-03-28T09:09:41.472Z</time></trkpt><trkpt lat="43.5546733" lon="11.6817583"><ele>297.0</ele><time>2026-03-28T09:09:42.472Z</time></trkpt><trkpt lat="43.5546417" lon="11.68187"><ele>297.0</ele><time>2026-03-28T09:09:43.471Z</time></trkpt><trkpt lat="43.5546117" lon="11.6819817"><ele>297.0</ele><time>2026-03-28T09:09:44.476Z</time></trkpt><trkpt lat="43.5545833" lon="11.68209"><ele>297.0</ele><time>2026-03-28T09:09:45.469Z</time></trkpt><trkpt lat="43.5545533" lon="11.6821983"><ele>297.0</ele><time>2026-03-28T09:09:46.47Z</time></trkpt><trkpt lat="43.5545233" lon="11.6823033"><ele>297.0</ele><time>2026-03-28T09:09:47.47Z</time></trkpt><trkpt lat="43.5545" lon="11.68241"><ele>296.5</ele><time>2026-03-28T09:09:48.471Z</time></trkpt><trkpt lat="43.5544817" lon="11.6825167"><ele>296.0</ele><time>2026-03-28T09:09:49.472Z</time></trkpt><trkpt lat="43.5544583" lon="11.682625"><ele>295.5</ele><time>2026-03-28T09:09:50.474Z</time></trkpt><trkpt lat="43.5544267" lon="11.6827383"><ele>295.0</ele><time>2026-03-28T09:09:51.47Z</time></trkpt><trkpt lat="43.554395" lon="11.6828533"><ele>294.5</ele><time>2026-03-28T09:09:52.47Z</time></trkpt><trkpt lat="43.5543617" lon="11.6829717"><ele>294.0</ele><time>2026-03-28T09:09:53.471Z</time></trkpt><trkpt lat="43.5543267" lon="11.6830883"><ele>294.0</ele><time>2026-03-28T09:09:54.472Z</time></trkpt><trkpt lat="43.554295" lon="11.6832033"><ele>294.0</ele><time>2026-03-28T09:09:55.47Z</time></trkpt><trkpt lat="43.55426" lon="11.6833167"><ele>294.0</ele><time>2026-03-28T09:09:56.473Z</time></trkpt><trkpt lat="43.5542267" lon="11.68343"><ele>294.0</ele><time>2026-03-28T09:09:57.47Z</time></trkpt><trkpt lat="43.5541917" lon="11.68354"><ele>294.0</ele><time>2026-03-28T09:09:58.473Z</time></trkpt><trkpt lat="43.55415" lon="11.6836467"><ele>294.0</ele><time>2026-03-28T09:09:59.471Z</time></trkpt><trkpt lat="43.5540983" lon="11.6837467"><ele>293.3333333333333</ele><time>2026-03-28T09:10:00.472Z</time></trkpt><trkpt lat="43.5540367" lon="11.6838367"><ele>292.6666666666667</ele><time>2026-03-28T09:10:01.471Z</time></trkpt><trkpt lat="43.5539717" lon="11.6839183"><ele>292.0</ele><time>2026-03-28T09:10:02.472Z</time></trkpt><trkpt lat="43.553905" lon="11.6839967"><ele>291.33333333333337</ele><time>2026-03-28T09:10:03.471Z</time></trkpt><trkpt lat="43.5538383" lon="11.6840767"><ele>290.6666666666667</ele><time>2026-03-28T09:10:04.471Z</time></trkpt><trkpt lat="43.5537667" lon="11.684155"><ele>290.0</ele><time>2026-03-28T09:10:05.47Z</time></trkpt><trkpt lat="43.5536967" lon="11.6842333"><ele>290.0</ele><time>2026-03-28T09:10:06.471Z</time></trkpt><trkpt lat="43.5536267" lon="11.6843117"><ele>290.0</ele><time>2026-03-28T09:10:07.471Z</time></trkpt><trkpt lat="43.5535567" lon="11.68439"><ele>290.0</ele><time>2026-03-28T09:10:08.472Z</time></trkpt><trkpt lat="43.553485" lon="11.6844667"><ele>290.0</ele><time>2026-03-28T09:10:09.471Z</time></trkpt><trkpt lat="43.5534167" lon="11.68455"><ele>290.0</ele><time>2026-03-28T09:10:10.47Z</time></trkpt><trkpt lat="43.5533533" lon="11.6846383"><ele>292.0</ele><time>2026-03-28T09:10:11.472Z</time></trkpt><trkpt lat="43.5532933" lon="11.6847383"><ele>294.0</ele><time>2026-03-28T09:10:12.471Z</time></trkpt><trkpt lat="43.5532367" lon="11.684845"><ele>296.0</ele><time>2026-03-28T09:10:13.472Z</time></trkpt><trkpt lat="43.553185" lon="11.6849567"><ele>298.0</ele><time>2026-03-28T09:10:14.471Z</time></trkpt><trkpt lat="43.5531317" lon="11.68507"><ele>300.0</ele><time>2026-03-28T09:10:15.47Z</time></trkpt><trkpt lat="43.5530817" lon="11.6851833"><ele>300.8</ele><time>2026-03-28T09:10:16.471Z</time></trkpt><trkpt lat="43.553035" lon="11.6852983"><ele>301.6</ele><time>2026-03-28T09:10:17.47Z</time></trkpt><trkpt lat="43.552985" lon="11.6854117"><ele>302.4</ele><time>2026-03-28T09:10:18.469Z</time></trkpt><trkpt lat="43.55293" lon="11.685525"><ele>303.2</ele><time>2026-03-28T09:10:19.47Z</time></trkpt><trkpt lat="43.55287" lon="11.685635"><ele>304.0</ele><time>2026-03-28T09:10:20.47Z</time></trkpt><trkpt lat="43.5528067" lon="11.6857417"><ele>302.0</ele><time>2026-03-28T09:10:21.47Z</time></trkpt><trkpt lat="43.55274" lon="11.6858417"><ele>300.0</ele><time>2026-03-28T09:10:22.472Z</time></trkpt><trkpt lat="43.5526717" lon="11.6859367"><ele>298.0</ele><time>2026-03-28T09:10:23.47Z</time></trkpt><trkpt lat="43.5526083" lon="11.6860317"><ele>296.0</ele><time>2026-03-28T09:10:24.47Z</time></trkpt><trkpt lat="43.55255" lon="11.686135"><ele>294.0</ele><time>2026-03-28T09:10:25.471Z</time></trkpt><trkpt lat="43.552505" lon="11.6862483"><ele>294.0</ele><time>2026-03-28T09:10:26.471Z</time></trkpt><trkpt lat="43.552475" lon="11.68637"><ele>294.0</ele><time>2026-03-28T09:10:27.469Z</time></trkpt><trkpt lat="43.552465" lon="11.6864983"><ele>294.0</ele><time>2026-03-28T09:10:28.469Z</time></trkpt><trkpt lat="43.5524583" lon="11.6866283"><ele>294.0</ele><time>2026-03-28T09:10:29.47Z</time></trkpt><trkpt lat="43.5524417" lon="11.68676"><ele>294.0</ele><time>2026-03-28T09:10:30.47Z</time></trkpt><trkpt lat="43.552415" lon="11.68689"><ele>294.8</ele><time>2026-03-28T09:10:31.472Z</time></trkpt><trkpt lat="43.5523733" lon="11.6870117"><ele>295.59999999999997</ele><time>2026-03-28T09:10:32.471Z</time></trkpt><trkpt lat="43.5523183" lon="11.6871217"><ele>296.4</ele><time>2026-03-28T09:10:33.471Z</time></trkpt><trkpt lat="43.55226" lon="11.6872217"><ele>297.2</ele><time>2026-03-28T09:10:34.471Z</time></trkpt><trkpt lat="43.5521983" lon="11.6873183"><ele>298.0</ele><time>2026-03-28T09:10:35.471Z</time></trkpt><trkpt lat="43.552135" lon="11.68741"><ele>298.0</ele><time>2026-03-28T09:10:36.469Z</time></trkpt><trkpt lat="43.552075" lon="11.6875"><ele>298.0</ele><time>2026-03-28T09:10:37.471Z</time></trkpt><trkpt lat="43.5520133" lon="11.6875917"><ele>298.0</ele><time>2026-03-28T09:10:38.471Z</time></trkpt><trkpt lat="43.551955" lon="11.68768"><ele>298.0</ele><time>2026-03-28T09:10:39.471Z</time></trkpt><trkpt lat="43.551895" lon="11.68777"><ele>298.0</ele><time>2026-03-28T09:10:40.471Z</time></trkpt><trkpt lat="43.5518367" lon="11.6878583"><ele>298.0</ele><time>2026-03-28T09:10:41.47Z</time></trkpt><trkpt lat="43.5517733" lon="11.6879433"><ele>297.3333333333333</ele><time>2026-03-28T09:10:42.47Z</time></trkpt><trkpt lat="43.5517167" lon="11.6880317"><ele>296.66666666666663</ele><time>2026-03-28T09:10:43.472Z</time></trkpt><trkpt lat="43.5516583" lon="11.6881217"><ele>296.0</ele><time>2026-03-28T09:10:44.474Z</time></trkpt><trkpt lat="43.551605" lon="11.6882167"><ele>295.3333333333333</ele><time>2026-03-28T09:10:45.471Z</time></trkpt><trkpt lat="43.5515567" lon="11.6883117"><ele>294.6666666666667</ele><time>2026-03-28T09:10:46.473Z</time></trkpt><trkpt lat="43.5515117" lon="11.6884117"><ele>294.0</ele><time>2026-03-28T09:10:47.47Z</time></trkpt><trkpt lat="43.551475" lon="11.6885117"><ele>295.0</ele><time>2026-03-28T09:10:48.473Z</time></trkpt><trkpt lat="43.55144" lon="11.6886117"><ele>296.0</ele><time>2026-03-28T09:10:49.47Z</time></trkpt><trkpt lat="43.5514083" lon="11.688715"><ele>297.0</ele><time>2026-03-28T09:10:50.472Z</time></trkpt><trkpt lat="43.5513783" lon="11.6888183"><ele>298.0</ele><time>2026-03-28T09:10:51.469Z</time></trkpt><trkpt lat="43.551345" lon="11.6889217"><ele>299.0</ele><time>2026-03-28T09:10:52.471Z</time></trkpt><trkpt lat="43.551315" lon="11.689025"><ele>300.0</ele><time>2026-03-28T09:10:53.471Z</time></trkpt><trkpt lat="43.5512883" lon="11.6891283"><ele>300.0</ele><time>2026-03-28T09:10:54.472Z</time></trkpt><trkpt lat="43.5512583" lon="11.68923"><ele>300.0</ele><time>2026-03-28T09:10:55.47Z</time></trkpt><trkpt lat="43.5512317" lon="11.6893317"><ele>300.0</ele><time>2026-03-28T09:10:56.472Z</time></trkpt><trkpt lat="43.5512117" lon="11.6894367"><ele>300.0</ele><time>2026-03-28T09:10:57.469Z</time></trkpt><trkpt lat="43.551195" lon="11.6895433"><ele>300.0</ele><time>2026-03-28T09:10:58.469Z</time></trkpt><trkpt lat="43.55119" lon="11.6896517"><ele>300.0</ele><time>2026-03-28T09:10:59.471Z</time></trkpt><trkpt lat="43.551195" lon="11.6897583"><ele>300.0</ele><time>2026-03-28T09:11:00.471Z</time></trkpt><trkpt lat="43.551205" lon="11.689865"><ele>300.0</ele><time>2026-03-28T09:11:01.469Z</time></trkpt><trkpt lat="43.5512217" lon="11.6899717"><ele>300.0</ele><time>2026-03-28T09:11:02.471Z</time></trkpt><trkpt lat="43.5512383" lon="11.6900817"><ele>300.0</ele><time>2026-03-28T09:11:03.471Z</time></trkpt><trkpt lat="43.5512383" lon="11.690195"><ele>300.0</ele><time>2026-03-28T09:11:04.47Z</time></trkpt><trkpt lat="43.5512167" lon="11.6903017"><ele>300.0</ele><time>2026-03-28T09:11:05.471Z</time></trkpt><trkpt lat="43.5511717" lon="11.6903967"><ele>300.0</ele><time>2026-03-28T09:11:06.473Z</time></trkpt><trkpt lat="43.5510983" lon="11.6904667"><ele>300.0</ele><time>2026-03-28T09:11:07.473Z</time></trkpt><trkpt lat="43.5510167" lon="11.6905133"><ele>300.0</ele><time>2026-03-28T09:11:08.473Z</time></trkpt><trkpt lat="43.5509383" lon="11.69055"><ele>300.0</ele><time>2026-03-28T09:11:09.471Z</time></trkpt><trkpt lat="43.5508567" lon="11.6905883"><ele>300.0</ele><time>2026-03-28T09:11:10.471Z</time></trkpt><trkpt lat="43.5507817" lon="11.6906317"><ele>300.0</ele><time>2026-03-28T09:11:11.473Z</time></trkpt><trkpt lat="43.550705" lon="11.6906767"><ele>300.0</ele><time>2026-03-28T09:11:12.471Z</time></trkpt><trkpt lat="43.5506333" lon="11.690725"><ele>300.0</ele><time>2026-03-28T09:11:13.471Z</time></trkpt><trkpt lat="43.5505633" lon="11.6907817"><ele>300.0</ele><time>2026-03-28T09:11:14.471Z</time></trkpt><trkpt lat="43.5504967" lon="11.6908467"><ele>300.0</ele><time>2026-03-28T09:11:15.471Z</time></trkpt><trkpt lat="43.5504333" lon="11.6909183"><ele>300.0</ele><time>2026-03-28T09:11:16.471Z</time></trkpt><trkpt lat="43.550375" lon="11.6909967"><ele>300.0</ele><time>2026-03-28T09:11:17.471Z</time></trkpt><trkpt lat="43.5503217" lon="11.6910817"><ele>298.6666666666667</ele><time>2026-03-28T09:11:18.469Z</time></trkpt><trkpt lat="43.5502717" lon="11.691175"><ele>297.3333333333333</ele><time>2026-03-28T09:11:19.47Z</time></trkpt><trkpt lat="43.5502283" lon="11.691275"><ele>296.0</ele><time>2026-03-28T09:11:20.471Z</time></trkpt><trkpt lat="43.5501917" lon="11.6913817"><ele>294.66666666666663</ele><time>2026-03-28T09:11:21.47Z</time></trkpt><trkpt lat="43.5501633" lon="11.691495"><ele>293.3333333333333</ele><time>2026-03-28T09:11:22.473Z</time></trkpt><trkpt lat="43.5501417" lon="11.6916133"><ele>292.0</ele><time>2026-03-28T09:11:23.471Z</time></trkpt><trkpt lat="43.5501133" lon="11.6917317"><ele>292.0</ele><time>2026-03-28T09:11:24.47Z</time></trkpt><trkpt lat="43.550085" lon="11.6918567"><ele>292.0</ele><time>2026-03-28T09:11:25.471Z</time></trkpt><trkpt lat="43.55006" lon="11.691985"><ele>292.0</ele><time>2026-03-28T09:11:26.472Z</time></trkpt><trkpt lat="43.55004" lon="11.6921117"><ele>292.0</ele><time>2026-03-28T09:11:27.471Z</time></trkpt><trkpt lat="43.5500183" lon="11.6922433"><ele>292.0</ele><time>2026-03-28T09:11:28.472Z</time></trkpt><trkpt lat="43.5499917" lon="11.6923783"><ele>292.2</ele><time>2026-03-28T09:11:29.473Z</time></trkpt><trkpt lat="43.54996" lon="11.692515"><ele>292.4</ele><time>2026-03-28T09:11:30.471Z</time></trkpt><trkpt lat="43.5499167" lon="11.6926467"><ele>292.6</ele><time>2026-03-28T09:11:31.47Z</time></trkpt><trkpt lat="43.54986" lon="11.6927667"><ele>292.8</ele><time>2026-03-28T09:11:32.473Z</time></trkpt><trkpt lat="43.5497933" lon="11.69288"><ele>293.0</ele><time>2026-03-28T09:11:33.47Z</time></trkpt><trkpt lat="43.5497233" lon="11.69299"><ele>292.2</ele><time>2026-03-28T09:11:34.47Z</time></trkpt><trkpt lat="43.5496567" lon="11.6931033"><ele>291.4</ele><time>2026-03-28T09:11:35.471Z</time></trkpt><trkpt lat="43.5495917" lon="11.69322"><ele>290.59999999999997</ele><time>2026-03-28T09:11:36.47Z</time></trkpt><trkpt lat="43.5495333" lon="11.6933483"><ele>289.8</ele><time>2026-03-28T09:11:37.471Z</time></trkpt><trkpt lat="43.54948" lon="11.6934783"><ele>289.0</ele><time>2026-03-28T09:11:38.47Z</time></trkpt><trkpt lat="43.5494317" lon="11.69361"><ele>289.0</ele><time>2026-03-28T09:11:39.471Z</time></trkpt><trkpt lat="43.549385" lon="11.6937433"><ele>289.0</ele><time>2026-03-28T09:11:40.471Z</time></trkpt><trkpt lat="43.54934" lon="11.6938783"><ele>289.0</ele><time>2026-03-28T09:11:41.471Z</time></trkpt><trkpt lat="43.5493033" lon="11.6940117"><ele>289.0</ele><time>2026-03-28T09:11:42.471Z</time></trkpt><trkpt lat="43.5492783" lon="11.6941467"><ele>289.0</ele><time>2026-03-28T09:11:43.474Z</time></trkpt><trkpt lat="43.549265" lon="11.6942817"><ele>289.0</ele><time>2026-03-28T09:11:44.471Z</time></trkpt><trkpt lat="43.5492567" lon="11.6944133"><ele>289.0</ele><time>2026-03-28T09:11:45.473Z</time></trkpt><trkpt lat="43.549255" lon="11.6945467"><ele>289.0</ele><time>2026-03-28T09:11:46.472Z</time></trkpt><trkpt lat="43.5492483" lon="11.6946767"><ele>289.0</ele><time>2026-03-28T09:11:47.471Z</time></trkpt><trkpt lat="43.5492467" lon="11.694805"><ele>289.0</ele><time>2026-03-28T09:11:48.469Z</time></trkpt><trkpt lat="43.549245" lon="11.69493"><ele>289.16666666666663</ele><time>2026-03-28T09:11:49.47Z</time></trkpt><trkpt lat="43.5492417" lon="11.6950517"><ele>289.3333333333333</ele><time>2026-03-28T09:11:50.471Z</time></trkpt><trkpt lat="43.5492283" lon="11.69517"><ele>289.5</ele><time>2026-03-28T09:11:51.472Z</time></trkpt><trkpt lat="43.5492017" lon="11.6952833"><ele>289.6666666666667</ele><time>2026-03-28T09:11:52.471Z</time></trkpt><trkpt lat="43.54916" lon="11.6953867"><ele>289.83333333333337</ele><time>2026-03-28T09:11:53.473Z</time></trkpt><trkpt lat="43.5491067" lon="11.6954783"><ele>290.0</ele><time>2026-03-28T09:11:54.47Z</time></trkpt><trkpt lat="43.5490383" lon="11.6955517"><ele>290.1666666666667</ele><time>2026-03-28T09:11:55.471Z</time></trkpt><trkpt lat="43.5489683" lon="11.69561"><ele>290.33333333333337</ele><time>2026-03-28T09:11:56.471Z</time></trkpt><trkpt lat="43.5488917" lon="11.6956533"><ele>290.5</ele><time>2026-03-28T09:11:57.471Z</time></trkpt><trkpt lat="43.5488133" lon="11.695685"><ele>290.6666666666667</ele><time>2026-03-28T09:11:58.471Z</time></trkpt><trkpt lat="43.5487367" lon="11.69571"><ele>290.8333333333333</ele><time>2026-03-28T09:11:59.47Z</time></trkpt><trkpt lat="43.5486617" lon="11.6957383"><ele>291.0</ele><time>2026-03-28T09:12:00.469Z</time></trkpt><trkpt lat="43.54859" lon="11.69578"><ele>291.0</ele><time>2026-03-28T09:12:01.472Z</time></trkpt><trkpt lat="43.5485283" lon="11.69585"><ele>291.0</ele><time>2026-03-28T09:12:02.472Z</time></trkpt><trkpt lat="43.5484817" lon="11.6959417"><ele>291.0</ele><time>2026-03-28T09:12:03.471Z</time></trkpt><trkpt lat="43.54845" lon="11.6960483"><ele>291.0</ele><time>2026-03-28T09:12:04.471Z</time></trkpt><trkpt lat="43.5484317" lon="11.6961633"><ele>291.0</ele><time>2026-03-28T09:12:05.469Z</time></trkpt><trkpt lat="43.54843" lon="11.6962767"><ele>291.0</ele><time>2026-03-28T09:12:06.471Z</time></trkpt><trkpt lat="43.5484433" lon="11.6963917"><ele>290.8333333333333</ele><time>2026-03-28T09:12:07.47Z</time></trkpt><trkpt lat="43.5484667" lon="11.6965033"><ele>290.6666666666667</ele><time>2026-03-28T09:12:08.471Z</time></trkpt><trkpt lat="43.5484967" lon="11.6966117"><ele>290.5</ele><time>2026-03-28T09:12:09.473Z</time></trkpt><trkpt lat="43.5485317" lon="11.6967167"><ele>290.33333333333337</ele><time>2026-03-28T09:12:10.47Z</time></trkpt><trkpt lat="43.5485683" lon="11.6968267"><ele>290.1666666666667</ele><time>2026-03-28T09:12:11.471Z</time></trkpt><trkpt lat="43.5486017" lon="11.6969367"><ele>290.0</ele><time>2026-03-28T09:12:12.472Z</time></trkpt><trkpt lat="43.548635" lon="11.6970483"><ele>290.0</ele><time>2026-03-28T09:12:13.471Z</time></trkpt><trkpt lat="43.5486633" lon="11.6971567"><ele>290.0</ele><time>2026-03-28T09:12:14.473Z</time></trkpt><trkpt lat="43.5486917" lon="11.6972633"><ele>290.0</ele><time>2026-03-28T09:12:15.473Z</time></trkpt><trkpt lat="43.54872" lon="11.6973667"><ele>290.0</ele><time>2026-03-28T09:12:16.471Z</time></trkpt><trkpt lat="43.54875" lon="11.69747"><ele>290.0</ele><time>2026-03-28T09:12:17.473Z</time></trkpt><trkpt lat="43.54878" lon="11.6975717"><ele>290.0</ele><time>2026-03-28T09:12:18.472Z</time></trkpt><trkpt lat="43.5488083" lon="11.6976733"><ele>291.7142857142857</ele><time>2026-03-28T09:12:19.472Z</time></trkpt><trkpt lat="43.548835" lon="11.6977717"><ele>293.42857142857144</ele><time>2026-03-28T09:12:20.474Z</time></trkpt><trkpt lat="43.54886" lon="11.6978633"><ele>295.14285714285717</ele><time>2026-03-28T09:12:21.471Z</time></trkpt><trkpt lat="43.5488867" lon="11.6979583"><ele>296.8571428571429</ele><time>2026-03-28T09:12:22.471Z</time></trkpt><trkpt lat="43.548915" lon="11.6980483"><ele>298.57142857142856</ele><time>2026-03-28T09:12:23.471Z</time></trkpt><trkpt lat="43.5489417" lon="11.6981417"><ele>300.28571428571433</ele><time>2026-03-28T09:12:24.47Z</time></trkpt><trkpt lat="43.5489683" lon="11.698235"><ele>302.0</ele><time>2026-03-28T09:12:25.471Z</time></trkpt><trkpt lat="43.5489967" lon="11.6983283"><ele>302.00000000000006</ele><time>2026-03-28T09:12:26.473Z</time></trkpt><trkpt lat="43.549025" lon="11.698425"><ele>302.0</ele><time>2026-03-28T09:12:27.474Z</time></trkpt><trkpt lat="43.5490517" lon="11.6985167"><ele>302.0</ele><time>2026-03-28T09:12:28.471Z</time></trkpt><trkpt lat="43.54908" lon="11.6986117"><ele>302.0</ele><time>2026-03-28T09:12:29.472Z</time></trkpt><trkpt lat="43.5491083" lon="11.6987017"><ele>302.0</ele><time>2026-03-28T09:12:30.472Z</time></trkpt><trkpt lat="43.549135" lon="11.698795"><ele>302.00000000000006</ele><time>2026-03-28T09:12:31.469Z</time></trkpt><trkpt lat="43.5491617" lon="11.6988867"><ele>302.0</ele><time>2026-03-28T09:12:32.473Z</time></trkpt><trkpt lat="43.549185" lon="11.6989783"><ele>302.00000000000006</ele><time>2026-03-28T09:12:33.473Z</time></trkpt><trkpt lat="43.54921" lon="11.6990683"><ele>302.0</ele><time>2026-03-28T09:12:34.473Z</time></trkpt><trkpt lat="43.5492367" lon="11.699155"><ele>302.0</ele><time>2026-03-28T09:12:35.471Z</time></trkpt><trkpt lat="43.5492617" lon="11.6992433"><ele>302.0</ele><time>2026-03-28T09:12:36.472Z</time></trkpt><trkpt lat="43.54929" lon="11.699335"><ele>302.0</ele><time>2026-03-28T09:12:37.473Z</time></trkpt><trkpt lat="43.54932" lon="11.699425"><ele>302.00000000000006</ele><time>2026-03-28T09:12:38.472Z</time></trkpt><trkpt lat="43.549345" lon="11.699515"><ele>302.0</ele><time>2026-03-28T09:12:39.471Z</time></trkpt><trkpt lat="43.5493717" lon="11.6996017"><ele>302.14285714285717</ele><time>2026-03-28T09:12:40.471Z</time></trkpt><trkpt lat="43.5494" lon="11.6996883"><ele>302.2857142857143</ele><time>2026-03-28T09:12:41.47Z</time></trkpt><trkpt lat="43.5494267" lon="11.69978"><ele>302.42857142857144</ele><time>2026-03-28T09:12:42.471Z</time></trkpt><trkpt lat="43.5494533" lon="11.6998683"><ele>302.57142857142856</ele><time>2026-03-28T09:12:43.471Z</time></trkpt><trkpt lat="43.54948" lon="11.69996"><ele>302.7142857142857</ele><time>2026-03-28T09:12:44.473Z</time></trkpt><trkpt lat="43.5495083" lon="11.7000483"><ele>302.8571428571429</ele><time>2026-03-28T09:12:45.472Z</time></trkpt><trkpt lat="43.5495333" lon="11.700135"><ele>303.0</ele><time>2026-03-28T09:12:46.471Z</time></trkpt><trkpt lat="43.5495617" lon="11.7002217"><ele>303.2857142857143</ele><time>2026-03-28T09:12:47.471Z</time></trkpt><trkpt lat="43.5495883" lon="11.7003083"><ele>303.57142857142856</ele><time>2026-03-28T09:12:48.471Z</time></trkpt><trkpt lat="43.549615" lon="11.700395"><ele>303.8571428571429</ele><time>2026-03-28T09:12:49.473Z</time></trkpt><trkpt lat="43.5496417" lon="11.7004833"><ele>304.1428571428571</ele><time>2026-03-28T09:12:50.472Z</time></trkpt><trkpt lat="43.5496667" lon="11.700575"><ele>304.4285714285714</ele><time>2026-03-28T09:12:51.472Z</time></trkpt><trkpt lat="43.54969" lon="11.7006617"><ele>304.7142857142857</ele><time>2026-03-28T09:12:52.471Z</time></trkpt><trkpt lat="43.5497167" lon="11.7007517"><ele>305.0</ele><time>2026-03-28T09:12:53.471Z</time></trkpt><trkpt lat="43.54974" lon="11.7008383"><ele>305.0</ele><time>2026-03-28T09:12:54.473Z</time></trkpt><trkpt lat="43.5497667" lon="11.70093"><ele>305.0</ele><time>2026-03-28T09:12:55.473Z</time></trkpt><trkpt lat="43.5497917" lon="11.70102"><ele>305.0</ele><time>2026-03-28T09:12:56.471Z</time></trkpt><trkpt lat="43.5498133" lon="11.7011067"><ele>305.0</ele><time>2026-03-28T09:12:57.472Z</time></trkpt><trkpt lat="43.5498383" lon="11.7011933"><ele>305.0</ele><time>2026-03-28T09:12:58.47Z</time></trkpt><trkpt lat="43.54986" lon="11.701285"><ele>305.0</ele><time>2026-03-28T09:12:59.471Z</time></trkpt><trkpt lat="43.5498867" lon="11.7013767"><ele>305.0</ele><time>2026-03-28T09:13:00.47Z</time></trkpt><trkpt lat="43.5499167" lon="11.70147"><ele>304.6666666666667</ele><time>2026-03-28T09:13:01.473Z</time></trkpt><trkpt lat="43.549945" lon="11.7015617"><ele>304.33333333333337</ele><time>2026-03-28T09:13:02.474Z</time></trkpt><trkpt lat="43.549975" lon="11.7016567"><ele>304.0</ele><time>2026-03-28T09:13:03.473Z</time></trkpt><trkpt lat="43.5500117" lon="11.7017567"><ele>303.6666666666667</ele><time>2026-03-28T09:13:04.472Z</time></trkpt><trkpt lat="43.5500417" lon="11.701855"><ele>303.3333333333333</ele><time>2026-03-28T09:13:05.47Z</time></trkpt><trkpt lat="43.5500783" lon="11.70196"><ele>303.0</ele><time>2026-03-28T09:13:06.472Z</time></trkpt><trkpt lat="43.5501167" lon="11.7020633"><ele>302.6666666666667</ele><time>2026-03-28T09:13:07.472Z</time></trkpt><trkpt lat="43.5501583" lon="11.7021667"><ele>302.3333333333333</ele><time>2026-03-28T09:13:08.473Z</time></trkpt><trkpt lat="43.5501983" lon="11.70227"><ele>302.0</ele><time>2026-03-28T09:13:09.474Z</time></trkpt><trkpt lat="43.5502367" lon="11.7023733"><ele>301.66666666666663</ele><time>2026-03-28T09:13:10.471Z</time></trkpt><trkpt lat="43.5502767" lon="11.7024767"><ele>301.3333333333333</ele><time>2026-03-28T09:13:11.47Z</time></trkpt><trkpt lat="43.5503183" lon="11.70258"><ele>301.0</ele><time>2026-03-28T09:13:12.471Z</time></trkpt><trkpt lat="43.5503617" lon="11.7026783"><ele>301.8333333333333</ele><time>2026-03-28T09:13:13.474Z</time></trkpt><trkpt lat="43.550405" lon="11.7027833"><ele>302.66666666666663</ele><time>2026-03-28T09:13:14.472Z</time></trkpt><trkpt lat="43.5504517" lon="11.702885"><ele>303.5</ele><time>2026-03-28T09:13:15.471Z</time></trkpt><trkpt lat="43.5505" lon="11.7029817"><ele>304.3333333333333</ele><time>2026-03-28T09:13:16.47Z</time></trkpt><trkpt lat="43.55055" lon="11.7030817"><ele>305.1666666666667</ele><time>2026-03-28T09:13:17.471Z</time></trkpt><trkpt lat="43.5506017" lon="11.7031867"><ele>306.0</ele><time>2026-03-28T09:13:18.474Z</time></trkpt><trkpt lat="43.550655" lon="11.7032933"><ele>306.0</ele><time>2026-03-28T09:13:19.471Z</time></trkpt><trkpt lat="43.5507117" lon="11.7033983"><ele>306.0</ele><time>2026-03-28T09:13:20.472Z</time></trkpt><trkpt lat="43.5507667" lon="11.7034917"><ele>306.0</ele><time>2026-03-28T09:13:21.47Z</time></trkpt><trkpt lat="43.55082" lon="11.70359"><ele>306.0</ele><time>2026-03-28T09:13:22.471Z</time></trkpt><trkpt lat="43.550875" lon="11.7036883"><ele>306.0</ele><time>2026-03-28T09:13:23.471Z</time></trkpt><trkpt lat="43.5509283" lon="11.7037817"><ele>306.0</ele><time>2026-03-28T09:13:24.471Z</time></trkpt><trkpt lat="43.550985" lon="11.7038783"><ele>305.6666666666667</ele><time>2026-03-28T09:13:25.472Z</time></trkpt><trkpt lat="43.5510417" lon="11.7039733"><ele>305.3333333333333</ele><time>2026-03-28T09:13:26.472Z</time></trkpt><trkpt lat="43.5510967" lon="11.7040683"><ele>305.0</ele><time>2026-03-28T09:13:27.47Z</time></trkpt><trkpt lat="43.551155" lon="11.7041567"><ele>304.66666666666663</ele><time>2026-03-28T09:13:28.47Z</time></trkpt><trkpt lat="43.5512217" lon="11.70424"><ele>304.3333333333333</ele><time>2026-03-28T09:13:29.471Z</time></trkpt><trkpt lat="43.5512867" lon="11.7043183"><ele>304.0</ele><time>2026-03-28T09:13:30.472Z</time></trkpt><trkpt lat="43.5513533" lon="11.7043833"><ele>302.8</ele><time>2026-03-28T09:13:31.472Z</time></trkpt><trkpt lat="43.551435" lon="11.7044217"><ele>301.59999999999997</ele><time>2026-03-28T09:13:32.471Z</time></trkpt><trkpt lat="43.5515317" lon="11.704445"><ele>300.4</ele><time>2026-03-28T09:13:33.471Z</time></trkpt><trkpt lat="43.5516283" lon="11.704465"><ele>299.2</ele><time>2026-03-28T09:13:34.471Z</time></trkpt><trkpt lat="43.5517233" lon="11.7044867"><ele>298.0</ele><time>2026-03-28T09:13:35.472Z</time></trkpt><trkpt lat="43.5518133" lon="11.7045167"><ele>298.0</ele><time>2026-03-28T09:13:36.472Z</time></trkpt><trkpt lat="43.5519033" lon="11.7045717"><ele>298.0</ele><time>2026-03-28T09:13:37.474Z</time></trkpt><trkpt lat="43.5519817" lon="11.7046483"><ele>298.0</ele><time>2026-03-28T09:13:38.472Z</time></trkpt><trkpt lat="43.5520483" lon="11.70475"><ele>298.0</ele><time>2026-03-28T09:13:39.472Z</time></trkpt><trkpt lat="43.5520967" lon="11.7048683"><ele>298.0</ele><time>2026-03-28T09:13:40.475Z</time></trkpt><trkpt lat="43.5521317" lon="11.7049967"><ele>298.2</ele><time>2026-03-28T09:13:41.47Z</time></trkpt><trkpt lat="43.5521567" lon="11.7051267"><ele>298.4</ele><time>2026-03-28T09:13:42.471Z</time></trkpt><trkpt lat="43.5521833" lon="11.7052583"><ele>298.59999999999997</ele><time>2026-03-28T09:13:43.473Z</time></trkpt><trkpt lat="43.5522083" lon="11.7053867"><ele>298.8</ele><time>2026-03-28T09:13:44.472Z</time></trkpt><trkpt lat="43.55223" lon="11.7055117"><ele>299.0</ele><time>2026-03-28T09:13:45.471Z</time></trkpt><trkpt lat="43.552255" lon="11.7056367"><ele>299.33333333333337</ele><time>2026-03-28T09:13:46.47Z</time></trkpt><trkpt lat="43.5522833" lon="11.7057567"><ele>299.6666666666667</ele><time>2026-03-28T09:13:47.472Z</time></trkpt><trkpt lat="43.5523067" lon="11.7058733"><ele>300.0</ele><time>2026-03-28T09:13:48.471Z</time></trkpt><trkpt lat="43.5523317" lon="11.705985"><ele>300.3333333333333</ele><time>2026-03-28T09:13:49.47Z</time></trkpt><trkpt lat="43.5523583" lon="11.706095"><ele>300.66666666666663</ele><time>2026-03-28T09:13:50.472Z</time></trkpt><trkpt lat="43.5523833" lon="11.7061967"><ele>301.0</ele><time>2026-03-28T09:13:51.47Z</time></trkpt><trkpt lat="43.5524033" lon="11.7062933"><ele>301.2857142857143</ele><time>2026-03-28T09:13:52.471Z</time></trkpt><trkpt lat="43.5524217" lon="11.7063917"><ele>301.57142857142856</ele><time>2026-03-28T09:13:53.471Z</time></trkpt><trkpt lat="43.5524417" lon="11.7064867"><ele>301.8571428571429</ele><time>2026-03-28T09:13:54.471Z</time></trkpt><trkpt lat="43.5524633" lon="11.70658"><ele>302.1428571428571</ele><time>2026-03-28T09:13:55.471Z</time></trkpt><trkpt lat="43.552485" lon="11.706665"><ele>302.42857142857144</ele><time>2026-03-28T09:13:56.471Z</time></trkpt><trkpt lat="43.5525167" lon="11.706745"><ele>302.7142857142857</ele><time>2026-03-28T09:13:57.471Z</time></trkpt><trkpt lat="43.552555" lon="11.706825"><ele>303.0</ele><time>2026-03-28T09:13:58.469Z</time></trkpt><trkpt lat="43.552595" lon="11.7069033"><ele>303.42857142857144</ele><time>2026-03-28T09:13:59.473Z</time></trkpt><trkpt lat="43.552635" lon="11.7069783"><ele>303.85714285714283</ele><time>2026-03-28T09:14:00.469Z</time></trkpt><trkpt lat="43.552675" lon="11.707055"><ele>304.2857142857143</ele><time>2026-03-28T09:14:01.469Z</time></trkpt><trkpt lat="43.5527167" lon="11.7071333"><ele>304.7142857142857</ele><time>2026-03-28T09:14:02.47Z</time></trkpt><trkpt lat="43.5527583" lon="11.7072083"><ele>305.14285714285717</ele><time>2026-03-28T09:14:03.469Z</time></trkpt><trkpt lat="43.5528" lon="11.7072833"><ele>305.57142857142856</ele><time>2026-03-28T09:14:04.469Z</time></trkpt><trkpt lat="43.55284" lon="11.7073667"><ele>306.0</ele><time>2026-03-28T09:14:05.469Z</time></trkpt><trkpt lat="43.55288" lon="11.7074567"><ele>306.2857142857143</ele><time>2026-03-28T09:14:06.469Z</time></trkpt><trkpt lat="43.5529183" lon="11.7075383"><ele>306.57142857142856</ele><time>2026-03-28T09:14:07.469Z</time></trkpt><trkpt lat="43.5529567" lon="11.70762"><ele>306.8571428571429</ele><time>2026-03-28T09:14:08.469Z</time></trkpt><trkpt lat="43.5529967" lon="11.7076967"><ele>307.1428571428571</ele><time>2026-03-28T09:14:09.468Z</time></trkpt><trkpt lat="43.5530367" lon="11.7077717"><ele>307.42857142857144</ele><time>2026-03-28T09:14:10.468Z</time></trkpt><trkpt lat="43.5530767" lon="11.7078467"><ele>307.7142857142857</ele><time>2026-03-28T09:14:11.469Z</time></trkpt><trkpt lat="43.55311" lon="11.7079333"><ele>308.0</ele><time>2026-03-28T09:14:12.469Z</time></trkpt><trkpt lat="43.5531333" lon="11.70803"><ele>308.0</ele><time>2026-03-28T09:14:13.47Z</time></trkpt><trkpt lat="43.5531483" lon="11.7081317"><ele>308.0</ele><time>2026-03-28T09:14:14.469Z</time></trkpt><trkpt lat="43.5531617" lon="11.7082383"><ele>308.0</ele><time>2026-03-28T09:14:15.469Z</time></trkpt><trkpt lat="43.5531733" lon="11.7083517"><ele>308.0</ele><time>2026-03-28T09:14:16.469Z</time></trkpt><trkpt lat="43.5531833" lon="11.7084633"><ele>308.0</ele><time>2026-03-28T09:14:17.472Z</time></trkpt><trkpt lat="43.55319" lon="11.70857"><ele>308.0</ele><time>2026-03-28T09:14:18.468Z</time></trkpt><trkpt lat="43.5531917" lon="11.7086767"><ele>308.0</ele><time>2026-03-28T09:14:19.47Z</time></trkpt><trkpt lat="43.5531817" lon="11.7087833"><ele>308.0</ele><time>2026-03-28T09:14:20.471Z</time></trkpt><trkpt lat="43.5531767" lon="11.7088883"><ele>308.0</ele><time>2026-03-28T09:14:21.469Z</time></trkpt><trkpt lat="43.5531783" lon="11.7089917"><ele>308.0</ele><time>2026-03-28T09:14:22.469Z</time></trkpt><trkpt lat="43.5531817" lon="11.7090983"><ele>308.0</ele><time>2026-03-28T09:14:23.47Z</time></trkpt><trkpt lat="43.5531883" lon="11.70921"><ele>308.0</ele><time>2026-03-28T09:14:24.468Z</time></trkpt><trkpt lat="43.5531917" lon="11.70932"><ele>307.83333333333337</ele><time>2026-03-28T09:14:25.469Z</time></trkpt><trkpt lat="43.5531933" lon="11.7094283"><ele>307.6666666666667</ele><time>2026-03-28T09:14:26.471Z</time></trkpt><trkpt lat="43.5531983" lon="11.7095383"><ele>307.5</ele><time>2026-03-28T09:14:27.469Z</time></trkpt><trkpt lat="43.553195" lon="11.7096433"><ele>307.3333333333333</ele><time>2026-03-28T09:14:28.471Z</time></trkpt><trkpt lat="43.553195" lon="11.70974"><ele>307.16666666666663</ele><time>2026-03-28T09:14:29.469Z</time></trkpt><trkpt lat="43.5532" lon="11.7098283"><ele>307.0</ele><time>2026-03-28T09:14:30.468Z</time></trkpt><trkpt lat="43.5532167" lon="11.7099883"><ele>307.0</ele><time>2026-03-28T09:14:32.469Z</time></trkpt><trkpt lat="43.5532367" lon="11.710105"><ele>307.0</ele><time>2026-03-28T09:14:34.468Z</time></trkpt><trkpt lat="43.553285" lon="11.710175"><ele>307.0</ele><time>2026-03-28T09:14:36.468Z</time></trkpt><trkpt lat="43.5532683" lon="11.71004"><ele>307.0</ele><time>2026-03-28T09:14:40.47Z</time></trkpt><trkpt lat="43.55322" lon="11.7099217"><ele>307.0</ele><time>2026-03-28T09:14:42.468Z</time></trkpt><trkpt lat="43.553195" lon="11.7097717"><ele>307.0</ele><time>2026-03-28T09:14:44.47Z</time></trkpt><trkpt lat="43.553185" lon="11.709615"><ele>307.0</ele><time>2026-03-28T09:14:46.467Z</time></trkpt><trkpt lat="43.5531767" lon="11.7094583"><ele>307.0</ele><time>2026-03-28T09:14:48.469Z</time></trkpt><trkpt lat="43.5531783" lon="11.7092967"><ele>307.0</ele><time>2026-03-28T09:14:50.469Z</time></trkpt><trkpt lat="43.5531817" lon="11.70913"><ele>307.2</ele><time>2026-03-28T09:14:52.47Z</time></trkpt><trkpt lat="43.5531833" lon="11.70896"><ele>307.4</ele><time>2026-03-28T09:14:54.468Z</time></trkpt><trkpt lat="43.55319" lon="11.7088017"><ele>307.6</ele><time>2026-03-28T09:14:56.469Z</time></trkpt><trkpt lat="43.5531883" lon="11.7087117"><ele>307.8</ele><time>2026-03-28T09:14:57.468Z</time></trkpt><trkpt lat="43.553195" lon="11.708555"><ele>308.0</ele><time>2026-03-28T09:14:59.469Z</time></trkpt><trkpt lat="43.5531933" lon="11.7083933"><ele>308.0</ele><time>2026-03-28T09:15:01.47Z</time></trkpt><trkpt lat="43.5531883" lon="11.7082417"><ele>308.0</ele><time>2026-03-28T09:15:03.469Z</time></trkpt><trkpt lat="43.5531817" lon="11.7080983"><ele>308.0</ele><time>2026-03-28T09:15:05.472Z</time></trkpt><trkpt lat="43.5531483" lon="11.707925"><ele>308.0</ele><time>2026-03-28T09:15:07.471Z</time></trkpt><trkpt lat="43.5531133" lon="11.707845"><ele>308.0</ele><time>2026-03-28T09:15:08.471Z</time></trkpt><trkpt lat="43.5530683" lon="11.7077683"><ele>308.0</ele><time>2026-03-28T09:15:09.473Z</time></trkpt><trkpt lat="43.5530267" lon="11.7076867"><ele>308.0</ele><time>2026-03-28T09:15:10.473Z</time></trkpt><trkpt lat="43.5529833" lon="11.7076017"><ele>308.0</ele><time>2026-03-28T09:15:11.472Z</time></trkpt><trkpt lat="43.5529383" lon="11.707515"><ele>308.0</ele><time>2026-03-28T09:15:12.473Z</time></trkpt><trkpt lat="43.5528983" lon="11.7074233"><ele>308.0</ele><time>2026-03-28T09:15:13.47Z</time></trkpt><trkpt lat="43.552855" lon="11.7073317"><ele>308.0</ele><time>2026-03-28T09:15:14.472Z</time></trkpt><trkpt lat="43.55281" lon="11.7072417"><ele>307.6666666666667</ele><time>2026-03-28T09:15:15.471Z</time></trkpt><trkpt lat="43.552765" lon="11.7071483"><ele>307.33333333333337</ele><time>2026-03-28T09:15:16.47Z</time></trkpt><trkpt lat="43.5527217" lon="11.7070533"><ele>307.0</ele><time>2026-03-28T09:15:17.47Z</time></trkpt><trkpt lat="43.5526767" lon="11.706955"><ele>306.6666666666667</ele><time>2026-03-28T09:15:18.47Z</time></trkpt><trkpt lat="43.55263" lon="11.70685"><ele>306.3333333333333</ele><time>2026-03-28T09:15:19.472Z</time></trkpt><trkpt lat="43.5525833" lon="11.7067467"><ele>306.0</ele><time>2026-03-28T09:15:20.472Z</time></trkpt><trkpt lat="43.5525417" lon="11.7066333"><ele>305.40000000000003</ele><time>2026-03-28T09:15:21.471Z</time></trkpt><trkpt lat="43.5525067" lon="11.7065217"><ele>304.8</ele><time>2026-03-28T09:15:22.47Z</time></trkpt><trkpt lat="43.55248" lon="11.7064033"><ele>304.20000000000005</ele><time>2026-03-28T09:15:23.469Z</time></trkpt><trkpt lat="43.552455" lon="11.7062833"><ele>303.6</ele><time>2026-03-28T09:15:24.472Z</time></trkpt><trkpt lat="43.5524317" lon="11.7061633"><ele>303.0</ele><time>2026-03-28T09:15:25.473Z</time></trkpt><trkpt lat="43.5524083" lon="11.7060383"><ele>302.6</ele><time>2026-03-28T09:15:26.471Z</time></trkpt><trkpt lat="43.552385" lon="11.7059117"><ele>302.20000000000005</ele><time>2026-03-28T09:15:27.47Z</time></trkpt><trkpt lat="43.5523567" lon="11.70579"><ele>301.8</ele><time>2026-03-28T09:15:28.471Z</time></trkpt><trkpt lat="43.55233" lon="11.7056667"><ele>301.40000000000003</ele><time>2026-03-28T09:15:29.471Z</time></trkpt><trkpt lat="43.5523017" lon="11.705545"><ele>301.0</ele><time>2026-03-28T09:15:30.469Z</time></trkpt><trkpt lat="43.552275" lon="11.7054233"><ele>301.0</ele><time>2026-03-28T09:15:31.47Z</time></trkpt><trkpt lat="43.5522517" lon="11.7053017"><ele>301.0</ele><time>2026-03-28T09:15:32.468Z</time></trkpt><trkpt lat="43.5522283" lon="11.7051783"><ele>301.0</ele><time>2026-03-28T09:15:33.468Z</time></trkpt><trkpt lat="43.552205" lon="11.705055"><ele>301.0</ele><time>2026-03-28T09:15:34.471Z</time></trkpt><trkpt lat="43.55218" lon="11.70494"><ele>301.0</ele><time>2026-03-28T09:15:35.469Z</time></trkpt><trkpt lat="43.55215" lon="11.7048317"><ele>301.0</ele><time>2026-03-28T09:15:36.468Z</time></trkpt><trkpt lat="43.5521117" lon="11.7047283"><ele>300.66666666666663</ele><time>2026-03-28T09:15:37.469Z</time></trkpt><trkpt lat="43.552065" lon="11.704635"><ele>300.3333333333333</ele><time>2026-03-28T09:15:38.468Z</time></trkpt><trkpt lat="43.5520083" lon="11.7045583"><ele>300.0</ele><time>2026-03-28T09:15:39.471Z</time></trkpt><trkpt lat="43.5519467" lon="11.7044983"><ele>299.6666666666667</ele><time>2026-03-28T09:15:40.473Z</time></trkpt><trkpt lat="43.5518783" lon="11.7044567"><ele>299.33333333333337</ele><time>2026-03-28T09:15:41.471Z</time></trkpt><trkpt lat="43.55181" lon="11.7044283"><ele>299.0</ele><time>2026-03-28T09:15:42.469Z</time></trkpt><trkpt lat="43.551745" lon="11.7044067"><ele>299.6666666666667</ele><time>2026-03-28T09:15:43.469Z</time></trkpt><trkpt lat="43.55168" lon="11.7043833"><ele>300.33333333333337</ele><time>2026-03-28T09:15:44.469Z</time></trkpt><trkpt lat="43.551615" lon="11.7043583"><ele>301.0</ele><time>2026-03-28T09:15:45.469Z</time></trkpt><trkpt lat="43.5515533" lon="11.7043383"><ele>301.6666666666667</ele><time>2026-03-28T09:15:46.469Z</time></trkpt><trkpt lat="43.5514367" lon="11.704295"><ele>302.3333333333333</ele><time>2026-03-28T09:15:48.468Z</time></trkpt><trkpt lat="43.5513217" lon="11.7042383"><ele>303.0</ele><time>2026-03-28T09:15:50.47Z</time></trkpt><trkpt lat="43.55127" lon="11.7041867"><ele>303.25</ele><time>2026-03-28T09:15:51.47Z</time></trkpt><trkpt lat="43.551185" lon="11.704065"><ele>303.5</ele><time>2026-03-28T09:15:53.47Z</time></trkpt><trkpt lat="43.5510983" lon="11.7039533"><ele>303.75</ele><time>2026-03-28T09:15:55.471Z</time></trkpt><trkpt lat="43.5510183" lon="11.70383"><ele>304.0</ele><time>2026-03-28T09:15:57.468Z</time></trkpt><trkpt lat="43.5509433" lon="11.7036983"><ele>304.4</ele><time>2026-03-28T09:15:59.469Z</time></trkpt><trkpt lat="43.5508683" lon="11.7035667"><ele>304.79999999999995</ele><time>2026-03-28T09:16:01.471Z</time></trkpt><trkpt lat="43.550795" lon="11.70343"><ele>305.20000000000005</ele><time>2026-03-28T09:16:03.468Z</time></trkpt><trkpt lat="43.5507567" lon="11.70336"><ele>305.6</ele><time>2026-03-28T09:16:04.469Z</time></trkpt><trkpt lat="43.5507183" lon="11.70329"><ele>306.0</ele><time>2026-03-28T09:16:05.47Z</time></trkpt><trkpt lat="43.550645" lon="11.7031533"><ele>306.0</ele><time>2026-03-28T09:16:07.468Z</time></trkpt><trkpt lat="43.5505767" lon="11.7030117"><ele>306.0</ele><time>2026-03-28T09:16:09.469Z</time></trkpt><trkpt lat="43.550515" lon="11.7028617"><ele>306.0</ele><time>2026-03-28T09:16:11.471Z</time></trkpt><trkpt lat="43.5504517" lon="11.7027133"><ele>306.0</ele><time>2026-03-28T09:16:13.469Z</time></trkpt><trkpt lat="43.5504183" lon="11.7026383"><ele>306.0</ele><time>2026-03-28T09:16:14.469Z</time></trkpt><trkpt lat="43.5503883" lon="11.7025617"><ele>305.1666666666667</ele><time>2026-03-28T09:16:15.468Z</time></trkpt><trkpt lat="43.55036" lon="11.7024817"><ele>304.3333333333333</ele><time>2026-03-28T09:16:16.469Z</time></trkpt><trkpt lat="43.55033" lon="11.7024017"><ele>303.5</ele><time>2026-03-28T09:16:17.469Z</time></trkpt><trkpt lat="43.5502717" lon="11.7022483"><ele>302.66666666666663</ele><time>2026-03-28T09:16:19.468Z</time></trkpt><trkpt lat="43.5502417" lon="11.7021683"><ele>301.8333333333333</ele><time>2026-03-28T09:16:20.47Z</time></trkpt><trkpt lat="43.5501767" lon="11.7020233"><ele>301.0</ele><time>2026-03-28T09:16:22.469Z</time></trkpt><trkpt lat="43.5501467" lon="11.701945"><ele>301.3333333333333</ele><time>2026-03-28T09:16:23.469Z</time></trkpt><trkpt lat="43.5500833" lon="11.7017917"><ele>301.66666666666663</ele><time>2026-03-28T09:16:25.473Z</time></trkpt><trkpt lat="43.550055" lon="11.7017133"><ele>302.0</ele><time>2026-03-28T09:16:26.47Z</time></trkpt><trkpt lat="43.55003" lon="11.7016333"><ele>302.3333333333333</ele><time>2026-03-28T09:16:27.469Z</time></trkpt><trkpt lat="43.5500067" lon="11.7015517"><ele>302.6666666666667</ele><time>2026-03-28T09:16:28.47Z</time></trkpt><trkpt lat="43.5499617" lon="11.701395"><ele>303.0</ele><time>2026-03-28T09:16:30.469Z</time></trkpt><trkpt lat="43.5499167" lon="11.7012467"><ele>303.0</ele><time>2026-03-28T09:16:32.47Z</time></trkpt><trkpt lat="43.5498733" lon="11.7011067"><ele>303.0</ele><time>2026-03-28T09:16:34.471Z</time></trkpt><trkpt lat="43.54983" lon="11.70097"><ele>303.0</ele><time>2026-03-28T09:16:36.47Z</time></trkpt><trkpt lat="43.549785" lon="11.7008183"><ele>303.0</ele><time>2026-03-28T09:16:38.471Z</time></trkpt><trkpt lat="43.5497617" lon="11.7007367"><ele>303.0</ele><time>2026-03-28T09:16:39.472Z</time></trkpt><trkpt lat="43.5497383" lon="11.7006533"><ele>303.2857142857143</ele><time>2026-03-28T09:16:40.471Z</time></trkpt><trkpt lat="43.5497117" lon="11.70057"><ele>303.57142857142856</ele><time>2026-03-28T09:16:41.471Z</time></trkpt><trkpt lat="43.5496867" lon="11.700485"><ele>303.8571428571429</ele><time>2026-03-28T09:16:42.473Z</time></trkpt><trkpt lat="43.5496633" lon="11.700395"><ele>304.1428571428571</ele><time>2026-03-28T09:16:43.471Z</time></trkpt><trkpt lat="43.5496383" lon="11.700305"><ele>304.4285714285714</ele><time>2026-03-28T09:16:44.472Z</time></trkpt><trkpt lat="43.549615" lon="11.7002117"><ele>304.7142857142857</ele><time>2026-03-28T09:16:45.47Z</time></trkpt><trkpt lat="43.5495883" lon="11.70012"><ele>305.0</ele><time>2026-03-28T09:16:46.471Z</time></trkpt><trkpt lat="43.5495633" lon="11.700025"><ele>304.6666666666667</ele><time>2026-03-28T09:16:47.471Z</time></trkpt><trkpt lat="43.5495383" lon="11.6999317"><ele>304.33333333333337</ele><time>2026-03-28T09:16:48.47Z</time></trkpt><trkpt lat="43.5495117" lon="11.6998333"><ele>304.0</ele><time>2026-03-28T09:16:49.473Z</time></trkpt><trkpt lat="43.5494833" lon="11.6997333"><ele>303.6666666666667</ele><time>2026-03-28T09:16:50.471Z</time></trkpt><trkpt lat="43.549455" lon="11.6996333"><ele>303.3333333333333</ele><time>2026-03-28T09:16:51.469Z</time></trkpt><trkpt lat="43.5494267" lon="11.69953"><ele>303.0</ele><time>2026-03-28T09:16:52.468Z</time></trkpt><trkpt lat="43.5493967" lon="11.69943"><ele>302.8333333333333</ele><time>2026-03-28T09:16:53.469Z</time></trkpt><trkpt lat="43.5493667" lon="11.6993283"><ele>302.6666666666667</ele><time>2026-03-28T09:16:54.468Z</time></trkpt><trkpt lat="43.549335" lon="11.6992267"><ele>302.5</ele><time>2026-03-28T09:16:55.471Z</time></trkpt><trkpt lat="43.5493067" lon="11.699125"><ele>302.33333333333337</ele><time>2026-03-28T09:16:56.47Z</time></trkpt><trkpt lat="43.5492767" lon="11.699025"><ele>302.1666666666667</ele><time>2026-03-28T09:16:57.47Z</time></trkpt><trkpt lat="43.549245" lon="11.6989233"><ele>302.0</ele><time>2026-03-28T09:16:58.469Z</time></trkpt><trkpt lat="43.549215" lon="11.6988233"><ele>302.0</ele><time>2026-03-28T09:16:59.471Z</time></trkpt><trkpt lat="43.5491833" lon="11.6987217"><ele>302.0</ele><time>2026-03-28T09:17:00.468Z</time></trkpt><trkpt lat="43.5491533" lon="11.6986183"><ele>302.0</ele><time>2026-03-28T09:17:01.471Z</time></trkpt><trkpt lat="43.5491233" lon="11.6985167"><ele>302.0</ele><time>2026-03-28T09:17:02.472Z</time></trkpt><trkpt lat="43.549095" lon="11.698415"><ele>302.0</ele><time>2026-03-28T09:17:03.471Z</time></trkpt><trkpt lat="43.549065" lon="11.698315"><ele>302.0</ele><time>2026-03-28T09:17:04.47Z</time></trkpt><trkpt lat="43.5490367" lon="11.6982133"><ele>302.0</ele><time>2026-03-28T09:17:05.473Z</time></trkpt><trkpt lat="43.5490067" lon="11.6981133"><ele>302.0</ele><time>2026-03-28T09:17:06.473Z</time></trkpt><trkpt lat="43.548975" lon="11.698015"><ele>302.0</ele><time>2026-03-28T09:17:07.473Z</time></trkpt><trkpt lat="43.548945" lon="11.6979133"><ele>302.0</ele><time>2026-03-28T09:17:08.472Z</time></trkpt><trkpt lat="43.5489133" lon="11.6978133"><ele>302.0</ele><time>2026-03-28T09:17:09.472Z</time></trkpt><trkpt lat="43.5488817" lon="11.6977117"><ele>302.0</ele><time>2026-03-28T09:17:10.471Z</time></trkpt><trkpt lat="43.5488517" lon="11.6976067"><ele>302.83333333333337</ele><time>2026-03-28T09:17:11.472Z</time></trkpt><trkpt lat="43.5488233" lon="11.6974983"><ele>303.6666666666667</ele><time>2026-03-28T09:17:12.469Z</time></trkpt><trkpt lat="43.5487917" lon="11.6973917"><ele>304.5</ele><time>2026-03-28T09:17:13.468Z</time></trkpt><trkpt lat="43.54876" lon="11.6972833"><ele>305.3333333333333</ele><time>2026-03-28T09:17:14.47Z</time></trkpt><trkpt lat="43.5487283" lon="11.6971783"><ele>306.16666666666663</ele><time>2026-03-28T09:17:15.47Z</time></trkpt><trkpt lat="43.5486933" lon="11.69707"><ele>307.0</ele><time>2026-03-28T09:17:16.469Z</time></trkpt><trkpt lat="43.54866" lon="11.69696"><ele>304.8333333333333</ele><time>2026-03-28T09:17:17.469Z</time></trkpt><trkpt lat="43.5486233" lon="11.6968467"><ele>302.66666666666663</ele><time>2026-03-28T09:17:18.469Z</time></trkpt><trkpt lat="43.54859" lon="11.696735"><ele>300.5</ele><time>2026-03-28T09:17:19.47Z</time></trkpt><trkpt lat="43.5485567" lon="11.6966217"><ele>298.3333333333333</ele><time>2026-03-28T09:17:20.468Z</time></trkpt><trkpt lat="43.54852" lon="11.6965067"><ele>296.1666666666667</ele><time>2026-03-28T09:17:21.469Z</time></trkpt><trkpt lat="43.54849" lon="11.6963933"><ele>294.0</ele><time>2026-03-28T09:17:22.471Z</time></trkpt><trkpt lat="43.5484683" lon="11.69628"><ele>294.0</ele><time>2026-03-28T09:17:23.469Z</time></trkpt><trkpt lat="43.5484633" lon="11.6961633"><ele>294.0</ele><time>2026-03-28T09:17:24.471Z</time></trkpt><trkpt lat="43.5484783" lon="11.6960483"><ele>294.0</ele><time>2026-03-28T09:17:25.472Z</time></trkpt><trkpt lat="43.54851" lon="11.69594"><ele>294.0</ele><time>2026-03-28T09:17:26.471Z</time></trkpt><trkpt lat="43.5485583" lon="11.695845"><ele>294.0</ele><time>2026-03-28T09:17:27.47Z</time></trkpt><trkpt lat="43.5486267" lon="11.69578"><ele>294.0</ele><time>2026-03-28T09:17:28.473Z</time></trkpt><trkpt lat="43.548705" lon="11.695745"><ele>294.4</ele><time>2026-03-28T09:17:29.471Z</time></trkpt><trkpt lat="43.5487867" lon="11.695725"><ele>294.79999999999995</ele><time>2026-03-28T09:17:30.472Z</time></trkpt><trkpt lat="43.548875" lon="11.6957"><ele>295.20000000000005</ele><time>2026-03-28T09:17:31.472Z</time></trkpt><trkpt lat="43.5489633" lon="11.69566"><ele>295.6</ele><time>2026-03-28T09:17:32.471Z</time></trkpt><trkpt lat="43.5490483" lon="11.6955933"><ele>296.0</ele><time>2026-03-28T09:17:33.472Z</time></trkpt><trkpt lat="43.5491233" lon="11.69551"><ele>296.0</ele><time>2026-03-28T09:17:34.471Z</time></trkpt><trkpt lat="43.5491817" lon="11.6954083"><ele>296.0</ele><time>2026-03-28T09:17:35.473Z</time></trkpt><trkpt lat="43.5492233" lon="11.6952933"><ele>296.0</ele><time>2026-03-28T09:17:36.47Z</time></trkpt><trkpt lat="43.5492517" lon="11.69517"><ele>296.0</ele><time>2026-03-28T09:17:37.469Z</time></trkpt><trkpt lat="43.5492667" lon="11.6950417"><ele>296.0</ele><time>2026-03-28T09:17:38.47Z</time></trkpt><trkpt lat="43.5492783" lon="11.694915"><ele>294.8</ele><time>2026-03-28T09:17:39.475Z</time></trkpt><trkpt lat="43.5492867" lon="11.6947883"><ele>293.6</ele><time>2026-03-28T09:17:40.472Z</time></trkpt><trkpt lat="43.5492967" lon="11.69466"><ele>292.4</ele><time>2026-03-28T09:17:41.47Z</time></trkpt><trkpt lat="43.5493033" lon="11.6945333"><ele>291.2</ele><time>2026-03-28T09:17:42.47Z</time></trkpt><trkpt lat="43.5493083" lon="11.694405"><ele>290.0</ele><time>2026-03-28T09:17:43.472Z</time></trkpt><trkpt lat="43.549315" lon="11.6942783"><ele>289.8</ele><time>2026-03-28T09:17:44.472Z</time></trkpt><trkpt lat="43.5493217" lon="11.694155"><ele>289.6</ele><time>2026-03-28T09:17:45.471Z</time></trkpt><trkpt lat="43.5493383" lon="11.6940333"><ele>289.4</ele><time>2026-03-28T09:17:46.472Z</time></trkpt><trkpt lat="43.5493683" lon="11.6939133"><ele>289.2</ele><time>2026-03-28T09:17:47.47Z</time></trkpt><trkpt lat="43.5494067" lon="11.6937967"><ele>289.0</ele><time>2026-03-28T09:17:48.469Z</time></trkpt><trkpt lat="43.54945" lon="11.6936833"><ele>288.3333333333333</ele><time>2026-03-28T09:17:49.47Z</time></trkpt><trkpt lat="43.549495" lon="11.69357"><ele>287.66666666666663</ele><time>2026-03-28T09:17:50.473Z</time></trkpt><trkpt lat="43.5495383" lon="11.69346"><ele>287.0</ele><time>2026-03-28T09:17:51.469Z</time></trkpt><trkpt lat="43.5495783" lon="11.6933533"><ele>286.3333333333333</ele><time>2026-03-28T09:17:52.47Z</time></trkpt><trkpt lat="43.54962" lon="11.6932517"><ele>285.6666666666667</ele><time>2026-03-28T09:17:53.472Z</time></trkpt><trkpt lat="43.5496633" lon="11.69315"><ele>285.0</ele><time>2026-03-28T09:17:54.47Z</time></trkpt><trkpt lat="43.5497083" lon="11.6930533"><ele>286.3333333333333</ele><time>2026-03-28T09:17:55.471Z</time></trkpt><trkpt lat="43.5497617" lon="11.6929667"><ele>287.6666666666667</ele><time>2026-03-28T09:17:56.471Z</time></trkpt><trkpt lat="43.54982" lon="11.6928883"><ele>289.0</ele><time>2026-03-28T09:17:57.473Z</time></trkpt><trkpt lat="43.549875" lon="11.69281"><ele>290.33333333333337</ele><time>2026-03-28T09:17:58.471Z</time></trkpt><trkpt lat="43.5499233" lon="11.6927267"><ele>291.6666666666667</ele><time>2026-03-28T09:17:59.47Z</time></trkpt><trkpt lat="43.5499617" lon="11.6926367"><ele>293.0</ele><time>2026-03-28T09:18:00.471Z</time></trkpt><trkpt lat="43.5499983" lon="11.6925467"><ele>292.99999999999994</ele><time>2026-03-28T09:18:01.47Z</time></trkpt><trkpt lat="43.55003" lon="11.692455"><ele>293.0</ele><time>2026-03-28T09:18:02.469Z</time></trkpt><trkpt lat="43.5500483" lon="11.6923617"><ele>293.0</ele><time>2026-03-28T09:18:03.47Z</time></trkpt><trkpt lat="43.550065" lon="11.69227"><ele>293.0</ele><time>2026-03-28T09:18:04.47Z</time></trkpt><trkpt lat="43.55008" lon="11.6921767"><ele>293.0</ele><time>2026-03-28T09:18:05.468Z</time></trkpt><trkpt lat="43.5500967" lon="11.6920867"><ele>292.99999999999994</ele><time>2026-03-28T09:18:06.47Z</time></trkpt><trkpt lat="43.5501117" lon="11.6919967"><ele>293.0</ele><time>2026-03-28T09:18:07.47Z</time></trkpt><trkpt lat="43.5501283" lon="11.6919067"><ele>292.85714285714283</ele><time>2026-03-28T09:18:08.47Z</time></trkpt><trkpt lat="43.5501417" lon="11.6918167"><ele>292.7142857142857</ele><time>2026-03-28T09:18:09.469Z</time></trkpt><trkpt lat="43.55016" lon="11.6917267"><ele>292.57142857142856</ele><time>2026-03-28T09:18:10.47Z</time></trkpt><trkpt lat="43.5501767" lon="11.69164"><ele>292.42857142857144</ele><time>2026-03-28T09:18:11.469Z</time></trkpt><trkpt lat="43.5501917" lon="11.6915533"><ele>292.2857142857143</ele><time>2026-03-28T09:18:12.47Z</time></trkpt><trkpt lat="43.5502067" lon="11.6914667"><ele>292.1428571428571</ele><time>2026-03-28T09:18:13.468Z</time></trkpt><trkpt lat="43.550225" lon="11.6913817"><ele>292.0</ele><time>2026-03-28T09:18:14.472Z</time></trkpt><trkpt lat="43.5502483" lon="11.6913"><ele>292.0</ele><time>2026-03-28T09:18:15.469Z</time></trkpt><trkpt lat="43.5502767" lon="11.69122"><ele>292.0</ele><time>2026-03-28T09:18:16.469Z</time></trkpt><trkpt lat="43.5503483" lon="11.6910767"><ele>292.0</ele><time>2026-03-28T09:18:18.47Z</time></trkpt><trkpt lat="43.5503933" lon="11.6910067"><ele>292.0</ele><time>2026-03-28T09:18:19.47Z</time></trkpt><trkpt lat="43.5504417" lon="11.6909417"><ele>292.0</ele><time>2026-03-28T09:18:20.469Z</time></trkpt><trkpt lat="43.5504933" lon="11.690875"><ele>292.0</ele><time>2026-03-28T09:18:21.469Z</time></trkpt><trkpt lat="43.5505467" lon="11.6908067"><ele>293.3333333333333</ele><time>2026-03-28T09:18:22.468Z</time></trkpt><trkpt lat="43.550595" lon="11.6907483"><ele>294.66666666666663</ele><time>2026-03-28T09:18:23.468Z</time></trkpt><trkpt lat="43.5507133" lon="11.690685"><ele>296.0</ele><time>2026-03-28T09:18:25.469Z</time></trkpt><trkpt lat="43.5507767" lon="11.6906567"><ele>297.3333333333333</ele><time>2026-03-28T09:18:26.47Z</time></trkpt><trkpt lat="43.550845" lon="11.690625"><ele>298.6666666666667</ele><time>2026-03-28T09:18:27.47Z</time></trkpt><trkpt lat="43.5509133" lon="11.6905983"><ele>300.0</ele><time>2026-03-28T09:18:28.471Z</time></trkpt><trkpt lat="43.55098" lon="11.6905667"><ele>299.99999999999994</ele><time>2026-03-28T09:18:29.471Z</time></trkpt><trkpt lat="43.5510483" lon="11.69054"><ele>300.0</ele><time>2026-03-28T09:18:30.468Z</time></trkpt><trkpt lat="43.5511167" lon="11.6905033"><ele>300.0</ele><time>2026-03-28T09:18:31.469Z</time></trkpt><trkpt lat="43.5511817" lon="11.690455"><ele>300.0</ele><time>2026-03-28T09:18:32.469Z</time></trkpt><trkpt lat="43.5512383" lon="11.6903933"><ele>300.0</ele><time>2026-03-28T09:18:33.467Z</time></trkpt><trkpt lat="43.5512783" lon="11.690315"><ele>299.99999999999994</ele><time>2026-03-28T09:18:34.468Z</time></trkpt><trkpt lat="43.5513017" lon="11.6902217"><ele>300.0</ele><time>2026-03-28T09:18:35.469Z</time></trkpt><trkpt lat="43.55131" lon="11.6901217"><ele>300.85714285714283</ele><time>2026-03-28T09:18:36.469Z</time></trkpt><trkpt lat="43.5513017" lon="11.6900233"><ele>301.7142857142857</ele><time>2026-03-28T09:18:37.469Z</time></trkpt><trkpt lat="43.5512833" lon="11.6899283"><ele>302.57142857142856</ele><time>2026-03-28T09:18:38.47Z</time></trkpt><trkpt lat="43.5512633" lon="11.689835"><ele>303.42857142857144</ele><time>2026-03-28T09:18:39.469Z</time></trkpt><trkpt lat="43.551245" lon="11.6897383"><ele>304.2857142857143</ele><time>2026-03-28T09:18:40.472Z</time></trkpt><trkpt lat="43.5512333" lon="11.6896433"><ele>305.1428571428571</ele><time>2026-03-28T09:18:41.472Z</time></trkpt><trkpt lat="43.5512333" lon="11.6895433"><ele>306.0</ele><time>2026-03-28T09:18:42.473Z</time></trkpt><trkpt lat="43.5512467" lon="11.6894433"><ele>305.0</ele><time>2026-03-28T09:18:43.472Z</time></trkpt><trkpt lat="43.551265" lon="11.6893467"><ele>304.0</ele><time>2026-03-28T09:18:44.47Z</time></trkpt><trkpt lat="43.5512867" lon="11.68925"><ele>303.0</ele><time>2026-03-28T09:18:45.468Z</time></trkpt><trkpt lat="43.5513117" lon="11.6891517"><ele>302.0</ele><time>2026-03-28T09:18:46.468Z</time></trkpt><trkpt lat="43.55134" lon="11.6890517"><ele>301.0</ele><time>2026-03-28T09:18:47.469Z</time></trkpt><trkpt lat="43.55137" lon="11.6889517"><ele>300.0</ele><time>2026-03-28T09:18:48.469Z</time></trkpt><trkpt lat="43.5514" lon="11.6888467"><ele>300.0</ele><time>2026-03-28T09:18:49.469Z</time></trkpt><trkpt lat="43.551435" lon="11.6887433"><ele>300.0</ele><time>2026-03-28T09:18:50.47Z</time></trkpt><trkpt lat="43.55147" lon="11.6886383"><ele>300.0</ele><time>2026-03-28T09:18:51.469Z</time></trkpt><trkpt lat="43.5515033" lon="11.688535"><ele>300.0</ele><time>2026-03-28T09:18:52.469Z</time></trkpt><trkpt lat="43.5515383" lon="11.688435"><ele>300.0</ele><time>2026-03-28T09:18:53.469Z</time></trkpt><trkpt lat="43.5515767" lon="11.6883367"><ele>300.0</ele><time>2026-03-28T09:18:54.469Z</time></trkpt><trkpt lat="43.55162" lon="11.6882417"><ele>299.0</ele><time>2026-03-28T09:18:55.469Z</time></trkpt><trkpt lat="43.55167" lon="11.68815"><ele>298.0</ele><time>2026-03-28T09:18:56.47Z</time></trkpt><trkpt lat="43.5517217" lon="11.6880633"><ele>297.0</ele><time>2026-03-28T09:18:57.469Z</time></trkpt><trkpt lat="43.5517767" lon="11.6879767"><ele>296.0</ele><time>2026-03-28T09:18:58.468Z</time></trkpt><trkpt lat="43.5518317" lon="11.687895"><ele>295.0</ele><time>2026-03-28T09:18:59.47Z</time></trkpt><trkpt lat="43.5518883" lon="11.6878117"><ele>294.0</ele><time>2026-03-28T09:19:00.472Z</time></trkpt><trkpt lat="43.5519417" lon="11.68773"><ele>293.5</ele><time>2026-03-28T09:19:01.472Z</time></trkpt><trkpt lat="43.551995" lon="11.68765"><ele>293.0</ele><time>2026-03-28T09:19:02.473Z</time></trkpt><trkpt lat="43.5520483" lon="11.6875733"><ele>292.5</ele><time>2026-03-28T09:19:03.473Z</time></trkpt><trkpt lat="43.5521" lon="11.6874983"><ele>292.0</ele><time>2026-03-28T09:19:04.472Z</time></trkpt><trkpt lat="43.55215" lon="11.6874233"><ele>291.5</ele><time>2026-03-28T09:19:05.47Z</time></trkpt><trkpt lat="43.5522" lon="11.6873467"><ele>291.0</ele><time>2026-03-28T09:19:06.471Z</time></trkpt><trkpt lat="43.552255" lon="11.687265"><ele>291.5</ele><time>2026-03-28T09:19:07.471Z</time></trkpt><trkpt lat="43.5523067" lon="11.6871817"><ele>292.0</ele><time>2026-03-28T09:19:08.469Z</time></trkpt><trkpt lat="43.5523567" lon="11.6870933"><ele>292.5</ele><time>2026-03-28T09:19:09.469Z</time></trkpt><trkpt lat="43.5524017" lon="11.6870033"><ele>293.0</ele><time>2026-03-28T09:19:10.469Z</time></trkpt><trkpt lat="43.5524383" lon="11.68691"><ele>293.5</ele><time>2026-03-28T09:19:11.469Z</time></trkpt><trkpt lat="43.5524667" lon="11.68681"><ele>294.0</ele><time>2026-03-28T09:19:12.469Z</time></trkpt><trkpt lat="43.5524867" lon="11.686705"><ele>294.0</ele><time>2026-03-28T09:19:13.471Z</time></trkpt><trkpt lat="43.5525" lon="11.6865983"><ele>294.0</ele><time>2026-03-28T09:19:14.471Z</time></trkpt><trkpt lat="43.552505" lon="11.6864933"><ele>294.0</ele><time>2026-03-28T09:19:15.469Z</time></trkpt><trkpt lat="43.5525133" lon="11.6863883"><ele>294.0</ele><time>2026-03-28T09:19:16.469Z</time></trkpt><trkpt lat="43.5525267" lon="11.6862883"><ele>294.0</ele><time>2026-03-28T09:19:17.468Z</time></trkpt><trkpt lat="43.5525517" lon="11.6861933"><ele>294.0</ele><time>2026-03-28T09:19:18.469Z</time></trkpt><trkpt lat="43.5525867" lon="11.6861067"><ele>293.7142857142857</ele><time>2026-03-28T09:19:19.469Z</time></trkpt><trkpt lat="43.552635" lon="11.68603"><ele>293.42857142857144</ele><time>2026-03-28T09:19:20.469Z</time></trkpt><trkpt lat="43.5526817" lon="11.685965"><ele>293.1428571428571</ele><time>2026-03-28T09:19:21.468Z</time></trkpt><trkpt lat="43.5527333" lon="11.6858983"><ele>292.8571428571429</ele><time>2026-03-28T09:19:22.47Z</time></trkpt><trkpt lat="43.5527817" lon="11.6858283"><ele>292.57142857142856</ele><time>2026-03-28T09:19:23.47Z</time></trkpt><trkpt lat="43.5528283" lon="11.68576"><ele>292.2857142857143</ele><time>2026-03-28T09:19:24.469Z</time></trkpt><trkpt lat="43.5528717" lon="11.6856883"><ele>292.0</ele><time>2026-03-28T09:19:25.469Z</time></trkpt><trkpt lat="43.5529117" lon="11.685615"><ele>293.1428571428571</ele><time>2026-03-28T09:19:26.469Z</time></trkpt><trkpt lat="43.5529517" lon="11.685535"><ele>294.2857142857143</ele><time>2026-03-28T09:19:27.471Z</time></trkpt><trkpt lat="43.552985" lon="11.6854533"><ele>295.42857142857144</ele><time>2026-03-28T09:19:28.469Z</time></trkpt><trkpt lat="43.5530217" lon="11.685375"><ele>296.57142857142856</ele><time>2026-03-28T09:19:29.469Z</time></trkpt><trkpt lat="43.5530567" lon="11.685295"><ele>297.7142857142857</ele><time>2026-03-28T09:19:30.47Z</time></trkpt><trkpt lat="43.5530883" lon="11.6852183"><ele>298.85714285714283</ele><time>2026-03-28T09:19:31.469Z</time></trkpt><trkpt lat="43.5531217" lon="11.6851383"><ele>300.0</ele><time>2026-03-28T09:19:32.47Z</time></trkpt><trkpt lat="43.5531567" lon="11.6850583"><ele>299.99999999999994</ele><time>2026-03-28T09:19:33.469Z</time></trkpt><trkpt lat="43.5531967" lon="11.68498"><ele>300.0</ele><time>2026-03-28T09:19:34.469Z</time></trkpt><trkpt lat="43.5532383" lon="11.6849017"><ele>300.0</ele><time>2026-03-28T09:19:35.47Z</time></trkpt><trkpt lat="43.553275" lon="11.6848267"><ele>300.0</ele><time>2026-03-28T09:19:36.469Z</time></trkpt><trkpt lat="43.553315" lon="11.684755"><ele>300.0</ele><time>2026-03-28T09:19:37.469Z</time></trkpt><trkpt lat="43.55336" lon="11.6846867"><ele>299.99999999999994</ele><time>2026-03-28T09:19:38.47Z</time></trkpt><trkpt lat="43.553405" lon="11.68462"><ele>300.0</ele><time>2026-03-28T09:19:39.469Z</time></trkpt><trkpt lat="43.5534517" lon="11.684555"><ele>299.99999999999994</ele><time>2026-03-28T09:19:40.47Z</time></trkpt><trkpt lat="43.5535033" lon="11.6844917"><ele>300.0</ele><time>2026-03-28T09:19:41.47Z</time></trkpt><trkpt lat="43.553555" lon="11.6844267"><ele>300.0</ele><time>2026-03-28T09:19:42.469Z</time></trkpt><trkpt lat="43.553605" lon="11.6843633"><ele>300.0</ele><time>2026-03-28T09:19:43.469Z</time></trkpt><trkpt lat="43.5536567" lon="11.6843017"><ele>300.0</ele><time>2026-03-28T09:19:44.469Z</time></trkpt><trkpt lat="43.5537133" lon="11.6842417"><ele>299.99999999999994</ele><time>2026-03-28T09:19:45.469Z</time></trkpt><trkpt lat="43.553765" lon="11.6841817"><ele>300.0</ele><time>2026-03-28T09:19:46.469Z</time></trkpt><trkpt lat="43.5538183" lon="11.68412"><ele>300.57142857142856</ele><time>2026-03-28T09:19:47.469Z</time></trkpt><trkpt lat="43.5538733" lon="11.68406"><ele>301.1428571428571</ele><time>2026-03-28T09:19:48.469Z</time></trkpt><trkpt lat="43.5539283" lon="11.684"><ele>301.71428571428567</ele><time>2026-03-28T09:19:49.469Z</time></trkpt><trkpt lat="43.5539833" lon="11.6839333"><ele>302.2857142857143</ele><time>2026-03-28T09:19:50.47Z</time></trkpt><trkpt lat="43.5540383" lon="11.6838667"><ele>302.8571428571429</ele><time>2026-03-28T09:19:51.469Z</time></trkpt><trkpt lat="43.55409" lon="11.6837967"><ele>303.4285714285714</ele><time>2026-03-28T09:19:52.473Z</time></trkpt><trkpt lat="43.55414" lon="11.6837233"><ele>304.0</ele><time>2026-03-28T09:19:53.472Z</time></trkpt><trkpt lat="43.5541833" lon="11.6836483"><ele>302.57142857142856</ele><time>2026-03-28T09:19:54.473Z</time></trkpt><trkpt lat="43.5542217" lon="11.68357"><ele>301.14285714285717</ele><time>2026-03-28T09:19:55.473Z</time></trkpt><trkpt lat="43.5542533" lon="11.6834833"><ele>299.7142857142857</ele><time>2026-03-28T09:19:56.471Z</time></trkpt><trkpt lat="43.5542817" lon="11.6833933"><ele>298.2857142857143</ele><time>2026-03-28T09:19:57.468Z</time></trkpt><trkpt lat="43.5543083" lon="11.6833033"><ele>296.8571428571429</ele><time>2026-03-28T09:19:58.469Z</time></trkpt><trkpt lat="43.554335" lon="11.68321"><ele>295.42857142857144</ele><time>2026-03-28T09:19:59.469Z</time></trkpt><trkpt lat="43.554365" lon="11.6831167"><ele>294.0</ele><time>2026-03-28T09:20:00.468Z</time></trkpt><trkpt lat="43.5543933" lon="11.6830217"><ele>294.0</ele><time>2026-03-28T09:20:01.469Z</time></trkpt><trkpt lat="43.5544183" lon="11.6829267"><ele>294.0</ele><time>2026-03-28T09:20:02.471Z</time></trkpt><trkpt lat="43.5544433" lon="11.6828317"><ele>294.0</ele><time>2026-03-28T09:20:03.469Z</time></trkpt><trkpt lat="43.5544683" lon="11.682735"><ele>294.0</ele><time>2026-03-28T09:20:04.47Z</time></trkpt><trkpt lat="43.5544917" lon="11.6826383"><ele>294.0</ele><time>2026-03-28T09:20:05.47Z</time></trkpt><trkpt lat="43.5545183" lon="11.6825383"><ele>294.0</ele><time>2026-03-28T09:20:06.473Z</time></trkpt><trkpt lat="43.5545433" lon="11.6824367"><ele>294.5</ele><time>2026-03-28T09:20:07.471Z</time></trkpt><trkpt lat="43.5545683" lon="11.682335"><ele>295.0</ele><time>2026-03-28T09:20:08.472Z</time></trkpt><trkpt lat="43.5545933" lon="11.6822367"><ele>295.5</ele><time>2026-03-28T09:20:09.471Z</time></trkpt><trkpt lat="43.55462" lon="11.6821383"><ele>296.0</ele><time>2026-03-28T09:20:10.473Z</time></trkpt><trkpt lat="43.5546483" lon="11.6820367"><ele>296.5</ele><time>2026-03-28T09:20:11.471Z</time></trkpt><trkpt lat="43.5546733" lon="11.6819367"><ele>297.0</ele><time>2026-03-28T09:20:12.475Z</time></trkpt><trkpt lat="43.5546983" lon="11.681835"><ele>297.0</ele><time>2026-03-28T09:20:13.472Z</time></trkpt><trkpt lat="43.554725" lon="11.6817333"><ele>297.0</ele><time>2026-03-28T09:20:14.472Z</time></trkpt><trkpt lat="43.55475" lon="11.6816317"><ele>297.0</ele><time>2026-03-28T09:20:15.47Z</time></trkpt><trkpt lat="43.5547767" lon="11.68153"><ele>297.0</ele><time>2026-03-28T09:20:16.473Z</time></trkpt><trkpt lat="43.554805" lon="11.68143"><ele>297.0</ele><time>2026-03-28T09:20:17.472Z</time></trkpt><trkpt lat="43.5548333" lon="11.68133"><ele>297.0</ele><time>2026-03-28T09:20:18.47Z</time></trkpt><trkpt lat="43.55486" lon="11.6812283"><ele>297.0</ele><time>2026-03-28T09:20:19.471Z</time></trkpt><trkpt lat="43.554895" lon="11.68113"><ele>297.0</ele><time>2026-03-28T09:20:20.469Z</time></trkpt><trkpt lat="43.5549367" lon="11.681035"><ele>297.0</ele><time>2026-03-28T09:20:21.472Z</time></trkpt><trkpt lat="43.554985" lon="11.6809483"><ele>297.0</ele><time>2026-03-28T09:20:22.471Z</time></trkpt><trkpt lat="43.5550417" lon="11.68087"><ele>297.0</ele><time>2026-03-28T09:20:23.469Z</time></trkpt><trkpt lat="43.5551017" lon="11.6808"><ele>297.0</ele><time>2026-03-28T09:20:24.469Z</time></trkpt><trkpt lat="43.5551633" lon="11.6807417"><ele>296.42857142857144</ele><time>2026-03-28T09:20:25.47Z</time></trkpt><trkpt lat="43.5552283" lon="11.6806933"><ele>295.8571428571429</ele><time>2026-03-28T09:20:26.469Z</time></trkpt><trkpt lat="43.5552933" lon="11.6806567"><ele>295.2857142857143</ele><time>2026-03-28T09:20:27.468Z</time></trkpt><trkpt lat="43.5553633" lon="11.6806283"><ele>294.7142857142857</ele><time>2026-03-28T09:20:28.469Z</time></trkpt><trkpt lat="43.5554383" lon="11.6806033"><ele>294.1428571428571</ele><time>2026-03-28T09:20:29.469Z</time></trkpt><trkpt lat="43.55551" lon="11.6805783"><ele>293.57142857142856</ele><time>2026-03-28T09:20:30.468Z</time></trkpt><trkpt lat="43.55558" lon="11.6805433"><ele>293.0</ele><time>2026-03-28T09:20:31.469Z</time></trkpt><trkpt lat="43.55565" lon="11.6805017"><ele>292.99999999999994</ele><time>2026-03-28T09:20:32.469Z</time></trkpt><trkpt lat="43.555715" lon="11.68045"><ele>293.0</ele><time>2026-03-28T09:20:33.469Z</time></trkpt><trkpt lat="43.5557767" lon="11.68039"><ele>293.0</ele><time>2026-03-28T09:20:34.472Z</time></trkpt><trkpt lat="43.5558333" lon="11.6803217"><ele>293.0</ele><time>2026-03-28T09:20:35.469Z</time></trkpt><trkpt lat="43.5558817" lon="11.680245"><ele>293.0</ele><time>2026-03-28T09:20:36.469Z</time></trkpt><trkpt lat="43.5559267" lon="11.68016"><ele>292.99999999999994</ele><time>2026-03-28T09:20:37.47Z</time></trkpt><trkpt lat="43.5559583" lon="11.6800683"><ele>293.0</ele><time>2026-03-28T09:20:38.471Z</time></trkpt><trkpt lat="43.555985" lon="11.6799717"><ele>292.71428571428567</ele><time>2026-03-28T09:20:39.469Z</time></trkpt><trkpt lat="43.5560033" lon="11.6798717"><ele>292.42857142857144</ele><time>2026-03-28T09:20:40.469Z</time></trkpt><trkpt lat="43.5560133" lon="11.67977"><ele>292.1428571428571</ele><time>2026-03-28T09:20:41.469Z</time></trkpt><trkpt lat="43.5560233" lon="11.6796667"><ele>291.85714285714283</ele><time>2026-03-28T09:20:42.468Z</time></trkpt><trkpt lat="43.5560267" lon="11.6795667"><ele>291.57142857142856</ele><time>2026-03-28T09:20:43.471Z</time></trkpt><trkpt lat="43.5560283" lon="11.6794667"><ele>291.2857142857143</ele><time>2026-03-28T09:20:44.47Z</time></trkpt><trkpt lat="43.5560333" lon="11.6793683"><ele>291.0</ele><time>2026-03-28T09:20:45.468Z</time></trkpt><trkpt lat="43.5560417" lon="11.6792733"><ele>291.0</ele><time>2026-03-28T09:20:46.47Z</time></trkpt><trkpt lat="43.5560517" lon="11.6791783"><ele>291.0</ele><time>2026-03-28T09:20:47.469Z</time></trkpt><trkpt lat="43.5560733" lon="11.67909"><ele>291.0</ele><time>2026-03-28T09:20:48.469Z</time></trkpt><trkpt lat="43.556105" lon="11.6790033"><ele>291.0</ele><time>2026-03-28T09:20:49.468Z</time></trkpt><trkpt lat="43.556145" lon="11.6789217"><ele>291.0</ele><time>2026-03-28T09:20:50.473Z</time></trkpt><trkpt lat="43.5561883" lon="11.6788433"><ele>291.0</ele><time>2026-03-28T09:20:51.469Z</time></trkpt><trkpt lat="43.5562367" lon="11.6787683"><ele>291.0</ele><time>2026-03-28T09:20:52.47Z</time></trkpt><trkpt lat="43.556285" lon="11.6786983"><ele>291.85714285714283</ele><time>2026-03-28T09:20:53.471Z</time></trkpt><trkpt lat="43.5563383" lon="11.6786267"><ele>292.71428571428567</ele><time>2026-03-28T09:20:54.471Z</time></trkpt><trkpt lat="43.5563933" lon="11.6785633"><ele>293.57142857142856</ele><time>2026-03-28T09:20:55.472Z</time></trkpt><trkpt lat="43.5564467" lon="11.6785033"><ele>294.42857142857144</ele><time>2026-03-28T09:20:56.47Z</time></trkpt><trkpt lat="43.5565017" lon="11.6784467"><ele>295.28571428571433</ele><time>2026-03-28T09:20:57.469Z</time></trkpt><trkpt lat="43.556555" lon="11.67839"><ele>296.14285714285717</ele><time>2026-03-28T09:20:58.469Z</time></trkpt><trkpt lat="43.55661" lon="11.6783333"><ele>297.0</ele><time>2026-03-28T09:20:59.468Z</time></trkpt><trkpt lat="43.556665" lon="11.6782767"><ele>297.0</ele><time>2026-03-28T09:21:00.469Z</time></trkpt><trkpt lat="43.5567233" lon="11.6782233"><ele>297.0</ele><time>2026-03-28T09:21:01.47Z</time></trkpt><trkpt lat="43.55678" lon="11.678165"><ele>297.0</ele><time>2026-03-28T09:21:02.47Z</time></trkpt><trkpt lat="43.5568367" lon="11.6781067"><ele>297.0</ele><time>2026-03-28T09:21:03.468Z</time></trkpt><trkpt lat="43.5568917" lon="11.6780467"><ele>297.0</ele><time>2026-03-28T09:21:04.47Z</time></trkpt><trkpt lat="43.55695" lon="11.6779883"><ele>297.0</ele><time>2026-03-28T09:21:05.468Z</time></trkpt><trkpt lat="43.5570083" lon="11.67793"><ele>297.0</ele><time>2026-03-28T09:21:06.471Z</time></trkpt><trkpt lat="43.5570683" lon="11.6778683"><ele>297.14285714285717</ele><time>2026-03-28T09:21:07.468Z</time></trkpt><trkpt lat="43.5571267" lon="11.677805"><ele>297.28571428571433</ele><time>2026-03-28T09:21:08.47Z</time></trkpt><trkpt lat="43.5571833" lon="11.6777417"><ele>297.42857142857144</ele><time>2026-03-28T09:21:09.47Z</time></trkpt><trkpt lat="43.557235" lon="11.6776717"><ele>297.57142857142856</ele><time>2026-03-28T09:21:10.469Z</time></trkpt><trkpt lat="43.5572817" lon="11.6775967"><ele>297.71428571428567</ele><time>2026-03-28T09:21:11.468Z</time></trkpt><trkpt lat="43.5573233" lon="11.6775167"><ele>297.85714285714283</ele><time>2026-03-28T09:21:12.469Z</time></trkpt><trkpt lat="43.5573567" lon="11.677435"><ele>298.0</ele><time>2026-03-28T09:21:13.469Z</time></trkpt><trkpt lat="43.5573867" lon="11.6773467"><ele>298.0</ele><time>2026-03-28T09:21:14.47Z</time></trkpt><trkpt lat="43.557415" lon="11.6772583"><ele>298.0</ele><time>2026-03-28T09:21:15.469Z</time></trkpt><trkpt lat="43.5574417" lon="11.6771733"><ele>298.0</ele><time>2026-03-28T09:21:16.47Z</time></trkpt><trkpt lat="43.5574667" lon="11.6770883"><ele>298.0</ele><time>2026-03-28T09:21:17.469Z</time></trkpt><trkpt lat="43.55749" lon="11.677005"><ele>298.0</ele><time>2026-03-28T09:21:18.469Z</time></trkpt><trkpt lat="43.55753" lon="11.676845"><ele>298.0</ele><time>2026-03-28T09:21:20.47Z</time></trkpt><trkpt lat="43.557575" lon="11.6766967"><ele>297.75</ele><time>2026-03-28T09:21:22.47Z</time></trkpt><trkpt lat="43.5576333" lon="11.6765567"><ele>297.5</ele><time>2026-03-28T09:21:24.469Z</time></trkpt><trkpt lat="43.55771" lon="11.6764333"><ele>297.25</ele><time>2026-03-28T09:21:26.468Z</time></trkpt><trkpt lat="43.557805" lon="11.6763333"><ele>297.0</ele><time>2026-03-28T09:21:28.469Z</time></trkpt><trkpt lat="43.55791" lon="11.6762583"><ele>297.75</ele><time>2026-03-28T09:21:30.469Z</time></trkpt><trkpt lat="43.5580233" lon="11.6762067"><ele>298.5</ele><time>2026-03-28T09:21:32.472Z</time></trkpt><trkpt lat="43.5581367" lon="11.6761683"><ele>299.25</ele><time>2026-03-28T09:21:34.468Z</time></trkpt><trkpt lat="43.5582483" lon="11.67613"><ele>300.0</ele><time>2026-03-28T09:21:36.47Z</time></trkpt><trkpt lat="43.5583617" lon="11.676095"><ele>300.0</ele><time>2026-03-28T09:21:38.47Z</time></trkpt><trkpt lat="43.55847" lon="11.67605"><ele>300.0</ele><time>2026-03-28T09:21:40.469Z</time></trkpt><trkpt lat="43.558575" lon="11.6759817"><ele>300.0</ele><time>2026-03-28T09:21:42.472Z</time></trkpt><trkpt lat="43.55867" lon="11.6758917"><ele>300.0</ele><time>2026-03-28T09:21:44.471Z</time></trkpt><trkpt lat="43.5587417" lon="11.6757667"><ele>301.8</ele><time>2026-03-28T09:21:46.471Z</time></trkpt><trkpt lat="43.5587867" lon="11.67561"><ele>303.6</ele><time>2026-03-28T09:21:48.469Z</time></trkpt><trkpt lat="43.5588" lon="11.6754467"><ele>305.4</ele><time>2026-03-28T09:21:50.47Z</time></trkpt><trkpt lat="43.5587833" lon="11.6752783"><ele>307.2</ele><time>2026-03-28T09:21:52.472Z</time></trkpt><trkpt lat="43.558765" lon="11.675195"><ele>309.0</ele><time>2026-03-28T09:21:53.471Z</time></trkpt><trkpt lat="43.55873" lon="11.6750283"><ele>306.75</ele><time>2026-03-28T09:21:55.471Z</time></trkpt><trkpt lat="43.5586967" lon="11.6748617"><ele>304.5</ele><time>2026-03-28T09:21:57.469Z</time></trkpt><trkpt lat="43.5586833" lon="11.67469"><ele>302.25</ele><time>2026-03-28T09:21:59.469Z</time></trkpt><trkpt lat="43.5586733" lon="11.6745183"><ele>300.0</ele><time>2026-03-28T09:22:01.469Z</time></trkpt><trkpt lat="43.5586717" lon="11.6743467"><ele>300.0</ele><time>2026-03-28T09:22:03.469Z</time></trkpt><trkpt lat="43.5586767" lon="11.67426"><ele>300.0</ele><time>2026-03-28T09:22:04.469Z</time></trkpt><trkpt lat="43.5586917" lon="11.674175"><ele>300.0</ele><time>2026-03-28T09:22:05.47Z</time></trkpt><trkpt lat="43.5587567" lon="11.674025"><ele>300.0</ele><time>2026-03-28T09:22:07.47Z</time></trkpt><trkpt lat="43.5588467" lon="11.6739283"><ele>300.0</ele><time>2026-03-28T09:22:09.47Z</time></trkpt><trkpt lat="43.558955" lon="11.6738667"><ele>302.2</ele><time>2026-03-28T09:22:11.469Z</time></trkpt><trkpt lat="43.5590667" lon="11.67382"><ele>304.4</ele><time>2026-03-28T09:22:13.469Z</time></trkpt><trkpt lat="43.559185" lon="11.67378"><ele>306.6</ele><time>2026-03-28T09:22:15.47Z</time></trkpt><trkpt lat="43.559305" lon="11.6737433"><ele>308.8</ele><time>2026-03-28T09:22:17.469Z</time></trkpt><trkpt lat="43.5593683" lon="11.67373"><ele>311.0</ele><time>2026-03-28T09:22:18.468Z</time></trkpt><trkpt lat="43.5594317" lon="11.67372"><ele>312.5</ele><time>2026-03-28T09:22:19.469Z</time></trkpt><trkpt lat="43.559555" lon="11.67371"><ele>314.0</ele><time>2026-03-28T09:22:21.47Z</time></trkpt><trkpt lat="43.5596733" lon="11.67372"><ele>315.5</ele><time>2026-03-28T09:22:23.469Z</time></trkpt><trkpt lat="43.559785" lon="11.673735"><ele>317.0</ele><time>2026-03-28T09:22:25.469Z</time></trkpt><trkpt lat="43.5598983" lon="11.6737417"><ele>317.0</ele><time>2026-03-28T09:22:27.47Z</time></trkpt><trkpt lat="43.56001" lon="11.6737617"><ele>317.0</ele><time>2026-03-28T09:22:29.468Z</time></trkpt><trkpt lat="43.56012" lon="11.673755"><ele>317.0</ele><time>2026-03-28T09:22:31.471Z</time></trkpt><trkpt lat="43.560225" lon="11.6737133"><ele>317.0</ele><time>2026-03-28T09:22:33.469Z</time></trkpt><trkpt lat="43.5603033" lon="11.6736033"><ele>317.0</ele><time>2026-03-28T09:22:35.473Z</time></trkpt><trkpt lat="43.56034" lon="11.6734567"><ele>314.75</ele><time>2026-03-28T09:22:37.469Z</time></trkpt><trkpt lat="43.5603283" lon="11.673285"><ele>312.5</ele><time>2026-03-28T09:22:39.467Z</time></trkpt><trkpt lat="43.56029" lon="11.673125"><ele>310.25</ele><time>2026-03-28T09:22:41.47Z</time></trkpt><trkpt lat="43.5602467" lon="11.672965"><ele>308.0</ele><time>2026-03-28T09:22:43.469Z</time></trkpt><trkpt lat="43.560215" lon="11.6728017"><ele>309.0</ele><time>2026-03-28T09:22:45.469Z</time></trkpt><trkpt lat="43.56019" lon="11.6726467"><ele>310.0</ele><time>2026-03-28T09:22:47.468Z</time></trkpt><trkpt lat="43.56017" lon="11.67249"><ele>311.0</ele><time>2026-03-28T09:22:49.469Z</time></trkpt><trkpt lat="43.5601617" lon="11.6723317"><ele>312.0</ele><time>2026-03-28T09:22:51.469Z</time></trkpt><trkpt lat="43.56015" lon="11.6721733"><ele>312.0</ele><time>2026-03-28T09:22:53.469Z</time></trkpt><trkpt lat="43.5601433" lon="11.6720083"><ele>312.0</ele><time>2026-03-28T09:22:55.469Z</time></trkpt><trkpt lat="43.5601417" lon="11.6718383"><ele>312.0</ele><time>2026-03-28T09:22:57.471Z</time></trkpt><trkpt lat="43.5601367" lon="11.6716733"><ele>312.0</ele><time>2026-03-28T09:22:59.471Z</time></trkpt><trkpt lat="43.5601317" lon="11.6715033"><ele>312.0</ele><time>2026-03-28T09:23:01.47Z</time></trkpt><trkpt lat="43.5601317" lon="11.6713383"><ele>312.0</ele><time>2026-03-28T09:23:03.469Z</time></trkpt><trkpt lat="43.5601533" lon="11.6711733"><ele>312.0</ele><time>2026-03-28T09:23:05.469Z</time></trkpt><trkpt lat="43.5601767" lon="11.6710917"><ele>312.0</ele><time>2026-03-28T09:23:06.469Z</time></trkpt><trkpt lat="43.5602067" lon="11.6710133"><ele>312.0</ele><time>2026-03-28T09:23:07.469Z</time></trkpt><trkpt lat="43.56024" lon="11.6709367"><ele>312.0</ele><time>2026-03-28T09:23:08.47Z</time></trkpt><trkpt lat="43.56027" lon="11.6708583"><ele>311.8571428571429</ele><time>2026-03-28T09:23:09.469Z</time></trkpt><trkpt lat="43.5603" lon="11.6707767"><ele>311.71428571428567</ele><time>2026-03-28T09:23:10.47Z</time></trkpt><trkpt lat="43.5603317" lon="11.670695"><ele>311.57142857142856</ele><time>2026-03-28T09:23:11.469Z</time></trkpt><trkpt lat="43.5603667" lon="11.6706117"><ele>311.42857142857144</ele><time>2026-03-28T09:23:12.469Z</time></trkpt><trkpt lat="43.5604033" lon="11.67053"><ele>311.28571428571433</ele><time>2026-03-28T09:23:13.469Z</time></trkpt><trkpt lat="43.5604383" lon="11.6704467"><ele>311.1428571428571</ele><time>2026-03-28T09:23:14.47Z</time></trkpt><trkpt lat="43.5604717" lon="11.67036"><ele>311.0</ele><time>2026-03-28T09:23:15.469Z</time></trkpt><trkpt lat="43.5605017" lon="11.6702717"><ele>312.0</ele><time>2026-03-28T09:23:16.468Z</time></trkpt><trkpt lat="43.5605233" lon="11.67018"><ele>313.0</ele><time>2026-03-28T09:23:17.469Z</time></trkpt><trkpt lat="43.5605433" lon="11.6700867"><ele>314.0</ele><time>2026-03-28T09:23:18.469Z</time></trkpt><trkpt lat="43.5605583" lon="11.66999"><ele>315.0</ele><time>2026-03-28T09:23:19.468Z</time></trkpt><trkpt lat="43.56056" lon="11.66989"><ele>316.0</ele><time>2026-03-28T09:23:20.47Z</time></trkpt><trkpt lat="43.5605533" lon="11.669795"><ele>317.0</ele><time>2026-03-28T09:23:21.468Z</time></trkpt><trkpt lat="43.5605383" lon="11.6697"><ele>318.0</ele><time>2026-03-28T09:23:22.469Z</time></trkpt><trkpt lat="43.560515" lon="11.66961"><ele>318.0</ele><time>2026-03-28T09:23:23.473Z</time></trkpt><trkpt lat="43.5604833" lon="11.6695267"><ele>318.0</ele><time>2026-03-28T09:23:24.472Z</time></trkpt><trkpt lat="43.5604467" lon="11.6694433"><ele>318.0</ele><time>2026-03-28T09:23:25.472Z</time></trkpt><trkpt lat="43.5604083" lon="11.66936"><ele>318.0</ele><time>2026-03-28T09:23:26.472Z</time></trkpt><trkpt lat="43.560375" lon="11.66927"><ele>318.0</ele><time>2026-03-28T09:23:27.473Z</time></trkpt><trkpt lat="43.5603483" lon="11.6691767"><ele>318.0</ele><time>2026-03-28T09:23:28.472Z</time></trkpt><trkpt lat="43.5603267" lon="11.6690817"><ele>318.0</ele><time>2026-03-28T09:23:29.471Z</time></trkpt><trkpt lat="43.5603067" lon="11.6689867"><ele>316.57142857142856</ele><time>2026-03-28T09:23:30.468Z</time></trkpt><trkpt lat="43.56029" lon="11.6688883"><ele>315.14285714285717</ele><time>2026-03-28T09:23:31.471Z</time></trkpt><trkpt lat="43.560275" lon="11.66879"><ele>313.7142857142857</ele><time>2026-03-28T09:23:32.471Z</time></trkpt><trkpt lat="43.5602667" lon="11.66869"><ele>312.2857142857143</ele><time>2026-03-28T09:23:33.47Z</time></trkpt><trkpt lat="43.5602617" lon="11.66859"><ele>310.8571428571429</ele><time>2026-03-28T09:23:34.471Z</time></trkpt><trkpt lat="43.5602633" lon="11.66849"><ele>309.42857142857144</ele><time>2026-03-28T09:23:35.47Z</time></trkpt><trkpt lat="43.5602683" lon="11.6683883"><ele>308.0</ele><time>2026-03-28T09:23:36.47Z</time></trkpt><trkpt lat="43.5602767" lon="11.6682883"><ele>308.0</ele><time>2026-03-28T09:23:37.471Z</time></trkpt><trkpt lat="43.5602883" lon="11.6681867"><ele>308.0</ele><time>2026-03-28T09:23:38.469Z</time></trkpt><trkpt lat="43.5603033" lon="11.6680833"><ele>308.0</ele><time>2026-03-28T09:23:39.469Z</time></trkpt><trkpt lat="43.5603217" lon="11.66798"><ele>308.0</ele><time>2026-03-28T09:23:40.469Z</time></trkpt><trkpt lat="43.56034" lon="11.667875"><ele>308.0</ele><time>2026-03-28T09:23:41.469Z</time></trkpt><trkpt lat="43.5603583" lon="11.6677683"><ele>308.0</ele><time>2026-03-28T09:23:42.468Z</time></trkpt><trkpt lat="43.560375" lon="11.667665"><ele>310.33333333333337</ele><time>2026-03-28T09:23:43.468Z</time></trkpt><trkpt lat="43.5603917" lon="11.66756"><ele>312.6666666666667</ele><time>2026-03-28T09:23:44.47Z</time></trkpt><trkpt lat="43.5604033" lon="11.6674517"><ele>315.0</ele><time>2026-03-28T09:23:45.468Z</time></trkpt><trkpt lat="43.5604183" lon="11.6673417"><ele>317.3333333333333</ele><time>2026-03-28T09:23:46.468Z</time></trkpt><trkpt lat="43.56043" lon="11.6672317"><ele>319.66666666666663</ele><time>2026-03-28T09:23:47.468Z</time></trkpt><trkpt lat="43.5604383" lon="11.6671183"><ele>322.0</ele><time>2026-03-28T09:23:48.469Z</time></trkpt><trkpt lat="43.5604367" lon="11.6670067"><ele>322.0</ele><time>2026-03-28T09:23:49.468Z</time></trkpt><trkpt lat="43.560425" lon="11.6668967"><ele>322.0</ele><time>2026-03-28T09:23:50.468Z</time></trkpt><trkpt lat="43.560405" lon="11.66679"><ele>322.0</ele><time>2026-03-28T09:23:51.468Z</time></trkpt><trkpt lat="43.56038" lon="11.6666833"><ele>322.0</ele><time>2026-03-28T09:23:52.472Z</time></trkpt><trkpt lat="43.560355" lon="11.6665767"><ele>322.0</ele><time>2026-03-28T09:23:53.47Z</time></trkpt><trkpt lat="43.5603317" lon="11.66647"><ele>322.0</ele><time>2026-03-28T09:23:54.47Z</time></trkpt><trkpt lat="43.5603183" lon="11.6663617"><ele>321.66666666666663</ele><time>2026-03-28T09:23:55.47Z</time></trkpt><trkpt lat="43.5603133" lon="11.6662517"><ele>321.3333333333333</ele><time>2026-03-28T09:23:56.471Z</time></trkpt><trkpt lat="43.5603183" lon="11.6661433"><ele>321.0</ele><time>2026-03-28T09:23:57.471Z</time></trkpt><trkpt lat="43.5603317" lon="11.666035"><ele>320.6666666666667</ele><time>2026-03-28T09:23:58.47Z</time></trkpt><trkpt lat="43.5603467" lon="11.66593"><ele>320.33333333333337</ele><time>2026-03-28T09:23:59.472Z</time></trkpt><trkpt lat="43.560365" lon="11.6658267"><ele>320.0</ele><time>2026-03-28T09:24:00.472Z</time></trkpt><trkpt lat="43.560385" lon="11.6657267"><ele>320.0</ele><time>2026-03-28T09:24:01.468Z</time></trkpt><trkpt lat="43.560415" lon="11.66563"><ele>320.0</ele><time>2026-03-28T09:24:02.47Z</time></trkpt><trkpt lat="43.5604483" lon="11.66554"><ele>320.0</ele><time>2026-03-28T09:24:03.471Z</time></trkpt><trkpt lat="43.5604867" lon="11.665455"><ele>320.0</ele><time>2026-03-28T09:24:04.47Z</time></trkpt><trkpt lat="43.560535" lon="11.6653817"><ele>320.0</ele><time>2026-03-28T09:24:05.47Z</time></trkpt><trkpt lat="43.56059" lon="11.6653233"><ele>320.0</ele><time>2026-03-28T09:24:06.468Z</time></trkpt><trkpt lat="43.5606483" lon="11.6652767"><ele>320.0</ele><time>2026-03-28T09:24:07.467Z</time></trkpt><trkpt lat="43.560715" lon="11.6652433"><ele>320.85714285714283</ele><time>2026-03-28T09:24:08.469Z</time></trkpt><trkpt lat="43.5607833" lon="11.6652217"><ele>321.7142857142857</ele><time>2026-03-28T09:24:09.468Z</time></trkpt><trkpt lat="43.560855" lon="11.6652033"><ele>322.57142857142856</ele><time>2026-03-28T09:24:10.47Z</time></trkpt><trkpt lat="43.560925" lon="11.6651867"><ele>323.42857142857144</ele><time>2026-03-28T09:24:11.467Z</time></trkpt><trkpt lat="43.5609967" lon="11.6651683"><ele>324.2857142857143</ele><time>2026-03-28T09:24:12.468Z</time></trkpt><trkpt lat="43.56107" lon="11.665145"><ele>325.14285714285717</ele><time>2026-03-28T09:24:13.469Z</time></trkpt><trkpt lat="43.56114" lon="11.6651083"><ele>326.0</ele><time>2026-03-28T09:24:14.468Z</time></trkpt><trkpt lat="43.5612033" lon="11.66505"><ele>326.0</ele><time>2026-03-28T09:24:15.469Z</time></trkpt><trkpt lat="43.5612583" lon="11.6649767"><ele>326.0</ele><time>2026-03-28T09:24:16.469Z</time></trkpt><trkpt lat="43.561295" lon="11.6648867"><ele>326.0</ele><time>2026-03-28T09:24:17.468Z</time></trkpt><trkpt lat="43.5613167" lon="11.6647833"><ele>326.0</ele><time>2026-03-28T09:24:18.467Z</time></trkpt><trkpt lat="43.5613217" lon="11.664675"><ele>326.0</ele><time>2026-03-28T09:24:19.468Z</time></trkpt><trkpt lat="43.561315" lon="11.6645667"><ele>326.0</ele><time>2026-03-28T09:24:20.468Z</time></trkpt><trkpt lat="43.5612967" lon="11.66446"><ele>325.0</ele><time>2026-03-28T09:24:21.467Z</time></trkpt><trkpt lat="43.5612783" lon="11.6643533"><ele>324.0</ele><time>2026-03-28T09:24:22.468Z</time></trkpt><trkpt lat="43.56127" lon="11.66424"><ele>323.0</ele><time>2026-03-28T09:24:23.468Z</time></trkpt><trkpt lat="43.56127" lon="11.6641283"><ele>322.0</ele><time>2026-03-28T09:24:24.467Z</time></trkpt><trkpt lat="43.5612883" lon="11.6640217"><ele>321.0</ele><time>2026-03-28T09:24:25.469Z</time></trkpt><trkpt lat="43.5613233" lon="11.663925"><ele>320.0</ele><time>2026-03-28T09:24:26.469Z</time></trkpt><trkpt lat="43.5613833" lon="11.66385"><ele>320.0</ele><time>2026-03-28T09:24:27.468Z</time></trkpt><trkpt lat="43.5614583" lon="11.663795"><ele>320.0</ele><time>2026-03-28T09:24:28.468Z</time></trkpt><trkpt lat="43.561535" lon="11.6637617"><ele>320.0</ele><time>2026-03-28T09:24:29.468Z</time></trkpt><trkpt lat="43.5616167" lon="11.6637433"><ele>320.0</ele><time>2026-03-28T09:24:30.467Z</time></trkpt><trkpt lat="43.561695" lon="11.66373"><ele>320.0</ele><time>2026-03-28T09:24:31.468Z</time></trkpt><trkpt lat="43.56177" lon="11.6637033"><ele>320.0</ele><time>2026-03-28T09:24:32.468Z</time></trkpt><trkpt lat="43.561845" lon="11.6636583"><ele>320.5</ele><time>2026-03-28T09:24:33.468Z</time></trkpt><trkpt lat="43.56191" lon="11.6635867"><ele>321.0</ele><time>2026-03-28T09:24:34.47Z</time></trkpt><trkpt lat="43.56197" lon="11.6635033"><ele>321.5</ele><time>2026-03-28T09:24:35.471Z</time></trkpt><trkpt lat="43.5620233" lon="11.6634133"><ele>322.0</ele><time>2026-03-28T09:24:36.471Z</time></trkpt><trkpt lat="43.5620683" lon="11.6633183"><ele>322.5</ele><time>2026-03-28T09:24:37.471Z</time></trkpt><trkpt lat="43.562115" lon="11.6632217"><ele>323.0</ele><time>2026-03-28T09:24:38.468Z</time></trkpt><trkpt lat="43.5621683" lon="11.6631317"><ele>323.0</ele><time>2026-03-28T09:24:39.469Z</time></trkpt><trkpt lat="43.56223" lon="11.6630567"><ele>323.0</ele><time>2026-03-28T09:24:40.468Z</time></trkpt><trkpt lat="43.5623017" lon="11.663005"><ele>323.0</ele><time>2026-03-28T09:24:41.468Z</time></trkpt><trkpt lat="43.5623817" lon="11.66297"><ele>323.0</ele><time>2026-03-28T09:24:42.469Z</time></trkpt><trkpt lat="43.562465" lon="11.6629483"><ele>323.0</ele><time>2026-03-28T09:24:43.469Z</time></trkpt><trkpt lat="43.5625467" lon="11.662935"><ele>323.0</ele><time>2026-03-28T09:24:44.469Z</time></trkpt><trkpt lat="43.56263" lon="11.6629267"><ele>323.0</ele><time>2026-03-28T09:24:45.468Z</time></trkpt><trkpt lat="43.562715" lon="11.6629317"><ele>323.0</ele><time>2026-03-28T09:24:46.468Z</time></trkpt><trkpt lat="43.5627967" lon="11.6629367"><ele>323.0</ele><time>2026-03-28T09:24:47.468Z</time></trkpt><trkpt lat="43.5628817" lon="11.6629317"><ele>323.0</ele><time>2026-03-28T09:24:48.468Z</time></trkpt><trkpt lat="43.5629633" lon="11.66291"><ele>323.0</ele><time>2026-03-28T09:24:49.468Z</time></trkpt><trkpt lat="43.5630417" lon="11.6628633"><ele>323.0</ele><time>2026-03-28T09:24:50.467Z</time></trkpt><trkpt lat="43.5631067" lon="11.6627967"><ele>322.5</ele><time>2026-03-28T09:24:51.467Z</time></trkpt><trkpt lat="43.5631583" lon="11.6627083"><ele>322.0</ele><time>2026-03-28T09:24:52.469Z</time></trkpt><trkpt lat="43.5631883" lon="11.6626083"><ele>321.5</ele><time>2026-03-28T09:24:53.469Z</time></trkpt><trkpt lat="43.563205" lon="11.6625033"><ele>321.0</ele><time>2026-03-28T09:24:54.468Z</time></trkpt><trkpt lat="43.5632217" lon="11.6623933"><ele>320.5</ele><time>2026-03-28T09:24:55.47Z</time></trkpt><trkpt lat="43.563245" lon="11.6622817"><ele>320.0</ele><time>2026-03-28T09:24:56.47Z</time></trkpt><trkpt lat="43.5632667" lon="11.6621733"><ele>320.0</ele><time>2026-03-28T09:24:57.47Z</time></trkpt><trkpt lat="43.5632883" lon="11.662065"><ele>320.0</ele><time>2026-03-28T09:24:58.469Z</time></trkpt><trkpt lat="43.5633067" lon="11.6619567"><ele>320.0</ele><time>2026-03-28T09:24:59.47Z</time></trkpt><trkpt lat="43.563325" lon="11.6618517"><ele>320.0</ele><time>2026-03-28T09:25:00.469Z</time></trkpt><trkpt lat="43.563345" lon="11.66175"><ele>320.0</ele><time>2026-03-28T09:25:01.469Z</time></trkpt><trkpt lat="43.5633733" lon="11.6616533"><ele>320.0</ele><time>2026-03-28T09:25:02.467Z</time></trkpt><trkpt lat="43.563415" lon="11.6615583"><ele>319.0</ele><time>2026-03-28T09:25:03.468Z</time></trkpt><trkpt lat="43.56346" lon="11.66147"><ele>318.0</ele><time>2026-03-28T09:25:04.467Z</time></trkpt><trkpt lat="43.5635133" lon="11.66139"><ele>317.0</ele><time>2026-03-28T09:25:05.469Z</time></trkpt><trkpt lat="43.5635683" lon="11.661315"><ele>316.0</ele><time>2026-03-28T09:25:06.468Z</time></trkpt><trkpt lat="43.5636267" lon="11.66125"><ele>315.0</ele><time>2026-03-28T09:25:07.468Z</time></trkpt><trkpt lat="43.5636867" lon="11.6611833"><ele>314.0</ele><time>2026-03-28T09:25:08.468Z</time></trkpt><trkpt lat="43.5637433" lon="11.661115"><ele>316.33333333333337</ele><time>2026-03-28T09:25:09.468Z</time></trkpt><trkpt lat="43.563795" lon="11.6610367"><ele>318.6666666666667</ele><time>2026-03-28T09:25:10.469Z</time></trkpt><trkpt lat="43.5638367" lon="11.6609483"><ele>321.0</ele><time>2026-03-28T09:25:11.468Z</time></trkpt><trkpt lat="43.5638633" lon="11.6608483"><ele>323.3333333333333</ele><time>2026-03-28T09:25:12.469Z</time></trkpt><trkpt lat="43.56388" lon="11.660745"><ele>325.66666666666663</ele><time>2026-03-28T09:25:13.469Z</time></trkpt><trkpt lat="43.5638883" lon="11.6606383"><ele>328.0</ele><time>2026-03-28T09:25:14.469Z</time></trkpt><trkpt lat="43.5638883" lon="11.6605333"><ele>328.0</ele><time>2026-03-28T09:25:15.47Z</time></trkpt><trkpt lat="43.5638917" lon="11.66043"><ele>328.0</ele><time>2026-03-28T09:25:16.469Z</time></trkpt><trkpt lat="43.5639017" lon="11.6603217"><ele>328.0</ele><time>2026-03-28T09:25:17.469Z</time></trkpt><trkpt lat="43.5639183" lon="11.660215"><ele>328.0</ele><time>2026-03-28T09:25:18.469Z</time></trkpt><trkpt lat="43.5639417" lon="11.6601133"><ele>328.0</ele><time>2026-03-28T09:25:19.467Z</time></trkpt><trkpt lat="43.5639717" lon="11.6600117"><ele>328.0</ele><time>2026-03-28T09:25:20.469Z</time></trkpt><trkpt lat="43.5640083" lon="11.6599133"><ele>327.2857142857143</ele><time>2026-03-28T09:25:21.468Z</time></trkpt><trkpt lat="43.56405" lon="11.6598267"><ele>326.57142857142856</ele><time>2026-03-28T09:25:22.468Z</time></trkpt><trkpt lat="43.5640917" lon="11.6597417"><ele>325.8571428571429</ele><time>2026-03-28T09:25:23.47Z</time></trkpt><trkpt lat="43.56414" lon="11.659665"><ele>325.1428571428571</ele><time>2026-03-28T09:25:24.468Z</time></trkpt><trkpt lat="43.5641933" lon="11.6595967"><ele>324.42857142857144</ele><time>2026-03-28T09:25:25.468Z</time></trkpt><trkpt lat="43.5642483" lon="11.6595367"><ele>323.7142857142857</ele><time>2026-03-28T09:25:26.472Z</time></trkpt><trkpt lat="43.5643067" lon="11.65948"><ele>323.0</ele><time>2026-03-28T09:25:27.469Z</time></trkpt><trkpt lat="43.56437" lon="11.6594283"><ele>322.8571428571429</ele><time>2026-03-28T09:25:28.467Z</time></trkpt><trkpt lat="43.5644333" lon="11.65938"><ele>322.7142857142857</ele><time>2026-03-28T09:25:29.47Z</time></trkpt><trkpt lat="43.5644967" lon="11.6593317"><ele>322.57142857142856</ele><time>2026-03-28T09:25:30.469Z</time></trkpt><trkpt lat="43.5645567" lon="11.6592867"><ele>322.42857142857144</ele><time>2026-03-28T09:25:31.469Z</time></trkpt><trkpt lat="43.5646183" lon="11.6592433"><ele>322.2857142857143</ele><time>2026-03-28T09:25:32.469Z</time></trkpt><trkpt lat="43.5646783" lon="11.6591983"><ele>322.14285714285717</ele><time>2026-03-28T09:25:33.469Z</time></trkpt><trkpt lat="43.56474" lon="11.6591533"><ele>322.0</ele><time>2026-03-28T09:25:34.469Z</time></trkpt><trkpt lat="43.5648" lon="11.65911"><ele>322.0</ele><time>2026-03-28T09:25:35.468Z</time></trkpt><trkpt lat="43.56486" lon="11.6590667"><ele>322.0</ele><time>2026-03-28T09:25:36.468Z</time></trkpt><trkpt lat="43.5649183" lon="11.6590233"><ele>322.0</ele><time>2026-03-28T09:25:37.468Z</time></trkpt><trkpt lat="43.5649767" lon="11.6589817"><ele>322.0</ele><time>2026-03-28T09:25:38.468Z</time></trkpt><trkpt lat="43.5650333" lon="11.6589367"><ele>322.0</ele><time>2026-03-28T09:25:39.467Z</time></trkpt><trkpt lat="43.5651433" lon="11.658855"><ele>322.0</ele><time>2026-03-28T09:25:41.468Z</time></trkpt><trkpt lat="43.5651983" lon="11.65881"><ele>322.0</ele><time>2026-03-28T09:25:42.468Z</time></trkpt><trkpt lat="43.565255" lon="11.6587617"><ele>322.0</ele><time>2026-03-28T09:25:43.47Z</time></trkpt><trkpt lat="43.5653133" lon="11.6587183"><ele>322.0</ele><time>2026-03-28T09:25:44.468Z</time></trkpt><trkpt lat="43.5653783" lon="11.6586783"><ele>322.0</ele><time>2026-03-28T09:25:45.468Z</time></trkpt><trkpt lat="43.565445" lon="11.65864"><ele>322.0</ele><time>2026-03-28T09:25:46.468Z</time></trkpt><trkpt lat="43.565515" lon="11.658605"><ele>322.0</ele><time>2026-03-28T09:25:47.469Z</time></trkpt><trkpt lat="43.5655883" lon="11.65858"><ele>322.0</ele><time>2026-03-28T09:25:48.468Z</time></trkpt><trkpt lat="43.565665" lon="11.6585583"><ele>321.5</ele><time>2026-03-28T09:25:49.469Z</time></trkpt><trkpt lat="43.5657417" lon="11.6585367"><ele>321.0</ele><time>2026-03-28T09:25:50.469Z</time></trkpt><trkpt lat="43.5658233" lon="11.6585183"><ele>320.5</ele><time>2026-03-28T09:25:51.469Z</time></trkpt><trkpt lat="43.5659067" lon="11.6585017"><ele>320.0</ele><time>2026-03-28T09:25:52.468Z</time></trkpt><trkpt lat="43.56599" lon="11.6584817"><ele>319.5</ele><time>2026-03-28T09:25:53.468Z</time></trkpt><trkpt lat="43.56607" lon="11.65846"><ele>319.0</ele><time>2026-03-28T09:25:54.469Z</time></trkpt><trkpt lat="43.5661517" lon="11.658435"><ele>319.5</ele><time>2026-03-28T09:25:55.469Z</time></trkpt><trkpt lat="43.5662333" lon="11.6584067"><ele>320.0</ele><time>2026-03-28T09:25:56.469Z</time></trkpt><trkpt lat="43.566315" lon="11.6583733"><ele>320.5</ele><time>2026-03-28T09:25:57.468Z</time></trkpt><trkpt lat="43.5663983" lon="11.6583367"><ele>321.0</ele><time>2026-03-28T09:25:58.468Z</time></trkpt><trkpt lat="43.56648" lon="11.65829"><ele>321.5</ele><time>2026-03-28T09:25:59.47Z</time></trkpt><trkpt lat="43.5665583" lon="11.658235"><ele>322.0</ele><time>2026-03-28T09:26:00.468Z</time></trkpt><trkpt lat="43.5666317" lon="11.65817"><ele>322.0</ele><time>2026-03-28T09:26:01.468Z</time></trkpt><trkpt lat="43.5667083" lon="11.658105"><ele>322.0</ele><time>2026-03-28T09:26:02.468Z</time></trkpt><trkpt lat="43.5667783" lon="11.65803"><ele>322.0</ele><time>2026-03-28T09:26:03.468Z</time></trkpt><trkpt lat="43.5668483" lon="11.6579417"><ele>322.0</ele><time>2026-03-28T09:26:04.468Z</time></trkpt><trkpt lat="43.56692" lon="11.6578567"><ele>322.0</ele><time>2026-03-28T09:26:05.468Z</time></trkpt><trkpt lat="43.5669883" lon="11.6577583"><ele>322.0</ele><time>2026-03-28T09:26:06.47Z</time></trkpt><trkpt lat="43.5670533" lon="11.6576567"><ele>322.0</ele><time>2026-03-28T09:26:07.469Z</time></trkpt><trkpt lat="43.56711" lon="11.65755"><ele>322.0</ele><time>2026-03-28T09:26:08.468Z</time></trkpt><trkpt lat="43.5671617" lon="11.6574383"><ele>322.0</ele><time>2026-03-28T09:26:09.468Z</time></trkpt><trkpt lat="43.56721" lon="11.657325"><ele>322.0</ele><time>2026-03-28T09:26:10.468Z</time></trkpt><trkpt lat="43.5672533" lon="11.65721"><ele>322.0</ele><time>2026-03-28T09:26:11.468Z</time></trkpt><trkpt lat="43.567295" lon="11.6570967"><ele>322.0</ele><time>2026-03-28T09:26:12.468Z</time></trkpt><trkpt lat="43.567335" lon="11.6569817"><ele>322.0</ele><time>2026-03-28T09:26:13.467Z</time></trkpt><trkpt lat="43.567375" lon="11.6568683"><ele>322.0</ele><time>2026-03-28T09:26:14.469Z</time></trkpt><trkpt lat="43.5674183" lon="11.6567533"><ele>322.0</ele><time>2026-03-28T09:26:15.469Z</time></trkpt><trkpt lat="43.5674667" lon="11.6566433"><ele>320.8</ele><time>2026-03-28T09:26:16.469Z</time></trkpt><trkpt lat="43.5675217" lon="11.65654"><ele>319.6</ele><time>2026-03-28T09:26:17.468Z</time></trkpt><trkpt lat="43.567585" lon="11.656445"><ele>318.40000000000003</ele><time>2026-03-28T09:26:18.467Z</time></trkpt><trkpt lat="43.5676533" lon="11.6563583"><ele>317.20000000000005</ele><time>2026-03-28T09:26:19.467Z</time></trkpt><trkpt lat="43.56773" lon="11.65628"><ele>316.0</ele><time>2026-03-28T09:26:20.469Z</time></trkpt><trkpt lat="43.5678067" lon="11.6562133"><ele>315.8333333333333</ele><time>2026-03-28T09:26:21.468Z</time></trkpt><trkpt lat="43.5678883" lon="11.6561633"><ele>315.66666666666663</ele><time>2026-03-28T09:26:22.467Z</time></trkpt><trkpt lat="43.5679717" lon="11.65613"><ele>315.5</ele><time>2026-03-28T09:26:23.561Z</time></trkpt><trkpt lat="43.5680583" lon="11.6561067"><ele>315.3333333333333</ele><time>2026-03-28T09:26:24.47Z</time></trkpt><trkpt lat="43.5681433" lon="11.6560933"><ele>315.1666666666667</ele><time>2026-03-28T09:26:25.47Z</time></trkpt><trkpt lat="43.5682267" lon="11.65608"><ele>315.0</ele><time>2026-03-28T09:26:26.469Z</time></trkpt><trkpt lat="43.568315" lon="11.656075"><ele>315.0</ele><time>2026-03-28T09:26:27.468Z</time></trkpt><trkpt lat="43.5683983" lon="11.6560617"><ele>315.0</ele><time>2026-03-28T09:26:28.468Z</time></trkpt><trkpt lat="43.56848" lon="11.6560433"><ele>315.0</ele><time>2026-03-28T09:26:29.469Z</time></trkpt><trkpt lat="43.5685583" lon="11.6560117"><ele>315.0</ele><time>2026-03-28T09:26:30.468Z</time></trkpt><trkpt lat="43.5686283" lon="11.6559617"><ele>315.0</ele><time>2026-03-28T09:26:31.468Z</time></trkpt><trkpt lat="43.5686833" lon="11.6558817"><ele>315.0</ele><time>2026-03-28T09:26:32.47Z</time></trkpt><trkpt lat="43.5687217" lon="11.655785"><ele>315.0</ele><time>2026-03-28T09:26:33.468Z</time></trkpt><trkpt lat="43.568735" lon="11.655675"><ele>315.0</ele><time>2026-03-28T09:26:34.469Z</time></trkpt><trkpt lat="43.5687267" lon="11.6555683"><ele>315.0</ele><time>2026-03-28T09:26:35.473Z</time></trkpt><trkpt lat="43.568705" lon="11.655465"><ele>315.0</ele><time>2026-03-28T09:26:36.47Z</time></trkpt><trkpt lat="43.5686667" lon="11.6553733"><ele>315.0</ele><time>2026-03-28T09:26:37.471Z</time></trkpt><trkpt lat="43.5686217" lon="11.6552867"><ele>315.0</ele><time>2026-03-28T09:26:38.467Z</time></trkpt><trkpt lat="43.568575" lon="11.6552033"><ele>314.8333333333333</ele><time>2026-03-28T09:26:39.471Z</time></trkpt><trkpt lat="43.5685267" lon="11.6551183"><ele>314.6666666666667</ele><time>2026-03-28T09:26:40.47Z</time></trkpt><trkpt lat="43.5684783" lon="11.6550317"><ele>314.5</ele><time>2026-03-28T09:26:41.472Z</time></trkpt><trkpt lat="43.5684333" lon="11.654945"><ele>314.33333333333337</ele><time>2026-03-28T09:26:42.472Z</time></trkpt><trkpt lat="43.56839" lon="11.6548533"><ele>314.1666666666667</ele><time>2026-03-28T09:26:43.472Z</time></trkpt><trkpt lat="43.568355" lon="11.65476"><ele>314.0</ele><time>2026-03-28T09:26:44.471Z</time></trkpt><trkpt lat="43.56833" lon="11.6546583"><ele>314.0</ele><time>2026-03-28T09:26:45.469Z</time></trkpt><trkpt lat="43.56832" lon="11.6545483"><ele>314.0</ele><time>2026-03-28T09:26:46.47Z</time></trkpt><trkpt lat="43.5683217" lon="11.65444"><ele>314.0</ele><time>2026-03-28T09:26:47.469Z</time></trkpt><trkpt lat="43.5683383" lon="11.654335"><ele>314.0</ele><time>2026-03-28T09:26:48.468Z</time></trkpt><trkpt lat="43.5683667" lon="11.6542383"><ele>314.0</ele><time>2026-03-28T09:26:49.47Z</time></trkpt><trkpt lat="43.5684017" lon="11.6541483"><ele>314.0</ele><time>2026-03-28T09:26:50.47Z</time></trkpt><trkpt lat="43.5684483" lon="11.65406"><ele>314.1666666666667</ele><time>2026-03-28T09:26:51.469Z</time></trkpt><trkpt lat="43.568495" lon="11.6539783"><ele>314.33333333333337</ele><time>2026-03-28T09:26:52.47Z</time></trkpt><trkpt lat="43.5685417" lon="11.6538933"><ele>314.5</ele><time>2026-03-28T09:26:53.47Z</time></trkpt><trkpt lat="43.5685917" lon="11.6538067"><ele>314.6666666666667</ele><time>2026-03-28T09:26:54.47Z</time></trkpt><trkpt lat="43.5686383" lon="11.6537217"><ele>314.8333333333333</ele><time>2026-03-28T09:26:55.47Z</time></trkpt><trkpt lat="43.568685" lon="11.6536383"><ele>315.0</ele><time>2026-03-28T09:26:56.471Z</time></trkpt><trkpt lat="43.568735" lon="11.653555"><ele>315.8333333333333</ele><time>2026-03-28T09:26:57.472Z</time></trkpt><trkpt lat="43.568785" lon="11.6534733"><ele>316.6666666666667</ele><time>2026-03-28T09:26:58.469Z</time></trkpt><trkpt lat="43.5688367" lon="11.65339"><ele>317.5</ele><time>2026-03-28T09:26:59.469Z</time></trkpt><trkpt lat="43.5688833" lon="11.653305"><ele>318.33333333333337</ele><time>2026-03-28T09:27:00.469Z</time></trkpt><trkpt lat="43.56893" lon="11.65322"><ele>319.1666666666667</ele><time>2026-03-28T09:27:01.47Z</time></trkpt><trkpt lat="43.5689767" lon="11.653135"><ele>320.0</ele><time>2026-03-28T09:27:02.469Z</time></trkpt><trkpt lat="43.5690233" lon="11.65305"><ele>320.0</ele><time>2026-03-28T09:27:03.468Z</time></trkpt><trkpt lat="43.56907" lon="11.6529683"><ele>320.0</ele><time>2026-03-28T09:27:04.48Z</time></trkpt><trkpt lat="43.56912" lon="11.6528867"><ele>320.0</ele><time>2026-03-28T09:27:05.468Z</time></trkpt><trkpt lat="43.5691667" lon="11.6528033"><ele>320.0</ele><time>2026-03-28T09:27:06.469Z</time></trkpt><trkpt lat="43.5692133" lon="11.6527217"><ele>320.0</ele><time>2026-03-28T09:27:07.47Z</time></trkpt><trkpt lat="43.5692583" lon="11.6526383"><ele>320.0</ele><time>2026-03-28T09:27:08.468Z</time></trkpt><trkpt lat="43.5693033" lon="11.652555"><ele>319.7142857142857</ele><time>2026-03-28T09:27:09.469Z</time></trkpt><trkpt lat="43.56935" lon="11.6524717"><ele>319.42857142857144</ele><time>2026-03-28T09:27:10.468Z</time></trkpt><trkpt lat="43.5693967" lon="11.65239"><ele>319.1428571428571</ele><time>2026-03-28T09:27:11.47Z</time></trkpt><trkpt lat="43.5694417" lon="11.6523067"><ele>318.8571428571429</ele><time>2026-03-28T09:27:12.469Z</time></trkpt><trkpt lat="43.569485" lon="11.6522233"><ele>318.5714285714286</ele><time>2026-03-28T09:27:13.469Z</time></trkpt><trkpt lat="43.5695283" lon="11.6521417"><ele>318.2857142857143</ele><time>2026-03-28T09:27:14.469Z</time></trkpt><trkpt lat="43.5695717" lon="11.6520617"><ele>318.0</ele><time>2026-03-28T09:27:15.468Z</time></trkpt><trkpt lat="43.5696167" lon="11.651985"><ele>317.7142857142857</ele><time>2026-03-28T09:27:16.47Z</time></trkpt><trkpt lat="43.5696667" lon="11.651915"><ele>317.42857142857144</ele><time>2026-03-28T09:27:17.468Z</time></trkpt><trkpt lat="43.56972" lon="11.6518633"><ele>317.14285714285717</ele><time>2026-03-28T09:27:18.469Z</time></trkpt><trkpt lat="43.5697833" lon="11.6518317"><ele>316.8571428571429</ele><time>2026-03-28T09:27:19.468Z</time></trkpt><trkpt lat="43.569855" lon="11.65182"><ele>316.57142857142856</ele><time>2026-03-28T09:27:20.467Z</time></trkpt><trkpt lat="43.56993" lon="11.651825"><ele>316.28571428571433</ele><time>2026-03-28T09:27:21.468Z</time></trkpt><trkpt lat="43.5700033" lon="11.651845"><ele>316.0</ele><time>2026-03-28T09:27:22.469Z</time></trkpt><trkpt lat="43.570075" lon="11.6518717"><ele>316.00000000000006</ele><time>2026-03-28T09:27:23.468Z</time></trkpt><trkpt lat="43.570145" lon="11.6519067"><ele>316.0</ele><time>2026-03-28T09:27:24.471Z</time></trkpt><trkpt lat="43.5702117" lon="11.6519383"><ele>316.0</ele><time>2026-03-28T09:27:25.469Z</time></trkpt><trkpt lat="43.5702767" lon="11.6519683"><ele>316.0</ele><time>2026-03-28T09:27:26.469Z</time></trkpt><trkpt lat="43.570345" lon="11.6519967"><ele>316.0</ele><time>2026-03-28T09:27:27.469Z</time></trkpt><trkpt lat="43.5704133" lon="11.6520317"><ele>316.00000000000006</ele><time>2026-03-28T09:27:28.469Z</time></trkpt><trkpt lat="43.5704833" lon="11.652065"><ele>316.0</ele><time>2026-03-28T09:27:29.471Z</time></trkpt><trkpt lat="43.570555" lon="11.6521"><ele>317.28571428571433</ele><time>2026-03-28T09:27:30.47Z</time></trkpt><trkpt lat="43.5706267" lon="11.65212"><ele>318.57142857142856</ele><time>2026-03-28T09:27:31.471Z</time></trkpt><trkpt lat="43.5707017" lon="11.6521417"><ele>319.8571428571429</ele><time>2026-03-28T09:27:32.47Z</time></trkpt><trkpt lat="43.5707733" lon="11.6521567"><ele>321.14285714285717</ele><time>2026-03-28T09:27:33.471Z</time></trkpt><trkpt lat="43.5708467" lon="11.6521633"><ele>322.42857142857144</ele><time>2026-03-28T09:27:34.469Z</time></trkpt><trkpt lat="43.57092" lon="11.6521567"><ele>323.7142857142857</ele><time>2026-03-28T09:27:35.469Z</time></trkpt><trkpt lat="43.5709967" lon="11.6521433"><ele>325.0</ele><time>2026-03-28T09:27:36.469Z</time></trkpt><trkpt lat="43.5710667" lon="11.6520983"><ele>325.0</ele><time>2026-03-28T09:27:37.469Z</time></trkpt><trkpt lat="43.57113" lon="11.6520367"><ele>325.0</ele><time>2026-03-28T09:27:38.47Z</time></trkpt><trkpt lat="43.5711833" lon="11.651965"><ele>325.0</ele><time>2026-03-28T09:27:39.469Z</time></trkpt><trkpt lat="43.5712217" lon="11.6518783"><ele>325.0</ele><time>2026-03-28T09:27:40.469Z</time></trkpt><trkpt lat="43.5712433" lon="11.6517783"><ele>325.0</ele><time>2026-03-28T09:27:41.469Z</time></trkpt><trkpt lat="43.57124" lon="11.6516767"><ele>325.0</ele><time>2026-03-28T09:27:42.47Z</time></trkpt><trkpt lat="43.571215" lon="11.65158"><ele>325.0</ele><time>2026-03-28T09:27:43.469Z</time></trkpt><trkpt lat="43.5711867" lon="11.65149"><ele>323.57142857142856</ele><time>2026-03-28T09:27:44.468Z</time></trkpt><trkpt lat="43.571155" lon="11.6514033"><ele>322.14285714285717</ele><time>2026-03-28T09:27:45.469Z</time></trkpt><trkpt lat="43.5711233" lon="11.6513233"><ele>320.7142857142857</ele><time>2026-03-28T09:27:46.468Z</time></trkpt><trkpt lat="43.5710967" lon="11.6512383"><ele>319.2857142857143</ele><time>2026-03-28T09:27:47.473Z</time></trkpt><trkpt lat="43.5710833" lon="11.6511483"><ele>317.8571428571429</ele><time>2026-03-28T09:27:48.473Z</time></trkpt><trkpt lat="43.5710783" lon="11.6510583"><ele>316.42857142857144</ele><time>2026-03-28T09:27:49.471Z</time></trkpt><trkpt lat="43.571085" lon="11.6509683"><ele>315.0</ele><time>2026-03-28T09:27:50.473Z</time></trkpt><trkpt lat="43.571115" lon="11.6507967"><ele>314.3333333333333</ele><time>2026-03-28T09:27:52.47Z</time></trkpt><trkpt lat="43.5711417" lon="11.6507117"><ele>313.6666666666667</ele><time>2026-03-28T09:27:53.469Z</time></trkpt><trkpt lat="43.5711967" lon="11.650555"><ele>313.0</ele><time>2026-03-28T09:27:55.469Z</time></trkpt><trkpt lat="43.57126" lon="11.6504117"><ele>312.33333333333337</ele><time>2026-03-28T09:27:57.468Z</time></trkpt><trkpt lat="43.5712967" lon="11.65034"><ele>311.6666666666667</ele><time>2026-03-28T09:27:58.471Z</time></trkpt><trkpt lat="43.57134" lon="11.6502767"><ele>311.0</ele><time>2026-03-28T09:27:59.469Z</time></trkpt><trkpt lat="43.5713917" lon="11.650225"><ele>313.5</ele><time>2026-03-28T09:28:00.469Z</time></trkpt><trkpt lat="43.5715" lon="11.6501633"><ele>316.0</ele><time>2026-03-28T09:28:02.469Z</time></trkpt><trkpt lat="43.5716217" lon="11.6501533"><ele>318.5</ele><time>2026-03-28T09:28:04.468Z</time></trkpt><trkpt lat="43.5717383" lon="11.650185"><ele>321.0</ele><time>2026-03-28T09:28:06.469Z</time></trkpt><trkpt lat="43.5718533" lon="11.6502433"><ele>321.0</ele><time>2026-03-28T09:28:08.471Z</time></trkpt><trkpt lat="43.5719683" lon="11.6502833"><ele>321.0</ele><time>2026-03-28T09:28:10.47Z</time></trkpt><trkpt lat="43.5720867" lon="11.650295"><ele>321.0</ele><time>2026-03-28T09:28:12.472Z</time></trkpt><trkpt lat="43.5722" lon="11.6502633"><ele>321.0</ele><time>2026-03-28T09:28:14.471Z</time></trkpt><trkpt lat="43.5722983" lon="11.6501717"><ele>322.5</ele><time>2026-03-28T09:28:16.471Z</time></trkpt><trkpt lat="43.5723683" lon="11.650035"><ele>324.0</ele><time>2026-03-28T09:28:18.471Z</time></trkpt><trkpt lat="43.5724133" lon="11.6498767"><ele>325.5</ele><time>2026-03-28T09:28:20.47Z</time></trkpt><trkpt lat="43.5724617" lon="11.649715"><ele>327.0</ele><time>2026-03-28T09:28:22.47Z</time></trkpt><trkpt lat="43.57253" lon="11.6495733"><ele>327.0</ele><time>2026-03-28T09:28:24.47Z</time></trkpt><trkpt lat="43.572575" lon="11.64951"><ele>327.0</ele><time>2026-03-28T09:28:25.472Z</time></trkpt><trkpt lat="43.57267" lon="11.6494183"><ele>327.0</ele><time>2026-03-28T09:28:27.469Z</time></trkpt><trkpt lat="43.5727817" lon="11.6493683"><ele>327.0</ele><time>2026-03-28T09:28:29.468Z</time></trkpt><trkpt lat="43.5728967" lon="11.64933"><ele>327.0</ele><time>2026-03-28T09:28:31.469Z</time></trkpt><trkpt lat="43.5730133" lon="11.6492933"><ele>327.57142857142856</ele><time>2026-03-28T09:28:33.468Z</time></trkpt><trkpt lat="43.5730733" lon="11.6492633"><ele>328.14285714285717</ele><time>2026-03-28T09:28:34.47Z</time></trkpt><trkpt lat="43.5731317" lon="11.6492283"><ele>328.7142857142857</ele><time>2026-03-28T09:28:35.472Z</time></trkpt><trkpt lat="43.57319" lon="11.6491817"><ele>329.2857142857143</ele><time>2026-03-28T09:28:36.47Z</time></trkpt><trkpt lat="43.573245" lon="11.6491183"><ele>329.85714285714283</ele><time>2026-03-28T09:28:37.469Z</time></trkpt><trkpt lat="43.5732933" lon="11.64904"><ele>330.42857142857144</ele><time>2026-03-28T09:28:38.469Z</time></trkpt><trkpt lat="43.5733383" lon="11.64896"><ele>331.0</ele><time>2026-03-28T09:28:39.47Z</time></trkpt><trkpt lat="43.5733833" lon="11.6488767"><ele>331.0</ele><time>2026-03-28T09:28:40.47Z</time></trkpt><trkpt lat="43.5734283" lon="11.6487933"><ele>331.0</ele><time>2026-03-28T09:28:41.468Z</time></trkpt><trkpt lat="43.5734783" lon="11.6487133"><ele>331.0</ele><time>2026-03-28T09:28:42.469Z</time></trkpt><trkpt lat="43.57353" lon="11.6486317"><ele>331.0</ele><time>2026-03-28T09:28:43.47Z</time></trkpt><trkpt lat="43.5735817" lon="11.6485467"><ele>331.0</ele><time>2026-03-28T09:28:44.47Z</time></trkpt><trkpt lat="43.573635" lon="11.6484667"><ele>331.0</ele><time>2026-03-28T09:28:45.468Z</time></trkpt><trkpt lat="43.5736867" lon="11.6483867"><ele>331.8333333333333</ele><time>2026-03-28T09:28:46.469Z</time></trkpt><trkpt lat="43.57374" lon="11.648305"><ele>332.66666666666663</ele><time>2026-03-28T09:28:47.469Z</time></trkpt><trkpt lat="43.573795" lon="11.6482183"><ele>333.5</ele><time>2026-03-28T09:28:48.468Z</time></trkpt><trkpt lat="43.573845" lon="11.64813"><ele>334.3333333333333</ele><time>2026-03-28T09:28:49.472Z</time></trkpt><trkpt lat="43.5738817" lon="11.6480283"><ele>335.1666666666667</ele><time>2026-03-28T09:28:50.473Z</time></trkpt><trkpt lat="43.5739017" lon="11.6479183"><ele>336.0</ele><time>2026-03-28T09:28:51.472Z</time></trkpt><trkpt lat="43.5739017" lon="11.6478067"><ele>335.1666666666667</ele><time>2026-03-28T09:28:52.472Z</time></trkpt><trkpt lat="43.573885" lon="11.6476967"><ele>334.3333333333333</ele><time>2026-03-28T09:28:53.47Z</time></trkpt><trkpt lat="43.5738617" lon="11.647585"><ele>333.5</ele><time>2026-03-28T09:28:54.47Z</time></trkpt><trkpt lat="43.57384" lon="11.64747"><ele>332.66666666666663</ele><time>2026-03-28T09:28:55.471Z</time></trkpt><trkpt lat="43.5738283" lon="11.6473517"><ele>331.8333333333333</ele><time>2026-03-28T09:28:56.472Z</time></trkpt><trkpt lat="43.573825" lon="11.647225"><ele>331.0</ele><time>2026-03-28T09:28:57.469Z</time></trkpt><trkpt lat="43.5738283" lon="11.6471017"><ele>331.0</ele><time>2026-03-28T09:28:58.47Z</time></trkpt><trkpt lat="43.5738367" lon="11.6469767"><ele>331.0</ele><time>2026-03-28T09:28:59.47Z</time></trkpt><trkpt lat="43.5738533" lon="11.64685"><ele>331.0</ele><time>2026-03-28T09:29:00.467Z</time></trkpt><trkpt lat="43.5738733" lon="11.6467283"><ele>331.0</ele><time>2026-03-28T09:29:01.469Z</time></trkpt><trkpt lat="43.5738967" lon="11.6466017"><ele>331.0</ele><time>2026-03-28T09:29:02.469Z</time></trkpt><trkpt lat="43.57392" lon="11.6464767"><ele>330.20000000000005</ele><time>2026-03-28T09:29:03.469Z</time></trkpt><trkpt lat="43.5739417" lon="11.6463483"><ele>329.40000000000003</ele><time>2026-03-28T09:29:04.469Z</time></trkpt><trkpt lat="43.5739633" lon="11.64622"><ele>328.6</ele><time>2026-03-28T09:29:05.469Z</time></trkpt><trkpt lat="43.5739917" lon="11.64609"><ele>327.8</ele><time>2026-03-28T09:29:06.468Z</time></trkpt><trkpt lat="43.5740283" lon="11.6459667"><ele>327.0</ele><time>2026-03-28T09:29:07.469Z</time></trkpt><trkpt lat="43.5740817" lon="11.64585"><ele>325.40000000000003</ele><time>2026-03-28T09:29:08.469Z</time></trkpt><trkpt lat="43.574145" lon="11.6457517"><ele>323.8</ele><time>2026-03-28T09:29:09.469Z</time></trkpt><trkpt lat="43.574215" lon="11.6456633"><ele>322.2</ele><time>2026-03-28T09:29:10.469Z</time></trkpt><trkpt lat="43.574295" lon="11.64558"><ele>320.6</ele><time>2026-03-28T09:29:11.469Z</time></trkpt><trkpt lat="43.5743783" lon="11.6455033"><ele>319.0</ele><time>2026-03-28T09:29:12.47Z</time></trkpt><trkpt lat="43.5744633" lon="11.645435"><ele>318.8</ele><time>2026-03-28T09:29:13.469Z</time></trkpt><trkpt lat="43.5745533" lon="11.6453667"><ele>318.59999999999997</ele><time>2026-03-28T09:29:14.47Z</time></trkpt><trkpt lat="43.5746433" lon="11.6453"><ele>318.4</ele><time>2026-03-28T09:29:15.471Z</time></trkpt><trkpt lat="43.57473" lon="11.6452267"><ele>318.2</ele><time>2026-03-28T09:29:16.469Z</time></trkpt><trkpt lat="43.5748167" lon="11.6451467"><ele>318.0</ele><time>2026-03-28T09:29:17.469Z</time></trkpt><trkpt lat="43.5748983" lon="11.6450583"><ele>318.0</ele><time>2026-03-28T09:29:18.469Z</time></trkpt><trkpt lat="43.57497" lon="11.6449533"><ele>318.0</ele><time>2026-03-28T09:29:19.469Z</time></trkpt><trkpt lat="43.57503" lon="11.6448367"><ele>318.0</ele><time>2026-03-28T09:29:20.469Z</time></trkpt><trkpt lat="43.575075" lon="11.64471"><ele>318.0</ele><time>2026-03-28T09:29:21.47Z</time></trkpt><trkpt lat="43.575105" lon="11.6445783"><ele>318.0</ele><time>2026-03-28T09:29:22.468Z</time></trkpt><trkpt lat="43.57513" lon="11.6444417"><ele>317.0</ele><time>2026-03-28T09:29:23.469Z</time></trkpt><trkpt lat="43.5751483" lon="11.6443067"><ele>316.0</ele><time>2026-03-28T09:29:24.469Z</time></trkpt><trkpt lat="43.5751733" lon="11.6441717"><ele>315.0</ele><time>2026-03-28T09:29:25.469Z</time></trkpt><trkpt lat="43.57521" lon="11.6440383"><ele>314.0</ele><time>2026-03-28T09:29:26.469Z</time></trkpt><trkpt lat="43.5752533" lon="11.6439117"><ele>313.0</ele><time>2026-03-28T09:29:27.469Z</time></trkpt><trkpt lat="43.575305" lon="11.6437933"><ele>314.0</ele><time>2026-03-28T09:29:28.47Z</time></trkpt><trkpt lat="43.5753617" lon="11.64368"><ele>315.0</ele><time>2026-03-28T09:29:29.469Z</time></trkpt><trkpt lat="43.57542" lon="11.6435683"><ele>316.0</ele><time>2026-03-28T09:29:30.469Z</time></trkpt><trkpt lat="43.57548" lon="11.6434583"><ele>317.0</ele><time>2026-03-28T09:29:31.469Z</time></trkpt><trkpt lat="43.5755417" lon="11.64335"><ele>318.0</ele><time>2026-03-28T09:29:32.469Z</time></trkpt><trkpt lat="43.5756083" lon="11.6432417"><ele>318.0</ele><time>2026-03-28T09:29:33.469Z</time></trkpt><trkpt lat="43.5756833" lon="11.6431417"><ele>318.0</ele><time>2026-03-28T09:29:34.468Z</time></trkpt><trkpt lat="43.5757683" lon="11.6430567"><ele>318.0</ele><time>2026-03-28T09:29:35.469Z</time></trkpt><trkpt lat="43.5758617" lon="11.6429817"><ele>318.0</ele><time>2026-03-28T09:29:36.469Z</time></trkpt><trkpt lat="43.57596" lon="11.6429233"><ele>318.0</ele><time>2026-03-28T09:29:37.469Z</time></trkpt><trkpt lat="43.5760583" lon="11.6428717"><ele>318.0</ele><time>2026-03-28T09:29:38.469Z</time></trkpt><trkpt lat="43.5761533" lon="11.6428217"><ele>318.0</ele><time>2026-03-28T09:29:39.468Z</time></trkpt><trkpt lat="43.57625" lon="11.642775"><ele>318.0</ele><time>2026-03-28T09:29:40.471Z</time></trkpt><trkpt lat="43.576345" lon="11.6427283"><ele>318.0</ele><time>2026-03-28T09:29:41.469Z</time></trkpt><trkpt lat="43.5764367" lon="11.642685"><ele>318.0</ele><time>2026-03-28T09:29:42.472Z</time></trkpt><trkpt lat="43.5765283" lon="11.6426367"><ele>316.6</ele><time>2026-03-28T09:29:43.473Z</time></trkpt><trkpt lat="43.5766183" lon="11.6425883"><ele>315.20000000000005</ele><time>2026-03-28T09:29:44.471Z</time></trkpt><trkpt lat="43.5767033" lon="11.642545"><ele>313.8</ele><time>2026-03-28T09:29:45.47Z</time></trkpt><trkpt lat="43.5767883" lon="11.642505"><ele>312.40000000000003</ele><time>2026-03-28T09:29:46.471Z</time></trkpt><trkpt lat="43.5768733" lon="11.6424783"><ele>311.0</ele><time>2026-03-28T09:29:47.471Z</time></trkpt><trkpt lat="43.5769583" lon="11.6424667"><ele>311.6666666666667</ele><time>2026-03-28T09:29:48.473Z</time></trkpt><trkpt lat="43.577045" lon="11.6424683"><ele>312.33333333333337</ele><time>2026-03-28T09:29:49.47Z</time></trkpt><trkpt lat="43.5771283" lon="11.642475"><ele>313.0</ele><time>2026-03-28T09:29:50.469Z</time></trkpt><trkpt lat="43.5772133" lon="11.642485"><ele>313.6666666666667</ele><time>2026-03-28T09:29:51.469Z</time></trkpt><trkpt lat="43.577295" lon="11.64249"><ele>314.3333333333333</ele><time>2026-03-28T09:29:52.47Z</time></trkpt><trkpt lat="43.577375" lon="11.6424917"><ele>315.0</ele><time>2026-03-28T09:29:53.469Z</time></trkpt><trkpt lat="43.5774533" lon="11.6424833"><ele>315.0</ele><time>2026-03-28T09:29:54.469Z</time></trkpt><trkpt lat="43.5775317" lon="11.6424733"><ele>315.0</ele><time>2026-03-28T09:29:55.469Z</time></trkpt><trkpt lat="43.57761" lon="11.642465"><ele>315.0</ele><time>2026-03-28T09:29:56.468Z</time></trkpt><trkpt lat="43.5776883" lon="11.6424583"><ele>315.0</ele><time>2026-03-28T09:29:57.469Z</time></trkpt><trkpt lat="43.577765" lon="11.64245"><ele>315.0</ele><time>2026-03-28T09:29:58.469Z</time></trkpt><trkpt lat="43.5778433" lon="11.642435"><ele>315.0</ele><time>2026-03-28T09:29:59.47Z</time></trkpt><trkpt lat="43.5779183" lon="11.6424117"><ele>316.1666666666667</ele><time>2026-03-28T09:30:00.47Z</time></trkpt><trkpt lat="43.5779917" lon="11.642375"><ele>317.3333333333333</ele><time>2026-03-28T09:30:01.472Z</time></trkpt><trkpt lat="43.57806" lon="11.642325"><ele>318.5</ele><time>2026-03-28T09:30:02.472Z</time></trkpt><trkpt lat="43.578125" lon="11.642265"><ele>319.66666666666663</ele><time>2026-03-28T09:30:03.47Z</time></trkpt><trkpt lat="43.5781817" lon="11.6421917"><ele>320.8333333333333</ele><time>2026-03-28T09:30:04.471Z</time></trkpt><trkpt lat="43.5782267" lon="11.6421033"><ele>322.0</ele><time>2026-03-28T09:30:05.472Z</time></trkpt><trkpt lat="43.5782583" lon="11.6420017"><ele>321.16666666666663</ele><time>2026-03-28T09:30:06.47Z</time></trkpt><trkpt lat="43.5782783" lon="11.6418983"><ele>320.3333333333333</ele><time>2026-03-28T09:30:07.475Z</time></trkpt><trkpt lat="43.578285" lon="11.6417883"><ele>319.5</ele><time>2026-03-28T09:30:08.473Z</time></trkpt><trkpt lat="43.5782783" lon="11.6416783"><ele>318.6666666666667</ele><time>2026-03-28T09:30:09.472Z</time></trkpt><trkpt lat="43.57827" lon="11.6415683"><ele>317.83333333333337</ele><time>2026-03-28T09:30:10.474Z</time></trkpt><trkpt lat="43.5782567" lon="11.6414583"><ele>317.0</ele><time>2026-03-28T09:30:11.473Z</time></trkpt><trkpt lat="43.5782467" lon="11.6413483"><ele>317.0</ele><time>2026-03-28T09:30:12.469Z</time></trkpt><trkpt lat="43.5782417" lon="11.6412383"><ele>317.0</ele><time>2026-03-28T09:30:13.472Z</time></trkpt><trkpt lat="43.5782533" lon="11.6411267"><ele>317.0</ele><time>2026-03-28T09:30:14.47Z</time></trkpt><trkpt lat="43.57827" lon="11.6410167"><ele>317.0</ele><time>2026-03-28T09:30:15.469Z</time></trkpt><trkpt lat="43.57829" lon="11.6409083"><ele>317.0</ele><time>2026-03-28T09:30:16.468Z</time></trkpt><trkpt lat="43.578315" lon="11.6408033"><ele>317.0</ele><time>2026-03-28T09:30:17.47Z</time></trkpt><trkpt lat="43.578335" lon="11.6406983"><ele>316.5</ele><time>2026-03-28T09:30:18.47Z</time></trkpt><trkpt lat="43.578355" lon="11.64059"><ele>316.0</ele><time>2026-03-28T09:30:19.469Z</time></trkpt><trkpt lat="43.578375" lon="11.640485"><ele>315.5</ele><time>2026-03-28T09:30:20.471Z</time></trkpt><trkpt lat="43.5784" lon="11.6403783"><ele>315.0</ele><time>2026-03-28T09:30:21.469Z</time></trkpt><trkpt lat="43.5784267" lon="11.6402717"><ele>314.5</ele><time>2026-03-28T09:30:22.469Z</time></trkpt><trkpt lat="43.5784517" lon="11.640165"><ele>314.0</ele><time>2026-03-28T09:30:23.471Z</time></trkpt><trkpt lat="43.578475" lon="11.6400583"><ele>313.5</ele><time>2026-03-28T09:30:24.471Z</time></trkpt><trkpt lat="43.5784983" lon="11.6399533"><ele>313.0</ele><time>2026-03-28T09:30:25.469Z</time></trkpt><trkpt lat="43.5785233" lon="11.63985"><ele>312.5</ele><time>2026-03-28T09:30:26.471Z</time></trkpt><trkpt lat="43.5785483" lon="11.6397433"><ele>312.0</ele><time>2026-03-28T09:30:27.471Z</time></trkpt><trkpt lat="43.5785717" lon="11.6396383"><ele>311.5</ele><time>2026-03-28T09:30:28.471Z</time></trkpt><trkpt lat="43.578595" lon="11.6395333"><ele>311.0</ele><time>2026-03-28T09:30:29.472Z</time></trkpt><trkpt lat="43.57862" lon="11.6394283"><ele>310.5</ele><time>2026-03-28T09:30:30.471Z</time></trkpt><trkpt lat="43.5786433" lon="11.639325"><ele>310.0</ele><time>2026-03-28T09:30:31.469Z</time></trkpt><trkpt lat="43.5786667" lon="11.6392233"><ele>309.5</ele><time>2026-03-28T09:30:32.47Z</time></trkpt><trkpt lat="43.5786883" lon="11.6391217"><ele>309.0</ele><time>2026-03-28T09:30:33.469Z</time></trkpt><trkpt lat="43.5787117" lon="11.63902"><ele>308.5</ele><time>2026-03-28T09:30:34.47Z</time></trkpt><trkpt lat="43.578735" lon="11.6389183"><ele>308.0</ele><time>2026-03-28T09:30:35.471Z</time></trkpt><trkpt lat="43.578755" lon="11.6388167"><ele>310.0</ele><time>2026-03-28T09:30:36.47Z</time></trkpt><trkpt lat="43.5787767" lon="11.638715"><ele>312.0</ele><time>2026-03-28T09:30:37.471Z</time></trkpt><trkpt lat="43.5787983" lon="11.638615"><ele>314.0</ele><time>2026-03-28T09:30:38.471Z</time></trkpt><trkpt lat="43.5788183" lon="11.6385133"><ele>316.0</ele><time>2026-03-28T09:30:39.469Z</time></trkpt><trkpt lat="43.5788417" lon="11.6384117"><ele>318.0</ele><time>2026-03-28T09:30:40.468Z</time></trkpt><trkpt lat="43.5788633" lon="11.6383133"><ele>320.0</ele><time>2026-03-28T09:30:41.469Z</time></trkpt><trkpt lat="43.578885" lon="11.6382167"><ele>319.83333333333337</ele><time>2026-03-28T09:30:42.469Z</time></trkpt><trkpt lat="43.5789083" lon="11.6381183"><ele>319.6666666666667</ele><time>2026-03-28T09:30:43.468Z</time></trkpt><trkpt lat="43.57893" lon="11.63802"><ele>319.5</ele><time>2026-03-28T09:30:44.469Z</time></trkpt><trkpt lat="43.5789483" lon="11.6379217"><ele>319.3333333333333</ele><time>2026-03-28T09:30:45.468Z</time></trkpt><trkpt lat="43.5789667" lon="11.6378183"><ele>319.16666666666663</ele><time>2026-03-28T09:30:46.469Z</time></trkpt><trkpt lat="43.5789883" lon="11.637715"><ele>319.0</ele><time>2026-03-28T09:30:47.471Z</time></trkpt><trkpt lat="43.579015" lon="11.6376133"><ele>319.0</ele><time>2026-03-28T09:30:48.473Z</time></trkpt><trkpt lat="43.5790383" lon="11.6375167"><ele>319.0</ele><time>2026-03-28T09:30:49.471Z</time></trkpt><trkpt lat="43.57906" lon="11.6374183"><ele>319.0</ele><time>2026-03-28T09:30:50.471Z</time></trkpt><trkpt lat="43.5790817" lon="11.6373233"><ele>319.0</ele><time>2026-03-28T09:30:51.47Z</time></trkpt><trkpt lat="43.5791017" lon="11.6372283"><ele>319.0</ele><time>2026-03-28T09:30:52.472Z</time></trkpt><trkpt lat="43.5791267" lon="11.6371333"><ele>319.0</ele><time>2026-03-28T09:30:53.472Z</time></trkpt><trkpt lat="43.5791517" lon="11.63704"><ele>319.0</ele><time>2026-03-28T09:30:54.471Z</time></trkpt><trkpt lat="43.5791817" lon="11.6369483"><ele>318.2857142857143</ele><time>2026-03-28T09:30:55.471Z</time></trkpt><trkpt lat="43.5792133" lon="11.6368633"><ele>317.57142857142856</ele><time>2026-03-28T09:30:56.469Z</time></trkpt><trkpt lat="43.5792517" lon="11.6367767"><ele>316.85714285714283</ele><time>2026-03-28T09:30:57.469Z</time></trkpt><trkpt lat="43.57929" lon="11.6366933"><ele>316.1428571428571</ele><time>2026-03-28T09:30:58.47Z</time></trkpt><trkpt lat="43.5793283" lon="11.6366117"><ele>315.42857142857144</ele><time>2026-03-28T09:30:59.471Z</time></trkpt><trkpt lat="43.5793683" lon="11.63653"><ele>314.71428571428567</ele><time>2026-03-28T09:31:00.469Z</time></trkpt><trkpt lat="43.5794083" lon="11.6364483"><ele>314.0</ele><time>2026-03-28T09:31:01.469Z</time></trkpt><trkpt lat="43.5794517" lon="11.6363667"><ele>313.99999999999994</ele><time>2026-03-28T09:31:02.469Z</time></trkpt><trkpt lat="43.5794917" lon="11.6362867"><ele>314.0</ele><time>2026-03-28T09:31:03.471Z</time></trkpt><trkpt lat="43.5795333" lon="11.6362083"><ele>314.0</ele><time>2026-03-28T09:31:04.471Z</time></trkpt><trkpt lat="43.5795767" lon="11.6361283"><ele>314.0</ele><time>2026-03-28T09:31:05.471Z</time></trkpt><trkpt lat="43.5796233" lon="11.6360467"><ele>314.0</ele><time>2026-03-28T09:31:06.472Z</time></trkpt><trkpt lat="43.5796667" lon="11.6359683"><ele>313.99999999999994</ele><time>2026-03-28T09:31:07.47Z</time></trkpt><trkpt lat="43.5797067" lon="11.6358917"><ele>314.0</ele><time>2026-03-28T09:31:08.471Z</time></trkpt><trkpt lat="43.5797467" lon="11.63581"><ele>313.99999999999994</ele><time>2026-03-28T09:31:09.469Z</time></trkpt><trkpt lat="43.579785" lon="11.63573"><ele>314.0</ele><time>2026-03-28T09:31:10.469Z</time></trkpt><trkpt lat="43.5798283" lon="11.6356517"><ele>314.0</ele><time>2026-03-28T09:31:11.469Z</time></trkpt><trkpt lat="43.5798717" lon="11.6355767"><ele>314.0</ele><time>2026-03-28T09:31:12.469Z</time></trkpt><trkpt lat="43.579915" lon="11.6355017"><ele>314.0</ele><time>2026-03-28T09:31:13.469Z</time></trkpt><trkpt lat="43.57996" lon="11.6354267"><ele>313.99999999999994</ele><time>2026-03-28T09:31:14.47Z</time></trkpt><trkpt lat="43.58001" lon="11.635355"><ele>314.0</ele><time>2026-03-28T09:31:15.469Z</time></trkpt><trkpt lat="43.58006" lon="11.6352833"><ele>314.0</ele><time>2026-03-28T09:31:16.469Z</time></trkpt><trkpt lat="43.5801167" lon="11.635215"><ele>314.0</ele><time>2026-03-28T09:31:17.468Z</time></trkpt><trkpt lat="43.5801767" lon="11.6351483"><ele>314.0</ele><time>2026-03-28T09:31:18.471Z</time></trkpt><trkpt lat="43.5802367" lon="11.6350817"><ele>314.0</ele><time>2026-03-28T09:31:19.473Z</time></trkpt><trkpt lat="43.5803" lon="11.6350167"><ele>314.0</ele><time>2026-03-28T09:31:20.472Z</time></trkpt><trkpt lat="43.580365" lon="11.634955"><ele>314.0</ele><time>2026-03-28T09:31:21.468Z</time></trkpt><trkpt lat="43.5804267" lon="11.63489"><ele>315.83333333333337</ele><time>2026-03-28T09:31:22.469Z</time></trkpt><trkpt lat="43.58049" lon="11.6348217"><ele>317.6666666666667</ele><time>2026-03-28T09:31:23.47Z</time></trkpt><trkpt lat="43.580555" lon="11.6347533"><ele>319.5</ele><time>2026-03-28T09:31:24.47Z</time></trkpt><trkpt lat="43.5806217" lon="11.634685"><ele>321.3333333333333</ele><time>2026-03-28T09:31:25.47Z</time></trkpt><trkpt lat="43.5806867" lon="11.6346167"><ele>323.16666666666663</ele><time>2026-03-28T09:31:26.471Z</time></trkpt><trkpt lat="43.58075" lon="11.6345467"><ele>325.0</ele><time>2026-03-28T09:31:27.468Z</time></trkpt><trkpt lat="43.580815" lon="11.6344767"><ele>324.3333333333333</ele><time>2026-03-28T09:31:28.468Z</time></trkpt><trkpt lat="43.5808817" lon="11.6344067"><ele>323.66666666666663</ele><time>2026-03-28T09:31:29.469Z</time></trkpt><trkpt lat="43.5809533" lon="11.63434"><ele>323.0</ele><time>2026-03-28T09:31:30.469Z</time></trkpt><trkpt lat="43.5810233" lon="11.6342733"><ele>322.3333333333333</ele><time>2026-03-28T09:31:31.471Z</time></trkpt><trkpt lat="43.5810983" lon="11.6342083"><ele>321.6666666666667</ele><time>2026-03-28T09:31:32.474Z</time></trkpt><trkpt lat="43.581175" lon="11.63415"><ele>321.0</ele><time>2026-03-28T09:31:33.471Z</time></trkpt><trkpt lat="43.58126" lon="11.6341083"><ele>321.0</ele><time>2026-03-28T09:31:34.47Z</time></trkpt><trkpt lat="43.5813483" lon="11.6340883"><ele>321.0</ele><time>2026-03-28T09:31:35.469Z</time></trkpt><trkpt lat="43.581435" lon="11.63409"><ele>321.0</ele><time>2026-03-28T09:31:36.47Z</time></trkpt><trkpt lat="43.5815183" lon="11.6340983"><ele>321.0</ele><time>2026-03-28T09:31:37.47Z</time></trkpt><trkpt lat="43.5816017" lon="11.6341133"><ele>321.0</ele><time>2026-03-28T09:31:38.471Z</time></trkpt><trkpt lat="43.5816917" lon="11.6341217"><ele>321.0</ele><time>2026-03-28T09:31:39.47Z</time></trkpt><trkpt lat="43.58178" lon="11.634105"><ele>321.0</ele><time>2026-03-28T09:31:40.469Z</time></trkpt><trkpt lat="43.5818667" lon="11.6340683"><ele>321.0</ele><time>2026-03-28T09:31:41.468Z</time></trkpt><trkpt lat="43.5819417" lon="11.634005"><ele>321.0</ele><time>2026-03-28T09:31:42.469Z</time></trkpt><trkpt lat="43.582005" lon="11.6339267"><ele>321.0</ele><time>2026-03-28T09:31:43.471Z</time></trkpt><trkpt lat="43.58206" lon="11.63383"><ele>321.0</ele><time>2026-03-28T09:31:44.471Z</time></trkpt><trkpt lat="43.58211" lon="11.6337333"><ele>321.0</ele><time>2026-03-28T09:31:45.472Z</time></trkpt><trkpt lat="43.5821633" lon="11.6336433"><ele>319.5</ele><time>2026-03-28T09:31:46.47Z</time></trkpt><trkpt lat="43.5822233" lon="11.6335633"><ele>318.0</ele><time>2026-03-28T09:31:47.473Z</time></trkpt><trkpt lat="43.5822917" lon="11.63349"><ele>316.5</ele><time>2026-03-28T09:31:48.471Z</time></trkpt><trkpt lat="43.5823667" lon="11.63343"><ele>315.0</ele><time>2026-03-28T09:31:49.472Z</time></trkpt><trkpt lat="43.5824467" lon="11.6333867"><ele>313.5</ele><time>2026-03-28T09:31:50.471Z</time></trkpt><trkpt lat="43.5825333" lon="11.63336"><ele>312.0</ele><time>2026-03-28T09:31:51.471Z</time></trkpt><trkpt lat="43.582625" lon="11.6333517"><ele>312.0</ele><time>2026-03-28T09:31:52.471Z</time></trkpt><trkpt lat="43.5827183" lon="11.633355"><ele>312.0</ele><time>2026-03-28T09:31:53.473Z</time></trkpt><trkpt lat="43.5828083" lon="11.6333617"><ele>312.0</ele><time>2026-03-28T09:31:54.471Z</time></trkpt><trkpt lat="43.5828983" lon="11.6333717"><ele>312.0</ele><time>2026-03-28T09:31:55.47Z</time></trkpt><trkpt lat="43.5829867" lon="11.6333833"><ele>312.0</ele><time>2026-03-28T09:31:56.469Z</time></trkpt><trkpt lat="43.583075" lon="11.6333917"><ele>311.6666666666667</ele><time>2026-03-28T09:31:57.471Z</time></trkpt><trkpt lat="43.5831633" lon="11.6333983"><ele>311.3333333333333</ele><time>2026-03-28T09:31:58.469Z</time></trkpt><trkpt lat="43.5832517" lon="11.6334067"><ele>311.0</ele><time>2026-03-28T09:31:59.47Z</time></trkpt><trkpt lat="43.58334" lon="11.6334183"><ele>310.66666666666663</ele><time>2026-03-28T09:32:00.469Z</time></trkpt><trkpt lat="43.5834267" lon="11.633435"><ele>310.3333333333333</ele><time>2026-03-28T09:32:01.472Z</time></trkpt><trkpt lat="43.583515" lon="11.6334567"><ele>310.0</ele><time>2026-03-28T09:32:02.471Z</time></trkpt><trkpt lat="43.5836" lon="11.6334783"><ele>310.16666666666663</ele><time>2026-03-28T09:32:03.469Z</time></trkpt><trkpt lat="43.5836833" lon="11.6335017"><ele>310.3333333333333</ele><time>2026-03-28T09:32:04.469Z</time></trkpt><trkpt lat="43.5837667" lon="11.6335267"><ele>310.5</ele><time>2026-03-28T09:32:05.47Z</time></trkpt><trkpt lat="43.5838467" lon="11.6335583"><ele>310.6666666666667</ele><time>2026-03-28T09:32:06.468Z</time></trkpt><trkpt lat="43.5839267" lon="11.6335867"><ele>310.83333333333337</ele><time>2026-03-28T09:32:07.47Z</time></trkpt><trkpt lat="43.5840017" lon="11.633615"><ele>311.0</ele><time>2026-03-28T09:32:08.471Z</time></trkpt><trkpt lat="43.5840733" lon="11.6336383"><ele>312.57142857142856</ele><time>2026-03-28T09:32:09.469Z</time></trkpt><trkpt lat="43.584145" lon="11.6336617"><ele>314.14285714285717</ele><time>2026-03-28T09:32:10.471Z</time></trkpt><trkpt lat="43.5842133" lon="11.6336867"><ele>315.7142857142857</ele><time>2026-03-28T09:32:11.47Z</time></trkpt><trkpt lat="43.58428" lon="11.6337067"><ele>317.2857142857143</ele><time>2026-03-28T09:32:12.47Z</time></trkpt><trkpt lat="43.5843467" lon="11.6337267"><ele>318.8571428571429</ele><time>2026-03-28T09:32:13.471Z</time></trkpt><trkpt lat="43.5844117" lon="11.633755"><ele>320.42857142857144</ele><time>2026-03-28T09:32:14.472Z</time></trkpt><trkpt lat="43.5844733" lon="11.63378"><ele>322.0</ele><time>2026-03-28T09:32:15.47Z</time></trkpt><trkpt lat="43.5845333" lon="11.6338067"><ele>322.0</ele><time>2026-03-28T09:32:16.469Z</time></trkpt><trkpt lat="43.584595" lon="11.63383"><ele>322.0</ele><time>2026-03-28T09:32:17.47Z</time></trkpt><trkpt lat="43.5847167" lon="11.6338733"><ele>322.0</ele><time>2026-03-28T09:32:19.471Z</time></trkpt><trkpt lat="43.58484" lon="11.6339233"><ele>322.0</ele><time>2026-03-28T09:32:21.473Z</time></trkpt><trkpt lat="43.5849033" lon="11.6339367"><ele>322.0</ele><time>2026-03-28T09:32:22.471Z</time></trkpt><trkpt lat="43.584965" lon="11.6339567"><ele>322.0</ele><time>2026-03-28T09:32:23.471Z</time></trkpt><trkpt lat="43.585085" lon="11.6340067"><ele>322.0</ele><time>2026-03-28T09:32:25.474Z</time></trkpt><trkpt lat="43.5852067" lon="11.6340483"><ele>322.0</ele><time>2026-03-28T09:32:27.473Z</time></trkpt><trkpt lat="43.5853267" lon="11.6341017"><ele>322.0</ele><time>2026-03-28T09:32:29.474Z</time></trkpt><trkpt lat="43.5854417" lon="11.6341483"><ele>322.0</ele><time>2026-03-28T09:32:31.472Z</time></trkpt><trkpt lat="43.5855633" lon="11.6341867"><ele>321.75</ele><time>2026-03-28T09:32:33.474Z</time></trkpt><trkpt lat="43.5856833" lon="11.634235"><ele>321.5</ele><time>2026-03-28T09:32:35.471Z</time></trkpt><trkpt lat="43.5858067" lon="11.6342733"><ele>321.25</ele><time>2026-03-28T09:32:37.471Z</time></trkpt><trkpt lat="43.5859267" lon="11.634315"><ele>321.0</ele><time>2026-03-28T09:32:39.471Z</time></trkpt><trkpt lat="43.5860417" lon="11.6343583"><ele>321.0</ele><time>2026-03-28T09:32:41.471Z</time></trkpt><trkpt lat="43.5861617" lon="11.6343983"><ele>321.0</ele><time>2026-03-28T09:32:43.469Z</time></trkpt><trkpt lat="43.5862867" lon="11.6344283"><ele>321.0</ele><time>2026-03-28T09:32:45.469Z</time></trkpt><trkpt lat="43.586355" lon="11.63444"><ele>321.0</ele><time>2026-03-28T09:32:46.469Z</time></trkpt><trkpt lat="43.5864217" lon="11.6344433"><ele>321.0</ele><time>2026-03-28T09:32:47.469Z</time></trkpt><trkpt lat="43.5864883" lon="11.6344383"><ele>320.8333333333333</ele><time>2026-03-28T09:32:48.469Z</time></trkpt><trkpt lat="43.58661" lon="11.63439"><ele>320.6666666666667</ele><time>2026-03-28T09:32:50.469Z</time></trkpt><trkpt lat="43.5866683" lon="11.6343483"><ele>320.5</ele><time>2026-03-28T09:32:51.468Z</time></trkpt><trkpt lat="43.5867217" lon="11.6342933"><ele>320.33333333333337</ele><time>2026-03-28T09:32:52.469Z</time></trkpt><trkpt lat="43.58677" lon="11.634225"><ele>320.1666666666667</ele><time>2026-03-28T09:32:53.468Z</time></trkpt><trkpt lat="43.5868067" lon="11.6341433"><ele>320.0</ele><time>2026-03-28T09:32:54.47Z</time></trkpt><trkpt lat="43.5868417" lon="11.634055"><ele>320.0</ele><time>2026-03-28T09:32:55.47Z</time></trkpt><trkpt lat="43.5868667" lon="11.633955"><ele>320.0</ele><time>2026-03-28T09:32:56.469Z</time></trkpt><trkpt lat="43.5868917" lon="11.633845"><ele>320.0</ele><time>2026-03-28T09:32:57.469Z</time></trkpt><trkpt lat="43.5869167" lon="11.6337267"><ele>320.0</ele><time>2026-03-28T09:32:58.469Z</time></trkpt><trkpt lat="43.586945" lon="11.633605"><ele>320.0</ele><time>2026-03-28T09:32:59.471Z</time></trkpt><trkpt lat="43.58698" lon="11.6334833"><ele>320.0</ele><time>2026-03-28T09:33:00.468Z</time></trkpt><trkpt lat="43.5870233" lon="11.6333667"><ele>319.2</ele><time>2026-03-28T09:33:01.471Z</time></trkpt><trkpt lat="43.5870767" lon="11.63326"><ele>318.4</ele><time>2026-03-28T09:33:02.471Z</time></trkpt><trkpt lat="43.5871367" lon="11.6331633"><ele>317.6</ele><time>2026-03-28T09:33:03.471Z</time></trkpt><trkpt lat="43.5872067" lon="11.6330733"><ele>316.8</ele><time>2026-03-28T09:33:04.471Z</time></trkpt><trkpt lat="43.5872833" lon="11.6329933"><ele>316.0</ele><time>2026-03-28T09:33:05.472Z</time></trkpt><trkpt lat="43.5873683" lon="11.6329233"><ele>316.0</ele><time>2026-03-28T09:33:06.473Z</time></trkpt><trkpt lat="43.5874567" lon="11.6328683"><ele>316.0</ele><time>2026-03-28T09:33:07.47Z</time></trkpt><trkpt lat="43.5875533" lon="11.6328283"><ele>316.0</ele><time>2026-03-28T09:33:08.469Z</time></trkpt><trkpt lat="43.5876517" lon="11.6327967"><ele>316.0</ele><time>2026-03-28T09:33:09.469Z</time></trkpt><trkpt lat="43.5877517" lon="11.63277"><ele>316.0</ele><time>2026-03-28T09:33:10.469Z</time></trkpt><trkpt lat="43.5878517" lon="11.632745"><ele>312.8</ele><time>2026-03-28T09:33:11.469Z</time></trkpt><trkpt lat="43.5879567" lon="11.6327217"><ele>309.6</ele><time>2026-03-28T09:33:12.468Z</time></trkpt><trkpt lat="43.5880567" lon="11.632695"><ele>306.4</ele><time>2026-03-28T09:33:13.469Z</time></trkpt><trkpt lat="43.5881583" lon="11.6326733"><ele>303.2</ele><time>2026-03-28T09:33:14.469Z</time></trkpt><trkpt lat="43.5882583" lon="11.63265"><ele>300.0</ele><time>2026-03-28T09:33:15.469Z</time></trkpt><trkpt lat="43.58836" lon="11.6326317"><ele>300.0</ele><time>2026-03-28T09:33:16.469Z</time></trkpt><trkpt lat="43.58846" lon="11.6326117"><ele>300.0</ele><time>2026-03-28T09:33:17.469Z</time></trkpt><trkpt lat="43.58856" lon="11.63259"><ele>300.0</ele><time>2026-03-28T09:33:18.468Z</time></trkpt><trkpt lat="43.5886567" lon="11.63257"><ele>300.0</ele><time>2026-03-28T09:33:19.469Z</time></trkpt><trkpt lat="43.5887567" lon="11.6325617"><ele>300.0</ele><time>2026-03-28T09:33:20.469Z</time></trkpt><trkpt lat="43.5888567" lon="11.6325667"><ele>300.6</ele><time>2026-03-28T09:33:21.471Z</time></trkpt><trkpt lat="43.5889567" lon="11.63259"><ele>301.2</ele><time>2026-03-28T09:33:22.471Z</time></trkpt><trkpt lat="43.589055" lon="11.63262"><ele>301.8</ele><time>2026-03-28T09:33:23.47Z</time></trkpt><trkpt lat="43.5891533" lon="11.6326533"><ele>302.4</ele><time>2026-03-28T09:33:24.472Z</time></trkpt><trkpt lat="43.589255" lon="11.63267"><ele>303.0</ele><time>2026-03-28T09:33:25.472Z</time></trkpt><trkpt lat="43.589355" lon="11.632665"><ele>303.0</ele><time>2026-03-28T09:33:26.471Z</time></trkpt><trkpt lat="43.5894533" lon="11.63264"><ele>303.0</ele><time>2026-03-28T09:33:27.472Z</time></trkpt><trkpt lat="43.5895483" lon="11.6326067"><ele>303.0</ele><time>2026-03-28T09:33:28.471Z</time></trkpt><trkpt lat="43.5896417" lon="11.63257"><ele>303.0</ele><time>2026-03-28T09:33:29.47Z</time></trkpt><trkpt lat="43.5897317" lon="11.6325317"><ele>303.0</ele><time>2026-03-28T09:33:30.472Z</time></trkpt><trkpt lat="43.5898183" lon="11.6324933"><ele>304.0</ele><time>2026-03-28T09:33:31.472Z</time></trkpt><trkpt lat="43.589905" lon="11.63246"><ele>305.0</ele><time>2026-03-28T09:33:32.469Z</time></trkpt><trkpt lat="43.58999" lon="11.6324383"><ele>306.0</ele><time>2026-03-28T09:33:33.469Z</time></trkpt><trkpt lat="43.5900733" lon="11.6324317"><ele>307.0</ele><time>2026-03-28T09:33:34.469Z</time></trkpt><trkpt lat="43.5901533" lon="11.6324417"><ele>308.0</ele><time>2026-03-28T09:33:35.468Z</time></trkpt><trkpt lat="43.5902233" lon="11.632455"><ele>309.0</ele><time>2026-03-28T09:33:36.467Z</time></trkpt><trkpt lat="43.5902867" lon="11.6324733"><ele>309.2</ele><time>2026-03-28T09:33:37.469Z</time></trkpt><trkpt lat="43.5903983" lon="11.6325133"><ele>309.4</ele><time>2026-03-28T09:33:39.468Z</time></trkpt><trkpt lat="43.5905" lon="11.6325517"><ele>309.6</ele><time>2026-03-28T09:33:41.469Z</time></trkpt><trkpt lat="43.5905917" lon="11.6325967"><ele>309.8</ele><time>2026-03-28T09:33:43.469Z</time></trkpt><trkpt lat="43.5906717" lon="11.6326483"><ele>310.0</ele><time>2026-03-28T09:33:45.469Z</time></trkpt><trkpt lat="43.5907517" lon="11.632695"><ele>310.0</ele><time>2026-03-28T09:33:47.468Z</time></trkpt><trkpt lat="43.5908317" lon="11.63274"><ele>310.0</ele><time>2026-03-28T09:33:49.47Z</time></trkpt><trkpt lat="43.59091" lon="11.632785"><ele>310.0</ele><time>2026-03-28T09:33:51.47Z</time></trkpt><trkpt lat="43.5909867" lon="11.6328467"><ele>310.0</ele><time>2026-03-28T09:33:53.469Z</time></trkpt><trkpt lat="43.5910667" lon="11.6329067"><ele>310.0</ele><time>2026-03-28T09:33:55.471Z</time></trkpt><trkpt lat="43.5911467" lon="11.63294"><ele>310.0</ele><time>2026-03-28T09:33:57.468Z</time></trkpt><trkpt lat="43.5912233" lon="11.6329833"><ele>313.2</ele><time>2026-03-28T09:33:59.467Z</time></trkpt><trkpt lat="43.5913033" lon="11.6330167"><ele>316.4</ele><time>2026-03-28T09:34:01.468Z</time></trkpt><trkpt lat="43.5914017" lon="11.63304"><ele>319.6</ele><time>2026-03-28T09:34:03.473Z</time></trkpt><trkpt lat="43.5914933" lon="11.63304"><ele>322.8</ele><time>2026-03-28T09:34:05.47Z</time></trkpt><trkpt lat="43.5915867" lon="11.6330133"><ele>326.0</ele><time>2026-03-28T09:34:07.471Z</time></trkpt><trkpt lat="43.5916817" lon="11.6329817"><ele>326.0</ele><time>2026-03-28T09:34:09.47Z</time></trkpt><trkpt lat="43.5917767" lon="11.6329467"><ele>326.0</ele><time>2026-03-28T09:34:11.467Z</time></trkpt><trkpt lat="43.5918733" lon="11.63293"><ele>326.0</ele><time>2026-03-28T09:34:13.468Z</time></trkpt><trkpt lat="43.59196" lon="11.6329433"><ele>326.0</ele><time>2026-03-28T09:34:15.467Z</time></trkpt><trkpt lat="43.5920367" lon="11.6329883"><ele>326.0</ele><time>2026-03-28T09:34:17.466Z</time></trkpt><trkpt lat="43.5921083" lon="11.6330317"><ele>326.0</ele><time>2026-03-28T09:34:19.469Z</time></trkpt><trkpt lat="43.59217" lon="11.633085"><ele>326.14285714285717</ele><time>2026-03-28T09:34:21.468Z</time></trkpt><trkpt lat="43.5922267" lon="11.633145"><ele>326.2857142857143</ele><time>2026-03-28T09:34:23.468Z</time></trkpt><trkpt lat="43.5922867" lon="11.6331733"><ele>326.42857142857144</ele><time>2026-03-28T09:34:25.468Z</time></trkpt><trkpt lat="43.59235" lon="11.6331867"><ele>326.57142857142856</ele><time>2026-03-28T09:34:27.468Z</time></trkpt><trkpt lat="43.5924133" lon="11.63318"><ele>326.7142857142857</ele><time>2026-03-28T09:34:29.471Z</time></trkpt><trkpt lat="43.5924783" lon="11.6331483"><ele>326.85714285714283</ele><time>2026-03-28T09:34:31.467Z</time></trkpt><trkpt lat="43.5925333" lon="11.633095"><ele>327.0</ele><time>2026-03-28T09:34:33.468Z</time></trkpt><trkpt lat="43.5925933" lon="11.633015"><ele>327.0</ele><time>2026-03-28T09:34:35.469Z</time></trkpt><trkpt lat="43.592635" lon="11.632925"><ele>327.0</ele><time>2026-03-28T09:34:37.47Z</time></trkpt><trkpt lat="43.5926867" lon="11.6328233"><ele>327.0</ele><time>2026-03-28T09:34:40.472Z</time></trkpt><trkpt lat="43.5927267" lon="11.6327167"><ele>327.0</ele><time>2026-03-28T09:34:43.47Z</time></trkpt><trkpt lat="43.592755" lon="11.6326367"><ele>327.0</ele><time>2026-03-28T09:34:45.469Z</time></trkpt><trkpt lat="43.5927817" lon="11.6325533"><ele>327.0</ele><time>2026-03-28T09:34:47.469Z</time></trkpt><trkpt lat="43.592785" lon="11.63244"><ele>326.0</ele><time>2026-03-28T09:34:49.468Z</time></trkpt><trkpt lat="43.5927683" lon="11.6323033"><ele>325.0</ele><time>2026-03-28T09:34:51.469Z</time></trkpt><trkpt lat="43.59274" lon="11.6321817"><ele>324.0</ele><time>2026-03-28T09:34:53.469Z</time></trkpt><trkpt lat="43.5927283" lon="11.6320817"><ele>323.0</ele><time>2026-03-28T09:34:55.47Z</time></trkpt><trkpt lat="43.5927517" lon="11.6319683"><ele>322.0</ele><time>2026-03-28T09:34:57.467Z</time></trkpt><trkpt lat="43.5928433" lon="11.6318767"><ele>321.20000000000005</ele><time>2026-03-28T09:34:59.471Z</time></trkpt><trkpt lat="43.5929533" lon="11.6317983"><ele>320.40000000000003</ele><time>2026-03-28T09:35:01.47Z</time></trkpt><trkpt lat="43.5930567" lon="11.6317283"><ele>319.6</ele><time>2026-03-28T09:35:03.47Z</time></trkpt><trkpt lat="43.5931233" lon="11.6316517"><ele>318.8</ele><time>2026-03-28T09:35:05.47Z</time></trkpt><trkpt lat="43.5931633" lon="11.63156"><ele>318.0</ele><time>2026-03-28T09:35:07.469Z</time></trkpt><trkpt lat="43.5931517" lon="11.6314433"><ele>318.0</ele><time>2026-03-28T09:35:09.469Z</time></trkpt><trkpt lat="43.5931317" lon="11.6313333"><ele>318.0</ele><time>2026-03-28T09:35:11.468Z</time></trkpt><trkpt lat="43.5931" lon="11.6312233"><ele>318.0</ele><time>2026-03-28T09:35:13.468Z</time></trkpt><trkpt lat="43.5930833" lon="11.6311133"><ele>318.0</ele><time>2026-03-28T09:35:15.469Z</time></trkpt><trkpt lat="43.5930767" lon="11.6310117"><ele>318.0</ele><time>2026-03-28T09:35:17.47Z</time></trkpt><trkpt lat="43.5930933" lon="11.6309267"><ele>318.0</ele><time>2026-03-28T09:35:43.47Z</time></trkpt><trkpt lat="43.59304" lon="11.630865"><ele>318.0</ele><time>2026-03-28T09:37:04.47Z</time></trkpt><trkpt lat="43.5930033" lon="11.6307817"><ele>318.0</ele><time>2026-03-28T09:37:07.471Z</time></trkpt><trkpt lat="43.5929283" lon="11.630715"><ele>318.0</ele><time>2026-03-28T09:37:10.469Z</time></trkpt><trkpt lat="43.5928567" lon="11.63069"><ele>318.0</ele><time>2026-03-28T09:37:12.471Z</time></trkpt><trkpt lat="43.59278" lon="11.630665"><ele>318.0</ele><time>2026-03-28T09:37:14.467Z</time></trkpt><trkpt lat="43.5926983" lon="11.630645"><ele>318.0</ele><time>2026-03-28T09:37:16.468Z</time></trkpt><trkpt lat="43.5926167" lon="11.6306383"><ele>317.6</ele><time>2026-03-28T09:37:18.468Z</time></trkpt><trkpt lat="43.5925317" lon="11.6306217"><ele>317.20000000000005</ele><time>2026-03-28T09:37:20.471Z</time></trkpt><trkpt lat="43.5924383" lon="11.6306117"><ele>316.8</ele><time>2026-03-28T09:37:22.472Z</time></trkpt><trkpt lat="43.5923333" lon="11.6306"><ele>316.40000000000003</ele><time>2026-03-28T09:37:24.47Z</time></trkpt><trkpt lat="43.59223" lon="11.630585"><ele>316.0</ele><time>2026-03-28T09:37:26.471Z</time></trkpt><trkpt lat="43.5921283" lon="11.6305767"><ele>316.0</ele><time>2026-03-28T09:37:28.471Z</time></trkpt><trkpt lat="43.5920267" lon="11.6305967"><ele>316.0</ele><time>2026-03-28T09:37:30.473Z</time></trkpt><trkpt lat="43.5919267" lon="11.6306267"><ele>316.0</ele><time>2026-03-28T09:37:32.471Z</time></trkpt><trkpt lat="43.5918233" lon="11.6306633"><ele>316.0</ele><time>2026-03-28T09:37:34.472Z</time></trkpt><trkpt lat="43.5917183" lon="11.6306967"><ele>316.0</ele><time>2026-03-28T09:37:36.469Z</time></trkpt><trkpt lat="43.5916167" lon="11.6307167"><ele>315.2</ele><time>2026-03-28T09:37:38.47Z</time></trkpt><trkpt lat="43.5915083" lon="11.630725"><ele>314.40000000000003</ele><time>2026-03-28T09:37:40.469Z</time></trkpt><trkpt lat="43.591395" lon="11.6307133"><ele>313.6</ele><time>2026-03-28T09:37:42.468Z</time></trkpt><trkpt lat="43.5912833" lon="11.630665"><ele>312.8</ele><time>2026-03-28T09:37:44.469Z</time></trkpt><trkpt lat="43.591195" lon="11.6305833"><ele>312.0</ele><time>2026-03-28T09:37:46.468Z</time></trkpt><trkpt lat="43.5911167" lon="11.63048"><ele>313.0</ele><time>2026-03-28T09:37:48.468Z</time></trkpt><trkpt lat="43.5910483" lon="11.6303683"><ele>314.0</ele><time>2026-03-28T09:37:50.47Z</time></trkpt><trkpt lat="43.590985" lon="11.6302633"><ele>315.0</ele><time>2026-03-28T09:37:52.473Z</time></trkpt><trkpt lat="43.5909117" lon="11.63015"><ele>316.0</ele><time>2026-03-28T09:37:54.47Z</time></trkpt><trkpt lat="43.5908383" lon="11.6300483"><ele>317.0</ele><time>2026-03-28T09:37:56.469Z</time></trkpt><trkpt lat="43.590765" lon="11.629945"><ele>317.0</ele><time>2026-03-28T09:37:58.467Z</time></trkpt><trkpt lat="43.5906867" lon="11.6298483"><ele>317.0</ele><time>2026-03-28T09:38:00.467Z</time></trkpt><trkpt lat="43.5906017" lon="11.6297633"><ele>317.0</ele><time>2026-03-28T09:38:02.471Z</time></trkpt><trkpt lat="43.5905083" lon="11.6296833"><ele>317.0</ele><time>2026-03-28T09:38:04.472Z</time></trkpt><trkpt lat="43.5904133" lon="11.629605"><ele>317.0</ele><time>2026-03-28T09:38:06.471Z</time></trkpt><trkpt lat="43.5903217" lon="11.6295383"><ele>317.4</ele><time>2026-03-28T09:38:08.47Z</time></trkpt><trkpt lat="43.59022" lon="11.6294767"><ele>317.79999999999995</ele><time>2026-03-28T09:38:10.472Z</time></trkpt><trkpt lat="43.5901233" lon="11.6294083"><ele>318.2</ele><time>2026-03-28T09:38:12.47Z</time></trkpt><trkpt lat="43.590035" lon="11.629335"><ele>318.59999999999997</ele><time>2026-03-28T09:38:14.471Z</time></trkpt><trkpt lat="43.58994" lon="11.62927"><ele>319.0</ele><time>2026-03-28T09:38:16.469Z</time></trkpt><trkpt lat="43.589845" lon="11.6291967"><ele>319.0</ele><time>2026-03-28T09:38:18.469Z</time></trkpt><trkpt lat="43.5897483" lon="11.6291167"><ele>319.0</ele><time>2026-03-28T09:38:20.471Z</time></trkpt><trkpt lat="43.589645" lon="11.6290417"><ele>319.0</ele><time>2026-03-28T09:38:22.47Z</time></trkpt><trkpt lat="43.589535" lon="11.628965"><ele>319.0</ele><time>2026-03-28T09:38:24.469Z</time></trkpt><trkpt lat="43.58943" lon="11.628875"><ele>319.5</ele><time>2026-03-28T09:38:26.471Z</time></trkpt><trkpt lat="43.5893267" lon="11.6287867"><ele>320.0</ele><time>2026-03-28T09:38:28.469Z</time></trkpt><trkpt lat="43.5892717" lon="11.62874"><ele>320.5</ele><time>2026-03-28T09:38:29.47Z</time></trkpt><trkpt lat="43.589215" lon="11.6286933"><ele>321.0</ele><time>2026-03-28T09:38:30.467Z</time></trkpt><trkpt lat="43.58916" lon="11.6286483"><ele>321.5</ele><time>2026-03-28T09:38:31.469Z</time></trkpt><trkpt lat="43.5891" lon="11.6286033"><ele>322.0</ele><time>2026-03-28T09:38:32.47Z</time></trkpt><trkpt lat="43.5890417" lon="11.6285567"><ele>322.0</ele><time>2026-03-28T09:38:33.468Z</time></trkpt><trkpt lat="43.5889817" lon="11.6285133"><ele>322.0</ele><time>2026-03-28T09:38:34.471Z</time></trkpt><trkpt lat="43.5889217" lon="11.6284667"><ele>322.0</ele><time>2026-03-28T09:38:35.469Z</time></trkpt><trkpt lat="43.5888617" lon="11.6284167"><ele>322.0</ele><time>2026-03-28T09:38:36.468Z</time></trkpt><trkpt lat="43.5887983" lon="11.6283733"><ele>322.0</ele><time>2026-03-28T09:38:37.469Z</time></trkpt><trkpt lat="43.588735" lon="11.6283217"><ele>322.0</ele><time>2026-03-28T09:38:38.469Z</time></trkpt><trkpt lat="43.5886733" lon="11.628265"><ele>322.0</ele><time>2026-03-28T09:38:39.469Z</time></trkpt><trkpt lat="43.5886167" lon="11.6282033"><ele>321.85714285714283</ele><time>2026-03-28T09:38:40.471Z</time></trkpt><trkpt lat="43.5885633" lon="11.6281383"><ele>321.7142857142857</ele><time>2026-03-28T09:38:41.468Z</time></trkpt><trkpt lat="43.5885083" lon="11.6280733"><ele>321.57142857142856</ele><time>2026-03-28T09:38:42.468Z</time></trkpt><trkpt lat="43.588455" lon="11.6280017"><ele>321.42857142857144</ele><time>2026-03-28T09:38:43.47Z</time></trkpt><trkpt lat="43.5884067" lon="11.6279233"><ele>321.2857142857143</ele><time>2026-03-28T09:38:44.468Z</time></trkpt><trkpt lat="43.5883617" lon="11.6278367"><ele>321.1428571428571</ele><time>2026-03-28T09:38:45.473Z</time></trkpt><trkpt lat="43.5883217" lon="11.6277467"><ele>321.0</ele><time>2026-03-28T09:38:46.471Z</time></trkpt><trkpt lat="43.5882883" lon="11.62765"><ele>321.0</ele><time>2026-03-28T09:38:47.471Z</time></trkpt><trkpt lat="43.58827" lon="11.62755"><ele>321.0</ele><time>2026-03-28T09:38:48.469Z</time></trkpt><trkpt lat="43.5882617" lon="11.62746"><ele>321.0</ele><time>2026-03-28T09:38:49.471Z</time></trkpt><trkpt lat="43.588255" lon="11.6273033"><ele>321.0</ele><time>2026-03-28T09:38:51.47Z</time></trkpt><trkpt lat="43.5882567" lon="11.62712"><ele>321.0</ele><time>2026-03-28T09:38:53.469Z</time></trkpt><trkpt lat="43.58826" lon="11.6270167"><ele>320.8333333333333</ele><time>2026-03-28T09:38:54.47Z</time></trkpt><trkpt lat="43.5882617" lon="11.6269067"><ele>320.6666666666667</ele><time>2026-03-28T09:38:55.47Z</time></trkpt><trkpt lat="43.5882617" lon="11.6267933"><ele>320.5</ele><time>2026-03-28T09:38:56.471Z</time></trkpt><trkpt lat="43.5882617" lon="11.6266783"><ele>320.33333333333337</ele><time>2026-03-28T09:38:57.471Z</time></trkpt><trkpt lat="43.5882633" lon="11.6265617"><ele>320.1666666666667</ele><time>2026-03-28T09:38:58.469Z</time></trkpt><trkpt lat="43.588265" lon="11.6264417"><ele>320.0</ele><time>2026-03-28T09:38:59.469Z</time></trkpt><trkpt lat="43.5882633" lon="11.62632"><ele>320.0</ele><time>2026-03-28T09:39:00.469Z</time></trkpt><trkpt lat="43.588255" lon="11.6262"><ele>320.0</ele><time>2026-03-28T09:39:01.469Z</time></trkpt><trkpt lat="43.5882367" lon="11.6260817"><ele>320.0</ele><time>2026-03-28T09:39:02.469Z</time></trkpt><trkpt lat="43.5882033" lon="11.6259683"><ele>320.0</ele><time>2026-03-28T09:39:03.469Z</time></trkpt><trkpt lat="43.5881617" lon="11.6258567"><ele>320.0</ele><time>2026-03-28T09:39:04.47Z</time></trkpt><trkpt lat="43.58811" lon="11.6257483"><ele>320.0</ele><time>2026-03-28T09:39:05.468Z</time></trkpt><trkpt lat="43.588055" lon="11.6256433"><ele>319.8</ele><time>2026-03-28T09:39:06.468Z</time></trkpt><trkpt lat="43.5879983" lon="11.6255383"><ele>319.6</ele><time>2026-03-28T09:39:07.471Z</time></trkpt><trkpt lat="43.5879417" lon="11.62543"><ele>319.4</ele><time>2026-03-28T09:39:08.471Z</time></trkpt><trkpt lat="43.5878833" lon="11.6253267"><ele>319.2</ele><time>2026-03-28T09:39:09.47Z</time></trkpt><trkpt lat="43.5878267" lon="11.6252217"><ele>319.0</ele><time>2026-03-28T09:39:10.47Z</time></trkpt><trkpt lat="43.58777" lon="11.6251133"><ele>317.59999999999997</ele><time>2026-03-28T09:39:11.469Z</time></trkpt><trkpt lat="43.5877167" lon="11.6249983"><ele>316.2</ele><time>2026-03-28T09:39:12.469Z</time></trkpt><trkpt lat="43.5876667" lon="11.62488"><ele>314.79999999999995</ele><time>2026-03-28T09:39:13.469Z</time></trkpt><trkpt lat="43.587625" lon="11.62476"><ele>313.4</ele><time>2026-03-28T09:39:14.471Z</time></trkpt><trkpt lat="43.5875933" lon="11.6246367"><ele>312.0</ele><time>2026-03-28T09:39:15.472Z</time></trkpt><trkpt lat="43.5875683" lon="11.6245133"><ele>312.0</ele><time>2026-03-28T09:39:16.47Z</time></trkpt><trkpt lat="43.587545" lon="11.6243933"><ele>312.0</ele><time>2026-03-28T09:39:17.47Z</time></trkpt><trkpt lat="43.5875233" lon="11.6242733"><ele>312.0</ele><time>2026-03-28T09:39:18.475Z</time></trkpt><trkpt lat="43.58751" lon="11.6241517"><ele>312.0</ele><time>2026-03-28T09:39:19.47Z</time></trkpt><trkpt lat="43.5874917" lon="11.6240283"><ele>312.0</ele><time>2026-03-28T09:39:20.47Z</time></trkpt><trkpt lat="43.5874717" lon="11.6239083"><ele>312.0</ele><time>2026-03-28T09:39:21.469Z</time></trkpt><trkpt lat="43.58745" lon="11.6237917"><ele>312.0</ele><time>2026-03-28T09:39:22.469Z</time></trkpt><trkpt lat="43.58743" lon="11.6236767"><ele>312.0</ele><time>2026-03-28T09:39:23.469Z</time></trkpt><trkpt lat="43.5874083" lon="11.6235617"><ele>312.0</ele><time>2026-03-28T09:39:24.469Z</time></trkpt><trkpt lat="43.5873833" lon="11.62345"><ele>312.0</ele><time>2026-03-28T09:39:25.471Z</time></trkpt><trkpt lat="43.58735" lon="11.62334"><ele>312.0</ele><time>2026-03-28T09:39:26.471Z</time></trkpt><trkpt lat="43.5873167" lon="11.6232367"><ele>312.0</ele><time>2026-03-28T09:39:27.47Z</time></trkpt><trkpt lat="43.5872833" lon="11.6231333"><ele>311.8333333333333</ele><time>2026-03-28T09:39:28.469Z</time></trkpt><trkpt lat="43.5872533" lon="11.6230283"><ele>311.6666666666667</ele><time>2026-03-28T09:39:29.47Z</time></trkpt><trkpt lat="43.5872283" lon="11.6229183"><ele>311.5</ele><time>2026-03-28T09:39:30.469Z</time></trkpt><trkpt lat="43.5872167" lon="11.6228067"><ele>311.33333333333337</ele><time>2026-03-28T09:39:31.472Z</time></trkpt><trkpt lat="43.5872133" lon="11.6226933"><ele>311.1666666666667</ele><time>2026-03-28T09:39:32.469Z</time></trkpt><trkpt lat="43.5872133" lon="11.62258"><ele>311.0</ele><time>2026-03-28T09:39:33.469Z</time></trkpt><trkpt lat="43.5872083" lon="11.6224683"><ele>311.0</ele><time>2026-03-28T09:39:34.469Z</time></trkpt><trkpt lat="43.5872017" lon="11.6223583"><ele>311.0</ele><time>2026-03-28T09:39:35.469Z</time></trkpt><trkpt lat="43.587195" lon="11.62225"><ele>311.0</ele><time>2026-03-28T09:39:36.471Z</time></trkpt><trkpt lat="43.5871917" lon="11.6221383"><ele>311.0</ele><time>2026-03-28T09:39:37.469Z</time></trkpt><trkpt lat="43.58719" lon="11.6220267"><ele>311.0</ele><time>2026-03-28T09:39:38.469Z</time></trkpt><trkpt lat="43.5871917" lon="11.6219167"><ele>311.0</ele><time>2026-03-28T09:39:39.469Z</time></trkpt><trkpt lat="43.5871933" lon="11.6218067"><ele>311.1666666666667</ele><time>2026-03-28T09:39:40.471Z</time></trkpt><trkpt lat="43.587195" lon="11.6217"><ele>311.33333333333337</ele><time>2026-03-28T09:39:41.469Z</time></trkpt><trkpt lat="43.5872033" lon="11.6215917"><ele>311.5</ele><time>2026-03-28T09:39:42.469Z</time></trkpt><trkpt lat="43.5872167" lon="11.6214817"><ele>311.6666666666667</ele><time>2026-03-28T09:39:43.471Z</time></trkpt><trkpt lat="43.5872333" lon="11.6213717"><ele>311.8333333333333</ele><time>2026-03-28T09:39:44.468Z</time></trkpt><trkpt lat="43.5872533" lon="11.621265"><ele>312.0</ele><time>2026-03-28T09:39:45.469Z</time></trkpt><trkpt lat="43.5872767" lon="11.6211617"><ele>311.8333333333333</ele><time>2026-03-28T09:39:46.469Z</time></trkpt><trkpt lat="43.5873" lon="11.6210583"><ele>311.6666666666667</ele><time>2026-03-28T09:39:47.469Z</time></trkpt><trkpt lat="43.587325" lon="11.6209583"><ele>311.5</ele><time>2026-03-28T09:39:48.471Z</time></trkpt><trkpt lat="43.5873517" lon="11.620855"><ele>311.33333333333337</ele><time>2026-03-28T09:39:49.47Z</time></trkpt><trkpt lat="43.5873783" lon="11.6207567"><ele>311.1666666666667</ele><time>2026-03-28T09:39:50.469Z</time></trkpt><trkpt lat="43.5874017" lon="11.6206533"><ele>311.0</ele><time>2026-03-28T09:39:51.473Z</time></trkpt><trkpt lat="43.58743" lon="11.6205483"><ele>311.0</ele><time>2026-03-28T09:39:52.47Z</time></trkpt><trkpt lat="43.5874567" lon="11.620445"><ele>311.0</ele><time>2026-03-28T09:39:53.469Z</time></trkpt><trkpt lat="43.5874783" lon="11.6203433"><ele>311.0</ele><time>2026-03-28T09:39:54.469Z</time></trkpt><trkpt lat="43.5875033" lon="11.6202367"><ele>311.0</ele><time>2026-03-28T09:39:55.47Z</time></trkpt><trkpt lat="43.5875283" lon="11.62013"><ele>311.0</ele><time>2026-03-28T09:39:56.47Z</time></trkpt><trkpt lat="43.58755" lon="11.6200217"><ele>311.0</ele><time>2026-03-28T09:39:57.469Z</time></trkpt><trkpt lat="43.5875667" lon="11.61991"><ele>310.83333333333337</ele><time>2026-03-28T09:39:58.469Z</time></trkpt><trkpt lat="43.587575" lon="11.6197967"><ele>310.6666666666667</ele><time>2026-03-28T09:39:59.47Z</time></trkpt><trkpt lat="43.5875783" lon="11.6196833"><ele>310.5</ele><time>2026-03-28T09:40:00.47Z</time></trkpt><trkpt lat="43.5875783" lon="11.6195717"><ele>310.3333333333333</ele><time>2026-03-28T09:40:01.469Z</time></trkpt><trkpt lat="43.587575" lon="11.6194633"><ele>310.16666666666663</ele><time>2026-03-28T09:40:02.468Z</time></trkpt><trkpt lat="43.58758" lon="11.61935"><ele>310.0</ele><time>2026-03-28T09:40:03.468Z</time></trkpt><trkpt lat="43.58759" lon="11.6192417"><ele>309.66666666666663</ele><time>2026-03-28T09:40:04.469Z</time></trkpt><trkpt lat="43.5876117" lon="11.6191367"><ele>309.3333333333333</ele><time>2026-03-28T09:40:05.469Z</time></trkpt><trkpt lat="43.587645" lon="11.6190383"><ele>309.0</ele><time>2026-03-28T09:40:06.468Z</time></trkpt><trkpt lat="43.58769" lon="11.6189467"><ele>308.6666666666667</ele><time>2026-03-28T09:40:07.469Z</time></trkpt><trkpt lat="43.5877383" lon="11.618855"><ele>308.33333333333337</ele><time>2026-03-28T09:40:08.469Z</time></trkpt><trkpt lat="43.58779" lon="11.6187617"><ele>308.0</ele><time>2026-03-28T09:40:09.468Z</time></trkpt><trkpt lat="43.58784" lon="11.6186683"><ele>308.0</ele><time>2026-03-28T09:40:10.469Z</time></trkpt><trkpt lat="43.58789" lon="11.6185733"><ele>308.0</ele><time>2026-03-28T09:40:11.471Z</time></trkpt><trkpt lat="43.58794" lon="11.6184717"><ele>308.0</ele><time>2026-03-28T09:40:12.471Z</time></trkpt><trkpt lat="43.58799" lon="11.6183633"><ele>308.0</ele><time>2026-03-28T09:40:13.472Z</time></trkpt><trkpt lat="43.5880367" lon="11.6182483"><ele>308.0</ele><time>2026-03-28T09:40:14.474Z</time></trkpt><trkpt lat="43.588075" lon="11.6181267"><ele>308.0</ele><time>2026-03-28T09:40:15.472Z</time></trkpt><trkpt lat="43.5881017" lon="11.6179983"><ele>308.0</ele><time>2026-03-28T09:40:16.473Z</time></trkpt><trkpt lat="43.5881167" lon="11.6178667"><ele>308.0</ele><time>2026-03-28T09:40:17.47Z</time></trkpt><trkpt lat="43.5881217" lon="11.6177317"><ele>308.0</ele><time>2026-03-28T09:40:18.471Z</time></trkpt><trkpt lat="43.5881167" lon="11.6175933"><ele>308.0</ele><time>2026-03-28T09:40:19.469Z</time></trkpt><trkpt lat="43.5881" lon="11.617455"><ele>307.6</ele><time>2026-03-28T09:40:20.469Z</time></trkpt><trkpt lat="43.588075" lon="11.617315"><ele>307.20000000000005</ele><time>2026-03-28T09:40:21.472Z</time></trkpt><trkpt lat="43.588045" lon="11.61718"><ele>306.8</ele><time>2026-03-28T09:40:22.47Z</time></trkpt><trkpt lat="43.588015" lon="11.617045"><ele>306.40000000000003</ele><time>2026-03-28T09:40:23.471Z</time></trkpt><trkpt lat="43.587985" lon="11.6169117"><ele>306.0</ele><time>2026-03-28T09:40:24.471Z</time></trkpt><trkpt lat="43.5879533" lon="11.6167733"><ele>305.6</ele><time>2026-03-28T09:40:25.471Z</time></trkpt><trkpt lat="43.58792" lon="11.6166367"><ele>305.20000000000005</ele><time>2026-03-28T09:40:26.471Z</time></trkpt><trkpt lat="43.5878867" lon="11.6165"><ele>304.79999999999995</ele><time>2026-03-28T09:40:27.469Z</time></trkpt><trkpt lat="43.5878567" lon="11.6163617"><ele>304.4</ele><time>2026-03-28T09:40:28.468Z</time></trkpt><trkpt lat="43.5878283" lon="11.6162217"><ele>304.0</ele><time>2026-03-28T09:40:29.47Z</time></trkpt><trkpt lat="43.5878067" lon="11.6160833"><ele>302.4</ele><time>2026-03-28T09:40:30.468Z</time></trkpt><trkpt lat="43.58779" lon="11.6159433"><ele>300.79999999999995</ele><time>2026-03-28T09:40:31.471Z</time></trkpt><trkpt lat="43.5877833" lon="11.6157967"><ele>299.20000000000005</ele><time>2026-03-28T09:40:32.469Z</time></trkpt><trkpt lat="43.5877833" lon="11.6156517"><ele>297.6</ele><time>2026-03-28T09:40:33.469Z</time></trkpt><trkpt lat="43.5877833" lon="11.6155067"><ele>296.0</ele><time>2026-03-28T09:40:34.47Z</time></trkpt><trkpt lat="43.587785" lon="11.61536"><ele>296.2</ele><time>2026-03-28T09:40:35.47Z</time></trkpt><trkpt lat="43.5877883" lon="11.6152117"><ele>296.40000000000003</ele><time>2026-03-28T09:40:36.469Z</time></trkpt><trkpt lat="43.5877933" lon="11.6150633"><ele>296.6</ele><time>2026-03-28T09:40:37.469Z</time></trkpt><trkpt lat="43.5877967" lon="11.614915"><ele>296.8</ele><time>2026-03-28T09:40:38.47Z</time></trkpt><trkpt lat="43.5877967" lon="11.6147633"><ele>297.0</ele><time>2026-03-28T09:40:39.47Z</time></trkpt><trkpt lat="43.5877967" lon="11.6146117"><ele>296.8</ele><time>2026-03-28T09:40:40.47Z</time></trkpt><trkpt lat="43.5877967" lon="11.6144633"><ele>296.6</ele><time>2026-03-28T09:40:41.47Z</time></trkpt><trkpt lat="43.5878017" lon="11.6143167"><ele>296.40000000000003</ele><time>2026-03-28T09:40:42.473Z</time></trkpt><trkpt lat="43.58782" lon="11.6141717"><ele>296.2</ele><time>2026-03-28T09:40:43.473Z</time></trkpt><trkpt lat="43.5878483" lon="11.6140317"><ele>296.0</ele><time>2026-03-28T09:40:44.471Z</time></trkpt><trkpt lat="43.5878867" lon="11.6138933"><ele>295.40000000000003</ele><time>2026-03-28T09:40:45.47Z</time></trkpt><trkpt lat="43.587935" lon="11.6137567"><ele>294.8</ele><time>2026-03-28T09:40:46.471Z</time></trkpt><trkpt lat="43.5879817" lon="11.6136183"><ele>294.20000000000005</ele><time>2026-03-28T09:40:47.471Z</time></trkpt><trkpt lat="43.5880233" lon="11.6134767"><ele>293.6</ele><time>2026-03-28T09:40:48.471Z</time></trkpt><trkpt lat="43.5880667" lon="11.6133367"><ele>293.0</ele><time>2026-03-28T09:40:49.469Z</time></trkpt><trkpt lat="43.5881117" lon="11.6132"><ele>293.0</ele><time>2026-03-28T09:40:50.471Z</time></trkpt><trkpt lat="43.5881717" lon="11.6130733"><ele>293.0</ele><time>2026-03-28T09:40:51.47Z</time></trkpt><trkpt lat="43.5882517" lon="11.612965"><ele>293.0</ele><time>2026-03-28T09:40:52.472Z</time></trkpt><trkpt lat="43.5883467" lon="11.6128817"><ele>293.0</ele><time>2026-03-28T09:40:53.473Z</time></trkpt><trkpt lat="43.5884517" lon="11.6128317"><ele>293.0</ele><time>2026-03-28T09:40:54.471Z</time></trkpt><trkpt lat="43.588565" lon="11.6128033"><ele>291.8</ele><time>2026-03-28T09:40:55.471Z</time></trkpt><trkpt lat="43.58868" lon="11.612785"><ele>290.6</ele><time>2026-03-28T09:40:56.471Z</time></trkpt><trkpt lat="43.5887933" lon="11.6127667"><ele>289.4</ele><time>2026-03-28T09:40:57.47Z</time></trkpt><trkpt lat="43.5888933" lon="11.612755"><ele>288.2</ele><time>2026-03-28T09:40:58.47Z</time></trkpt><trkpt lat="43.588985" lon="11.61274"><ele>287.0</ele><time>2026-03-28T09:40:59.471Z</time></trkpt><trkpt lat="43.5890683" lon="11.6127183"><ele>287.0</ele><time>2026-03-28T09:41:00.469Z</time></trkpt><trkpt lat="43.58914" lon="11.6126767"><ele>287.0</ele><time>2026-03-28T09:41:01.47Z</time></trkpt><trkpt lat="43.5892033" lon="11.6126017"><ele>287.0</ele><time>2026-03-28T09:41:02.47Z</time></trkpt><trkpt lat="43.58924" lon="11.6125033"><ele>287.0</ele><time>2026-03-28T09:41:03.468Z</time></trkpt><trkpt lat="43.589235" lon="11.6123933"><ele>287.0</ele><time>2026-03-28T09:41:04.469Z</time></trkpt><trkpt lat="43.5892033" lon="11.612285"><ele>287.0</ele><time>2026-03-28T09:41:05.47Z</time></trkpt><trkpt lat="43.5891667" lon="11.6121817"><ele>287.0</ele><time>2026-03-28T09:41:06.471Z</time></trkpt><trkpt lat="43.589125" lon="11.6120883"><ele>287.0</ele><time>2026-03-28T09:41:07.471Z</time></trkpt><trkpt lat="43.58908" lon="11.6120017"><ele>287.0</ele><time>2026-03-28T09:41:08.473Z</time></trkpt><trkpt lat="43.5890333" lon="11.6119217"><ele>287.0</ele><time>2026-03-28T09:41:09.47Z</time></trkpt><trkpt lat="43.5889833" lon="11.6118483"><ele>287.0</ele><time>2026-03-28T09:41:10.47Z</time></trkpt><trkpt lat="43.58893" lon="11.6117817"><ele>287.0</ele><time>2026-03-28T09:41:11.471Z</time></trkpt><trkpt lat="43.5888783" lon="11.6117217"><ele>287.0</ele><time>2026-03-28T09:41:12.472Z</time></trkpt><trkpt lat="43.5888233" lon="11.6116733"><ele>286.6666666666667</ele><time>2026-03-28T09:41:13.471Z</time></trkpt><trkpt lat="43.588765" lon="11.61164"><ele>286.33333333333337</ele><time>2026-03-28T09:41:14.472Z</time></trkpt><trkpt lat="43.5886417" lon="11.6115833"><ele>286.0</ele><time>2026-03-28T09:41:16.471Z</time></trkpt><trkpt lat="43.58858" lon="11.6115533"><ele>285.6666666666667</ele><time>2026-03-28T09:41:17.47Z</time></trkpt><trkpt lat="43.5885183" lon="11.6115183"><ele>285.3333333333333</ele><time>2026-03-28T09:41:18.471Z</time></trkpt><trkpt lat="43.58846" lon="11.611485"><ele>285.0</ele><time>2026-03-28T09:41:19.471Z</time></trkpt><trkpt lat="43.5884" lon="11.6114517"><ele>285.0</ele><time>2026-03-28T09:41:20.473Z</time></trkpt><trkpt lat="43.58829" lon="11.6113867"><ele>285.0</ele><time>2026-03-28T09:41:22.469Z</time></trkpt><trkpt lat="43.5881817" lon="11.611315"><ele>285.0</ele><time>2026-03-28T09:41:24.467Z</time></trkpt><trkpt lat="43.5880783" lon="11.6112283"><ele>285.0</ele><time>2026-03-28T09:41:26.47Z</time></trkpt><trkpt lat="43.5879783" lon="11.6111367"><ele>285.6</ele><time>2026-03-28T09:41:28.469Z</time></trkpt><trkpt lat="43.587925" lon="11.61109"><ele>286.2</ele><time>2026-03-28T09:41:29.47Z</time></trkpt><trkpt lat="43.5878217" lon="11.6109983"><ele>286.8</ele><time>2026-03-28T09:41:31.469Z</time></trkpt><trkpt lat="43.5877583" lon="11.6108583"><ele>287.4</ele><time>2026-03-28T09:41:33.471Z</time></trkpt><trkpt lat="43.5877417" lon="11.6106983"><ele>288.0</ele><time>2026-03-28T09:41:35.47Z</time></trkpt><trkpt lat="43.58777" lon="11.61054"><ele>288.0</ele><time>2026-03-28T09:41:37.469Z</time></trkpt><trkpt lat="43.5878317" lon="11.6103933"><ele>288.0</ele><time>2026-03-28T09:41:39.47Z</time></trkpt><trkpt lat="43.5878717" lon="11.610325"><ele>288.0</ele><time>2026-03-28T09:41:40.47Z</time></trkpt><trkpt lat="43.5879183" lon="11.6102583"><ele>288.0</ele><time>2026-03-28T09:41:41.471Z</time></trkpt><trkpt lat="43.58797" lon="11.6101933"><ele>288.0</ele><time>2026-03-28T09:41:42.471Z</time></trkpt><trkpt lat="43.58803" lon="11.6101383"><ele>288.0</ele><time>2026-03-28T09:41:43.47Z</time></trkpt><trkpt lat="43.5880917" lon="11.610085"><ele>288.1666666666667</ele><time>2026-03-28T09:41:44.472Z</time></trkpt><trkpt lat="43.5881583" lon="11.6100383"><ele>288.3333333333333</ele><time>2026-03-28T09:41:45.472Z</time></trkpt><trkpt lat="43.58823" lon="11.6099867"><ele>288.5</ele><time>2026-03-28T09:41:46.471Z</time></trkpt><trkpt lat="43.588305" lon="11.6099417"><ele>288.66666666666663</ele><time>2026-03-28T09:41:47.471Z</time></trkpt><trkpt lat="43.5883817" lon="11.6098933"><ele>288.8333333333333</ele><time>2026-03-28T09:41:48.472Z</time></trkpt><trkpt lat="43.58846" lon="11.6098467"><ele>289.0</ele><time>2026-03-28T09:41:49.473Z</time></trkpt><trkpt lat="43.588535" lon="11.6097917"><ele>289.0</ele><time>2026-03-28T09:41:50.472Z</time></trkpt><trkpt lat="43.5886017" lon="11.6097217"><ele>289.0</ele><time>2026-03-28T09:41:51.472Z</time></trkpt><trkpt lat="43.58866" lon="11.6096367"><ele>289.0</ele><time>2026-03-28T09:41:52.471Z</time></trkpt><trkpt lat="43.588705" lon="11.60954"><ele>289.0</ele><time>2026-03-28T09:41:53.472Z</time></trkpt><trkpt lat="43.588735" lon="11.6094417"><ele>289.0</ele><time>2026-03-28T09:41:54.471Z</time></trkpt><trkpt lat="43.5887567" lon="11.60934"><ele>289.0</ele><time>2026-03-28T09:41:55.472Z</time></trkpt><trkpt lat="43.5887717" lon="11.6092417"><ele>289.42857142857144</ele><time>2026-03-28T09:41:56.472Z</time></trkpt><trkpt lat="43.5887883" lon="11.6091433"><ele>289.85714285714283</ele><time>2026-03-28T09:41:57.47Z</time></trkpt><trkpt lat="43.5888" lon="11.60905"><ele>290.2857142857143</ele><time>2026-03-28T09:41:58.471Z</time></trkpt><trkpt lat="43.5888067" lon="11.6089583"><ele>290.7142857142857</ele><time>2026-03-28T09:41:59.469Z</time></trkpt><trkpt lat="43.58881" lon="11.608865"><ele>291.14285714285717</ele><time>2026-03-28T09:42:00.469Z</time></trkpt><trkpt lat="43.5888067" lon="11.608775"><ele>291.57142857142856</ele><time>2026-03-28T09:42:01.47Z</time></trkpt><trkpt lat="43.5887967" lon="11.6086867"><ele>292.0</ele><time>2026-03-28T09:42:02.47Z</time></trkpt><trkpt lat="43.5887817" lon="11.6086017"><ele>292.2</ele><time>2026-03-28T09:42:03.469Z</time></trkpt><trkpt lat="43.5887567" lon="11.6084417"><ele>292.4</ele><time>2026-03-28T09:42:05.469Z</time></trkpt><trkpt lat="43.5887367" lon="11.60829"><ele>292.6</ele><time>2026-03-28T09:42:07.469Z</time></trkpt><trkpt lat="43.5887333" lon="11.6081467"><ele>292.8</ele><time>2026-03-28T09:42:09.467Z</time></trkpt><trkpt lat="43.5887617" lon="11.60801"><ele>293.0</ele><time>2026-03-28T09:42:11.47Z</time></trkpt><trkpt lat="43.588815" lon="11.6078883"><ele>293.2</ele><time>2026-03-28T09:42:13.47Z</time></trkpt><trkpt lat="43.5888833" lon="11.6077733"><ele>293.4</ele><time>2026-03-28T09:42:15.473Z</time></trkpt><trkpt lat="43.5889367" lon="11.60766"><ele>293.59999999999997</ele><time>2026-03-28T09:42:17.471Z</time></trkpt><trkpt lat="43.588995" lon="11.6075483"><ele>293.8</ele><time>2026-03-28T09:42:19.471Z</time></trkpt><trkpt lat="43.5890617" lon="11.6074433"><ele>294.0</ele><time>2026-03-28T09:42:21.471Z</time></trkpt><trkpt lat="43.589135" lon="11.6073383"><ele>294.0</ele><time>2026-03-28T09:42:23.473Z</time></trkpt><trkpt lat="43.5892" lon="11.6072233"><ele>294.0</ele><time>2026-03-28T09:42:25.469Z</time></trkpt><trkpt lat="43.5892667" lon="11.6071"><ele>294.0</ele><time>2026-03-28T09:42:27.47Z</time></trkpt><trkpt lat="43.589335" lon="11.6069783"><ele>294.0</ele><time>2026-03-28T09:42:29.469Z</time></trkpt><trkpt lat="43.5893967" lon="11.6068583"><ele>294.0</ele><time>2026-03-28T09:42:31.471Z</time></trkpt><trkpt lat="43.589465" lon="11.6067383"><ele>294.5</ele><time>2026-03-28T09:42:33.47Z</time></trkpt><trkpt lat="43.5895467" lon="11.6066283"><ele>295.0</ele><time>2026-03-28T09:42:35.468Z</time></trkpt><trkpt lat="43.5896467" lon="11.6065467"><ele>295.5</ele><time>2026-03-28T09:42:37.473Z</time></trkpt><trkpt lat="43.5897567" lon="11.60648"><ele>296.0</ele><time>2026-03-28T09:42:39.47Z</time></trkpt><trkpt lat="43.5898767" lon="11.606435"><ele>296.0</ele><time>2026-03-28T09:42:41.469Z</time></trkpt><trkpt lat="43.5899983" lon="11.6063883"><ele>296.0</ele><time>2026-03-28T09:42:43.468Z</time></trkpt><trkpt lat="43.5900617" lon="11.6063633"><ele>296.0</ele><time>2026-03-28T09:42:44.47Z</time></trkpt><trkpt lat="43.5901267" lon="11.606345"><ele>296.0</ele><time>2026-03-28T09:42:45.472Z</time></trkpt><trkpt lat="43.5901933" lon="11.6063317"><ele>296.0</ele><time>2026-03-28T09:42:46.47Z</time></trkpt><trkpt lat="43.5902567" lon="11.6063267"><ele>296.0</ele><time>2026-03-28T09:42:47.469Z</time></trkpt><trkpt lat="43.5903217" lon="11.6063483"><ele>295.6666666666667</ele><time>2026-03-28T09:42:48.47Z</time></trkpt><trkpt lat="43.5903833" lon="11.6063817"><ele>295.33333333333337</ele><time>2026-03-28T09:42:49.472Z</time></trkpt><trkpt lat="43.5904433" lon="11.6064267"><ele>295.0</ele><time>2026-03-28T09:42:50.472Z</time></trkpt><trkpt lat="43.5905017" lon="11.6064933"><ele>294.6666666666667</ele><time>2026-03-28T09:42:51.47Z</time></trkpt><trkpt lat="43.5905567" lon="11.6065717"><ele>294.3333333333333</ele><time>2026-03-28T09:42:52.468Z</time></trkpt><trkpt lat="43.59061" lon="11.6066617"><ele>294.0</ele><time>2026-03-28T09:42:53.47Z</time></trkpt><trkpt lat="43.5906667" lon="11.606745"><ele>294.0</ele><time>2026-03-28T09:42:54.469Z</time></trkpt><trkpt lat="43.5907283" lon="11.6068233"><ele>294.0</ele><time>2026-03-28T09:42:55.472Z</time></trkpt><trkpt lat="43.590795" lon="11.60689"><ele>294.0</ele><time>2026-03-28T09:42:56.47Z</time></trkpt><trkpt lat="43.590865" lon="11.606935"><ele>294.0</ele><time>2026-03-28T09:42:57.469Z</time></trkpt><trkpt lat="43.59094" lon="11.6069667"><ele>294.0</ele><time>2026-03-28T09:42:58.47Z</time></trkpt><trkpt lat="43.591015" lon="11.60697"><ele>294.0</ele><time>2026-03-28T09:42:59.471Z</time></trkpt><trkpt lat="43.5910867" lon="11.606935"><ele>294.0</ele><time>2026-03-28T09:43:00.469Z</time></trkpt><trkpt lat="43.5911417" lon="11.60687"><ele>294.0</ele><time>2026-03-28T09:43:01.471Z</time></trkpt><trkpt lat="43.5911867" lon="11.60679"><ele>294.0</ele><time>2026-03-28T09:43:02.47Z</time></trkpt><trkpt lat="43.5912133" lon="11.6067017"><ele>294.0</ele><time>2026-03-28T09:43:03.47Z</time></trkpt><trkpt lat="43.59122" lon="11.6066067"><ele>294.0</ele><time>2026-03-28T09:43:04.47Z</time></trkpt><trkpt lat="43.5911917" lon="11.6065133"><ele>294.0</ele><time>2026-03-28T09:43:05.469Z</time></trkpt><trkpt lat="43.5911483" lon="11.6064317"><ele>294.0</ele><time>2026-03-28T09:43:06.47Z</time></trkpt><trkpt lat="43.5911083" lon="11.606345"><ele>294.0</ele><time>2026-03-28T09:43:07.471Z</time></trkpt><trkpt lat="43.5910783" lon="11.6062483"><ele>294.0</ele><time>2026-03-28T09:43:08.472Z</time></trkpt><trkpt lat="43.5910633" lon="11.6061483"><ele>294.0</ele><time>2026-03-28T09:43:09.472Z</time></trkpt><trkpt lat="43.59106" lon="11.6060467"><ele>294.0</ele><time>2026-03-28T09:43:10.473Z</time></trkpt><trkpt lat="43.5910633" lon="11.60595"><ele>294.0</ele><time>2026-03-28T09:43:11.473Z</time></trkpt><trkpt lat="43.59107" lon="11.60585"><ele>294.0</ele><time>2026-03-28T09:43:12.472Z</time></trkpt><trkpt lat="43.5910833" lon="11.6057533"><ele>294.0</ele><time>2026-03-28T09:43:13.47Z</time></trkpt><trkpt lat="43.5910967" lon="11.60566"><ele>293.6666666666667</ele><time>2026-03-28T09:43:14.47Z</time></trkpt><trkpt lat="43.5911083" lon="11.6055667"><ele>293.3333333333333</ele><time>2026-03-28T09:43:15.471Z</time></trkpt><trkpt lat="43.5911183" lon="11.605475"><ele>293.0</ele><time>2026-03-28T09:43:16.469Z</time></trkpt><trkpt lat="43.5911183" lon="11.605385"><ele>292.66666666666663</ele><time>2026-03-28T09:43:17.471Z</time></trkpt><trkpt lat="43.5911233" lon="11.6052233"><ele>292.3333333333333</ele><time>2026-03-28T09:43:19.47Z</time></trkpt><trkpt lat="43.5911483" lon="11.6050583"><ele>292.0</ele><time>2026-03-28T09:43:21.468Z</time></trkpt><trkpt lat="43.59119" lon="11.6049"><ele>292.66666666666663</ele><time>2026-03-28T09:43:23.469Z</time></trkpt><trkpt lat="43.5912233" lon="11.6048217"><ele>293.3333333333333</ele><time>2026-03-28T09:43:24.468Z</time></trkpt><trkpt lat="43.59131" lon="11.6046983"><ele>294.0</ele><time>2026-03-28T09:43:26.469Z</time></trkpt><trkpt lat="43.5914133" lon="11.604605"><ele>294.6666666666667</ele><time>2026-03-28T09:43:28.47Z</time></trkpt><trkpt lat="43.591465" lon="11.6045533"><ele>295.33333333333337</ele><time>2026-03-28T09:43:29.471Z</time></trkpt><trkpt lat="43.5915167" lon="11.6045033"><ele>296.0</ele><time>2026-03-28T09:43:30.468Z</time></trkpt><trkpt lat="43.5916167" lon="11.6044017"><ele>296.0</ele><time>2026-03-28T09:43:32.469Z</time></trkpt><trkpt lat="43.5916667" lon="11.6043483"><ele>296.0</ele><time>2026-03-28T09:43:33.468Z</time></trkpt><trkpt lat="43.59172" lon="11.604295"><ele>296.0</ele><time>2026-03-28T09:43:34.467Z</time></trkpt><trkpt lat="43.5917733" lon="11.6042417"><ele>296.0</ele><time>2026-03-28T09:43:35.468Z</time></trkpt><trkpt lat="43.5918233" lon="11.6041883"><ele>296.0</ele><time>2026-03-28T09:43:36.468Z</time></trkpt><trkpt lat="43.5918717" lon="11.6041283"><ele>296.0</ele><time>2026-03-28T09:43:37.467Z</time></trkpt><trkpt lat="43.59192" lon="11.60406"><ele>296.0</ele><time>2026-03-28T09:43:38.469Z</time></trkpt><trkpt lat="43.5919683" lon="11.6039917"><ele>296.8571428571429</ele><time>2026-03-28T09:43:39.47Z</time></trkpt><trkpt lat="43.592015" lon="11.6039233"><ele>297.7142857142857</ele><time>2026-03-28T09:43:40.469Z</time></trkpt><trkpt lat="43.5920583" lon="11.60385"><ele>298.57142857142856</ele><time>2026-03-28T09:43:41.469Z</time></trkpt><trkpt lat="43.5920983" lon="11.603775"><ele>299.42857142857144</ele><time>2026-03-28T09:43:42.469Z</time></trkpt><trkpt lat="43.5921367" lon="11.603695"><ele>300.2857142857143</ele><time>2026-03-28T09:43:43.468Z</time></trkpt><trkpt lat="43.59217" lon="11.60361"><ele>301.14285714285717</ele><time>2026-03-28T09:43:44.468Z</time></trkpt><trkpt lat="43.5922033" lon="11.603525"><ele>302.0</ele><time>2026-03-28T09:43:45.469Z</time></trkpt><trkpt lat="43.59224" lon="11.6034383"><ele>302.00000000000006</ele><time>2026-03-28T09:43:46.469Z</time></trkpt><trkpt lat="43.59227" lon="11.6033483"><ele>302.0</ele><time>2026-03-28T09:43:47.469Z</time></trkpt><trkpt lat="43.5922867" lon="11.6032517"><ele>302.0</ele><time>2026-03-28T09:43:48.469Z</time></trkpt><trkpt lat="43.592285" lon="11.6031583"><ele>302.0</ele><time>2026-03-28T09:43:49.469Z</time></trkpt><trkpt lat="43.5922633" lon="11.6030717"><ele>302.0</ele><time>2026-03-28T09:43:50.469Z</time></trkpt><trkpt lat="43.592225" lon="11.6029967"><ele>302.00000000000006</ele><time>2026-03-28T09:43:51.468Z</time></trkpt><trkpt lat="43.5921783" lon="11.6029283"><ele>302.0</ele><time>2026-03-28T09:43:52.469Z</time></trkpt><trkpt lat="43.592125" lon="11.602865"><ele>302.28571428571433</ele><time>2026-03-28T09:43:53.469Z</time></trkpt><trkpt lat="43.592075" lon="11.6027983"><ele>302.57142857142856</ele><time>2026-03-28T09:43:54.47Z</time></trkpt><trkpt lat="43.5920333" lon="11.60272"><ele>302.8571428571429</ele><time>2026-03-28T09:43:55.469Z</time></trkpt><trkpt lat="43.5920133" lon="11.6026267"><ele>303.14285714285717</ele><time>2026-03-28T09:43:56.469Z</time></trkpt><trkpt lat="43.59202" lon="11.6025283"><ele>303.42857142857144</ele><time>2026-03-28T09:43:57.469Z</time></trkpt><trkpt lat="43.59205" lon="11.6024333"><ele>303.7142857142857</ele><time>2026-03-28T09:43:58.468Z</time></trkpt><trkpt lat="43.5920967" lon="11.6023467"><ele>304.0</ele><time>2026-03-28T09:43:59.471Z</time></trkpt><trkpt lat="43.59215" lon="11.602265"><ele>304.0</ele><time>2026-03-28T09:44:00.468Z</time></trkpt><trkpt lat="43.5922067" lon="11.6021867"><ele>304.0</ele><time>2026-03-28T09:44:01.469Z</time></trkpt><trkpt lat="43.59227" lon="11.6021117"><ele>304.0</ele><time>2026-03-28T09:44:02.471Z</time></trkpt><trkpt lat="43.592335" lon="11.6020483"><ele>304.0</ele><time>2026-03-28T09:44:03.467Z</time></trkpt><trkpt lat="43.5924083" lon="11.6019933"><ele>304.0</ele><time>2026-03-28T09:44:04.469Z</time></trkpt><trkpt lat="43.5924833" lon="11.6019417"><ele>304.0</ele><time>2026-03-28T09:44:05.469Z</time></trkpt><trkpt lat="43.59255" lon="11.6018783"><ele>302.8333333333333</ele><time>2026-03-28T09:44:06.468Z</time></trkpt><trkpt lat="43.5926067" lon="11.6017967"><ele>301.66666666666663</ele><time>2026-03-28T09:44:07.469Z</time></trkpt><trkpt lat="43.5926483" lon="11.6017017"><ele>300.5</ele><time>2026-03-28T09:44:08.469Z</time></trkpt><trkpt lat="43.5926567" lon="11.601595"><ele>299.3333333333333</ele><time>2026-03-28T09:44:09.469Z</time></trkpt><trkpt lat="43.59264" lon="11.6014833"><ele>298.1666666666667</ele><time>2026-03-28T09:44:10.469Z</time></trkpt><trkpt lat="43.5926033" lon="11.6013767"><ele>297.0</ele><time>2026-03-28T09:44:11.469Z</time></trkpt><trkpt lat="43.5925483" lon="11.601285"><ele>297.0</ele><time>2026-03-28T09:44:12.468Z</time></trkpt><trkpt lat="43.5924817" lon="11.60121"><ele>297.0</ele><time>2026-03-28T09:44:13.468Z</time></trkpt><trkpt lat="43.5924183" lon="11.601135"><ele>297.0</ele><time>2026-03-28T09:44:14.469Z</time></trkpt><trkpt lat="43.592355" lon="11.601065"><ele>297.0</ele><time>2026-03-28T09:44:15.469Z</time></trkpt><trkpt lat="43.59229" lon="11.6009933"><ele>297.0</ele><time>2026-03-28T09:44:16.471Z</time></trkpt><trkpt lat="43.5922267" lon="11.6009117"><ele>297.0</ele><time>2026-03-28T09:44:17.47Z</time></trkpt><trkpt lat="43.59217" lon="11.60083"><ele>296.3333333333333</ele><time>2026-03-28T09:44:18.47Z</time></trkpt><trkpt lat="43.5921183" lon="11.600745"><ele>295.6666666666667</ele><time>2026-03-28T09:44:19.471Z</time></trkpt><trkpt lat="43.592075" lon="11.6006517"><ele>295.0</ele><time>2026-03-28T09:44:20.471Z</time></trkpt><trkpt lat="43.5920317" lon="11.6005583"><ele>294.33333333333337</ele><time>2026-03-28T09:44:21.469Z</time></trkpt><trkpt lat="43.59199" lon="11.600465"><ele>293.6666666666667</ele><time>2026-03-28T09:44:22.469Z</time></trkpt><trkpt lat="43.59195" lon="11.6003733"><ele>293.0</ele><time>2026-03-28T09:44:23.469Z</time></trkpt><trkpt lat="43.5919117" lon="11.6002767"><ele>293.0</ele><time>2026-03-28T09:44:24.469Z</time></trkpt><trkpt lat="43.5918733" lon="11.6001867"><ele>293.0</ele><time>2026-03-28T09:44:25.47Z</time></trkpt><trkpt lat="43.5918367" lon="11.6000933"><ele>293.0</ele><time>2026-03-28T09:44:26.469Z</time></trkpt><trkpt lat="43.5918" lon="11.6000017"><ele>293.0</ele><time>2026-03-28T09:44:27.469Z</time></trkpt><trkpt lat="43.5917633" lon="11.5999033"><ele>293.0</ele><time>2026-03-28T09:44:28.469Z</time></trkpt><trkpt lat="43.59173" lon="11.5998017"><ele>293.0</ele><time>2026-03-28T09:44:29.469Z</time></trkpt><trkpt lat="43.5916983" lon="11.5996933"><ele>293.0</ele><time>2026-03-28T09:44:30.468Z</time></trkpt><trkpt lat="43.5916733" lon="11.5995833"><ele>293.0</ele><time>2026-03-28T09:44:31.469Z</time></trkpt><trkpt lat="43.5916567" lon="11.59947"><ele>293.0</ele><time>2026-03-28T09:44:32.472Z</time></trkpt><trkpt lat="43.59165" lon="11.59935"><ele>293.0</ele><time>2026-03-28T09:44:33.469Z</time></trkpt><trkpt lat="43.59166" lon="11.59923"><ele>293.0</ele><time>2026-03-28T09:44:34.47Z</time></trkpt><trkpt lat="43.591685" lon="11.59911"><ele>293.0</ele><time>2026-03-28T09:44:35.472Z</time></trkpt><trkpt lat="43.5917217" lon="11.598995"><ele>293.0</ele><time>2026-03-28T09:44:36.47Z</time></trkpt><trkpt lat="43.591765" lon="11.5988867"><ele>293.0</ele><time>2026-03-28T09:44:37.472Z</time></trkpt><trkpt lat="43.5918167" lon="11.5987867"><ele>293.0</ele><time>2026-03-28T09:44:38.473Z</time></trkpt><trkpt lat="43.5918717" lon="11.5986933"><ele>293.0</ele><time>2026-03-28T09:44:39.472Z</time></trkpt><trkpt lat="43.5919317" lon="11.5986067"><ele>293.0</ele><time>2026-03-28T09:44:40.471Z</time></trkpt><trkpt lat="43.5919917" lon="11.5985167"><ele>293.0</ele><time>2026-03-28T09:44:41.47Z</time></trkpt><trkpt lat="43.5920483" lon="11.5984217"><ele>293.5</ele><time>2026-03-28T09:44:42.469Z</time></trkpt><trkpt lat="43.5920967" lon="11.59832"><ele>294.0</ele><time>2026-03-28T09:44:43.47Z</time></trkpt><trkpt lat="43.59213" lon="11.5982083"><ele>294.5</ele><time>2026-03-28T09:44:44.471Z</time></trkpt><trkpt lat="43.59215" lon="11.5980917"><ele>295.0</ele><time>2026-03-28T09:44:45.47Z</time></trkpt><trkpt lat="43.5921517" lon="11.597975"><ele>295.5</ele><time>2026-03-28T09:44:46.47Z</time></trkpt><trkpt lat="43.5921433" lon="11.5978583"><ele>296.0</ele><time>2026-03-28T09:44:47.47Z</time></trkpt><trkpt lat="43.5921333" lon="11.597745"><ele>296.0</ele><time>2026-03-28T09:44:48.471Z</time></trkpt><trkpt lat="43.5921367" lon="11.5976333"><ele>296.0</ele><time>2026-03-28T09:44:49.471Z</time></trkpt><trkpt lat="43.5921567" lon="11.5975317"><ele>296.0</ele><time>2026-03-28T09:44:50.47Z</time></trkpt><trkpt lat="43.59219" lon="11.59744"><ele>296.0</ele><time>2026-03-28T09:44:51.473Z</time></trkpt><trkpt lat="43.5922367" lon="11.5973617"><ele>296.0</ele><time>2026-03-28T09:44:52.47Z</time></trkpt><trkpt lat="43.5922883" lon="11.5972983"><ele>296.0</ele><time>2026-03-28T09:44:53.471Z</time></trkpt><trkpt lat="43.5923433" lon="11.5972433"><ele>296.0</ele><time>2026-03-28T09:44:54.472Z</time></trkpt><trkpt lat="43.5924017" lon="11.59719"><ele>296.0</ele><time>2026-03-28T09:44:55.471Z</time></trkpt><trkpt lat="43.5924583" lon="11.5971367"><ele>296.0</ele><time>2026-03-28T09:44:56.472Z</time></trkpt><trkpt lat="43.592515" lon="11.59708"><ele>296.0</ele><time>2026-03-28T09:44:57.474Z</time></trkpt><trkpt lat="43.5925683" lon="11.597025"><ele>296.0</ele><time>2026-03-28T09:44:58.472Z</time></trkpt><trkpt lat="43.59262" lon="11.59697"><ele>296.0</ele><time>2026-03-28T09:44:59.469Z</time></trkpt><trkpt lat="43.5926717" lon="11.5969167"><ele>296.0</ele><time>2026-03-28T09:45:00.469Z</time></trkpt><trkpt lat="43.5927217" lon="11.5968583"><ele>296.0</ele><time>2026-03-28T09:45:01.469Z</time></trkpt><trkpt lat="43.5927767" lon="11.5968067"><ele>296.7142857142857</ele><time>2026-03-28T09:45:02.471Z</time></trkpt><trkpt lat="43.5928317" lon="11.5967617"><ele>297.42857142857144</ele><time>2026-03-28T09:45:03.469Z</time></trkpt><trkpt lat="43.5928917" lon="11.5967233"><ele>298.1428571428571</ele><time>2026-03-28T09:45:04.469Z</time></trkpt><trkpt lat="43.592955" lon="11.5966917"><ele>298.8571428571429</ele><time>2026-03-28T09:45:05.469Z</time></trkpt><trkpt lat="43.59302" lon="11.59666"><ele>299.57142857142856</ele><time>2026-03-28T09:45:06.468Z</time></trkpt><trkpt lat="43.59308" lon="11.5966217"><ele>300.2857142857143</ele><time>2026-03-28T09:45:07.47Z</time></trkpt><trkpt lat="43.5931333" lon="11.5965633"><ele>301.0</ele><time>2026-03-28T09:45:08.469Z</time></trkpt><trkpt lat="43.5931867" lon="11.5964033"><ele>301.0</ele><time>2026-03-28T09:45:10.471Z</time></trkpt><trkpt lat="43.59315" lon="11.59624"><ele>301.0</ele><time>2026-03-28T09:45:12.471Z</time></trkpt><trkpt lat="43.5930883" lon="11.59619"><ele>301.0</ele><time>2026-03-28T09:45:13.472Z</time></trkpt><trkpt lat="43.5930217" lon="11.59616"><ele>301.0</ele><time>2026-03-28T09:45:14.471Z</time></trkpt><trkpt lat="43.5929483" lon="11.59613"><ele>301.0</ele><time>2026-03-28T09:45:15.47Z</time></trkpt><trkpt lat="43.5928783" lon="11.5960917"><ele>301.0</ele><time>2026-03-28T09:45:16.471Z</time></trkpt><trkpt lat="43.5928117" lon="11.596045"><ele>299.5</ele><time>2026-03-28T09:45:17.469Z</time></trkpt><trkpt lat="43.5927467" lon="11.5959933"><ele>298.0</ele><time>2026-03-28T09:45:18.468Z</time></trkpt><trkpt lat="43.5926817" lon="11.5959333"><ele>296.5</ele><time>2026-03-28T09:45:19.469Z</time></trkpt><trkpt lat="43.59262" lon="11.5958767"><ele>295.0</ele><time>2026-03-28T09:45:20.468Z</time></trkpt><trkpt lat="43.5925583" lon="11.5958083"><ele>293.5</ele><time>2026-03-28T09:45:21.47Z</time></trkpt><trkpt lat="43.5925033" lon="11.5957283"><ele>292.0</ele><time>2026-03-28T09:45:22.468Z</time></trkpt><trkpt lat="43.5924533" lon="11.5956483"><ele>292.0</ele><time>2026-03-28T09:45:23.468Z</time></trkpt><trkpt lat="43.5924083" lon="11.5955617"><ele>292.0</ele><time>2026-03-28T09:45:24.468Z</time></trkpt><trkpt lat="43.5923683" lon="11.59547"><ele>292.0</ele><time>2026-03-28T09:45:25.469Z</time></trkpt><trkpt lat="43.5923417" lon="11.59537"><ele>292.0</ele><time>2026-03-28T09:45:26.468Z</time></trkpt><trkpt lat="43.5923233" lon="11.5952683"><ele>292.0</ele><time>2026-03-28T09:45:27.471Z</time></trkpt><trkpt lat="43.5923167" lon="11.59517"><ele>292.0</ele><time>2026-03-28T09:45:28.472Z</time></trkpt><trkpt lat="43.59232" lon="11.5950717"><ele>292.1428571428571</ele><time>2026-03-28T09:45:29.472Z</time></trkpt><trkpt lat="43.5923317" lon="11.5949767"><ele>292.2857142857143</ele><time>2026-03-28T09:45:30.468Z</time></trkpt><trkpt lat="43.59235" lon="11.5948833"><ele>292.42857142857144</ele><time>2026-03-28T09:45:31.469Z</time></trkpt><trkpt lat="43.5923733" lon="11.59479"><ele>292.57142857142856</ele><time>2026-03-28T09:45:32.472Z</time></trkpt><trkpt lat="43.592405" lon="11.5947067"><ele>292.7142857142857</ele><time>2026-03-28T09:45:33.469Z</time></trkpt><trkpt lat="43.592445" lon="11.59463"><ele>292.85714285714283</ele><time>2026-03-28T09:45:34.469Z</time></trkpt><trkpt lat="43.5924967" lon="11.5945583"><ele>293.0</ele><time>2026-03-28T09:45:35.47Z</time></trkpt><trkpt lat="43.5925533" lon="11.5944933"><ele>293.0</ele><time>2026-03-28T09:45:36.469Z</time></trkpt><trkpt lat="43.592615" lon="11.5944333"><ele>293.0</ele><time>2026-03-28T09:45:37.469Z</time></trkpt><trkpt lat="43.5926817" lon="11.594375"><ele>293.0</ele><time>2026-03-28T09:45:38.469Z</time></trkpt><trkpt lat="43.5927517" lon="11.5943167"><ele>293.0</ele><time>2026-03-28T09:45:39.469Z</time></trkpt><trkpt lat="43.5928267" lon="11.5942583"><ele>293.0</ele><time>2026-03-28T09:45:40.469Z</time></trkpt><trkpt lat="43.5929067" lon="11.5942017"><ele>293.0</ele><time>2026-03-28T09:45:41.469Z</time></trkpt><trkpt lat="43.5929867" lon="11.5941417"><ele>292.8</ele><time>2026-03-28T09:45:42.469Z</time></trkpt><trkpt lat="43.5930667" lon="11.5940783"><ele>292.6</ele><time>2026-03-28T09:45:43.469Z</time></trkpt><trkpt lat="43.5931467" lon="11.59401"><ele>292.4</ele><time>2026-03-28T09:45:44.469Z</time></trkpt><trkpt lat="43.593225" lon="11.5939433"><ele>292.2</ele><time>2026-03-28T09:45:45.469Z</time></trkpt><trkpt lat="43.5932967" lon="11.593865"><ele>292.0</ele><time>2026-03-28T09:45:46.471Z</time></trkpt><trkpt lat="43.59336" lon="11.5937767"><ele>290.8</ele><time>2026-03-28T09:45:47.471Z</time></trkpt><trkpt lat="43.593405" lon="11.5936683"><ele>289.6</ele><time>2026-03-28T09:45:48.471Z</time></trkpt><trkpt lat="43.5934283" lon="11.5935433"><ele>288.40000000000003</ele><time>2026-03-28T09:45:49.472Z</time></trkpt><trkpt lat="43.593425" lon="11.5934033"><ele>287.2</ele><time>2026-03-28T09:45:50.473Z</time></trkpt><trkpt lat="43.593405" lon="11.5932683"><ele>286.0</ele><time>2026-03-28T09:45:51.472Z</time></trkpt><trkpt lat="43.5933783" lon="11.5931383"><ele>286.0</ele><time>2026-03-28T09:45:52.469Z</time></trkpt><trkpt lat="43.59335" lon="11.5930117"><ele>286.0</ele><time>2026-03-28T09:45:53.469Z</time></trkpt><trkpt lat="43.5933217" lon="11.5928833"><ele>286.0</ele><time>2026-03-28T09:45:54.469Z</time></trkpt><trkpt lat="43.5932917" lon="11.59276"><ele>286.0</ele><time>2026-03-28T09:45:55.469Z</time></trkpt><trkpt lat="43.5932617" lon="11.5926433"><ele>286.0</ele><time>2026-03-28T09:45:56.47Z</time></trkpt><trkpt lat="43.59323" lon="11.5925367"><ele>285.8333333333333</ele><time>2026-03-28T09:45:57.469Z</time></trkpt><trkpt lat="43.5932" lon="11.5924283"><ele>285.66666666666663</ele><time>2026-03-28T09:45:58.468Z</time></trkpt><trkpt lat="43.5931767" lon="11.59232"><ele>285.5</ele><time>2026-03-28T09:45:59.469Z</time></trkpt><trkpt lat="43.593175" lon="11.59221"><ele>285.3333333333333</ele><time>2026-03-28T09:46:00.469Z</time></trkpt><trkpt lat="43.593205" lon="11.592105"><ele>285.1666666666667</ele><time>2026-03-28T09:46:01.471Z</time></trkpt><trkpt lat="43.5932667" lon="11.59202"><ele>285.0</ele><time>2026-03-28T09:46:02.473Z</time></trkpt><trkpt lat="43.5933467" lon="11.59196"><ele>285.8</ele><time>2026-03-28T09:46:03.472Z</time></trkpt><trkpt lat="43.593435" lon="11.5919217"><ele>286.6</ele><time>2026-03-28T09:46:04.472Z</time></trkpt><trkpt lat="43.5935233" lon="11.591895"><ele>287.4</ele><time>2026-03-28T09:46:05.471Z</time></trkpt><trkpt lat="43.5936133" lon="11.5918683"><ele>288.2</ele><time>2026-03-28T09:46:06.472Z</time></trkpt><trkpt lat="43.5937017" lon="11.59183"><ele>289.0</ele><time>2026-03-28T09:46:07.471Z</time></trkpt><trkpt lat="43.593775" lon="11.5917583"><ele>289.0</ele><time>2026-03-28T09:46:08.473Z</time></trkpt><trkpt lat="43.5938233" lon="11.59165"><ele>289.0</ele><time>2026-03-28T09:46:09.471Z</time></trkpt><trkpt lat="43.59384" lon="11.591535"><ele>289.0</ele><time>2026-03-28T09:46:10.472Z</time></trkpt><trkpt lat="43.5938383" lon="11.591425"><ele>289.0</ele><time>2026-03-28T09:46:11.472Z</time></trkpt><trkpt lat="43.5938317" lon="11.5913217"><ele>289.0</ele><time>2026-03-28T09:46:12.472Z</time></trkpt><trkpt lat="43.5938333" lon="11.5912233"><ele>289.0</ele><time>2026-03-28T09:46:13.469Z</time></trkpt><trkpt lat="43.593845" lon="11.5911283"><ele>288.66666666666663</ele><time>2026-03-28T09:46:14.47Z</time></trkpt><trkpt lat="43.593865" lon="11.59104"><ele>288.3333333333333</ele><time>2026-03-28T09:46:15.474Z</time></trkpt><trkpt lat="43.5938933" lon="11.59096"><ele>288.0</ele><time>2026-03-28T09:46:16.469Z</time></trkpt><trkpt lat="43.593925" lon="11.59088"><ele>287.6666666666667</ele><time>2026-03-28T09:46:17.472Z</time></trkpt><trkpt lat="43.5939867" lon="11.5907267"><ele>287.33333333333337</ele><time>2026-03-28T09:46:19.469Z</time></trkpt><trkpt lat="43.59402" lon="11.5906517"><ele>287.0</ele><time>2026-03-28T09:46:20.469Z</time></trkpt><trkpt lat="43.5940817" lon="11.5905083"><ele>287.0</ele><time>2026-03-28T09:46:22.469Z</time></trkpt><trkpt lat="43.5941533" lon="11.5903717"><ele>287.0</ele><time>2026-03-28T09:46:24.47Z</time></trkpt><trkpt lat="43.5941917" lon="11.5903017"><ele>287.0</ele><time>2026-03-28T09:46:25.471Z</time></trkpt><trkpt lat="43.5942317" lon="11.59023"><ele>287.0</ele><time>2026-03-28T09:46:26.469Z</time></trkpt><trkpt lat="43.5942983" lon="11.5900883"><ele>287.0</ele><time>2026-03-28T09:46:28.469Z</time></trkpt><trkpt lat="43.5943317" lon="11.5900133"><ele>287.0</ele><time>2026-03-28T09:46:29.47Z</time></trkpt><trkpt lat="43.5943667" lon="11.589935"><ele>287.7142857142857</ele><time>2026-03-28T09:46:30.468Z</time></trkpt><trkpt lat="43.5943983" lon="11.5898567"><ele>288.42857142857144</ele><time>2026-03-28T09:46:31.47Z</time></trkpt><trkpt lat="43.5944317" lon="11.5897767"><ele>289.1428571428571</ele><time>2026-03-28T09:46:32.47Z</time></trkpt><trkpt lat="43.59446" lon="11.5896933"><ele>289.8571428571429</ele><time>2026-03-28T09:46:33.468Z</time></trkpt><trkpt lat="43.5944867" lon="11.589605"><ele>290.57142857142856</ele><time>2026-03-28T09:46:34.47Z</time></trkpt><trkpt lat="43.5945083" lon="11.5895167"><ele>291.2857142857143</ele><time>2026-03-28T09:46:35.469Z</time></trkpt><trkpt lat="43.5945283" lon="11.5894267"><ele>292.0</ele><time>2026-03-28T09:46:36.469Z</time></trkpt><trkpt lat="43.5945517" lon="11.589335"><ele>292.0</ele><time>2026-03-28T09:46:37.471Z</time></trkpt><trkpt lat="43.594575" lon="11.5892433"><ele>292.0</ele><time>2026-03-28T09:46:38.472Z</time></trkpt><trkpt lat="43.5945917" lon="11.58915"><ele>292.0</ele><time>2026-03-28T09:46:39.471Z</time></trkpt><trkpt lat="43.5946" lon="11.5890533"><ele>292.0</ele><time>2026-03-28T09:46:40.473Z</time></trkpt><trkpt lat="43.5945967" lon="11.5889567"><ele>292.0</ele><time>2026-03-28T09:46:41.47Z</time></trkpt><trkpt lat="43.5945817" lon="11.5888633"><ele>292.0</ele><time>2026-03-28T09:46:42.471Z</time></trkpt><trkpt lat="43.5945633" lon="11.5887717"><ele>292.0</ele><time>2026-03-28T09:46:43.471Z</time></trkpt><trkpt lat="43.594545" lon="11.5886833"><ele>292.1428571428571</ele><time>2026-03-28T09:46:44.471Z</time></trkpt><trkpt lat="43.5945267" lon="11.5885933"><ele>292.2857142857143</ele><time>2026-03-28T09:46:45.469Z</time></trkpt><trkpt lat="43.5945067" lon="11.5885017"><ele>292.42857142857144</ele><time>2026-03-28T09:46:46.469Z</time></trkpt><trkpt lat="43.594485" lon="11.5884133"><ele>292.57142857142856</ele><time>2026-03-28T09:46:47.468Z</time></trkpt><trkpt lat="43.594465" lon="11.588325"><ele>292.7142857142857</ele><time>2026-03-28T09:46:48.469Z</time></trkpt><trkpt lat="43.5944483" lon="11.5882367"><ele>292.85714285714283</ele><time>2026-03-28T09:46:49.469Z</time></trkpt><trkpt lat="43.5944367" lon="11.588145"><ele>293.0</ele><time>2026-03-28T09:46:50.471Z</time></trkpt><trkpt lat="43.5944333" lon="11.5880533"><ele>292.71428571428567</ele><time>2026-03-28T09:46:51.472Z</time></trkpt><trkpt lat="43.5944333" lon="11.587965"><ele>292.42857142857144</ele><time>2026-03-28T09:46:52.47Z</time></trkpt><trkpt lat="43.5944433" lon="11.587875"><ele>292.1428571428571</ele><time>2026-03-28T09:46:53.471Z</time></trkpt><trkpt lat="43.5944567" lon="11.587785"><ele>291.85714285714283</ele><time>2026-03-28T09:46:54.471Z</time></trkpt><trkpt lat="43.594475" lon="11.587695"><ele>291.57142857142856</ele><time>2026-03-28T09:46:55.473Z</time></trkpt><trkpt lat="43.5945" lon="11.587605"><ele>291.2857142857143</ele><time>2026-03-28T09:46:56.472Z</time></trkpt><trkpt lat="43.5945267" lon="11.58752"><ele>291.0</ele><time>2026-03-28T09:46:57.471Z</time></trkpt><trkpt lat="43.594555" lon="11.587435"><ele>291.0</ele><time>2026-03-28T09:46:58.472Z</time></trkpt><trkpt lat="43.5945867" lon="11.5873517"><ele>291.0</ele><time>2026-03-28T09:46:59.47Z</time></trkpt><trkpt lat="43.5946217" lon="11.5872717"><ele>291.0</ele><time>2026-03-28T09:47:00.472Z</time></trkpt><trkpt lat="43.5946583" lon="11.587195"><ele>291.0</ele><time>2026-03-28T09:47:01.474Z</time></trkpt><trkpt lat="43.5947033" lon="11.5871233"><ele>291.0</ele><time>2026-03-28T09:47:02.473Z</time></trkpt><trkpt lat="43.5947533" lon="11.5870617"><ele>291.0</ele><time>2026-03-28T09:47:03.471Z</time></trkpt><trkpt lat="43.5948117" lon="11.5870067"><ele>291.0</ele><time>2026-03-28T09:47:04.472Z</time></trkpt><trkpt lat="43.5948717" lon="11.5869567"><ele>289.85714285714283</ele><time>2026-03-28T09:47:05.47Z</time></trkpt><trkpt lat="43.594935" lon="11.5869133"><ele>288.71428571428567</ele><time>2026-03-28T09:47:06.472Z</time></trkpt><trkpt lat="43.595" lon="11.5868767"><ele>287.57142857142856</ele><time>2026-03-28T09:47:07.47Z</time></trkpt><trkpt lat="43.5950683" lon="11.5868483"><ele>286.42857142857144</ele><time>2026-03-28T09:47:08.472Z</time></trkpt><trkpt lat="43.59514" lon="11.58683"><ele>285.28571428571433</ele><time>2026-03-28T09:47:09.469Z</time></trkpt><trkpt lat="43.5952133" lon="11.5868267"><ele>284.14285714285717</ele><time>2026-03-28T09:47:10.469Z</time></trkpt><trkpt lat="43.5952867" lon="11.5868367"><ele>283.0</ele><time>2026-03-28T09:47:11.469Z</time></trkpt><trkpt lat="43.5953617" lon="11.586855"><ele>282.5</ele><time>2026-03-28T09:47:12.471Z</time></trkpt><trkpt lat="43.5954383" lon="11.58688"><ele>282.0</ele><time>2026-03-28T09:47:13.468Z</time></trkpt><trkpt lat="43.595515" lon="11.5869133"><ele>281.5</ele><time>2026-03-28T09:47:14.472Z</time></trkpt><trkpt lat="43.59559" lon="11.58695"><ele>281.0</ele><time>2026-03-28T09:47:15.471Z</time></trkpt><trkpt lat="43.5956667" lon="11.5869883"><ele>280.5</ele><time>2026-03-28T09:47:16.471Z</time></trkpt><trkpt lat="43.595745" lon="11.587025"><ele>280.0</ele><time>2026-03-28T09:47:17.473Z</time></trkpt><trkpt lat="43.595825" lon="11.5870633"><ele>281.5</ele><time>2026-03-28T09:47:18.471Z</time></trkpt><trkpt lat="43.5959033" lon="11.587105"><ele>283.0</ele><time>2026-03-28T09:47:19.47Z</time></trkpt><trkpt lat="43.5959817" lon="11.5871483"><ele>284.5</ele><time>2026-03-28T09:47:20.471Z</time></trkpt><trkpt lat="43.5960617" lon="11.587185"><ele>286.0</ele><time>2026-03-28T09:47:21.47Z</time></trkpt><trkpt lat="43.5961467" lon="11.5872117"><ele>287.5</ele><time>2026-03-28T09:47:22.471Z</time></trkpt><trkpt lat="43.5962333" lon="11.5872167"><ele>289.0</ele><time>2026-03-28T09:47:23.468Z</time></trkpt><trkpt lat="43.5963167" lon="11.5871933"><ele>289.0</ele><time>2026-03-28T09:47:24.468Z</time></trkpt><trkpt lat="43.5963917" lon="11.58714"><ele>289.0</ele><time>2026-03-28T09:47:25.47Z</time></trkpt><trkpt lat="43.5964567" lon="11.58707"><ele>289.0</ele><time>2026-03-28T09:47:26.469Z</time></trkpt><trkpt lat="43.5965217" lon="11.5869917"><ele>289.0</ele><time>2026-03-28T09:47:27.469Z</time></trkpt><trkpt lat="43.59658" lon="11.586915"><ele>289.0</ele><time>2026-03-28T09:47:28.47Z</time></trkpt><trkpt lat="43.5966367" lon="11.5868467"><ele>289.0</ele><time>2026-03-28T09:47:29.472Z</time></trkpt><trkpt lat="43.5966817" lon="11.586775"><ele>288.2</ele><time>2026-03-28T09:47:30.471Z</time></trkpt><trkpt lat="43.596715" lon="11.5866983"><ele>287.4</ele><time>2026-03-28T09:47:31.469Z</time></trkpt><trkpt lat="43.5967417" lon="11.5865367"><ele>286.6</ele><time>2026-03-28T09:47:33.469Z</time></trkpt><trkpt lat="43.59674" lon="11.5863767"><ele>285.8</ele><time>2026-03-28T09:47:35.471Z</time></trkpt><trkpt lat="43.5967433" lon="11.5862133"><ele>285.0</ele><time>2026-03-28T09:47:37.471Z</time></trkpt><trkpt lat="43.596775" lon="11.5860517"><ele>284.8</ele><time>2026-03-28T09:47:39.469Z</time></trkpt><trkpt lat="43.59683" lon="11.5859267"><ele>284.6</ele><time>2026-03-28T09:47:41.469Z</time></trkpt><trkpt lat="43.596905" lon="11.5858217"><ele>284.4</ele><time>2026-03-28T09:47:43.469Z</time></trkpt><trkpt lat="43.59699" lon="11.5857417"><ele>284.2</ele><time>2026-03-28T09:47:45.472Z</time></trkpt><trkpt lat="43.5970833" lon="11.5856783"><ele>284.0</ele><time>2026-03-28T09:47:47.47Z</time></trkpt><trkpt lat="43.5971783" lon="11.5856183"><ele>286.2</ele><time>2026-03-28T09:47:49.47Z</time></trkpt><trkpt lat="43.5972733" lon="11.5855683"><ele>288.4</ele><time>2026-03-28T09:47:51.473Z</time></trkpt><trkpt lat="43.5973717" lon="11.58552"><ele>290.6</ele><time>2026-03-28T09:47:53.47Z</time></trkpt><trkpt lat="43.5974617" lon="11.585475"><ele>292.8</ele><time>2026-03-28T09:47:55.47Z</time></trkpt><trkpt lat="43.597555" lon="11.5854333"><ele>295.0</ele><time>2026-03-28T09:47:57.469Z</time></trkpt><trkpt lat="43.59765" lon="11.5853967"><ele>295.0</ele><time>2026-03-28T09:47:59.468Z</time></trkpt><trkpt lat="43.5977417" lon="11.58535"><ele>295.0</ele><time>2026-03-28T09:48:01.471Z</time></trkpt><trkpt lat="43.5978317" lon="11.5852933"><ele>295.0</ele><time>2026-03-28T09:48:03.47Z</time></trkpt><trkpt lat="43.597915" lon="11.585215"><ele>295.0</ele><time>2026-03-28T09:48:05.47Z</time></trkpt><trkpt lat="43.5979717" lon="11.5850983"><ele>295.0</ele><time>2026-03-28T09:48:07.47Z</time></trkpt><trkpt lat="43.5980217" lon="11.58497"><ele>294.6</ele><time>2026-03-28T09:48:09.468Z</time></trkpt><trkpt lat="43.5980767" lon="11.5848533"><ele>294.2</ele><time>2026-03-28T09:48:11.469Z</time></trkpt><trkpt lat="43.59813" lon="11.584735"><ele>293.8</ele><time>2026-03-28T09:48:13.469Z</time></trkpt><trkpt lat="43.5981817" lon="11.5846167"><ele>293.4</ele><time>2026-03-28T09:48:15.469Z</time></trkpt><trkpt lat="43.5982417" lon="11.5845033"><ele>293.0</ele><time>2026-03-28T09:48:17.469Z</time></trkpt><trkpt lat="43.598315" lon="11.5844033"><ele>293.0</ele><time>2026-03-28T09:48:19.469Z</time></trkpt><trkpt lat="43.598415" lon="11.5843267"><ele>293.0</ele><time>2026-03-28T09:48:21.469Z</time></trkpt><trkpt lat="43.5985233" lon="11.5842883"><ele>293.0</ele><time>2026-03-28T09:48:23.469Z</time></trkpt><trkpt lat="43.5986383" lon="11.5842683"><ele>293.0</ele><time>2026-03-28T09:48:25.468Z</time></trkpt><trkpt lat="43.5987483" lon="11.584225"><ele>294.4</ele><time>2026-03-28T09:48:27.469Z</time></trkpt><trkpt lat="43.5988383" lon="11.5841367"><ele>295.8</ele><time>2026-03-28T09:48:29.469Z</time></trkpt><trkpt lat="43.5988883" lon="11.5840017"><ele>297.2</ele><time>2026-03-28T09:48:31.47Z</time></trkpt><trkpt lat="43.598885" lon="11.58385"><ele>298.6</ele><time>2026-03-28T09:48:33.469Z</time></trkpt><trkpt lat="43.5988717" lon="11.5837017"><ele>300.0</ele><time>2026-03-28T09:48:35.471Z</time></trkpt><trkpt lat="43.5988583" lon="11.5835533"><ele>300.0</ele><time>2026-03-28T09:48:37.471Z</time></trkpt><trkpt lat="43.5988483" lon="11.5833967"><ele>300.0</ele><time>2026-03-28T09:48:39.473Z</time></trkpt><trkpt lat="43.59884" lon="11.5832433"><ele>300.0</ele><time>2026-03-28T09:48:41.469Z</time></trkpt><trkpt lat="43.59884" lon="11.583085"><ele>300.0</ele><time>2026-03-28T09:48:43.469Z</time></trkpt><trkpt lat="43.5988533" lon="11.5829333"><ele>299.5</ele><time>2026-03-28T09:48:45.472Z</time></trkpt><trkpt lat="43.5988783" lon="11.5827767"><ele>299.0</ele><time>2026-03-28T09:48:47.469Z</time></trkpt><trkpt lat="43.5989067" lon="11.58261"><ele>298.5</ele><time>2026-03-28T09:48:49.471Z</time></trkpt><trkpt lat="43.5989217" lon="11.5825233"><ele>298.0</ele><time>2026-03-28T09:48:50.469Z</time></trkpt><trkpt lat="43.598935" lon="11.5824367"><ele>297.5</ele><time>2026-03-28T09:48:51.469Z</time></trkpt><trkpt lat="43.59895" lon="11.582345"><ele>297.0</ele><time>2026-03-28T09:48:52.47Z</time></trkpt><trkpt lat="43.5989667" lon="11.582255"><ele>297.0</ele><time>2026-03-28T09:48:53.471Z</time></trkpt><trkpt lat="43.5989817" lon="11.5821633"><ele>297.0</ele><time>2026-03-28T09:48:54.469Z</time></trkpt><trkpt lat="43.5989983" lon="11.5820683"><ele>297.0</ele><time>2026-03-28T09:48:55.468Z</time></trkpt><trkpt lat="43.599015" lon="11.5819717"><ele>297.0</ele><time>2026-03-28T09:48:56.469Z</time></trkpt><trkpt lat="43.5990367" lon="11.581875"><ele>297.0</ele><time>2026-03-28T09:48:57.469Z</time></trkpt><trkpt lat="43.599065" lon="11.58178"><ele>297.0</ele><time>2026-03-28T09:48:58.469Z</time></trkpt><trkpt lat="43.5991017" lon="11.5816933"><ele>297.0</ele><time>2026-03-28T09:48:59.469Z</time></trkpt><trkpt lat="43.5991517" lon="11.5816217"><ele>296.3333333333333</ele><time>2026-03-28T09:49:00.468Z</time></trkpt><trkpt lat="43.599215" lon="11.5815667"><ele>295.6666666666667</ele><time>2026-03-28T09:49:01.469Z</time></trkpt><trkpt lat="43.599285" lon="11.5815317"><ele>295.0</ele><time>2026-03-28T09:49:02.47Z</time></trkpt><trkpt lat="43.5993633" lon="11.5815167"><ele>294.33333333333337</ele><time>2026-03-28T09:49:03.469Z</time></trkpt><trkpt lat="43.5994417" lon="11.5815133"><ele>293.6666666666667</ele><time>2026-03-28T09:49:04.471Z</time></trkpt><trkpt lat="43.5995183" lon="11.5815233"><ele>293.0</ele><time>2026-03-28T09:49:05.469Z</time></trkpt><trkpt lat="43.5995917" lon="11.581545"><ele>292.1666666666667</ele><time>2026-03-28T09:49:06.469Z</time></trkpt><trkpt lat="43.5996617" lon="11.5815867"><ele>291.33333333333337</ele><time>2026-03-28T09:49:07.469Z</time></trkpt><trkpt lat="43.5997267" lon="11.5816533"><ele>290.5</ele><time>2026-03-28T09:49:08.468Z</time></trkpt><trkpt lat="43.5997867" lon="11.5817367"><ele>289.6666666666667</ele><time>2026-03-28T09:49:09.468Z</time></trkpt><trkpt lat="43.5998417" lon="11.5818283"><ele>288.8333333333333</ele><time>2026-03-28T09:49:10.469Z</time></trkpt><trkpt lat="43.5998983" lon="11.5819217"><ele>288.0</ele><time>2026-03-28T09:49:11.469Z</time></trkpt><trkpt lat="43.5999617" lon="11.5820183"><ele>290.0</ele><time>2026-03-28T09:49:12.47Z</time></trkpt><trkpt lat="43.6000317" lon="11.5821117"><ele>292.0</ele><time>2026-03-28T09:49:13.47Z</time></trkpt><trkpt lat="43.6001033" lon="11.5822017"><ele>294.0</ele><time>2026-03-28T09:49:14.47Z</time></trkpt><trkpt lat="43.60018" lon="11.5822933"><ele>296.0</ele><time>2026-03-28T09:49:15.471Z</time></trkpt><trkpt lat="43.6002567" lon="11.582385"><ele>298.0</ele><time>2026-03-28T09:49:16.469Z</time></trkpt><trkpt lat="43.6003317" lon="11.58248"><ele>297.5</ele><time>2026-03-28T09:49:17.469Z</time></trkpt><trkpt lat="43.6004033" lon="11.5825767"><ele>297.0</ele><time>2026-03-28T09:49:18.469Z</time></trkpt><trkpt lat="43.6004667" lon="11.5826667"><ele>296.5</ele><time>2026-03-28T09:49:19.471Z</time></trkpt><trkpt lat="43.6005283" lon="11.58274"><ele>296.0</ele><time>2026-03-28T09:49:20.471Z</time></trkpt><trkpt lat="43.600595" lon="11.582785"><ele>295.5</ele><time>2026-03-28T09:49:21.47Z</time></trkpt><trkpt lat="43.6006617" lon="11.5828"><ele>295.0</ele><time>2026-03-28T09:49:22.469Z</time></trkpt><trkpt lat="43.6007767" lon="11.5827033"><ele>295.0</ele><time>2026-03-28T09:49:24.47Z</time></trkpt><trkpt lat="43.6008283" lon="11.58261"><ele>295.0</ele><time>2026-03-28T09:49:25.47Z</time></trkpt><trkpt lat="43.6008617" lon="11.5825133"><ele>295.0</ele><time>2026-03-28T09:49:26.471Z</time></trkpt><trkpt lat="43.600865" lon="11.5824083"><ele>295.0</ele><time>2026-03-28T09:49:27.469Z</time></trkpt><trkpt lat="43.60085" lon="11.5823033"><ele>295.0</ele><time>2026-03-28T09:49:28.469Z</time></trkpt><trkpt lat="43.6008217" lon="11.5822067"><ele>295.0</ele><time>2026-03-28T09:49:29.469Z</time></trkpt><trkpt lat="43.6007833" lon="11.5821217"><ele>295.00000000000006</ele><time>2026-03-28T09:49:30.471Z</time></trkpt><trkpt lat="43.6007483" lon="11.5820383"><ele>295.0</ele><time>2026-03-28T09:49:31.469Z</time></trkpt><trkpt lat="43.6007167" lon="11.5819533"><ele>295.0</ele><time>2026-03-28T09:49:32.469Z</time></trkpt><trkpt lat="43.6006883" lon="11.5818717"><ele>295.0</ele><time>2026-03-28T09:49:33.469Z</time></trkpt><trkpt lat="43.6006633" lon="11.5817883"><ele>295.0</ele><time>2026-03-28T09:49:34.469Z</time></trkpt><trkpt lat="43.60064" lon="11.5817017"><ele>295.00000000000006</ele><time>2026-03-28T09:49:35.469Z</time></trkpt><trkpt lat="43.6006183" lon="11.5816083"><ele>295.0</ele><time>2026-03-28T09:49:36.469Z</time></trkpt><trkpt lat="43.6005967" lon="11.581515"><ele>295.4</ele><time>2026-03-28T09:49:37.47Z</time></trkpt><trkpt lat="43.600575" lon="11.5814283"><ele>295.8</ele><time>2026-03-28T09:49:38.472Z</time></trkpt><trkpt lat="43.6005533" lon="11.5813383"><ele>296.2</ele><time>2026-03-28T09:49:39.47Z</time></trkpt><trkpt lat="43.6005083" lon="11.58117"><ele>296.6</ele><time>2026-03-28T09:49:41.469Z</time></trkpt><trkpt lat="43.6004583" lon="11.5810167"><ele>297.0</ele><time>2026-03-28T09:49:43.47Z</time></trkpt><trkpt lat="43.600435" lon="11.5809333"><ele>297.14285714285717</ele><time>2026-03-28T09:49:44.47Z</time></trkpt><trkpt lat="43.6004133" lon="11.580845"><ele>297.28571428571433</ele><time>2026-03-28T09:49:45.469Z</time></trkpt><trkpt lat="43.6003917" lon="11.580755"><ele>297.42857142857144</ele><time>2026-03-28T09:49:46.471Z</time></trkpt><trkpt lat="43.60037" lon="11.5806683"><ele>297.57142857142856</ele><time>2026-03-28T09:49:47.471Z</time></trkpt><trkpt lat="43.6003517" lon="11.5805833"><ele>297.71428571428567</ele><time>2026-03-28T09:49:48.469Z</time></trkpt><trkpt lat="43.6003383" lon="11.5804967"><ele>297.85714285714283</ele><time>2026-03-28T09:49:49.469Z</time></trkpt><trkpt lat="43.6003317" lon="11.5804083"><ele>298.0</ele><time>2026-03-28T09:49:50.472Z</time></trkpt><trkpt lat="43.6003367" lon="11.5803167"><ele>297.66666666666663</ele><time>2026-03-28T09:49:51.47Z</time></trkpt><trkpt lat="43.6003533" lon="11.5802267"><ele>297.3333333333333</ele><time>2026-03-28T09:49:52.471Z</time></trkpt><trkpt lat="43.6003783" lon="11.5801417"><ele>297.0</ele><time>2026-03-28T09:49:53.47Z</time></trkpt><trkpt lat="43.6004083" lon="11.58006"><ele>296.6666666666667</ele><time>2026-03-28T09:49:54.47Z</time></trkpt><trkpt lat="43.6004783" lon="11.57992"><ele>296.33333333333337</ele><time>2026-03-28T09:49:56.469Z</time></trkpt><trkpt lat="43.6005167" lon="11.5798483"><ele>296.0</ele><time>2026-03-28T09:49:57.469Z</time></trkpt><trkpt lat="43.6005567" lon="11.57978"><ele>296.0</ele><time>2026-03-28T09:49:58.469Z</time></trkpt><trkpt lat="43.6006333" lon="11.5796417"><ele>296.0</ele><time>2026-03-28T09:50:00.471Z</time></trkpt><trkpt lat="43.6006733" lon="11.5795717"><ele>296.0</ele><time>2026-03-28T09:50:01.469Z</time></trkpt><trkpt lat="43.6007533" lon="11.57944"><ele>296.0</ele><time>2026-03-28T09:50:03.472Z</time></trkpt><trkpt lat="43.6008433" lon="11.5793283"><ele>296.0</ele><time>2026-03-28T09:50:05.469Z</time></trkpt><trkpt lat="43.600945" lon="11.5792433"><ele>295.75</ele><time>2026-03-28T09:50:07.469Z</time></trkpt><trkpt lat="43.6010583" lon="11.5791983"><ele>295.5</ele><time>2026-03-28T09:50:09.471Z</time></trkpt><trkpt lat="43.6011683" lon="11.5791633"><ele>295.25</ele><time>2026-03-28T09:50:11.471Z</time></trkpt><trkpt lat="43.6012833" lon="11.5791517"><ele>295.0</ele><time>2026-03-28T09:50:13.471Z</time></trkpt><trkpt lat="43.6013967" lon="11.5791733"><ele>295.4</ele><time>2026-03-28T09:50:15.471Z</time></trkpt><trkpt lat="43.6015033" lon="11.5792183"><ele>295.8</ele><time>2026-03-28T09:50:17.469Z</time></trkpt><trkpt lat="43.60162" lon="11.5792367"><ele>296.2</ele><time>2026-03-28T09:50:19.469Z</time></trkpt><trkpt lat="43.601745" lon="11.57923"><ele>296.6</ele><time>2026-03-28T09:50:21.47Z</time></trkpt><trkpt lat="43.60181" lon="11.5792133"><ele>297.0</ele><time>2026-03-28T09:50:22.469Z</time></trkpt><trkpt lat="43.6018767" lon="11.5792017"><ele>297.0</ele><time>2026-03-28T09:50:23.471Z</time></trkpt><trkpt lat="43.6019433" lon="11.57919"><ele>297.0</ele><time>2026-03-28T09:50:24.468Z</time></trkpt><trkpt lat="43.6020117" lon="11.5791717"><ele>297.0</ele><time>2026-03-28T09:50:25.469Z</time></trkpt><trkpt lat="43.60208" lon="11.5791517"><ele>297.0</ele><time>2026-03-28T09:50:26.471Z</time></trkpt><trkpt lat="43.6021483" lon="11.5791367"><ele>297.0</ele><time>2026-03-28T09:50:27.47Z</time></trkpt><trkpt lat="43.6022167" lon="11.57912"><ele>297.0</ele><time>2026-03-28T09:50:28.469Z</time></trkpt><trkpt lat="43.6022867" lon="11.5791017"><ele>297.0</ele><time>2026-03-28T09:50:29.47Z</time></trkpt><trkpt lat="43.6023567" lon="11.5790767"><ele>296.57142857142856</ele><time>2026-03-28T09:50:30.469Z</time></trkpt><trkpt lat="43.602425" lon="11.5790467"><ele>296.14285714285717</ele><time>2026-03-28T09:50:31.469Z</time></trkpt><trkpt lat="43.6024867" lon="11.5789983"><ele>295.7142857142857</ele><time>2026-03-28T09:50:32.469Z</time></trkpt><trkpt lat="43.60254" lon="11.5789283"><ele>295.2857142857143</ele><time>2026-03-28T09:50:33.469Z</time></trkpt><trkpt lat="43.602585" lon="11.5788433"><ele>294.8571428571429</ele><time>2026-03-28T09:50:34.469Z</time></trkpt><trkpt lat="43.6026383" lon="11.5787717"><ele>294.42857142857144</ele><time>2026-03-28T09:50:35.469Z</time></trkpt><trkpt lat="43.602675" lon="11.57868"><ele>294.0</ele><time>2026-03-28T09:50:36.469Z</time></trkpt><trkpt lat="43.6027167" lon="11.5785933"><ele>294.0</ele><time>2026-03-28T09:50:37.469Z</time></trkpt><trkpt lat="43.6027717" lon="11.57852"><ele>294.0</ele><time>2026-03-28T09:50:38.469Z</time></trkpt><trkpt lat="43.6028383" lon="11.5784667"><ele>294.0</ele><time>2026-03-28T09:50:39.469Z</time></trkpt><trkpt lat="43.602915" lon="11.5784283"><ele>294.0</ele><time>2026-03-28T09:50:40.469Z</time></trkpt><trkpt lat="43.6029883" lon="11.57839"><ele>294.0</ele><time>2026-03-28T09:50:41.469Z</time></trkpt><trkpt lat="43.60306" lon="11.57834"><ele>294.0</ele><time>2026-03-28T09:50:42.469Z</time></trkpt><trkpt lat="43.6031183" lon="11.5782667"><ele>294.5</ele><time>2026-03-28T09:50:43.469Z</time></trkpt><trkpt lat="43.6031567" lon="11.57817"><ele>295.0</ele><time>2026-03-28T09:50:44.47Z</time></trkpt><trkpt lat="43.6031767" lon="11.5780567"><ele>295.5</ele><time>2026-03-28T09:50:45.468Z</time></trkpt><trkpt lat="43.6031767" lon="11.5779417"><ele>296.0</ele><time>2026-03-28T09:50:46.469Z</time></trkpt><trkpt lat="43.6031683" lon="11.5778267"><ele>296.5</ele><time>2026-03-28T09:50:47.47Z</time></trkpt><trkpt lat="43.6031617" lon="11.5777117"><ele>297.0</ele><time>2026-03-28T09:50:48.469Z</time></trkpt><trkpt lat="43.60316" lon="11.577595"><ele>297.0</ele><time>2026-03-28T09:50:49.468Z</time></trkpt><trkpt lat="43.6031583" lon="11.5774783"><ele>297.0</ele><time>2026-03-28T09:50:50.47Z</time></trkpt><trkpt lat="43.603165" lon="11.5773617"><ele>297.0</ele><time>2026-03-28T09:50:51.47Z</time></trkpt><trkpt lat="43.6031867" lon="11.5772483"><ele>297.0</ele><time>2026-03-28T09:50:52.469Z</time></trkpt><trkpt lat="43.6032267" lon="11.5771417"><ele>297.0</ele><time>2026-03-28T09:50:53.469Z</time></trkpt><trkpt lat="43.6032783" lon="11.5770467"><ele>297.0</ele><time>2026-03-28T09:50:54.471Z</time></trkpt><trkpt lat="43.60334" lon="11.5769517"><ele>295.8</ele><time>2026-03-28T09:50:55.471Z</time></trkpt><trkpt lat="43.6034083" lon="11.5768633"><ele>294.6</ele><time>2026-03-28T09:50:56.471Z</time></trkpt><trkpt lat="43.6034817" lon="11.5767817"><ele>293.40000000000003</ele><time>2026-03-28T09:50:57.472Z</time></trkpt><trkpt lat="43.6035617" lon="11.5767067"><ele>292.2</ele><time>2026-03-28T09:50:58.475Z</time></trkpt><trkpt lat="43.6036517" lon="11.5766383"><ele>291.0</ele><time>2026-03-28T09:50:59.47Z</time></trkpt><trkpt lat="43.603745" lon="11.5765867"><ele>291.0</ele><time>2026-03-28T09:51:00.471Z</time></trkpt><trkpt lat="43.6038417" lon="11.5765617"><ele>291.0</ele><time>2026-03-28T09:51:01.47Z</time></trkpt><trkpt lat="43.603945" lon="11.5765717"><ele>291.0</ele><time>2026-03-28T09:51:02.469Z</time></trkpt><trkpt lat="43.604045" lon="11.576605"><ele>291.0</ele><time>2026-03-28T09:51:03.47Z</time></trkpt><trkpt lat="43.6041433" lon="11.57665"><ele>291.0</ele><time>2026-03-28T09:51:04.468Z</time></trkpt><trkpt lat="43.6042417" lon="11.57669"><ele>291.0</ele><time>2026-03-28T09:51:05.471Z</time></trkpt><trkpt lat="43.6043433" lon="11.576725"><ele>291.0</ele><time>2026-03-28T09:51:06.471Z</time></trkpt><trkpt lat="43.6044433" lon="11.576755"><ele>291.0</ele><time>2026-03-28T09:51:07.471Z</time></trkpt><trkpt lat="43.604545" lon="11.5767717"><ele>291.0</ele><time>2026-03-28T09:51:08.471Z</time></trkpt><trkpt lat="43.6046467" lon="11.5767733"><ele>291.0</ele><time>2026-03-28T09:51:09.47Z</time></trkpt><trkpt lat="43.6047433" lon="11.57675"><ele>290.8</ele><time>2026-03-28T09:51:10.469Z</time></trkpt><trkpt lat="43.6048317" lon="11.5767033"><ele>290.6</ele><time>2026-03-28T09:51:11.471Z</time></trkpt><trkpt lat="43.60491" lon="11.5766217"><ele>290.4</ele><time>2026-03-28T09:51:12.472Z</time></trkpt><trkpt lat="43.604965" lon="11.5765133"><ele>290.2</ele><time>2026-03-28T09:51:13.472Z</time></trkpt><trkpt lat="43.6050033" lon="11.5763833"><ele>290.0</ele><time>2026-03-28T09:51:14.473Z</time></trkpt><trkpt lat="43.605025" lon="11.5762483"><ele>288.6</ele><time>2026-03-28T09:51:15.472Z</time></trkpt><trkpt lat="43.6050383" lon="11.57611"><ele>287.2</ele><time>2026-03-28T09:51:16.469Z</time></trkpt><trkpt lat="43.6050483" lon="11.5759667"><ele>285.8</ele><time>2026-03-28T09:51:17.469Z</time></trkpt><trkpt lat="43.6050583" lon="11.5758233"><ele>284.4</ele><time>2026-03-28T09:51:18.471Z</time></trkpt><trkpt lat="43.6050667" lon="11.5756767"><ele>283.0</ele><time>2026-03-28T09:51:19.469Z</time></trkpt><trkpt lat="43.6050783" lon="11.5755333"><ele>283.0</ele><time>2026-03-28T09:51:20.47Z</time></trkpt><trkpt lat="43.605105" lon="11.575395"><ele>283.0</ele><time>2026-03-28T09:51:21.47Z</time></trkpt><trkpt lat="43.6051617" lon="11.5752717"><ele>283.0</ele><time>2026-03-28T09:51:22.471Z</time></trkpt><trkpt lat="43.6052433" lon="11.5751783"><ele>283.0</ele><time>2026-03-28T09:51:23.469Z</time></trkpt><trkpt lat="43.605335" lon="11.5751133"><ele>283.0</ele><time>2026-03-28T09:51:24.471Z</time></trkpt><trkpt lat="43.6054283" lon="11.5750633"><ele>283.4</ele><time>2026-03-28T09:51:25.469Z</time></trkpt><trkpt lat="43.6055217" lon="11.575015"><ele>283.8</ele><time>2026-03-28T09:51:26.47Z</time></trkpt><trkpt lat="43.60561" lon="11.5749633"><ele>284.2</ele><time>2026-03-28T09:51:27.469Z</time></trkpt><trkpt lat="43.605695" lon="11.5749017"><ele>284.6</ele><time>2026-03-28T09:51:28.468Z</time></trkpt><trkpt lat="43.6057783" lon="11.5748317"><ele>285.0</ele><time>2026-03-28T09:51:29.47Z</time></trkpt><trkpt lat="43.6058533" lon="11.5747467"><ele>285.0</ele><time>2026-03-28T09:51:30.47Z</time></trkpt><trkpt lat="43.60592" lon="11.57465"><ele>285.0</ele><time>2026-03-28T09:51:31.471Z</time></trkpt><trkpt lat="43.6059783" lon="11.574545"><ele>285.0</ele><time>2026-03-28T09:51:32.47Z</time></trkpt><trkpt lat="43.6060333" lon="11.574435"><ele>285.0</ele><time>2026-03-28T09:51:33.469Z</time></trkpt><trkpt lat="43.6060883" lon="11.574325"><ele>285.0</ele><time>2026-03-28T09:51:34.471Z</time></trkpt><trkpt lat="43.60615" lon="11.5742233"><ele>285.5</ele><time>2026-03-28T09:51:35.469Z</time></trkpt><trkpt lat="43.6062117" lon="11.5741317"><ele>286.0</ele><time>2026-03-28T09:51:36.471Z</time></trkpt><trkpt lat="43.6062767" lon="11.5740517"><ele>286.5</ele><time>2026-03-28T09:51:37.471Z</time></trkpt><trkpt lat="43.606345" lon="11.5739833"><ele>287.0</ele><time>2026-03-28T09:51:38.47Z</time></trkpt><trkpt lat="43.6064133" lon="11.5739183"><ele>287.5</ele><time>2026-03-28T09:51:39.469Z</time></trkpt><trkpt lat="43.6064767" lon="11.5738533"><ele>288.0</ele><time>2026-03-28T09:51:40.472Z</time></trkpt><trkpt lat="43.6065417" lon="11.5737867"><ele>288.0</ele><time>2026-03-28T09:51:41.469Z</time></trkpt><trkpt lat="43.6066083" lon="11.5737233"><ele>288.0</ele><time>2026-03-28T09:51:42.471Z</time></trkpt><trkpt lat="43.6066783" lon="11.5736683"><ele>288.0</ele><time>2026-03-28T09:51:43.469Z</time></trkpt><trkpt lat="43.6067533" lon="11.5736283"><ele>288.0</ele><time>2026-03-28T09:51:44.471Z</time></trkpt><trkpt lat="43.60683" lon="11.5736067"><ele>288.0</ele><time>2026-03-28T09:51:45.472Z</time></trkpt><trkpt lat="43.60691" lon="11.5736033"><ele>288.0</ele><time>2026-03-28T09:51:46.471Z</time></trkpt><trkpt lat="43.6069833" lon="11.573615"><ele>287.5714285714286</ele><time>2026-03-28T09:51:47.47Z</time></trkpt><trkpt lat="43.6070533" lon="11.57363"><ele>287.14285714285717</ele><time>2026-03-28T09:51:48.47Z</time></trkpt><trkpt lat="43.6071217" lon="11.57364"><ele>286.7142857142857</ele><time>2026-03-28T09:51:49.469Z</time></trkpt><trkpt lat="43.6071917" lon="11.5736467"><ele>286.28571428571433</ele><time>2026-03-28T09:51:50.47Z</time></trkpt><trkpt lat="43.6072567" lon="11.5736283"><ele>285.8571428571429</ele><time>2026-03-28T09:51:51.471Z</time></trkpt><trkpt lat="43.6073167" lon="11.5735883"><ele>285.42857142857144</ele><time>2026-03-28T09:51:52.472Z</time></trkpt><trkpt lat="43.60736" lon="11.5735133"><ele>285.0</ele><time>2026-03-28T09:51:53.47Z</time></trkpt><trkpt lat="43.6073833" lon="11.573425"><ele>285.0</ele><time>2026-03-28T09:51:54.471Z</time></trkpt><trkpt lat="43.6073883" lon="11.573325"><ele>285.0</ele><time>2026-03-28T09:51:55.47Z</time></trkpt><trkpt lat="43.6073783" lon="11.57323"><ele>285.0</ele><time>2026-03-28T09:51:56.473Z</time></trkpt><trkpt lat="43.6073633" lon="11.57314"><ele>285.0</ele><time>2026-03-28T09:51:57.471Z</time></trkpt><trkpt lat="43.6073483" lon="11.5730517"><ele>285.0</ele><time>2026-03-28T09:51:58.471Z</time></trkpt><trkpt lat="43.6073333" lon="11.5729667"><ele>285.0</ele><time>2026-03-28T09:51:59.469Z</time></trkpt><trkpt lat="43.6073083" lon="11.5728"><ele>285.6</ele><time>2026-03-28T09:52:01.469Z</time></trkpt><trkpt lat="43.607285" lon="11.5726467"><ele>286.2</ele><time>2026-03-28T09:52:03.468Z</time></trkpt><trkpt lat="43.6072667" lon="11.5724933"><ele>286.8</ele><time>2026-03-28T09:52:05.47Z</time></trkpt><trkpt lat="43.6072583" lon="11.572345"><ele>287.4</ele><time>2026-03-28T09:52:07.471Z</time></trkpt><trkpt lat="43.6072417" lon="11.5722083"><ele>288.0</ele><time>2026-03-28T09:52:09.469Z</time></trkpt><trkpt lat="43.6072817" lon="11.5720633"><ele>287.4</ele><time>2026-03-28T09:52:11.469Z</time></trkpt><trkpt lat="43.6073383" lon="11.57194"><ele>286.8</ele><time>2026-03-28T09:52:13.468Z</time></trkpt><trkpt lat="43.6074067" lon="11.57184"><ele>286.2</ele><time>2026-03-28T09:52:15.468Z</time></trkpt><trkpt lat="43.60748" lon="11.5717483"><ele>285.6</ele><time>2026-03-28T09:52:17.468Z</time></trkpt><trkpt lat="43.607575" lon="11.5716683"><ele>285.0</ele><time>2026-03-28T09:52:19.469Z</time></trkpt><trkpt lat="43.6076733" lon="11.5715867"><ele>285.0</ele><time>2026-03-28T09:52:21.469Z</time></trkpt><trkpt lat="43.6077817" lon="11.5715083"><ele>285.0</ele><time>2026-03-28T09:52:23.47Z</time></trkpt><trkpt lat="43.6078917" lon="11.5714383"><ele>285.0</ele><time>2026-03-28T09:52:25.47Z</time></trkpt><trkpt lat="43.6079533" lon="11.5714117"><ele>285.0</ele><time>2026-03-28T09:52:26.472Z</time></trkpt><trkpt lat="43.6080167" lon="11.571395"><ele>285.0</ele><time>2026-03-28T09:52:27.471Z</time></trkpt><trkpt lat="43.6080833" lon="11.5713833"><ele>285.0</ele><time>2026-03-28T09:52:28.468Z</time></trkpt><trkpt lat="43.60815" lon="11.5713767"><ele>285.7142857142857</ele><time>2026-03-28T09:52:29.471Z</time></trkpt><trkpt lat="43.6082167" lon="11.5713683"><ele>286.42857142857144</ele><time>2026-03-28T09:52:30.472Z</time></trkpt><trkpt lat="43.6082817" lon="11.5713617"><ele>287.14285714285717</ele><time>2026-03-28T09:52:31.468Z</time></trkpt><trkpt lat="43.60835" lon="11.5713567"><ele>287.8571428571429</ele><time>2026-03-28T09:52:32.469Z</time></trkpt><trkpt lat="43.6084167" lon="11.5713483"><ele>288.5714285714286</ele><time>2026-03-28T09:52:33.469Z</time></trkpt><trkpt lat="43.6084867" lon="11.5713417"><ele>289.2857142857143</ele><time>2026-03-28T09:52:34.469Z</time></trkpt><trkpt lat="43.608555" lon="11.57133"><ele>290.0</ele><time>2026-03-28T09:52:35.469Z</time></trkpt><trkpt lat="43.608625" lon="11.5713183"><ele>290.7142857142857</ele><time>2026-03-28T09:52:36.472Z</time></trkpt><trkpt lat="43.60869" lon="11.5713033"><ele>291.42857142857144</ele><time>2026-03-28T09:52:37.472Z</time></trkpt><trkpt lat="43.6087567" lon="11.5712967"><ele>292.14285714285717</ele><time>2026-03-28T09:52:38.471Z</time></trkpt><trkpt lat="43.6088233" lon="11.571285"><ele>292.8571428571429</ele><time>2026-03-28T09:52:39.47Z</time></trkpt><trkpt lat="43.60889" lon="11.57127"><ele>293.57142857142856</ele><time>2026-03-28T09:52:40.471Z</time></trkpt><trkpt lat="43.608955" lon="11.571255"><ele>294.28571428571433</ele><time>2026-03-28T09:52:41.469Z</time></trkpt><trkpt lat="43.60902" lon="11.5712417"><ele>295.0</ele><time>2026-03-28T09:52:42.472Z</time></trkpt><trkpt lat="43.6090833" lon="11.5712267"><ele>295.00000000000006</ele><time>2026-03-28T09:52:43.471Z</time></trkpt><trkpt lat="43.6091467" lon="11.5712117"><ele>295.0</ele><time>2026-03-28T09:52:44.471Z</time></trkpt><trkpt lat="43.60921" lon="11.5712017"><ele>295.0</ele><time>2026-03-28T09:52:45.471Z</time></trkpt><trkpt lat="43.6092733" lon="11.5711933"><ele>295.0</ele><time>2026-03-28T09:52:46.471Z</time></trkpt><trkpt lat="43.6093367" lon="11.5711833"><ele>295.0</ele><time>2026-03-28T09:52:47.467Z</time></trkpt><trkpt lat="43.60946" lon="11.571155"><ele>295.00000000000006</ele><time>2026-03-28T09:52:49.469Z</time></trkpt><trkpt lat="43.6095233" lon="11.5711383"><ele>295.0</ele><time>2026-03-28T09:52:50.47Z</time></trkpt><trkpt lat="43.609645" lon="11.5711167"><ele>294.4</ele><time>2026-03-28T09:52:52.469Z</time></trkpt><trkpt lat="43.609765" lon="11.5710817"><ele>293.8</ele><time>2026-03-28T09:52:54.467Z</time></trkpt><trkpt lat="43.6098883" lon="11.5710517"><ele>293.2</ele><time>2026-03-28T09:52:56.47Z</time></trkpt><trkpt lat="43.6099517" lon="11.5710433"><ele>292.6</ele><time>2026-03-28T09:52:57.47Z</time></trkpt><trkpt lat="43.6100733" lon="11.5710317"><ele>292.0</ele><time>2026-03-28T09:52:59.469Z</time></trkpt><trkpt lat="43.6101367" lon="11.57103"><ele>292.0</ele><time>2026-03-28T09:53:00.472Z</time></trkpt><trkpt lat="43.6102" lon="11.5710333"><ele>292.0</ele><time>2026-03-28T09:53:01.471Z</time></trkpt><trkpt lat="43.610325" lon="11.571055"><ele>292.0</ele><time>2026-03-28T09:53:03.472Z</time></trkpt><trkpt lat="43.6103867" lon="11.5710767"><ele>292.0</ele><time>2026-03-28T09:53:04.471Z</time></trkpt><trkpt lat="43.6104467" lon="11.57111"><ele>292.0</ele><time>2026-03-28T09:53:05.471Z</time></trkpt><trkpt lat="43.6105033" lon="11.5711583"><ele>292.0</ele><time>2026-03-28T09:53:06.47Z</time></trkpt><trkpt lat="43.6105517" lon="11.5712167"><ele>292.0</ele><time>2026-03-28T09:53:07.469Z</time></trkpt><trkpt lat="43.6105883" lon="11.5712933"><ele>292.1428571428571</ele><time>2026-03-28T09:53:08.468Z</time></trkpt><trkpt lat="43.610615" lon="11.5713767"><ele>292.2857142857143</ele><time>2026-03-28T09:53:09.467Z</time></trkpt><trkpt lat="43.6106383" lon="11.5714667"><ele>292.42857142857144</ele><time>2026-03-28T09:53:10.468Z</time></trkpt><trkpt lat="43.6106633" lon="11.57156"><ele>292.57142857142856</ele><time>2026-03-28T09:53:11.468Z</time></trkpt><trkpt lat="43.6106867" lon="11.5716517"><ele>292.7142857142857</ele><time>2026-03-28T09:53:12.469Z</time></trkpt><trkpt lat="43.61071" lon="11.57174"><ele>292.85714285714283</ele><time>2026-03-28T09:53:13.468Z</time></trkpt><trkpt lat="43.6107333" lon="11.5718317"><ele>293.0</ele><time>2026-03-28T09:53:14.469Z</time></trkpt><trkpt lat="43.6107567" lon="11.5719217"><ele>292.99999999999994</ele><time>2026-03-28T09:53:15.467Z</time></trkpt><trkpt lat="43.61078" lon="11.5720117"><ele>293.0</ele><time>2026-03-28T09:53:16.468Z</time></trkpt><trkpt lat="43.610805" lon="11.5721017"><ele>293.0</ele><time>2026-03-28T09:53:17.469Z</time></trkpt><trkpt lat="43.6108317" lon="11.57219"><ele>293.0</ele><time>2026-03-28T09:53:18.469Z</time></trkpt><trkpt lat="43.6108567" lon="11.5722817"><ele>293.0</ele><time>2026-03-28T09:53:19.469Z</time></trkpt><trkpt lat="43.61088" lon="11.572375"><ele>292.99999999999994</ele><time>2026-03-28T09:53:20.469Z</time></trkpt><trkpt lat="43.610905" lon="11.5724683"><ele>293.0</ele><time>2026-03-28T09:53:21.469Z</time></trkpt><trkpt lat="43.61093" lon="11.5725583"><ele>293.85714285714283</ele><time>2026-03-28T09:53:22.47Z</time></trkpt><trkpt lat="43.6109517" lon="11.5726517"><ele>294.7142857142857</ele><time>2026-03-28T09:53:23.469Z</time></trkpt><trkpt lat="43.6109717" lon="11.5727467"><ele>295.57142857142856</ele><time>2026-03-28T09:53:24.469Z</time></trkpt><trkpt lat="43.6109983" lon="11.57284"><ele>296.42857142857144</ele><time>2026-03-28T09:53:25.467Z</time></trkpt><trkpt lat="43.6110233" lon="11.57293"><ele>297.2857142857143</ele><time>2026-03-28T09:53:26.469Z</time></trkpt><trkpt lat="43.6110533" lon="11.573015"><ele>298.1428571428571</ele><time>2026-03-28T09:53:27.469Z</time></trkpt><trkpt lat="43.61109" lon="11.57309"><ele>299.0</ele><time>2026-03-28T09:53:28.468Z</time></trkpt><trkpt lat="43.6111367" lon="11.5731533"><ele>299.1666666666667</ele><time>2026-03-28T09:53:29.469Z</time></trkpt><trkpt lat="43.6112567" lon="11.5731933"><ele>299.33333333333337</ele><time>2026-03-28T09:53:31.469Z</time></trkpt><trkpt lat="43.61132" lon="11.5731567"><ele>299.5</ele><time>2026-03-28T09:53:32.47Z</time></trkpt><trkpt lat="43.6113733" lon="11.5730933"><ele>299.6666666666667</ele><time>2026-03-28T09:53:33.469Z</time></trkpt><trkpt lat="43.6114133" lon="11.5729983"><ele>299.8333333333333</ele><time>2026-03-28T09:53:34.469Z</time></trkpt><trkpt lat="43.61145" lon="11.5729083"><ele>300.0</ele><time>2026-03-28T09:53:35.468Z</time></trkpt><trkpt lat="43.611485" lon="11.5728167"><ele>300.0</ele><time>2026-03-28T09:53:36.471Z</time></trkpt><trkpt lat="43.6115083" lon="11.5727167"><ele>300.0</ele><time>2026-03-28T09:53:37.468Z</time></trkpt><trkpt lat="43.6115217" lon="11.57262"><ele>300.0</ele><time>2026-03-28T09:53:38.469Z</time></trkpt><trkpt lat="43.61153" lon="11.572525"><ele>300.0</ele><time>2026-03-28T09:53:39.468Z</time></trkpt><trkpt lat="43.611535" lon="11.57243"><ele>300.0</ele><time>2026-03-28T09:53:40.468Z</time></trkpt><trkpt lat="43.6115383" lon="11.5723417"><ele>300.0</ele><time>2026-03-28T09:53:41.469Z</time></trkpt><trkpt lat="43.6115417" lon="11.5721717"><ele>300.0</ele><time>2026-03-28T09:53:43.468Z</time></trkpt><trkpt lat="43.6115483" lon="11.572085"><ele>300.0</ele><time>2026-03-28T09:53:44.47Z</time></trkpt><trkpt lat="43.61156" lon="11.5719217"><ele>300.0</ele><time>2026-03-28T09:53:46.469Z</time></trkpt><trkpt lat="43.6115683" lon="11.57176"><ele>300.0</ele><time>2026-03-28T09:53:48.47Z</time></trkpt><trkpt lat="43.6115817" lon="11.5715917"><ele>300.0</ele><time>2026-03-28T09:53:50.471Z</time></trkpt><trkpt lat="43.6115883" lon="11.571505"><ele>299.5</ele><time>2026-03-28T09:53:51.469Z</time></trkpt><trkpt lat="43.611605" lon="11.57134"><ele>299.0</ele><time>2026-03-28T09:53:53.469Z</time></trkpt><trkpt lat="43.61162" lon="11.5711733"><ele>298.5</ele><time>2026-03-28T09:53:55.469Z</time></trkpt><trkpt lat="43.6116683" lon="11.57102"><ele>298.0</ele><time>2026-03-28T09:53:57.468Z</time></trkpt><trkpt lat="43.6117433" lon="11.5708867"><ele>297.5</ele><time>2026-03-28T09:53:59.469Z</time></trkpt><trkpt lat="43.611835" lon="11.5707717"><ele>297.0</ele><time>2026-03-28T09:54:01.469Z</time></trkpt><trkpt lat="43.6118933" lon="11.5707317"><ele>296.5</ele><time>2026-03-28T09:54:02.471Z</time></trkpt><trkpt lat="43.611955" lon="11.570705"><ele>296.0</ele><time>2026-03-28T09:54:03.468Z</time></trkpt><trkpt lat="43.61202" lon="11.5706867"><ele>295.5</ele><time>2026-03-28T09:54:04.469Z</time></trkpt><trkpt lat="43.6120867" lon="11.5706733"><ele>295.0</ele><time>2026-03-28T09:54:05.469Z</time></trkpt><trkpt lat="43.6121567" lon="11.5706667"><ele>295.8571428571429</ele><time>2026-03-28T09:54:06.471Z</time></trkpt><trkpt lat="43.6122267" lon="11.5706567"><ele>296.7142857142857</ele><time>2026-03-28T09:54:07.469Z</time></trkpt><trkpt lat="43.612295" lon="11.57064"><ele>297.57142857142856</ele><time>2026-03-28T09:54:08.469Z</time></trkpt><trkpt lat="43.6123617" lon="11.5706133"><ele>298.42857142857144</ele><time>2026-03-28T09:54:09.47Z</time></trkpt><trkpt lat="43.6124233" lon="11.5705683"><ele>299.2857142857143</ele><time>2026-03-28T09:54:10.471Z</time></trkpt><trkpt lat="43.61248" lon="11.5705033"><ele>300.14285714285717</ele><time>2026-03-28T09:54:11.469Z</time></trkpt><trkpt lat="43.61253" lon="11.5704333"><ele>301.0</ele><time>2026-03-28T09:54:12.469Z</time></trkpt><trkpt lat="43.6125783" lon="11.5703583"><ele>301.66666666666663</ele><time>2026-03-28T09:54:13.469Z</time></trkpt><trkpt lat="43.6126233" lon="11.570275"><ele>302.3333333333333</ele><time>2026-03-28T09:54:14.469Z</time></trkpt><trkpt lat="43.61267" lon="11.57019"><ele>303.0</ele><time>2026-03-28T09:54:15.469Z</time></trkpt><trkpt lat="43.6127133" lon="11.57011"><ele>303.6666666666667</ele><time>2026-03-28T09:54:16.469Z</time></trkpt><trkpt lat="43.61276" lon="11.5700283"><ele>304.33333333333337</ele><time>2026-03-28T09:54:17.469Z</time></trkpt><trkpt lat="43.6128033" lon="11.569945"><ele>305.0</ele><time>2026-03-28T09:54:18.469Z</time></trkpt><trkpt lat="43.61285" lon="11.56986"><ele>305.0</ele><time>2026-03-28T09:54:19.468Z</time></trkpt><trkpt lat="43.6129033" lon="11.5697833"><ele>305.0</ele><time>2026-03-28T09:54:20.47Z</time></trkpt><trkpt lat="43.6129683" lon="11.569715"><ele>305.0</ele><time>2026-03-28T09:54:21.469Z</time></trkpt><trkpt lat="43.6130367" lon="11.569655"><ele>305.0</ele><time>2026-03-28T09:54:22.469Z</time></trkpt><trkpt lat="43.613105" lon="11.5695983"><ele>305.0</ele><time>2026-03-28T09:54:23.468Z</time></trkpt><trkpt lat="43.6131783" lon="11.5695433"><ele>305.0</ele><time>2026-03-28T09:54:24.471Z</time></trkpt><trkpt lat="43.6132533" lon="11.5694883"><ele>304.0</ele><time>2026-03-28T09:54:25.469Z</time></trkpt><trkpt lat="43.61333" lon="11.5694333"><ele>303.0</ele><time>2026-03-28T09:54:26.469Z</time></trkpt><trkpt lat="43.6134083" lon="11.56938"><ele>302.0</ele><time>2026-03-28T09:54:27.469Z</time></trkpt><trkpt lat="43.6134867" lon="11.5693267"><ele>301.0</ele><time>2026-03-28T09:54:28.468Z</time></trkpt><trkpt lat="43.6135633" lon="11.5692733"><ele>300.0</ele><time>2026-03-28T09:54:29.471Z</time></trkpt><trkpt lat="43.6136383" lon="11.5692233"><ele>299.0</ele><time>2026-03-28T09:54:30.469Z</time></trkpt><trkpt lat="43.613715" lon="11.56917"><ele>299.0</ele><time>2026-03-28T09:54:31.468Z</time></trkpt><trkpt lat="43.6137917" lon="11.5691167"><ele>299.0</ele><time>2026-03-28T09:54:32.469Z</time></trkpt><trkpt lat="43.6138667" lon="11.5690617"><ele>299.0</ele><time>2026-03-28T09:54:33.468Z</time></trkpt><trkpt lat="43.61394" lon="11.5690017"><ele>299.0</ele><time>2026-03-28T09:54:34.469Z</time></trkpt><trkpt lat="43.6140183" lon="11.5689483"><ele>299.0</ele><time>2026-03-28T09:54:35.473Z</time></trkpt><trkpt lat="43.6140917" lon="11.5689033"><ele>299.0</ele><time>2026-03-28T09:54:36.472Z</time></trkpt><trkpt lat="43.61417" lon="11.568865"><ele>299.0</ele><time>2026-03-28T09:54:37.469Z</time></trkpt><trkpt lat="43.6142533" lon="11.5688367"><ele>299.0</ele><time>2026-03-28T09:54:38.469Z</time></trkpt><trkpt lat="43.6143383" lon="11.5688233"><ele>299.0</ele><time>2026-03-28T09:54:39.469Z</time></trkpt><trkpt lat="43.6144217" lon="11.56883"><ele>299.0</ele><time>2026-03-28T09:54:40.469Z</time></trkpt><trkpt lat="43.6145" lon="11.5688633"><ele>299.0</ele><time>2026-03-28T09:54:41.47Z</time></trkpt><trkpt lat="43.6145667" lon="11.56893"><ele>299.0</ele><time>2026-03-28T09:54:42.471Z</time></trkpt><trkpt lat="43.6146183" lon="11.5690183"><ele>298.5</ele><time>2026-03-28T09:54:43.47Z</time></trkpt><trkpt lat="43.6146617" lon="11.5691233"><ele>298.0</ele><time>2026-03-28T09:54:44.471Z</time></trkpt><trkpt lat="43.6147033" lon="11.5692217"><ele>297.5</ele><time>2026-03-28T09:54:45.469Z</time></trkpt><trkpt lat="43.6147517" lon="11.5693033"><ele>297.0</ele><time>2026-03-28T09:54:46.47Z</time></trkpt><trkpt lat="43.6148133" lon="11.5693567"><ele>296.5</ele><time>2026-03-28T09:54:47.472Z</time></trkpt><trkpt lat="43.6148867" lon="11.5693733"><ele>296.0</ele><time>2026-03-28T09:54:48.47Z</time></trkpt><trkpt lat="43.6149583" lon="11.56935"><ele>296.0</ele><time>2026-03-28T09:54:49.47Z</time></trkpt><trkpt lat="43.615015" lon="11.56927"><ele>296.0</ele><time>2026-03-28T09:54:50.47Z</time></trkpt><trkpt lat="43.6150583" lon="11.569165"><ele>296.0</ele><time>2026-03-28T09:54:51.469Z</time></trkpt><trkpt lat="43.6150817" lon="11.56905"><ele>296.0</ele><time>2026-03-28T09:54:52.469Z</time></trkpt><trkpt lat="43.6150967" lon="11.56893"><ele>296.0</ele><time>2026-03-28T09:54:53.469Z</time></trkpt><trkpt lat="43.6151067" lon="11.5688083"><ele>296.0</ele><time>2026-03-28T09:54:54.47Z</time></trkpt><trkpt lat="43.615115" lon="11.5686867"><ele>295.8</ele><time>2026-03-28T09:54:55.469Z</time></trkpt><trkpt lat="43.6151267" lon="11.5685617"><ele>295.6</ele><time>2026-03-28T09:54:56.469Z</time></trkpt><trkpt lat="43.6151367" lon="11.5684367"><ele>295.4</ele><time>2026-03-28T09:54:57.467Z</time></trkpt><trkpt lat="43.61514" lon="11.56831"><ele>295.2</ele><time>2026-03-28T09:54:58.469Z</time></trkpt><trkpt lat="43.61514" lon="11.5681767"><ele>295.0</ele><time>2026-03-28T09:54:59.471Z</time></trkpt><trkpt lat="43.6151433" lon="11.5680417"><ele>295.0</ele><time>2026-03-28T09:55:00.469Z</time></trkpt><trkpt lat="43.6151417" lon="11.5679067"><ele>295.0</ele><time>2026-03-28T09:55:01.469Z</time></trkpt><trkpt lat="43.61514" lon="11.5677767"><ele>295.0</ele><time>2026-03-28T09:55:02.47Z</time></trkpt><trkpt lat="43.615145" lon="11.5676467"><ele>295.0</ele><time>2026-03-28T09:55:03.468Z</time></trkpt><trkpt lat="43.6151583" lon="11.5675183"><ele>295.0</ele><time>2026-03-28T09:55:04.469Z</time></trkpt><trkpt lat="43.6151833" lon="11.5673933"><ele>295.2</ele><time>2026-03-28T09:55:05.469Z</time></trkpt><trkpt lat="43.6152133" lon="11.5672683"><ele>295.4</ele><time>2026-03-28T09:55:06.467Z</time></trkpt><trkpt lat="43.615245" lon="11.5671467"><ele>295.6</ele><time>2026-03-28T09:55:07.468Z</time></trkpt><trkpt lat="43.6152817" lon="11.567025"><ele>295.8</ele><time>2026-03-28T09:55:08.469Z</time></trkpt><trkpt lat="43.61532" lon="11.5669017"><ele>296.0</ele><time>2026-03-28T09:55:09.468Z</time></trkpt><trkpt lat="43.615355" lon="11.5667733"><ele>296.0</ele><time>2026-03-28T09:55:10.471Z</time></trkpt><trkpt lat="43.615385" lon="11.5666467"><ele>296.0</ele><time>2026-03-28T09:55:11.469Z</time></trkpt><trkpt lat="43.6154167" lon="11.5665167"><ele>296.0</ele><time>2026-03-28T09:55:12.469Z</time></trkpt><trkpt lat="43.615445" lon="11.56639"><ele>296.0</ele><time>2026-03-28T09:55:13.469Z</time></trkpt><trkpt lat="43.6154817" lon="11.5662667"><ele>296.0</ele><time>2026-03-28T09:55:14.468Z</time></trkpt><trkpt lat="43.6155367" lon="11.5661533"><ele>293.40000000000003</ele><time>2026-03-28T09:55:15.469Z</time></trkpt><trkpt lat="43.6156033" lon="11.5660467"><ele>290.8</ele><time>2026-03-28T09:55:16.469Z</time></trkpt><trkpt lat="43.6156833" lon="11.5659567"><ele>288.20000000000005</ele><time>2026-03-28T09:55:17.469Z</time></trkpt><trkpt lat="43.6157733" lon="11.5658833"><ele>285.6</ele><time>2026-03-28T09:55:18.47Z</time></trkpt><trkpt lat="43.61587" lon="11.565835"><ele>283.0</ele><time>2026-03-28T09:55:19.469Z</time></trkpt><trkpt lat="43.6159717" lon="11.5658017"><ele>283.0</ele><time>2026-03-28T09:55:20.469Z</time></trkpt><trkpt lat="43.616075" lon="11.5657767"><ele>283.0</ele><time>2026-03-28T09:55:21.468Z</time></trkpt><trkpt lat="43.6161817" lon="11.56576"><ele>283.0</ele><time>2026-03-28T09:55:22.469Z</time></trkpt><trkpt lat="43.6162867" lon="11.5657417"><ele>283.0</ele><time>2026-03-28T09:55:23.467Z</time></trkpt><trkpt lat="43.6163933" lon="11.5657333"><ele>283.0</ele><time>2026-03-28T09:55:24.469Z</time></trkpt><trkpt lat="43.6165" lon="11.5657283"><ele>283.4</ele><time>2026-03-28T09:55:25.469Z</time></trkpt><trkpt lat="43.6166083" lon="11.5657183"><ele>283.8</ele><time>2026-03-28T09:55:26.469Z</time></trkpt><trkpt lat="43.616715" lon="11.565705"><ele>284.2</ele><time>2026-03-28T09:55:27.468Z</time></trkpt><trkpt lat="43.6168217" lon="11.5656783"><ele>284.6</ele><time>2026-03-28T09:55:28.47Z</time></trkpt><trkpt lat="43.6169217" lon="11.565625"><ele>285.0</ele><time>2026-03-28T09:55:29.471Z</time></trkpt><trkpt lat="43.6170083" lon="11.565535"><ele>285.4</ele><time>2026-03-28T09:55:30.469Z</time></trkpt><trkpt lat="43.617075" lon="11.5654183"><ele>285.8</ele><time>2026-03-28T09:55:31.471Z</time></trkpt><trkpt lat="43.6171283" lon="11.565295"><ele>286.2</ele><time>2026-03-28T09:55:32.469Z</time></trkpt><trkpt lat="43.61717" lon="11.5651683"><ele>286.6</ele><time>2026-03-28T09:55:33.469Z</time></trkpt><trkpt lat="43.6172" lon="11.5650433"><ele>287.0</ele><time>2026-03-28T09:55:34.47Z</time></trkpt><trkpt lat="43.6172283" lon="11.56492"><ele>287.0</ele><time>2026-03-28T09:55:35.469Z</time></trkpt><trkpt lat="43.617255" lon="11.5648033"><ele>287.0</ele><time>2026-03-28T09:55:36.469Z</time></trkpt><trkpt lat="43.6172833" lon="11.5646933"><ele>287.0</ele><time>2026-03-28T09:55:37.468Z</time></trkpt><trkpt lat="43.6173217" lon="11.56459"><ele>287.0</ele><time>2026-03-28T09:55:38.469Z</time></trkpt><trkpt lat="43.6173733" lon="11.564495"><ele>287.0</ele><time>2026-03-28T09:55:39.469Z</time></trkpt><trkpt lat="43.6174333" lon="11.5644117"><ele>287.0</ele><time>2026-03-28T09:55:40.469Z</time></trkpt><trkpt lat="43.6175" lon="11.5643367"><ele>286.4</ele><time>2026-03-28T09:55:41.469Z</time></trkpt><trkpt lat="43.6175733" lon="11.564265"><ele>285.79999999999995</ele><time>2026-03-28T09:55:42.469Z</time></trkpt><trkpt lat="43.61765" lon="11.5641967"><ele>285.2</ele><time>2026-03-28T09:55:43.469Z</time></trkpt><trkpt lat="43.6177317" lon="11.564135"><ele>284.59999999999997</ele><time>2026-03-28T09:55:44.471Z</time></trkpt><trkpt lat="43.61782" lon="11.5640833"><ele>284.0</ele><time>2026-03-28T09:55:45.467Z</time></trkpt><trkpt lat="43.6179217" lon="11.564045"><ele>284.0</ele><time>2026-03-28T09:55:46.469Z</time></trkpt><trkpt lat="43.6180283" lon="11.5640217"><ele>284.0</ele><time>2026-03-28T09:55:47.468Z</time></trkpt><trkpt lat="43.618135" lon="11.5640017"><ele>284.0</ele><time>2026-03-28T09:55:48.47Z</time></trkpt><trkpt lat="43.6182417" lon="11.5639883"><ele>284.0</ele><time>2026-03-28T09:55:49.469Z</time></trkpt><trkpt lat="43.61835" lon="11.5639683"><ele>284.0</ele><time>2026-03-28T09:55:50.469Z</time></trkpt><trkpt lat="43.618455" lon="11.5639233"><ele>284.0</ele><time>2026-03-28T09:55:51.471Z</time></trkpt><trkpt lat="43.6185517" lon="11.563855"><ele>284.0</ele><time>2026-03-28T09:55:52.469Z</time></trkpt><trkpt lat="43.61864" lon="11.5637633"><ele>284.0</ele><time>2026-03-28T09:55:53.469Z</time></trkpt><trkpt lat="43.6187267" lon="11.5636617"><ele>284.0</ele><time>2026-03-28T09:55:54.469Z</time></trkpt><trkpt lat="43.61881" lon="11.5635583"><ele>284.0</ele><time>2026-03-28T09:55:55.469Z</time></trkpt><trkpt lat="43.6189" lon="11.56347"><ele>282.59999999999997</ele><time>2026-03-28T09:55:56.472Z</time></trkpt><trkpt lat="43.618995" lon="11.563405"><ele>281.2</ele><time>2026-03-28T09:55:57.472Z</time></trkpt><trkpt lat="43.619095" lon="11.56336"><ele>279.79999999999995</ele><time>2026-03-28T09:55:58.472Z</time></trkpt><trkpt lat="43.6192017" lon="11.56333"><ele>278.4</ele><time>2026-03-28T09:55:59.469Z</time></trkpt><trkpt lat="43.6193067" lon="11.5633067"><ele>277.0</ele><time>2026-03-28T09:56:00.469Z</time></trkpt><trkpt lat="43.6194083" lon="11.563275"><ele>278.0</ele><time>2026-03-28T09:56:01.469Z</time></trkpt><trkpt lat="43.619505" lon="11.563235"><ele>279.0</ele><time>2026-03-28T09:56:02.469Z</time></trkpt><trkpt lat="43.6196" lon="11.563195"><ele>280.0</ele><time>2026-03-28T09:56:03.469Z</time></trkpt><trkpt lat="43.6196883" lon="11.5631483"><ele>281.0</ele><time>2026-03-28T09:56:04.469Z</time></trkpt><trkpt lat="43.619775" lon="11.563095"><ele>282.0</ele><time>2026-03-28T09:56:05.469Z</time></trkpt><trkpt lat="43.6198517" lon="11.5630233"><ele>282.0</ele><time>2026-03-28T09:56:06.468Z</time></trkpt><trkpt lat="43.6199217" lon="11.562935"><ele>282.0</ele><time>2026-03-28T09:56:07.468Z</time></trkpt><trkpt lat="43.61998" lon="11.5628367"><ele>282.0</ele><time>2026-03-28T09:56:08.469Z</time></trkpt><trkpt lat="43.6200317" lon="11.5627367"><ele>282.0</ele><time>2026-03-28T09:56:09.469Z</time></trkpt><trkpt lat="43.62008" lon="11.562635"><ele>282.0</ele><time>2026-03-28T09:56:10.469Z</time></trkpt><trkpt lat="43.6201233" lon="11.562535"><ele>282.0</ele><time>2026-03-28T09:56:11.471Z</time></trkpt><trkpt lat="43.6201667" lon="11.56244"><ele>281.57142857142856</ele><time>2026-03-28T09:56:12.471Z</time></trkpt><trkpt lat="43.6202067" lon="11.5623483"><ele>281.1428571428571</ele><time>2026-03-28T09:56:13.473Z</time></trkpt><trkpt lat="43.620245" lon="11.56226"><ele>280.71428571428567</ele><time>2026-03-28T09:56:14.47Z</time></trkpt><trkpt lat="43.62028" lon="11.5621717"><ele>280.2857142857143</ele><time>2026-03-28T09:56:15.47Z</time></trkpt><trkpt lat="43.6203133" lon="11.562085"><ele>279.85714285714283</ele><time>2026-03-28T09:56:16.471Z</time></trkpt><trkpt lat="43.6203483" lon="11.5619983"><ele>279.4285714285714</ele><time>2026-03-28T09:56:17.471Z</time></trkpt><trkpt lat="43.6203817" lon="11.5619117"><ele>279.0</ele><time>2026-03-28T09:56:18.47Z</time></trkpt><trkpt lat="43.6204183" lon="11.5618283"><ele>280.2857142857143</ele><time>2026-03-28T09:56:19.469Z</time></trkpt><trkpt lat="43.6204517" lon="11.5617483"><ele>281.57142857142856</ele><time>2026-03-28T09:56:20.468Z</time></trkpt><trkpt lat="43.6204867" lon="11.56167"><ele>282.8571428571429</ele><time>2026-03-28T09:56:21.469Z</time></trkpt><trkpt lat="43.6205167" lon="11.5615933"><ele>284.1428571428571</ele><time>2026-03-28T09:56:22.468Z</time></trkpt><trkpt lat="43.62055" lon="11.5615133"><ele>285.42857142857144</ele><time>2026-03-28T09:56:23.469Z</time></trkpt><trkpt lat="43.620585" lon="11.561435"><ele>286.7142857142857</ele><time>2026-03-28T09:56:24.469Z</time></trkpt><trkpt lat="43.62062" lon="11.561355"><ele>288.0</ele><time>2026-03-28T09:56:25.468Z</time></trkpt><trkpt lat="43.6206517" lon="11.5612783"><ele>288.00000000000006</ele><time>2026-03-28T09:56:26.468Z</time></trkpt><trkpt lat="43.620685" lon="11.5612033"><ele>288.0</ele><time>2026-03-28T09:56:27.47Z</time></trkpt><trkpt lat="43.6207183" lon="11.5611267"><ele>288.0</ele><time>2026-03-28T09:56:28.469Z</time></trkpt><trkpt lat="43.62075" lon="11.5610483"><ele>288.0</ele><time>2026-03-28T09:56:29.469Z</time></trkpt><trkpt lat="43.6207833" lon="11.56097"><ele>288.0</ele><time>2026-03-28T09:56:30.469Z</time></trkpt><trkpt lat="43.6208183" lon="11.56089"><ele>288.00000000000006</ele><time>2026-03-28T09:56:31.472Z</time></trkpt><trkpt lat="43.6208567" lon="11.5608133"><ele>288.0</ele><time>2026-03-28T09:56:32.471Z</time></trkpt><trkpt lat="43.6208933" lon="11.560735"><ele>287.8571428571429</ele><time>2026-03-28T09:56:33.469Z</time></trkpt><trkpt lat="43.62093" lon="11.560655"><ele>287.7142857142857</ele><time>2026-03-28T09:56:34.469Z</time></trkpt><trkpt lat="43.6209683" lon="11.5605767"><ele>287.57142857142856</ele><time>2026-03-28T09:56:35.471Z</time></trkpt><trkpt lat="43.6210083" lon="11.5604983"><ele>287.42857142857144</ele><time>2026-03-28T09:56:36.47Z</time></trkpt><trkpt lat="43.6210517" lon="11.56042"><ele>287.2857142857143</ele><time>2026-03-28T09:56:37.468Z</time></trkpt><trkpt lat="43.6210983" lon="11.560345"><ele>287.14285714285717</ele><time>2026-03-28T09:56:38.468Z</time></trkpt><trkpt lat="43.6211433" lon="11.5602717"><ele>287.0</ele><time>2026-03-28T09:56:39.468Z</time></trkpt><trkpt lat="43.6211867" lon="11.5601983"><ele>287.0</ele><time>2026-03-28T09:56:40.469Z</time></trkpt><trkpt lat="43.6212317" lon="11.5601233"><ele>287.0</ele><time>2026-03-28T09:56:41.469Z</time></trkpt><trkpt lat="43.6212767" lon="11.56005"><ele>287.0</ele><time>2026-03-28T09:56:42.469Z</time></trkpt><trkpt lat="43.62132" lon="11.5599767"><ele>287.0</ele><time>2026-03-28T09:56:43.469Z</time></trkpt><trkpt lat="43.6213667" lon="11.559905"><ele>287.0</ele><time>2026-03-28T09:56:44.469Z</time></trkpt><trkpt lat="43.6214133" lon="11.5598333"><ele>287.0</ele><time>2026-03-28T09:56:45.47Z</time></trkpt><trkpt lat="43.62146" lon="11.5597667"><ele>287.0</ele><time>2026-03-28T09:56:46.468Z</time></trkpt><trkpt lat="43.6215117" lon="11.5597017"><ele>287.0</ele><time>2026-03-28T09:56:47.47Z</time></trkpt><trkpt lat="43.6215667" lon="11.5596417"><ele>287.0</ele><time>2026-03-28T09:56:48.469Z</time></trkpt><trkpt lat="43.62162" lon="11.5595933"><ele>287.0</ele><time>2026-03-28T09:56:49.469Z</time></trkpt><trkpt lat="43.6217317" lon="11.559525"><ele>287.0</ele><time>2026-03-28T09:56:51.471Z</time></trkpt><trkpt lat="43.62184" lon="11.5594767"><ele>287.0</ele><time>2026-03-28T09:56:53.469Z</time></trkpt><trkpt lat="43.62194" lon="11.559435"><ele>286.8</ele><time>2026-03-28T09:56:55.468Z</time></trkpt><trkpt lat="43.62204" lon="11.5593983"><ele>286.6</ele><time>2026-03-28T09:56:57.469Z</time></trkpt><trkpt lat="43.6221467" lon="11.5593783"><ele>286.40000000000003</ele><time>2026-03-28T09:56:59.469Z</time></trkpt><trkpt lat="43.62225" lon="11.5593967"><ele>286.2</ele><time>2026-03-28T09:57:01.47Z</time></trkpt><trkpt lat="43.6223483" lon="11.55943"><ele>286.0</ele><time>2026-03-28T09:57:03.468Z</time></trkpt><trkpt lat="43.6224467" lon="11.55948"><ele>285.6</ele><time>2026-03-28T09:57:05.47Z</time></trkpt><trkpt lat="43.6225333" lon="11.5595533"><ele>285.20000000000005</ele><time>2026-03-28T09:57:07.471Z</time></trkpt><trkpt lat="43.622615" lon="11.559645"><ele>284.79999999999995</ele><time>2026-03-28T09:57:09.471Z</time></trkpt><trkpt lat="43.6226917" lon="11.5597333"><ele>284.4</ele><time>2026-03-28T09:57:11.47Z</time></trkpt><trkpt lat="43.62276" lon="11.559825"><ele>284.0</ele><time>2026-03-28T09:57:13.47Z</time></trkpt><trkpt lat="43.6228183" lon="11.5599217"><ele>284.0</ele><time>2026-03-28T09:57:15.471Z</time></trkpt><trkpt lat="43.622865" lon="11.56002"><ele>284.0</ele><time>2026-03-28T09:57:17.471Z</time></trkpt><trkpt lat="43.62291" lon="11.5601167"><ele>284.0</ele><time>2026-03-28T09:57:19.47Z</time></trkpt><trkpt lat="43.6229567" lon="11.5602233"><ele>284.0</ele><time>2026-03-28T09:57:21.469Z</time></trkpt><trkpt lat="43.623005" lon="11.5603283"><ele>284.0</ele><time>2026-03-28T09:57:23.47Z</time></trkpt><trkpt lat="43.6230483" lon="11.5604417"><ele>284.0</ele><time>2026-03-28T09:57:25.469Z</time></trkpt><trkpt lat="43.6230867" lon="11.56056"><ele>285.83333333333337</ele><time>2026-03-28T09:57:27.471Z</time></trkpt><trkpt lat="43.6231317" lon="11.560665"><ele>287.6666666666667</ele><time>2026-03-28T09:57:29.471Z</time></trkpt><trkpt lat="43.6231783" lon="11.5607717"><ele>289.5</ele><time>2026-03-28T09:57:31.47Z</time></trkpt><trkpt lat="43.623225" lon="11.56088"><ele>291.3333333333333</ele><time>2026-03-28T09:57:33.471Z</time></trkpt><trkpt lat="43.6232767" lon="11.5609767"><ele>293.16666666666663</ele><time>2026-03-28T09:57:35.468Z</time></trkpt><trkpt lat="43.6233267" lon="11.56107"><ele>295.0</ele><time>2026-03-28T09:57:37.467Z</time></trkpt><trkpt lat="43.623375" lon="11.561165"><ele>295.3333333333333</ele><time>2026-03-28T09:57:39.469Z</time></trkpt><trkpt lat="43.6234267" lon="11.5612583"><ele>295.66666666666663</ele><time>2026-03-28T09:57:41.468Z</time></trkpt><trkpt lat="43.6234817" lon="11.56136"><ele>296.0</ele><time>2026-03-28T09:57:43.47Z</time></trkpt><trkpt lat="43.6235433" lon="11.56145"><ele>296.3333333333333</ele><time>2026-03-28T09:57:45.467Z</time></trkpt><trkpt lat="43.623605" lon="11.5615283"><ele>296.6666666666667</ele><time>2026-03-28T09:57:47.47Z</time></trkpt><trkpt lat="43.6236633" lon="11.561615"><ele>297.0</ele><time>2026-03-28T09:57:49.469Z</time></trkpt><trkpt lat="43.623725" lon="11.5617033"><ele>297.0</ele><time>2026-03-28T09:57:51.47Z</time></trkpt><trkpt lat="43.62379" lon="11.56178"><ele>297.0</ele><time>2026-03-28T09:57:53.471Z</time></trkpt><trkpt lat="43.62386" lon="11.56186"><ele>297.0</ele><time>2026-03-28T09:57:55.47Z</time></trkpt><trkpt lat="43.6239333" lon="11.5619283"><ele>297.0</ele><time>2026-03-28T09:57:57.473Z</time></trkpt><trkpt lat="43.624015" lon="11.5619817"><ele>297.0</ele><time>2026-03-28T09:57:59.473Z</time></trkpt><trkpt lat="43.6241033" lon="11.5620333"><ele>298.0</ele><time>2026-03-28T09:58:01.471Z</time></trkpt><trkpt lat="43.6241983" lon="11.5620633"><ele>299.0</ele><time>2026-03-28T09:58:03.472Z</time></trkpt><trkpt lat="43.6242933" lon="11.56209"><ele>300.0</ele><time>2026-03-28T09:58:05.469Z</time></trkpt><trkpt lat="43.624395" lon="11.562125"><ele>301.0</ele><time>2026-03-28T09:58:07.472Z</time></trkpt><trkpt lat="43.6245017" lon="11.5621667"><ele>302.0</ele><time>2026-03-28T09:58:09.47Z</time></trkpt><trkpt lat="43.624605" lon="11.5622283"><ele>302.0</ele><time>2026-03-28T09:58:11.47Z</time></trkpt><trkpt lat="43.6247033" lon="11.5623083"><ele>302.0</ele><time>2026-03-28T09:58:13.471Z</time></trkpt><trkpt lat="43.624795" lon="11.5624"><ele>302.0</ele><time>2026-03-28T09:58:15.471Z</time></trkpt><trkpt lat="43.624885" lon="11.5625067"><ele>302.0</ele><time>2026-03-28T09:58:17.47Z</time></trkpt><trkpt lat="43.6249733" lon="11.56261"><ele>302.0</ele><time>2026-03-28T09:58:19.473Z</time></trkpt><trkpt lat="43.6250633" lon="11.5627217"><ele>302.0</ele><time>2026-03-28T09:58:21.471Z</time></trkpt><trkpt lat="43.6251517" lon="11.5628267"><ele>302.0</ele><time>2026-03-28T09:58:23.47Z</time></trkpt><trkpt lat="43.6252533" lon="11.562905"><ele>302.0</ele><time>2026-03-28T09:58:25.469Z</time></trkpt><trkpt lat="43.625315" lon="11.5629283"><ele>302.0</ele><time>2026-03-28T09:58:26.469Z</time></trkpt><trkpt lat="43.6253783" lon="11.5629417"><ele>301.8571428571429</ele><time>2026-03-28T09:58:27.472Z</time></trkpt><trkpt lat="43.6254417" lon="11.5629467"><ele>301.7142857142857</ele><time>2026-03-28T09:58:28.469Z</time></trkpt><trkpt lat="43.6255083" lon="11.562945"><ele>301.57142857142856</ele><time>2026-03-28T09:58:29.469Z</time></trkpt><trkpt lat="43.625575" lon="11.5629417"><ele>301.42857142857144</ele><time>2026-03-28T09:58:30.468Z</time></trkpt><trkpt lat="43.6256417" lon="11.562935"><ele>301.2857142857143</ele><time>2026-03-28T09:58:31.474Z</time></trkpt><trkpt lat="43.6257117" lon="11.5629267"><ele>301.14285714285717</ele><time>2026-03-28T09:58:32.472Z</time></trkpt><trkpt lat="43.6257783" lon="11.562915"><ele>301.0</ele><time>2026-03-28T09:58:33.473Z</time></trkpt><trkpt lat="43.625845" lon="11.5629"><ele>300.85714285714283</ele><time>2026-03-28T09:58:34.471Z</time></trkpt><trkpt lat="43.625905" lon="11.5628633"><ele>300.7142857142857</ele><time>2026-03-28T09:58:35.474Z</time></trkpt><trkpt lat="43.6259533" lon="11.562805"><ele>300.57142857142856</ele><time>2026-03-28T09:58:36.471Z</time></trkpt><trkpt lat="43.6259917" lon="11.56273"><ele>300.42857142857144</ele><time>2026-03-28T09:58:37.469Z</time></trkpt><trkpt lat="43.626015" lon="11.5626433"><ele>300.2857142857143</ele><time>2026-03-28T09:58:38.469Z</time></trkpt><trkpt lat="43.6260217" lon="11.5625533"><ele>300.1428571428571</ele><time>2026-03-28T09:58:39.469Z</time></trkpt><trkpt lat="43.6260217" lon="11.5624633"><ele>300.0</ele><time>2026-03-28T09:58:40.469Z</time></trkpt><trkpt lat="43.626025" lon="11.562375"><ele>300.0</ele><time>2026-03-28T09:58:41.469Z</time></trkpt><trkpt lat="43.62603" lon="11.5622017"><ele>300.0</ele><time>2026-03-28T09:58:43.471Z</time></trkpt><trkpt lat="43.6260633" lon="11.5620333"><ele>300.0</ele><time>2026-03-28T09:58:45.472Z</time></trkpt><trkpt lat="43.6260967" lon="11.561955"><ele>300.0</ele><time>2026-03-28T09:58:46.47Z</time></trkpt><trkpt lat="43.6261383" lon="11.5618867"><ele>300.0</ele><time>2026-03-28T09:58:47.471Z</time></trkpt><trkpt lat="43.6262383" lon="11.5617967"><ele>301.6</ele><time>2026-03-28T09:58:49.47Z</time></trkpt><trkpt lat="43.6263417" lon="11.561755"><ele>303.2</ele><time>2026-03-28T09:58:51.472Z</time></trkpt><trkpt lat="43.6264217" lon="11.56173"><ele>304.8</ele><time>2026-03-28T09:58:53.469Z</time></trkpt><trkpt lat="43.6265083" lon="11.5616933"><ele>306.4</ele><time>2026-03-28T09:58:55.474Z</time></trkpt><trkpt lat="43.6266083" lon="11.5616983"><ele>308.0</ele><time>2026-03-28T09:58:57.47Z</time></trkpt><trkpt lat="43.626705" lon="11.5616983"><ele>308.0</ele><time>2026-03-28T09:58:59.47Z</time></trkpt><trkpt lat="43.6267983" lon="11.5616833"><ele>308.0</ele><time>2026-03-28T09:59:01.469Z</time></trkpt><trkpt lat="43.6268883" lon="11.5616717"><ele>308.0</ele><time>2026-03-28T09:59:03.471Z</time></trkpt><trkpt lat="43.6269783" lon="11.56166"><ele>308.0</ele><time>2026-03-28T09:59:05.471Z</time></trkpt><trkpt lat="43.6270733" lon="11.56165"><ele>308.0</ele><time>2026-03-28T09:59:07.471Z</time></trkpt><trkpt lat="43.6271683" lon="11.5616433"><ele>308.4</ele><time>2026-03-28T09:59:09.468Z</time></trkpt><trkpt lat="43.6272617" lon="11.5616367"><ele>308.8</ele><time>2026-03-28T09:59:11.472Z</time></trkpt><trkpt lat="43.62736" lon="11.5616433"><ele>309.2</ele><time>2026-03-28T09:59:13.468Z</time></trkpt><trkpt lat="43.62746" lon="11.5616567"><ele>309.6</ele><time>2026-03-28T09:59:15.473Z</time></trkpt><trkpt lat="43.6275567" lon="11.561695"><ele>310.0</ele><time>2026-03-28T09:59:17.471Z</time></trkpt><trkpt lat="43.6276483" lon="11.5617517"><ele>310.0</ele><time>2026-03-28T09:59:19.471Z</time></trkpt><trkpt lat="43.6277417" lon="11.5617933"><ele>310.0</ele><time>2026-03-28T09:59:21.47Z</time></trkpt><trkpt lat="43.6278383" lon="11.5618067"><ele>310.0</ele><time>2026-03-28T09:59:23.468Z</time></trkpt><trkpt lat="43.62793" lon="11.5617767"><ele>310.0</ele><time>2026-03-28T09:59:25.469Z</time></trkpt><trkpt lat="43.62801" lon="11.5616817"><ele>310.0</ele><time>2026-03-28T09:59:27.469Z</time></trkpt><trkpt lat="43.62808" lon="11.56157"><ele>309.5</ele><time>2026-03-28T09:59:29.469Z</time></trkpt><trkpt lat="43.6281517" lon="11.5614567"><ele>309.0</ele><time>2026-03-28T09:59:31.469Z</time></trkpt><trkpt lat="43.628225" lon="11.5613317"><ele>308.5</ele><time>2026-03-28T09:59:33.469Z</time></trkpt><trkpt lat="43.6283" lon="11.5612067"><ele>308.0</ele><time>2026-03-28T09:59:35.47Z</time></trkpt><trkpt lat="43.628385" lon="11.5610983"><ele>308.0</ele><time>2026-03-28T09:59:37.469Z</time></trkpt><trkpt lat="43.6284983" lon="11.5610467"><ele>308.0</ele><time>2026-03-28T09:59:39.47Z</time></trkpt><trkpt lat="43.6285617" lon="11.561055"><ele>308.0</ele><time>2026-03-28T09:59:40.47Z</time></trkpt><trkpt lat="43.628625" lon="11.56108"><ele>308.0</ele><time>2026-03-28T09:59:41.468Z</time></trkpt><trkpt lat="43.6286867" lon="11.56112"><ele>308.0</ele><time>2026-03-28T09:59:42.47Z</time></trkpt><trkpt lat="43.62874" lon="11.5611783"><ele>308.0</ele><time>2026-03-28T09:59:43.47Z</time></trkpt><trkpt lat="43.628785" lon="11.5612483"><ele>307.5</ele><time>2026-03-28T09:59:44.47Z</time></trkpt><trkpt lat="43.6288267" lon="11.5613317"><ele>307.0</ele><time>2026-03-28T09:59:45.469Z</time></trkpt><trkpt lat="43.6288667" lon="11.561415"><ele>306.5</ele><time>2026-03-28T09:59:46.469Z</time></trkpt><trkpt lat="43.6289033" lon="11.561505"><ele>306.0</ele><time>2026-03-28T09:59:47.469Z</time></trkpt><trkpt lat="43.6289383" lon="11.5616"><ele>305.5</ele><time>2026-03-28T09:59:48.468Z</time></trkpt><trkpt lat="43.628975" lon="11.5616967"><ele>305.0</ele><time>2026-03-28T09:59:49.471Z</time></trkpt><trkpt lat="43.629015" lon="11.5617933"><ele>305.0</ele><time>2026-03-28T09:59:50.47Z</time></trkpt><trkpt lat="43.6290533" lon="11.5618867"><ele>305.0</ele><time>2026-03-28T09:59:51.47Z</time></trkpt><trkpt lat="43.62909" lon="11.561985"><ele>305.0</ele><time>2026-03-28T09:59:52.471Z</time></trkpt><trkpt lat="43.629125" lon="11.5620867"><ele>305.0</ele><time>2026-03-28T09:59:53.47Z</time></trkpt><trkpt lat="43.6291583" lon="11.56219"><ele>305.0</ele><time>2026-03-28T09:59:54.472Z</time></trkpt><trkpt lat="43.6291917" lon="11.5622967"><ele>305.0</ele><time>2026-03-28T09:59:55.473Z</time></trkpt><trkpt lat="43.629225" lon="11.562405"><ele>306.0</ele><time>2026-03-28T09:59:56.469Z</time></trkpt><trkpt lat="43.6292533" lon="11.5625167"><ele>307.0</ele><time>2026-03-28T09:59:57.468Z</time></trkpt><trkpt lat="43.6292767" lon="11.5626317"><ele>308.0</ele><time>2026-03-28T09:59:58.469Z</time></trkpt><trkpt lat="43.62929" lon="11.56275"><ele>309.0</ele><time>2026-03-28T09:59:59.472Z</time></trkpt><trkpt lat="43.629295" lon="11.5628683"><ele>310.0</ele><time>2026-03-28T10:00:00.469Z</time></trkpt><trkpt lat="43.629295" lon="11.5629883"><ele>311.0</ele><time>2026-03-28T10:00:01.471Z</time></trkpt><trkpt lat="43.6292983" lon="11.563105"><ele>312.0</ele><time>2026-03-28T10:00:02.468Z</time></trkpt><trkpt lat="43.6293117" lon="11.5632217"><ele>313.0</ele><time>2026-03-28T10:00:03.468Z</time></trkpt><trkpt lat="43.62934" lon="11.5633283"><ele>314.0</ele><time>2026-03-28T10:00:04.469Z</time></trkpt><trkpt lat="43.6293783" lon="11.5634233"><ele>315.0</ele><time>2026-03-28T10:00:05.47Z</time></trkpt><trkpt lat="43.6294317" lon="11.563495"><ele>316.0</ele><time>2026-03-28T10:00:06.467Z</time></trkpt><trkpt lat="43.6294933" lon="11.563545"><ele>317.0</ele><time>2026-03-28T10:00:07.471Z</time></trkpt><trkpt lat="43.62956" lon="11.5635717"><ele>317.0</ele><time>2026-03-28T10:00:08.47Z</time></trkpt><trkpt lat="43.629625" lon="11.5635717"><ele>317.0</ele><time>2026-03-28T10:00:09.468Z</time></trkpt><trkpt lat="43.6296867" lon="11.5635483"><ele>317.0</ele><time>2026-03-28T10:00:10.472Z</time></trkpt><trkpt lat="43.6297683" lon="11.5634383"><ele>317.0</ele><time>2026-03-28T10:00:12.468Z</time></trkpt><trkpt lat="43.62981" lon="11.5632683"><ele>317.0</ele><time>2026-03-28T10:00:14.469Z</time></trkpt><trkpt lat="43.629825" lon="11.5631767"><ele>317.0</ele><time>2026-03-28T10:00:15.469Z</time></trkpt><trkpt lat="43.6298417" lon="11.56308"><ele>317.0</ele><time>2026-03-28T10:00:16.468Z</time></trkpt><trkpt lat="43.6298567" lon="11.56298"><ele>317.0</ele><time>2026-03-28T10:00:17.468Z</time></trkpt><trkpt lat="43.6298717" lon="11.5628783"><ele>317.0</ele><time>2026-03-28T10:00:18.468Z</time></trkpt><trkpt lat="43.6298883" lon="11.5627733"><ele>317.0</ele><time>2026-03-28T10:00:19.468Z</time></trkpt><trkpt lat="43.6299083" lon="11.5626667"><ele>317.0</ele><time>2026-03-28T10:00:20.469Z</time></trkpt><trkpt lat="43.6299267" lon="11.5625583"><ele>317.0</ele><time>2026-03-28T10:00:21.47Z</time></trkpt><trkpt lat="43.6299483" lon="11.562445"><ele>316.1666666666667</ele><time>2026-03-28T10:00:22.468Z</time></trkpt><trkpt lat="43.62997" lon="11.56233"><ele>315.33333333333337</ele><time>2026-03-28T10:00:23.469Z</time></trkpt><trkpt lat="43.629995" lon="11.562215"><ele>314.5</ele><time>2026-03-28T10:00:24.469Z</time></trkpt><trkpt lat="43.6300183" lon="11.5621"><ele>313.6666666666667</ele><time>2026-03-28T10:00:25.469Z</time></trkpt><trkpt lat="43.6300417" lon="11.561985"><ele>312.8333333333333</ele><time>2026-03-28T10:00:26.468Z</time></trkpt><trkpt lat="43.6300667" lon="11.56187"><ele>312.0</ele><time>2026-03-28T10:00:27.468Z</time></trkpt><trkpt lat="43.6300917" lon="11.56175"><ele>309.8</ele><time>2026-03-28T10:00:28.468Z</time></trkpt><trkpt lat="43.6301167" lon="11.56163"><ele>307.6</ele><time>2026-03-28T10:00:29.469Z</time></trkpt><trkpt lat="43.6301433" lon="11.5615067"><ele>305.40000000000003</ele><time>2026-03-28T10:00:30.468Z</time></trkpt><trkpt lat="43.6301717" lon="11.561385"><ele>303.2</ele><time>2026-03-28T10:00:31.469Z</time></trkpt><trkpt lat="43.6302017" lon="11.5612617"><ele>301.0</ele><time>2026-03-28T10:00:32.471Z</time></trkpt><trkpt lat="43.630235" lon="11.5611433"><ele>299.6</ele><time>2026-03-28T10:00:33.473Z</time></trkpt><trkpt lat="43.6302733" lon="11.561025"><ele>298.20000000000005</ele><time>2026-03-28T10:00:34.471Z</time></trkpt><trkpt lat="43.6303133" lon="11.5609117"><ele>296.79999999999995</ele><time>2026-03-28T10:00:35.468Z</time></trkpt><trkpt lat="43.630355" lon="11.5608017"><ele>295.4</ele><time>2026-03-28T10:00:36.467Z</time></trkpt><trkpt lat="43.6304017" lon="11.5606967"><ele>294.0</ele><time>2026-03-28T10:00:37.469Z</time></trkpt><trkpt lat="43.6304567" lon="11.5605983"><ele>294.6666666666667</ele><time>2026-03-28T10:00:38.469Z</time></trkpt><trkpt lat="43.6305217" lon="11.5605117"><ele>295.3333333333333</ele><time>2026-03-28T10:00:39.467Z</time></trkpt><trkpt lat="43.6305967" lon="11.5604467"><ele>296.0</ele><time>2026-03-28T10:00:40.469Z</time></trkpt><trkpt lat="43.63068" lon="11.5604067"><ele>296.66666666666663</ele><time>2026-03-28T10:00:41.469Z</time></trkpt><trkpt lat="43.630765" lon="11.5603833"><ele>297.3333333333333</ele><time>2026-03-28T10:00:42.467Z</time></trkpt><trkpt lat="43.63085" lon="11.5603583"><ele>298.0</ele><time>2026-03-28T10:00:43.47Z</time></trkpt><trkpt lat="43.6309267" lon="11.5603133"><ele>298.0</ele><time>2026-03-28T10:00:44.469Z</time></trkpt><trkpt lat="43.6309917" lon="11.5602433"><ele>298.0</ele><time>2026-03-28T10:00:45.469Z</time></trkpt><trkpt lat="43.631035" lon="11.560145"><ele>298.0</ele><time>2026-03-28T10:00:46.469Z</time></trkpt><trkpt lat="43.631065" lon="11.5600367"><ele>298.0</ele><time>2026-03-28T10:00:47.469Z</time></trkpt><trkpt lat="43.631085" lon="11.559925"><ele>298.0</ele><time>2026-03-28T10:00:48.467Z</time></trkpt><trkpt lat="43.6311117" lon="11.5598167"><ele>298.0</ele><time>2026-03-28T10:00:49.47Z</time></trkpt><trkpt lat="43.631145" lon="11.559715"><ele>299.66666666666663</ele><time>2026-03-28T10:00:50.469Z</time></trkpt><trkpt lat="43.6311883" lon="11.5596217"><ele>301.3333333333333</ele><time>2026-03-28T10:00:51.469Z</time></trkpt><trkpt lat="43.6312417" lon="11.5595383"><ele>303.0</ele><time>2026-03-28T10:00:52.472Z</time></trkpt><trkpt lat="43.6312983" lon="11.5594617"><ele>304.6666666666667</ele><time>2026-03-28T10:00:53.469Z</time></trkpt><trkpt lat="43.6313583" lon="11.5593883"><ele>306.33333333333337</ele><time>2026-03-28T10:00:54.469Z</time></trkpt><trkpt lat="43.6314167" lon="11.5593183"><ele>308.0</ele><time>2026-03-28T10:00:55.468Z</time></trkpt><trkpt lat="43.6314767" lon="11.5592467"><ele>308.0</ele><time>2026-03-28T10:00:56.468Z</time></trkpt><trkpt lat="43.6315383" lon="11.5591733"><ele>308.0</ele><time>2026-03-28T10:00:57.468Z</time></trkpt><trkpt lat="43.6315967" lon="11.5591"><ele>308.0</ele><time>2026-03-28T10:00:58.468Z</time></trkpt><trkpt lat="43.6316533" lon="11.5590333"><ele>308.0</ele><time>2026-03-28T10:00:59.469Z</time></trkpt><trkpt lat="43.6317117" lon="11.5589667"><ele>308.0</ele><time>2026-03-28T10:01:00.468Z</time></trkpt><trkpt lat="43.6317667" lon="11.5589017"><ele>308.0</ele><time>2026-03-28T10:01:01.468Z</time></trkpt><trkpt lat="43.6318233" lon="11.5588383"><ele>308.0</ele><time>2026-03-28T10:01:02.47Z</time></trkpt><trkpt lat="43.6318833" lon="11.558775"><ele>308.0</ele><time>2026-03-28T10:01:03.468Z</time></trkpt><trkpt lat="43.6319433" lon="11.5587183"><ele>308.0</ele><time>2026-03-28T10:01:04.469Z</time></trkpt><trkpt lat="43.632005" lon="11.5586683"><ele>308.0</ele><time>2026-03-28T10:01:05.47Z</time></trkpt><trkpt lat="43.6320683" lon="11.5586217"><ele>308.0</ele><time>2026-03-28T10:01:06.471Z</time></trkpt><trkpt lat="43.6321333" lon="11.5585883"><ele>308.0</ele><time>2026-03-28T10:01:07.47Z</time></trkpt><trkpt lat="43.6322" lon="11.5585617"><ele>308.0</ele><time>2026-03-28T10:01:08.472Z</time></trkpt><trkpt lat="43.632265" lon="11.5585433"><ele>307.1666666666667</ele><time>2026-03-28T10:01:09.469Z</time></trkpt><trkpt lat="43.6323333" lon="11.5585317"><ele>306.33333333333337</ele><time>2026-03-28T10:01:10.47Z</time></trkpt><trkpt lat="43.6323967" lon="11.5585217"><ele>305.5</ele><time>2026-03-28T10:01:11.469Z</time></trkpt><trkpt lat="43.6324617" lon="11.558515"><ele>304.6666666666667</ele><time>2026-03-28T10:01:12.469Z</time></trkpt><trkpt lat="43.6325267" lon="11.5585117"><ele>303.8333333333333</ele><time>2026-03-28T10:01:13.469Z</time></trkpt><trkpt lat="43.63259" lon="11.558515"><ele>303.0</ele><time>2026-03-28T10:01:14.469Z</time></trkpt><trkpt lat="43.6327117" lon="11.5585533"><ele>301.8</ele><time>2026-03-28T10:01:16.468Z</time></trkpt><trkpt lat="43.6328117" lon="11.5586467"><ele>300.6</ele><time>2026-03-28T10:01:18.469Z</time></trkpt><trkpt lat="43.632885" lon="11.5587767"><ele>299.4</ele><time>2026-03-28T10:01:20.469Z</time></trkpt><trkpt lat="43.6329583" lon="11.5589117"><ele>298.2</ele><time>2026-03-28T10:01:22.468Z</time></trkpt><trkpt lat="43.632995" lon="11.5589833"><ele>297.0</ele><time>2026-03-28T10:01:23.47Z</time></trkpt><trkpt lat="43.633035" lon="11.5590533"><ele>299.0</ele><time>2026-03-28T10:01:24.47Z</time></trkpt><trkpt lat="43.633075" lon="11.559125"><ele>301.0</ele><time>2026-03-28T10:01:25.469Z</time></trkpt><trkpt lat="43.6331167" lon="11.559195"><ele>303.0</ele><time>2026-03-28T10:01:26.47Z</time></trkpt><trkpt lat="43.6331567" lon="11.559265"><ele>305.0</ele><time>2026-03-28T10:01:27.468Z</time></trkpt><trkpt lat="43.6332367" lon="11.559395"><ele>307.0</ele><time>2026-03-28T10:01:29.469Z</time></trkpt><trkpt lat="43.6333167" lon="11.5595333"><ele>309.0</ele><time>2026-03-28T10:01:31.469Z</time></trkpt><trkpt lat="43.6333583" lon="11.5596033"><ele>312.4</ele><time>2026-03-28T10:01:32.469Z</time></trkpt><trkpt lat="43.6333983" lon="11.559675"><ele>315.79999999999995</ele><time>2026-03-28T10:01:33.47Z</time></trkpt><trkpt lat="43.63344" lon="11.5597517"><ele>319.20000000000005</ele><time>2026-03-28T10:01:34.468Z</time></trkpt><trkpt lat="43.63348" lon="11.5598233"><ele>322.6</ele><time>2026-03-28T10:01:35.47Z</time></trkpt><trkpt lat="43.63356" lon="11.5599517"><ele>326.0</ele><time>2026-03-28T10:01:37.468Z</time></trkpt><trkpt lat="43.6336317" lon="11.5600967"><ele>323.6666666666667</ele><time>2026-03-28T10:01:39.469Z</time></trkpt><trkpt lat="43.6337083" lon="11.560225"><ele>321.33333333333337</ele><time>2026-03-28T10:01:41.467Z</time></trkpt><trkpt lat="43.6338183" lon="11.5603033"><ele>319.0</ele><time>2026-03-28T10:01:43.47Z</time></trkpt><trkpt lat="43.6338817" lon="11.5603233"><ele>316.6666666666667</ele><time>2026-03-28T10:01:44.469Z</time></trkpt><trkpt lat="43.6339483" lon="11.5603217"><ele>314.3333333333333</ele><time>2026-03-28T10:01:45.469Z</time></trkpt><trkpt lat="43.6340117" lon="11.5603033"><ele>312.0</ele><time>2026-03-28T10:01:46.469Z</time></trkpt><trkpt lat="43.634065" lon="11.5602517"><ele>312.0</ele><time>2026-03-28T10:01:47.469Z</time></trkpt><trkpt lat="43.6341117" lon="11.5601833"><ele>312.0</ele><time>2026-03-28T10:01:48.47Z</time></trkpt><trkpt lat="43.6341533" lon="11.5601133"><ele>312.0</ele><time>2026-03-28T10:01:49.469Z</time></trkpt><trkpt lat="43.6341917" lon="11.56004"><ele>312.0</ele><time>2026-03-28T10:01:50.469Z</time></trkpt><trkpt lat="43.63423" lon="11.5599633"><ele>312.0</ele><time>2026-03-28T10:01:51.469Z</time></trkpt><trkpt lat="43.6342683" lon="11.559885"><ele>312.0</ele><time>2026-03-28T10:01:52.469Z</time></trkpt><trkpt lat="43.6343083" lon="11.559805"><ele>312.0</ele><time>2026-03-28T10:01:53.468Z</time></trkpt><trkpt lat="43.6343467" lon="11.5597283"><ele>312.0</ele><time>2026-03-28T10:01:54.468Z</time></trkpt><trkpt lat="43.6343833" lon="11.5596517"><ele>312.0</ele><time>2026-03-28T10:01:55.471Z</time></trkpt><trkpt lat="43.63442" lon="11.559575"><ele>312.0</ele><time>2026-03-28T10:01:56.471Z</time></trkpt><trkpt lat="43.634455" lon="11.5594983"><ele>312.0</ele><time>2026-03-28T10:01:57.471Z</time></trkpt><trkpt lat="43.6344917" lon="11.55942"><ele>312.0</ele><time>2026-03-28T10:01:58.469Z</time></trkpt><trkpt lat="43.6345283" lon="11.5593417"><ele>312.0</ele><time>2026-03-28T10:01:59.468Z</time></trkpt><trkpt lat="43.634565" lon="11.559265"><ele>312.0</ele><time>2026-03-28T10:02:00.469Z</time></trkpt><trkpt lat="43.6346" lon="11.55919"><ele>312.0</ele><time>2026-03-28T10:02:01.469Z</time></trkpt><trkpt lat="43.634635" lon="11.5591133"><ele>312.0</ele><time>2026-03-28T10:02:02.469Z</time></trkpt><trkpt lat="43.63467" lon="11.559035"><ele>312.0</ele><time>2026-03-28T10:02:03.471Z</time></trkpt><trkpt lat="43.6347083" lon="11.5589583"><ele>312.0</ele><time>2026-03-28T10:02:04.469Z</time></trkpt><trkpt lat="43.634745" lon="11.5588783"><ele>312.0</ele><time>2026-03-28T10:02:05.469Z</time></trkpt><trkpt lat="43.6347833" lon="11.5587983"><ele>312.0</ele><time>2026-03-28T10:02:06.468Z</time></trkpt><trkpt lat="43.6348217" lon="11.55872"><ele>312.0</ele><time>2026-03-28T10:02:07.47Z</time></trkpt><trkpt lat="43.6348567" lon="11.5586417"><ele>312.0</ele><time>2026-03-28T10:02:08.47Z</time></trkpt><trkpt lat="43.634895" lon="11.5585617"><ele>312.0</ele><time>2026-03-28T10:02:09.469Z</time></trkpt><trkpt lat="43.6349367" lon="11.5584867"><ele>312.0</ele><time>2026-03-28T10:02:10.469Z</time></trkpt><trkpt lat="43.634985" lon="11.558415"><ele>312.0</ele><time>2026-03-28T10:02:11.468Z</time></trkpt><trkpt lat="43.6350417" lon="11.5583567"><ele>312.0</ele><time>2026-03-28T10:02:12.471Z</time></trkpt><trkpt lat="43.635105" lon="11.5583183"><ele>312.0</ele><time>2026-03-28T10:02:13.468Z</time></trkpt><trkpt lat="43.6351733" lon="11.5583017"><ele>312.0</ele><time>2026-03-28T10:02:14.468Z</time></trkpt><trkpt lat="43.635245" lon="11.55831"><ele>312.2857142857143</ele><time>2026-03-28T10:02:15.47Z</time></trkpt><trkpt lat="43.635315" lon="11.55834"><ele>312.57142857142856</ele><time>2026-03-28T10:02:16.468Z</time></trkpt><trkpt lat="43.6353783" lon="11.5583817"><ele>312.85714285714283</ele><time>2026-03-28T10:02:17.47Z</time></trkpt><trkpt lat="43.6354367" lon="11.5584317"><ele>313.1428571428571</ele><time>2026-03-28T10:02:18.47Z</time></trkpt><trkpt lat="43.6354933" lon="11.5584867"><ele>313.42857142857144</ele><time>2026-03-28T10:02:19.469Z</time></trkpt><trkpt lat="43.63555" lon="11.55854"><ele>313.71428571428567</ele><time>2026-03-28T10:02:20.469Z</time></trkpt><trkpt lat="43.6356067" lon="11.5585917"><ele>314.0</ele><time>2026-03-28T10:02:21.469Z</time></trkpt><trkpt lat="43.63567" lon="11.5586217"><ele>313.99999999999994</ele><time>2026-03-28T10:02:22.469Z</time></trkpt><trkpt lat="43.6357333" lon="11.5586167"><ele>314.0</ele><time>2026-03-28T10:02:23.469Z</time></trkpt><trkpt lat="43.6357933" lon="11.55858"><ele>314.0</ele><time>2026-03-28T10:02:24.468Z</time></trkpt><trkpt lat="43.6358367" lon="11.5585067"><ele>314.0</ele><time>2026-03-28T10:02:25.468Z</time></trkpt><trkpt lat="43.63586" lon="11.5584067"><ele>314.0</ele><time>2026-03-28T10:02:26.469Z</time></trkpt><trkpt lat="43.6358617" lon="11.5583"><ele>313.99999999999994</ele><time>2026-03-28T10:02:27.469Z</time></trkpt><trkpt lat="43.6358633" lon="11.55819"><ele>314.0</ele><time>2026-03-28T10:02:28.47Z</time></trkpt><trkpt lat="43.63586" lon="11.5580817"><ele>314.0</ele><time>2026-03-28T10:02:29.47Z</time></trkpt><trkpt lat="43.635855" lon="11.5579733"><ele>314.0</ele><time>2026-03-28T10:02:30.469Z</time></trkpt><trkpt lat="43.635855" lon="11.557865"><ele>314.0</ele><time>2026-03-28T10:02:31.469Z</time></trkpt><trkpt lat="43.63587" lon="11.557755"><ele>314.0</ele><time>2026-03-28T10:02:32.469Z</time></trkpt><trkpt lat="43.6359017" lon="11.5576533"><ele>314.0</ele><time>2026-03-28T10:02:33.469Z</time></trkpt><trkpt lat="43.63595" lon="11.557565"><ele>314.0</ele><time>2026-03-28T10:02:34.47Z</time></trkpt><trkpt lat="43.63601" lon="11.5574883"><ele>314.33333333333337</ele><time>2026-03-28T10:02:35.469Z</time></trkpt><trkpt lat="43.6360717" lon="11.5574167"><ele>314.6666666666667</ele><time>2026-03-28T10:02:36.468Z</time></trkpt><trkpt lat="43.6361367" lon="11.5573433"><ele>315.0</ele><time>2026-03-28T10:02:37.471Z</time></trkpt><trkpt lat="43.6362" lon="11.5572683"><ele>315.3333333333333</ele><time>2026-03-28T10:02:38.469Z</time></trkpt><trkpt lat="43.6362633" lon="11.5571917"><ele>315.66666666666663</ele><time>2026-03-28T10:02:39.468Z</time></trkpt><trkpt lat="43.6363267" lon="11.557115"><ele>316.0</ele><time>2026-03-28T10:02:40.47Z</time></trkpt><trkpt lat="43.6363883" lon="11.557035"><ele>314.8333333333333</ele><time>2026-03-28T10:02:41.469Z</time></trkpt><trkpt lat="43.6364517" lon="11.5569583"><ele>313.66666666666663</ele><time>2026-03-28T10:02:42.468Z</time></trkpt><trkpt lat="43.63651" lon="11.5568817"><ele>312.5</ele><time>2026-03-28T10:02:43.468Z</time></trkpt><trkpt lat="43.6365667" lon="11.556805"><ele>311.3333333333333</ele><time>2026-03-28T10:02:44.469Z</time></trkpt><trkpt lat="43.6366267" lon="11.5567367"><ele>310.1666666666667</ele><time>2026-03-28T10:02:45.469Z</time></trkpt><trkpt lat="43.6366867" lon="11.5566717"><ele>309.0</ele><time>2026-03-28T10:02:46.469Z</time></trkpt><trkpt lat="43.63675" lon="11.5566117"><ele>309.00000000000006</ele><time>2026-03-28T10:02:47.468Z</time></trkpt><trkpt lat="43.6368167" lon="11.55656"><ele>309.0</ele><time>2026-03-28T10:02:48.469Z</time></trkpt><trkpt lat="43.636885" lon="11.556525"><ele>309.0</ele><time>2026-03-28T10:02:49.469Z</time></trkpt><trkpt lat="43.636955" lon="11.5565117"><ele>309.0</ele><time>2026-03-28T10:02:50.469Z</time></trkpt><trkpt lat="43.637025" lon="11.55651"><ele>309.0</ele><time>2026-03-28T10:02:51.468Z</time></trkpt><trkpt lat="43.6370933" lon="11.5565183"><ele>309.00000000000006</ele><time>2026-03-28T10:02:52.469Z</time></trkpt><trkpt lat="43.6371617" lon="11.55653"><ele>309.0</ele><time>2026-03-28T10:02:53.469Z</time></trkpt><trkpt lat="43.6372283" lon="11.5565533"><ele>309.42857142857144</ele><time>2026-03-28T10:02:54.47Z</time></trkpt><trkpt lat="43.6372933" lon="11.55659"><ele>309.8571428571429</ele><time>2026-03-28T10:02:55.468Z</time></trkpt><trkpt lat="43.6373567" lon="11.5566333"><ele>310.28571428571433</ele><time>2026-03-28T10:02:56.469Z</time></trkpt><trkpt lat="43.6374183" lon="11.55668"><ele>310.7142857142857</ele><time>2026-03-28T10:02:57.47Z</time></trkpt><trkpt lat="43.6374817" lon="11.5567283"><ele>311.1428571428571</ele><time>2026-03-28T10:02:58.469Z</time></trkpt><trkpt lat="43.6375467" lon="11.5567817"><ele>311.5714285714286</ele><time>2026-03-28T10:02:59.469Z</time></trkpt><trkpt lat="43.63761" lon="11.5568317"><ele>312.0</ele><time>2026-03-28T10:03:00.468Z</time></trkpt><trkpt lat="43.6376733" lon="11.55688"><ele>312.0</ele><time>2026-03-28T10:03:01.469Z</time></trkpt><trkpt lat="43.637735" lon="11.5569367"><ele>312.0</ele><time>2026-03-28T10:03:02.47Z</time></trkpt><trkpt lat="43.637795" lon="11.557"><ele>312.0</ele><time>2026-03-28T10:03:03.468Z</time></trkpt><trkpt lat="43.637855" lon="11.5570567"><ele>312.0</ele><time>2026-03-28T10:03:04.47Z</time></trkpt><trkpt lat="43.63792" lon="11.5571"><ele>312.0</ele><time>2026-03-28T10:03:05.468Z</time></trkpt><trkpt lat="43.6379917" lon="11.5571167"><ele>312.0</ele><time>2026-03-28T10:03:06.468Z</time></trkpt><trkpt lat="43.6380617" lon="11.557105"><ele>312.0</ele><time>2026-03-28T10:03:07.469Z</time></trkpt><trkpt lat="43.6381267" lon="11.557075"><ele>312.3333333333333</ele><time>2026-03-28T10:03:08.469Z</time></trkpt><trkpt lat="43.6381817" lon="11.5570167"><ele>312.6666666666667</ele><time>2026-03-28T10:03:09.468Z</time></trkpt><trkpt lat="43.6382317" lon="11.5569433"><ele>313.0</ele><time>2026-03-28T10:03:10.469Z</time></trkpt><trkpt lat="43.63826" lon="11.5568483"><ele>313.33333333333337</ele><time>2026-03-28T10:03:11.47Z</time></trkpt><trkpt lat="43.6382717" lon="11.55675"><ele>313.6666666666667</ele><time>2026-03-28T10:03:12.468Z</time></trkpt><trkpt lat="43.638255" lon="11.5565883"><ele>314.0</ele><time>2026-03-28T10:03:14.469Z</time></trkpt><trkpt lat="43.638235" lon="11.5564467"><ele>314.0</ele><time>2026-03-28T10:03:16.471Z</time></trkpt><trkpt lat="43.6382367" lon="11.55631"><ele>314.0</ele><time>2026-03-28T10:03:18.469Z</time></trkpt><trkpt lat="43.6382717" lon="11.55619"><ele>314.0</ele><time>2026-03-28T10:03:20.47Z</time></trkpt><trkpt lat="43.6383233" lon="11.5561017"><ele>314.0</ele><time>2026-03-28T10:03:22.469Z</time></trkpt><trkpt lat="43.6383917" lon="11.5560417"><ele>314.0</ele><time>2026-03-28T10:03:24.468Z</time></trkpt><trkpt lat="43.6384683" lon="11.5559983"><ele>314.0</ele><time>2026-03-28T10:03:26.47Z</time></trkpt><trkpt lat="43.6385417" lon="11.555965"><ele>314.1666666666667</ele><time>2026-03-28T10:03:28.47Z</time></trkpt><trkpt lat="43.6386133" lon="11.5559217"><ele>314.33333333333337</ele><time>2026-03-28T10:03:30.47Z</time></trkpt><trkpt lat="43.63869" lon="11.555875"><ele>314.5</ele><time>2026-03-28T10:03:32.471Z</time></trkpt><trkpt lat="43.6387633" lon="11.5558333"><ele>314.6666666666667</ele><time>2026-03-28T10:03:34.47Z</time></trkpt><trkpt lat="43.6388383" lon="11.5557917"><ele>314.8333333333333</ele><time>2026-03-28T10:03:36.471Z</time></trkpt><trkpt lat="43.6389133" lon="11.5557567"><ele>315.0</ele><time>2026-03-28T10:03:38.472Z</time></trkpt><trkpt lat="43.638995" lon="11.5557317"><ele>315.6666666666667</ele><time>2026-03-28T10:03:40.471Z</time></trkpt><trkpt lat="43.639065" lon="11.5557083"><ele>316.3333333333333</ele><time>2026-03-28T10:03:42.471Z</time></trkpt><trkpt lat="43.6391417" lon="11.5556933"><ele>317.0</ele><time>2026-03-28T10:03:44.47Z</time></trkpt><trkpt lat="43.6392217" lon="11.5556883"><ele>317.66666666666663</ele><time>2026-03-28T10:03:46.469Z</time></trkpt><trkpt lat="43.6393083" lon="11.5556883"><ele>318.3333333333333</ele><time>2026-03-28T10:03:48.47Z</time></trkpt><trkpt lat="43.6393983" lon="11.555705"><ele>319.0</ele><time>2026-03-28T10:03:50.47Z</time></trkpt><trkpt lat="43.6394867" lon="11.5557233"><ele>319.8333333333333</ele><time>2026-03-28T10:03:52.469Z</time></trkpt><trkpt lat="43.6395733" lon="11.5557433"><ele>320.66666666666663</ele><time>2026-03-28T10:03:54.468Z</time></trkpt><trkpt lat="43.63966" lon="11.555775"><ele>321.5</ele><time>2026-03-28T10:03:56.47Z</time></trkpt><trkpt lat="43.63975" lon="11.5557983"><ele>322.3333333333333</ele><time>2026-03-28T10:03:58.468Z</time></trkpt><trkpt lat="43.6398367" lon="11.55582"><ele>323.1666666666667</ele><time>2026-03-28T10:04:00.473Z</time></trkpt><trkpt lat="43.6399217" lon="11.5558483"><ele>324.0</ele><time>2026-03-28T10:04:02.469Z</time></trkpt><trkpt lat="43.6400117" lon="11.555885"><ele>324.0</ele><time>2026-03-28T10:04:04.469Z</time></trkpt><trkpt lat="43.6401017" lon="11.5559267"><ele>324.0</ele><time>2026-03-28T10:04:06.468Z</time></trkpt><trkpt lat="43.64019" lon="11.5559517"><ele>324.0</ele><time>2026-03-28T10:04:08.469Z</time></trkpt><trkpt lat="43.6402783" lon="11.55598"><ele>324.0</ele><time>2026-03-28T10:04:10.469Z</time></trkpt><trkpt lat="43.6403683" lon="11.5560133"><ele>324.0</ele><time>2026-03-28T10:04:12.471Z</time></trkpt><trkpt lat="43.64046" lon="11.5560283"><ele>324.79999999999995</ele><time>2026-03-28T10:04:14.474Z</time></trkpt><trkpt lat="43.6405467" lon="11.5559967"><ele>325.59999999999997</ele><time>2026-03-28T10:04:16.468Z</time></trkpt><trkpt lat="43.6406183" lon="11.5559183"><ele>326.4</ele><time>2026-03-28T10:04:18.469Z</time></trkpt><trkpt lat="43.6406517" lon="11.555785"><ele>327.2</ele><time>2026-03-28T10:04:20.468Z</time></trkpt><trkpt lat="43.64066" lon="11.5556433"><ele>328.0</ele><time>2026-03-28T10:04:22.469Z</time></trkpt><trkpt lat="43.64066" lon="11.5555133"><ele>328.0</ele><time>2026-03-28T10:04:24.469Z</time></trkpt><trkpt lat="43.6406533" lon="11.5553883"><ele>328.0</ele><time>2026-03-28T10:04:26.471Z</time></trkpt><trkpt lat="43.64064" lon="11.5552633"><ele>328.0</ele><time>2026-03-28T10:04:28.469Z</time></trkpt><trkpt lat="43.64063" lon="11.55514"><ele>328.0</ele><time>2026-03-28T10:04:30.468Z</time></trkpt><trkpt lat="43.6406233" lon="11.5550167"><ele>328.0</ele><time>2026-03-28T10:04:32.469Z</time></trkpt><trkpt lat="43.64063" lon="11.554895"><ele>328.0</ele><time>2026-03-28T10:04:34.469Z</time></trkpt><trkpt lat="43.6406633" lon="11.554775"><ele>328.0</ele><time>2026-03-28T10:04:36.469Z</time></trkpt><trkpt lat="43.640725" lon="11.554675"><ele>328.0</ele><time>2026-03-28T10:04:38.471Z</time></trkpt><trkpt lat="43.6408067" lon="11.5545967"><ele>328.0</ele><time>2026-03-28T10:04:40.471Z</time></trkpt><trkpt lat="43.6409083" lon="11.5545483"><ele>328.0</ele><time>2026-03-28T10:04:42.472Z</time></trkpt><trkpt lat="43.6410133" lon="11.5545167"><ele>328.0</ele><time>2026-03-28T10:04:44.47Z</time></trkpt><trkpt lat="43.6411167" lon="11.5544667"><ele>328.0</ele><time>2026-03-28T10:04:46.47Z</time></trkpt><trkpt lat="43.6412033" lon="11.5543717"><ele>328.0</ele><time>2026-03-28T10:04:48.471Z</time></trkpt><trkpt lat="43.6412433" lon="11.5542283"><ele>328.0</ele><time>2026-03-28T10:04:50.471Z</time></trkpt><trkpt lat="43.6412367" lon="11.554075"><ele>328.0</ele><time>2026-03-28T10:04:52.469Z</time></trkpt><trkpt lat="43.6412017" lon="11.5539283"><ele>329.4</ele><time>2026-03-28T10:04:54.469Z</time></trkpt><trkpt lat="43.6411683" lon="11.55378"><ele>330.79999999999995</ele><time>2026-03-28T10:04:56.47Z</time></trkpt><trkpt lat="43.6411517" lon="11.5536233"><ele>332.2</ele><time>2026-03-28T10:04:58.468Z</time></trkpt><trkpt lat="43.64116" lon="11.5534717"><ele>333.6</ele><time>2026-03-28T10:05:00.469Z</time></trkpt><trkpt lat="43.641205" lon="11.55333"><ele>335.0</ele><time>2026-03-28T10:05:02.47Z</time></trkpt><trkpt lat="43.6412833" lon="11.5532233"><ele>335.0</ele><time>2026-03-28T10:05:04.469Z</time></trkpt><trkpt lat="43.6413667" lon="11.55315"><ele>335.0</ele><time>2026-03-28T10:05:06.469Z</time></trkpt><trkpt lat="43.641455" lon="11.5530833"><ele>335.0</ele><time>2026-03-28T10:05:08.47Z</time></trkpt><trkpt lat="43.641545" lon="11.5530183"><ele>335.0</ele><time>2026-03-28T10:05:10.47Z</time></trkpt><trkpt lat="43.6416383" lon="11.5529633"><ele>335.0</ele><time>2026-03-28T10:05:12.469Z</time></trkpt><trkpt lat="43.641735" lon="11.5529267"><ele>335.0</ele><time>2026-03-28T10:05:14.47Z</time></trkpt><trkpt lat="43.6418333" lon="11.55292"><ele>335.0</ele><time>2026-03-28T10:05:16.471Z</time></trkpt><trkpt lat="43.64194" lon="11.5529467"><ele>335.0</ele><time>2026-03-28T10:05:18.469Z</time></trkpt><trkpt lat="43.6420417" lon="11.552985"><ele>335.0</ele><time>2026-03-28T10:05:20.471Z</time></trkpt><trkpt lat="43.6421333" lon="11.5530167"><ele>335.0</ele><time>2026-03-28T10:05:22.471Z</time></trkpt><trkpt lat="43.642205" lon="11.5530083"><ele>335.8</ele><time>2026-03-28T10:05:24.471Z</time></trkpt><trkpt lat="43.64226" lon="11.5529517"><ele>336.6</ele><time>2026-03-28T10:05:26.469Z</time></trkpt><trkpt lat="43.642305" lon="11.5528367"><ele>337.4</ele><time>2026-03-28T10:05:28.47Z</time></trkpt><trkpt lat="43.6423433" lon="11.55269"><ele>338.2</ele><time>2026-03-28T10:05:30.47Z</time></trkpt><trkpt lat="43.642365" lon="11.55254"><ele>339.0</ele><time>2026-03-28T10:05:32.469Z</time></trkpt><trkpt lat="43.642375" lon="11.5524"><ele>339.0</ele><time>2026-03-28T10:05:34.47Z</time></trkpt><trkpt lat="43.642375" lon="11.552265"><ele>339.0</ele><time>2026-03-28T10:05:36.47Z</time></trkpt><trkpt lat="43.6423833" lon="11.55213"><ele>339.0</ele><time>2026-03-28T10:05:38.47Z</time></trkpt><trkpt lat="43.6423967" lon="11.551995"><ele>339.0</ele><time>2026-03-28T10:05:40.469Z</time></trkpt><trkpt lat="43.6424217" lon="11.5518617"><ele>339.0</ele><time>2026-03-28T10:05:42.469Z</time></trkpt><trkpt lat="43.6424683" lon="11.5517333"><ele>339.4</ele><time>2026-03-28T10:05:44.469Z</time></trkpt><trkpt lat="43.6425283" lon="11.55161"><ele>339.79999999999995</ele><time>2026-03-28T10:05:46.471Z</time></trkpt><trkpt lat="43.642595" lon="11.5514983"><ele>340.20000000000005</ele><time>2026-03-28T10:05:48.469Z</time></trkpt><trkpt lat="43.6426683" lon="11.5513883"><ele>340.6</ele><time>2026-03-28T10:05:50.469Z</time></trkpt><trkpt lat="43.642735" lon="11.551275"><ele>341.0</ele><time>2026-03-28T10:05:52.47Z</time></trkpt><trkpt lat="43.64281" lon="11.5511617"><ele>341.25</ele><time>2026-03-28T10:05:54.468Z</time></trkpt><trkpt lat="43.6428883" lon="11.5510433"><ele>341.5</ele><time>2026-03-28T10:05:56.47Z</time></trkpt><trkpt lat="43.642975" lon="11.5509317"><ele>341.75</ele><time>2026-03-28T10:05:58.469Z</time></trkpt><trkpt lat="43.6430617" lon="11.550815"><ele>342.0</ele><time>2026-03-28T10:06:00.469Z</time></trkpt><trkpt lat="43.643135" lon="11.5506917"><ele>342.0</ele><time>2026-03-28T10:06:02.47Z</time></trkpt><trkpt lat="43.643195" lon="11.550555"><ele>342.0</ele><time>2026-03-28T10:06:04.47Z</time></trkpt><trkpt lat="43.643245" lon="11.550405"><ele>342.0</ele><time>2026-03-28T10:06:06.469Z</time></trkpt><trkpt lat="43.6432917" lon="11.5502533"><ele>342.0</ele><time>2026-03-28T10:06:08.47Z</time></trkpt><trkpt lat="43.6433383" lon="11.550095"><ele>342.0</ele><time>2026-03-28T10:06:10.47Z</time></trkpt><trkpt lat="43.6433817" lon="11.5499417"><ele>342.0</ele><time>2026-03-28T10:06:12.468Z</time></trkpt><trkpt lat="43.6434167" lon="11.5497967"><ele>342.0</ele><time>2026-03-28T10:06:14.47Z</time></trkpt><trkpt lat="43.6434533" lon="11.5496567"><ele>342.0</ele><time>2026-03-28T10:06:16.468Z</time></trkpt><trkpt lat="43.6434917" lon="11.5495167"><ele>342.0</ele><time>2026-03-28T10:06:18.472Z</time></trkpt><trkpt lat="43.6435267" lon="11.5493867"><ele>342.25</ele><time>2026-03-28T10:06:20.469Z</time></trkpt><trkpt lat="43.6435667" lon="11.5492417"><ele>342.5</ele><time>2026-03-28T10:06:22.471Z</time></trkpt><trkpt lat="43.6436083" lon="11.5491033"><ele>342.75</ele><time>2026-03-28T10:06:24.469Z</time></trkpt><trkpt lat="43.6436583" lon="11.5489633"><ele>343.0</ele><time>2026-03-28T10:06:26.47Z</time></trkpt><trkpt lat="43.6437217" lon="11.5488183"><ele>344.0</ele><time>2026-03-28T10:06:28.47Z</time></trkpt><trkpt lat="43.6437833" lon="11.548685"><ele>345.0</ele><time>2026-03-28T10:06:30.47Z</time></trkpt><trkpt lat="43.643845" lon="11.5485533"><ele>346.0</ele><time>2026-03-28T10:06:32.469Z</time></trkpt><trkpt lat="43.6439167" lon="11.5484367"><ele>347.0</ele><time>2026-03-28T10:06:34.469Z</time></trkpt><trkpt lat="43.643985" lon="11.5483267"><ele>348.0</ele><time>2026-03-28T10:06:36.468Z</time></trkpt><trkpt lat="43.644045" lon="11.5482183"><ele>348.0</ele><time>2026-03-28T10:06:38.471Z</time></trkpt><trkpt lat="43.644105" lon="11.548105"><ele>348.0</ele><time>2026-03-28T10:06:40.47Z</time></trkpt><trkpt lat="43.6441667" lon="11.5479917"><ele>348.0</ele><time>2026-03-28T10:06:42.469Z</time></trkpt><trkpt lat="43.6442317" lon="11.5478833"><ele>348.0</ele><time>2026-03-28T10:06:44.47Z</time></trkpt><trkpt lat="43.6443" lon="11.5477817"><ele>348.0</ele><time>2026-03-28T10:06:46.469Z</time></trkpt><trkpt lat="43.6443717" lon="11.547705"><ele>348.2</ele><time>2026-03-28T10:06:48.469Z</time></trkpt><trkpt lat="43.6444567" lon="11.54767"><ele>348.4</ele><time>2026-03-28T10:06:50.47Z</time></trkpt><trkpt lat="43.6445467" lon="11.5476883"><ele>348.59999999999997</ele><time>2026-03-28T10:06:52.469Z</time></trkpt><trkpt lat="43.64463" lon="11.5477433"><ele>348.79999999999995</ele><time>2026-03-28T10:06:54.47Z</time></trkpt><trkpt lat="43.6447067" lon="11.547815"><ele>349.0</ele><time>2026-03-28T10:06:56.47Z</time></trkpt><trkpt lat="43.6447783" lon="11.5478833"><ele>349.0</ele><time>2026-03-28T10:06:58.469Z</time></trkpt><trkpt lat="43.6448567" lon="11.5479483"><ele>349.0</ele><time>2026-03-28T10:07:00.469Z</time></trkpt><trkpt lat="43.6449333" lon="11.5480183"><ele>349.0</ele><time>2026-03-28T10:07:02.47Z</time></trkpt><trkpt lat="43.6450133" lon="11.5480933"><ele>349.0</ele><time>2026-03-28T10:07:04.469Z</time></trkpt><trkpt lat="43.645085" lon="11.5481667"><ele>349.0</ele><time>2026-03-28T10:07:06.469Z</time></trkpt><trkpt lat="43.6451617" lon="11.5482333"><ele>349.0</ele><time>2026-03-28T10:07:08.469Z</time></trkpt><trkpt lat="43.6452417" lon="11.5483183"><ele>349.0</ele><time>2026-03-28T10:07:10.469Z</time></trkpt><trkpt lat="43.6453167" lon="11.5483983"><ele>349.0</ele><time>2026-03-28T10:07:12.469Z</time></trkpt><trkpt lat="43.6453933" lon="11.5484767"><ele>349.0</ele><time>2026-03-28T10:07:14.47Z</time></trkpt><trkpt lat="43.6454717" lon="11.5485517"><ele>349.0</ele><time>2026-03-28T10:07:16.468Z</time></trkpt><trkpt lat="43.645545" lon="11.5486267"><ele>348.66666666666663</ele><time>2026-03-28T10:07:18.47Z</time></trkpt><trkpt lat="43.6456183" lon="11.5486983"><ele>348.3333333333333</ele><time>2026-03-28T10:07:20.469Z</time></trkpt><trkpt lat="43.6456917" lon="11.548765"><ele>348.0</ele><time>2026-03-28T10:07:22.468Z</time></trkpt><trkpt lat="43.6457617" lon="11.5488367"><ele>347.6666666666667</ele><time>2026-03-28T10:07:24.466Z</time></trkpt><trkpt lat="43.6458283" lon="11.5489033"><ele>347.33333333333337</ele><time>2026-03-28T10:07:26.468Z</time></trkpt><trkpt lat="43.6458917" lon="11.5489667"><ele>347.0</ele><time>2026-03-28T10:07:28.469Z</time></trkpt><trkpt lat="43.6459483" lon="11.5490433"><ele>348.0</ele><time>2026-03-28T10:07:30.468Z</time></trkpt><trkpt lat="43.6459933" lon="11.5491383"><ele>349.0</ele><time>2026-03-28T10:07:32.469Z</time></trkpt><trkpt lat="43.64603" lon="11.5492567"><ele>350.0</ele><time>2026-03-28T10:07:34.469Z</time></trkpt><trkpt lat="43.6460483" lon="11.54938"><ele>351.0</ele><time>2026-03-28T10:07:36.469Z</time></trkpt><trkpt lat="43.646065" lon="11.5495033"><ele>352.0</ele><time>2026-03-28T10:07:38.468Z</time></trkpt><trkpt lat="43.6460767" lon="11.5496283"><ele>353.0</ele><time>2026-03-28T10:07:40.469Z</time></trkpt><trkpt lat="43.6460933" lon="11.5497583"><ele>351.79999999999995</ele><time>2026-03-28T10:07:42.468Z</time></trkpt><trkpt lat="43.6461183" lon="11.54988"><ele>350.6</ele><time>2026-03-28T10:07:44.469Z</time></trkpt><trkpt lat="43.64616" lon="11.549995"><ele>349.4</ele><time>2026-03-28T10:07:46.467Z</time></trkpt><trkpt lat="43.6462117" lon="11.5500983"><ele>348.20000000000005</ele><time>2026-03-28T10:07:48.468Z</time></trkpt><trkpt lat="43.6462667" lon="11.5501983"><ele>347.0</ele><time>2026-03-28T10:07:50.469Z</time></trkpt><trkpt lat="43.6463167" lon="11.5503083"><ele>349.1666666666667</ele><time>2026-03-28T10:07:52.47Z</time></trkpt><trkpt lat="43.64637" lon="11.55041"><ele>351.33333333333337</ele><time>2026-03-28T10:07:54.468Z</time></trkpt><trkpt lat="43.6464167" lon="11.550505"><ele>353.5</ele><time>2026-03-28T10:07:56.469Z</time></trkpt><trkpt lat="43.6464717" lon="11.5505983"><ele>355.6666666666667</ele><time>2026-03-28T10:07:58.469Z</time></trkpt><trkpt lat="43.6465267" lon="11.5506883"><ele>357.8333333333333</ele><time>2026-03-28T10:08:00.469Z</time></trkpt><trkpt lat="43.6465783" lon="11.5507817"><ele>360.0</ele><time>2026-03-28T10:08:02.469Z</time></trkpt><trkpt lat="43.6466333" lon="11.5508833"><ele>360.0</ele><time>2026-03-28T10:08:04.468Z</time></trkpt><trkpt lat="43.6466883" lon="11.5509867"><ele>360.0</ele><time>2026-03-28T10:08:06.47Z</time></trkpt><trkpt lat="43.64674" lon="11.5510917"><ele>360.0</ele><time>2026-03-28T10:08:08.469Z</time></trkpt><trkpt lat="43.6467967" lon="11.5511967"><ele>360.0</ele><time>2026-03-28T10:08:10.467Z</time></trkpt><trkpt lat="43.646855" lon="11.5512983"><ele>360.0</ele><time>2026-03-28T10:08:12.469Z</time></trkpt><trkpt lat="43.6469133" lon="11.551405"><ele>359.2</ele><time>2026-03-28T10:08:14.469Z</time></trkpt><trkpt lat="43.64697" lon="11.5515133"><ele>358.4</ele><time>2026-03-28T10:08:16.469Z</time></trkpt><trkpt lat="43.647025" lon="11.5516183"><ele>357.6</ele><time>2026-03-28T10:08:18.468Z</time></trkpt><trkpt lat="43.64708" lon="11.551715"><ele>356.8</ele><time>2026-03-28T10:08:20.469Z</time></trkpt><trkpt lat="43.6471367" lon="11.5518"><ele>356.0</ele><time>2026-03-28T10:08:22.468Z</time></trkpt><trkpt lat="43.6472033" lon="11.551885"><ele>356.0</ele><time>2026-03-28T10:08:24.47Z</time></trkpt><trkpt lat="43.6472767" lon="11.55195"><ele>356.0</ele><time>2026-03-28T10:08:26.471Z</time></trkpt><trkpt lat="43.6473683" lon="11.5520117"><ele>356.0</ele><time>2026-03-28T10:08:28.468Z</time></trkpt><trkpt lat="43.647465" lon="11.5520783"><ele>356.0</ele><time>2026-03-28T10:08:30.47Z</time></trkpt><trkpt lat="43.64757" lon="11.5521433"><ele>356.0</ele><time>2026-03-28T10:08:32.469Z</time></trkpt><trkpt lat="43.6476683" lon="11.5522217"><ele>356.71428571428567</ele><time>2026-03-28T10:08:34.47Z</time></trkpt><trkpt lat="43.6477683" lon="11.5523167"><ele>357.42857142857144</ele><time>2026-03-28T10:08:36.47Z</time></trkpt><trkpt lat="43.64782" lon="11.55237"><ele>358.1428571428571</ele><time>2026-03-28T10:08:37.469Z</time></trkpt><trkpt lat="43.6478717" lon="11.55242"><ele>358.85714285714283</ele><time>2026-03-28T10:08:38.469Z</time></trkpt><trkpt lat="43.647925" lon="11.55247"><ele>359.57142857142856</ele><time>2026-03-28T10:08:39.469Z</time></trkpt><trkpt lat="43.6479783" lon="11.5525217"><ele>360.2857142857143</ele><time>2026-03-28T10:08:40.468Z</time></trkpt><trkpt lat="43.64803" lon="11.5525767"><ele>361.0</ele><time>2026-03-28T10:08:41.468Z</time></trkpt><trkpt lat="43.6480833" lon="11.5526267"><ele>361.0</ele><time>2026-03-28T10:08:42.469Z</time></trkpt><trkpt lat="43.6481383" lon="11.5526783"><ele>361.0</ele><time>2026-03-28T10:08:43.469Z</time></trkpt><trkpt lat="43.6481933" lon="11.552735"><ele>361.0</ele><time>2026-03-28T10:08:44.471Z</time></trkpt><trkpt lat="43.64825" lon="11.5527867"><ele>361.0</ele><time>2026-03-28T10:08:45.47Z</time></trkpt><trkpt lat="43.6483067" lon="11.5528367"><ele>361.0</ele><time>2026-03-28T10:08:46.469Z</time></trkpt><trkpt lat="43.6483633" lon="11.5528983"><ele>361.0</ele><time>2026-03-28T10:08:47.469Z</time></trkpt><trkpt lat="43.6484183" lon="11.55295"><ele>361.0</ele><time>2026-03-28T10:08:48.468Z</time></trkpt><trkpt lat="43.648475" lon="11.553"><ele>362.14285714285717</ele><time>2026-03-28T10:08:49.471Z</time></trkpt><trkpt lat="43.6485317" lon="11.55305"><ele>363.2857142857143</ele><time>2026-03-28T10:08:50.469Z</time></trkpt><trkpt lat="43.6485917" lon="11.5531083"><ele>364.42857142857144</ele><time>2026-03-28T10:08:51.47Z</time></trkpt><trkpt lat="43.6486533" lon="11.5531617"><ele>365.57142857142856</ele><time>2026-03-28T10:08:52.468Z</time></trkpt><trkpt lat="43.6487133" lon="11.5532167"><ele>366.71428571428567</ele><time>2026-03-28T10:08:53.469Z</time></trkpt><trkpt lat="43.6487733" lon="11.5532817"><ele>367.85714285714283</ele><time>2026-03-28T10:08:54.469Z</time></trkpt><trkpt lat="43.6488333" lon="11.55334"><ele>369.0</ele><time>2026-03-28T10:08:55.469Z</time></trkpt><trkpt lat="43.6488933" lon="11.5534"><ele>369.0</ele><time>2026-03-28T10:08:56.473Z</time></trkpt><trkpt lat="43.6489533" lon="11.553455"><ele>369.0</ele><time>2026-03-28T10:08:57.469Z</time></trkpt><trkpt lat="43.6490183" lon="11.5535033"><ele>369.0</ele><time>2026-03-28T10:08:58.469Z</time></trkpt><trkpt lat="43.6490867" lon="11.5535283"><ele>369.0</ele><time>2026-03-28T10:08:59.468Z</time></trkpt><trkpt lat="43.6491583" lon="11.5535217"><ele>369.0</ele><time>2026-03-28T10:09:00.469Z</time></trkpt><trkpt lat="43.6492217" lon="11.5534917"><ele>369.0</ele><time>2026-03-28T10:09:01.468Z</time></trkpt><trkpt lat="43.6492717" lon="11.553425"><ele>369.0</ele><time>2026-03-28T10:09:02.47Z</time></trkpt><trkpt lat="43.6493117" lon="11.5533367"><ele>369.0</ele><time>2026-03-28T10:09:03.469Z</time></trkpt><trkpt lat="43.6493567" lon="11.553255"><ele>369.0</ele><time>2026-03-28T10:09:04.469Z</time></trkpt><trkpt lat="43.6494" lon="11.55317"><ele>369.0</ele><time>2026-03-28T10:09:05.471Z</time></trkpt><trkpt lat="43.6494383" lon="11.5530817"><ele>369.0</ele><time>2026-03-28T10:09:06.47Z</time></trkpt><trkpt lat="43.6494617" lon="11.5529833"><ele>369.0</ele><time>2026-03-28T10:09:07.468Z</time></trkpt><trkpt lat="43.6494683" lon="11.5528817"><ele>369.0</ele><time>2026-03-28T10:09:08.469Z</time></trkpt><trkpt lat="43.6494567" lon="11.55278"><ele>369.0</ele><time>2026-03-28T10:09:09.468Z</time></trkpt><trkpt lat="43.6494283" lon="11.5526867"><ele>368.2857142857143</ele><time>2026-03-28T10:09:10.471Z</time></trkpt><trkpt lat="43.6493933" lon="11.5525967"><ele>367.57142857142856</ele><time>2026-03-28T10:09:11.468Z</time></trkpt><trkpt lat="43.649355" lon="11.5525067"><ele>366.8571428571429</ele><time>2026-03-28T10:09:12.468Z</time></trkpt><trkpt lat="43.6493183" lon="11.5524183"><ele>366.1428571428571</ele><time>2026-03-28T10:09:13.468Z</time></trkpt><trkpt lat="43.64928" lon="11.55233"><ele>365.42857142857144</ele><time>2026-03-28T10:09:14.471Z</time></trkpt><trkpt lat="43.6492433" lon="11.55224"><ele>364.7142857142857</ele><time>2026-03-28T10:09:15.473Z</time></trkpt><trkpt lat="43.6492033" lon="11.5521517"><ele>364.0</ele><time>2026-03-28T10:09:16.473Z</time></trkpt><trkpt lat="43.64916" lon="11.5520683"><ele>364.57142857142856</ele><time>2026-03-28T10:09:17.471Z</time></trkpt><trkpt lat="43.649115" lon="11.551985"><ele>365.1428571428571</ele><time>2026-03-28T10:09:18.472Z</time></trkpt><trkpt lat="43.6490667" lon="11.551905"><ele>365.7142857142857</ele><time>2026-03-28T10:09:19.471Z</time></trkpt><trkpt lat="43.6490233" lon="11.5518233"><ele>366.2857142857143</ele><time>2026-03-28T10:09:20.472Z</time></trkpt><trkpt lat="43.64898" lon="11.5517383"><ele>366.85714285714283</ele><time>2026-03-28T10:09:21.469Z</time></trkpt><trkpt lat="43.64894" lon="11.551655"><ele>367.42857142857144</ele><time>2026-03-28T10:09:22.469Z</time></trkpt><trkpt lat="43.6489067" lon="11.55157"><ele>368.0</ele><time>2026-03-28T10:09:23.469Z</time></trkpt><trkpt lat="43.6488817" lon="11.5514817"><ele>368.0</ele><time>2026-03-28T10:09:24.468Z</time></trkpt><trkpt lat="43.6488633" lon="11.5513917"><ele>368.0</ele><time>2026-03-28T10:09:25.469Z</time></trkpt><trkpt lat="43.64885" lon="11.5513033"><ele>368.0</ele><time>2026-03-28T10:09:26.469Z</time></trkpt><trkpt lat="43.6488367" lon="11.551215"><ele>368.0</ele><time>2026-03-28T10:09:27.469Z</time></trkpt><trkpt lat="43.648825" lon="11.5511283"><ele>368.0</ele><time>2026-03-28T10:09:28.469Z</time></trkpt><trkpt lat="43.6488133" lon="11.5510417"><ele>368.0</ele><time>2026-03-28T10:09:29.47Z</time></trkpt><trkpt lat="43.6487883" lon="11.5508833"><ele>368.0</ele><time>2026-03-28T10:09:31.471Z</time></trkpt><trkpt lat="43.6487533" lon="11.5507283"><ele>368.79999999999995</ele><time>2026-03-28T10:09:33.47Z</time></trkpt><trkpt lat="43.64872" lon="11.5505683"><ele>369.6</ele><time>2026-03-28T10:09:35.471Z</time></trkpt><trkpt lat="43.6487033" lon="11.5504817"><ele>370.4</ele><time>2026-03-28T10:09:36.473Z</time></trkpt><trkpt lat="43.6486767" lon="11.55031"><ele>371.20000000000005</ele><time>2026-03-28T10:09:38.471Z</time></trkpt><trkpt lat="43.6486483" lon="11.5501417"><ele>372.0</ele><time>2026-03-28T10:09:40.471Z</time></trkpt><trkpt lat="43.6486383" lon="11.550055"><ele>372.00000000000006</ele><time>2026-03-28T10:09:41.471Z</time></trkpt><trkpt lat="43.6486367" lon="11.549965"><ele>372.0</ele><time>2026-03-28T10:09:42.47Z</time></trkpt><trkpt lat="43.64864" lon="11.5498733"><ele>372.0</ele><time>2026-03-28T10:09:43.47Z</time></trkpt><trkpt lat="43.6486467" lon="11.5497817"><ele>372.0</ele><time>2026-03-28T10:09:44.473Z</time></trkpt><trkpt lat="43.6486533" lon="11.54969"><ele>372.0</ele><time>2026-03-28T10:09:45.471Z</time></trkpt><trkpt lat="43.6486617" lon="11.5496"><ele>372.00000000000006</ele><time>2026-03-28T10:09:46.47Z</time></trkpt><trkpt lat="43.64867" lon="11.5495083"><ele>372.0</ele><time>2026-03-28T10:09:47.472Z</time></trkpt><trkpt lat="43.648675" lon="11.5494183"><ele>371.8333333333333</ele><time>2026-03-28T10:09:48.47Z</time></trkpt><trkpt lat="43.6486817" lon="11.54933"><ele>371.6666666666667</ele><time>2026-03-28T10:09:49.47Z</time></trkpt><trkpt lat="43.6486917" lon="11.5492433"><ele>371.5</ele><time>2026-03-28T10:09:50.473Z</time></trkpt><trkpt lat="43.64871" lon="11.5491567"><ele>371.33333333333337</ele><time>2026-03-28T10:09:51.471Z</time></trkpt><trkpt lat="43.6487333" lon="11.549075"><ele>371.1666666666667</ele><time>2026-03-28T10:09:52.472Z</time></trkpt><trkpt lat="43.64879" lon="11.5489217"><ele>371.0</ele><time>2026-03-28T10:09:54.472Z</time></trkpt><trkpt lat="43.6488717" lon="11.5487917"><ele>371.0</ele><time>2026-03-28T10:09:56.468Z</time></trkpt><trkpt lat="43.6489267" lon="11.548745"><ele>371.0</ele><time>2026-03-28T10:09:57.469Z</time></trkpt><trkpt lat="43.6489883" lon="11.54871"><ele>371.0</ele><time>2026-03-28T10:09:58.47Z</time></trkpt><trkpt lat="43.6490517" lon="11.548685"><ele>371.0</ele><time>2026-03-28T10:09:59.47Z</time></trkpt><trkpt lat="43.6491167" lon="11.5486817"><ele>371.0</ele><time>2026-03-28T10:10:00.47Z</time></trkpt><trkpt lat="43.6492417" lon="11.5487067"><ele>371.0</ele><time>2026-03-28T10:10:02.471Z</time></trkpt><trkpt lat="43.6493033" lon="11.54873"><ele>371.0</ele><time>2026-03-28T10:10:03.473Z</time></trkpt><trkpt lat="43.6493683" lon="11.5487583"><ele>371.0</ele><time>2026-03-28T10:10:04.47Z</time></trkpt><trkpt lat="43.6494317" lon="11.5487833"><ele>371.0</ele><time>2026-03-28T10:10:05.473Z</time></trkpt><trkpt lat="43.649495" lon="11.5488083"><ele>371.0</ele><time>2026-03-28T10:10:06.469Z</time></trkpt><trkpt lat="43.64956" lon="11.5488367"><ele>371.0</ele><time>2026-03-28T10:10:07.47Z</time></trkpt><trkpt lat="43.6496233" lon="11.5488667"><ele>371.0</ele><time>2026-03-28T10:10:08.469Z</time></trkpt><trkpt lat="43.6496833" lon="11.5488983"><ele>371.0</ele><time>2026-03-28T10:10:09.47Z</time></trkpt><trkpt lat="43.6497467" lon="11.5489333"><ele>370.42857142857144</ele><time>2026-03-28T10:10:10.469Z</time></trkpt><trkpt lat="43.64981" lon="11.54897"><ele>369.8571428571429</ele><time>2026-03-28T10:10:11.469Z</time></trkpt><trkpt lat="43.6498733" lon="11.5490083"><ele>369.2857142857143</ele><time>2026-03-28T10:10:12.471Z</time></trkpt><trkpt lat="43.6499333" lon="11.54905"><ele>368.7142857142857</ele><time>2026-03-28T10:10:13.468Z</time></trkpt><trkpt lat="43.6499967" lon="11.5490917"><ele>368.14285714285717</ele><time>2026-03-28T10:10:14.471Z</time></trkpt><trkpt lat="43.650065" lon="11.5491367"><ele>367.57142857142856</ele><time>2026-03-28T10:10:15.468Z</time></trkpt><trkpt lat="43.650135" lon="11.549185"><ele>367.0</ele><time>2026-03-28T10:10:16.467Z</time></trkpt><trkpt lat="43.650205" lon="11.5492333"><ele>367.0</ele><time>2026-03-28T10:10:17.469Z</time></trkpt><trkpt lat="43.650275" lon="11.5492867"><ele>367.0</ele><time>2026-03-28T10:10:18.47Z</time></trkpt><trkpt lat="43.6503417" lon="11.5493517"><ele>367.0</ele><time>2026-03-28T10:10:19.469Z</time></trkpt><trkpt lat="43.6504067" lon="11.5494233"><ele>367.0</ele><time>2026-03-28T10:10:20.471Z</time></trkpt><trkpt lat="43.6504683" lon="11.54949"><ele>367.0</ele><time>2026-03-28T10:10:21.47Z</time></trkpt><trkpt lat="43.6505333" lon="11.5495617"><ele>367.0</ele><time>2026-03-28T10:10:22.469Z</time></trkpt><trkpt lat="43.6506017" lon="11.54962"><ele>368.5</ele><time>2026-03-28T10:10:23.468Z</time></trkpt><trkpt lat="43.6506767" lon="11.5496567"><ele>370.0</ele><time>2026-03-28T10:10:24.469Z</time></trkpt><trkpt lat="43.65076" lon="11.5496733"><ele>371.5</ele><time>2026-03-28T10:10:25.469Z</time></trkpt><trkpt lat="43.6508433" lon="11.54967"><ele>373.0</ele><time>2026-03-28T10:10:26.47Z</time></trkpt><trkpt lat="43.6509233" lon="11.5496533"><ele>374.5</ele><time>2026-03-28T10:10:27.469Z</time></trkpt><trkpt lat="43.651" lon="11.5496283"><ele>376.0</ele><time>2026-03-28T10:10:28.468Z</time></trkpt><trkpt lat="43.6510767" lon="11.549615"><ele>376.5</ele><time>2026-03-28T10:10:29.47Z</time></trkpt><trkpt lat="43.6511533" lon="11.5496133"><ele>377.0</ele><time>2026-03-28T10:10:30.468Z</time></trkpt><trkpt lat="43.6512283" lon="11.5496383"><ele>377.5</ele><time>2026-03-28T10:10:31.469Z</time></trkpt><trkpt lat="43.6512967" lon="11.5496717"><ele>378.0</ele><time>2026-03-28T10:10:32.469Z</time></trkpt><trkpt lat="43.6513567" lon="11.5496983"><ele>378.5</ele><time>2026-03-28T10:10:33.468Z</time></trkpt><trkpt lat="43.65148" lon="11.5497117"><ele>379.0</ele><time>2026-03-28T10:10:35.469Z</time></trkpt><trkpt lat="43.6515633" lon="11.5495867"><ele>377.8333333333333</ele><time>2026-03-28T10:10:37.469Z</time></trkpt><trkpt lat="43.65157" lon="11.5494833"><ele>376.66666666666663</ele><time>2026-03-28T10:10:38.472Z</time></trkpt><trkpt lat="43.6515617" lon="11.5493883"><ele>375.5</ele><time>2026-03-28T10:10:39.471Z</time></trkpt><trkpt lat="43.6515483" lon="11.5492867"><ele>374.3333333333333</ele><time>2026-03-28T10:10:40.473Z</time></trkpt><trkpt lat="43.6515217" lon="11.5491883"><ele>373.1666666666667</ele><time>2026-03-28T10:10:41.47Z</time></trkpt><trkpt lat="43.65149" lon="11.5490917"><ele>372.0</ele><time>2026-03-28T10:10:42.473Z</time></trkpt><trkpt lat="43.65146" lon="11.5489917"><ele>372.0</ele><time>2026-03-28T10:10:43.468Z</time></trkpt><trkpt lat="43.6514233" lon="11.5488917"><ele>372.0</ele><time>2026-03-28T10:10:44.471Z</time></trkpt><trkpt lat="43.6513867" lon="11.5487933"><ele>372.0</ele><time>2026-03-28T10:10:45.47Z</time></trkpt><trkpt lat="43.6513567" lon="11.5486917"><ele>372.0</ele><time>2026-03-28T10:10:46.469Z</time></trkpt><trkpt lat="43.6513333" lon="11.54859"><ele>372.0</ele><time>2026-03-28T10:10:47.47Z</time></trkpt><trkpt lat="43.651325" lon="11.5484867"><ele>372.0</ele><time>2026-03-28T10:10:48.469Z</time></trkpt><trkpt lat="43.6513467" lon="11.54838"><ele>371.5</ele><time>2026-03-28T10:10:49.471Z</time></trkpt><trkpt lat="43.6513967" lon="11.54829"><ele>371.0</ele><time>2026-03-28T10:10:50.472Z</time></trkpt><trkpt lat="43.6514617" lon="11.5482183"><ele>370.5</ele><time>2026-03-28T10:10:51.471Z</time></trkpt><trkpt lat="43.651535" lon="11.5481667"><ele>370.0</ele><time>2026-03-28T10:10:52.472Z</time></trkpt><trkpt lat="43.6516067" lon="11.5481067"><ele>369.5</ele><time>2026-03-28T10:10:53.469Z</time></trkpt><trkpt lat="43.6516667" lon="11.5480333"><ele>369.0</ele><time>2026-03-28T10:10:54.469Z</time></trkpt><trkpt lat="43.651715" lon="11.54794"><ele>368.2</ele><time>2026-03-28T10:10:55.469Z</time></trkpt><trkpt lat="43.65175" lon="11.5478317"><ele>367.4</ele><time>2026-03-28T10:10:56.47Z</time></trkpt><trkpt lat="43.651775" lon="11.5477133"><ele>366.6</ele><time>2026-03-28T10:10:57.469Z</time></trkpt><trkpt lat="43.6517983" lon="11.5475883"><ele>365.8</ele><time>2026-03-28T10:10:58.469Z</time></trkpt><trkpt lat="43.6518183" lon="11.5474633"><ele>365.0</ele><time>2026-03-28T10:10:59.47Z</time></trkpt><trkpt lat="43.6518467" lon="11.547335"><ele>365.0</ele><time>2026-03-28T10:11:00.469Z</time></trkpt><trkpt lat="43.6518817" lon="11.547215"><ele>365.0</ele><time>2026-03-28T10:11:01.468Z</time></trkpt><trkpt lat="43.6519217" lon="11.5471"><ele>365.0</ele><time>2026-03-28T10:11:02.468Z</time></trkpt><trkpt lat="43.65197" lon="11.5469867"><ele>365.0</ele><time>2026-03-28T10:11:03.471Z</time></trkpt><trkpt lat="43.6520083" lon="11.5468683"><ele>365.0</ele><time>2026-03-28T10:11:04.472Z</time></trkpt><trkpt lat="43.6520333" lon="11.5467417"><ele>365.4</ele><time>2026-03-28T10:11:05.471Z</time></trkpt><trkpt lat="43.6520467" lon="11.54661"><ele>365.8</ele><time>2026-03-28T10:11:06.471Z</time></trkpt><trkpt lat="43.65205" lon="11.54648"><ele>366.20000000000005</ele><time>2026-03-28T10:11:07.469Z</time></trkpt><trkpt lat="43.652055" lon="11.5463483"><ele>366.6</ele><time>2026-03-28T10:11:08.47Z</time></trkpt><trkpt lat="43.652065" lon="11.54622"><ele>367.0</ele><time>2026-03-28T10:11:09.469Z</time></trkpt><trkpt lat="43.652085" lon="11.5461"><ele>365.66666666666663</ele><time>2026-03-28T10:11:10.469Z</time></trkpt><trkpt lat="43.652115" lon="11.5459817"><ele>364.3333333333333</ele><time>2026-03-28T10:11:11.469Z</time></trkpt><trkpt lat="43.652155" lon="11.545875"><ele>363.0</ele><time>2026-03-28T10:11:12.47Z</time></trkpt><trkpt lat="43.6522133" lon="11.5457783"><ele>361.6666666666667</ele><time>2026-03-28T10:11:13.469Z</time></trkpt><trkpt lat="43.6522783" lon="11.5456983"><ele>360.33333333333337</ele><time>2026-03-28T10:11:14.473Z</time></trkpt><trkpt lat="43.6523533" lon="11.5456333"><ele>359.0</ele><time>2026-03-28T10:11:15.47Z</time></trkpt><trkpt lat="43.652435" lon="11.5455817"><ele>359.0</ele><time>2026-03-28T10:11:16.47Z</time></trkpt><trkpt lat="43.6525217" lon="11.5455417"><ele>359.0</ele><time>2026-03-28T10:11:17.471Z</time></trkpt><trkpt lat="43.6526067" lon="11.5455283"><ele>359.0</ele><time>2026-03-28T10:11:18.471Z</time></trkpt><trkpt lat="43.6526917" lon="11.5455433"><ele>359.0</ele><time>2026-03-28T10:11:19.472Z</time></trkpt><trkpt lat="43.65277" lon="11.5455867"><ele>359.0</ele><time>2026-03-28T10:11:20.471Z</time></trkpt><trkpt lat="43.65285" lon="11.54564"><ele>359.0</ele><time>2026-03-28T10:11:21.47Z</time></trkpt><trkpt lat="43.6529367" lon="11.545675"><ele>359.79999999999995</ele><time>2026-03-28T10:11:22.471Z</time></trkpt><trkpt lat="43.65303" lon="11.5456817"><ele>360.59999999999997</ele><time>2026-03-28T10:11:23.471Z</time></trkpt><trkpt lat="43.6531233" lon="11.5456683"><ele>361.4</ele><time>2026-03-28T10:11:24.471Z</time></trkpt><trkpt lat="43.653215" lon="11.5456417"><ele>362.2</ele><time>2026-03-28T10:11:25.471Z</time></trkpt><trkpt lat="43.653305" lon="11.545615"><ele>363.0</ele><time>2026-03-28T10:11:26.473Z</time></trkpt><trkpt lat="43.6533933" lon="11.54559"><ele>363.0</ele><time>2026-03-28T10:11:27.47Z</time></trkpt><trkpt lat="43.6534817" lon="11.5455683"><ele>363.0</ele><time>2026-03-28T10:11:28.471Z</time></trkpt><trkpt lat="43.65356" lon="11.545535"><ele>363.0</ele><time>2026-03-28T10:11:29.47Z</time></trkpt><trkpt lat="43.6536267" lon="11.5454867"><ele>363.0</ele><time>2026-03-28T10:11:30.47Z</time></trkpt><trkpt lat="43.653675" lon="11.5454267"><ele>363.0</ele><time>2026-03-28T10:11:31.473Z</time></trkpt><trkpt lat="43.6537033" lon="11.5452633"><ele>363.0</ele><time>2026-03-28T10:11:33.47Z</time></trkpt><trkpt lat="43.6537017" lon="11.5451667"><ele>363.1428571428571</ele><time>2026-03-28T10:11:34.469Z</time></trkpt><trkpt lat="43.6536983" lon="11.54507"><ele>363.2857142857143</ele><time>2026-03-28T10:11:35.469Z</time></trkpt><trkpt lat="43.653705" lon="11.544975"><ele>363.42857142857144</ele><time>2026-03-28T10:11:36.468Z</time></trkpt><trkpt lat="43.65373" lon="11.54488"><ele>363.57142857142856</ele><time>2026-03-28T10:11:37.47Z</time></trkpt><trkpt lat="43.6537733" lon="11.5448017"><ele>363.7142857142857</ele><time>2026-03-28T10:11:38.469Z</time></trkpt><trkpt lat="43.65383" lon="11.5447433"><ele>363.85714285714283</ele><time>2026-03-28T10:11:39.468Z</time></trkpt><trkpt lat="43.6538983" lon="11.5447117"><ele>364.0</ele><time>2026-03-28T10:11:40.469Z</time></trkpt><trkpt lat="43.653975" lon="11.5446867"><ele>364.0</ele><time>2026-03-28T10:11:41.469Z</time></trkpt><trkpt lat="43.65405" lon="11.5446517"><ele>364.0</ele><time>2026-03-28T10:11:42.47Z</time></trkpt><trkpt lat="43.6541217" lon="11.5446"><ele>364.0</ele><time>2026-03-28T10:11:43.471Z</time></trkpt><trkpt lat="43.6541783" lon="11.54453"><ele>364.0</ele><time>2026-03-28T10:11:44.473Z</time></trkpt><trkpt lat="43.6542117" lon="11.5444283"><ele>364.0</ele><time>2026-03-28T10:11:45.469Z</time></trkpt><trkpt lat="43.6542183" lon="11.5443117"><ele>364.0</ele><time>2026-03-28T10:11:46.469Z</time></trkpt><trkpt lat="43.654215" lon="11.544195"><ele>362.16666666666663</ele><time>2026-03-28T10:11:47.469Z</time></trkpt><trkpt lat="43.6542067" lon="11.5440833"><ele>360.3333333333333</ele><time>2026-03-28T10:11:48.47Z</time></trkpt><trkpt lat="43.6542133" lon="11.54397"><ele>358.5</ele><time>2026-03-28T10:11:49.468Z</time></trkpt><trkpt lat="43.6542367" lon="11.5438617"><ele>356.6666666666667</ele><time>2026-03-28T10:11:50.47Z</time></trkpt><trkpt lat="43.65427" lon="11.5437583"><ele>354.83333333333337</ele><time>2026-03-28T10:11:51.468Z</time></trkpt><trkpt lat="43.6543083" lon="11.5436567"><ele>353.0</ele><time>2026-03-28T10:11:52.47Z</time></trkpt><trkpt lat="43.6543483" lon="11.543555"><ele>354.0</ele><time>2026-03-28T10:11:53.47Z</time></trkpt><trkpt lat="43.654395" lon="11.543455"><ele>355.0</ele><time>2026-03-28T10:11:54.469Z</time></trkpt><trkpt lat="43.6544467" lon="11.5433617"><ele>356.0</ele><time>2026-03-28T10:11:55.469Z</time></trkpt><trkpt lat="43.6545033" lon="11.543275"><ele>357.0</ele><time>2026-03-28T10:11:56.471Z</time></trkpt><trkpt lat="43.6545683" lon="11.543195"><ele>358.0</ele><time>2026-03-28T10:11:57.471Z</time></trkpt><trkpt lat="43.6546367" lon="11.5431233"><ele>359.0</ele><time>2026-03-28T10:11:58.469Z</time></trkpt><trkpt lat="43.6547067" lon="11.54306"><ele>359.0</ele><time>2026-03-28T10:11:59.469Z</time></trkpt><trkpt lat="43.65478" lon="11.5430033"><ele>359.0</ele><time>2026-03-28T10:12:00.471Z</time></trkpt><trkpt lat="43.6548567" lon="11.54296"><ele>359.0</ele><time>2026-03-28T10:12:01.47Z</time></trkpt><trkpt lat="43.6549367" lon="11.5429317"><ele>359.0</ele><time>2026-03-28T10:12:02.47Z</time></trkpt><trkpt lat="43.6550183" lon="11.5429233"><ele>359.0</ele><time>2026-03-28T10:12:03.468Z</time></trkpt><trkpt lat="43.6551017" lon="11.542925"><ele>359.0</ele><time>2026-03-28T10:12:04.47Z</time></trkpt><trkpt lat="43.6551833" lon="11.5429267"><ele>359.0</ele><time>2026-03-28T10:12:05.469Z</time></trkpt><trkpt lat="43.6552617" lon="11.5429133"><ele>359.0</ele><time>2026-03-28T10:12:06.47Z</time></trkpt><trkpt lat="43.6553383" lon="11.5428717"><ele>359.0</ele><time>2026-03-28T10:12:07.469Z</time></trkpt><trkpt lat="43.6554067" lon="11.5428067"><ele>359.0</ele><time>2026-03-28T10:12:08.469Z</time></trkpt><trkpt lat="43.6554633" lon="11.5427217"><ele>359.0</ele><time>2026-03-28T10:12:09.469Z</time></trkpt><trkpt lat="43.65551" lon="11.5426283"><ele>359.0</ele><time>2026-03-28T10:12:10.47Z</time></trkpt><trkpt lat="43.6555567" lon="11.542535"><ele>357.83333333333337</ele><time>2026-03-28T10:12:11.469Z</time></trkpt><trkpt lat="43.655605" lon="11.542445"><ele>356.6666666666667</ele><time>2026-03-28T10:12:12.47Z</time></trkpt><trkpt lat="43.65566" lon="11.54236"><ele>355.5</ele><time>2026-03-28T10:12:13.469Z</time></trkpt><trkpt lat="43.6557217" lon="11.542285"><ele>354.3333333333333</ele><time>2026-03-28T10:12:14.47Z</time></trkpt><trkpt lat="43.655795" lon="11.54223"><ele>353.16666666666663</ele><time>2026-03-28T10:12:15.469Z</time></trkpt><trkpt lat="43.65587" lon="11.542195"><ele>352.0</ele><time>2026-03-28T10:12:16.469Z</time></trkpt><trkpt lat="43.6559483" lon="11.542195"><ele>352.0</ele><time>2026-03-28T10:12:17.47Z</time></trkpt><trkpt lat="43.65602" lon="11.5422233"><ele>352.0</ele><time>2026-03-28T10:12:18.469Z</time></trkpt><trkpt lat="43.6560817" lon="11.5422767"><ele>352.0</ele><time>2026-03-28T10:12:19.47Z</time></trkpt><trkpt lat="43.65613" lon="11.54236"><ele>352.0</ele><time>2026-03-28T10:12:20.471Z</time></trkpt><trkpt lat="43.6561567" lon="11.5424633"><ele>352.0</ele><time>2026-03-28T10:12:21.471Z</time></trkpt><trkpt lat="43.6561733" lon="11.5425683"><ele>352.0</ele><time>2026-03-28T10:12:22.47Z</time></trkpt><trkpt lat="43.6561917" lon="11.5426783"><ele>350.66666666666663</ele><time>2026-03-28T10:12:23.471Z</time></trkpt><trkpt lat="43.6562083" lon="11.54279"><ele>349.3333333333333</ele><time>2026-03-28T10:12:24.47Z</time></trkpt><trkpt lat="43.65622" lon="11.5429067"><ele>348.0</ele><time>2026-03-28T10:12:25.472Z</time></trkpt><trkpt lat="43.6562233" lon="11.5430217"><ele>346.6666666666667</ele><time>2026-03-28T10:12:26.468Z</time></trkpt><trkpt lat="43.6562167" lon="11.5431417"><ele>345.33333333333337</ele><time>2026-03-28T10:12:27.471Z</time></trkpt><trkpt lat="43.6562017" lon="11.54326"><ele>344.0</ele><time>2026-03-28T10:12:28.469Z</time></trkpt><trkpt lat="43.65619" lon="11.5433817"><ele>344.0</ele><time>2026-03-28T10:12:29.472Z</time></trkpt><trkpt lat="43.6561883" lon="11.5435033"><ele>344.0</ele><time>2026-03-28T10:12:30.475Z</time></trkpt><trkpt lat="43.6562" lon="11.54362"><ele>344.0</ele><time>2026-03-28T10:12:31.472Z</time></trkpt><trkpt lat="43.6562333" lon="11.543725"><ele>344.0</ele><time>2026-03-28T10:12:32.47Z</time></trkpt><trkpt lat="43.6562783" lon="11.543825"><ele>344.0</ele><time>2026-03-28T10:12:33.47Z</time></trkpt><trkpt lat="43.65633" lon="11.543915"><ele>344.0</ele><time>2026-03-28T10:12:34.469Z</time></trkpt><trkpt lat="43.6563883" lon="11.5439917"><ele>345.6666666666667</ele><time>2026-03-28T10:12:35.469Z</time></trkpt><trkpt lat="43.6564517" lon="11.5440717"><ele>347.33333333333337</ele><time>2026-03-28T10:12:36.47Z</time></trkpt><trkpt lat="43.6565167" lon="11.544145"><ele>349.0</ele><time>2026-03-28T10:12:37.471Z</time></trkpt><trkpt lat="43.6565817" lon="11.544225"><ele>350.6666666666667</ele><time>2026-03-28T10:12:38.47Z</time></trkpt><trkpt lat="43.6566467" lon="11.5443033"><ele>352.3333333333333</ele><time>2026-03-28T10:12:39.468Z</time></trkpt><trkpt lat="43.6567183" lon="11.5443683"><ele>354.0</ele><time>2026-03-28T10:12:40.47Z</time></trkpt><trkpt lat="43.6567933" lon="11.544425"><ele>354.0</ele><time>2026-03-28T10:12:41.471Z</time></trkpt><trkpt lat="43.65687" lon="11.5444683"><ele>354.0</ele><time>2026-03-28T10:12:42.471Z</time></trkpt><trkpt lat="43.6569433" lon="11.5445067"><ele>354.0</ele><time>2026-03-28T10:12:43.472Z</time></trkpt><trkpt lat="43.65701" lon="11.5445383"><ele>354.0</ele><time>2026-03-28T10:12:44.471Z</time></trkpt><trkpt lat="43.657075" lon="11.5445617"><ele>354.0</ele><time>2026-03-28T10:12:45.471Z</time></trkpt><trkpt lat="43.6571967" lon="11.5445217"><ele>354.0</ele><time>2026-03-28T10:12:47.472Z</time></trkpt><trkpt lat="43.6572417" lon="11.5444533"><ele>355.3333333333333</ele><time>2026-03-28T10:12:48.472Z</time></trkpt><trkpt lat="43.6572717" lon="11.5443617"><ele>356.6666666666667</ele><time>2026-03-28T10:12:49.47Z</time></trkpt><trkpt lat="43.65729" lon="11.544275"><ele>358.0</ele><time>2026-03-28T10:12:50.472Z</time></trkpt><trkpt lat="43.65731" lon="11.54417"><ele>359.33333333333337</ele><time>2026-03-28T10:12:51.472Z</time></trkpt><trkpt lat="43.6573367" lon="11.5440617"><ele>360.6666666666667</ele><time>2026-03-28T10:12:52.471Z</time></trkpt><trkpt lat="43.657365" lon="11.5439567"><ele>362.0</ele><time>2026-03-28T10:12:53.471Z</time></trkpt><trkpt lat="43.6573967" lon="11.5438433"><ele>362.0</ele><time>2026-03-28T10:12:54.47Z</time></trkpt><trkpt lat="43.6574217" lon="11.5437217"><ele>362.0</ele><time>2026-03-28T10:12:55.468Z</time></trkpt><trkpt lat="43.6574183" lon="11.5436017"><ele>362.0</ele><time>2026-03-28T10:12:56.469Z</time></trkpt><trkpt lat="43.657415" lon="11.5434767"><ele>362.0</ele><time>2026-03-28T10:12:57.468Z</time></trkpt><trkpt lat="43.65741" lon="11.5433517"><ele>362.0</ele><time>2026-03-28T10:12:58.47Z</time></trkpt><trkpt lat="43.6574017" lon="11.54323"><ele>362.0</ele><time>2026-03-28T10:12:59.47Z</time></trkpt><trkpt lat="43.6573917" lon="11.5431067"><ele>360.5</ele><time>2026-03-28T10:13:00.47Z</time></trkpt><trkpt lat="43.657385" lon="11.542985"><ele>359.0</ele><time>2026-03-28T10:13:01.471Z</time></trkpt><trkpt lat="43.657385" lon="11.5428567"><ele>357.5</ele><time>2026-03-28T10:13:02.469Z</time></trkpt><trkpt lat="43.6573867" lon="11.5427333"><ele>356.0</ele><time>2026-03-28T10:13:03.467Z</time></trkpt><trkpt lat="43.657395" lon="11.5426117"><ele>354.5</ele><time>2026-03-28T10:13:04.47Z</time></trkpt><trkpt lat="43.6574117" lon="11.5424917"><ele>353.0</ele><time>2026-03-28T10:13:05.471Z</time></trkpt><trkpt lat="43.6574317" lon="11.5423717"><ele>352.0</ele><time>2026-03-28T10:13:06.473Z</time></trkpt><trkpt lat="43.6574683" lon="11.5422567"><ele>351.0</ele><time>2026-03-28T10:13:07.47Z</time></trkpt><trkpt lat="43.65752" lon="11.5421583"><ele>350.0</ele><time>2026-03-28T10:13:08.472Z</time></trkpt><trkpt lat="43.6575883" lon="11.5420783"><ele>349.0</ele><time>2026-03-28T10:13:09.47Z</time></trkpt><trkpt lat="43.657665" lon="11.5420267"><ele>348.0</ele><time>2026-03-28T10:13:10.47Z</time></trkpt><trkpt lat="43.65775" lon="11.5420083"><ele>347.0</ele><time>2026-03-28T10:13:11.469Z</time></trkpt><trkpt lat="43.657835" lon="11.5420033"><ele>346.1666666666667</ele><time>2026-03-28T10:13:12.47Z</time></trkpt><trkpt lat="43.65792" lon="11.5420017"><ele>345.33333333333337</ele><time>2026-03-28T10:13:13.471Z</time></trkpt><trkpt lat="43.6580067" lon="11.541995"><ele>344.5</ele><time>2026-03-28T10:13:14.47Z</time></trkpt><trkpt lat="43.6580983" lon="11.541985"><ele>343.6666666666667</ele><time>2026-03-28T10:13:15.473Z</time></trkpt><trkpt lat="43.6581883" lon="11.5419767"><ele>342.8333333333333</ele><time>2026-03-28T10:13:16.473Z</time></trkpt><trkpt lat="43.65828" lon="11.541965"><ele>342.0</ele><time>2026-03-28T10:13:17.47Z</time></trkpt><trkpt lat="43.65837" lon="11.5419583"><ele>342.0</ele><time>2026-03-28T10:13:18.469Z</time></trkpt><trkpt lat="43.6584617" lon="11.5419517"><ele>342.0</ele><time>2026-03-28T10:13:19.47Z</time></trkpt><trkpt lat="43.6585533" lon="11.5419467"><ele>342.0</ele><time>2026-03-28T10:13:20.469Z</time></trkpt><trkpt lat="43.6586467" lon="11.5419483"><ele>342.0</ele><time>2026-03-28T10:13:21.468Z</time></trkpt><trkpt lat="43.658735" lon="11.5419683"><ele>342.0</ele><time>2026-03-28T10:13:22.471Z</time></trkpt><trkpt lat="43.6588117" lon="11.5420183"><ele>343.8333333333333</ele><time>2026-03-28T10:13:23.47Z</time></trkpt><trkpt lat="43.6588767" lon="11.5420917"><ele>345.6666666666667</ele><time>2026-03-28T10:13:24.469Z</time></trkpt><trkpt lat="43.6589317" lon="11.5421767"><ele>347.5</ele><time>2026-03-28T10:13:25.47Z</time></trkpt><trkpt lat="43.658985" lon="11.542265"><ele>349.33333333333337</ele><time>2026-03-28T10:13:26.47Z</time></trkpt><trkpt lat="43.6590433" lon="11.54235"><ele>351.1666666666667</ele><time>2026-03-28T10:13:27.47Z</time></trkpt><trkpt lat="43.659105" lon="11.54243"><ele>353.0</ele><time>2026-03-28T10:13:28.47Z</time></trkpt><trkpt lat="43.65917" lon="11.5425067"><ele>353.0</ele><time>2026-03-28T10:13:29.469Z</time></trkpt><trkpt lat="43.6592383" lon="11.54258"><ele>353.0</ele><time>2026-03-28T10:13:30.469Z</time></trkpt><trkpt lat="43.6593067" lon="11.5426467"><ele>353.0</ele><time>2026-03-28T10:13:31.471Z</time></trkpt><trkpt lat="43.6593767" lon="11.542715"><ele>353.0</ele><time>2026-03-28T10:13:32.47Z</time></trkpt><trkpt lat="43.6594467" lon="11.54278"><ele>353.0</ele><time>2026-03-28T10:13:33.47Z</time></trkpt><trkpt lat="43.6595117" lon="11.5428533"><ele>353.0</ele><time>2026-03-28T10:13:34.47Z</time></trkpt><trkpt lat="43.6595717" lon="11.5429233"><ele>352.7142857142857</ele><time>2026-03-28T10:13:35.468Z</time></trkpt><trkpt lat="43.6596317" lon="11.5429833"><ele>352.42857142857144</ele><time>2026-03-28T10:13:36.469Z</time></trkpt><trkpt lat="43.6596967" lon="11.54302"><ele>352.14285714285717</ele><time>2026-03-28T10:13:37.471Z</time></trkpt><trkpt lat="43.6597633" lon="11.5430383"><ele>351.8571428571429</ele><time>2026-03-28T10:13:38.472Z</time></trkpt><trkpt lat="43.6598267" lon="11.54302"><ele>351.57142857142856</ele><time>2026-03-28T10:13:39.47Z</time></trkpt><trkpt lat="43.659875" lon="11.5429467"><ele>351.28571428571433</ele><time>2026-03-28T10:13:40.471Z</time></trkpt><trkpt lat="43.6599033" lon="11.5428583"><ele>351.0</ele><time>2026-03-28T10:13:41.471Z</time></trkpt><trkpt lat="43.659915" lon="11.5427617"><ele>351.00000000000006</ele><time>2026-03-28T10:13:42.472Z</time></trkpt><trkpt lat="43.6599183" lon="11.5426733"><ele>351.0</ele><time>2026-03-28T10:13:43.471Z</time></trkpt><trkpt lat="43.6599133" lon="11.542575"><ele>351.0</ele><time>2026-03-28T10:13:44.472Z</time></trkpt><trkpt lat="43.6599083" lon="11.5424733"><ele>351.0</ele><time>2026-03-28T10:13:45.472Z</time></trkpt><trkpt lat="43.6599017" lon="11.5423717"><ele>351.0</ele><time>2026-03-28T10:13:46.471Z</time></trkpt><trkpt lat="43.659895" lon="11.5422717"><ele>351.00000000000006</ele><time>2026-03-28T10:13:47.472Z</time></trkpt><trkpt lat="43.6598867" lon="11.5421717"><ele>351.0</ele><time>2026-03-28T10:13:48.472Z</time></trkpt><trkpt lat="43.6598817" lon="11.5420683"><ele>350.1666666666667</ele><time>2026-03-28T10:13:49.469Z</time></trkpt><trkpt lat="43.65988" lon="11.5419683"><ele>349.3333333333333</ele><time>2026-03-28T10:13:50.47Z</time></trkpt><trkpt lat="43.6598783" lon="11.5418683"><ele>348.5</ele><time>2026-03-28T10:13:51.47Z</time></trkpt><trkpt lat="43.6598783" lon="11.5417633"><ele>347.66666666666663</ele><time>2026-03-28T10:13:52.469Z</time></trkpt><trkpt lat="43.6598833" lon="11.541645"><ele>346.8333333333333</ele><time>2026-03-28T10:13:53.47Z</time></trkpt><trkpt lat="43.65989" lon="11.5415217"><ele>346.0</ele><time>2026-03-28T10:13:54.469Z</time></trkpt><trkpt lat="43.659905" lon="11.5413933"><ele>346.0</ele><time>2026-03-28T10:13:55.47Z</time></trkpt><trkpt lat="43.6599283" lon="11.5412683"><ele>346.0</ele><time>2026-03-28T10:13:56.469Z</time></trkpt><trkpt lat="43.6599717" lon="11.5411533"><ele>346.0</ele><time>2026-03-28T10:13:57.47Z</time></trkpt><trkpt lat="43.66003" lon="11.54106"><ele>346.0</ele><time>2026-03-28T10:13:58.469Z</time></trkpt><trkpt lat="43.6601067" lon="11.540985"><ele>346.0</ele><time>2026-03-28T10:13:59.468Z</time></trkpt><trkpt lat="43.66019" lon="11.5409167"><ele>345.8</ele><time>2026-03-28T10:14:00.469Z</time></trkpt><trkpt lat="43.6602717" lon="11.5408417"><ele>345.6</ele><time>2026-03-28T10:14:01.469Z</time></trkpt><trkpt lat="43.6603517" lon="11.5407667"><ele>345.4</ele><time>2026-03-28T10:14:02.47Z</time></trkpt><trkpt lat="43.6604333" lon="11.540695"><ele>345.2</ele><time>2026-03-28T10:14:03.47Z</time></trkpt><trkpt lat="43.6605133" lon="11.540625"><ele>345.0</ele><time>2026-03-28T10:14:04.471Z</time></trkpt><trkpt lat="43.660595" lon="11.5405567"><ele>345.0</ele><time>2026-03-28T10:14:05.469Z</time></trkpt><trkpt lat="43.6606767" lon="11.5405"><ele>345.0</ele><time>2026-03-28T10:14:06.47Z</time></trkpt><trkpt lat="43.66076" lon="11.540465"><ele>345.0</ele><time>2026-03-28T10:14:07.47Z</time></trkpt><trkpt lat="43.6608467" lon="11.5404667"><ele>345.0</ele><time>2026-03-28T10:14:08.473Z</time></trkpt><trkpt lat="43.6609367" lon="11.54049"><ele>345.0</ele><time>2026-03-28T10:14:09.471Z</time></trkpt><trkpt lat="43.6610267" lon="11.5405217"><ele>344.6</ele><time>2026-03-28T10:14:10.471Z</time></trkpt><trkpt lat="43.66112" lon="11.5405533"><ele>344.2</ele><time>2026-03-28T10:14:11.47Z</time></trkpt><trkpt lat="43.6612133" lon="11.5405833"><ele>343.79999999999995</ele><time>2026-03-28T10:14:12.47Z</time></trkpt><trkpt lat="43.6613083" lon="11.5406083"><ele>343.4</ele><time>2026-03-28T10:14:13.469Z</time></trkpt><trkpt lat="43.6614033" lon="11.540635"><ele>343.0</ele><time>2026-03-28T10:14:14.469Z</time></trkpt><trkpt lat="43.6615017" lon="11.5406633"><ele>343.0</ele><time>2026-03-28T10:14:15.468Z</time></trkpt><trkpt lat="43.6616017" lon="11.5406933"><ele>343.0</ele><time>2026-03-28T10:14:16.472Z</time></trkpt><trkpt lat="43.6617" lon="11.5407383"><ele>343.0</ele><time>2026-03-28T10:14:17.471Z</time></trkpt><trkpt lat="43.6617933" lon="11.5408067"><ele>343.0</ele><time>2026-03-28T10:14:18.471Z</time></trkpt><trkpt lat="43.6618767" lon="11.5408967"><ele>343.0</ele><time>2026-03-28T10:14:19.471Z</time></trkpt><trkpt lat="43.6619533" lon="11.5409983"><ele>342.79999999999995</ele><time>2026-03-28T10:14:20.471Z</time></trkpt><trkpt lat="43.66203" lon="11.5410933"><ele>342.6</ele><time>2026-03-28T10:14:21.47Z</time></trkpt><trkpt lat="43.6621083" lon="11.5411783"><ele>342.4</ele><time>2026-03-28T10:14:22.471Z</time></trkpt><trkpt lat="43.662185" lon="11.54125"><ele>342.20000000000005</ele><time>2026-03-28T10:14:23.472Z</time></trkpt><trkpt lat="43.6622567" lon="11.5413083"><ele>342.0</ele><time>2026-03-28T10:14:24.471Z</time></trkpt><trkpt lat="43.6623233" lon="11.5413567"><ele>341.99999999999994</ele><time>2026-03-28T10:14:25.47Z</time></trkpt><trkpt lat="43.66239" lon="11.5413767"><ele>342.0</ele><time>2026-03-28T10:14:26.471Z</time></trkpt><trkpt lat="43.6624617" lon="11.5413633"><ele>342.0</ele><time>2026-03-28T10:14:27.469Z</time></trkpt><trkpt lat="43.66252" lon="11.5413167"><ele>342.0</ele><time>2026-03-28T10:14:28.47Z</time></trkpt><trkpt lat="43.662565" lon="11.5412433"><ele>342.0</ele><time>2026-03-28T10:14:29.469Z</time></trkpt><trkpt lat="43.66259" lon="11.5411467"><ele>341.99999999999994</ele><time>2026-03-28T10:14:30.469Z</time></trkpt><trkpt lat="43.662595" lon="11.5410433"><ele>342.0</ele><time>2026-03-28T10:14:31.469Z</time></trkpt><trkpt lat="43.6625817" lon="11.5409417"><ele>341.99999999999994</ele><time>2026-03-28T10:14:32.47Z</time></trkpt><trkpt lat="43.662555" lon="11.5408533"><ele>342.0</ele><time>2026-03-28T10:14:33.471Z</time></trkpt><trkpt lat="43.6625217" lon="11.5407683"><ele>342.0</ele><time>2026-03-28T10:14:34.47Z</time></trkpt><trkpt lat="43.6624867" lon="11.5406867"><ele>342.0</ele><time>2026-03-28T10:14:35.47Z</time></trkpt><trkpt lat="43.6624533" lon="11.5406017"><ele>342.0</ele><time>2026-03-28T10:14:36.472Z</time></trkpt><trkpt lat="43.66243" lon="11.5405067"><ele>341.99999999999994</ele><time>2026-03-28T10:14:37.47Z</time></trkpt><trkpt lat="43.6624133" lon="11.5404067"><ele>342.0</ele><time>2026-03-28T10:14:38.472Z</time></trkpt><trkpt lat="43.6624017" lon="11.5403017"><ele>341.3333333333333</ele><time>2026-03-28T10:14:39.472Z</time></trkpt><trkpt lat="43.6624017" lon="11.540195"><ele>340.6666666666667</ele><time>2026-03-28T10:14:40.471Z</time></trkpt><trkpt lat="43.6624133" lon="11.54009"><ele>340.0</ele><time>2026-03-28T10:14:41.472Z</time></trkpt><trkpt lat="43.662435" lon="11.53999"><ele>339.33333333333337</ele><time>2026-03-28T10:14:42.471Z</time></trkpt><trkpt lat="43.6624683" lon="11.539895"><ele>338.6666666666667</ele><time>2026-03-28T10:14:43.471Z</time></trkpt><trkpt lat="43.6625117" lon="11.5398033"><ele>338.0</ele><time>2026-03-28T10:14:44.468Z</time></trkpt><trkpt lat="43.66256" lon="11.5397183"><ele>338.0</ele><time>2026-03-28T10:14:45.469Z</time></trkpt><trkpt lat="43.66261" lon="11.53964"><ele>338.0</ele><time>2026-03-28T10:14:46.469Z</time></trkpt><trkpt lat="43.66266" lon="11.5395667"><ele>338.0</ele><time>2026-03-28T10:14:47.469Z</time></trkpt><trkpt lat="43.6627133" lon="11.5394933"><ele>338.0</ele><time>2026-03-28T10:14:48.469Z</time></trkpt><trkpt lat="43.6627667" lon="11.53942"><ele>338.0</ele><time>2026-03-28T10:14:49.469Z</time></trkpt><trkpt lat="43.66282" lon="11.5393483"><ele>338.0</ele><time>2026-03-28T10:14:50.469Z</time></trkpt><trkpt lat="43.6628767" lon="11.53928"><ele>338.0</ele><time>2026-03-28T10:14:51.468Z</time></trkpt><trkpt lat="43.6629367" lon="11.53922"><ele>338.0</ele><time>2026-03-28T10:14:52.468Z</time></trkpt><trkpt lat="43.6630033" lon="11.5391683"><ele>338.0</ele><time>2026-03-28T10:14:53.469Z</time></trkpt><trkpt lat="43.663075" lon="11.5391283"><ele>338.0</ele><time>2026-03-28T10:14:54.468Z</time></trkpt><trkpt lat="43.6631517" lon="11.5391017"><ele>338.0</ele><time>2026-03-28T10:14:55.469Z</time></trkpt><trkpt lat="43.663235" lon="11.5390883"><ele>338.0</ele><time>2026-03-28T10:14:56.469Z</time></trkpt><trkpt lat="43.66332" lon="11.5390917"><ele>338.0</ele><time>2026-03-28T10:14:57.468Z</time></trkpt><trkpt lat="43.6634033" lon="11.539115"><ele>338.0</ele><time>2026-03-28T10:14:58.469Z</time></trkpt><trkpt lat="43.663485" lon="11.539155"><ele>338.0</ele><time>2026-03-28T10:14:59.471Z</time></trkpt><trkpt lat="43.6635617" lon="11.5392"><ele>338.0</ele><time>2026-03-28T10:15:00.472Z</time></trkpt><trkpt lat="43.6636367" lon="11.5392467"><ele>338.0</ele><time>2026-03-28T10:15:01.471Z</time></trkpt><trkpt lat="43.6637133" lon="11.5392967"><ele>338.0</ele><time>2026-03-28T10:15:02.468Z</time></trkpt><trkpt lat="43.66379" lon="11.53934"><ele>338.0</ele><time>2026-03-28T10:15:03.471Z</time></trkpt><trkpt lat="43.663865" lon="11.5393833"><ele>337.1666666666667</ele><time>2026-03-28T10:15:04.469Z</time></trkpt><trkpt lat="43.6639417" lon="11.5394283"><ele>336.33333333333337</ele><time>2026-03-28T10:15:05.47Z</time></trkpt><trkpt lat="43.6640183" lon="11.5394667"><ele>335.5</ele><time>2026-03-28T10:15:06.467Z</time></trkpt><trkpt lat="43.6640967" lon="11.5394983"><ele>334.6666666666667</ele><time>2026-03-28T10:15:07.469Z</time></trkpt><trkpt lat="43.6641767" lon="11.53952"><ele>333.8333333333333</ele><time>2026-03-28T10:15:08.469Z</time></trkpt><trkpt lat="43.6642583" lon="11.5395233"><ele>333.0</ele><time>2026-03-28T10:15:09.47Z</time></trkpt><trkpt lat="43.6643367" lon="11.5394917"><ele>333.0</ele><time>2026-03-28T10:15:10.47Z</time></trkpt><trkpt lat="43.66441" lon="11.539445"><ele>333.0</ele><time>2026-03-28T10:15:11.469Z</time></trkpt><trkpt lat="43.664475" lon="11.5393867"><ele>333.0</ele><time>2026-03-28T10:15:12.469Z</time></trkpt><trkpt lat="43.66452" lon="11.5393067"><ele>333.0</ele><time>2026-03-28T10:15:13.468Z</time></trkpt><trkpt lat="43.664555" lon="11.5392033"><ele>333.0</ele><time>2026-03-28T10:15:14.469Z</time></trkpt><trkpt lat="43.6645883" lon="11.5390917"><ele>333.0</ele><time>2026-03-28T10:15:15.471Z</time></trkpt><trkpt lat="43.66462" lon="11.5389783"><ele>333.6666666666667</ele><time>2026-03-28T10:15:16.469Z</time></trkpt><trkpt lat="43.6646383" lon="11.5388667"><ele>334.3333333333333</ele><time>2026-03-28T10:15:17.469Z</time></trkpt><trkpt lat="43.6646517" lon="11.53875"><ele>335.0</ele><time>2026-03-28T10:15:18.468Z</time></trkpt><trkpt lat="43.66466" lon="11.5386317"><ele>335.66666666666663</ele><time>2026-03-28T10:15:19.469Z</time></trkpt><trkpt lat="43.664665" lon="11.53851"><ele>336.3333333333333</ele><time>2026-03-28T10:15:20.469Z</time></trkpt><trkpt lat="43.664675" lon="11.5383917"><ele>337.0</ele><time>2026-03-28T10:15:21.468Z</time></trkpt><trkpt lat="43.6646983" lon="11.5382783"><ele>337.0</ele><time>2026-03-28T10:15:22.469Z</time></trkpt><trkpt lat="43.6647383" lon="11.5381767"><ele>337.0</ele><time>2026-03-28T10:15:23.468Z</time></trkpt><trkpt lat="43.6647967" lon="11.5380967"><ele>337.0</ele><time>2026-03-28T10:15:24.47Z</time></trkpt><trkpt lat="43.66487" lon="11.5380367"><ele>337.0</ele><time>2026-03-28T10:15:25.47Z</time></trkpt><trkpt lat="43.664945" lon="11.5379817"><ele>337.0</ele><time>2026-03-28T10:15:26.47Z</time></trkpt><trkpt lat="43.6650167" lon="11.5379233"><ele>337.0</ele><time>2026-03-28T10:15:27.468Z</time></trkpt><trkpt lat="43.6650767" lon="11.5378433"><ele>335.66666666666663</ele><time>2026-03-28T10:15:28.469Z</time></trkpt><trkpt lat="43.6651167" lon="11.53774"><ele>334.3333333333333</ele><time>2026-03-28T10:15:29.47Z</time></trkpt><trkpt lat="43.66513" lon="11.537625"><ele>333.0</ele><time>2026-03-28T10:15:30.469Z</time></trkpt><trkpt lat="43.6651333" lon="11.5375083"><ele>331.6666666666667</ele><time>2026-03-28T10:15:31.47Z</time></trkpt><trkpt lat="43.6651383" lon="11.5373917"><ele>330.33333333333337</ele><time>2026-03-28T10:15:32.469Z</time></trkpt><trkpt lat="43.6651517" lon="11.53728"><ele>329.0</ele><time>2026-03-28T10:15:33.468Z</time></trkpt><trkpt lat="43.6651783" lon="11.5371767"><ele>329.0</ele><time>2026-03-28T10:15:34.471Z</time></trkpt><trkpt lat="43.6652233" lon="11.5370867"><ele>329.0</ele><time>2026-03-28T10:15:35.469Z</time></trkpt><trkpt lat="43.6652833" lon="11.5370133"><ele>329.0</ele><time>2026-03-28T10:15:36.469Z</time></trkpt><trkpt lat="43.665355" lon="11.5369567"><ele>329.0</ele><time>2026-03-28T10:15:37.469Z</time></trkpt><trkpt lat="43.665435" lon="11.53691"><ele>329.0</ele><time>2026-03-28T10:15:38.469Z</time></trkpt><trkpt lat="43.6655167" lon="11.536865"><ele>329.0</ele><time>2026-03-28T10:15:39.469Z</time></trkpt><trkpt lat="43.6655967" lon="11.5368217"><ele>329.5</ele><time>2026-03-28T10:15:40.469Z</time></trkpt><trkpt lat="43.6656733" lon="11.53677"><ele>330.0</ele><time>2026-03-28T10:15:41.47Z</time></trkpt><trkpt lat="43.6657483" lon="11.53671"><ele>330.5</ele><time>2026-03-28T10:15:42.469Z</time></trkpt><trkpt lat="43.6658167" lon="11.5366367"><ele>331.0</ele><time>2026-03-28T10:15:43.47Z</time></trkpt><trkpt lat="43.6658783" lon="11.5365567"><ele>331.5</ele><time>2026-03-28T10:15:44.47Z</time></trkpt><trkpt lat="43.66594" lon="11.5364733"><ele>332.0</ele><time>2026-03-28T10:15:45.468Z</time></trkpt><trkpt lat="43.6660067" lon="11.5364017"><ele>332.0</ele><time>2026-03-28T10:15:46.469Z</time></trkpt><trkpt lat="43.6660817" lon="11.536345"><ele>332.0</ele><time>2026-03-28T10:15:47.469Z</time></trkpt><trkpt lat="43.6661633" lon="11.53632"><ele>332.0</ele><time>2026-03-28T10:15:48.471Z</time></trkpt><trkpt lat="43.6662483" lon="11.53632"><ele>332.0</ele><time>2026-03-28T10:15:49.47Z</time></trkpt><trkpt lat="43.6663333" lon="11.536335"><ele>332.0</ele><time>2026-03-28T10:15:50.469Z</time></trkpt><trkpt lat="43.666415" lon="11.536345"><ele>332.0</ele><time>2026-03-28T10:15:51.468Z</time></trkpt><trkpt lat="43.6664967" lon="11.53633"><ele>331.5</ele><time>2026-03-28T10:15:52.47Z</time></trkpt><trkpt lat="43.666575" lon="11.5362917"><ele>331.0</ele><time>2026-03-28T10:15:53.469Z</time></trkpt><trkpt lat="43.6666483" lon="11.5362317"><ele>330.5</ele><time>2026-03-28T10:15:54.471Z</time></trkpt><trkpt lat="43.66671" lon="11.536155"><ele>330.0</ele><time>2026-03-28T10:15:55.468Z</time></trkpt><trkpt lat="43.6667617" lon="11.5360683"><ele>329.5</ele><time>2026-03-28T10:15:56.471Z</time></trkpt><trkpt lat="43.6668117" lon="11.5359783"><ele>329.0</ele><time>2026-03-28T10:15:57.468Z</time></trkpt><trkpt lat="43.6668633" lon="11.53589"><ele>329.0</ele><time>2026-03-28T10:15:58.469Z</time></trkpt><trkpt lat="43.6669233" lon="11.535815"><ele>329.0</ele><time>2026-03-28T10:15:59.471Z</time></trkpt><trkpt lat="43.666995" lon="11.5357633"><ele>329.0</ele><time>2026-03-28T10:16:00.472Z</time></trkpt><trkpt lat="43.6670733" lon="11.5357333"><ele>329.0</ele><time>2026-03-28T10:16:01.471Z</time></trkpt><trkpt lat="43.6671567" lon="11.5357133"><ele>329.0</ele><time>2026-03-28T10:16:02.469Z</time></trkpt><trkpt lat="43.6672383" lon="11.5357"><ele>329.0</ele><time>2026-03-28T10:16:03.467Z</time></trkpt><trkpt lat="43.6673233" lon="11.53569"><ele>328.5</ele><time>2026-03-28T10:16:04.468Z</time></trkpt><trkpt lat="43.6674083" lon="11.5356867"><ele>328.0</ele><time>2026-03-28T10:16:05.468Z</time></trkpt><trkpt lat="43.6674883" lon="11.53569"><ele>327.5</ele><time>2026-03-28T10:16:06.471Z</time></trkpt><trkpt lat="43.66757" lon="11.5357017"><ele>327.0</ele><time>2026-03-28T10:16:07.47Z</time></trkpt><trkpt lat="43.6676517" lon="11.53572"><ele>326.5</ele><time>2026-03-28T10:16:08.471Z</time></trkpt><trkpt lat="43.66773" lon="11.5357417"><ele>326.0</ele><time>2026-03-28T10:16:09.473Z</time></trkpt><trkpt lat="43.6678067" lon="11.535755"><ele>326.0</ele><time>2026-03-28T10:16:10.473Z</time></trkpt><trkpt lat="43.667885" lon="11.5357667"><ele>326.0</ele><time>2026-03-28T10:16:11.471Z</time></trkpt><trkpt lat="43.6679633" lon="11.5357767"><ele>326.0</ele><time>2026-03-28T10:16:12.468Z</time></trkpt><trkpt lat="43.6680433" lon="11.5357933"><ele>326.0</ele><time>2026-03-28T10:16:13.469Z</time></trkpt><trkpt lat="43.6681217" lon="11.5358167"><ele>326.0</ele><time>2026-03-28T10:16:14.468Z</time></trkpt><trkpt lat="43.6682" lon="11.53585"><ele>326.0</ele><time>2026-03-28T10:16:15.468Z</time></trkpt><trkpt lat="43.6682717" lon="11.5359033"><ele>326.0</ele><time>2026-03-28T10:16:16.47Z</time></trkpt><trkpt lat="43.66834" lon="11.5359667"><ele>326.0</ele><time>2026-03-28T10:16:17.469Z</time></trkpt><trkpt lat="43.6683983" lon="11.5360533"><ele>326.0</ele><time>2026-03-28T10:16:18.469Z</time></trkpt><trkpt lat="43.6684533" lon="11.536145"><ele>326.0</ele><time>2026-03-28T10:16:19.469Z</time></trkpt><trkpt lat="43.66851" lon="11.5362317"><ele>326.0</ele><time>2026-03-28T10:16:20.469Z</time></trkpt><trkpt lat="43.6685783" lon="11.536305"><ele>326.0</ele><time>2026-03-28T10:16:21.47Z</time></trkpt><trkpt lat="43.668655" lon="11.5363517"><ele>327.6666666666667</ele><time>2026-03-28T10:16:22.468Z</time></trkpt><trkpt lat="43.6687433" lon="11.5363833"><ele>329.33333333333337</ele><time>2026-03-28T10:16:23.47Z</time></trkpt><trkpt lat="43.6688333" lon="11.5363783"><ele>331.0</ele><time>2026-03-28T10:16:24.468Z</time></trkpt><trkpt lat="43.6689183" lon="11.53635"><ele>332.6666666666667</ele><time>2026-03-28T10:16:25.469Z</time></trkpt><trkpt lat="43.6690033" lon="11.536335"><ele>334.3333333333333</ele><time>2026-03-28T10:16:26.469Z</time></trkpt><trkpt lat="43.66909" lon="11.5363433"><ele>336.0</ele><time>2026-03-28T10:16:27.469Z</time></trkpt><trkpt lat="43.6691733" lon="11.5363733"><ele>336.0</ele><time>2026-03-28T10:16:28.469Z</time></trkpt><trkpt lat="43.6692517" lon="11.5364233"><ele>336.0</ele><time>2026-03-28T10:16:29.469Z</time></trkpt><trkpt lat="43.669325" lon="11.536475"><ele>336.0</ele><time>2026-03-28T10:16:30.471Z</time></trkpt><trkpt lat="43.6694017" lon="11.5365317"><ele>336.0</ele><time>2026-03-28T10:16:31.469Z</time></trkpt><trkpt lat="43.6694783" lon="11.5365867"><ele>336.0</ele><time>2026-03-28T10:16:32.469Z</time></trkpt><trkpt lat="43.6695517" lon="11.53665"><ele>336.0</ele><time>2026-03-28T10:16:33.47Z</time></trkpt><trkpt lat="43.6696267" lon="11.5367117"><ele>335.1666666666667</ele><time>2026-03-28T10:16:34.469Z</time></trkpt><trkpt lat="43.6696967" lon="11.53678"><ele>334.3333333333333</ele><time>2026-03-28T10:16:35.468Z</time></trkpt><trkpt lat="43.66976" lon="11.536875"><ele>333.5</ele><time>2026-03-28T10:16:36.469Z</time></trkpt><trkpt lat="43.66981" lon="11.5369817"><ele>332.66666666666663</ele><time>2026-03-28T10:16:37.47Z</time></trkpt><trkpt lat="43.669845" lon="11.53709"><ele>331.8333333333333</ele><time>2026-03-28T10:16:38.468Z</time></trkpt><trkpt lat="43.6698717" lon="11.5372033"><ele>331.0</ele><time>2026-03-28T10:16:39.467Z</time></trkpt><trkpt lat="43.66989" lon="11.5373267"><ele>331.0</ele><time>2026-03-28T10:16:40.469Z</time></trkpt><trkpt lat="43.6699117" lon="11.537445"><ele>331.0</ele><time>2026-03-28T10:16:41.469Z</time></trkpt><trkpt lat="43.6699467" lon="11.53756"><ele>331.0</ele><time>2026-03-28T10:16:42.468Z</time></trkpt><trkpt lat="43.6699933" lon="11.5376667"><ele>331.0</ele><time>2026-03-28T10:16:43.468Z</time></trkpt><trkpt lat="43.6700483" lon="11.53777"><ele>331.0</ele><time>2026-03-28T10:16:44.469Z</time></trkpt><trkpt lat="43.670105" lon="11.53787"><ele>331.0</ele><time>2026-03-28T10:16:45.468Z</time></trkpt><trkpt lat="43.6701617" lon="11.5379667"><ele>331.0</ele><time>2026-03-28T10:16:46.468Z</time></trkpt><trkpt lat="43.6702217" lon="11.5380517"><ele>331.0</ele><time>2026-03-28T10:16:47.468Z</time></trkpt><trkpt lat="43.67028" lon="11.538135"><ele>331.0</ele><time>2026-03-28T10:16:48.468Z</time></trkpt><trkpt lat="43.67034" lon="11.538215"><ele>331.0</ele><time>2026-03-28T10:16:49.469Z</time></trkpt><trkpt lat="43.6704" lon="11.5382883"><ele>331.0</ele><time>2026-03-28T10:16:50.469Z</time></trkpt><trkpt lat="43.67046" lon="11.53836"><ele>331.0</ele><time>2026-03-28T10:16:51.468Z</time></trkpt><trkpt lat="43.67052" lon="11.53843"><ele>331.0</ele><time>2026-03-28T10:16:52.47Z</time></trkpt><trkpt lat="43.67058" lon="11.53849"><ele>331.0</ele><time>2026-03-28T10:16:53.469Z</time></trkpt><trkpt lat="43.67064" lon="11.5385517"><ele>331.0</ele><time>2026-03-28T10:16:54.469Z</time></trkpt><trkpt lat="43.6707" lon="11.538615"><ele>331.0</ele><time>2026-03-28T10:16:55.469Z</time></trkpt><trkpt lat="43.6707633" lon="11.5386767"><ele>331.0</ele><time>2026-03-28T10:16:56.468Z</time></trkpt><trkpt lat="43.670825" lon="11.5387367"><ele>332.42857142857144</ele><time>2026-03-28T10:16:57.469Z</time></trkpt><trkpt lat="43.6708867" lon="11.5387833"><ele>333.85714285714283</ele><time>2026-03-28T10:16:58.471Z</time></trkpt><trkpt lat="43.67095" lon="11.5388267"><ele>335.2857142857143</ele><time>2026-03-28T10:16:59.47Z</time></trkpt><trkpt lat="43.671015" lon="11.53886"><ele>336.7142857142857</ele><time>2026-03-28T10:17:00.468Z</time></trkpt><trkpt lat="43.6710867" lon="11.538865"><ele>338.14285714285717</ele><time>2026-03-28T10:17:01.468Z</time></trkpt><trkpt lat="43.671155" lon="11.538835"><ele>339.57142857142856</ele><time>2026-03-28T10:17:02.467Z</time></trkpt><trkpt lat="43.6712067" lon="11.53877"><ele>341.0</ele><time>2026-03-28T10:17:03.471Z</time></trkpt><trkpt lat="43.6712533" lon="11.5386967"><ele>341.20000000000005</ele><time>2026-03-28T10:17:04.471Z</time></trkpt><trkpt lat="43.67129" lon="11.538615"><ele>341.40000000000003</ele><time>2026-03-28T10:17:05.469Z</time></trkpt><trkpt lat="43.6713067" lon="11.53853"><ele>341.6</ele><time>2026-03-28T10:17:06.47Z</time></trkpt><trkpt lat="43.6713083" lon="11.5383717"><ele>341.8</ele><time>2026-03-28T10:17:08.469Z</time></trkpt><trkpt lat="43.671305" lon="11.5382067"><ele>342.0</ele><time>2026-03-28T10:17:10.47Z</time></trkpt><trkpt lat="43.6713" lon="11.5380417"><ele>342.0</ele><time>2026-03-28T10:17:12.469Z</time></trkpt><trkpt lat="43.671305" lon="11.5379517"><ele>342.0</ele><time>2026-03-28T10:17:13.47Z</time></trkpt><trkpt lat="43.6713117" lon="11.537865"><ele>342.0</ele><time>2026-03-28T10:17:14.47Z</time></trkpt><trkpt lat="43.6713217" lon="11.537695"><ele>342.0</ele><time>2026-03-28T10:17:16.469Z</time></trkpt><trkpt lat="43.67134" lon="11.537535"><ele>342.0</ele><time>2026-03-28T10:17:18.468Z</time></trkpt><trkpt lat="43.6713817" lon="11.5374"><ele>342.40000000000003</ele><time>2026-03-28T10:17:20.475Z</time></trkpt><trkpt lat="43.6714483" lon="11.5372933"><ele>342.8</ele><time>2026-03-28T10:17:22.468Z</time></trkpt><trkpt lat="43.6715033" lon="11.5371783"><ele>343.2</ele><time>2026-03-28T10:17:24.469Z</time></trkpt><trkpt lat="43.6715183" lon="11.5370333"><ele>343.6</ele><time>2026-03-28T10:17:26.469Z</time></trkpt><trkpt lat="43.6714833" lon="11.5368983"><ele>344.0</ele><time>2026-03-28T10:17:28.473Z</time></trkpt><trkpt lat="43.6713983" lon="11.5368033"><ele>344.0</ele><time>2026-03-28T10:17:30.469Z</time></trkpt><trkpt lat="43.6712917" lon="11.5367433"><ele>344.0</ele><time>2026-03-28T10:17:32.47Z</time></trkpt><trkpt lat="43.67119" lon="11.5366633"><ele>344.0</ele><time>2026-03-28T10:17:34.47Z</time></trkpt><trkpt lat="43.6711117" lon="11.5365417"><ele>344.0</ele><time>2026-03-28T10:17:36.469Z</time></trkpt><trkpt lat="43.6710567" lon="11.5364"><ele>340.75</ele><time>2026-03-28T10:17:38.47Z</time></trkpt><trkpt lat="43.6710133" lon="11.5362567"><ele>337.5</ele><time>2026-03-28T10:17:40.469Z</time></trkpt><trkpt lat="43.6709733" lon="11.5361167"><ele>334.25</ele><time>2026-03-28T10:17:42.468Z</time></trkpt><trkpt lat="43.670935" lon="11.535965"><ele>331.0</ele><time>2026-03-28T10:17:44.469Z</time></trkpt><trkpt lat="43.6709217" lon="11.5358033"><ele>331.0</ele><time>2026-03-28T10:17:46.468Z</time></trkpt><trkpt lat="43.6709333" lon="11.5356367"><ele>331.0</ele><time>2026-03-28T10:17:48.469Z</time></trkpt><trkpt lat="43.67097" lon="11.535485"><ele>331.0</ele><time>2026-03-28T10:17:50.47Z</time></trkpt><trkpt lat="43.6710233" lon="11.5353467"><ele>331.0</ele><time>2026-03-28T10:17:52.468Z</time></trkpt><trkpt lat="43.6710883" lon="11.535215"><ele>334.0</ele><time>2026-03-28T10:17:54.469Z</time></trkpt><trkpt lat="43.6711633" lon="11.5350883"><ele>337.0</ele><time>2026-03-28T10:17:56.468Z</time></trkpt><trkpt lat="43.6712183" lon="11.534945"><ele>340.0</ele><time>2026-03-28T10:17:58.469Z</time></trkpt><trkpt lat="43.6712567" lon="11.53479"><ele>343.0</ele><time>2026-03-28T10:18:00.469Z</time></trkpt><trkpt lat="43.6712867" lon="11.5346283"><ele>343.25</ele><time>2026-03-28T10:18:02.468Z</time></trkpt><trkpt lat="43.6713133" lon="11.5344633"><ele>343.5</ele><time>2026-03-28T10:18:04.468Z</time></trkpt><trkpt lat="43.67134" lon="11.5343"><ele>343.75</ele><time>2026-03-28T10:18:06.47Z</time></trkpt><trkpt lat="43.671375" lon="11.53414"><ele>344.0</ele><time>2026-03-28T10:18:08.469Z</time></trkpt><trkpt lat="43.67143" lon="11.5339883"><ele>344.0</ele><time>2026-03-28T10:18:10.469Z</time></trkpt><trkpt lat="43.6715" lon="11.5338633"><ele>344.0</ele><time>2026-03-28T10:18:12.468Z</time></trkpt><trkpt lat="43.6715967" lon="11.5337667"><ele>344.0</ele><time>2026-03-28T10:18:14.471Z</time></trkpt><trkpt lat="43.6716933" lon="11.533705"><ele>344.0</ele><time>2026-03-28T10:18:16.473Z</time></trkpt><trkpt lat="43.6718017" lon="11.5336567"><ele>343.25</ele><time>2026-03-28T10:18:18.471Z</time></trkpt><trkpt lat="43.6719133" lon="11.5336033"><ele>342.5</ele><time>2026-03-28T10:18:20.471Z</time></trkpt><trkpt lat="43.6720283" lon="11.5335517"><ele>341.75</ele><time>2026-03-28T10:18:22.471Z</time></trkpt><trkpt lat="43.67214" lon="11.5335017"><ele>341.0</ele><time>2026-03-28T10:18:24.47Z</time></trkpt><trkpt lat="43.6722483" lon="11.5334483"><ele>341.0</ele><time>2026-03-28T10:18:26.468Z</time></trkpt><trkpt lat="43.672355" lon="11.5333933"><ele>341.0</ele><time>2026-03-28T10:18:28.468Z</time></trkpt><trkpt lat="43.672465" lon="11.5333517"><ele>341.0</ele><time>2026-03-28T10:18:30.469Z</time></trkpt><trkpt lat="43.67257" lon="11.5333017"><ele>341.0</ele><time>2026-03-28T10:18:32.47Z</time></trkpt><trkpt lat="43.6726683" lon="11.53326"><ele>341.0</ele><time>2026-03-28T10:18:34.469Z</time></trkpt><trkpt lat="43.672765" lon="11.533215"><ele>342.8</ele><time>2026-03-28T10:18:36.469Z</time></trkpt><trkpt lat="43.6728583" lon="11.5331667"><ele>344.6</ele><time>2026-03-28T10:18:38.47Z</time></trkpt><trkpt lat="43.67295" lon="11.5331317"><ele>346.4</ele><time>2026-03-28T10:18:40.468Z</time></trkpt><trkpt lat="43.6730317" lon="11.5330867"><ele>348.2</ele><time>2026-03-28T10:18:42.47Z</time></trkpt><trkpt lat="43.6731117" lon="11.5330567"><ele>350.0</ele><time>2026-03-28T10:18:44.471Z</time></trkpt><trkpt lat="43.6731967" lon="11.5330333"><ele>350.0</ele><time>2026-03-28T10:18:46.469Z</time></trkpt><trkpt lat="43.6732833" lon="11.5330233"><ele>350.0</ele><time>2026-03-28T10:18:48.469Z</time></trkpt><trkpt lat="43.6733717" lon="11.5330233"><ele>350.0</ele><time>2026-03-28T10:18:50.47Z</time></trkpt><trkpt lat="43.673455" lon="11.5330267"><ele>350.0</ele><time>2026-03-28T10:18:52.472Z</time></trkpt><trkpt lat="43.6735383" lon="11.5330367"><ele>350.0</ele><time>2026-03-28T10:18:54.469Z</time></trkpt><trkpt lat="43.6736117" lon="11.5330333"><ele>350.0</ele><time>2026-03-28T10:18:56.469Z</time></trkpt><trkpt lat="43.6736933" lon="11.53305"><ele>350.5</ele><time>2026-03-28T10:18:58.469Z</time></trkpt><trkpt lat="43.6737717" lon="11.5330667"><ele>351.0</ele><time>2026-03-28T10:19:00.469Z</time></trkpt><trkpt lat="43.6738483" lon="11.5330817"><ele>351.5</ele><time>2026-03-28T10:19:02.469Z</time></trkpt><trkpt lat="43.6739283" lon="11.533105"><ele>352.0</ele><time>2026-03-28T10:19:04.468Z</time></trkpt><trkpt lat="43.67401" lon="11.533125"><ele>352.5</ele><time>2026-03-28T10:19:06.468Z</time></trkpt><trkpt lat="43.674095" lon="11.5331483"><ele>353.0</ele><time>2026-03-28T10:19:08.467Z</time></trkpt><trkpt lat="43.67418" lon="11.533185"><ele>353.0</ele><time>2026-03-28T10:19:10.471Z</time></trkpt><trkpt lat="43.67426" lon="11.5332183"><ele>353.0</ele><time>2026-03-28T10:19:12.472Z</time></trkpt><trkpt lat="43.6743417" lon="11.53325"><ele>353.0</ele><time>2026-03-28T10:19:14.47Z</time></trkpt><trkpt lat="43.6744217" lon="11.5332867"><ele>353.0</ele><time>2026-03-28T10:19:16.47Z</time></trkpt><trkpt lat="43.6744967" lon="11.5333283"><ele>353.0</ele><time>2026-03-28T10:19:18.469Z</time></trkpt><trkpt lat="43.6745683" lon="11.5333683"><ele>353.0</ele><time>2026-03-28T10:19:20.47Z</time></trkpt><trkpt lat="43.67464" lon="11.5334133"><ele>352.83333333333337</ele><time>2026-03-28T10:19:22.47Z</time></trkpt><trkpt lat="43.6747117" lon="11.5334683"><ele>352.6666666666667</ele><time>2026-03-28T10:19:24.47Z</time></trkpt><trkpt lat="43.674785" lon="11.533525"><ele>352.5</ele><time>2026-03-28T10:19:26.47Z</time></trkpt><trkpt lat="43.6748583" lon="11.5335817"><ele>352.3333333333333</ele><time>2026-03-28T10:19:28.471Z</time></trkpt><trkpt lat="43.6749317" lon="11.5336317"><ele>352.16666666666663</ele><time>2026-03-28T10:19:30.469Z</time></trkpt><trkpt lat="43.6750133" lon="11.5336667"><ele>352.0</ele><time>2026-03-28T10:19:32.47Z</time></trkpt><trkpt lat="43.6751" lon="11.5336983"><ele>352.0</ele><time>2026-03-28T10:19:34.469Z</time></trkpt><trkpt lat="43.6751933" lon="11.5337217"><ele>352.0</ele><time>2026-03-28T10:19:36.47Z</time></trkpt><trkpt lat="43.675295" lon="11.5337233"><ele>352.0</ele><time>2026-03-28T10:19:38.469Z</time></trkpt><trkpt lat="43.6753917" lon="11.533665"><ele>352.0</ele><time>2026-03-28T10:19:40.469Z</time></trkpt><trkpt lat="43.67546" lon="11.5335483"><ele>352.0</ele><time>2026-03-28T10:19:42.47Z</time></trkpt><trkpt lat="43.675495" lon="11.5333967"><ele>351.0</ele><time>2026-03-28T10:19:44.47Z</time></trkpt><trkpt lat="43.6754817" lon="11.5332367"><ele>350.0</ele><time>2026-03-28T10:19:46.469Z</time></trkpt><trkpt lat="43.67546" lon="11.5330867"><ele>349.0</ele><time>2026-03-28T10:19:48.47Z</time></trkpt><trkpt lat="43.67545" lon="11.5329533"><ele>348.0</ele><time>2026-03-28T10:19:50.472Z</time></trkpt><trkpt lat="43.6754867" lon="11.53283"><ele>347.0</ele><time>2026-03-28T10:19:52.468Z</time></trkpt><trkpt lat="43.675565" lon="11.53274"><ele>347.0</ele><time>2026-03-28T10:19:54.47Z</time></trkpt><trkpt lat="43.675665" lon="11.5327217"><ele>347.0</ele><time>2026-03-28T10:19:56.47Z</time></trkpt><trkpt lat="43.6757733" lon="11.5327467"><ele>347.0</ele><time>2026-03-28T10:19:58.469Z</time></trkpt><trkpt lat="43.6758767" lon="11.532785"><ele>347.0</ele><time>2026-03-28T10:20:00.471Z</time></trkpt><trkpt lat="43.6759767" lon="11.53283"><ele>347.0</ele><time>2026-03-28T10:20:02.471Z</time></trkpt><trkpt lat="43.6760817" lon="11.5328733"><ele>351.0</ele><time>2026-03-28T10:20:04.47Z</time></trkpt><trkpt lat="43.676185" lon="11.5329217"><ele>355.0</ele><time>2026-03-28T10:20:06.47Z</time></trkpt><trkpt lat="43.6762817" lon="11.5329733"><ele>359.0</ele><time>2026-03-28T10:20:08.469Z</time></trkpt><trkpt lat="43.676375" lon="11.5330317"><ele>363.0</ele><time>2026-03-28T10:20:10.469Z</time></trkpt><trkpt lat="43.6764667" lon="11.5330967"><ele>367.0</ele><time>2026-03-28T10:20:12.471Z</time></trkpt><trkpt lat="43.6765517" lon="11.533165"><ele>367.0</ele><time>2026-03-28T10:20:14.472Z</time></trkpt><trkpt lat="43.6766383" lon="11.5332283"><ele>367.0</ele><time>2026-03-28T10:20:16.469Z</time></trkpt><trkpt lat="43.676725" lon="11.5332883"><ele>367.0</ele><time>2026-03-28T10:20:18.47Z</time></trkpt><trkpt lat="43.6768117" lon="11.53335"><ele>367.0</ele><time>2026-03-28T10:20:20.47Z</time></trkpt><trkpt lat="43.6768967" lon="11.5334133"><ele>367.0</ele><time>2026-03-28T10:20:22.471Z</time></trkpt><trkpt lat="43.6769783" lon="11.5334767"><ele>365.20000000000005</ele><time>2026-03-28T10:20:24.469Z</time></trkpt><trkpt lat="43.6770617" lon="11.5335383"><ele>363.4</ele><time>2026-03-28T10:20:26.47Z</time></trkpt><trkpt lat="43.6771417" lon="11.5336017"><ele>361.6</ele><time>2026-03-28T10:20:28.471Z</time></trkpt><trkpt lat="43.6772283" lon="11.5336567"><ele>359.79999999999995</ele><time>2026-03-28T10:20:30.472Z</time></trkpt><trkpt lat="43.677315" lon="11.53372"><ele>358.0</ele><time>2026-03-28T10:20:32.472Z</time></trkpt><trkpt lat="43.6773983" lon="11.5337667"><ele>359.79999999999995</ele><time>2026-03-28T10:20:34.468Z</time></trkpt><trkpt lat="43.6774817" lon="11.533825"><ele>361.6</ele><time>2026-03-28T10:20:36.469Z</time></trkpt><trkpt lat="43.67756" lon="11.5338867"><ele>363.4</ele><time>2026-03-28T10:20:38.47Z</time></trkpt><trkpt lat="43.6776417" lon="11.533945"><ele>365.20000000000005</ele><time>2026-03-28T10:20:40.471Z</time></trkpt><trkpt lat="43.6777217" lon="11.5339933"><ele>367.0</ele><time>2026-03-28T10:20:42.468Z</time></trkpt><trkpt lat="43.6778017" lon="11.53405"><ele>367.0</ele><time>2026-03-28T10:20:44.472Z</time></trkpt><trkpt lat="43.6778833" lon="11.53411"><ele>367.0</ele><time>2026-03-28T10:20:46.47Z</time></trkpt><trkpt lat="43.67796" lon="11.534175"><ele>367.0</ele><time>2026-03-28T10:20:48.469Z</time></trkpt><trkpt lat="43.6780333" lon="11.53423"><ele>367.0</ele><time>2026-03-28T10:20:50.47Z</time></trkpt><trkpt lat="43.67811" lon="11.5342883"><ele>367.0</ele><time>2026-03-28T10:20:52.47Z</time></trkpt><trkpt lat="43.6781933" lon="11.5343533"><ele>367.0</ele><time>2026-03-28T10:20:54.471Z</time></trkpt><trkpt lat="43.6782783" lon="11.5344067"><ele>367.0</ele><time>2026-03-28T10:20:56.472Z</time></trkpt><trkpt lat="43.6783583" lon="11.5344583"><ele>367.0</ele><time>2026-03-28T10:20:58.473Z</time></trkpt><trkpt lat="43.678435" lon="11.5345233"><ele>367.0</ele><time>2026-03-28T10:21:00.471Z</time></trkpt><trkpt lat="43.6785133" lon="11.5345833"><ele>367.0</ele><time>2026-03-28T10:21:02.47Z</time></trkpt><trkpt lat="43.678595" lon="11.5346367"><ele>367.0</ele><time>2026-03-28T10:21:04.47Z</time></trkpt><trkpt lat="43.6786833" lon="11.534695"><ele>368.6</ele><time>2026-03-28T10:21:06.471Z</time></trkpt><trkpt lat="43.678765" lon="11.5347467"><ele>370.20000000000005</ele><time>2026-03-28T10:21:08.474Z</time></trkpt><trkpt lat="43.678845" lon="11.534815"><ele>371.8</ele><time>2026-03-28T10:21:10.471Z</time></trkpt><trkpt lat="43.6789183" lon="11.5348983"><ele>373.4</ele><time>2026-03-28T10:21:12.471Z</time></trkpt><trkpt lat="43.6789883" lon="11.5349833"><ele>375.0</ele><time>2026-03-28T10:21:14.47Z</time></trkpt><trkpt lat="43.6790583" lon="11.535065"><ele>375.0</ele><time>2026-03-28T10:21:16.469Z</time></trkpt><trkpt lat="43.6791217" lon="11.5351333"><ele>375.0</ele><time>2026-03-28T10:21:18.469Z</time></trkpt><trkpt lat="43.6791917" lon="11.5352167"><ele>375.0</ele><time>2026-03-28T10:21:20.471Z</time></trkpt><trkpt lat="43.679265" lon="11.5353067"><ele>375.0</ele><time>2026-03-28T10:21:22.47Z</time></trkpt><trkpt lat="43.67934" lon="11.53539"><ele>375.0</ele><time>2026-03-28T10:21:24.47Z</time></trkpt><trkpt lat="43.67942" lon="11.5354483"><ele>377.0</ele><time>2026-03-28T10:21:26.47Z</time></trkpt><trkpt lat="43.6795083" lon="11.5354867"><ele>379.0</ele><time>2026-03-28T10:21:28.472Z</time></trkpt><trkpt lat="43.6796033" lon="11.5355133"><ele>381.0</ele><time>2026-03-28T10:21:30.473Z</time></trkpt><trkpt lat="43.6796967" lon="11.5355267"><ele>383.0</ele><time>2026-03-28T10:21:32.472Z</time></trkpt><trkpt lat="43.6797867" lon="11.5355433"><ele>385.0</ele><time>2026-03-28T10:21:34.47Z</time></trkpt><trkpt lat="43.6798817" lon="11.53556"><ele>385.00000000000006</ele><time>2026-03-28T10:21:36.469Z</time></trkpt><trkpt lat="43.6799683" lon="11.5355767"><ele>385.0</ele><time>2026-03-28T10:21:38.471Z</time></trkpt><trkpt lat="43.680055" lon="11.5355917"><ele>385.0</ele><time>2026-03-28T10:21:40.471Z</time></trkpt><trkpt lat="43.68014" lon="11.5356017"><ele>385.0</ele><time>2026-03-28T10:21:42.473Z</time></trkpt><trkpt lat="43.6802283" lon="11.5356283"><ele>385.00000000000006</ele><time>2026-03-28T10:21:44.471Z</time></trkpt><trkpt lat="43.68032" lon="11.53566"><ele>385.0</ele><time>2026-03-28T10:21:46.474Z</time></trkpt><trkpt lat="43.6804067" lon="11.5357"><ele>384.33333333333337</ele><time>2026-03-28T10:21:48.471Z</time></trkpt><trkpt lat="43.680485" lon="11.5357567"><ele>383.6666666666667</ele><time>2026-03-28T10:21:50.47Z</time></trkpt><trkpt lat="43.6805583" lon="11.5358167"><ele>383.0</ele><time>2026-03-28T10:21:52.468Z</time></trkpt><trkpt lat="43.68063" lon="11.5358767"><ele>382.33333333333337</ele><time>2026-03-28T10:21:54.47Z</time></trkpt><trkpt lat="43.6807017" lon="11.53596"><ele>381.6666666666667</ele><time>2026-03-28T10:21:56.47Z</time></trkpt><trkpt lat="43.680775" lon="11.53604"><ele>381.0</ele><time>2026-03-28T10:21:58.47Z</time></trkpt><trkpt lat="43.6808433" lon="11.5361217"><ele>381.0</ele><time>2026-03-28T10:22:00.468Z</time></trkpt><trkpt lat="43.6809133" lon="11.5361917"><ele>381.0</ele><time>2026-03-28T10:22:02.472Z</time></trkpt><trkpt lat="43.680985" lon="11.5362633"><ele>381.0</ele><time>2026-03-28T10:22:04.47Z</time></trkpt><trkpt lat="43.68105" lon="11.53634"><ele>381.0</ele><time>2026-03-28T10:22:06.47Z</time></trkpt><trkpt lat="43.68111" lon="11.53641"><ele>381.0</ele><time>2026-03-28T10:22:08.472Z</time></trkpt><trkpt lat="43.6811667" lon="11.5364783"><ele>381.0</ele><time>2026-03-28T10:22:10.471Z</time></trkpt><trkpt lat="43.6812233" lon="11.5365483"><ele>382.5</ele><time>2026-03-28T10:22:12.471Z</time></trkpt><trkpt lat="43.681275" lon="11.536625"><ele>384.0</ele><time>2026-03-28T10:22:14.471Z</time></trkpt><trkpt lat="43.6813183" lon="11.53672"><ele>385.5</ele><time>2026-03-28T10:22:16.471Z</time></trkpt><trkpt lat="43.681365" lon="11.5368083"><ele>387.0</ele><time>2026-03-28T10:22:18.471Z</time></trkpt><trkpt lat="43.6814167" lon="11.536895"><ele>388.5</ele><time>2026-03-28T10:22:20.471Z</time></trkpt><trkpt lat="43.6814917" lon="11.5369133"><ele>390.0</ele><time>2026-03-28T10:22:22.471Z</time></trkpt><trkpt lat="43.68157" lon="11.536875"><ele>390.0</ele><time>2026-03-28T10:22:24.47Z</time></trkpt><trkpt lat="43.6816517" lon="11.5368117"><ele>390.0</ele><time>2026-03-28T10:22:26.471Z</time></trkpt><trkpt lat="43.6817367" lon="11.53676"><ele>390.0</ele><time>2026-03-28T10:22:28.47Z</time></trkpt><trkpt lat="43.681825" lon="11.5366917"><ele>390.0</ele><time>2026-03-28T10:22:30.47Z</time></trkpt><trkpt lat="43.6819033" lon="11.536625"><ele>390.0</ele><time>2026-03-28T10:22:32.471Z</time></trkpt><trkpt lat="43.6819767" lon="11.53656"><ele>390.6666666666667</ele><time>2026-03-28T10:22:34.47Z</time></trkpt><trkpt lat="43.6820467" lon="11.5365"><ele>391.33333333333337</ele><time>2026-03-28T10:22:36.468Z</time></trkpt><trkpt lat="43.682115" lon="11.5364367"><ele>392.0</ele><time>2026-03-28T10:22:38.471Z</time></trkpt><trkpt lat="43.6821783" lon="11.536385"><ele>392.6666666666667</ele><time>2026-03-28T10:22:40.47Z</time></trkpt><trkpt lat="43.682245" lon="11.5363283"><ele>393.33333333333337</ele><time>2026-03-28T10:22:42.471Z</time></trkpt><trkpt lat="43.6823083" lon="11.5362617"><ele>394.0</ele><time>2026-03-28T10:22:44.471Z</time></trkpt><trkpt lat="43.6823633" lon="11.5362033"><ele>394.1666666666667</ele><time>2026-03-28T10:22:46.471Z</time></trkpt><trkpt lat="43.6824367" lon="11.53613"><ele>394.33333333333337</ele><time>2026-03-28T10:22:49.473Z</time></trkpt><trkpt lat="43.6824967" lon="11.53609"><ele>394.5</ele><time>2026-03-28T10:22:51.47Z</time></trkpt><trkpt lat="43.6825617" lon="11.536015"><ele>394.66666666666663</ele><time>2026-03-28T10:22:54.468Z</time></trkpt><trkpt lat="43.682575" lon="11.5358867"><ele>394.8333333333333</ele><time>2026-03-28T10:24:10.467Z</time></trkpt><trkpt lat="43.68256" lon="11.5357733"><ele>395.0</ele><time>2026-03-28T10:24:14.472Z</time></trkpt><trkpt lat="43.682545" lon="11.5356533"><ele>394.99999999999994</ele><time>2026-03-28T10:24:17.471Z</time></trkpt><trkpt lat="43.68253" lon="11.5355633"><ele>395.0</ele><time>2026-03-28T10:24:19.469Z</time></trkpt><trkpt lat="43.6825067" lon="11.5354517"><ele>395.0</ele><time>2026-03-28T10:24:22.469Z</time></trkpt><trkpt lat="43.682475" lon="11.5353383"><ele>395.0</ele><time>2026-03-28T10:24:25.471Z</time></trkpt><trkpt lat="43.6824617" lon="11.5352167"><ele>394.99999999999994</ele><time>2026-03-28T10:24:28.472Z</time></trkpt><trkpt lat="43.6824583" lon="11.5350967"><ele>395.0</ele><time>2026-03-28T10:24:31.47Z</time></trkpt><trkpt lat="43.682455" lon="11.5350017"><ele>395.16666666666663</ele><time>2026-03-28T10:24:34.47Z</time></trkpt><trkpt lat="43.6824283" lon="11.5348933"><ele>395.3333333333333</ele><time>2026-03-28T10:24:37.471Z</time></trkpt><trkpt lat="43.6823567" lon="11.5348317"><ele>395.5</ele><time>2026-03-28T10:24:40.47Z</time></trkpt><trkpt lat="43.6822883" lon="11.5348417"><ele>395.66666666666663</ele><time>2026-03-28T10:24:42.469Z</time></trkpt><trkpt lat="43.68222" lon="11.5348533"><ele>395.8333333333333</ele><time>2026-03-28T10:24:44.471Z</time></trkpt><trkpt lat="43.68214" lon="11.5348133"><ele>396.0</ele><time>2026-03-28T10:24:46.47Z</time></trkpt><trkpt lat="43.6820633" lon="11.5347167"><ele>396.0</ele><time>2026-03-28T10:24:48.471Z</time></trkpt><trkpt lat="43.681985" lon="11.5346067"><ele>396.0</ele><time>2026-03-28T10:24:50.473Z</time></trkpt><trkpt lat="43.6819067" lon="11.5345017"><ele>396.0</ele><time>2026-03-28T10:24:52.471Z</time></trkpt><trkpt lat="43.681835" lon="11.534405"><ele>396.0</ele><time>2026-03-28T10:24:54.471Z</time></trkpt><trkpt lat="43.681745" lon="11.5342967"><ele>396.0</ele><time>2026-03-28T10:24:56.473Z</time></trkpt><trkpt lat="43.6816983" lon="11.5342317"><ele>394.1666666666667</ele><time>2026-03-28T10:24:57.471Z</time></trkpt><trkpt lat="43.6816483" lon="11.534165"><ele>392.33333333333337</ele><time>2026-03-28T10:24:58.47Z</time></trkpt><trkpt lat="43.681595" lon="11.5340917"><ele>390.5</ele><time>2026-03-28T10:24:59.471Z</time></trkpt><trkpt lat="43.68154" lon="11.5340167"><ele>388.6666666666667</ele><time>2026-03-28T10:25:00.468Z</time></trkpt><trkpt lat="43.6814817" lon="11.53394"><ele>386.83333333333337</ele><time>2026-03-28T10:25:01.471Z</time></trkpt><trkpt lat="43.68142" lon="11.5338583"><ele>385.0</ele><time>2026-03-28T10:25:02.469Z</time></trkpt><trkpt lat="43.68136" lon="11.5337717"><ele>384.8</ele><time>2026-03-28T10:25:03.47Z</time></trkpt><trkpt lat="43.6812983" lon="11.533685"><ele>384.6</ele><time>2026-03-28T10:25:04.469Z</time></trkpt><trkpt lat="43.6812333" lon="11.5335967"><ele>384.4</ele><time>2026-03-28T10:25:05.469Z</time></trkpt><trkpt lat="43.681165" lon="11.5335017"><ele>384.2</ele><time>2026-03-28T10:25:06.469Z</time></trkpt><trkpt lat="43.681095" lon="11.533405"><ele>384.0</ele><time>2026-03-28T10:25:07.471Z</time></trkpt><trkpt lat="43.6810233" lon="11.5333117"><ele>382.4</ele><time>2026-03-28T10:25:08.472Z</time></trkpt><trkpt lat="43.6809517" lon="11.5332133"><ele>380.79999999999995</ele><time>2026-03-28T10:25:09.471Z</time></trkpt><trkpt lat="43.6808783" lon="11.5331083"><ele>379.20000000000005</ele><time>2026-03-28T10:25:10.47Z</time></trkpt><trkpt lat="43.680805" lon="11.5330033"><ele>377.6</ele><time>2026-03-28T10:25:11.47Z</time></trkpt><trkpt lat="43.6807317" lon="11.5329033"><ele>376.0</ele><time>2026-03-28T10:25:12.471Z</time></trkpt><trkpt lat="43.6806617" lon="11.5328067"><ele>376.0</ele><time>2026-03-28T10:25:13.471Z</time></trkpt><trkpt lat="43.6805983" lon="11.5327167"><ele>376.0</ele><time>2026-03-28T10:25:14.47Z</time></trkpt><trkpt lat="43.6805333" lon="11.5326333"><ele>376.0</ele><time>2026-03-28T10:25:15.471Z</time></trkpt><trkpt lat="43.680465" lon="11.5325483"><ele>376.0</ele><time>2026-03-28T10:25:16.471Z</time></trkpt><trkpt lat="43.6803967" lon="11.5324633"><ele>376.0</ele><time>2026-03-28T10:25:17.471Z</time></trkpt><trkpt lat="43.680325" lon="11.5323817"><ele>374.8333333333333</ele><time>2026-03-28T10:25:18.471Z</time></trkpt><trkpt lat="43.6802517" lon="11.5323033"><ele>373.66666666666663</ele><time>2026-03-28T10:25:19.472Z</time></trkpt><trkpt lat="43.6801833" lon="11.53223"><ele>372.5</ele><time>2026-03-28T10:25:20.471Z</time></trkpt><trkpt lat="43.680115" lon="11.5321517"><ele>371.3333333333333</ele><time>2026-03-28T10:25:21.47Z</time></trkpt><trkpt lat="43.6800467" lon="11.5320717"><ele>370.1666666666667</ele><time>2026-03-28T10:25:22.472Z</time></trkpt><trkpt lat="43.6799817" lon="11.531995"><ele>369.0</ele><time>2026-03-28T10:25:23.473Z</time></trkpt><trkpt lat="43.679915" lon="11.5319217"><ele>369.0</ele><time>2026-03-28T10:25:24.473Z</time></trkpt><trkpt lat="43.6798467" lon="11.5318483"><ele>369.0</ele><time>2026-03-28T10:25:25.473Z</time></trkpt><trkpt lat="43.6797783" lon="11.531775"><ele>369.0</ele><time>2026-03-28T10:25:26.473Z</time></trkpt><trkpt lat="43.6797067" lon="11.5317017"><ele>369.0</ele><time>2026-03-28T10:25:27.472Z</time></trkpt><trkpt lat="43.6796333" lon="11.531635"><ele>369.0</ele><time>2026-03-28T10:25:28.472Z</time></trkpt><trkpt lat="43.6795567" lon="11.5315717"><ele>369.0</ele><time>2026-03-28T10:25:29.47Z</time></trkpt><trkpt lat="43.6794767" lon="11.5315083"><ele>367.6</ele><time>2026-03-28T10:25:30.47Z</time></trkpt><trkpt lat="43.6793883" lon="11.5314517"><ele>366.2</ele><time>2026-03-28T10:25:31.471Z</time></trkpt><trkpt lat="43.6793017" lon="11.5313983"><ele>364.8</ele><time>2026-03-28T10:25:32.472Z</time></trkpt><trkpt lat="43.67921" lon="11.5313467"><ele>363.40000000000003</ele><time>2026-03-28T10:25:33.473Z</time></trkpt><trkpt lat="43.679115" lon="11.5312967"><ele>362.0</ele><time>2026-03-28T10:25:34.471Z</time></trkpt><trkpt lat="43.6790283" lon="11.53125"><ele>362.40000000000003</ele><time>2026-03-28T10:25:35.471Z</time></trkpt><trkpt lat="43.6789433" lon="11.531205"><ele>362.8</ele><time>2026-03-28T10:25:36.473Z</time></trkpt><trkpt lat="43.6788617" lon="11.53116"><ele>363.2</ele><time>2026-03-28T10:25:37.47Z</time></trkpt><trkpt lat="43.6787767" lon="11.5311133"><ele>363.6</ele><time>2026-03-28T10:25:38.47Z</time></trkpt><trkpt lat="43.67869" lon="11.531065"><ele>364.0</ele><time>2026-03-28T10:25:39.468Z</time></trkpt><trkpt lat="43.6786033" lon="11.5310167"><ele>362.4</ele><time>2026-03-28T10:25:40.468Z</time></trkpt><trkpt lat="43.6785117" lon="11.530965"><ele>360.79999999999995</ele><time>2026-03-28T10:25:41.47Z</time></trkpt><trkpt lat="43.67842" lon="11.5309067"><ele>359.20000000000005</ele><time>2026-03-28T10:25:42.47Z</time></trkpt><trkpt lat="43.678325" lon="11.53085"><ele>357.6</ele><time>2026-03-28T10:25:43.467Z</time></trkpt><trkpt lat="43.6782333" lon="11.530795"><ele>356.0</ele><time>2026-03-28T10:25:44.468Z</time></trkpt><trkpt lat="43.6781517" lon="11.5307483"><ele>356.0</ele><time>2026-03-28T10:25:45.468Z</time></trkpt><trkpt lat="43.678075" lon="11.5307"><ele>356.0</ele><time>2026-03-28T10:25:46.467Z</time></trkpt><trkpt lat="43.6780083" lon="11.5306517"><ele>356.0</ele><time>2026-03-28T10:25:47.469Z</time></trkpt><trkpt lat="43.6779467" lon="11.5306117"><ele>356.0</ele><time>2026-03-28T10:25:48.467Z</time></trkpt><trkpt lat="43.67785" lon="11.530555"><ele>356.0</ele><time>2026-03-28T10:25:50.469Z</time></trkpt><trkpt lat="43.6777967" lon="11.5304967"><ele>356.0</ele><time>2026-03-28T10:25:52.466Z</time></trkpt><trkpt lat="43.6777667" lon="11.530415"><ele>355.6666666666667</ele><time>2026-03-28T10:25:54.471Z</time></trkpt><trkpt lat="43.6777533" lon="11.5303033"><ele>355.33333333333337</ele><time>2026-03-28T10:25:56.47Z</time></trkpt><trkpt lat="43.6777517" lon="11.5301733"><ele>355.0</ele><time>2026-03-28T10:25:58.471Z</time></trkpt><trkpt lat="43.6777467" lon="11.5300533"><ele>354.6666666666667</ele><time>2026-03-28T10:26:00.472Z</time></trkpt><trkpt lat="43.6777283" lon="11.5299533"><ele>354.3333333333333</ele><time>2026-03-28T10:26:02.469Z</time></trkpt><trkpt lat="43.6776833" lon="11.52989"><ele>354.0</ele><time>2026-03-28T10:26:04.472Z</time></trkpt><trkpt lat="43.677595" lon="11.5298567"><ele>354.0</ele><time>2026-03-28T10:26:07.469Z</time></trkpt><trkpt lat="43.6775" lon="11.52982"><ele>354.0</ele><time>2026-03-28T10:26:09.47Z</time></trkpt><trkpt lat="43.6773817" lon="11.5297617"><ele>354.0</ele><time>2026-03-28T10:26:11.47Z</time></trkpt><trkpt lat="43.6773117" lon="11.5297267"><ele>354.0</ele><time>2026-03-28T10:26:12.469Z</time></trkpt><trkpt lat="43.6772383" lon="11.5296917"><ele>354.0</ele><time>2026-03-28T10:26:13.469Z</time></trkpt><trkpt lat="43.6771633" lon="11.5296517"><ele>354.0</ele><time>2026-03-28T10:26:14.47Z</time></trkpt><trkpt lat="43.677085" lon="11.5296067"><ele>354.0</ele><time>2026-03-28T10:26:15.469Z</time></trkpt><trkpt lat="43.6770033" lon="11.5295617"><ele>354.0</ele><time>2026-03-28T10:26:16.47Z</time></trkpt><trkpt lat="43.6769183" lon="11.5295133"><ele>354.0</ele><time>2026-03-28T10:26:17.468Z</time></trkpt><trkpt lat="43.6768333" lon="11.5294617"><ele>354.0</ele><time>2026-03-28T10:26:18.47Z</time></trkpt><trkpt lat="43.6767467" lon="11.5294033"><ele>353.0</ele><time>2026-03-28T10:26:19.468Z</time></trkpt><trkpt lat="43.6766583" lon="11.5293333"><ele>352.0</ele><time>2026-03-28T10:26:20.47Z</time></trkpt><trkpt lat="43.67657" lon="11.5292533"><ele>351.0</ele><time>2026-03-28T10:26:21.471Z</time></trkpt><trkpt lat="43.676485" lon="11.5291617"><ele>350.0</ele><time>2026-03-28T10:26:22.47Z</time></trkpt><trkpt lat="43.676405" lon="11.529065"><ele>349.0</ele><time>2026-03-28T10:26:23.471Z</time></trkpt><trkpt lat="43.6763317" lon="11.5289733"><ele>349.0</ele><time>2026-03-28T10:26:24.473Z</time></trkpt><trkpt lat="43.6762683" lon="11.5288883"><ele>349.0</ele><time>2026-03-28T10:26:25.471Z</time></trkpt><trkpt lat="43.67621" lon="11.52881"><ele>349.0</ele><time>2026-03-28T10:26:26.471Z</time></trkpt><trkpt lat="43.67616" lon="11.5287333"><ele>349.0</ele><time>2026-03-28T10:26:27.473Z</time></trkpt><trkpt lat="43.6761117" lon="11.5286617"><ele>349.0</ele><time>2026-03-28T10:26:28.471Z</time></trkpt><trkpt lat="43.6760683" lon="11.52859"><ele>349.0</ele><time>2026-03-28T10:26:29.472Z</time></trkpt><trkpt lat="43.67602" lon="11.5284783"><ele>348.16666666666663</ele><time>2026-03-28T10:26:31.469Z</time></trkpt><trkpt lat="43.675985" lon="11.5283733"><ele>347.3333333333333</ele><time>2026-03-28T10:26:34.468Z</time></trkpt><trkpt lat="43.6759067" lon="11.528305"><ele>346.5</ele><time>2026-03-28T10:26:36.471Z</time></trkpt><trkpt lat="43.675785" lon="11.5282817"><ele>345.6666666666667</ele><time>2026-03-28T10:26:38.473Z</time></trkpt><trkpt lat="43.6757167" lon="11.5282683"><ele>344.83333333333337</ele><time>2026-03-28T10:26:39.471Z</time></trkpt><trkpt lat="43.675645" lon="11.5282383"><ele>344.0</ele><time>2026-03-28T10:26:40.472Z</time></trkpt><trkpt lat="43.6755717" lon="11.5282"><ele>344.0</ele><time>2026-03-28T10:26:41.468Z</time></trkpt><trkpt lat="43.6754967" lon="11.5281567"><ele>344.0</ele><time>2026-03-28T10:26:42.469Z</time></trkpt><trkpt lat="43.6754183" lon="11.5281133"><ele>344.0</ele><time>2026-03-28T10:26:43.47Z</time></trkpt><trkpt lat="43.6753367" lon="11.5280717"><ele>344.0</ele><time>2026-03-28T10:26:44.47Z</time></trkpt><trkpt lat="43.675255" lon="11.52803"><ele>344.0</ele><time>2026-03-28T10:26:45.47Z</time></trkpt><trkpt lat="43.6751733" lon="11.52799"><ele>344.0</ele><time>2026-03-28T10:26:46.47Z</time></trkpt><trkpt lat="43.6751017" lon="11.52795"><ele>343.1666666666667</ele><time>2026-03-28T10:26:47.47Z</time></trkpt><trkpt lat="43.675035" lon="11.5279"><ele>342.33333333333337</ele><time>2026-03-28T10:26:48.469Z</time></trkpt><trkpt lat="43.67497" lon="11.5278333"><ele>341.5</ele><time>2026-03-28T10:26:49.469Z</time></trkpt><trkpt lat="43.6749183" lon="11.527745"><ele>340.6666666666667</ele><time>2026-03-28T10:26:50.473Z</time></trkpt><trkpt lat="43.6748817" lon="11.527645"><ele>339.8333333333333</ele><time>2026-03-28T10:26:51.471Z</time></trkpt><trkpt lat="43.67486" lon="11.5275283"><ele>339.0</ele><time>2026-03-28T10:26:52.471Z</time></trkpt><trkpt lat="43.6748383" lon="11.52741"><ele>338.6</ele><time>2026-03-28T10:26:53.471Z</time></trkpt><trkpt lat="43.6748167" lon="11.5272867"><ele>338.2</ele><time>2026-03-28T10:26:54.472Z</time></trkpt><trkpt lat="43.674795" lon="11.5271633"><ele>337.8</ele><time>2026-03-28T10:26:55.473Z</time></trkpt><trkpt lat="43.67477" lon="11.52704"><ele>337.40000000000003</ele><time>2026-03-28T10:26:56.472Z</time></trkpt><trkpt lat="43.6747467" lon="11.5269167"><ele>337.0</ele><time>2026-03-28T10:26:57.472Z</time></trkpt><trkpt lat="43.674725" lon="11.5267883"><ele>336.66666666666663</ele><time>2026-03-28T10:26:58.471Z</time></trkpt><trkpt lat="43.6747033" lon="11.52666"><ele>336.3333333333333</ele><time>2026-03-28T10:26:59.472Z</time></trkpt><trkpt lat="43.6746783" lon="11.5265333"><ele>336.0</ele><time>2026-03-28T10:27:00.472Z</time></trkpt><trkpt lat="43.6746567" lon="11.526415"><ele>335.6666666666667</ele><time>2026-03-28T10:27:01.473Z</time></trkpt><trkpt lat="43.67463" lon="11.5263067"><ele>335.33333333333337</ele><time>2026-03-28T10:27:02.472Z</time></trkpt><trkpt lat="43.6746067" lon="11.526205"><ele>335.0</ele><time>2026-03-28T10:27:03.47Z</time></trkpt><trkpt lat="43.6745883" lon="11.5261067"><ele>334.6666666666667</ele><time>2026-03-28T10:27:04.472Z</time></trkpt><trkpt lat="43.6745717" lon="11.5260183"><ele>334.33333333333337</ele><time>2026-03-28T10:27:05.473Z</time></trkpt><trkpt lat="43.6745633" lon="11.5258733"><ele>334.0</ele><time>2026-03-28T10:27:07.47Z</time></trkpt><trkpt lat="43.6745517" lon="11.5257583"><ele>333.6666666666667</ele><time>2026-03-28T10:27:09.468Z</time></trkpt><trkpt lat="43.674485" lon="11.525695"><ele>333.3333333333333</ele><time>2026-03-28T10:27:11.471Z</time></trkpt><trkpt lat="43.67439" lon="11.525735"><ele>333.0</ele><time>2026-03-28T10:27:13.471Z</time></trkpt><trkpt lat="43.6742783" lon="11.5257933"><ele>332.6666666666667</ele><time>2026-03-28T10:27:15.47Z</time></trkpt><trkpt lat="43.674215" lon="11.5258133"><ele>332.3333333333333</ele><time>2026-03-28T10:27:16.471Z</time></trkpt><trkpt lat="43.6741467" lon="11.5258317"><ele>332.0</ele><time>2026-03-28T10:27:17.473Z</time></trkpt><trkpt lat="43.674075" lon="11.5258567"><ele>331.66666666666663</ele><time>2026-03-28T10:27:18.471Z</time></trkpt><trkpt lat="43.674" lon="11.5258817"><ele>331.3333333333333</ele><time>2026-03-28T10:27:19.474Z</time></trkpt><trkpt lat="43.6739217" lon="11.5259083"><ele>331.0</ele><time>2026-03-28T10:27:20.473Z</time></trkpt><trkpt lat="43.67384" lon="11.5259383"><ele>331.0</ele><time>2026-03-28T10:27:21.471Z</time></trkpt><trkpt lat="43.6737583" lon="11.5259683"><ele>331.0</ele><time>2026-03-28T10:27:22.471Z</time></trkpt><trkpt lat="43.673675" lon="11.5260017"><ele>331.0</ele><time>2026-03-28T10:27:23.472Z</time></trkpt><trkpt lat="43.6735933" lon="11.5260367"><ele>331.0</ele><time>2026-03-28T10:27:24.471Z</time></trkpt><trkpt lat="43.67351" lon="11.5260767"><ele>331.0</ele><time>2026-03-28T10:27:25.47Z</time></trkpt><trkpt lat="43.673425" lon="11.5261283"><ele>331.0</ele><time>2026-03-28T10:27:26.472Z</time></trkpt><trkpt lat="43.67334" lon="11.526185"><ele>330.6</ele><time>2026-03-28T10:27:27.474Z</time></trkpt><trkpt lat="43.6732583" lon="11.52624"><ele>330.20000000000005</ele><time>2026-03-28T10:27:28.471Z</time></trkpt><trkpt lat="43.6731717" lon="11.526295"><ele>329.79999999999995</ele><time>2026-03-28T10:27:29.471Z</time></trkpt><trkpt lat="43.673085" lon="11.52635"><ele>329.4</ele><time>2026-03-28T10:27:30.471Z</time></trkpt><trkpt lat="43.6730017" lon="11.5264067"><ele>329.0</ele><time>2026-03-28T10:27:31.472Z</time></trkpt><trkpt lat="43.6729133" lon="11.5264617"><ele>329.0</ele><time>2026-03-28T10:27:32.472Z</time></trkpt><trkpt lat="43.672825" lon="11.52652"><ele>329.0</ele><time>2026-03-28T10:27:33.473Z</time></trkpt><trkpt lat="43.67274" lon="11.5265817"><ele>329.0</ele><time>2026-03-28T10:27:34.473Z</time></trkpt><trkpt lat="43.672665" lon="11.5266517"><ele>329.0</ele><time>2026-03-28T10:27:35.473Z</time></trkpt><trkpt lat="43.67259" lon="11.5267317"><ele>329.0</ele><time>2026-03-28T10:27:36.471Z</time></trkpt><trkpt lat="43.6725233" lon="11.5268233"><ele>329.2</ele><time>2026-03-28T10:27:37.47Z</time></trkpt><trkpt lat="43.6724667" lon="11.5269267"><ele>329.4</ele><time>2026-03-28T10:27:38.473Z</time></trkpt><trkpt lat="43.672415" lon="11.527035"><ele>329.6</ele><time>2026-03-28T10:27:39.475Z</time></trkpt><trkpt lat="43.6723667" lon="11.527145"><ele>329.8</ele><time>2026-03-28T10:27:40.471Z</time></trkpt><trkpt lat="43.6723183" lon="11.5272583"><ele>330.0</ele><time>2026-03-28T10:27:41.471Z</time></trkpt><trkpt lat="43.6722667" lon="11.52737"><ele>330.0</ele><time>2026-03-28T10:27:42.471Z</time></trkpt><trkpt lat="43.672215" lon="11.5274783"><ele>330.0</ele><time>2026-03-28T10:27:43.472Z</time></trkpt><trkpt lat="43.6721583" lon="11.527585"><ele>330.0</ele><time>2026-03-28T10:27:44.471Z</time></trkpt><trkpt lat="43.6720967" lon="11.5276817"><ele>330.0</ele><time>2026-03-28T10:27:45.47Z</time></trkpt><trkpt lat="43.6720183" lon="11.5277583"><ele>330.0</ele><time>2026-03-28T10:27:46.472Z</time></trkpt><trkpt lat="43.67193" lon="11.527815"><ele>329.2</ele><time>2026-03-28T10:27:47.471Z</time></trkpt><trkpt lat="43.671835" lon="11.5278467"><ele>328.4</ele><time>2026-03-28T10:27:48.471Z</time></trkpt><trkpt lat="43.6717317" lon="11.5278517"><ele>327.6</ele><time>2026-03-28T10:27:49.472Z</time></trkpt><trkpt lat="43.671625" lon="11.5278367"><ele>326.8</ele><time>2026-03-28T10:27:50.475Z</time></trkpt><trkpt lat="43.671515" lon="11.5278183"><ele>326.0</ele><time>2026-03-28T10:27:51.471Z</time></trkpt><trkpt lat="43.6714083" lon="11.5277967"><ele>326.0</ele><time>2026-03-28T10:27:52.472Z</time></trkpt><trkpt lat="43.6712967" lon="11.5277833"><ele>326.0</ele><time>2026-03-28T10:27:53.471Z</time></trkpt><trkpt lat="43.6711817" lon="11.52777"><ele>326.0</ele><time>2026-03-28T10:27:54.472Z</time></trkpt><trkpt lat="43.6710633" lon="11.5277517"><ele>326.0</ele><time>2026-03-28T10:27:55.472Z</time></trkpt><trkpt lat="43.6709467" lon="11.5277333"><ele>324.25</ele><time>2026-03-28T10:27:56.473Z</time></trkpt><trkpt lat="43.670825" lon="11.5277133"><ele>322.5</ele><time>2026-03-28T10:27:57.471Z</time></trkpt><trkpt lat="43.6707033" lon="11.527695"><ele>320.75</ele><time>2026-03-28T10:27:58.473Z</time></trkpt><trkpt lat="43.67058" lon="11.527685"><ele>319.0</ele><time>2026-03-28T10:27:59.473Z</time></trkpt><trkpt lat="43.6704567" lon="11.52767"><ele>319.0</ele><time>2026-03-28T10:28:00.471Z</time></trkpt><trkpt lat="43.670335" lon="11.5276467"><ele>319.0</ele><time>2026-03-28T10:28:01.474Z</time></trkpt><trkpt lat="43.6702167" lon="11.5276083"><ele>319.0</ele><time>2026-03-28T10:28:02.473Z</time></trkpt><trkpt lat="43.6701017" lon="11.527555"><ele>319.0</ele><time>2026-03-28T10:28:03.473Z</time></trkpt><trkpt lat="43.6699883" lon="11.5274883"><ele>317.5</ele><time>2026-03-28T10:28:04.471Z</time></trkpt><trkpt lat="43.6698783" lon="11.527425"><ele>316.0</ele><time>2026-03-28T10:28:05.472Z</time></trkpt><trkpt lat="43.66977" lon="11.5273583"><ele>314.5</ele><time>2026-03-28T10:28:06.47Z</time></trkpt><trkpt lat="43.6696667" lon="11.527275"><ele>313.0</ele><time>2026-03-28T10:28:07.469Z</time></trkpt><trkpt lat="43.6695667" lon="11.527185"><ele>313.0</ele><time>2026-03-28T10:28:08.47Z</time></trkpt><trkpt lat="43.66947" lon="11.527095"><ele>313.0</ele><time>2026-03-28T10:28:09.47Z</time></trkpt><trkpt lat="43.6693767" lon="11.5269967"><ele>313.0</ele><time>2026-03-28T10:28:10.47Z</time></trkpt><trkpt lat="43.6692833" lon="11.5268967"><ele>313.0</ele><time>2026-03-28T10:28:11.469Z</time></trkpt><trkpt lat="43.6691917" lon="11.5267933"><ele>313.0</ele><time>2026-03-28T10:28:12.47Z</time></trkpt><trkpt lat="43.6691033" lon="11.5266867"><ele>313.0</ele><time>2026-03-28T10:28:13.47Z</time></trkpt><trkpt lat="43.6690167" lon="11.5265783"><ele>313.0</ele><time>2026-03-28T10:28:14.47Z</time></trkpt><trkpt lat="43.6689283" lon="11.5264783"><ele>313.0</ele><time>2026-03-28T10:28:15.469Z</time></trkpt><trkpt lat="43.6688367" lon="11.5263817"><ele>313.0</ele><time>2026-03-28T10:28:16.47Z</time></trkpt><trkpt lat="43.6687433" lon="11.5262883"><ele>313.0</ele><time>2026-03-28T10:28:17.471Z</time></trkpt><trkpt lat="43.66865" lon="11.5261883"><ele>313.0</ele><time>2026-03-28T10:28:18.471Z</time></trkpt><trkpt lat="43.668555" lon="11.526085"><ele>313.0</ele><time>2026-03-28T10:28:19.472Z</time></trkpt><trkpt lat="43.6684617" lon="11.5259867"><ele>311.5</ele><time>2026-03-28T10:28:20.472Z</time></trkpt><trkpt lat="43.6683667" lon="11.52589"><ele>310.0</ele><time>2026-03-28T10:28:21.47Z</time></trkpt><trkpt lat="43.6682667" lon="11.5258"><ele>308.5</ele><time>2026-03-28T10:28:22.471Z</time></trkpt><trkpt lat="43.6681617" lon="11.5257167"><ele>307.0</ele><time>2026-03-28T10:28:23.475Z</time></trkpt><trkpt lat="43.6680583" lon="11.525635"><ele>307.0</ele><time>2026-03-28T10:28:24.471Z</time></trkpt><trkpt lat="43.6679533" lon="11.5255583"><ele>307.0</ele><time>2026-03-28T10:28:25.47Z</time></trkpt><trkpt lat="43.6678417" lon="11.5254783"><ele>307.0</ele><time>2026-03-28T10:28:26.472Z</time></trkpt><trkpt lat="43.6677367" lon="11.525395"><ele>307.0</ele><time>2026-03-28T10:28:27.471Z</time></trkpt><trkpt lat="43.6676333" lon="11.52531"><ele>306.25</ele><time>2026-03-28T10:28:28.472Z</time></trkpt><trkpt lat="43.6675283" lon="11.5252267"><ele>305.5</ele><time>2026-03-28T10:28:29.471Z</time></trkpt><trkpt lat="43.6674217" lon="11.525145"><ele>304.75</ele><time>2026-03-28T10:28:30.471Z</time></trkpt><trkpt lat="43.6673167" lon="11.52506"><ele>304.0</ele><time>2026-03-28T10:28:31.471Z</time></trkpt><trkpt lat="43.6672117" lon="11.5249783"><ele>304.0</ele><time>2026-03-28T10:28:32.472Z</time></trkpt><trkpt lat="43.6671033" lon="11.5248983"><ele>304.0</ele><time>2026-03-28T10:28:33.473Z</time></trkpt><trkpt lat="43.6669933" lon="11.52482"><ele>304.0</ele><time>2026-03-28T10:28:34.473Z</time></trkpt><trkpt lat="43.66688" lon="11.5247483"><ele>304.0</ele><time>2026-03-28T10:28:35.471Z</time></trkpt><trkpt lat="43.6667667" lon="11.52468"><ele>302.75</ele><time>2026-03-28T10:28:36.471Z</time></trkpt><trkpt lat="43.6666533" lon="11.5246133"><ele>301.5</ele><time>2026-03-28T10:28:37.47Z</time></trkpt><trkpt lat="43.66654" lon="11.524545"><ele>300.25</ele><time>2026-03-28T10:28:38.472Z</time></trkpt><trkpt lat="43.6664267" lon="11.5244767"><ele>299.0</ele><time>2026-03-28T10:28:39.472Z</time></trkpt><trkpt lat="43.666315" lon="11.5244133"><ele>298.5</ele><time>2026-03-28T10:28:40.472Z</time></trkpt><trkpt lat="43.6662017" lon="11.5243517"><ele>298.0</ele><time>2026-03-28T10:28:41.473Z</time></trkpt><trkpt lat="43.6660867" lon="11.5242917"><ele>297.5</ele><time>2026-03-28T10:28:42.471Z</time></trkpt><trkpt lat="43.6659733" lon="11.5242333"><ele>297.0</ele><time>2026-03-28T10:28:43.472Z</time></trkpt><trkpt lat="43.6658583" lon="11.5241783"><ele>296.5</ele><time>2026-03-28T10:28:44.472Z</time></trkpt><trkpt lat="43.665745" lon="11.5241267"><ele>296.0</ele><time>2026-03-28T10:28:45.47Z</time></trkpt><trkpt lat="43.6656283" lon="11.5240733"><ele>295.5</ele><time>2026-03-28T10:28:46.472Z</time></trkpt><trkpt lat="43.6655183" lon="11.524025"><ele>295.0</ele><time>2026-03-28T10:28:47.47Z</time></trkpt><trkpt lat="43.6654133" lon="11.523975"><ele>295.0</ele><time>2026-03-28T10:28:48.471Z</time></trkpt><trkpt lat="43.66531" lon="11.5239217"><ele>295.0</ele><time>2026-03-28T10:28:49.471Z</time></trkpt><trkpt lat="43.6652083" lon="11.52386"><ele>295.0</ele><time>2026-03-28T10:28:50.471Z</time></trkpt><trkpt lat="43.665105" lon="11.5237967"><ele>295.0</ele><time>2026-03-28T10:28:51.471Z</time></trkpt><trkpt lat="43.6650017" lon="11.5237333"><ele>295.0</ele><time>2026-03-28T10:28:52.47Z</time></trkpt><trkpt lat="43.6649" lon="11.5236633"><ele>294.2</ele><time>2026-03-28T10:28:53.472Z</time></trkpt><trkpt lat="43.6647967" lon="11.5235933"><ele>293.4</ele><time>2026-03-28T10:28:54.472Z</time></trkpt><trkpt lat="43.6647017" lon="11.5235283"><ele>292.6</ele><time>2026-03-28T10:28:55.472Z</time></trkpt><trkpt lat="43.66461" lon="11.523465"><ele>291.8</ele><time>2026-03-28T10:28:56.472Z</time></trkpt><trkpt lat="43.66452" lon="11.5233917"><ele>291.0</ele><time>2026-03-28T10:28:57.472Z</time></trkpt><trkpt lat="43.6644267" lon="11.523325"><ele>290.2</ele><time>2026-03-28T10:28:58.472Z</time></trkpt><trkpt lat="43.664335" lon="11.5232483"><ele>289.40000000000003</ele><time>2026-03-28T10:28:59.471Z</time></trkpt><trkpt lat="43.6642433" lon="11.5231667"><ele>288.6</ele><time>2026-03-28T10:29:00.472Z</time></trkpt><trkpt lat="43.6641583" lon="11.5230783"><ele>287.8</ele><time>2026-03-28T10:29:01.471Z</time></trkpt><trkpt lat="43.664075" lon="11.5229833"><ele>287.0</ele><time>2026-03-28T10:29:02.472Z</time></trkpt><trkpt lat="43.663995" lon="11.522885"><ele>286.6</ele><time>2026-03-28T10:29:03.473Z</time></trkpt><trkpt lat="43.6639167" lon="11.5227817"><ele>286.2</ele><time>2026-03-28T10:29:04.47Z</time></trkpt><trkpt lat="43.6638383" lon="11.5226767"><ele>285.8</ele><time>2026-03-28T10:29:05.471Z</time></trkpt><trkpt lat="43.66376" lon="11.5225717"><ele>285.4</ele><time>2026-03-28T10:29:06.472Z</time></trkpt><trkpt lat="43.66368" lon="11.5224683"><ele>285.0</ele><time>2026-03-28T10:29:07.472Z</time></trkpt><trkpt lat="43.6635983" lon="11.5223683"><ele>284.8</ele><time>2026-03-28T10:29:08.472Z</time></trkpt><trkpt lat="43.6635183" lon="11.5222667"><ele>284.6</ele><time>2026-03-28T10:29:09.47Z</time></trkpt><trkpt lat="43.6634383" lon="11.5221583"><ele>284.4</ele><time>2026-03-28T10:29:10.471Z</time></trkpt><trkpt lat="43.6633617" lon="11.5220517"><ele>284.2</ele><time>2026-03-28T10:29:11.47Z</time></trkpt><trkpt lat="43.6632867" lon="11.5219433"><ele>284.0</ele><time>2026-03-28T10:29:12.472Z</time></trkpt><trkpt lat="43.6632167" lon="11.5218333"><ele>283.59999999999997</ele><time>2026-03-28T10:29:13.475Z</time></trkpt><trkpt lat="43.6631483" lon="11.5217233"><ele>283.2</ele><time>2026-03-28T10:29:14.472Z</time></trkpt><trkpt lat="43.6630767" lon="11.52162"><ele>282.79999999999995</ele><time>2026-03-28T10:29:15.47Z</time></trkpt><trkpt lat="43.66301" lon="11.521525"><ele>282.4</ele><time>2026-03-28T10:29:16.471Z</time></trkpt><trkpt lat="43.6629417" lon="11.5214317"><ele>282.0</ele><time>2026-03-28T10:29:17.473Z</time></trkpt><trkpt lat="43.6628667" lon="11.52135"><ele>282.0</ele><time>2026-03-28T10:29:18.473Z</time></trkpt><trkpt lat="43.6627817" lon="11.521285"><ele>282.0</ele><time>2026-03-28T10:29:19.47Z</time></trkpt><trkpt lat="43.6626883" lon="11.5212417"><ele>282.0</ele><time>2026-03-28T10:29:20.471Z</time></trkpt><trkpt lat="43.6625933" lon="11.521215"><ele>282.0</ele><time>2026-03-28T10:29:21.471Z</time></trkpt><trkpt lat="43.6624983" lon="11.52121"><ele>282.0</ele><time>2026-03-28T10:29:22.471Z</time></trkpt><trkpt lat="43.6623983" lon="11.5212183"><ele>281.4</ele><time>2026-03-28T10:29:23.472Z</time></trkpt><trkpt lat="43.6623" lon="11.52123"><ele>280.79999999999995</ele><time>2026-03-28T10:29:24.471Z</time></trkpt><trkpt lat="43.6622" lon="11.521245"><ele>280.2</ele><time>2026-03-28T10:29:25.471Z</time></trkpt><trkpt lat="43.66209" lon="11.5212533"><ele>279.59999999999997</ele><time>2026-03-28T10:29:26.473Z</time></trkpt><trkpt lat="43.661975" lon="11.5212433"><ele>279.0</ele><time>2026-03-28T10:29:27.472Z</time></trkpt><trkpt lat="43.6618633" lon="11.5212167"><ele>278.25</ele><time>2026-03-28T10:29:28.473Z</time></trkpt><trkpt lat="43.661755" lon="11.5211767"><ele>277.5</ele><time>2026-03-28T10:29:29.471Z</time></trkpt><trkpt lat="43.6616467" lon="11.5211267"><ele>276.75</ele><time>2026-03-28T10:29:30.471Z</time></trkpt><trkpt lat="43.6615417" lon="11.521065"><ele>276.0</ele><time>2026-03-28T10:29:31.472Z</time></trkpt><trkpt lat="43.6614417" lon="11.5209867"><ele>276.0</ele><time>2026-03-28T10:29:32.471Z</time></trkpt><trkpt lat="43.6613467" lon="11.5209033"><ele>276.0</ele><time>2026-03-28T10:29:33.473Z</time></trkpt><trkpt lat="43.661255" lon="11.5208217"><ele>276.0</ele><time>2026-03-28T10:29:34.47Z</time></trkpt><trkpt lat="43.6611617" lon="11.5207433"><ele>276.0</ele><time>2026-03-28T10:29:35.473Z</time></trkpt><trkpt lat="43.6610683" lon="11.520665"><ele>276.0</ele><time>2026-03-28T10:29:36.472Z</time></trkpt><trkpt lat="43.6609767" lon="11.520585"><ele>275.0</ele><time>2026-03-28T10:29:37.471Z</time></trkpt><trkpt lat="43.660885" lon="11.5205033"><ele>274.0</ele><time>2026-03-28T10:29:38.472Z</time></trkpt><trkpt lat="43.6607917" lon="11.5204217"><ele>273.0</ele><time>2026-03-28T10:29:39.472Z</time></trkpt><trkpt lat="43.6606983" lon="11.5203367"><ele>272.0</ele><time>2026-03-28T10:29:40.47Z</time></trkpt><trkpt lat="43.66061" lon="11.5202383"><ele>271.0</ele><time>2026-03-28T10:29:41.472Z</time></trkpt><trkpt lat="43.66053" lon="11.5201267"><ele>271.0</ele><time>2026-03-28T10:29:42.472Z</time></trkpt><trkpt lat="43.660455" lon="11.52001"><ele>271.0</ele><time>2026-03-28T10:29:43.47Z</time></trkpt><trkpt lat="43.6603817" lon="11.5198967"><ele>271.0</ele><time>2026-03-28T10:29:44.472Z</time></trkpt><trkpt lat="43.660315" lon="11.5197933"><ele>271.0</ele><time>2026-03-28T10:29:45.471Z</time></trkpt><trkpt lat="43.66025" lon="11.5196933"><ele>271.0</ele><time>2026-03-28T10:29:46.473Z</time></trkpt><trkpt lat="43.6601833" lon="11.5196117"><ele>270.6</ele><time>2026-03-28T10:29:47.471Z</time></trkpt><trkpt lat="43.6601067" lon="11.519545"><ele>270.20000000000005</ele><time>2026-03-28T10:29:48.473Z</time></trkpt><trkpt lat="43.6600217" lon="11.5194933"><ele>269.79999999999995</ele><time>2026-03-28T10:29:49.47Z</time></trkpt><trkpt lat="43.65993" lon="11.5194733"><ele>269.4</ele><time>2026-03-28T10:29:50.472Z</time></trkpt><trkpt lat="43.6598317" lon="11.519475"><ele>269.0</ele><time>2026-03-28T10:29:51.471Z</time></trkpt><trkpt lat="43.6597317" lon="11.5195"><ele>269.0</ele><time>2026-03-28T10:29:52.471Z</time></trkpt><trkpt lat="43.6596267" lon="11.5195317"><ele>269.0</ele><time>2026-03-28T10:29:53.469Z</time></trkpt><trkpt lat="43.6595183" lon="11.5195667"><ele>269.0</ele><time>2026-03-28T10:29:54.472Z</time></trkpt><trkpt lat="43.65941" lon="11.519605"><ele>269.0</ele><time>2026-03-28T10:29:55.473Z</time></trkpt><trkpt lat="43.6592983" lon="11.51966"><ele>269.0</ele><time>2026-03-28T10:29:56.471Z</time></trkpt><trkpt lat="43.6591883" lon="11.5197267"><ele>265.75</ele><time>2026-03-28T10:29:57.47Z</time></trkpt><trkpt lat="43.6590767" lon="11.5197983"><ele>262.5</ele><time>2026-03-28T10:29:58.472Z</time></trkpt><trkpt lat="43.658965" lon="11.519865"><ele>259.25</ele><time>2026-03-28T10:29:59.473Z</time></trkpt><trkpt lat="43.6588483" lon="11.5199167"><ele>256.0</ele><time>2026-03-28T10:30:00.473Z</time></trkpt><trkpt lat="43.658735" lon="11.5199533"><ele>256.0</ele><time>2026-03-28T10:30:01.475Z</time></trkpt><trkpt lat="43.6586267" lon="11.51998"><ele>256.0</ele><time>2026-03-28T10:30:02.473Z</time></trkpt><trkpt lat="43.6585267" lon="11.5200033"><ele>256.0</ele><time>2026-03-28T10:30:03.474Z</time></trkpt><trkpt lat="43.6584317" lon="11.5200167"><ele>256.0</ele><time>2026-03-28T10:30:04.474Z</time></trkpt><trkpt lat="43.65834" lon="11.5200167"><ele>256.0</ele><time>2026-03-28T10:30:05.473Z</time></trkpt><trkpt lat="43.6582517" lon="11.51999"><ele>257.0</ele><time>2026-03-28T10:30:06.473Z</time></trkpt><trkpt lat="43.65817" lon="11.5199267"><ele>258.0</ele><time>2026-03-28T10:30:07.475Z</time></trkpt><trkpt lat="43.6581033" lon="11.5198283"><ele>259.0</ele><time>2026-03-28T10:30:08.473Z</time></trkpt><trkpt lat="43.6580517" lon="11.5197067"><ele>260.0</ele><time>2026-03-28T10:30:09.471Z</time></trkpt><trkpt lat="43.658005" lon="11.5195783"><ele>261.0</ele><time>2026-03-28T10:30:10.47Z</time></trkpt><trkpt lat="43.6579433" lon="11.5194633"><ele>261.0</ele><time>2026-03-28T10:30:11.471Z</time></trkpt><trkpt lat="43.6578633" lon="11.519365"><ele>261.0</ele><time>2026-03-28T10:30:12.47Z</time></trkpt><trkpt lat="43.6577717" lon="11.5192817"><ele>261.0</ele><time>2026-03-28T10:30:13.471Z</time></trkpt><trkpt lat="43.6576733" lon="11.519205"><ele>261.0</ele><time>2026-03-28T10:30:14.472Z</time></trkpt><trkpt lat="43.65758" lon="11.5191217"><ele>261.0</ele><time>2026-03-28T10:30:15.47Z</time></trkpt><trkpt lat="43.6574967" lon="11.5190317"><ele>259.8</ele><time>2026-03-28T10:30:16.471Z</time></trkpt><trkpt lat="43.657425" lon="11.5189283"><ele>258.6</ele><time>2026-03-28T10:30:17.472Z</time></trkpt><trkpt lat="43.65736" lon="11.5188233"><ele>257.4</ele><time>2026-03-28T10:30:18.469Z</time></trkpt><trkpt lat="43.6572833" lon="11.5187333"><ele>256.2</ele><time>2026-03-28T10:30:19.472Z</time></trkpt><trkpt lat="43.6571917" lon="11.518665"><ele>255.0</ele><time>2026-03-28T10:30:20.471Z</time></trkpt><trkpt lat="43.65709" lon="11.51863"><ele>255.0</ele><time>2026-03-28T10:30:21.469Z</time></trkpt><trkpt lat="43.6569833" lon="11.5186133"><ele>255.0</ele><time>2026-03-28T10:30:22.468Z</time></trkpt><trkpt lat="43.656875" lon="11.5185883"><ele>255.0</ele><time>2026-03-28T10:30:23.472Z</time></trkpt><trkpt lat="43.65677" lon="11.5185367"><ele>255.0</ele><time>2026-03-28T10:30:24.471Z</time></trkpt><trkpt lat="43.6566683" lon="11.5184533"><ele>255.0</ele><time>2026-03-28T10:30:25.47Z</time></trkpt><trkpt lat="43.65657" lon="11.5183567"><ele>250.75</ele><time>2026-03-28T10:30:26.471Z</time></trkpt><trkpt lat="43.65647" lon="11.5182583"><ele>246.5</ele><time>2026-03-28T10:30:27.471Z</time></trkpt><trkpt lat="43.6563683" lon="11.5181633"><ele>242.25</ele><time>2026-03-28T10:30:28.472Z</time></trkpt><trkpt lat="43.65626" lon="11.5180783"><ele>238.0</ele><time>2026-03-28T10:30:29.474Z</time></trkpt><trkpt lat="43.6561433" lon="11.518"><ele>238.0</ele><time>2026-03-28T10:30:30.473Z</time></trkpt><trkpt lat="43.6560233" lon="11.5179317"><ele>238.0</ele><time>2026-03-28T10:30:31.472Z</time></trkpt><trkpt lat="43.6559" lon="11.5178583"><ele>238.0</ele><time>2026-03-28T10:30:32.472Z</time></trkpt><trkpt lat="43.6557767" lon="11.5177817"><ele>238.0</ele><time>2026-03-28T10:30:33.472Z</time></trkpt><trkpt lat="43.6556517" lon="11.5177033"><ele>238.0</ele><time>2026-03-28T10:30:34.471Z</time></trkpt><trkpt lat="43.6555283" lon="11.51761"><ele>238.0</ele><time>2026-03-28T10:30:35.473Z</time></trkpt><trkpt lat="43.65541" lon="11.5175"><ele>238.0</ele><time>2026-03-28T10:30:36.47Z</time></trkpt><trkpt lat="43.655295" lon="11.51738"><ele>238.0</ele><time>2026-03-28T10:30:37.471Z</time></trkpt><trkpt lat="43.65518" lon="11.5172583"><ele>235.75</ele><time>2026-03-28T10:30:38.472Z</time></trkpt><trkpt lat="43.6550633" lon="11.5171433"><ele>233.5</ele><time>2026-03-28T10:30:39.472Z</time></trkpt><trkpt lat="43.654945" lon="11.51703"><ele>231.25</ele><time>2026-03-28T10:30:40.471Z</time></trkpt><trkpt lat="43.6548233" lon="11.51692"><ele>229.0</ele><time>2026-03-28T10:30:41.471Z</time></trkpt><trkpt lat="43.6546967" lon="11.51682"><ele>229.0</ele><time>2026-03-28T10:30:42.471Z</time></trkpt><trkpt lat="43.6545683" lon="11.5167283"><ele>229.0</ele><time>2026-03-28T10:30:43.472Z</time></trkpt><trkpt lat="43.6544383" lon="11.51664"><ele>229.0</ele><time>2026-03-28T10:30:44.47Z</time></trkpt><trkpt lat="43.6543083" lon="11.5165583"><ele>229.0</ele><time>2026-03-28T10:30:45.471Z</time></trkpt><trkpt lat="43.6541783" lon="11.5164833"><ele>229.75</ele><time>2026-03-28T10:30:46.47Z</time></trkpt><trkpt lat="43.6540483" lon="11.5164117"><ele>230.5</ele><time>2026-03-28T10:30:47.472Z</time></trkpt><trkpt lat="43.65392" lon="11.5163433"><ele>231.25</ele><time>2026-03-28T10:30:48.47Z</time></trkpt><trkpt lat="43.6538" lon="11.5162733"><ele>232.0</ele><time>2026-03-28T10:30:49.469Z</time></trkpt><trkpt lat="43.65369" lon="11.5161967"><ele>226.25</ele><time>2026-03-28T10:30:50.472Z</time></trkpt><trkpt lat="43.6535867" lon="11.5161167"><ele>220.5</ele><time>2026-03-28T10:30:51.473Z</time></trkpt><trkpt lat="43.6534917" lon="11.51603"><ele>214.75</ele><time>2026-03-28T10:30:52.469Z</time></trkpt><trkpt lat="43.6534083" lon="11.51593"><ele>209.0</ele><time>2026-03-28T10:30:53.471Z</time></trkpt><trkpt lat="43.6533417" lon="11.5158117"><ele>209.0</ele><time>2026-03-28T10:30:54.471Z</time></trkpt><trkpt lat="43.65329" lon="11.51568"><ele>209.0</ele><time>2026-03-28T10:30:55.469Z</time></trkpt><trkpt lat="43.653255" lon="11.515545"><ele>209.0</ele><time>2026-03-28T10:30:56.471Z</time></trkpt><trkpt lat="43.6532283" lon="11.5154067"><ele>209.0</ele><time>2026-03-28T10:30:57.471Z</time></trkpt><trkpt lat="43.653195" lon="11.5152767"><ele>209.0</ele><time>2026-03-28T10:30:58.471Z</time></trkpt><trkpt lat="43.6531383" lon="11.5151667"><ele>208.0</ele><time>2026-03-28T10:30:59.471Z</time></trkpt><trkpt lat="43.6530667" lon="11.515075"><ele>207.0</ele><time>2026-03-28T10:31:00.471Z</time></trkpt><trkpt lat="43.6529867" lon="11.5150033"><ele>206.0</ele><time>2026-03-28T10:31:01.47Z</time></trkpt><trkpt lat="43.652895" lon="11.51495"><ele>205.0</ele><time>2026-03-28T10:31:02.472Z</time></trkpt><trkpt lat="43.6528" lon="11.514905"><ele>204.0</ele><time>2026-03-28T10:31:03.472Z</time></trkpt><trkpt lat="43.6527017" lon="11.5148717"><ele>204.0</ele><time>2026-03-28T10:31:04.472Z</time></trkpt><trkpt lat="43.6526033" lon="11.5148317"><ele>204.0</ele><time>2026-03-28T10:31:05.469Z</time></trkpt><trkpt lat="43.6525033" lon="11.5147933"><ele>204.0</ele><time>2026-03-28T10:31:06.47Z</time></trkpt><trkpt lat="43.6524" lon="11.5147533"><ele>204.0</ele><time>2026-03-28T10:31:07.472Z</time></trkpt><trkpt lat="43.6522933" lon="11.5147017"><ele>204.0</ele><time>2026-03-28T10:31:08.471Z</time></trkpt><trkpt lat="43.6521867" lon="11.5146333"><ele>204.5</ele><time>2026-03-28T10:31:09.47Z</time></trkpt><trkpt lat="43.6520817" lon="11.514555"><ele>205.0</ele><time>2026-03-28T10:31:10.471Z</time></trkpt><trkpt lat="43.65198" lon="11.51447"><ele>205.5</ele><time>2026-03-28T10:31:11.47Z</time></trkpt><trkpt lat="43.6518717" lon="11.514375"><ele>206.0</ele><time>2026-03-28T10:31:12.471Z</time></trkpt><trkpt lat="43.6517617" lon="11.5142833"><ele>206.0</ele><time>2026-03-28T10:31:13.471Z</time></trkpt><trkpt lat="43.6516433" lon="11.5142"><ele>206.0</ele><time>2026-03-28T10:31:14.472Z</time></trkpt><trkpt lat="43.6515233" lon="11.51413"><ele>206.0</ele><time>2026-03-28T10:31:15.471Z</time></trkpt><trkpt lat="43.6514017" lon="11.5140667"><ele>206.0</ele><time>2026-03-28T10:31:16.471Z</time></trkpt><trkpt lat="43.65128" lon="11.5140017"><ele>206.0</ele><time>2026-03-28T10:31:17.471Z</time></trkpt><trkpt lat="43.651155" lon="11.5139367"><ele>206.0</ele><time>2026-03-28T10:31:18.473Z</time></trkpt><trkpt lat="43.6510267" lon="11.5138717"><ele>206.0</ele><time>2026-03-28T10:31:19.472Z</time></trkpt><trkpt lat="43.6509017" lon="11.513795"><ele>206.0</ele><time>2026-03-28T10:31:20.471Z</time></trkpt><trkpt lat="43.6507817" lon="11.513705"><ele>208.5</ele><time>2026-03-28T10:31:21.472Z</time></trkpt><trkpt lat="43.6506667" lon="11.5136017"><ele>211.0</ele><time>2026-03-28T10:31:22.471Z</time></trkpt><trkpt lat="43.6505567" lon="11.5134867"><ele>213.5</ele><time>2026-03-28T10:31:23.471Z</time></trkpt><trkpt lat="43.6504483" lon="11.5133633"><ele>216.0</ele><time>2026-03-28T10:31:24.471Z</time></trkpt><trkpt lat="43.650345" lon="11.5132467"><ele>212.0</ele><time>2026-03-28T10:31:25.47Z</time></trkpt><trkpt lat="43.65025" lon="11.5131367"><ele>208.0</ele><time>2026-03-28T10:31:26.473Z</time></trkpt><trkpt lat="43.6501633" lon="11.5130217"><ele>204.0</ele><time>2026-03-28T10:31:27.471Z</time></trkpt><trkpt lat="43.6500867" lon="11.5129083"><ele>200.0</ele><time>2026-03-28T10:31:28.471Z</time></trkpt><trkpt lat="43.650025" lon="11.5127933"><ele>200.0</ele><time>2026-03-28T10:31:29.471Z</time></trkpt><trkpt lat="43.6499667" lon="11.5126867"><ele>200.0</ele><time>2026-03-28T10:31:30.471Z</time></trkpt><trkpt lat="43.6499017" lon="11.5125883"><ele>200.0</ele><time>2026-03-28T10:31:31.471Z</time></trkpt><trkpt lat="43.649815" lon="11.5125133"><ele>200.0</ele><time>2026-03-28T10:31:32.469Z</time></trkpt><trkpt lat="43.6497117" lon="11.5124683"><ele>200.0</ele><time>2026-03-28T10:31:33.471Z</time></trkpt><trkpt lat="43.6496033" lon="11.512455"><ele>200.0</ele><time>2026-03-28T10:31:34.469Z</time></trkpt><trkpt lat="43.649495" lon="11.512465"><ele>200.0</ele><time>2026-03-28T10:31:35.47Z</time></trkpt><trkpt lat="43.6493833" lon="11.5124867"><ele>200.0</ele><time>2026-03-28T10:31:36.471Z</time></trkpt><trkpt lat="43.6492667" lon="11.5125133"><ele>200.0</ele><time>2026-03-28T10:31:37.471Z</time></trkpt><trkpt lat="43.6491467" lon="11.5125433"><ele>197.0</ele><time>2026-03-28T10:31:38.471Z</time></trkpt><trkpt lat="43.6490217" lon="11.5125617"><ele>194.0</ele><time>2026-03-28T10:31:39.471Z</time></trkpt><trkpt lat="43.6488933" lon="11.512575"><ele>191.0</ele><time>2026-03-28T10:31:40.472Z</time></trkpt><trkpt lat="43.648765" lon="11.5125883"><ele>188.0</ele><time>2026-03-28T10:31:41.471Z</time></trkpt><trkpt lat="43.64863" lon="11.5125967"><ele>187.75</ele><time>2026-03-28T10:31:42.472Z</time></trkpt><trkpt lat="43.6484933" lon="11.5126"><ele>187.5</ele><time>2026-03-28T10:31:43.471Z</time></trkpt><trkpt lat="43.6483567" lon="11.5125883"><ele>187.25</ele><time>2026-03-28T10:31:44.47Z</time></trkpt><trkpt lat="43.6482233" lon="11.5125683"><ele>187.0</ele><time>2026-03-28T10:31:45.471Z</time></trkpt><trkpt lat="43.6480883" lon="11.5125383"><ele>187.0</ele><time>2026-03-28T10:31:46.471Z</time></trkpt><trkpt lat="43.6479533" lon="11.512515"><ele>187.0</ele><time>2026-03-28T10:31:47.47Z</time></trkpt><trkpt lat="43.6478183" lon="11.5124933"><ele>187.0</ele><time>2026-03-28T10:31:48.47Z</time></trkpt><trkpt lat="43.6476867" lon="11.5124633"><ele>187.0</ele><time>2026-03-28T10:31:49.472Z</time></trkpt><trkpt lat="43.6475517" lon="11.5124417"><ele>184.5</ele><time>2026-03-28T10:31:50.471Z</time></trkpt><trkpt lat="43.6474167" lon="11.5124333"><ele>182.0</ele><time>2026-03-28T10:31:51.471Z</time></trkpt><trkpt lat="43.6472817" lon="11.51243"><ele>179.5</ele><time>2026-03-28T10:31:52.471Z</time></trkpt><trkpt lat="43.647145" lon="11.5124317"><ele>177.0</ele><time>2026-03-28T10:31:53.472Z</time></trkpt><trkpt lat="43.6470067" lon="11.51245"><ele>175.5</ele><time>2026-03-28T10:31:54.472Z</time></trkpt><trkpt lat="43.6468683" lon="11.5124717"><ele>174.0</ele><time>2026-03-28T10:31:55.47Z</time></trkpt><trkpt lat="43.6467367" lon="11.5124883"><ele>172.5</ele><time>2026-03-28T10:31:56.47Z</time></trkpt><trkpt lat="43.6466017" lon="11.5125067"><ele>171.0</ele><time>2026-03-28T10:31:57.469Z</time></trkpt><trkpt lat="43.64647" lon="11.51253"><ele>171.0</ele><time>2026-03-28T10:31:58.472Z</time></trkpt><trkpt lat="43.64634" lon="11.5125633"><ele>171.0</ele><time>2026-03-28T10:31:59.472Z</time></trkpt><trkpt lat="43.646215" lon="11.51261"><ele>171.0</ele><time>2026-03-28T10:32:00.472Z</time></trkpt><trkpt lat="43.6460883" lon="11.51267"><ele>171.0</ele><time>2026-03-28T10:32:01.472Z</time></trkpt><trkpt lat="43.645965" lon="11.51274"><ele>170.5</ele><time>2026-03-28T10:32:02.471Z</time></trkpt><trkpt lat="43.6458467" lon="11.51281"><ele>170.0</ele><time>2026-03-28T10:32:03.472Z</time></trkpt><trkpt lat="43.6457333" lon="11.5128767"><ele>169.5</ele><time>2026-03-28T10:32:04.472Z</time></trkpt><trkpt lat="43.645625" lon="11.5129417"><ele>169.0</ele><time>2026-03-28T10:32:05.47Z</time></trkpt><trkpt lat="43.6455217" lon="11.5129983"><ele>168.0</ele><time>2026-03-28T10:32:06.471Z</time></trkpt><trkpt lat="43.6454233" lon="11.5130517"><ele>167.0</ele><time>2026-03-28T10:32:07.472Z</time></trkpt><trkpt lat="43.645325" lon="11.5130983"><ele>166.0</ele><time>2026-03-28T10:32:08.471Z</time></trkpt><trkpt lat="43.645225" lon="11.5131283"><ele>165.0</ele><time>2026-03-28T10:32:09.471Z</time></trkpt><trkpt lat="43.6451283" lon="11.5131367"><ele>164.0</ele><time>2026-03-28T10:32:10.472Z</time></trkpt><trkpt lat="43.6450317" lon="11.5131033"><ele>164.0</ele><time>2026-03-28T10:32:11.47Z</time></trkpt><trkpt lat="43.64495" lon="11.5130333"><ele>164.0</ele><time>2026-03-28T10:32:12.471Z</time></trkpt><trkpt lat="43.6448817" lon="11.51294"><ele>164.0</ele><time>2026-03-28T10:32:13.47Z</time></trkpt><trkpt lat="43.6448217" lon="11.512835"><ele>164.0</ele><time>2026-03-28T10:32:14.472Z</time></trkpt><trkpt lat="43.6447667" lon="11.5127283"><ele>164.0</ele><time>2026-03-28T10:32:15.47Z</time></trkpt><trkpt lat="43.64471" lon="11.5126267"><ele>164.0</ele><time>2026-03-28T10:32:16.471Z</time></trkpt><trkpt lat="43.6446533" lon="11.5125217"><ele>164.0</ele><time>2026-03-28T10:32:17.47Z</time></trkpt><trkpt lat="43.6445967" lon="11.51242"><ele>164.0</ele><time>2026-03-28T10:32:18.472Z</time></trkpt><trkpt lat="43.6445417" lon="11.51232"><ele>164.0</ele><time>2026-03-28T10:32:19.471Z</time></trkpt><trkpt lat="43.6444867" lon="11.5122183"><ele>164.0</ele><time>2026-03-28T10:32:20.473Z</time></trkpt><trkpt lat="43.6444317" lon="11.512115"><ele>163.6</ele><time>2026-03-28T10:32:21.472Z</time></trkpt><trkpt lat="43.6443767" lon="11.512015"><ele>163.2</ele><time>2026-03-28T10:32:22.47Z</time></trkpt><trkpt lat="43.6443233" lon="11.5119133"><ele>162.79999999999998</ele><time>2026-03-28T10:32:23.471Z</time></trkpt><trkpt lat="43.6442633" lon="11.5118217"><ele>162.39999999999998</ele><time>2026-03-28T10:32:24.471Z</time></trkpt><trkpt lat="43.6442017" lon="11.5117317"><ele>162.0</ele><time>2026-03-28T10:32:25.469Z</time></trkpt><trkpt lat="43.6441333" lon="11.5116517"><ele>162.0</ele><time>2026-03-28T10:32:26.471Z</time></trkpt><trkpt lat="43.64406" lon="11.5115783"><ele>162.0</ele><time>2026-03-28T10:32:27.472Z</time></trkpt><trkpt lat="43.643985" lon="11.511515"><ele>162.0</ele><time>2026-03-28T10:32:28.473Z</time></trkpt><trkpt lat="43.643905" lon="11.5114617"><ele>162.0</ele><time>2026-03-28T10:32:29.47Z</time></trkpt><trkpt lat="43.6438267" lon="11.5114133"><ele>162.0</ele><time>2026-03-28T10:32:30.471Z</time></trkpt><trkpt lat="43.6437483" lon="11.51137"><ele>162.0</ele><time>2026-03-28T10:32:31.47Z</time></trkpt><trkpt lat="43.64367" lon="11.5113267"><ele>161.66666666666666</ele><time>2026-03-28T10:32:32.473Z</time></trkpt><trkpt lat="43.6435933" lon="11.51128"><ele>161.33333333333334</ele><time>2026-03-28T10:32:33.47Z</time></trkpt><trkpt lat="43.643515" lon="11.5112333"><ele>161.0</ele><time>2026-03-28T10:32:34.47Z</time></trkpt><trkpt lat="43.6434367" lon="11.5111867"><ele>160.66666666666669</ele><time>2026-03-28T10:32:35.47Z</time></trkpt><trkpt lat="43.6433617" lon="11.5111283"><ele>160.33333333333334</ele><time>2026-03-28T10:32:36.471Z</time></trkpt><trkpt lat="43.643295" lon="11.511055"><ele>160.0</ele><time>2026-03-28T10:32:37.471Z</time></trkpt><trkpt lat="43.6432317" lon="11.5109717"><ele>160.0</ele><time>2026-03-28T10:32:38.471Z</time></trkpt><trkpt lat="43.6431733" lon="11.5108783"><ele>160.0</ele><time>2026-03-28T10:32:39.471Z</time></trkpt><trkpt lat="43.6431183" lon="11.5107783"><ele>160.0</ele><time>2026-03-28T10:32:40.471Z</time></trkpt><trkpt lat="43.6430667" lon="11.5106733"><ele>160.0</ele><time>2026-03-28T10:32:41.471Z</time></trkpt><trkpt lat="43.6430133" lon="11.5105667"><ele>160.0</ele><time>2026-03-28T10:32:42.472Z</time></trkpt><trkpt lat="43.6429567" lon="11.5104633"><ele>160.6</ele><time>2026-03-28T10:32:43.475Z</time></trkpt><trkpt lat="43.6428983" lon="11.51036"><ele>161.2</ele><time>2026-03-28T10:32:44.471Z</time></trkpt><trkpt lat="43.6428383" lon="11.5102583"><ele>161.8</ele><time>2026-03-28T10:32:45.471Z</time></trkpt><trkpt lat="43.6427783" lon="11.51016"><ele>162.4</ele><time>2026-03-28T10:32:46.471Z</time></trkpt><trkpt lat="43.6427267" lon="11.51005"><ele>163.0</ele><time>2026-03-28T10:32:47.47Z</time></trkpt><trkpt lat="43.6426817" lon="11.5099333"><ele>161.8</ele><time>2026-03-28T10:32:48.47Z</time></trkpt><trkpt lat="43.6426417" lon="11.5098183"><ele>160.60000000000002</ele><time>2026-03-28T10:32:49.472Z</time></trkpt><trkpt lat="43.6426067" lon="11.5097"><ele>159.39999999999998</ele><time>2026-03-28T10:32:50.473Z</time></trkpt><trkpt lat="43.642575" lon="11.5095767"><ele>158.2</ele><time>2026-03-28T10:32:51.472Z</time></trkpt><trkpt lat="43.642545" lon="11.5094517"><ele>157.0</ele><time>2026-03-28T10:32:52.471Z</time></trkpt><trkpt lat="43.6425133" lon="11.5093283"><ele>157.0</ele><time>2026-03-28T10:32:53.47Z</time></trkpt><trkpt lat="43.6424767" lon="11.5092083"><ele>157.0</ele><time>2026-03-28T10:32:54.47Z</time></trkpt><trkpt lat="43.6424417" lon="11.5090867"><ele>157.0</ele><time>2026-03-28T10:32:55.471Z</time></trkpt><trkpt lat="43.64241" lon="11.5089667"><ele>157.0</ele><time>2026-03-28T10:32:56.471Z</time></trkpt><trkpt lat="43.6423817" lon="11.508845"><ele>157.0</ele><time>2026-03-28T10:32:57.47Z</time></trkpt><trkpt lat="43.642355" lon="11.5087217"><ele>157.0</ele><time>2026-03-28T10:32:58.471Z</time></trkpt><trkpt lat="43.6423267" lon="11.5086033"><ele>157.0</ele><time>2026-03-28T10:32:59.472Z</time></trkpt><trkpt lat="43.6422917" lon="11.5084883"><ele>157.0</ele><time>2026-03-28T10:33:00.473Z</time></trkpt><trkpt lat="43.6422517" lon="11.5083883"><ele>157.0</ele><time>2026-03-28T10:33:01.469Z</time></trkpt><trkpt lat="43.642195" lon="11.5083083"><ele>157.0</ele><time>2026-03-28T10:33:02.472Z</time></trkpt><trkpt lat="43.6421217" lon="11.5082517"><ele>157.0</ele><time>2026-03-28T10:33:03.471Z</time></trkpt><trkpt lat="43.642045" lon="11.5082"><ele>156.16666666666669</ele><time>2026-03-28T10:33:04.47Z</time></trkpt><trkpt lat="43.641965" lon="11.5081517"><ele>155.33333333333334</ele><time>2026-03-28T10:33:05.47Z</time></trkpt><trkpt lat="43.6418817" lon="11.5081033"><ele>154.5</ele><time>2026-03-28T10:33:06.469Z</time></trkpt><trkpt lat="43.6418" lon="11.5080567"><ele>153.66666666666666</ele><time>2026-03-28T10:33:07.471Z</time></trkpt><trkpt lat="43.64172" lon="11.5080117"><ele>152.83333333333331</ele><time>2026-03-28T10:33:08.47Z</time></trkpt><trkpt lat="43.6416367" lon="11.5079667"><ele>152.0</ele><time>2026-03-28T10:33:09.471Z</time></trkpt><trkpt lat="43.6415517" lon="11.507925"><ele>151.83333333333331</ele><time>2026-03-28T10:33:10.472Z</time></trkpt><trkpt lat="43.6414683" lon="11.5078883"><ele>151.66666666666666</ele><time>2026-03-28T10:33:11.472Z</time></trkpt><trkpt lat="43.6413833" lon="11.507845"><ele>151.5</ele><time>2026-03-28T10:33:12.471Z</time></trkpt><trkpt lat="43.6413" lon="11.5078"><ele>151.33333333333334</ele><time>2026-03-28T10:33:13.472Z</time></trkpt><trkpt lat="43.641215" lon="11.5077533"><ele>151.16666666666669</ele><time>2026-03-28T10:33:14.471Z</time></trkpt><trkpt lat="43.6411317" lon="11.507705"><ele>151.0</ele><time>2026-03-28T10:33:15.47Z</time></trkpt><trkpt lat="43.6410467" lon="11.507655"><ele>151.0</ele><time>2026-03-28T10:33:16.471Z</time></trkpt><trkpt lat="43.640965" lon="11.5076033"><ele>151.0</ele><time>2026-03-28T10:33:17.47Z</time></trkpt><trkpt lat="43.6408867" lon="11.5075483"><ele>151.0</ele><time>2026-03-28T10:33:18.472Z</time></trkpt><trkpt lat="43.64081" lon="11.5074817"><ele>151.0</ele><time>2026-03-28T10:33:19.47Z</time></trkpt><trkpt lat="43.640735" lon="11.5074117"><ele>151.0</ele><time>2026-03-28T10:33:20.471Z</time></trkpt><trkpt lat="43.64066" lon="11.507335"><ele>151.0</ele><time>2026-03-28T10:33:21.47Z</time></trkpt><trkpt lat="43.640585" lon="11.5072583"><ele>151.0</ele><time>2026-03-28T10:33:22.472Z</time></trkpt><trkpt lat="43.6405133" lon="11.5071767"><ele>151.0</ele><time>2026-03-28T10:33:23.47Z</time></trkpt><trkpt lat="43.6404417" lon="11.5070967"><ele>151.0</ele><time>2026-03-28T10:33:24.471Z</time></trkpt><trkpt lat="43.6403733" lon="11.5070117"><ele>151.0</ele><time>2026-03-28T10:33:25.471Z</time></trkpt><trkpt lat="43.6403017" lon="11.5069217"><ele>150.4</ele><time>2026-03-28T10:33:26.473Z</time></trkpt><trkpt lat="43.64023" lon="11.5068317"><ele>149.8</ele><time>2026-03-28T10:33:27.471Z</time></trkpt><trkpt lat="43.6401583" lon="11.506735"><ele>149.20000000000002</ele><time>2026-03-28T10:33:28.471Z</time></trkpt><trkpt lat="43.640085" lon="11.5066417"><ele>148.6</ele><time>2026-03-28T10:33:29.471Z</time></trkpt><trkpt lat="43.640015" lon="11.5065467"><ele>148.0</ele><time>2026-03-28T10:33:30.472Z</time></trkpt><trkpt lat="43.6399433" lon="11.5064517"><ele>148.0</ele><time>2026-03-28T10:33:31.472Z</time></trkpt><trkpt lat="43.6398717" lon="11.5063633"><ele>148.0</ele><time>2026-03-28T10:33:32.473Z</time></trkpt><trkpt lat="43.6398033" lon="11.5062717"><ele>148.0</ele><time>2026-03-28T10:33:33.474Z</time></trkpt><trkpt lat="43.6397367" lon="11.50618"><ele>148.0</ele><time>2026-03-28T10:33:34.472Z</time></trkpt><trkpt lat="43.6396683" lon="11.50609"><ele>148.0</ele><time>2026-03-28T10:33:35.471Z</time></trkpt><trkpt lat="43.6396" lon="11.5060033"><ele>148.0</ele><time>2026-03-28T10:33:36.471Z</time></trkpt><trkpt lat="43.639535" lon="11.505915"><ele>148.0</ele><time>2026-03-28T10:33:37.471Z</time></trkpt><trkpt lat="43.63947" lon="11.50583"><ele>148.0</ele><time>2026-03-28T10:33:38.473Z</time></trkpt><trkpt lat="43.639405" lon="11.5057433"><ele>148.0</ele><time>2026-03-28T10:33:39.473Z</time></trkpt><trkpt lat="43.6393417" lon="11.5056533"><ele>148.0</ele><time>2026-03-28T10:33:40.472Z</time></trkpt><trkpt lat="43.6392817" lon="11.505555"><ele>147.83333333333334</ele><time>2026-03-28T10:33:41.471Z</time></trkpt><trkpt lat="43.6392217" lon="11.5054583"><ele>147.66666666666669</ele><time>2026-03-28T10:33:42.47Z</time></trkpt><trkpt lat="43.6391633" lon="11.5053617"><ele>147.5</ele><time>2026-03-28T10:33:43.47Z</time></trkpt><trkpt lat="43.6391083" lon="11.5052633"><ele>147.33333333333334</ele><time>2026-03-28T10:33:44.471Z</time></trkpt><trkpt lat="43.6390567" lon="11.505165"><ele>147.16666666666666</ele><time>2026-03-28T10:33:45.47Z</time></trkpt><trkpt lat="43.639005" lon="11.5050667"><ele>147.0</ele><time>2026-03-28T10:33:46.47Z</time></trkpt><trkpt lat="43.63895" lon="11.5049683"><ele>147.0</ele><time>2026-03-28T10:33:47.47Z</time></trkpt><trkpt lat="43.6388967" lon="11.50487"><ele>147.0</ele><time>2026-03-28T10:33:48.471Z</time></trkpt><trkpt lat="43.6388433" lon="11.5047717"><ele>147.0</ele><time>2026-03-28T10:33:49.471Z</time></trkpt><trkpt lat="43.63879" lon="11.504675"><ele>147.0</ele><time>2026-03-28T10:33:50.472Z</time></trkpt><trkpt lat="43.638735" lon="11.5045783"><ele>147.0</ele><time>2026-03-28T10:33:51.47Z</time></trkpt><trkpt lat="43.6386817" lon="11.5044833"><ele>147.0</ele><time>2026-03-28T10:33:52.471Z</time></trkpt><trkpt lat="43.63863" lon="11.504385"><ele>146.6</ele><time>2026-03-28T10:33:53.473Z</time></trkpt><trkpt lat="43.6385783" lon="11.504285"><ele>146.2</ele><time>2026-03-28T10:33:54.471Z</time></trkpt><trkpt lat="43.6385267" lon="11.504185"><ele>145.8</ele><time>2026-03-28T10:33:55.47Z</time></trkpt><trkpt lat="43.6384733" lon="11.5040833"><ele>145.4</ele><time>2026-03-28T10:33:56.472Z</time></trkpt><trkpt lat="43.63842" lon="11.5039817"><ele>145.0</ele><time>2026-03-28T10:33:57.472Z</time></trkpt><trkpt lat="43.6383667" lon="11.50388"><ele>145.0</ele><time>2026-03-28T10:33:58.471Z</time></trkpt><trkpt lat="43.6383133" lon="11.50378"><ele>145.0</ele><time>2026-03-28T10:33:59.471Z</time></trkpt><trkpt lat="43.6382583" lon="11.50368"><ele>145.0</ele><time>2026-03-28T10:34:00.472Z</time></trkpt><trkpt lat="43.6382017" lon="11.50358"><ele>145.0</ele><time>2026-03-28T10:34:01.47Z</time></trkpt><trkpt lat="43.6381467" lon="11.5034833"><ele>145.0</ele><time>2026-03-28T10:34:02.472Z</time></trkpt><trkpt lat="43.638095" lon="11.5033867"><ele>145.0</ele><time>2026-03-28T10:34:03.47Z</time></trkpt><trkpt lat="43.6380417" lon="11.5032867"><ele>145.16666666666669</ele><time>2026-03-28T10:34:04.47Z</time></trkpt><trkpt lat="43.6379967" lon="11.5031817"><ele>145.33333333333334</ele><time>2026-03-28T10:34:05.471Z</time></trkpt><trkpt lat="43.6379533" lon="11.503075"><ele>145.5</ele><time>2026-03-28T10:34:06.471Z</time></trkpt><trkpt lat="43.6379117" lon="11.5029717"><ele>145.66666666666666</ele><time>2026-03-28T10:34:07.472Z</time></trkpt><trkpt lat="43.63787" lon="11.502865"><ele>145.83333333333331</ele><time>2026-03-28T10:34:08.471Z</time></trkpt><trkpt lat="43.637835" lon="11.5027583"><ele>146.0</ele><time>2026-03-28T10:34:09.469Z</time></trkpt><trkpt lat="43.6378133" lon="11.5026483"><ele>146.16666666666666</ele><time>2026-03-28T10:34:10.471Z</time></trkpt><trkpt lat="43.6378083" lon="11.5025317"><ele>146.33333333333331</ele><time>2026-03-28T10:34:11.471Z</time></trkpt><trkpt lat="43.63781" lon="11.5024183"><ele>146.5</ele><time>2026-03-28T10:34:12.471Z</time></trkpt><trkpt lat="43.6377967" lon="11.5023067"><ele>146.66666666666666</ele><time>2026-03-28T10:34:13.472Z</time></trkpt><trkpt lat="43.6377617" lon="11.5022083"><ele>146.83333333333334</ele><time>2026-03-28T10:34:14.471Z</time></trkpt><trkpt lat="43.6377083" lon="11.5021167"><ele>147.0</ele><time>2026-03-28T10:34:15.47Z</time></trkpt><trkpt lat="43.6376467" lon="11.502025"><ele>145.6</ele><time>2026-03-28T10:34:16.469Z</time></trkpt><trkpt lat="43.63759" lon="11.50193"><ele>144.2</ele><time>2026-03-28T10:34:17.47Z</time></trkpt><trkpt lat="43.6375317" lon="11.5018317"><ele>142.8</ele><time>2026-03-28T10:34:18.472Z</time></trkpt><trkpt lat="43.6374667" lon="11.50174"><ele>141.4</ele><time>2026-03-28T10:34:19.471Z</time></trkpt><trkpt lat="43.6373983" lon="11.501655"><ele>140.0</ele><time>2026-03-28T10:34:20.472Z</time></trkpt><trkpt lat="43.63733" lon="11.501565"><ele>140.0</ele><time>2026-03-28T10:34:21.471Z</time></trkpt><trkpt lat="43.6372667" lon="11.5014683"><ele>140.0</ele><time>2026-03-28T10:34:22.471Z</time></trkpt><trkpt lat="43.6372083" lon="11.501365"><ele>140.0</ele><time>2026-03-28T10:34:23.47Z</time></trkpt><trkpt lat="43.6371517" lon="11.5012567"><ele>140.0</ele><time>2026-03-28T10:34:24.471Z</time></trkpt><trkpt lat="43.6370933" lon="11.50115"><ele>140.0</ele><time>2026-03-28T10:34:25.471Z</time></trkpt><trkpt lat="43.6370383" lon="11.501045"><ele>140.4</ele><time>2026-03-28T10:34:26.471Z</time></trkpt><trkpt lat="43.6369833" lon="11.5009383"><ele>140.8</ele><time>2026-03-28T10:34:27.471Z</time></trkpt><trkpt lat="43.636925" lon="11.5008367"><ele>141.2</ele><time>2026-03-28T10:34:28.473Z</time></trkpt><trkpt lat="43.636865" lon="11.50074"><ele>141.6</ele><time>2026-03-28T10:34:29.471Z</time></trkpt><trkpt lat="43.6368017" lon="11.5006483"><ele>142.0</ele><time>2026-03-28T10:34:30.471Z</time></trkpt><trkpt lat="43.6367367" lon="11.5005567"><ele>141.4</ele><time>2026-03-28T10:34:31.471Z</time></trkpt><trkpt lat="43.6366717" lon="11.5004667"><ele>140.79999999999998</ele><time>2026-03-28T10:34:32.471Z</time></trkpt><trkpt lat="43.6366017" lon="11.5003867"><ele>140.2</ele><time>2026-03-28T10:34:33.471Z</time></trkpt><trkpt lat="43.63653" lon="11.5003083"><ele>139.6</ele><time>2026-03-28T10:34:34.471Z</time></trkpt><trkpt lat="43.6364567" lon="11.5002383"><ele>139.0</ele><time>2026-03-28T10:34:35.472Z</time></trkpt><trkpt lat="43.6363783" lon="11.50017"><ele>139.0</ele><time>2026-03-28T10:34:36.471Z</time></trkpt><trkpt lat="43.6362983" lon="11.5001133"><ele>139.0</ele><time>2026-03-28T10:34:37.47Z</time></trkpt><trkpt lat="43.636215" lon="11.50006"><ele>139.0</ele><time>2026-03-28T10:34:38.47Z</time></trkpt><trkpt lat="43.6361333" lon="11.5000117"><ele>139.0</ele><time>2026-03-28T10:34:39.472Z</time></trkpt><trkpt lat="43.6360483" lon="11.49996"><ele>139.0</ele><time>2026-03-28T10:34:40.47Z</time></trkpt><trkpt lat="43.6359633" lon="11.4999067"><ele>138.4</ele><time>2026-03-28T10:34:41.472Z</time></trkpt><trkpt lat="43.6358783" lon="11.4998567"><ele>137.8</ele><time>2026-03-28T10:34:42.473Z</time></trkpt><trkpt lat="43.6357917" lon="11.4998067"><ele>137.2</ele><time>2026-03-28T10:34:43.469Z</time></trkpt><trkpt lat="43.635705" lon="11.4997517"><ele>136.6</ele><time>2026-03-28T10:34:44.471Z</time></trkpt><trkpt lat="43.6356183" lon="11.4996967"><ele>136.0</ele><time>2026-03-28T10:34:45.469Z</time></trkpt><trkpt lat="43.6355317" lon="11.4996417"><ele>136.0</ele><time>2026-03-28T10:34:46.471Z</time></trkpt><trkpt lat="43.6354467" lon="11.4995867"><ele>136.0</ele><time>2026-03-28T10:34:47.47Z</time></trkpt><trkpt lat="43.6353617" lon="11.4995317"><ele>136.0</ele><time>2026-03-28T10:34:48.471Z</time></trkpt><trkpt lat="43.635275" lon="11.4994733"><ele>136.0</ele><time>2026-03-28T10:34:49.47Z</time></trkpt><trkpt lat="43.6351917" lon="11.4994067"><ele>136.0</ele><time>2026-03-28T10:34:50.471Z</time></trkpt><trkpt lat="43.6351117" lon="11.499325"><ele>136.4</ele><time>2026-03-28T10:34:51.471Z</time></trkpt><trkpt lat="43.6350383" lon="11.4992333"><ele>136.8</ele><time>2026-03-28T10:34:52.471Z</time></trkpt><trkpt lat="43.6349683" lon="11.4991367"><ele>137.20000000000002</ele><time>2026-03-28T10:34:53.472Z</time></trkpt><trkpt lat="43.6349017" lon="11.4990367"><ele>137.6</ele><time>2026-03-28T10:34:54.471Z</time></trkpt><trkpt lat="43.634835" lon="11.4989333"><ele>138.0</ele><time>2026-03-28T10:34:55.47Z</time></trkpt><trkpt lat="43.6347733" lon="11.4988233"><ele>137.8</ele><time>2026-03-28T10:34:56.473Z</time></trkpt><trkpt lat="43.6347133" lon="11.49871"><ele>137.60000000000002</ele><time>2026-03-28T10:34:57.47Z</time></trkpt><trkpt lat="43.6346517" lon="11.4986017"><ele>137.39999999999998</ele><time>2026-03-28T10:34:58.472Z</time></trkpt><trkpt lat="43.6345917" lon="11.4984967"><ele>137.2</ele><time>2026-03-28T10:34:59.471Z</time></trkpt><trkpt lat="43.63453" lon="11.4983883"><ele>137.0</ele><time>2026-03-28T10:35:00.471Z</time></trkpt><trkpt lat="43.63447" lon="11.4982817"><ele>137.0</ele><time>2026-03-28T10:35:01.471Z</time></trkpt><trkpt lat="43.6344083" lon="11.49818"><ele>137.0</ele><time>2026-03-28T10:35:02.474Z</time></trkpt><trkpt lat="43.6343483" lon="11.4980717"><ele>137.0</ele><time>2026-03-28T10:35:03.47Z</time></trkpt><trkpt lat="43.6342917" lon="11.4979617"><ele>137.0</ele><time>2026-03-28T10:35:04.47Z</time></trkpt><trkpt lat="43.6342317" lon="11.4978583"><ele>137.0</ele><time>2026-03-28T10:35:05.471Z</time></trkpt><trkpt lat="43.63417" lon="11.497755"><ele>136.79999999999998</ele><time>2026-03-28T10:35:06.471Z</time></trkpt><trkpt lat="43.63411" lon="11.4976533"><ele>136.6</ele><time>2026-03-28T10:35:07.469Z</time></trkpt><trkpt lat="43.6340517" lon="11.49755"><ele>136.39999999999998</ele><time>2026-03-28T10:35:08.471Z</time></trkpt><trkpt lat="43.6339983" lon="11.4974417"><ele>136.2</ele><time>2026-03-28T10:35:09.472Z</time></trkpt><trkpt lat="43.6339433" lon="11.497335"><ele>136.0</ele><time>2026-03-28T10:35:10.47Z</time></trkpt><trkpt lat="43.6338867" lon="11.4972283"><ele>136.0</ele><time>2026-03-28T10:35:11.471Z</time></trkpt><trkpt lat="43.63383" lon="11.4971167"><ele>136.0</ele><time>2026-03-28T10:35:12.47Z</time></trkpt><trkpt lat="43.6337767" lon="11.4970033"><ele>136.0</ele><time>2026-03-28T10:35:13.471Z</time></trkpt><trkpt lat="43.6337267" lon="11.4968883"><ele>136.0</ele><time>2026-03-28T10:35:14.472Z</time></trkpt><trkpt lat="43.6336767" lon="11.496775"><ele>136.0</ele><time>2026-03-28T10:35:15.471Z</time></trkpt><trkpt lat="43.6336283" lon="11.49666"><ele>135.6</ele><time>2026-03-28T10:35:16.471Z</time></trkpt><trkpt lat="43.6335783" lon="11.496545"><ele>135.2</ele><time>2026-03-28T10:35:17.47Z</time></trkpt><trkpt lat="43.6335267" lon="11.49643"><ele>134.8</ele><time>2026-03-28T10:35:18.47Z</time></trkpt><trkpt lat="43.6334767" lon="11.49632"><ele>134.4</ele><time>2026-03-28T10:35:19.472Z</time></trkpt><trkpt lat="43.6334283" lon="11.4962117"><ele>134.0</ele><time>2026-03-28T10:35:20.471Z</time></trkpt><trkpt lat="43.63338" lon="11.4961017"><ele>134.0</ele><time>2026-03-28T10:35:21.471Z</time></trkpt><trkpt lat="43.6333317" lon="11.4959917"><ele>134.0</ele><time>2026-03-28T10:35:22.47Z</time></trkpt><trkpt lat="43.6332867" lon="11.4958783"><ele>134.0</ele><time>2026-03-28T10:35:23.47Z</time></trkpt><trkpt lat="43.6332483" lon="11.4957633"><ele>134.0</ele><time>2026-03-28T10:35:24.472Z</time></trkpt><trkpt lat="43.633215" lon="11.4956467"><ele>134.0</ele><time>2026-03-28T10:35:25.471Z</time></trkpt><trkpt lat="43.63319" lon="11.4955267"><ele>134.16666666666666</ele><time>2026-03-28T10:35:26.472Z</time></trkpt><trkpt lat="43.6331683" lon="11.4954067"><ele>134.33333333333331</ele><time>2026-03-28T10:35:27.471Z</time></trkpt><trkpt lat="43.63315" lon="11.495285"><ele>134.5</ele><time>2026-03-28T10:35:28.47Z</time></trkpt><trkpt lat="43.6331317" lon="11.4951633"><ele>134.66666666666666</ele><time>2026-03-28T10:35:29.471Z</time></trkpt><trkpt lat="43.63311" lon="11.4950433"><ele>134.83333333333334</ele><time>2026-03-28T10:35:30.473Z</time></trkpt><trkpt lat="43.63309" lon="11.4949233"><ele>135.0</ele><time>2026-03-28T10:35:31.472Z</time></trkpt><trkpt lat="43.6330683" lon="11.4948017"><ele>135.0</ele><time>2026-03-28T10:35:32.471Z</time></trkpt><trkpt lat="43.6330467" lon="11.4946783"><ele>135.0</ele><time>2026-03-28T10:35:33.47Z</time></trkpt><trkpt lat="43.6330217" lon="11.4945567"><ele>135.0</ele><time>2026-03-28T10:35:34.473Z</time></trkpt><trkpt lat="43.632995" lon="11.4944367"><ele>135.0</ele><time>2026-03-28T10:35:35.471Z</time></trkpt><trkpt lat="43.6329683" lon="11.494315"><ele>135.0</ele><time>2026-03-28T10:35:36.473Z</time></trkpt><trkpt lat="43.6329417" lon="11.494195"><ele>134.8</ele><time>2026-03-28T10:35:37.472Z</time></trkpt><trkpt lat="43.632915" lon="11.494075"><ele>134.6</ele><time>2026-03-28T10:35:38.47Z</time></trkpt><trkpt lat="43.6328883" lon="11.4939533"><ele>134.4</ele><time>2026-03-28T10:35:39.47Z</time></trkpt><trkpt lat="43.6328567" lon="11.4938333"><ele>134.2</ele><time>2026-03-28T10:35:40.472Z</time></trkpt><trkpt lat="43.6328233" lon="11.4937083"><ele>134.0</ele><time>2026-03-28T10:35:41.47Z</time></trkpt><trkpt lat="43.6327867" lon="11.49359"><ele>134.0</ele><time>2026-03-28T10:35:42.471Z</time></trkpt><trkpt lat="43.6327483" lon="11.4934783"><ele>134.0</ele><time>2026-03-28T10:35:43.472Z</time></trkpt><trkpt lat="43.632705" lon="11.4933667"><ele>134.0</ele><time>2026-03-28T10:35:44.471Z</time></trkpt><trkpt lat="43.63266" lon="11.493255"><ele>134.0</ele><time>2026-03-28T10:35:45.47Z</time></trkpt><trkpt lat="43.6326083" lon="11.4931483"><ele>134.0</ele><time>2026-03-28T10:35:46.469Z</time></trkpt><trkpt lat="43.6325533" lon="11.4930433"><ele>134.0</ele><time>2026-03-28T10:35:47.472Z</time></trkpt><trkpt lat="43.632495" lon="11.4929417"><ele>134.0</ele><time>2026-03-28T10:35:48.473Z</time></trkpt><trkpt lat="43.6324333" lon="11.4928433"><ele>134.0</ele><time>2026-03-28T10:35:49.471Z</time></trkpt><trkpt lat="43.6323683" lon="11.4927533"><ele>134.0</ele><time>2026-03-28T10:35:50.471Z</time></trkpt><trkpt lat="43.6323033" lon="11.4926583"><ele>134.0</ele><time>2026-03-28T10:35:51.47Z</time></trkpt><trkpt lat="43.6322383" lon="11.492565"><ele>134.0</ele><time>2026-03-28T10:35:52.47Z</time></trkpt><trkpt lat="43.6321717" lon="11.4924767"><ele>134.0</ele><time>2026-03-28T10:35:53.471Z</time></trkpt><trkpt lat="43.6321033" lon="11.4923867"><ele>134.0</ele><time>2026-03-28T10:35:54.471Z</time></trkpt><trkpt lat="43.632035" lon="11.4922983"><ele>134.0</ele><time>2026-03-28T10:35:55.472Z</time></trkpt><trkpt lat="43.6319633" lon="11.4922133"><ele>134.0</ele><time>2026-03-28T10:35:56.47Z</time></trkpt><trkpt lat="43.63189" lon="11.4921333"><ele>133.6</ele><time>2026-03-28T10:35:57.471Z</time></trkpt><trkpt lat="43.6318167" lon="11.4920533"><ele>133.2</ele><time>2026-03-28T10:35:58.472Z</time></trkpt><trkpt lat="43.6317433" lon="11.4919767"><ele>132.79999999999998</ele><time>2026-03-28T10:35:59.471Z</time></trkpt><trkpt lat="43.6316717" lon="11.4918933"><ele>132.4</ele><time>2026-03-28T10:36:00.471Z</time></trkpt><trkpt lat="43.6316" lon="11.4918117"><ele>132.0</ele><time>2026-03-28T10:36:01.471Z</time></trkpt><trkpt lat="43.6315267" lon="11.4917283"><ele>132.0</ele><time>2026-03-28T10:36:02.471Z</time></trkpt><trkpt lat="43.6314567" lon="11.49165"><ele>132.0</ele><time>2026-03-28T10:36:03.473Z</time></trkpt><trkpt lat="43.6313867" lon="11.4915683"><ele>132.0</ele><time>2026-03-28T10:36:04.471Z</time></trkpt><trkpt lat="43.631315" lon="11.4914883"><ele>132.0</ele><time>2026-03-28T10:36:05.471Z</time></trkpt><trkpt lat="43.6312417" lon="11.491415"><ele>132.0</ele><time>2026-03-28T10:36:06.471Z</time></trkpt><trkpt lat="43.6311667" lon="11.491345"><ele>131.2</ele><time>2026-03-28T10:36:07.471Z</time></trkpt><trkpt lat="43.63109" lon="11.491275"><ele>130.39999999999998</ele><time>2026-03-28T10:36:08.471Z</time></trkpt><trkpt lat="43.63101" lon="11.4912117"><ele>129.60000000000002</ele><time>2026-03-28T10:36:09.47Z</time></trkpt><trkpt lat="43.6309283" lon="11.4911567"><ele>128.8</ele><time>2026-03-28T10:36:10.472Z</time></trkpt><trkpt lat="43.630845" lon="11.4911033"><ele>128.0</ele><time>2026-03-28T10:36:11.473Z</time></trkpt><trkpt lat="43.63076" lon="11.4910583"><ele>128.0</ele><time>2026-03-28T10:36:12.471Z</time></trkpt><trkpt lat="43.630675" lon="11.49101"><ele>128.0</ele><time>2026-03-28T10:36:13.472Z</time></trkpt><trkpt lat="43.6305917" lon="11.4909633"><ele>128.0</ele><time>2026-03-28T10:36:14.471Z</time></trkpt><trkpt lat="43.6305067" lon="11.4909167"><ele>128.0</ele><time>2026-03-28T10:36:15.47Z</time></trkpt><trkpt lat="43.63042" lon="11.4908683"><ele>128.0</ele><time>2026-03-28T10:36:16.47Z</time></trkpt><trkpt lat="43.630335" lon="11.49082"><ele>128.20000000000002</ele><time>2026-03-28T10:36:17.47Z</time></trkpt><trkpt lat="43.6302483" lon="11.490775"><ele>128.4</ele><time>2026-03-28T10:36:18.471Z</time></trkpt><trkpt lat="43.6301617" lon="11.4907317"><ele>128.60000000000002</ele><time>2026-03-28T10:36:19.471Z</time></trkpt><trkpt lat="43.6300733" lon="11.4906933"><ele>128.8</ele><time>2026-03-28T10:36:20.471Z</time></trkpt><trkpt lat="43.6299867" lon="11.4906583"><ele>129.0</ele><time>2026-03-28T10:36:21.471Z</time></trkpt><trkpt lat="43.6298967" lon="11.4906283"><ele>129.0</ele><time>2026-03-28T10:36:22.471Z</time></trkpt><trkpt lat="43.6298033" lon="11.4906"><ele>129.0</ele><time>2026-03-28T10:36:23.472Z</time></trkpt><trkpt lat="43.6297133" lon="11.4905733"><ele>129.0</ele><time>2026-03-28T10:36:24.47Z</time></trkpt><trkpt lat="43.6296217" lon="11.4905517"><ele>129.0</ele><time>2026-03-28T10:36:25.47Z</time></trkpt><trkpt lat="43.62953" lon="11.49053"><ele>129.0</ele><time>2026-03-28T10:36:26.471Z</time></trkpt><trkpt lat="43.6294383" lon="11.490515"><ele>128.8</ele><time>2026-03-28T10:36:27.473Z</time></trkpt><trkpt lat="43.629345" lon="11.4905017"><ele>128.60000000000002</ele><time>2026-03-28T10:36:28.471Z</time></trkpt><trkpt lat="43.6292533" lon="11.4904867"><ele>128.4</ele><time>2026-03-28T10:36:29.473Z</time></trkpt><trkpt lat="43.62916" lon="11.4904733"><ele>128.20000000000002</ele><time>2026-03-28T10:36:30.47Z</time></trkpt><trkpt lat="43.62907" lon="11.4904583"><ele>128.0</ele><time>2026-03-28T10:36:31.472Z</time></trkpt><trkpt lat="43.6289817" lon="11.49044"><ele>127.80000000000001</ele><time>2026-03-28T10:36:32.47Z</time></trkpt><trkpt lat="43.62889" lon="11.49042"><ele>127.60000000000001</ele><time>2026-03-28T10:36:33.472Z</time></trkpt><trkpt lat="43.6288" lon="11.4903983"><ele>127.39999999999999</ele><time>2026-03-28T10:36:34.472Z</time></trkpt><trkpt lat="43.6287067" lon="11.4903767"><ele>127.19999999999999</ele><time>2026-03-28T10:36:35.47Z</time></trkpt><trkpt lat="43.628615" lon="11.4903483"><ele>127.0</ele><time>2026-03-28T10:36:36.471Z</time></trkpt><trkpt lat="43.6285283" lon="11.4903117"><ele>127.0</ele><time>2026-03-28T10:36:37.472Z</time></trkpt><trkpt lat="43.628445" lon="11.4902617"><ele>126.99999999999999</ele><time>2026-03-28T10:36:38.472Z</time></trkpt><trkpt lat="43.6283633" lon="11.4902"><ele>126.99999999999999</ele><time>2026-03-28T10:36:39.471Z</time></trkpt><trkpt lat="43.6282883" lon="11.4901283"><ele>127.0</ele><time>2026-03-28T10:36:40.474Z</time></trkpt><trkpt lat="43.6282167" lon="11.4900433"><ele>127.0</ele><time>2026-03-28T10:36:41.471Z</time></trkpt><trkpt lat="43.6281583" lon="11.489945"><ele>127.0</ele><time>2026-03-28T10:36:42.471Z</time></trkpt><trkpt lat="43.62811" lon="11.4898367"><ele>126.99999999999999</ele><time>2026-03-28T10:36:43.471Z</time></trkpt><trkpt lat="43.62807" lon="11.4897217"><ele>126.99999999999999</ele><time>2026-03-28T10:36:44.473Z</time></trkpt><trkpt lat="43.6280367" lon="11.4896017"><ele>127.0</ele><time>2026-03-28T10:36:45.471Z</time></trkpt><trkpt lat="43.6280067" lon="11.489485"><ele>127.0</ele><time>2026-03-28T10:36:46.472Z</time></trkpt><trkpt lat="43.6279783" lon="11.48937"><ele>126.66666666666667</ele><time>2026-03-28T10:36:47.471Z</time></trkpt><trkpt lat="43.627955" lon="11.4892517"><ele>126.33333333333334</ele><time>2026-03-28T10:36:48.472Z</time></trkpt><trkpt lat="43.62793" lon="11.489135"><ele>126.0</ele><time>2026-03-28T10:36:49.471Z</time></trkpt><trkpt lat="43.6279033" lon="11.4890167"><ele>125.66666666666666</ele><time>2026-03-28T10:36:50.471Z</time></trkpt><trkpt lat="43.62788" lon="11.4888967"><ele>125.33333333333333</ele><time>2026-03-28T10:36:51.471Z</time></trkpt><trkpt lat="43.6278567" lon="11.4887767"><ele>125.0</ele><time>2026-03-28T10:36:52.471Z</time></trkpt><trkpt lat="43.627835" lon="11.4886567"><ele>124.83333333333333</ele><time>2026-03-28T10:36:53.471Z</time></trkpt><trkpt lat="43.6278117" lon="11.48854"><ele>124.66666666666666</ele><time>2026-03-28T10:36:54.473Z</time></trkpt><trkpt lat="43.6277883" lon="11.4884267"><ele>124.5</ele><time>2026-03-28T10:36:55.471Z</time></trkpt><trkpt lat="43.6277633" lon="11.4883167"><ele>124.33333333333334</ele><time>2026-03-28T10:36:56.472Z</time></trkpt><trkpt lat="43.6277367" lon="11.4882083"><ele>124.16666666666667</ele><time>2026-03-28T10:36:57.473Z</time></trkpt><trkpt lat="43.6277117" lon="11.4881"><ele>124.0</ele><time>2026-03-28T10:36:58.471Z</time></trkpt><trkpt lat="43.6276883" lon="11.4879883"><ele>124.33333333333334</ele><time>2026-03-28T10:36:59.471Z</time></trkpt><trkpt lat="43.6276683" lon="11.4878783"><ele>124.66666666666667</ele><time>2026-03-28T10:37:00.472Z</time></trkpt><trkpt lat="43.6276517" lon="11.487765"><ele>125.0</ele><time>2026-03-28T10:37:01.471Z</time></trkpt><trkpt lat="43.6276267" lon="11.487655"><ele>125.33333333333334</ele><time>2026-03-28T10:37:02.471Z</time></trkpt><trkpt lat="43.6275983" lon="11.487545"><ele>125.66666666666667</ele><time>2026-03-28T10:37:03.472Z</time></trkpt><trkpt lat="43.627565" lon="11.4874383"><ele>126.0</ele><time>2026-03-28T10:37:04.471Z</time></trkpt><trkpt lat="43.62753" lon="11.4873317"><ele>126.0</ele><time>2026-03-28T10:37:05.473Z</time></trkpt><trkpt lat="43.62749" lon="11.4872283"><ele>126.0</ele><time>2026-03-28T10:37:06.471Z</time></trkpt><trkpt lat="43.62745" lon="11.487125"><ele>126.0</ele><time>2026-03-28T10:37:07.469Z</time></trkpt><trkpt lat="43.627415" lon="11.48702"><ele>126.0</ele><time>2026-03-28T10:37:08.471Z</time></trkpt><trkpt lat="43.62738" lon="11.4869133"><ele>126.0</ele><time>2026-03-28T10:37:09.471Z</time></trkpt><trkpt lat="43.6273483" lon="11.4868033"><ele>126.0</ele><time>2026-03-28T10:37:10.471Z</time></trkpt><trkpt lat="43.627315" lon="11.486695"><ele>126.0</ele><time>2026-03-28T10:37:11.47Z</time></trkpt><trkpt lat="43.6272833" lon="11.4865867"><ele>126.0</ele><time>2026-03-28T10:37:12.472Z</time></trkpt><trkpt lat="43.6272517" lon="11.4864767"><ele>126.0</ele><time>2026-03-28T10:37:13.471Z</time></trkpt><trkpt lat="43.62722" lon="11.4863683"><ele>126.0</ele><time>2026-03-28T10:37:14.472Z</time></trkpt><trkpt lat="43.6271867" lon="11.48626"><ele>126.0</ele><time>2026-03-28T10:37:15.471Z</time></trkpt><trkpt lat="43.6271517" lon="11.4861533"><ele>126.0</ele><time>2026-03-28T10:37:16.472Z</time></trkpt><trkpt lat="43.6271167" lon="11.486045"><ele>125.83333333333333</ele><time>2026-03-28T10:37:17.471Z</time></trkpt><trkpt lat="43.6270817" lon="11.4859333"><ele>125.66666666666666</ele><time>2026-03-28T10:37:18.473Z</time></trkpt><trkpt lat="43.6270433" lon="11.4858217"><ele>125.5</ele><time>2026-03-28T10:37:19.471Z</time></trkpt><trkpt lat="43.627005" lon="11.4857133"><ele>125.33333333333333</ele><time>2026-03-28T10:37:20.47Z</time></trkpt><trkpt lat="43.6269667" lon="11.485605"><ele>125.16666666666666</ele><time>2026-03-28T10:37:21.471Z</time></trkpt><trkpt lat="43.6269233" lon="11.4855"><ele>125.0</ele><time>2026-03-28T10:37:22.472Z</time></trkpt><trkpt lat="43.62688" lon="11.4854"><ele>124.83333333333333</ele><time>2026-03-28T10:37:23.47Z</time></trkpt><trkpt lat="43.6268383" lon="11.4852933"><ele>124.66666666666666</ele><time>2026-03-28T10:37:24.471Z</time></trkpt><trkpt lat="43.6267967" lon="11.4851917"><ele>124.5</ele><time>2026-03-28T10:37:25.473Z</time></trkpt><trkpt lat="43.6267517" lon="11.4850917"><ele>124.33333333333334</ele><time>2026-03-28T10:37:26.471Z</time></trkpt><trkpt lat="43.626705" lon="11.4849933"><ele>124.16666666666667</ele><time>2026-03-28T10:37:27.47Z</time></trkpt><trkpt lat="43.6266567" lon="11.4848983"><ele>124.0</ele><time>2026-03-28T10:37:28.473Z</time></trkpt><trkpt lat="43.62661" lon="11.4848"><ele>124.00000000000001</ele><time>2026-03-28T10:37:29.472Z</time></trkpt><trkpt lat="43.6265633" lon="11.484705"><ele>124.0</ele><time>2026-03-28T10:37:30.471Z</time></trkpt><trkpt lat="43.6265183" lon="11.4846083"><ele>124.0</ele><time>2026-03-28T10:37:31.473Z</time></trkpt><trkpt lat="43.6264767" lon="11.4845133"><ele>124.0</ele><time>2026-03-28T10:37:32.472Z</time></trkpt><trkpt lat="43.62644" lon="11.4844183"><ele>124.00000000000001</ele><time>2026-03-28T10:37:33.471Z</time></trkpt><trkpt lat="43.62641" lon="11.4843233"><ele>124.0</ele><time>2026-03-28T10:37:34.472Z</time></trkpt><trkpt lat="43.6263867" lon="11.4842217"><ele>124.00000000000001</ele><time>2026-03-28T10:37:35.472Z</time></trkpt><trkpt lat="43.6263717" lon="11.48412"><ele>124.0</ele><time>2026-03-28T10:37:36.471Z</time></trkpt><trkpt lat="43.6263717" lon="11.4840117"><ele>124.0</ele><time>2026-03-28T10:37:37.472Z</time></trkpt><trkpt lat="43.62639" lon="11.4839083"><ele>124.0</ele><time>2026-03-28T10:37:38.471Z</time></trkpt><trkpt lat="43.6264183" lon="11.4838067"><ele>124.00000000000001</ele><time>2026-03-28T10:37:39.472Z</time></trkpt><trkpt lat="43.62645" lon="11.4837117"><ele>124.0</ele><time>2026-03-28T10:37:40.472Z</time></trkpt><trkpt lat="43.6264867" lon="11.4836217"><ele>124.16666666666667</ele><time>2026-03-28T10:37:41.47Z</time></trkpt><trkpt lat="43.6265267" lon="11.4835317"><ele>124.33333333333334</ele><time>2026-03-28T10:37:42.471Z</time></trkpt><trkpt lat="43.6265617" lon="11.48344"><ele>124.5</ele><time>2026-03-28T10:37:43.471Z</time></trkpt><trkpt lat="43.6265933" lon="11.4833467"><ele>124.66666666666666</ele><time>2026-03-28T10:37:44.472Z</time></trkpt><trkpt lat="43.626625" lon="11.48325"><ele>124.83333333333333</ele><time>2026-03-28T10:37:45.471Z</time></trkpt><trkpt lat="43.6266617" lon="11.483155"><ele>125.0</ele><time>2026-03-28T10:37:46.471Z</time></trkpt><trkpt lat="43.6267" lon="11.4830583"><ele>124.99999999999999</ele><time>2026-03-28T10:37:47.471Z</time></trkpt><trkpt lat="43.6267383" lon="11.4829617"><ele>125.0</ele><time>2026-03-28T10:37:48.47Z</time></trkpt><trkpt lat="43.6267717" lon="11.482865"><ele>125.0</ele><time>2026-03-28T10:37:49.471Z</time></trkpt><trkpt lat="43.62681" lon="11.4827717"><ele>125.0</ele><time>2026-03-28T10:37:50.472Z</time></trkpt><trkpt lat="43.6268467" lon="11.4826783"><ele>124.99999999999999</ele><time>2026-03-28T10:37:51.472Z</time></trkpt><trkpt lat="43.6268817" lon="11.482585"><ele>125.0</ele><time>2026-03-28T10:37:52.473Z</time></trkpt><trkpt lat="43.626915" lon="11.48249"><ele>124.99999999999999</ele><time>2026-03-28T10:37:53.47Z</time></trkpt><trkpt lat="43.62695" lon="11.482395"><ele>125.0</ele><time>2026-03-28T10:37:54.471Z</time></trkpt><trkpt lat="43.626985" lon="11.4823017"><ele>125.0</ele><time>2026-03-28T10:37:55.471Z</time></trkpt><trkpt lat="43.6270233" lon="11.4822083"><ele>125.0</ele><time>2026-03-28T10:37:56.472Z</time></trkpt><trkpt lat="43.6270567" lon="11.4821183"><ele>124.99999999999999</ele><time>2026-03-28T10:37:57.471Z</time></trkpt><trkpt lat="43.6270933" lon="11.4820283"><ele>125.0</ele><time>2026-03-28T10:37:58.471Z</time></trkpt><trkpt lat="43.6271333" lon="11.4819367"><ele>124.99999999999999</ele><time>2026-03-28T10:37:59.471Z</time></trkpt><trkpt lat="43.6271667" lon="11.481845"><ele>125.0</ele><time>2026-03-28T10:38:00.471Z</time></trkpt><trkpt lat="43.6272067" lon="11.4817533"><ele>125.0</ele><time>2026-03-28T10:38:01.473Z</time></trkpt><trkpt lat="43.6272433" lon="11.481665"><ele>125.0</ele><time>2026-03-28T10:38:02.473Z</time></trkpt><trkpt lat="43.627285" lon="11.4815717"><ele>124.99999999999999</ele><time>2026-03-28T10:38:03.47Z</time></trkpt><trkpt lat="43.6273283" lon="11.4814833"><ele>125.0</ele><time>2026-03-28T10:38:04.473Z</time></trkpt><trkpt lat="43.6273733" lon="11.481395"><ele>124.99999999999999</ele><time>2026-03-28T10:38:05.473Z</time></trkpt><trkpt lat="43.6274133" lon="11.4813067"><ele>125.0</ele><time>2026-03-28T10:38:06.471Z</time></trkpt><trkpt lat="43.6274533" lon="11.48122"><ele>125.0</ele><time>2026-03-28T10:38:07.471Z</time></trkpt><trkpt lat="43.6274967" lon="11.48113"><ele>125.0</ele><time>2026-03-28T10:38:08.473Z</time></trkpt><trkpt lat="43.6275417" lon="11.4810417"><ele>124.99999999999999</ele><time>2026-03-28T10:38:09.473Z</time></trkpt><trkpt lat="43.6275917" lon="11.4809567"><ele>125.0</ele><time>2026-03-28T10:38:10.471Z</time></trkpt><trkpt lat="43.6276383" lon="11.4808717"><ele>124.83333333333333</ele><time>2026-03-28T10:38:11.47Z</time></trkpt><trkpt lat="43.627685" lon="11.4807833"><ele>124.66666666666666</ele><time>2026-03-28T10:38:12.471Z</time></trkpt><trkpt lat="43.6277233" lon="11.48069"><ele>124.5</ele><time>2026-03-28T10:38:13.472Z</time></trkpt><trkpt lat="43.6277533" lon="11.48059"><ele>124.33333333333334</ele><time>2026-03-28T10:38:14.473Z</time></trkpt><trkpt lat="43.6277683" lon="11.480485"><ele>124.16666666666667</ele><time>2026-03-28T10:38:15.47Z</time></trkpt><trkpt lat="43.6277867" lon="11.4803767"><ele>124.0</ele><time>2026-03-28T10:38:16.471Z</time></trkpt><trkpt lat="43.6278017" lon="11.4802667"><ele>124.16666666666667</ele><time>2026-03-28T10:38:17.471Z</time></trkpt><trkpt lat="43.6278217" lon="11.4801583"><ele>124.33333333333334</ele><time>2026-03-28T10:38:18.471Z</time></trkpt><trkpt lat="43.6278383" lon="11.4800483"><ele>124.5</ele><time>2026-03-28T10:38:19.471Z</time></trkpt><trkpt lat="43.6278533" lon="11.4799417"><ele>124.66666666666666</ele><time>2026-03-28T10:38:20.472Z</time></trkpt><trkpt lat="43.6278683" lon="11.4798333"><ele>124.83333333333333</ele><time>2026-03-28T10:38:21.473Z</time></trkpt><trkpt lat="43.62788" lon="11.4797267"><ele>125.0</ele><time>2026-03-28T10:38:22.471Z</time></trkpt><trkpt lat="43.6278917" lon="11.4796183"><ele>124.83333333333333</ele><time>2026-03-28T10:38:23.471Z</time></trkpt><trkpt lat="43.6279067" lon="11.4795083"><ele>124.66666666666666</ele><time>2026-03-28T10:38:24.469Z</time></trkpt><trkpt lat="43.627925" lon="11.4793983"><ele>124.5</ele><time>2026-03-28T10:38:25.471Z</time></trkpt><trkpt lat="43.6279483" lon="11.4792917"><ele>124.33333333333334</ele><time>2026-03-28T10:38:26.472Z</time></trkpt><trkpt lat="43.62797" lon="11.4791883"><ele>124.16666666666667</ele><time>2026-03-28T10:38:27.469Z</time></trkpt><trkpt lat="43.6279917" lon="11.479085"><ele>124.0</ele><time>2026-03-28T10:38:28.469Z</time></trkpt><trkpt lat="43.6280167" lon="11.4789883"><ele>124.00000000000001</ele><time>2026-03-28T10:38:29.47Z</time></trkpt><trkpt lat="43.6280433" lon="11.4789017"><ele>124.0</ele><time>2026-03-28T10:38:30.469Z</time></trkpt><trkpt lat="43.6280683" lon="11.4788183"><ele>124.0</ele><time>2026-03-28T10:38:31.47Z</time></trkpt><trkpt lat="43.6280933" lon="11.4787383"><ele>124.0</ele><time>2026-03-28T10:38:32.474Z</time></trkpt><trkpt lat="43.6281433" lon="11.4785833"><ele>124.00000000000001</ele><time>2026-03-28T10:38:34.471Z</time></trkpt><trkpt lat="43.6281583" lon="11.4784367"><ele>124.0</ele><time>2026-03-28T10:38:36.473Z</time></trkpt><trkpt lat="43.6281267" lon="11.478315"><ele>124.00000000000001</ele><time>2026-03-28T10:38:38.472Z</time></trkpt><trkpt lat="43.6280417" lon="11.478245"><ele>124.0</ele><time>2026-03-28T10:38:40.472Z</time></trkpt><trkpt lat="43.6279233" lon="11.4782433"><ele>124.0</ele><time>2026-03-28T10:38:42.472Z</time></trkpt><trkpt lat="43.62786" lon="11.478265"><ele>124.0</ele><time>2026-03-28T10:38:43.473Z</time></trkpt><trkpt lat="43.6277933" lon="11.47829"><ele>124.00000000000001</ele><time>2026-03-28T10:38:44.471Z</time></trkpt><trkpt lat="43.627725" lon="11.4783167"><ele>124.0</ele><time>2026-03-28T10:38:45.471Z</time></trkpt><trkpt lat="43.6276583" lon="11.478345"><ele>124.00000000000001</ele><time>2026-03-28T10:38:46.474Z</time></trkpt><trkpt lat="43.6275967" lon="11.4783767"><ele>124.0</ele><time>2026-03-28T10:38:47.471Z</time></trkpt><trkpt lat="43.6275333" lon="11.4784067"><ele>124.0</ele><time>2026-03-28T10:38:48.473Z</time></trkpt><trkpt lat="43.6274717" lon="11.4784333"><ele>124.0</ele><time>2026-03-28T10:38:49.471Z</time></trkpt><trkpt lat="43.6274117" lon="11.478465"><ele>124.00000000000001</ele><time>2026-03-28T10:38:50.472Z</time></trkpt><trkpt lat="43.6272967" lon="11.4785333"><ele>124.0</ele><time>2026-03-28T10:38:52.473Z</time></trkpt><trkpt lat="43.6272383" lon="11.4785683"><ele>124.0</ele><time>2026-03-28T10:38:53.473Z</time></trkpt><trkpt lat="43.6271267" lon="11.4786433"><ele>124.0</ele><time>2026-03-28T10:38:55.472Z</time></trkpt><trkpt lat="43.62702" lon="11.4787283"><ele>124.0</ele><time>2026-03-28T10:38:57.473Z</time></trkpt><trkpt lat="43.6269383" lon="11.4788"><ele>124.0</ele><time>2026-03-28T10:38:59.474Z</time></trkpt><trkpt lat="43.62687" lon="11.4788817"><ele>124.0</ele><time>2026-03-28T10:39:01.472Z</time></trkpt><trkpt lat="43.626805" lon="11.47897"><ele>124.16666666666667</ele><time>2026-03-28T10:39:03.468Z</time></trkpt><trkpt lat="43.6267433" lon="11.47905"><ele>124.33333333333334</ele><time>2026-03-28T10:39:05.471Z</time></trkpt><trkpt lat="43.6266833" lon="11.4791217"><ele>124.5</ele><time>2026-03-28T10:39:07.471Z</time></trkpt><trkpt lat="43.6266183" lon="11.4791867"><ele>124.66666666666666</ele><time>2026-03-28T10:39:09.471Z</time></trkpt><trkpt lat="43.62654" lon="11.4792617"><ele>124.83333333333333</ele><time>2026-03-28T10:39:12.47Z</time></trkpt><trkpt lat="43.626455" lon="11.4793317"><ele>125.0</ele><time>2026-03-28T10:39:15.47Z</time></trkpt><trkpt lat="43.626395" lon="11.4794"><ele>125.0</ele><time>2026-03-28T10:39:17.471Z</time></trkpt><trkpt lat="43.6263367" lon="11.47947"><ele>125.0</ele><time>2026-03-28T10:39:19.47Z</time></trkpt><trkpt lat="43.62628" lon="11.479535"><ele>125.0</ele><time>2026-03-28T10:39:21.471Z</time></trkpt><trkpt lat="43.6262233" lon="11.4796"><ele>125.0</ele><time>2026-03-28T10:39:23.47Z</time></trkpt><trkpt lat="43.626175" lon="11.4796567"><ele>125.0</ele><time>2026-03-28T10:39:25.471Z</time></trkpt><trkpt lat="43.6261167" lon="11.4797233"><ele>125.0</ele><time>2026-03-28T10:39:28.471Z</time></trkpt><trkpt lat="43.6260667" lon="11.479785"><ele>125.0</ele><time>2026-03-28T10:39:31.471Z</time></trkpt><trkpt lat="43.62602" lon="11.479845"><ele>125.16666666666666</ele><time>2026-03-28T10:39:33.47Z</time></trkpt><trkpt lat="43.6259567" lon="11.4799083"><ele>125.33333333333333</ele><time>2026-03-28T10:39:35.47Z</time></trkpt><trkpt lat="43.625895" lon="11.4799617"><ele>125.5</ele><time>2026-03-28T10:39:37.47Z</time></trkpt><trkpt lat="43.625835" lon="11.4800183"><ele>125.66666666666666</ele><time>2026-03-28T10:39:39.471Z</time></trkpt><trkpt lat="43.6257567" lon="11.480075"><ele>125.83333333333333</ele><time>2026-03-28T10:39:41.47Z</time></trkpt><trkpt lat="43.625665" lon="11.4801367"><ele>126.0</ele><time>2026-03-28T10:39:43.471Z</time></trkpt><trkpt lat="43.6255567" lon="11.4802133"><ele>126.0</ele><time>2026-03-28T10:39:45.471Z</time></trkpt><trkpt lat="43.6254417" lon="11.4802767"><ele>126.0</ele><time>2026-03-28T10:39:47.469Z</time></trkpt><trkpt lat="43.6253283" lon="11.4803367"><ele>126.0</ele><time>2026-03-28T10:39:49.468Z</time></trkpt><trkpt lat="43.62522" lon="11.4804067"><ele>126.0</ele><time>2026-03-28T10:39:51.471Z</time></trkpt><trkpt lat="43.6251233" lon="11.4804817"><ele>125.5</ele><time>2026-03-28T10:39:53.472Z</time></trkpt><trkpt lat="43.6250317" lon="11.4805633"><ele>125.0</ele><time>2026-03-28T10:39:55.47Z</time></trkpt><trkpt lat="43.624945" lon="11.480665"><ele>124.5</ele><time>2026-03-28T10:39:57.471Z</time></trkpt><trkpt lat="43.6248617" lon="11.4807717"><ele>124.0</ele><time>2026-03-28T10:39:59.471Z</time></trkpt><trkpt lat="43.62477" lon="11.48088"><ele>124.0</ele><time>2026-03-28T10:40:01.471Z</time></trkpt><trkpt lat="43.62469" lon="11.4809967"><ele>124.0</ele><time>2026-03-28T10:40:03.471Z</time></trkpt><trkpt lat="43.62462" lon="11.4811033"><ele>124.0</ele><time>2026-03-28T10:40:05.471Z</time></trkpt><trkpt lat="43.624555" lon="11.481175"><ele>124.0</ele><time>2026-03-28T10:40:07.471Z</time></trkpt><trkpt lat="43.6245033" lon="11.4812517"><ele>124.0</ele><time>2026-03-28T10:40:09.471Z</time></trkpt><trkpt lat="43.6244533" lon="11.481325"><ele>124.66666666666667</ele><time>2026-03-28T10:40:11.471Z</time></trkpt><trkpt lat="43.6244033" lon="11.4814033"><ele>125.33333333333334</ele><time>2026-03-28T10:40:13.471Z</time></trkpt><trkpt lat="43.6243567" lon="11.4814767"><ele>126.0</ele><time>2026-03-28T10:40:15.47Z</time></trkpt><trkpt lat="43.62429" lon="11.48155"><ele>126.66666666666666</ele><time>2026-03-28T10:40:17.471Z</time></trkpt><trkpt lat="43.6241967" lon="11.48161"><ele>127.33333333333333</ele><time>2026-03-28T10:40:19.471Z</time></trkpt><trkpt lat="43.6241333" lon="11.4816133"><ele>128.0</ele><time>2026-03-28T10:40:20.471Z</time></trkpt><trkpt lat="43.624015" lon="11.481625"><ele>127.99999999999999</ele><time>2026-03-28T10:40:22.473Z</time></trkpt><trkpt lat="43.62393" lon="11.4817367"><ele>128.0</ele><time>2026-03-28T10:40:24.472Z</time></trkpt><trkpt lat="43.623915" lon="11.4818217"><ele>128.0</ele><time>2026-03-28T10:40:25.47Z</time></trkpt><trkpt lat="43.62392" lon="11.48192"><ele>128.0</ele><time>2026-03-28T10:40:26.473Z</time></trkpt><trkpt lat="43.6239317" lon="11.4820167"><ele>127.99999999999999</ele><time>2026-03-28T10:40:27.473Z</time></trkpt><trkpt lat="43.6239333" lon="11.4821183"><ele>128.0</ele><time>2026-03-28T10:40:28.471Z</time></trkpt><trkpt lat="43.623915" lon="11.4822183"><ele>127.66666666666666</ele><time>2026-03-28T10:40:29.472Z</time></trkpt><trkpt lat="43.6238883" lon="11.4823167"><ele>127.33333333333333</ele><time>2026-03-28T10:40:30.472Z</time></trkpt><trkpt lat="43.6238567" lon="11.4824117"><ele>127.0</ele><time>2026-03-28T10:40:31.471Z</time></trkpt><trkpt lat="43.62382" lon="11.48251"><ele>126.66666666666666</ele><time>2026-03-28T10:40:32.472Z</time></trkpt><trkpt lat="43.623775" lon="11.4826083"><ele>126.33333333333333</ele><time>2026-03-28T10:40:33.47Z</time></trkpt><trkpt lat="43.6237233" lon="11.4827033"><ele>126.0</ele><time>2026-03-28T10:40:34.471Z</time></trkpt><trkpt lat="43.6236717" lon="11.4828"><ele>126.16666666666667</ele><time>2026-03-28T10:40:35.471Z</time></trkpt><trkpt lat="43.62362" lon="11.4828983"><ele>126.33333333333334</ele><time>2026-03-28T10:40:36.471Z</time></trkpt><trkpt lat="43.6235717" lon="11.482995"><ele>126.5</ele><time>2026-03-28T10:40:37.471Z</time></trkpt><trkpt lat="43.6235217" lon="11.4830933"><ele>126.66666666666667</ele><time>2026-03-28T10:40:38.471Z</time></trkpt><trkpt lat="43.6234733" lon="11.4831917"><ele>126.83333333333334</ele><time>2026-03-28T10:40:39.471Z</time></trkpt><trkpt lat="43.6234233" lon="11.483295"><ele>127.0</ele><time>2026-03-28T10:40:40.471Z</time></trkpt><trkpt lat="43.6233767" lon="11.4833967"><ele>126.39999999999999</ele><time>2026-03-28T10:40:41.472Z</time></trkpt><trkpt lat="43.6233267" lon="11.4835017"><ele>125.79999999999998</ele><time>2026-03-28T10:40:42.471Z</time></trkpt><trkpt lat="43.6232733" lon="11.4836067"><ele>125.2</ele><time>2026-03-28T10:40:43.471Z</time></trkpt><trkpt lat="43.6232217" lon="11.4837117"><ele>124.6</ele><time>2026-03-28T10:40:44.472Z</time></trkpt><trkpt lat="43.62317" lon="11.4838183"><ele>124.0</ele><time>2026-03-28T10:40:45.471Z</time></trkpt><trkpt lat="43.6231217" lon="11.4839217"><ele>124.0</ele><time>2026-03-28T10:40:46.472Z</time></trkpt><trkpt lat="43.6230683" lon="11.4840267"><ele>124.0</ele><time>2026-03-28T10:40:47.471Z</time></trkpt><trkpt lat="43.62302" lon="11.4841317"><ele>124.0</ele><time>2026-03-28T10:40:48.473Z</time></trkpt><trkpt lat="43.62297" lon="11.4842383"><ele>124.0</ele><time>2026-03-28T10:40:49.471Z</time></trkpt><trkpt lat="43.6229133" lon="11.484345"><ele>124.0</ele><time>2026-03-28T10:40:50.472Z</time></trkpt><trkpt lat="43.62286" lon="11.4844483"><ele>123.83333333333334</ele><time>2026-03-28T10:40:51.472Z</time></trkpt><trkpt lat="43.6228067" lon="11.4845517"><ele>123.66666666666667</ele><time>2026-03-28T10:40:52.471Z</time></trkpt><trkpt lat="43.622755" lon="11.4846567"><ele>123.5</ele><time>2026-03-28T10:40:53.471Z</time></trkpt><trkpt lat="43.6227067" lon="11.4847583"><ele>123.33333333333334</ele><time>2026-03-28T10:40:54.471Z</time></trkpt><trkpt lat="43.6226533" lon="11.4848567"><ele>123.16666666666667</ele><time>2026-03-28T10:40:55.472Z</time></trkpt><trkpt lat="43.6226017" lon="11.484955"><ele>123.0</ele><time>2026-03-28T10:40:56.473Z</time></trkpt><trkpt lat="43.6225483" lon="11.485055"><ele>123.0</ele><time>2026-03-28T10:40:57.47Z</time></trkpt><trkpt lat="43.6224967" lon="11.4851567"><ele>123.0</ele><time>2026-03-28T10:40:58.471Z</time></trkpt><trkpt lat="43.6224467" lon="11.48526"><ele>123.0</ele><time>2026-03-28T10:40:59.471Z</time></trkpt><trkpt lat="43.6223983" lon="11.4853633"><ele>123.0</ele><time>2026-03-28T10:41:00.472Z</time></trkpt><trkpt lat="43.6223483" lon="11.485465"><ele>123.0</ele><time>2026-03-28T10:41:01.473Z</time></trkpt><trkpt lat="43.6222983" lon="11.4855683"><ele>123.0</ele><time>2026-03-28T10:41:02.471Z</time></trkpt><trkpt lat="43.622245" lon="11.4856717"><ele>123.16666666666667</ele><time>2026-03-28T10:41:03.471Z</time></trkpt><trkpt lat="43.6221933" lon="11.4857717"><ele>123.33333333333334</ele><time>2026-03-28T10:41:04.472Z</time></trkpt><trkpt lat="43.622145" lon="11.485875"><ele>123.5</ele><time>2026-03-28T10:41:05.47Z</time></trkpt><trkpt lat="43.6220983" lon="11.48598"><ele>123.66666666666667</ele><time>2026-03-28T10:41:06.47Z</time></trkpt><trkpt lat="43.6220517" lon="11.4860817"><ele>123.83333333333334</ele><time>2026-03-28T10:41:07.472Z</time></trkpt><trkpt lat="43.6220017" lon="11.4861833"><ele>124.0</ele><time>2026-03-28T10:41:08.473Z</time></trkpt><trkpt lat="43.6219517" lon="11.4862817"><ele>124.00000000000001</ele><time>2026-03-28T10:41:09.47Z</time></trkpt><trkpt lat="43.6219" lon="11.4863833"><ele>124.0</ele><time>2026-03-28T10:41:10.471Z</time></trkpt><trkpt lat="43.62185" lon="11.4864833"><ele>124.0</ele><time>2026-03-28T10:41:11.473Z</time></trkpt><trkpt lat="43.6218017" lon="11.4865833"><ele>124.0</ele><time>2026-03-28T10:41:12.472Z</time></trkpt><trkpt lat="43.6217583" lon="11.4866833"><ele>124.00000000000001</ele><time>2026-03-28T10:41:13.472Z</time></trkpt><trkpt lat="43.6217133" lon="11.4867867"><ele>124.0</ele><time>2026-03-28T10:41:14.471Z</time></trkpt><trkpt lat="43.6216767" lon="11.4868933"><ele>124.00000000000001</ele><time>2026-03-28T10:41:15.47Z</time></trkpt><trkpt lat="43.6216467" lon="11.4870033"><ele>124.0</ele><time>2026-03-28T10:41:16.472Z</time></trkpt><trkpt lat="43.621615" lon="11.487115"><ele>124.0</ele><time>2026-03-28T10:41:17.471Z</time></trkpt><trkpt lat="43.621585" lon="11.48723"><ele>124.0</ele><time>2026-03-28T10:41:18.473Z</time></trkpt><trkpt lat="43.6215583" lon="11.4873467"><ele>124.00000000000001</ele><time>2026-03-28T10:41:19.473Z</time></trkpt><trkpt lat="43.62154" lon="11.487465"><ele>124.0</ele><time>2026-03-28T10:41:20.471Z</time></trkpt><trkpt lat="43.621525" lon="11.4875833"><ele>124.16666666666667</ele><time>2026-03-28T10:41:21.471Z</time></trkpt><trkpt lat="43.621515" lon="11.4877017"><ele>124.33333333333334</ele><time>2026-03-28T10:41:22.47Z</time></trkpt><trkpt lat="43.62151" lon="11.4878183"><ele>124.5</ele><time>2026-03-28T10:41:23.472Z</time></trkpt><trkpt lat="43.6215117" lon="11.4879383"><ele>124.66666666666666</ele><time>2026-03-28T10:41:24.469Z</time></trkpt><trkpt lat="43.6215167" lon="11.4880567"><ele>124.83333333333333</ele><time>2026-03-28T10:41:25.471Z</time></trkpt><trkpt lat="43.62153" lon="11.4881767"><ele>125.0</ele><time>2026-03-28T10:41:26.47Z</time></trkpt><trkpt lat="43.6215467" lon="11.4882967"><ele>124.66666666666666</ele><time>2026-03-28T10:41:27.471Z</time></trkpt><trkpt lat="43.6215667" lon="11.488415"><ele>124.33333333333333</ele><time>2026-03-28T10:41:28.471Z</time></trkpt><trkpt lat="43.6215883" lon="11.4885333"><ele>124.0</ele><time>2026-03-28T10:41:29.475Z</time></trkpt><trkpt lat="43.6216117" lon="11.48865"><ele>123.66666666666666</ele><time>2026-03-28T10:41:30.473Z</time></trkpt><trkpt lat="43.6216367" lon="11.488765"><ele>123.33333333333333</ele><time>2026-03-28T10:41:31.472Z</time></trkpt><trkpt lat="43.6216617" lon="11.4888783"><ele>123.0</ele><time>2026-03-28T10:41:32.472Z</time></trkpt><trkpt lat="43.6216867" lon="11.4889917"><ele>123.0</ele><time>2026-03-28T10:41:33.474Z</time></trkpt><trkpt lat="43.621715" lon="11.4891067"><ele>123.0</ele><time>2026-03-28T10:41:34.472Z</time></trkpt><trkpt lat="43.6217417" lon="11.4892233"><ele>123.0</ele><time>2026-03-28T10:41:35.473Z</time></trkpt><trkpt lat="43.6217717" lon="11.4893417"><ele>123.0</ele><time>2026-03-28T10:41:36.47Z</time></trkpt><trkpt lat="43.6218" lon="11.4894583"><ele>123.0</ele><time>2026-03-28T10:41:37.473Z</time></trkpt><trkpt lat="43.62183" lon="11.48957"><ele>123.0</ele><time>2026-03-28T10:41:38.472Z</time></trkpt><trkpt lat="43.6218567" lon="11.4896833"><ele>122.83333333333333</ele><time>2026-03-28T10:41:39.472Z</time></trkpt><trkpt lat="43.6218833" lon="11.4897983"><ele>122.66666666666666</ele><time>2026-03-28T10:41:40.473Z</time></trkpt><trkpt lat="43.62191" lon="11.4899133"><ele>122.5</ele><time>2026-03-28T10:41:41.473Z</time></trkpt><trkpt lat="43.6219367" lon="11.4900317"><ele>122.33333333333333</ele><time>2026-03-28T10:41:42.471Z</time></trkpt><trkpt lat="43.621965" lon="11.4901483"><ele>122.16666666666666</ele><time>2026-03-28T10:41:43.47Z</time></trkpt><trkpt lat="43.6219933" lon="11.4902617"><ele>122.0</ele><time>2026-03-28T10:41:44.473Z</time></trkpt><trkpt lat="43.62202" lon="11.4903767"><ele>122.16666666666666</ele><time>2026-03-28T10:41:45.472Z</time></trkpt><trkpt lat="43.6220467" lon="11.4904867"><ele>122.33333333333333</ele><time>2026-03-28T10:41:46.471Z</time></trkpt><trkpt lat="43.622075" lon="11.4905983"><ele>122.5</ele><time>2026-03-28T10:41:47.474Z</time></trkpt><trkpt lat="43.6221" lon="11.49071"><ele>122.66666666666666</ele><time>2026-03-28T10:41:48.471Z</time></trkpt><trkpt lat="43.6221267" lon="11.4908183"><ele>122.83333333333333</ele><time>2026-03-28T10:41:49.471Z</time></trkpt><trkpt lat="43.6221517" lon="11.4909217"><ele>123.0</ele><time>2026-03-28T10:41:50.472Z</time></trkpt><trkpt lat="43.6221767" lon="11.4910283"><ele>123.0</ele><time>2026-03-28T10:41:51.474Z</time></trkpt><trkpt lat="43.6222033" lon="11.491135"><ele>123.0</ele><time>2026-03-28T10:41:52.47Z</time></trkpt><trkpt lat="43.6222283" lon="11.4912467"><ele>123.0</ele><time>2026-03-28T10:41:53.47Z</time></trkpt><trkpt lat="43.622255" lon="11.491355"><ele>123.0</ele><time>2026-03-28T10:41:54.472Z</time></trkpt><trkpt lat="43.6222817" lon="11.49147"><ele>123.0</ele><time>2026-03-28T10:41:55.473Z</time></trkpt><trkpt lat="43.6223083" lon="11.4915833"><ele>123.0</ele><time>2026-03-28T10:41:56.47Z</time></trkpt><trkpt lat="43.6223333" lon="11.4916917"><ele>123.0</ele><time>2026-03-28T10:41:57.471Z</time></trkpt><trkpt lat="43.6223583" lon="11.4918"><ele>123.0</ele><time>2026-03-28T10:41:58.472Z</time></trkpt><trkpt lat="43.6223833" lon="11.4919017"><ele>123.0</ele><time>2026-03-28T10:41:59.472Z</time></trkpt><trkpt lat="43.62241" lon="11.4920017"><ele>123.0</ele><time>2026-03-28T10:42:00.471Z</time></trkpt><trkpt lat="43.622435" lon="11.4921033"><ele>123.0</ele><time>2026-03-28T10:42:01.47Z</time></trkpt><trkpt lat="43.6224617" lon="11.4922067"><ele>123.0</ele><time>2026-03-28T10:42:02.474Z</time></trkpt><trkpt lat="43.622485" lon="11.49231"><ele>123.0</ele><time>2026-03-28T10:42:03.471Z</time></trkpt><trkpt lat="43.6225117" lon="11.4924167"><ele>123.0</ele><time>2026-03-28T10:42:04.471Z</time></trkpt><trkpt lat="43.6225383" lon="11.4925217"><ele>123.0</ele><time>2026-03-28T10:42:05.471Z</time></trkpt><trkpt lat="43.62256" lon="11.4926267"><ele>123.0</ele><time>2026-03-28T10:42:06.471Z</time></trkpt><trkpt lat="43.62258" lon="11.4927283"><ele>123.0</ele><time>2026-03-28T10:42:07.471Z</time></trkpt><trkpt lat="43.6225967" lon="11.4928333"><ele>123.0</ele><time>2026-03-28T10:42:08.471Z</time></trkpt><trkpt lat="43.62261" lon="11.49294"><ele>122.66666666666667</ele><time>2026-03-28T10:42:09.471Z</time></trkpt><trkpt lat="43.6226217" lon="11.4930467"><ele>122.33333333333334</ele><time>2026-03-28T10:42:10.471Z</time></trkpt><trkpt lat="43.62263" lon="11.4931583"><ele>122.0</ele><time>2026-03-28T10:42:11.471Z</time></trkpt><trkpt lat="43.622635" lon="11.493265"><ele>121.66666666666667</ele><time>2026-03-28T10:42:12.474Z</time></trkpt><trkpt lat="43.6226383" lon="11.4933717"><ele>121.33333333333334</ele><time>2026-03-28T10:42:13.475Z</time></trkpt><trkpt lat="43.622635" lon="11.49348"><ele>121.0</ele><time>2026-03-28T10:42:14.472Z</time></trkpt><trkpt lat="43.6226267" lon="11.49359"><ele>121.00000000000001</ele><time>2026-03-28T10:42:15.47Z</time></trkpt><trkpt lat="43.6226167" lon="11.4937"><ele>121.0</ele><time>2026-03-28T10:42:16.471Z</time></trkpt><trkpt lat="43.6226033" lon="11.4938117"><ele>121.0</ele><time>2026-03-28T10:42:17.472Z</time></trkpt><trkpt lat="43.622585" lon="11.4939233"><ele>121.0</ele><time>2026-03-28T10:42:18.473Z</time></trkpt><trkpt lat="43.62256" lon="11.4940333"><ele>121.00000000000001</ele><time>2026-03-28T10:42:19.472Z</time></trkpt><trkpt lat="43.62253" lon="11.494145"><ele>121.0</ele><time>2026-03-28T10:42:20.473Z</time></trkpt><trkpt lat="43.6225" lon="11.494255"><ele>121.33333333333334</ele><time>2026-03-28T10:42:21.471Z</time></trkpt><trkpt lat="43.6224667" lon="11.4943633"><ele>121.66666666666667</ele><time>2026-03-28T10:42:22.471Z</time></trkpt><trkpt lat="43.6224267" lon="11.49447"><ele>122.0</ele><time>2026-03-28T10:42:23.472Z</time></trkpt><trkpt lat="43.6223867" lon="11.4945717"><ele>122.33333333333334</ele><time>2026-03-28T10:42:24.471Z</time></trkpt><trkpt lat="43.622345" lon="11.4946717"><ele>122.66666666666667</ele><time>2026-03-28T10:42:25.471Z</time></trkpt><trkpt lat="43.6223" lon="11.4947683"><ele>123.0</ele><time>2026-03-28T10:42:26.472Z</time></trkpt><trkpt lat="43.62225" lon="11.494865"><ele>122.83333333333333</ele><time>2026-03-28T10:42:27.472Z</time></trkpt><trkpt lat="43.6221967" lon="11.4949583"><ele>122.66666666666666</ele><time>2026-03-28T10:42:28.471Z</time></trkpt><trkpt lat="43.62214" lon="11.4950483"><ele>122.5</ele><time>2026-03-28T10:42:29.471Z</time></trkpt><trkpt lat="43.62208" lon="11.4951333"><ele>122.33333333333333</ele><time>2026-03-28T10:42:30.471Z</time></trkpt><trkpt lat="43.6220183" lon="11.495215"><ele>122.16666666666666</ele><time>2026-03-28T10:42:31.473Z</time></trkpt><trkpt lat="43.6219533" lon="11.4952883"><ele>122.0</ele><time>2026-03-28T10:42:32.471Z</time></trkpt><trkpt lat="43.6218833" lon="11.4953567"><ele>121.99999999999999</ele><time>2026-03-28T10:42:33.47Z</time></trkpt><trkpt lat="43.62181" lon="11.49542"><ele>122.0</ele><time>2026-03-28T10:42:34.471Z</time></trkpt><trkpt lat="43.6217333" lon="11.4954817"><ele>122.0</ele><time>2026-03-28T10:42:35.471Z</time></trkpt><trkpt lat="43.62166" lon="11.4955367"><ele>122.0</ele><time>2026-03-28T10:42:36.472Z</time></trkpt><trkpt lat="43.6215817" lon="11.49559"><ele>121.99999999999999</ele><time>2026-03-28T10:42:37.471Z</time></trkpt><trkpt lat="43.621505" lon="11.4956433"><ele>122.0</ele><time>2026-03-28T10:42:38.472Z</time></trkpt><trkpt lat="43.6214267" lon="11.495695"><ele>122.49999999999999</ele><time>2026-03-28T10:42:39.47Z</time></trkpt><trkpt lat="43.62135" lon="11.495745"><ele>123.0</ele><time>2026-03-28T10:42:40.471Z</time></trkpt><trkpt lat="43.6212733" lon="11.4957983"><ele>123.5</ele><time>2026-03-28T10:42:41.471Z</time></trkpt><trkpt lat="43.6211983" lon="11.4958517"><ele>124.0</ele><time>2026-03-28T10:42:42.47Z</time></trkpt><trkpt lat="43.6211233" lon="11.4959017"><ele>124.49999999999999</ele><time>2026-03-28T10:42:43.471Z</time></trkpt><trkpt lat="43.6210467" lon="11.4959483"><ele>125.0</ele><time>2026-03-28T10:42:44.471Z</time></trkpt><trkpt lat="43.6209717" lon="11.49599"><ele>124.99999999999999</ele><time>2026-03-28T10:42:45.473Z</time></trkpt><trkpt lat="43.6208933" lon="11.49603"><ele>125.0</ele><time>2026-03-28T10:42:46.472Z</time></trkpt><trkpt lat="43.620815" lon="11.4960617"><ele>125.0</ele><time>2026-03-28T10:42:47.472Z</time></trkpt><trkpt lat="43.6207333" lon="11.4960867"><ele>125.0</ele><time>2026-03-28T10:42:48.471Z</time></trkpt><trkpt lat="43.62065" lon="11.4961067"><ele>124.99999999999999</ele><time>2026-03-28T10:42:49.472Z</time></trkpt><trkpt lat="43.62057" lon="11.4961217"><ele>125.0</ele><time>2026-03-28T10:42:50.472Z</time></trkpt><trkpt lat="43.620485" lon="11.49613"><ele>124.99999999999999</ele><time>2026-03-28T10:42:51.47Z</time></trkpt><trkpt lat="43.6204" lon="11.4961383"><ele>125.0</ele><time>2026-03-28T10:42:52.469Z</time></trkpt><trkpt lat="43.6203167" lon="11.4961483"><ele>125.0</ele><time>2026-03-28T10:42:53.469Z</time></trkpt><trkpt lat="43.62023" lon="11.496155"><ele>125.0</ele><time>2026-03-28T10:42:54.469Z</time></trkpt><trkpt lat="43.6201467" lon="11.4961633"><ele>124.99999999999999</ele><time>2026-03-28T10:42:55.469Z</time></trkpt><trkpt lat="43.6200617" lon="11.4961717"><ele>125.0</ele><time>2026-03-28T10:42:56.472Z</time></trkpt><trkpt lat="43.6199833" lon="11.496185"><ele>124.99999999999999</ele><time>2026-03-28T10:42:57.471Z</time></trkpt><trkpt lat="43.6199" lon="11.496195"><ele>125.0</ele><time>2026-03-28T10:42:58.469Z</time></trkpt><trkpt lat="43.6198133" lon="11.4962017"><ele>125.0</ele><time>2026-03-28T10:42:59.47Z</time></trkpt><trkpt lat="43.619725" lon="11.4962117"><ele>125.0</ele><time>2026-03-28T10:43:00.469Z</time></trkpt><trkpt lat="43.61964" lon="11.4962167"><ele>124.99999999999999</ele><time>2026-03-28T10:43:01.469Z</time></trkpt><trkpt lat="43.6195533" lon="11.4962267"><ele>125.0</ele><time>2026-03-28T10:43:02.47Z</time></trkpt><trkpt lat="43.6194667" lon="11.4962367"><ele>124.66666666666666</ele><time>2026-03-28T10:43:03.472Z</time></trkpt><trkpt lat="43.61938" lon="11.4962467"><ele>124.33333333333333</ele><time>2026-03-28T10:43:04.471Z</time></trkpt><trkpt lat="43.6192933" lon="11.49626"><ele>124.0</ele><time>2026-03-28T10:43:05.471Z</time></trkpt><trkpt lat="43.6192083" lon="11.49627"><ele>123.66666666666666</ele><time>2026-03-28T10:43:06.471Z</time></trkpt><trkpt lat="43.6191217" lon="11.4962817"><ele>123.33333333333333</ele><time>2026-03-28T10:43:07.471Z</time></trkpt><trkpt lat="43.6190367" lon="11.4962917"><ele>123.0</ele><time>2026-03-28T10:43:08.472Z</time></trkpt><trkpt lat="43.6189483" lon="11.4963033"><ele>123.33333333333333</ele><time>2026-03-28T10:43:09.474Z</time></trkpt><trkpt lat="43.6188617" lon="11.496315"><ele>123.66666666666666</ele><time>2026-03-28T10:43:10.471Z</time></trkpt><trkpt lat="43.6187733" lon="11.4963283"><ele>124.0</ele><time>2026-03-28T10:43:11.471Z</time></trkpt><trkpt lat="43.618685" lon="11.49634"><ele>124.33333333333333</ele><time>2026-03-28T10:43:12.468Z</time></trkpt><trkpt lat="43.6185933" lon="11.4963533"><ele>124.66666666666666</ele><time>2026-03-28T10:43:13.473Z</time></trkpt><trkpt lat="43.618505" lon="11.4963717"><ele>125.0</ele><time>2026-03-28T10:43:14.472Z</time></trkpt><trkpt lat="43.618415" lon="11.4964"><ele>125.0</ele><time>2026-03-28T10:43:15.471Z</time></trkpt><trkpt lat="43.6183217" lon="11.49643"><ele>125.0</ele><time>2026-03-28T10:43:16.472Z</time></trkpt><trkpt lat="43.6182283" lon="11.4964633"><ele>125.0</ele><time>2026-03-28T10:43:17.471Z</time></trkpt><trkpt lat="43.61814" lon="11.4965"><ele>125.0</ele><time>2026-03-28T10:43:18.471Z</time></trkpt><trkpt lat="43.6180567" lon="11.4965417"><ele>125.0</ele><time>2026-03-28T10:43:19.472Z</time></trkpt><trkpt lat="43.61797" lon="11.4965883"><ele>125.0</ele><time>2026-03-28T10:43:20.474Z</time></trkpt><trkpt lat="43.6178867" lon="11.49664"><ele>125.0</ele><time>2026-03-28T10:43:21.471Z</time></trkpt><trkpt lat="43.6178017" lon="11.4966967"><ele>125.0</ele><time>2026-03-28T10:43:22.471Z</time></trkpt><trkpt lat="43.617715" lon="11.4967633"><ele>125.0</ele><time>2026-03-28T10:43:23.471Z</time></trkpt><trkpt lat="43.6176317" lon="11.496835"><ele>125.0</ele><time>2026-03-28T10:43:24.471Z</time></trkpt><trkpt lat="43.6175483" lon="11.49691"><ele>125.2</ele><time>2026-03-28T10:43:25.472Z</time></trkpt><trkpt lat="43.6174717" lon="11.4969867"><ele>125.4</ele><time>2026-03-28T10:43:26.472Z</time></trkpt><trkpt lat="43.6173933" lon="11.4970667"><ele>125.6</ele><time>2026-03-28T10:43:27.473Z</time></trkpt><trkpt lat="43.6173183" lon="11.4971483"><ele>125.8</ele><time>2026-03-28T10:43:28.47Z</time></trkpt><trkpt lat="43.6172433" lon="11.497235"><ele>126.0</ele><time>2026-03-28T10:43:29.47Z</time></trkpt><trkpt lat="43.61717" lon="11.49732"><ele>126.0</ele><time>2026-03-28T10:43:30.471Z</time></trkpt><trkpt lat="43.6170967" lon="11.4974083"><ele>126.0</ele><time>2026-03-28T10:43:31.469Z</time></trkpt><trkpt lat="43.6170233" lon="11.4974967"><ele>126.0</ele><time>2026-03-28T10:43:32.469Z</time></trkpt><trkpt lat="43.6169533" lon="11.4975833"><ele>126.0</ele><time>2026-03-28T10:43:33.468Z</time></trkpt><trkpt lat="43.6168817" lon="11.4976683"><ele>126.0</ele><time>2026-03-28T10:43:34.469Z</time></trkpt><trkpt lat="43.61681" lon="11.4977533"><ele>125.8</ele><time>2026-03-28T10:43:35.471Z</time></trkpt><trkpt lat="43.6167367" lon="11.4978383"><ele>125.6</ele><time>2026-03-28T10:43:36.47Z</time></trkpt><trkpt lat="43.6166633" lon="11.4979233"><ele>125.4</ele><time>2026-03-28T10:43:37.47Z</time></trkpt><trkpt lat="43.6165917" lon="11.4980083"><ele>125.2</ele><time>2026-03-28T10:43:38.472Z</time></trkpt><trkpt lat="43.6165183" lon="11.4980933"><ele>125.0</ele><time>2026-03-28T10:43:39.47Z</time></trkpt><trkpt lat="43.616445" lon="11.49818"><ele>125.0</ele><time>2026-03-28T10:43:40.471Z</time></trkpt><trkpt lat="43.6163733" lon="11.498265"><ele>125.0</ele><time>2026-03-28T10:43:41.47Z</time></trkpt><trkpt lat="43.6163" lon="11.4983517"><ele>125.0</ele><time>2026-03-28T10:43:42.471Z</time></trkpt><trkpt lat="43.616225" lon="11.4984367"><ele>125.0</ele><time>2026-03-28T10:43:43.469Z</time></trkpt><trkpt lat="43.6161517" lon="11.4985233"><ele>125.0</ele><time>2026-03-28T10:43:44.47Z</time></trkpt><trkpt lat="43.61608" lon="11.49861"><ele>125.0</ele><time>2026-03-28T10:43:45.47Z</time></trkpt><trkpt lat="43.616005" lon="11.4986933"><ele>125.0</ele><time>2026-03-28T10:43:46.473Z</time></trkpt><trkpt lat="43.6159283" lon="11.49878"><ele>125.0</ele><time>2026-03-28T10:43:47.47Z</time></trkpt><trkpt lat="43.6158517" lon="11.498865"><ele>125.0</ele><time>2026-03-28T10:43:48.47Z</time></trkpt><trkpt lat="43.61578" lon="11.4989483"><ele>125.0</ele><time>2026-03-28T10:43:49.471Z</time></trkpt><trkpt lat="43.61571" lon="11.4990333"><ele>125.0</ele><time>2026-03-28T10:43:50.472Z</time></trkpt><trkpt lat="43.6156383" lon="11.4991183"><ele>125.0</ele><time>2026-03-28T10:43:51.469Z</time></trkpt><trkpt lat="43.6155667" lon="11.4992033"><ele>125.0</ele><time>2026-03-28T10:43:52.471Z</time></trkpt><trkpt lat="43.6154983" lon="11.49929"><ele>125.0</ele><time>2026-03-28T10:43:53.471Z</time></trkpt><trkpt lat="43.6154283" lon="11.4993767"><ele>125.0</ele><time>2026-03-28T10:43:54.47Z</time></trkpt><trkpt lat="43.6153633" lon="11.4994667"><ele>124.99999999999999</ele><time>2026-03-28T10:43:55.471Z</time></trkpt><trkpt lat="43.6153033" lon="11.4995583"><ele>125.0</ele><time>2026-03-28T10:43:56.471Z</time></trkpt><trkpt lat="43.6152483" lon="11.4996517"><ele>125.0</ele><time>2026-03-28T10:43:57.47Z</time></trkpt><trkpt lat="43.615195" lon="11.4997467"><ele>125.0</ele><time>2026-03-28T10:43:58.471Z</time></trkpt><trkpt lat="43.615145" lon="11.4998433"><ele>124.99999999999999</ele><time>2026-03-28T10:43:59.472Z</time></trkpt><trkpt lat="43.6151017" lon="11.4999433"><ele>125.0</ele><time>2026-03-28T10:44:00.472Z</time></trkpt><trkpt lat="43.6150533" lon="11.5000417"><ele>124.99999999999999</ele><time>2026-03-28T10:44:01.469Z</time></trkpt><trkpt lat="43.6150067" lon="11.5001417"><ele>125.0</ele><time>2026-03-28T10:44:02.471Z</time></trkpt><trkpt lat="43.6149617" lon="11.5002417"><ele>125.0</ele><time>2026-03-28T10:44:03.47Z</time></trkpt><trkpt lat="43.61492" lon="11.5003467"><ele>125.0</ele><time>2026-03-28T10:44:04.472Z</time></trkpt><trkpt lat="43.6148883" lon="11.5004533"><ele>124.99999999999999</ele><time>2026-03-28T10:44:05.471Z</time></trkpt><trkpt lat="43.6148633" lon="11.5005617"><ele>125.0</ele><time>2026-03-28T10:44:06.47Z</time></trkpt><trkpt lat="43.6148417" lon="11.5006733"><ele>125.16666666666666</ele><time>2026-03-28T10:44:07.471Z</time></trkpt><trkpt lat="43.61483" lon="11.500785"><ele>125.33333333333333</ele><time>2026-03-28T10:44:08.473Z</time></trkpt><trkpt lat="43.6148183" lon="11.5008967"><ele>125.5</ele><time>2026-03-28T10:44:09.471Z</time></trkpt><trkpt lat="43.6148083" lon="11.50101"><ele>125.66666666666666</ele><time>2026-03-28T10:44:10.471Z</time></trkpt><trkpt lat="43.6148017" lon="11.501125"><ele>125.83333333333333</ele><time>2026-03-28T10:44:11.471Z</time></trkpt><trkpt lat="43.6147983" lon="11.5012367"><ele>126.0</ele><time>2026-03-28T10:44:12.47Z</time></trkpt><trkpt lat="43.614795" lon="11.50135"><ele>126.16666666666667</ele><time>2026-03-28T10:44:13.471Z</time></trkpt><trkpt lat="43.6147983" lon="11.5014633"><ele>126.33333333333334</ele><time>2026-03-28T10:44:14.472Z</time></trkpt><trkpt lat="43.6148033" lon="11.5015767"><ele>126.5</ele><time>2026-03-28T10:44:15.47Z</time></trkpt><trkpt lat="43.61481" lon="11.5016867"><ele>126.66666666666667</ele><time>2026-03-28T10:44:16.47Z</time></trkpt><trkpt lat="43.6148183" lon="11.501795"><ele>126.83333333333334</ele><time>2026-03-28T10:44:17.469Z</time></trkpt><trkpt lat="43.6148267" lon="11.5019033"><ele>127.0</ele><time>2026-03-28T10:44:18.473Z</time></trkpt><trkpt lat="43.6148367" lon="11.5020133"><ele>127.00000000000001</ele><time>2026-03-28T10:44:19.47Z</time></trkpt><trkpt lat="43.6148483" lon="11.50212"><ele>127.0</ele><time>2026-03-28T10:44:20.47Z</time></trkpt><trkpt lat="43.6148633" lon="11.5022283"><ele>127.0</ele><time>2026-03-28T10:44:21.471Z</time></trkpt><trkpt lat="43.6148817" lon="11.5023367"><ele>127.0</ele><time>2026-03-28T10:44:22.47Z</time></trkpt><trkpt lat="43.6149033" lon="11.5024433"><ele>127.00000000000001</ele><time>2026-03-28T10:44:23.47Z</time></trkpt><trkpt lat="43.6149267" lon="11.5025483"><ele>127.0</ele><time>2026-03-28T10:44:24.47Z</time></trkpt><trkpt lat="43.614955" lon="11.5026517"><ele>127.00000000000001</ele><time>2026-03-28T10:44:25.471Z</time></trkpt><trkpt lat="43.6149883" lon="11.5027517"><ele>127.0</ele><time>2026-03-28T10:44:26.47Z</time></trkpt><trkpt lat="43.6150233" lon="11.50285"><ele>127.0</ele><time>2026-03-28T10:44:27.472Z</time></trkpt><trkpt lat="43.6150617" lon="11.502945"><ele>127.0</ele><time>2026-03-28T10:44:28.472Z</time></trkpt><trkpt lat="43.6151" lon="11.5030417"><ele>127.00000000000001</ele><time>2026-03-28T10:44:29.469Z</time></trkpt><trkpt lat="43.6151417" lon="11.5031333"><ele>127.0</ele><time>2026-03-28T10:44:30.47Z</time></trkpt><trkpt lat="43.6151833" lon="11.5032233"><ele>127.33333333333334</ele><time>2026-03-28T10:44:31.472Z</time></trkpt><trkpt lat="43.6152283" lon="11.5033133"><ele>127.66666666666667</ele><time>2026-03-28T10:44:32.473Z</time></trkpt><trkpt lat="43.6152767" lon="11.5033983"><ele>128.0</ele><time>2026-03-28T10:44:33.471Z</time></trkpt><trkpt lat="43.615325" lon="11.5034867"><ele>128.33333333333334</ele><time>2026-03-28T10:44:34.472Z</time></trkpt><trkpt lat="43.615375" lon="11.5035733"><ele>128.66666666666666</ele><time>2026-03-28T10:44:35.47Z</time></trkpt><trkpt lat="43.61543" lon="11.5036567"><ele>129.0</ele><time>2026-03-28T10:44:36.472Z</time></trkpt><trkpt lat="43.6154883" lon="11.5037383"><ele>128.83333333333334</ele><time>2026-03-28T10:44:37.471Z</time></trkpt><trkpt lat="43.6155467" lon="11.5038133"><ele>128.66666666666666</ele><time>2026-03-28T10:44:38.472Z</time></trkpt><trkpt lat="43.6156067" lon="11.5038817"><ele>128.5</ele><time>2026-03-28T10:44:39.469Z</time></trkpt><trkpt lat="43.6156683" lon="11.5039467"><ele>128.33333333333331</ele><time>2026-03-28T10:44:40.471Z</time></trkpt><trkpt lat="43.61573" lon="11.5040133"><ele>128.16666666666666</ele><time>2026-03-28T10:44:41.471Z</time></trkpt><trkpt lat="43.615795" lon="11.5040733"><ele>128.0</ele><time>2026-03-28T10:44:42.472Z</time></trkpt><trkpt lat="43.61586" lon="11.5041233"><ele>127.99999999999999</ele><time>2026-03-28T10:44:43.472Z</time></trkpt><trkpt lat="43.61593" lon="11.5041783"><ele>128.0</ele><time>2026-03-28T10:44:44.471Z</time></trkpt><trkpt lat="43.616" lon="11.5042317"><ele>128.0</ele><time>2026-03-28T10:44:45.47Z</time></trkpt><trkpt lat="43.6160733" lon="11.5042833"><ele>128.0</ele><time>2026-03-28T10:44:46.47Z</time></trkpt><trkpt lat="43.616145" lon="11.5043267"><ele>127.99999999999999</ele><time>2026-03-28T10:44:47.471Z</time></trkpt><trkpt lat="43.6162167" lon="11.504365"><ele>128.0</ele><time>2026-03-28T10:44:48.471Z</time></trkpt><trkpt lat="43.6162883" lon="11.5044083"><ele>128.16666666666666</ele><time>2026-03-28T10:44:49.469Z</time></trkpt><trkpt lat="43.6163617" lon="11.5044467"><ele>128.33333333333331</ele><time>2026-03-28T10:44:50.472Z</time></trkpt><trkpt lat="43.6164333" lon="11.5044833"><ele>128.5</ele><time>2026-03-28T10:44:51.469Z</time></trkpt><trkpt lat="43.616505" lon="11.504515"><ele>128.66666666666666</ele><time>2026-03-28T10:44:52.471Z</time></trkpt><trkpt lat="43.6165767" lon="11.5045433"><ele>128.83333333333334</ele><time>2026-03-28T10:44:53.472Z</time></trkpt><trkpt lat="43.6166483" lon="11.5045733"><ele>129.0</ele><time>2026-03-28T10:44:54.472Z</time></trkpt><trkpt lat="43.6167183" lon="11.5045983"><ele>128.99999999999997</ele><time>2026-03-28T10:44:55.471Z</time></trkpt><trkpt lat="43.6167883" lon="11.504625"><ele>129.0</ele><time>2026-03-28T10:44:56.471Z</time></trkpt><trkpt lat="43.6168583" lon="11.5046617"><ele>129.0</ele><time>2026-03-28T10:44:57.47Z</time></trkpt><trkpt lat="43.6169267" lon="11.5046967"><ele>129.0</ele><time>2026-03-28T10:44:58.469Z</time></trkpt><trkpt lat="43.6169967" lon="11.5047317"><ele>129.0</ele><time>2026-03-28T10:44:59.471Z</time></trkpt><trkpt lat="43.6170667" lon="11.5047633"><ele>128.99999999999997</ele><time>2026-03-28T10:45:00.47Z</time></trkpt><trkpt lat="43.6171333" lon="11.5047967"><ele>129.0</ele><time>2026-03-28T10:45:01.47Z</time></trkpt><trkpt lat="43.6172033" lon="11.50483"><ele>129.57142857142856</ele><time>2026-03-28T10:45:02.471Z</time></trkpt><trkpt lat="43.6172717" lon="11.5048617"><ele>130.14285714285714</ele><time>2026-03-28T10:45:03.47Z</time></trkpt><trkpt lat="43.61734" lon="11.5048917"><ele>130.71428571428572</ele><time>2026-03-28T10:45:04.471Z</time></trkpt><trkpt lat="43.6174067" lon="11.5049233"><ele>131.28571428571428</ele><time>2026-03-28T10:45:05.469Z</time></trkpt><trkpt lat="43.6174717" lon="11.504955"><ele>131.85714285714286</ele><time>2026-03-28T10:45:06.469Z</time></trkpt><trkpt lat="43.6175383" lon="11.50499"><ele>132.42857142857142</ele><time>2026-03-28T10:45:07.469Z</time></trkpt><trkpt lat="43.6176033" lon="11.5050233"><ele>133.0</ele><time>2026-03-28T10:45:08.469Z</time></trkpt><trkpt lat="43.6176667" lon="11.5050567"><ele>133.0</ele><time>2026-03-28T10:45:09.468Z</time></trkpt><trkpt lat="43.61773" lon="11.5050833"><ele>133.0</ele><time>2026-03-28T10:45:10.469Z</time></trkpt><trkpt lat="43.6177917" lon="11.5051133"><ele>133.0</ele><time>2026-03-28T10:45:11.473Z</time></trkpt><trkpt lat="43.6178567" lon="11.50514"><ele>133.0</ele><time>2026-03-28T10:45:12.472Z</time></trkpt><trkpt lat="43.61792" lon="11.505165"><ele>133.0</ele><time>2026-03-28T10:45:13.469Z</time></trkpt><trkpt lat="43.6179817" lon="11.505195"><ele>133.0</ele><time>2026-03-28T10:45:14.471Z</time></trkpt><trkpt lat="43.6180467" lon="11.5052267"><ele>133.0</ele><time>2026-03-28T10:45:15.469Z</time></trkpt><trkpt lat="43.61811" lon="11.5052583"><ele>132.71428571428572</ele><time>2026-03-28T10:45:16.472Z</time></trkpt><trkpt lat="43.6181733" lon="11.5052883"><ele>132.42857142857144</ele><time>2026-03-28T10:45:17.472Z</time></trkpt><trkpt lat="43.6182367" lon="11.5053133"><ele>132.14285714285714</ele><time>2026-03-28T10:45:18.471Z</time></trkpt><trkpt lat="43.6183" lon="11.50534"><ele>131.85714285714286</ele><time>2026-03-28T10:45:19.47Z</time></trkpt><trkpt lat="43.618365" lon="11.5053667"><ele>131.57142857142858</ele><time>2026-03-28T10:45:20.47Z</time></trkpt><trkpt lat="43.6184283" lon="11.5053917"><ele>131.28571428571428</ele><time>2026-03-28T10:45:21.472Z</time></trkpt><trkpt lat="43.6184933" lon="11.5054117"><ele>131.0</ele><time>2026-03-28T10:45:22.471Z</time></trkpt><trkpt lat="43.6186167" lon="11.50544"><ele>131.0</ele><time>2026-03-28T10:45:24.471Z</time></trkpt><trkpt lat="43.6187417" lon="11.5054617"><ele>131.0</ele><time>2026-03-28T10:45:26.471Z</time></trkpt><trkpt lat="43.6188083" lon="11.5054717"><ele>131.0</ele><time>2026-03-28T10:45:27.474Z</time></trkpt><trkpt lat="43.618875" lon="11.50548"><ele>131.0</ele><time>2026-03-28T10:45:28.468Z</time></trkpt><trkpt lat="43.6189417" lon="11.5054867"><ele>131.0</ele><time>2026-03-28T10:45:29.471Z</time></trkpt><trkpt lat="43.61901" lon="11.5054867"><ele>131.0</ele><time>2026-03-28T10:45:30.472Z</time></trkpt><trkpt lat="43.6190767" lon="11.5054867"><ele>131.0</ele><time>2026-03-28T10:45:31.471Z</time></trkpt><trkpt lat="43.619145" lon="11.5054883"><ele>131.0</ele><time>2026-03-28T10:45:32.472Z</time></trkpt><trkpt lat="43.6192117" lon="11.505485"><ele>131.0</ele><time>2026-03-28T10:45:33.471Z</time></trkpt><trkpt lat="43.6192767" lon="11.5054833"><ele>131.0</ele><time>2026-03-28T10:45:34.472Z</time></trkpt><trkpt lat="43.61934" lon="11.5054783"><ele>131.0</ele><time>2026-03-28T10:45:35.472Z</time></trkpt><trkpt lat="43.619405" lon="11.505475"><ele>131.0</ele><time>2026-03-28T10:45:36.47Z</time></trkpt><trkpt lat="43.6195333" lon="11.5054683"><ele>131.14285714285714</ele><time>2026-03-28T10:45:38.472Z</time></trkpt><trkpt lat="43.6196" lon="11.505465"><ele>131.2857142857143</ele><time>2026-03-28T10:45:39.471Z</time></trkpt><trkpt lat="43.6196667" lon="11.5054617"><ele>131.42857142857144</ele><time>2026-03-28T10:45:40.471Z</time></trkpt><trkpt lat="43.619735" lon="11.5054583"><ele>131.57142857142858</ele><time>2026-03-28T10:45:41.471Z</time></trkpt><trkpt lat="43.6198033" lon="11.5054583"><ele>131.71428571428572</ele><time>2026-03-28T10:45:42.471Z</time></trkpt><trkpt lat="43.6198717" lon="11.5054583"><ele>131.85714285714286</ele><time>2026-03-28T10:45:43.471Z</time></trkpt><trkpt lat="43.61994" lon="11.5054617"><ele>132.0</ele><time>2026-03-28T10:45:44.472Z</time></trkpt><trkpt lat="43.620005" lon="11.5054617"><ele>132.0</ele><time>2026-03-28T10:45:45.471Z</time></trkpt><trkpt lat="43.6200733" lon="11.5054667"><ele>132.0</ele><time>2026-03-28T10:45:46.472Z</time></trkpt><trkpt lat="43.62014" lon="11.505475"><ele>132.0</ele><time>2026-03-28T10:45:47.47Z</time></trkpt><trkpt lat="43.62021" lon="11.5054833"><ele>132.0</ele><time>2026-03-28T10:45:48.47Z</time></trkpt><trkpt lat="43.6202767" lon="11.505495"><ele>132.0</ele><time>2026-03-28T10:45:49.47Z</time></trkpt><trkpt lat="43.620345" lon="11.5055083"><ele>132.0</ele><time>2026-03-28T10:45:50.472Z</time></trkpt><trkpt lat="43.6204133" lon="11.5055283"><ele>132.0</ele><time>2026-03-28T10:45:51.47Z</time></trkpt><trkpt lat="43.6204817" lon="11.50555"><ele>132.16666666666666</ele><time>2026-03-28T10:45:52.47Z</time></trkpt><trkpt lat="43.6205483" lon="11.505565"><ele>132.33333333333334</ele><time>2026-03-28T10:45:53.469Z</time></trkpt><trkpt lat="43.6206117" lon="11.5055833"><ele>132.5</ele><time>2026-03-28T10:45:54.472Z</time></trkpt><trkpt lat="43.620675" lon="11.5056067"><ele>132.66666666666669</ele><time>2026-03-28T10:45:55.471Z</time></trkpt><trkpt lat="43.6207367" lon="11.5056333"><ele>132.83333333333334</ele><time>2026-03-28T10:45:56.471Z</time></trkpt><trkpt lat="43.6208583" lon="11.5056883"><ele>133.0</ele><time>2026-03-28T10:45:58.47Z</time></trkpt><trkpt lat="43.62092" lon="11.5057233"><ele>133.0</ele><time>2026-03-28T10:45:59.472Z</time></trkpt><trkpt lat="43.6209783" lon="11.50576"><ele>133.0</ele><time>2026-03-28T10:46:00.472Z</time></trkpt><trkpt lat="43.6210367" lon="11.5058"><ele>133.0</ele><time>2026-03-28T10:46:01.471Z</time></trkpt><trkpt lat="43.6210967" lon="11.5058433"><ele>133.0</ele><time>2026-03-28T10:46:02.471Z</time></trkpt><trkpt lat="43.6211567" lon="11.5058867"><ele>133.0</ele><time>2026-03-28T10:46:03.47Z</time></trkpt><trkpt lat="43.6212183" lon="11.5059283"><ele>133.0</ele><time>2026-03-28T10:46:04.471Z</time></trkpt><trkpt lat="43.6212783" lon="11.5059717"><ele>133.0</ele><time>2026-03-28T10:46:05.472Z</time></trkpt><trkpt lat="43.6213383" lon="11.5060083"><ele>133.0</ele><time>2026-03-28T10:46:06.471Z</time></trkpt><trkpt lat="43.6213983" lon="11.5060483"><ele>133.0</ele><time>2026-03-28T10:46:07.472Z</time></trkpt><trkpt lat="43.62146" lon="11.5060917"><ele>133.0</ele><time>2026-03-28T10:46:08.473Z</time></trkpt><trkpt lat="43.6215183" lon="11.5061333"><ele>133.0</ele><time>2026-03-28T10:46:09.471Z</time></trkpt><trkpt lat="43.6215767" lon="11.5061717"><ele>133.0</ele><time>2026-03-28T10:46:10.47Z</time></trkpt><trkpt lat="43.6216367" lon="11.5062117"><ele>133.0</ele><time>2026-03-28T10:46:11.47Z</time></trkpt><trkpt lat="43.6216983" lon="11.5062567"><ele>133.0</ele><time>2026-03-28T10:46:12.474Z</time></trkpt><trkpt lat="43.6217617" lon="11.5063017"><ele>133.0</ele><time>2026-03-28T10:46:13.47Z</time></trkpt><trkpt lat="43.6218233" lon="11.506345"><ele>133.0</ele><time>2026-03-28T10:46:14.471Z</time></trkpt><trkpt lat="43.6218867" lon="11.50639"><ele>133.0</ele><time>2026-03-28T10:46:15.467Z</time></trkpt><trkpt lat="43.62195" lon="11.5064317"><ele>133.0</ele><time>2026-03-28T10:46:16.469Z</time></trkpt><trkpt lat="43.6220117" lon="11.5064783"><ele>133.0</ele><time>2026-03-28T10:46:17.468Z</time></trkpt><trkpt lat="43.6220733" lon="11.5065283"><ele>133.0</ele><time>2026-03-28T10:46:18.468Z</time></trkpt><trkpt lat="43.622135" lon="11.5065783"><ele>133.0</ele><time>2026-03-28T10:46:19.468Z</time></trkpt><trkpt lat="43.6221967" lon="11.5066233"><ele>133.14285714285714</ele><time>2026-03-28T10:46:20.468Z</time></trkpt><trkpt lat="43.62226" lon="11.5066733"><ele>133.28571428571428</ele><time>2026-03-28T10:46:21.468Z</time></trkpt><trkpt lat="43.622325" lon="11.5067183"><ele>133.42857142857144</ele><time>2026-03-28T10:46:22.469Z</time></trkpt><trkpt lat="43.6223867" lon="11.5067583"><ele>133.57142857142856</ele><time>2026-03-28T10:46:23.47Z</time></trkpt><trkpt lat="43.6224483" lon="11.5068"><ele>133.71428571428572</ele><time>2026-03-28T10:46:24.471Z</time></trkpt><trkpt lat="43.6225083" lon="11.50684"><ele>133.85714285714286</ele><time>2026-03-28T10:46:25.47Z</time></trkpt><trkpt lat="43.6225683" lon="11.50688"><ele>134.0</ele><time>2026-03-28T10:46:26.471Z</time></trkpt><trkpt lat="43.6226283" lon="11.5069233"><ele>134.0</ele><time>2026-03-28T10:46:27.472Z</time></trkpt><trkpt lat="43.6226917" lon="11.5069683"><ele>134.0</ele><time>2026-03-28T10:46:28.473Z</time></trkpt><trkpt lat="43.6227533" lon="11.5070167"><ele>134.0</ele><time>2026-03-28T10:46:29.47Z</time></trkpt><trkpt lat="43.6228167" lon="11.5070617"><ele>134.0</ele><time>2026-03-28T10:46:30.47Z</time></trkpt><trkpt lat="43.6228783" lon="11.5071083"><ele>134.0</ele><time>2026-03-28T10:46:31.47Z</time></trkpt><trkpt lat="43.62294" lon="11.5071533"><ele>134.0</ele><time>2026-03-28T10:46:32.471Z</time></trkpt><trkpt lat="43.6230017" lon="11.5072"><ele>134.0</ele><time>2026-03-28T10:46:33.469Z</time></trkpt><trkpt lat="43.62306" lon="11.5072517"><ele>133.85714285714286</ele><time>2026-03-28T10:46:34.471Z</time></trkpt><trkpt lat="43.6231183" lon="11.5072933"><ele>133.71428571428572</ele><time>2026-03-28T10:46:35.471Z</time></trkpt><trkpt lat="43.623175" lon="11.5073417"><ele>133.57142857142856</ele><time>2026-03-28T10:46:36.47Z</time></trkpt><trkpt lat="43.62323" lon="11.507395"><ele>133.42857142857144</ele><time>2026-03-28T10:46:37.471Z</time></trkpt><trkpt lat="43.6232867" lon="11.5074517"><ele>133.28571428571428</ele><time>2026-03-28T10:46:38.473Z</time></trkpt><trkpt lat="43.6233383" lon="11.5075117"><ele>133.14285714285714</ele><time>2026-03-28T10:46:39.473Z</time></trkpt><trkpt lat="43.6233917" lon="11.5075767"><ele>133.0</ele><time>2026-03-28T10:46:40.472Z</time></trkpt><trkpt lat="43.6234433" lon="11.5076467"><ele>133.0</ele><time>2026-03-28T10:46:41.47Z</time></trkpt><trkpt lat="43.6234917" lon="11.507715"><ele>133.0</ele><time>2026-03-28T10:46:42.47Z</time></trkpt><trkpt lat="43.62354" lon="11.5077867"><ele>133.0</ele><time>2026-03-28T10:46:43.471Z</time></trkpt><trkpt lat="43.623585" lon="11.5078583"><ele>133.0</ele><time>2026-03-28T10:46:44.472Z</time></trkpt><trkpt lat="43.62363" lon="11.5079317"><ele>133.0</ele><time>2026-03-28T10:46:45.472Z</time></trkpt><trkpt lat="43.6236717" lon="11.5080067"><ele>133.0</ele><time>2026-03-28T10:46:46.471Z</time></trkpt><trkpt lat="43.62371" lon="11.50808"><ele>133.0</ele><time>2026-03-28T10:46:47.47Z</time></trkpt><trkpt lat="43.6237483" lon="11.5081567"><ele>133.28571428571428</ele><time>2026-03-28T10:46:48.471Z</time></trkpt><trkpt lat="43.623785" lon="11.508235"><ele>133.57142857142856</ele><time>2026-03-28T10:46:49.471Z</time></trkpt><trkpt lat="43.62382" lon="11.5083133"><ele>133.85714285714286</ele><time>2026-03-28T10:46:50.469Z</time></trkpt><trkpt lat="43.623855" lon="11.5083917"><ele>134.14285714285714</ele><time>2026-03-28T10:46:51.472Z</time></trkpt><trkpt lat="43.62389" lon="11.5084717"><ele>134.42857142857142</ele><time>2026-03-28T10:46:52.472Z</time></trkpt><trkpt lat="43.6239233" lon="11.5085583"><ele>134.71428571428572</ele><time>2026-03-28T10:46:53.471Z</time></trkpt><trkpt lat="43.623955" lon="11.5086483"><ele>135.0</ele><time>2026-03-28T10:46:54.471Z</time></trkpt><trkpt lat="43.6239817" lon="11.50874"><ele>135.14285714285714</ele><time>2026-03-28T10:46:55.469Z</time></trkpt><trkpt lat="43.6240067" lon="11.508835"><ele>135.28571428571428</ele><time>2026-03-28T10:46:56.473Z</time></trkpt><trkpt lat="43.6240283" lon="11.5089267"><ele>135.42857142857142</ele><time>2026-03-28T10:46:57.474Z</time></trkpt><trkpt lat="43.6240533" lon="11.5090183"><ele>135.57142857142856</ele><time>2026-03-28T10:46:58.47Z</time></trkpt><trkpt lat="43.6240767" lon="11.5091083"><ele>135.71428571428572</ele><time>2026-03-28T10:46:59.471Z</time></trkpt><trkpt lat="43.6241" lon="11.509195"><ele>135.85714285714283</ele><time>2026-03-28T10:47:00.471Z</time></trkpt><trkpt lat="43.6241233" lon="11.509285"><ele>136.0</ele><time>2026-03-28T10:47:01.473Z</time></trkpt><trkpt lat="43.6241483" lon="11.509375"><ele>135.99999999999997</ele><time>2026-03-28T10:47:02.472Z</time></trkpt><trkpt lat="43.62417" lon="11.509465"><ele>136.0</ele><time>2026-03-28T10:47:03.473Z</time></trkpt><trkpt lat="43.624195" lon="11.5095583"><ele>136.0</ele><time>2026-03-28T10:47:04.47Z</time></trkpt><trkpt lat="43.6242183" lon="11.50965"><ele>136.0</ele><time>2026-03-28T10:47:05.471Z</time></trkpt><trkpt lat="43.6242433" lon="11.5097417"><ele>136.0</ele><time>2026-03-28T10:47:06.472Z</time></trkpt><trkpt lat="43.6242667" lon="11.5098367"><ele>135.99999999999997</ele><time>2026-03-28T10:47:07.473Z</time></trkpt><trkpt lat="43.62429" lon="11.5099317"><ele>136.0</ele><time>2026-03-28T10:47:08.472Z</time></trkpt><trkpt lat="43.6243133" lon="11.5100283"><ele>136.14285714285714</ele><time>2026-03-28T10:47:09.471Z</time></trkpt><trkpt lat="43.6243383" lon="11.510125"><ele>136.28571428571428</ele><time>2026-03-28T10:47:10.472Z</time></trkpt><trkpt lat="43.6243633" lon="11.51022"><ele>136.42857142857144</ele><time>2026-03-28T10:47:11.472Z</time></trkpt><trkpt lat="43.6243867" lon="11.5103117"><ele>136.57142857142856</ele><time>2026-03-28T10:47:12.471Z</time></trkpt><trkpt lat="43.6244117" lon="11.510405"><ele>136.71428571428572</ele><time>2026-03-28T10:47:13.471Z</time></trkpt><trkpt lat="43.6244367" lon="11.5104917"><ele>136.85714285714286</ele><time>2026-03-28T10:47:14.471Z</time></trkpt><trkpt lat="43.6244583" lon="11.5105817"><ele>137.0</ele><time>2026-03-28T10:47:15.469Z</time></trkpt><trkpt lat="43.6244767" lon="11.51067"><ele>137.16666666666666</ele><time>2026-03-28T10:47:16.471Z</time></trkpt><trkpt lat="43.6244983" lon="11.5107517"><ele>137.33333333333331</ele><time>2026-03-28T10:47:17.471Z</time></trkpt><trkpt lat="43.624545" lon="11.5109033"><ele>137.5</ele><time>2026-03-28T10:47:19.469Z</time></trkpt><trkpt lat="43.6245933" lon="11.5110617"><ele>137.66666666666666</ele><time>2026-03-28T10:47:21.472Z</time></trkpt><trkpt lat="43.6246233" lon="11.511145"><ele>137.83333333333334</ele><time>2026-03-28T10:47:22.471Z</time></trkpt><trkpt lat="43.6246567" lon="11.51123"><ele>138.0</ele><time>2026-03-28T10:47:23.47Z</time></trkpt><trkpt lat="43.6246933" lon="11.511315"><ele>138.0</ele><time>2026-03-28T10:47:24.469Z</time></trkpt><trkpt lat="43.624735" lon="11.5113967"><ele>138.0</ele><time>2026-03-28T10:47:25.468Z</time></trkpt><trkpt lat="43.6247833" lon="11.5114683"><ele>138.0</ele><time>2026-03-28T10:47:26.47Z</time></trkpt><trkpt lat="43.6248367" lon="11.51153"><ele>138.0</ele><time>2026-03-28T10:47:27.469Z</time></trkpt><trkpt lat="43.6248933" lon="11.511595"><ele>138.0</ele><time>2026-03-28T10:47:28.469Z</time></trkpt><trkpt lat="43.6249517" lon="11.5116483"><ele>138.0</ele><time>2026-03-28T10:47:29.469Z</time></trkpt><trkpt lat="43.62501" lon="11.5117067"><ele>138.0</ele><time>2026-03-28T10:47:30.469Z</time></trkpt><trkpt lat="43.6250683" lon="11.511765"><ele>138.0</ele><time>2026-03-28T10:47:31.469Z</time></trkpt><trkpt lat="43.6251267" lon="11.51182"><ele>138.0</ele><time>2026-03-28T10:47:32.469Z</time></trkpt><trkpt lat="43.625185" lon="11.5118733"><ele>138.0</ele><time>2026-03-28T10:47:33.469Z</time></trkpt><trkpt lat="43.6252433" lon="11.51193"><ele>138.0</ele><time>2026-03-28T10:47:34.469Z</time></trkpt><trkpt lat="43.6253033" lon="11.5119883"><ele>138.0</ele><time>2026-03-28T10:47:35.469Z</time></trkpt><trkpt lat="43.6253617" lon="11.5120467"><ele>138.0</ele><time>2026-03-28T10:47:36.469Z</time></trkpt><trkpt lat="43.6254167" lon="11.5120983"><ele>138.0</ele><time>2026-03-28T10:47:37.47Z</time></trkpt><trkpt lat="43.6254733" lon="11.51215"><ele>138.28571428571428</ele><time>2026-03-28T10:47:38.469Z</time></trkpt><trkpt lat="43.6255283" lon="11.5121967"><ele>138.57142857142858</ele><time>2026-03-28T10:47:39.468Z</time></trkpt><trkpt lat="43.625585" lon="11.5122433"><ele>138.85714285714286</ele><time>2026-03-28T10:47:40.47Z</time></trkpt><trkpt lat="43.6256417" lon="11.5122817"><ele>139.14285714285714</ele><time>2026-03-28T10:47:41.469Z</time></trkpt><trkpt lat="43.6256983" lon="11.5123233"><ele>139.42857142857144</ele><time>2026-03-28T10:47:42.468Z</time></trkpt><trkpt lat="43.6257583" lon="11.5123533"><ele>139.71428571428572</ele><time>2026-03-28T10:47:43.469Z</time></trkpt><trkpt lat="43.62582" lon="11.512375"><ele>140.0</ele><time>2026-03-28T10:47:44.468Z</time></trkpt><trkpt lat="43.6258817" lon="11.5124033"><ele>140.0</ele><time>2026-03-28T10:47:45.468Z</time></trkpt><trkpt lat="43.6259433" lon="11.51243"><ele>140.0</ele><time>2026-03-28T10:47:46.469Z</time></trkpt><trkpt lat="43.6260067" lon="11.5124617"><ele>140.0</ele><time>2026-03-28T10:47:47.469Z</time></trkpt><trkpt lat="43.6260717" lon="11.5124883"><ele>140.0</ele><time>2026-03-28T10:47:48.469Z</time></trkpt><trkpt lat="43.6261333" lon="11.51252"><ele>140.0</ele><time>2026-03-28T10:47:49.469Z</time></trkpt><trkpt lat="43.6261967" lon="11.5125483"><ele>140.0</ele><time>2026-03-28T10:47:50.469Z</time></trkpt><trkpt lat="43.6262617" lon="11.5125783"><ele>140.0</ele><time>2026-03-28T10:47:51.469Z</time></trkpt><trkpt lat="43.6263267" lon="11.5126017"><ele>140.125</ele><time>2026-03-28T10:47:52.468Z</time></trkpt><trkpt lat="43.6263883" lon="11.5126233"><ele>140.25</ele><time>2026-03-28T10:47:53.47Z</time></trkpt><trkpt lat="43.62645" lon="11.512645"><ele>140.375</ele><time>2026-03-28T10:47:54.47Z</time></trkpt><trkpt lat="43.6265117" lon="11.5126717"><ele>140.5</ele><time>2026-03-28T10:47:55.468Z</time></trkpt><trkpt lat="43.6265717" lon="11.5127017"><ele>140.625</ele><time>2026-03-28T10:47:56.468Z</time></trkpt><trkpt lat="43.6266283" lon="11.5127433"><ele>140.75</ele><time>2026-03-28T10:47:57.469Z</time></trkpt><trkpt lat="43.6266833" lon="11.5127883"><ele>140.875</ele><time>2026-03-28T10:47:58.47Z</time></trkpt><trkpt lat="43.6267367" lon="11.51284"><ele>141.0</ele><time>2026-03-28T10:47:59.47Z</time></trkpt><trkpt lat="43.6267883" lon="11.5128917"><ele>141.0</ele><time>2026-03-28T10:48:00.469Z</time></trkpt><trkpt lat="43.6269017" lon="11.51297"><ele>141.0</ele><time>2026-03-28T10:48:02.47Z</time></trkpt><trkpt lat="43.626965" lon="11.5129983"><ele>141.0</ele><time>2026-03-28T10:48:03.467Z</time></trkpt><trkpt lat="43.627085" lon="11.5130417"><ele>141.0</ele><time>2026-03-28T10:48:05.469Z</time></trkpt><trkpt lat="43.6271467" lon="11.5130667"><ele>141.0</ele><time>2026-03-28T10:48:06.469Z</time></trkpt><trkpt lat="43.62721" lon="11.5130883"><ele>141.0</ele><time>2026-03-28T10:48:07.47Z</time></trkpt><trkpt lat="43.6273317" lon="11.5131333"><ele>141.25</ele><time>2026-03-28T10:48:09.469Z</time></trkpt><trkpt lat="43.6274467" lon="11.5131883"><ele>141.5</ele><time>2026-03-28T10:48:11.469Z</time></trkpt><trkpt lat="43.627545" lon="11.5132783"><ele>141.75</ele><time>2026-03-28T10:48:13.469Z</time></trkpt><trkpt lat="43.6275983" lon="11.51342"><ele>142.0</ele><time>2026-03-28T10:48:15.469Z</time></trkpt><trkpt lat="43.62762" lon="11.51359"><ele>142.0</ele><time>2026-03-28T10:48:17.469Z</time></trkpt><trkpt lat="43.6276267" lon="11.5136783"><ele>142.0</ele><time>2026-03-28T10:48:18.469Z</time></trkpt><trkpt lat="43.6276267" lon="11.5137733"><ele>142.0</ele><time>2026-03-28T10:48:19.472Z</time></trkpt><trkpt lat="43.6276283" lon="11.51387"><ele>142.0</ele><time>2026-03-28T10:48:20.472Z</time></trkpt><trkpt lat="43.6276367" lon="11.5139617"><ele>142.0</ele><time>2026-03-28T10:48:21.472Z</time></trkpt><trkpt lat="43.627645" lon="11.5140567"><ele>142.0</ele><time>2026-03-28T10:48:22.469Z</time></trkpt><trkpt lat="43.627655" lon="11.5141483"><ele>142.0</ele><time>2026-03-28T10:48:23.469Z</time></trkpt><trkpt lat="43.6276617" lon="11.51424"><ele>142.5</ele><time>2026-03-28T10:48:24.469Z</time></trkpt><trkpt lat="43.62767" lon="11.5143317"><ele>143.0</ele><time>2026-03-28T10:48:25.469Z</time></trkpt><trkpt lat="43.62768" lon="11.5144217"><ele>143.5</ele><time>2026-03-28T10:48:26.47Z</time></trkpt><trkpt lat="43.62769" lon="11.5145083"><ele>144.0</ele><time>2026-03-28T10:48:27.469Z</time></trkpt><trkpt lat="43.6276983" lon="11.514595"><ele>144.5</ele><time>2026-03-28T10:48:28.469Z</time></trkpt><trkpt lat="43.6277083" lon="11.5147633"><ele>145.0</ele><time>2026-03-28T10:48:30.468Z</time></trkpt><trkpt lat="43.6277117" lon="11.514915"><ele>145.0</ele><time>2026-03-28T10:48:32.47Z</time></trkpt><trkpt lat="43.62772" lon="11.5150717"><ele>145.0</ele><time>2026-03-28T10:48:34.471Z</time></trkpt><trkpt lat="43.6277283" lon="11.5152333"><ele>145.0</ele><time>2026-03-28T10:48:36.469Z</time></trkpt><trkpt lat="43.6277433" lon="11.5154033"><ele>145.0</ele><time>2026-03-28T10:48:38.468Z</time></trkpt><trkpt lat="43.6277533" lon="11.51549"><ele>145.0</ele><time>2026-03-28T10:48:39.468Z</time></trkpt><trkpt lat="43.62776" lon="11.5155817"><ele>145.0</ele><time>2026-03-28T10:48:40.469Z</time></trkpt><trkpt lat="43.6277667" lon="11.515675"><ele>145.0</ele><time>2026-03-28T10:48:41.468Z</time></trkpt><trkpt lat="43.627775" lon="11.51577"><ele>145.0</ele><time>2026-03-28T10:48:42.469Z</time></trkpt><trkpt lat="43.62778" lon="11.5158667"><ele>145.0</ele><time>2026-03-28T10:48:43.469Z</time></trkpt><trkpt lat="43.6277817" lon="11.515965"><ele>145.0</ele><time>2026-03-28T10:48:44.47Z</time></trkpt><trkpt lat="43.6277833" lon="11.5160633"><ele>145.0</ele><time>2026-03-28T10:48:45.47Z</time></trkpt><trkpt lat="43.6277867" lon="11.5161617"><ele>145.0</ele><time>2026-03-28T10:48:46.47Z</time></trkpt><trkpt lat="43.6277883" lon="11.5162617"><ele>145.28571428571428</ele><time>2026-03-28T10:48:47.473Z</time></trkpt><trkpt lat="43.62779" lon="11.5163617"><ele>145.57142857142858</ele><time>2026-03-28T10:48:48.469Z</time></trkpt><trkpt lat="43.62779" lon="11.5164583"><ele>145.85714285714286</ele><time>2026-03-28T10:48:49.468Z</time></trkpt><trkpt lat="43.6277933" lon="11.516555"><ele>146.14285714285714</ele><time>2026-03-28T10:48:50.469Z</time></trkpt><trkpt lat="43.627795" lon="11.51665"><ele>146.42857142857144</ele><time>2026-03-28T10:48:51.469Z</time></trkpt><trkpt lat="43.627795" lon="11.5167417"><ele>146.71428571428572</ele><time>2026-03-28T10:48:52.468Z</time></trkpt><trkpt lat="43.6277917" lon="11.51683"><ele>147.0</ele><time>2026-03-28T10:48:53.468Z</time></trkpt><trkpt lat="43.6277867" lon="11.51699"><ele>147.5</ele><time>2026-03-28T10:48:55.469Z</time></trkpt><trkpt lat="43.6277817" lon="11.5171317"><ele>148.0</ele><time>2026-03-28T10:48:57.469Z</time></trkpt><trkpt lat="43.6277667" lon="11.5172483"><ele>148.5</ele><time>2026-03-28T10:48:59.47Z</time></trkpt><trkpt lat="43.6277167" lon="11.5173167"><ele>149.0</ele><time>2026-03-28T10:49:01.469Z</time></trkpt><trkpt lat="43.6276367" lon="11.5173467"><ele>149.5</ele><time>2026-03-28T10:49:03.471Z</time></trkpt><trkpt lat="43.62753" lon="11.5173533"><ele>150.0</ele><time>2026-03-28T10:49:05.47Z</time></trkpt><trkpt lat="43.6274367" lon="11.5173"><ele>150.0</ele><time>2026-03-28T10:49:07.473Z</time></trkpt><trkpt lat="43.627405" lon="11.5171717"><ele>150.0</ele><time>2026-03-28T10:49:09.472Z</time></trkpt><trkpt lat="43.627415" lon="11.51703"><ele>150.0</ele><time>2026-03-28T10:49:11.471Z</time></trkpt><trkpt lat="43.6274317" lon="11.516895"><ele>150.0</ele><time>2026-03-28T10:49:13.471Z</time></trkpt><trkpt lat="43.627435" lon="11.5167717"><ele>150.0</ele><time>2026-03-28T10:49:15.471Z</time></trkpt><trkpt lat="43.6274233" lon="11.51663"><ele>147.0</ele><time>2026-03-28T10:49:19.472Z</time></trkpt><trkpt lat="43.62744" lon="11.516525"><ele>147.0</ele><time>2026-03-28T10:49:22.47Z</time></trkpt><trkpt lat="43.62744" lon="11.5164233"><ele>147.0</ele><time>2026-03-28T10:49:25.47Z</time></trkpt></trkseg></trk></gpx>